<?xml version="1.0" encoding="UTF-8" standalone="no" ?>
<gpx xmlns="http://www.topografix.com/GPX/1/1" xmlns:xsi="http://www.w3.org/2001/XMLSchema-instance" xsi:schemaLocation="http://www.topografix.com/GPX/1/1 http://www.topografix.com/GPX/1/1/gpx.xsd" version="1.1" creator="VisuGPX - https://www.visugpx.com">
  <metadata>
    <name>Rando VTT Lozère 2012-2</name>
    <desc><![CDATA[Rando à VTT entre copains - le deuxième jour.]]></desc>
  </metadata>
  <trk>
    <name><![CDATA[LOZERE 2012-2]]></name>
    <trkseg>
      <trkpt lat="44.38532" lon="3.87501">
        <ele>1423.37</ele>
        <time>2012-06-17T07:10:44Z</time>
      </trkpt>
      <trkpt lat="44.38532" lon="3.87501">
        <ele>1426.25</ele>
        <time>2012-06-17T07:10:48Z</time>
      </trkpt>
      <trkpt lat="44.38533" lon="3.87501">
        <ele>1430.1</ele>
        <time>2012-06-17T07:10:54Z</time>
      </trkpt>
      <trkpt lat="44.38533" lon="3.875">
        <ele>1432.02</ele>
        <time>2012-06-17T07:10:59Z</time>
      </trkpt>
      <trkpt lat="44.38533" lon="3.87501">
        <ele>1433.94</ele>
        <time>2012-06-17T07:11:06Z</time>
      </trkpt>
      <trkpt lat="44.38535" lon="3.875">
        <ele>1435.39</ele>
        <time>2012-06-17T07:11:19Z</time>
      </trkpt>
      <trkpt lat="44.38537" lon="3.87502">
        <ele>1437.31</ele>
        <time>2012-06-17T07:11:33Z</time>
      </trkpt>
      <trkpt lat="44.38541" lon="3.87501">
        <ele>1436.83</ele>
        <time>2012-06-17T07:11:51Z</time>
      </trkpt>
      <trkpt lat="44.38541" lon="3.875">
        <ele>1434.91</ele>
        <time>2012-06-17T07:11:57Z</time>
      </trkpt>
      <trkpt lat="44.38545" lon="3.87502">
        <ele>1434.91</ele>
        <time>2012-06-17T07:12:22Z</time>
      </trkpt>
      <trkpt lat="44.38547" lon="3.87502">
        <ele>1436.35</ele>
        <time>2012-06-17T07:12:43Z</time>
      </trkpt>
      <trkpt lat="44.38548" lon="3.87504">
        <ele>1435.87</ele>
        <time>2012-06-17T07:12:49Z</time>
      </trkpt>
      <trkpt lat="44.38546" lon="3.87522">
        <ele>1435.87</ele>
        <time>2012-06-17T07:12:55Z</time>
      </trkpt>
      <trkpt lat="44.38546" lon="3.87529">
        <ele>1435.87</ele>
        <time>2012-06-17T07:12:56Z</time>
      </trkpt>
      <trkpt lat="44.38547" lon="3.87535">
        <ele>1435.39</ele>
        <time>2012-06-17T07:12:57Z</time>
      </trkpt>
      <trkpt lat="44.38562" lon="3.87564">
        <ele>1434.42</ele>
        <time>2012-06-17T07:13:03Z</time>
      </trkpt>
      <trkpt lat="44.38564" lon="3.87569">
        <ele>1433.94</ele>
        <time>2012-06-17T07:13:04Z</time>
      </trkpt>
      <trkpt lat="44.38565" lon="3.87572">
        <ele>1433.94</ele>
        <time>2012-06-17T07:13:05Z</time>
      </trkpt>
      <trkpt lat="44.38565" lon="3.87574">
        <ele>1433.94</ele>
        <time>2012-06-17T07:13:16Z</time>
      </trkpt>
      <trkpt lat="44.38566" lon="3.87574">
        <ele>1433.46</ele>
        <time>2012-06-17T07:13:42Z</time>
      </trkpt>
      <trkpt lat="44.38567" lon="3.87575">
        <ele>1435.87</ele>
        <time>2012-06-17T07:14:02Z</time>
      </trkpt>
      <trkpt lat="44.38567" lon="3.87575">
        <ele>1433.46</ele>
        <time>2012-06-17T07:14:04Z</time>
      </trkpt>
      <trkpt lat="44.38567" lon="3.87579">
        <ele>1432.98</ele>
        <time>2012-06-17T07:14:22Z</time>
      </trkpt>
      <trkpt lat="44.38567" lon="3.87581">
        <ele>1432.98</ele>
        <time>2012-06-17T07:14:23Z</time>
      </trkpt>
      <trkpt lat="44.38568" lon="3.87583">
        <ele>1432.98</ele>
        <time>2012-06-17T07:14:24Z</time>
      </trkpt>
      <trkpt lat="44.38569" lon="3.87585">
        <ele>1432.02</ele>
        <time>2012-06-17T07:14:25Z</time>
      </trkpt>
      <trkpt lat="44.3857" lon="3.87586">
        <ele>1432.5</ele>
        <time>2012-06-17T07:14:26Z</time>
      </trkpt>
      <trkpt lat="44.38579" lon="3.87563">
        <ele>1433.46</ele>
        <time>2012-06-17T07:14:35Z</time>
      </trkpt>
      <trkpt lat="44.3858" lon="3.87553">
        <ele>1434.42</ele>
        <time>2012-06-17T07:14:37Z</time>
      </trkpt>
      <trkpt lat="44.38586" lon="3.8754">
        <ele>1434.91</ele>
        <time>2012-06-17T07:14:45Z</time>
      </trkpt>
      <trkpt lat="44.38585" lon="3.8754">
        <ele>1435.39</ele>
        <time>2012-06-17T07:14:46Z</time>
      </trkpt>
      <trkpt lat="44.38581" lon="3.87549">
        <ele>1433.94</ele>
        <time>2012-06-17T07:14:56Z</time>
      </trkpt>
      <trkpt lat="44.38579" lon="3.87549">
        <ele>1433.94</ele>
        <time>2012-06-17T07:15:01Z</time>
      </trkpt>
      <trkpt lat="44.38574" lon="3.87527">
        <ele>1434.42</ele>
        <time>2012-06-17T07:15:10Z</time>
      </trkpt>
      <trkpt lat="44.38573" lon="3.87524">
        <ele>1434.91</ele>
        <time>2012-06-17T07:15:11Z</time>
      </trkpt>
      <trkpt lat="44.38568" lon="3.87508">
        <ele>1435.39</ele>
        <time>2012-06-17T07:15:16Z</time>
      </trkpt>
      <trkpt lat="44.38563" lon="3.87489">
        <ele>1434.42</ele>
        <time>2012-06-17T07:15:22Z</time>
      </trkpt>
      <trkpt lat="44.38567" lon="3.8748">
        <ele>1434.91</ele>
        <time>2012-06-17T07:15:24Z</time>
      </trkpt>
      <trkpt lat="44.38574" lon="3.8747">
        <ele>1434.42</ele>
        <time>2012-06-17T07:15:26Z</time>
      </trkpt>
      <trkpt lat="44.38576" lon="3.87465">
        <ele>1434.42</ele>
        <time>2012-06-17T07:15:27Z</time>
      </trkpt>
      <trkpt lat="44.38578" lon="3.8746">
        <ele>1434.42</ele>
        <time>2012-06-17T07:15:28Z</time>
      </trkpt>
      <trkpt lat="44.38595" lon="3.87408">
        <ele>1434.91</ele>
        <time>2012-06-17T07:15:39Z</time>
      </trkpt>
      <trkpt lat="44.3861" lon="3.87379">
        <ele>1435.39</ele>
        <time>2012-06-17T07:15:47Z</time>
      </trkpt>
      <trkpt lat="44.38622" lon="3.87373">
        <ele>1436.83</ele>
        <time>2012-06-17T07:15:52Z</time>
      </trkpt>
      <trkpt lat="44.38639" lon="3.8733">
        <ele>1436.35</ele>
        <time>2012-06-17T07:16:02Z</time>
      </trkpt>
      <trkpt lat="44.38639" lon="3.87324">
        <ele>1436.83</ele>
        <time>2012-06-17T07:16:03Z</time>
      </trkpt>
      <trkpt lat="44.3864" lon="3.87319">
        <ele>1436.83</ele>
        <time>2012-06-17T07:16:04Z</time>
      </trkpt>
      <trkpt lat="44.38647" lon="3.8726">
        <ele>1436.35</ele>
        <time>2012-06-17T07:16:17Z</time>
      </trkpt>
      <trkpt lat="44.38649" lon="3.872">
        <ele>1436.35</ele>
        <time>2012-06-17T07:16:29Z</time>
      </trkpt>
      <trkpt lat="44.38649" lon="3.87182">
        <ele>1436.83</ele>
        <time>2012-06-17T07:16:32Z</time>
      </trkpt>
      <trkpt lat="44.38648" lon="3.87178">
        <ele>1437.31</ele>
        <time>2012-06-17T07:16:33Z</time>
      </trkpt>
      <trkpt lat="44.38647" lon="3.87174">
        <ele>1437.79</ele>
        <time>2012-06-17T07:16:34Z</time>
      </trkpt>
      <trkpt lat="44.38634" lon="3.8716">
        <ele>1437.79</ele>
        <time>2012-06-17T07:16:45Z</time>
      </trkpt>
      <trkpt lat="44.38634" lon="3.87163">
        <ele>1437.79</ele>
        <time>2012-06-17T07:16:47Z</time>
      </trkpt>
      <trkpt lat="44.38634" lon="3.87163">
        <ele>1437.31</ele>
        <time>2012-06-17T07:16:48Z</time>
      </trkpt>
      <trkpt lat="44.38636" lon="3.87165">
        <ele>1437.31</ele>
        <time>2012-06-17T07:16:49Z</time>
      </trkpt>
      <trkpt lat="44.38636" lon="3.87168">
        <ele>1437.31</ele>
        <time>2012-06-17T07:16:50Z</time>
      </trkpt>
      <trkpt lat="44.38637" lon="3.87169">
        <ele>1437.31</ele>
        <time>2012-06-17T07:16:51Z</time>
      </trkpt>
      <trkpt lat="44.38638" lon="3.87172">
        <ele>1436.83</ele>
        <time>2012-06-17T07:16:52Z</time>
      </trkpt>
      <trkpt lat="44.38638" lon="3.8716">
        <ele>1437.79</ele>
        <time>2012-06-17T07:16:58Z</time>
      </trkpt>
      <trkpt lat="44.38628" lon="3.87149">
        <ele>1437.79</ele>
        <time>2012-06-17T07:17:02Z</time>
      </trkpt>
      <trkpt lat="44.38603" lon="3.87122">
        <ele>1437.79</ele>
        <time>2012-06-17T07:17:13Z</time>
      </trkpt>
      <trkpt lat="44.38599" lon="3.87113">
        <ele>1437.79</ele>
        <time>2012-06-17T07:17:15Z</time>
      </trkpt>
      <trkpt lat="44.38597" lon="3.87107">
        <ele>1437.79</ele>
        <time>2012-06-17T07:17:16Z</time>
      </trkpt>
      <trkpt lat="44.38596" lon="3.87101">
        <ele>1437.79</ele>
        <time>2012-06-17T07:17:17Z</time>
      </trkpt>
      <trkpt lat="44.38596" lon="3.87096">
        <ele>1437.79</ele>
        <time>2012-06-17T07:17:18Z</time>
      </trkpt>
      <trkpt lat="44.38595" lon="3.87089">
        <ele>1437.79</ele>
        <time>2012-06-17T07:17:19Z</time>
      </trkpt>
      <trkpt lat="44.38595" lon="3.87083">
        <ele>1437.79</ele>
        <time>2012-06-17T07:17:20Z</time>
      </trkpt>
      <trkpt lat="44.38594" lon="3.87065">
        <ele>1437.79</ele>
        <time>2012-06-17T07:17:23Z</time>
      </trkpt>
      <trkpt lat="44.38594" lon="3.8706">
        <ele>1437.79</ele>
        <time>2012-06-17T07:17:24Z</time>
      </trkpt>
      <trkpt lat="44.38581" lon="3.86996">
        <ele>1439.71</ele>
        <time>2012-06-17T07:17:38Z</time>
      </trkpt>
      <trkpt lat="44.38577" lon="3.8696">
        <ele>1442.11</ele>
        <time>2012-06-17T07:17:49Z</time>
      </trkpt>
      <trkpt lat="44.38576" lon="3.86911">
        <ele>1442.11</ele>
        <time>2012-06-17T07:18:00Z</time>
      </trkpt>
      <trkpt lat="44.38576" lon="3.86903">
        <ele>1441.63</ele>
        <time>2012-06-17T07:18:01Z</time>
      </trkpt>
      <trkpt lat="44.38574" lon="3.86878">
        <ele>1440.19</ele>
        <time>2012-06-17T07:18:04Z</time>
      </trkpt>
      <trkpt lat="44.38574" lon="3.86869">
        <ele>1439.71</ele>
        <time>2012-06-17T07:18:05Z</time>
      </trkpt>
      <trkpt lat="44.38575" lon="3.86861">
        <ele>1439.23</ele>
        <time>2012-06-17T07:18:06Z</time>
      </trkpt>
      <trkpt lat="44.38574" lon="3.86852">
        <ele>1439.23</ele>
        <time>2012-06-17T07:18:07Z</time>
      </trkpt>
      <trkpt lat="44.38573" lon="3.86844">
        <ele>1439.71</ele>
        <time>2012-06-17T07:18:08Z</time>
      </trkpt>
      <trkpt lat="44.38571" lon="3.86837">
        <ele>1439.23</ele>
        <time>2012-06-17T07:18:09Z</time>
      </trkpt>
      <trkpt lat="44.3857" lon="3.86831">
        <ele>1439.23</ele>
        <time>2012-06-17T07:18:10Z</time>
      </trkpt>
      <trkpt lat="44.38567" lon="3.86817">
        <ele>1438.75</ele>
        <time>2012-06-17T07:18:12Z</time>
      </trkpt>
      <trkpt lat="44.38556" lon="3.86777">
        <ele>1438.75</ele>
        <time>2012-06-17T07:18:18Z</time>
      </trkpt>
      <trkpt lat="44.38555" lon="3.8677">
        <ele>1439.23</ele>
        <time>2012-06-17T07:18:19Z</time>
      </trkpt>
      <trkpt lat="44.38553" lon="3.86756">
        <ele>1438.75</ele>
        <time>2012-06-17T07:18:21Z</time>
      </trkpt>
      <trkpt lat="44.38551" lon="3.8675">
        <ele>1438.75</ele>
        <time>2012-06-17T07:18:22Z</time>
      </trkpt>
      <trkpt lat="44.38548" lon="3.86745">
        <ele>1438.75</ele>
        <time>2012-06-17T07:18:23Z</time>
      </trkpt>
      <trkpt lat="44.38501" lon="3.86688">
        <ele>1437.31</ele>
        <time>2012-06-17T07:18:36Z</time>
      </trkpt>
      <trkpt lat="44.38482" lon="3.86664">
        <ele>1436.35</ele>
        <time>2012-06-17T07:18:44Z</time>
      </trkpt>
      <trkpt lat="44.38481" lon="3.8666">
        <ele>1437.79</ele>
        <time>2012-06-17T07:18:45Z</time>
      </trkpt>
      <trkpt lat="44.38481" lon="3.86657">
        <ele>1437.79</ele>
        <time>2012-06-17T07:18:46Z</time>
      </trkpt>
      <trkpt lat="44.3848" lon="3.86655">
        <ele>1437.79</ele>
        <time>2012-06-17T07:18:47Z</time>
      </trkpt>
      <trkpt lat="44.38478" lon="3.86654">
        <ele>1437.31</ele>
        <time>2012-06-17T07:18:48Z</time>
      </trkpt>
      <trkpt lat="44.38475" lon="3.86654">
        <ele>1436.83</ele>
        <time>2012-06-17T07:18:49Z</time>
      </trkpt>
      <trkpt lat="44.38471" lon="3.86653">
        <ele>1436.35</ele>
        <time>2012-06-17T07:18:50Z</time>
      </trkpt>
      <trkpt lat="44.38468" lon="3.86651">
        <ele>1436.35</ele>
        <time>2012-06-17T07:18:51Z</time>
      </trkpt>
      <trkpt lat="44.38464" lon="3.86647">
        <ele>1436.35</ele>
        <time>2012-06-17T07:18:52Z</time>
      </trkpt>
      <trkpt lat="44.38457" lon="3.86638">
        <ele>1436.35</ele>
        <time>2012-06-17T07:18:55Z</time>
      </trkpt>
      <trkpt lat="44.38454" lon="3.86636">
        <ele>1436.35</ele>
        <time>2012-06-17T07:18:56Z</time>
      </trkpt>
      <trkpt lat="44.38422" lon="3.86589">
        <ele>1436.83</ele>
        <time>2012-06-17T07:19:09Z</time>
      </trkpt>
      <trkpt lat="44.38416" lon="3.86576">
        <ele>1437.79</ele>
        <time>2012-06-17T07:19:12Z</time>
      </trkpt>
      <trkpt lat="44.38414" lon="3.86573">
        <ele>1437.31</ele>
        <time>2012-06-17T07:19:13Z</time>
      </trkpt>
      <trkpt lat="44.38418" lon="3.8652">
        <ele>1438.27</ele>
        <time>2012-06-17T07:19:25Z</time>
      </trkpt>
      <trkpt lat="44.38423" lon="3.86466">
        <ele>1439.71</ele>
        <time>2012-06-17T07:19:37Z</time>
      </trkpt>
      <trkpt lat="44.38406" lon="3.86419">
        <ele>1440.67</ele>
        <time>2012-06-17T07:19:48Z</time>
      </trkpt>
      <trkpt lat="44.38385" lon="3.86372">
        <ele>1442.11</ele>
        <time>2012-06-17T07:19:59Z</time>
      </trkpt>
      <trkpt lat="44.38375" lon="3.86329">
        <ele>1442.6</ele>
        <time>2012-06-17T07:20:08Z</time>
      </trkpt>
      <trkpt lat="44.38366" lon="3.86308">
        <ele>1444.04</ele>
        <time>2012-06-17T07:20:13Z</time>
      </trkpt>
      <trkpt lat="44.38362" lon="3.86301">
        <ele>1444.04</ele>
        <time>2012-06-17T07:20:15Z</time>
      </trkpt>
      <trkpt lat="44.3836" lon="3.86297">
        <ele>1444.52</ele>
        <time>2012-06-17T07:20:16Z</time>
      </trkpt>
      <trkpt lat="44.38358" lon="3.86293">
        <ele>1444.04</ele>
        <time>2012-06-17T07:20:17Z</time>
      </trkpt>
      <trkpt lat="44.38357" lon="3.86288">
        <ele>1444.52</ele>
        <time>2012-06-17T07:20:18Z</time>
      </trkpt>
      <trkpt lat="44.38355" lon="3.86284">
        <ele>1444.52</ele>
        <time>2012-06-17T07:20:19Z</time>
      </trkpt>
      <trkpt lat="44.38344" lon="3.86237">
        <ele>1444.52</ele>
        <time>2012-06-17T07:20:29Z</time>
      </trkpt>
      <trkpt lat="44.38345" lon="3.86196">
        <ele>1444.04</ele>
        <time>2012-06-17T07:20:36Z</time>
      </trkpt>
      <trkpt lat="44.38354" lon="3.86126">
        <ele>1441.15</ele>
        <time>2012-06-17T07:20:45Z</time>
      </trkpt>
      <trkpt lat="44.3836" lon="3.86087">
        <ele>1439.71</ele>
        <time>2012-06-17T07:20:50Z</time>
      </trkpt>
      <trkpt lat="44.38362" lon="3.86034">
        <ele>1437.79</ele>
        <time>2012-06-17T07:20:57Z</time>
      </trkpt>
      <trkpt lat="44.38363" lon="3.86026">
        <ele>1437.79</ele>
        <time>2012-06-17T07:20:58Z</time>
      </trkpt>
      <trkpt lat="44.38363" lon="3.8598">
        <ele>1438.75</ele>
        <time>2012-06-17T07:21:04Z</time>
      </trkpt>
      <trkpt lat="44.38364" lon="3.85973">
        <ele>1438.75</ele>
        <time>2012-06-17T07:21:05Z</time>
      </trkpt>
      <trkpt lat="44.38365" lon="3.85965">
        <ele>1438.75</ele>
        <time>2012-06-17T07:21:06Z</time>
      </trkpt>
      <trkpt lat="44.38365" lon="3.85921">
        <ele>1439.23</ele>
        <time>2012-06-17T07:21:12Z</time>
      </trkpt>
      <trkpt lat="44.38365" lon="3.85914">
        <ele>1439.23</ele>
        <time>2012-06-17T07:21:13Z</time>
      </trkpt>
      <trkpt lat="44.38365" lon="3.85908">
        <ele>1438.75</ele>
        <time>2012-06-17T07:21:14Z</time>
      </trkpt>
      <trkpt lat="44.38364" lon="3.85901">
        <ele>1438.75</ele>
        <time>2012-06-17T07:21:15Z</time>
      </trkpt>
      <trkpt lat="44.38365" lon="3.85896">
        <ele>1438.75</ele>
        <time>2012-06-17T07:21:16Z</time>
      </trkpt>
      <trkpt lat="44.38365" lon="3.85884">
        <ele>1438.75</ele>
        <time>2012-06-17T07:21:18Z</time>
      </trkpt>
      <trkpt lat="44.38365" lon="3.85855">
        <ele>1438.75</ele>
        <time>2012-06-17T07:21:23Z</time>
      </trkpt>
      <trkpt lat="44.38367" lon="3.85771">
        <ele>1438.75</ele>
        <time>2012-06-17T07:21:37Z</time>
      </trkpt>
      <trkpt lat="44.38368" lon="3.85736">
        <ele>1438.75</ele>
        <time>2012-06-17T07:21:42Z</time>
      </trkpt>
      <trkpt lat="44.38368" lon="3.8573">
        <ele>1438.75</ele>
        <time>2012-06-17T07:21:43Z</time>
      </trkpt>
      <trkpt lat="44.38368" lon="3.85723">
        <ele>1438.75</ele>
        <time>2012-06-17T07:21:44Z</time>
      </trkpt>
      <trkpt lat="44.38368" lon="3.85716">
        <ele>1438.75</ele>
        <time>2012-06-17T07:21:45Z</time>
      </trkpt>
      <trkpt lat="44.38367" lon="3.85709">
        <ele>1438.75</ele>
        <time>2012-06-17T07:21:46Z</time>
      </trkpt>
      <trkpt lat="44.38367" lon="3.85702">
        <ele>1438.27</ele>
        <time>2012-06-17T07:21:47Z</time>
      </trkpt>
      <trkpt lat="44.38365" lon="3.85682">
        <ele>1438.75</ele>
        <time>2012-06-17T07:21:50Z</time>
      </trkpt>
      <trkpt lat="44.38362" lon="3.85669">
        <ele>1438.75</ele>
        <time>2012-06-17T07:21:52Z</time>
      </trkpt>
      <trkpt lat="44.38354" lon="3.85615">
        <ele>1439.23</ele>
        <time>2012-06-17T07:22:00Z</time>
      </trkpt>
      <trkpt lat="44.38352" lon="3.85609">
        <ele>1439.71</ele>
        <time>2012-06-17T07:22:01Z</time>
      </trkpt>
      <trkpt lat="44.3835" lon="3.85603">
        <ele>1439.71</ele>
        <time>2012-06-17T07:22:02Z</time>
      </trkpt>
      <trkpt lat="44.38345" lon="3.85586">
        <ele>1439.23</ele>
        <time>2012-06-17T07:22:05Z</time>
      </trkpt>
      <trkpt lat="44.38326" lon="3.85543">
        <ele>1440.67</ele>
        <time>2012-06-17T07:22:13Z</time>
      </trkpt>
      <trkpt lat="44.38324" lon="3.85537">
        <ele>1440.19</ele>
        <time>2012-06-17T07:22:14Z</time>
      </trkpt>
      <trkpt lat="44.38312" lon="3.85485">
        <ele>1442.6</ele>
        <time>2012-06-17T07:22:24Z</time>
      </trkpt>
      <trkpt lat="44.38302" lon="3.85428">
        <ele>1444.52</ele>
        <time>2012-06-17T07:22:36Z</time>
      </trkpt>
      <trkpt lat="44.38302" lon="3.85422">
        <ele>1444.52</ele>
        <time>2012-06-17T07:22:37Z</time>
      </trkpt>
      <trkpt lat="44.38314" lon="3.8536">
        <ele>1445.96</ele>
        <time>2012-06-17T07:22:49Z</time>
      </trkpt>
      <trkpt lat="44.38317" lon="3.85355">
        <ele>1445.96</ele>
        <time>2012-06-17T07:22:50Z</time>
      </trkpt>
      <trkpt lat="44.3832" lon="3.85351">
        <ele>1445.48</ele>
        <time>2012-06-17T07:22:51Z</time>
      </trkpt>
      <trkpt lat="44.38323" lon="3.85347">
        <ele>1445.48</ele>
        <time>2012-06-17T07:22:52Z</time>
      </trkpt>
      <trkpt lat="44.38327" lon="3.85342">
        <ele>1445</ele>
        <time>2012-06-17T07:22:53Z</time>
      </trkpt>
      <trkpt lat="44.3833" lon="3.85337">
        <ele>1445</ele>
        <time>2012-06-17T07:22:54Z</time>
      </trkpt>
      <trkpt lat="44.38344" lon="3.85321">
        <ele>1444.52</ele>
        <time>2012-06-17T07:22:57Z</time>
      </trkpt>
      <trkpt lat="44.3835" lon="3.85317">
        <ele>1443.56</ele>
        <time>2012-06-17T07:22:58Z</time>
      </trkpt>
      <trkpt lat="44.38356" lon="3.85312">
        <ele>1444.04</ele>
        <time>2012-06-17T07:22:59Z</time>
      </trkpt>
      <trkpt lat="44.38374" lon="3.853">
        <ele>1442.6</ele>
        <time>2012-06-17T07:23:02Z</time>
      </trkpt>
      <trkpt lat="44.3838" lon="3.85295">
        <ele>1442.11</ele>
        <time>2012-06-17T07:23:03Z</time>
      </trkpt>
      <trkpt lat="44.38385" lon="3.85288">
        <ele>1441.63</ele>
        <time>2012-06-17T07:23:04Z</time>
      </trkpt>
      <trkpt lat="44.38396" lon="3.85274">
        <ele>1440.67</ele>
        <time>2012-06-17T07:23:06Z</time>
      </trkpt>
      <trkpt lat="44.38403" lon="3.85269">
        <ele>1440.67</ele>
        <time>2012-06-17T07:23:07Z</time>
      </trkpt>
      <trkpt lat="44.38456" lon="3.85241">
        <ele>1438.75</ele>
        <time>2012-06-17T07:23:14Z</time>
      </trkpt>
      <trkpt lat="44.38463" lon="3.85239">
        <ele>1438.75</ele>
        <time>2012-06-17T07:23:15Z</time>
      </trkpt>
      <trkpt lat="44.38471" lon="3.85234">
        <ele>1438.27</ele>
        <time>2012-06-17T07:23:16Z</time>
      </trkpt>
      <trkpt lat="44.38477" lon="3.85227">
        <ele>1437.79</ele>
        <time>2012-06-17T07:23:17Z</time>
      </trkpt>
      <trkpt lat="44.38481" lon="3.85217">
        <ele>1437.31</ele>
        <time>2012-06-17T07:23:18Z</time>
      </trkpt>
      <trkpt lat="44.38483" lon="3.85206">
        <ele>1436.83</ele>
        <time>2012-06-17T07:23:19Z</time>
      </trkpt>
      <trkpt lat="44.38484" lon="3.85195">
        <ele>1436.83</ele>
        <time>2012-06-17T07:23:20Z</time>
      </trkpt>
      <trkpt lat="44.38484" lon="3.85183">
        <ele>1436.83</ele>
        <time>2012-06-17T07:23:21Z</time>
      </trkpt>
      <trkpt lat="44.38483" lon="3.85172">
        <ele>1435.87</ele>
        <time>2012-06-17T07:23:22Z</time>
      </trkpt>
      <trkpt lat="44.38481" lon="3.85161">
        <ele>1436.35</ele>
        <time>2012-06-17T07:23:23Z</time>
      </trkpt>
      <trkpt lat="44.38476" lon="3.85152">
        <ele>1436.35</ele>
        <time>2012-06-17T07:23:24Z</time>
      </trkpt>
      <trkpt lat="44.3847" lon="3.85144">
        <ele>1435.87</ele>
        <time>2012-06-17T07:23:25Z</time>
      </trkpt>
      <trkpt lat="44.38464" lon="3.85139">
        <ele>1435.39</ele>
        <time>2012-06-17T07:23:26Z</time>
      </trkpt>
      <trkpt lat="44.38457" lon="3.85134">
        <ele>1435.39</ele>
        <time>2012-06-17T07:23:27Z</time>
      </trkpt>
      <trkpt lat="44.3845" lon="3.8513">
        <ele>1435.87</ele>
        <time>2012-06-17T07:23:28Z</time>
      </trkpt>
      <trkpt lat="44.38443" lon="3.85126">
        <ele>1434.42</ele>
        <time>2012-06-17T07:23:29Z</time>
      </trkpt>
      <trkpt lat="44.38365" lon="3.85081">
        <ele>1432.02</ele>
        <time>2012-06-17T07:23:42Z</time>
      </trkpt>
      <trkpt lat="44.38359" lon="3.85079">
        <ele>1432.5</ele>
        <time>2012-06-17T07:23:43Z</time>
      </trkpt>
      <trkpt lat="44.38353" lon="3.85078">
        <ele>1431.54</ele>
        <time>2012-06-17T07:23:44Z</time>
      </trkpt>
      <trkpt lat="44.38341" lon="3.85079">
        <ele>1431.54</ele>
        <time>2012-06-17T07:23:46Z</time>
      </trkpt>
      <trkpt lat="44.38322" lon="3.8508">
        <ele>1431.06</ele>
        <time>2012-06-17T07:23:49Z</time>
      </trkpt>
      <trkpt lat="44.38316" lon="3.85077">
        <ele>1430.58</ele>
        <time>2012-06-17T07:23:50Z</time>
      </trkpt>
      <trkpt lat="44.3831" lon="3.85073">
        <ele>1430.1</ele>
        <time>2012-06-17T07:23:51Z</time>
      </trkpt>
      <trkpt lat="44.38304" lon="3.85071">
        <ele>1430.1</ele>
        <time>2012-06-17T07:23:52Z</time>
      </trkpt>
      <trkpt lat="44.38297" lon="3.8507">
        <ele>1430.1</ele>
        <time>2012-06-17T07:23:53Z</time>
      </trkpt>
      <trkpt lat="44.38291" lon="3.85072">
        <ele>1430.1</ele>
        <time>2012-06-17T07:23:54Z</time>
      </trkpt>
      <trkpt lat="44.38285" lon="3.85074">
        <ele>1430.1</ele>
        <time>2012-06-17T07:23:55Z</time>
      </trkpt>
      <trkpt lat="44.38279" lon="3.85078">
        <ele>1430.1</ele>
        <time>2012-06-17T07:23:56Z</time>
      </trkpt>
      <trkpt lat="44.38272" lon="3.85081">
        <ele>1429.62</ele>
        <time>2012-06-17T07:23:57Z</time>
      </trkpt>
      <trkpt lat="44.38266" lon="3.85083">
        <ele>1429.62</ele>
        <time>2012-06-17T07:23:58Z</time>
      </trkpt>
      <trkpt lat="44.3826" lon="3.85084">
        <ele>1429.62</ele>
        <time>2012-06-17T07:23:59Z</time>
      </trkpt>
      <trkpt lat="44.38254" lon="3.85084">
        <ele>1429.62</ele>
        <time>2012-06-17T07:24:00Z</time>
      </trkpt>
      <trkpt lat="44.38221" lon="3.85082">
        <ele>1428.18</ele>
        <time>2012-06-17T07:24:06Z</time>
      </trkpt>
      <trkpt lat="44.38216" lon="3.85081">
        <ele>1427.7</ele>
        <time>2012-06-17T07:24:07Z</time>
      </trkpt>
      <trkpt lat="44.38196" lon="3.85078">
        <ele>1427.7</ele>
        <time>2012-06-17T07:24:16Z</time>
      </trkpt>
      <trkpt lat="44.38192" lon="3.85077">
        <ele>1426.25</ele>
        <time>2012-06-17T07:24:27Z</time>
      </trkpt>
      <trkpt lat="44.38191" lon="3.85077">
        <ele>1426.73</ele>
        <time>2012-06-17T07:24:36Z</time>
      </trkpt>
      <trkpt lat="44.3819" lon="3.85076">
        <ele>1427.21</ele>
        <time>2012-06-17T07:24:37Z</time>
      </trkpt>
      <trkpt lat="44.38188" lon="3.85075">
        <ele>1426.73</ele>
        <time>2012-06-17T07:24:38Z</time>
      </trkpt>
      <trkpt lat="44.38187" lon="3.85074">
        <ele>1426.73</ele>
        <time>2012-06-17T07:24:39Z</time>
      </trkpt>
      <trkpt lat="44.38185" lon="3.85073">
        <ele>1426.73</ele>
        <time>2012-06-17T07:24:40Z</time>
      </trkpt>
      <trkpt lat="44.38184" lon="3.85073">
        <ele>1426.73</ele>
        <time>2012-06-17T07:24:41Z</time>
      </trkpt>
      <trkpt lat="44.38183" lon="3.85072">
        <ele>1426.25</ele>
        <time>2012-06-17T07:24:42Z</time>
      </trkpt>
      <trkpt lat="44.38181" lon="3.85071">
        <ele>1426.25</ele>
        <time>2012-06-17T07:24:43Z</time>
      </trkpt>
      <trkpt lat="44.3818" lon="3.8507">
        <ele>1426.25</ele>
        <time>2012-06-17T07:24:44Z</time>
      </trkpt>
      <trkpt lat="44.38179" lon="3.85069">
        <ele>1425.29</ele>
        <time>2012-06-17T07:24:45Z</time>
      </trkpt>
      <trkpt lat="44.38173" lon="3.85059">
        <ele>1425.77</ele>
        <time>2012-06-17T07:24:50Z</time>
      </trkpt>
      <trkpt lat="44.38172" lon="3.85056">
        <ele>1425.77</ele>
        <time>2012-06-17T07:24:51Z</time>
      </trkpt>
      <trkpt lat="44.38172" lon="3.85053">
        <ele>1425.77</ele>
        <time>2012-06-17T07:24:52Z</time>
      </trkpt>
      <trkpt lat="44.38155" lon="3.85001">
        <ele>1424.33</ele>
        <time>2012-06-17T07:25:04Z</time>
      </trkpt>
      <trkpt lat="44.38152" lon="3.84994">
        <ele>1424.33</ele>
        <time>2012-06-17T07:25:05Z</time>
      </trkpt>
      <trkpt lat="44.38135" lon="3.84938">
        <ele>1423.37</ele>
        <time>2012-06-17T07:25:12Z</time>
      </trkpt>
      <trkpt lat="44.38132" lon="3.84929">
        <ele>1423.37</ele>
        <time>2012-06-17T07:25:13Z</time>
      </trkpt>
      <trkpt lat="44.38129" lon="3.84921">
        <ele>1423.85</ele>
        <time>2012-06-17T07:25:14Z</time>
      </trkpt>
      <trkpt lat="44.38128" lon="3.84911">
        <ele>1422.89</ele>
        <time>2012-06-17T07:25:15Z</time>
      </trkpt>
      <trkpt lat="44.38127" lon="3.84901">
        <ele>1422.41</ele>
        <time>2012-06-17T07:25:16Z</time>
      </trkpt>
      <trkpt lat="44.38125" lon="3.84881">
        <ele>1421.93</ele>
        <time>2012-06-17T07:25:18Z</time>
      </trkpt>
      <trkpt lat="44.38125" lon="3.84871">
        <ele>1420.97</ele>
        <time>2012-06-17T07:25:19Z</time>
      </trkpt>
      <trkpt lat="44.38126" lon="3.8486">
        <ele>1420.49</ele>
        <time>2012-06-17T07:25:20Z</time>
      </trkpt>
      <trkpt lat="44.38128" lon="3.84851">
        <ele>1420.49</ele>
        <time>2012-06-17T07:25:21Z</time>
      </trkpt>
      <trkpt lat="44.38132" lon="3.84841">
        <ele>1420</ele>
        <time>2012-06-17T07:25:22Z</time>
      </trkpt>
      <trkpt lat="44.38137" lon="3.84833">
        <ele>1419.52</ele>
        <time>2012-06-17T07:25:23Z</time>
      </trkpt>
      <trkpt lat="44.38141" lon="3.84824">
        <ele>1419.52</ele>
        <time>2012-06-17T07:25:24Z</time>
      </trkpt>
      <trkpt lat="44.38145" lon="3.84814">
        <ele>1418.56</ele>
        <time>2012-06-17T07:25:25Z</time>
      </trkpt>
      <trkpt lat="44.38148" lon="3.84803">
        <ele>1419.04</ele>
        <time>2012-06-17T07:25:26Z</time>
      </trkpt>
      <trkpt lat="44.3815" lon="3.84792">
        <ele>1419.04</ele>
        <time>2012-06-17T07:25:27Z</time>
      </trkpt>
      <trkpt lat="44.3815" lon="3.84781">
        <ele>1418.08</ele>
        <time>2012-06-17T07:25:28Z</time>
      </trkpt>
      <trkpt lat="44.3815" lon="3.8477">
        <ele>1417.6</ele>
        <time>2012-06-17T07:25:29Z</time>
      </trkpt>
      <trkpt lat="44.38148" lon="3.84758">
        <ele>1417.12</ele>
        <time>2012-06-17T07:25:30Z</time>
      </trkpt>
      <trkpt lat="44.38145" lon="3.84746">
        <ele>1416.16</ele>
        <time>2012-06-17T07:25:31Z</time>
      </trkpt>
      <trkpt lat="44.38141" lon="3.84734">
        <ele>1416.16</ele>
        <time>2012-06-17T07:25:32Z</time>
      </trkpt>
      <trkpt lat="44.38136" lon="3.84723">
        <ele>1415.2</ele>
        <time>2012-06-17T07:25:33Z</time>
      </trkpt>
      <trkpt lat="44.3813" lon="3.84711">
        <ele>1414.72</ele>
        <time>2012-06-17T07:25:34Z</time>
      </trkpt>
      <trkpt lat="44.38123" lon="3.847">
        <ele>1414.24</ele>
        <time>2012-06-17T07:25:35Z</time>
      </trkpt>
      <trkpt lat="44.38097" lon="3.84658">
        <ele>1411.83</ele>
        <time>2012-06-17T07:25:39Z</time>
      </trkpt>
      <trkpt lat="44.3809" lon="3.84648">
        <ele>1411.83</ele>
        <time>2012-06-17T07:25:40Z</time>
      </trkpt>
      <trkpt lat="44.38083" lon="3.84638">
        <ele>1411.35</ele>
        <time>2012-06-17T07:25:41Z</time>
      </trkpt>
      <trkpt lat="44.38064" lon="3.84608">
        <ele>1410.87</ele>
        <time>2012-06-17T07:25:44Z</time>
      </trkpt>
      <trkpt lat="44.38046" lon="3.84583">
        <ele>1408.47</ele>
        <time>2012-06-17T07:25:47Z</time>
      </trkpt>
      <trkpt lat="44.38043" lon="3.84574">
        <ele>1408.95</ele>
        <time>2012-06-17T07:25:48Z</time>
      </trkpt>
      <trkpt lat="44.38036" lon="3.84543">
        <ele>1406.55</ele>
        <time>2012-06-17T07:25:51Z</time>
      </trkpt>
      <trkpt lat="44.38022" lon="3.84472">
        <ele>1402.7</ele>
        <time>2012-06-17T07:25:58Z</time>
      </trkpt>
      <trkpt lat="44.3802" lon="3.84461">
        <ele>1402.7</ele>
        <time>2012-06-17T07:25:59Z</time>
      </trkpt>
      <trkpt lat="44.38018" lon="3.84438">
        <ele>1401.74</ele>
        <time>2012-06-17T07:26:01Z</time>
      </trkpt>
      <trkpt lat="44.38018" lon="3.84426">
        <ele>1401.74</ele>
        <time>2012-06-17T07:26:02Z</time>
      </trkpt>
      <trkpt lat="44.38019" lon="3.84379">
        <ele>1399.82</ele>
        <time>2012-06-17T07:26:06Z</time>
      </trkpt>
      <trkpt lat="44.38024" lon="3.84344">
        <ele>1397.41</ele>
        <time>2012-06-17T07:26:09Z</time>
      </trkpt>
      <trkpt lat="44.38027" lon="3.84334">
        <ele>1397.41</ele>
        <time>2012-06-17T07:26:10Z</time>
      </trkpt>
      <trkpt lat="44.38031" lon="3.84324">
        <ele>1396.93</ele>
        <time>2012-06-17T07:26:11Z</time>
      </trkpt>
      <trkpt lat="44.38045" lon="3.84297">
        <ele>1396.45</ele>
        <time>2012-06-17T07:26:14Z</time>
      </trkpt>
      <trkpt lat="44.38049" lon="3.84288">
        <ele>1395.49</ele>
        <time>2012-06-17T07:26:15Z</time>
      </trkpt>
      <trkpt lat="44.38056" lon="3.84267">
        <ele>1394.05</ele>
        <time>2012-06-17T07:26:17Z</time>
      </trkpt>
      <trkpt lat="44.3806" lon="3.84257">
        <ele>1394.53</ele>
        <time>2012-06-17T07:26:18Z</time>
      </trkpt>
      <trkpt lat="44.38064" lon="3.84247">
        <ele>1393.57</ele>
        <time>2012-06-17T07:26:19Z</time>
      </trkpt>
      <trkpt lat="44.38069" lon="3.84237">
        <ele>1393.09</ele>
        <time>2012-06-17T07:26:20Z</time>
      </trkpt>
      <trkpt lat="44.38075" lon="3.84229">
        <ele>1392.61</ele>
        <time>2012-06-17T07:26:21Z</time>
      </trkpt>
      <trkpt lat="44.38082" lon="3.84222">
        <ele>1391.65</ele>
        <time>2012-06-17T07:26:22Z</time>
      </trkpt>
      <trkpt lat="44.38088" lon="3.84215">
        <ele>1391.65</ele>
        <time>2012-06-17T07:26:23Z</time>
      </trkpt>
      <trkpt lat="44.38095" lon="3.84209">
        <ele>1390.68</ele>
        <time>2012-06-17T07:26:24Z</time>
      </trkpt>
      <trkpt lat="44.38103" lon="3.84205">
        <ele>1390.68</ele>
        <time>2012-06-17T07:26:25Z</time>
      </trkpt>
      <trkpt lat="44.38111" lon="3.84203">
        <ele>1390.68</ele>
        <time>2012-06-17T07:26:26Z</time>
      </trkpt>
      <trkpt lat="44.38119" lon="3.84204">
        <ele>1389.72</ele>
        <time>2012-06-17T07:26:27Z</time>
      </trkpt>
      <trkpt lat="44.38127" lon="3.84205">
        <ele>1389.72</ele>
        <time>2012-06-17T07:26:28Z</time>
      </trkpt>
      <trkpt lat="44.38179" lon="3.8421">
        <ele>1386.84</ele>
        <time>2012-06-17T07:26:34Z</time>
      </trkpt>
      <trkpt lat="44.38188" lon="3.84208">
        <ele>1386.84</ele>
        <time>2012-06-17T07:26:35Z</time>
      </trkpt>
      <trkpt lat="44.38196" lon="3.84205">
        <ele>1386.36</ele>
        <time>2012-06-17T07:26:36Z</time>
      </trkpt>
      <trkpt lat="44.38214" lon="3.84199">
        <ele>1385.4</ele>
        <time>2012-06-17T07:26:38Z</time>
      </trkpt>
      <trkpt lat="44.38223" lon="3.84199">
        <ele>1384.92</ele>
        <time>2012-06-17T07:26:39Z</time>
      </trkpt>
      <trkpt lat="44.38232" lon="3.84201">
        <ele>1384.44</ele>
        <time>2012-06-17T07:26:40Z</time>
      </trkpt>
      <trkpt lat="44.38248" lon="3.84205">
        <ele>1383.47</ele>
        <time>2012-06-17T07:26:42Z</time>
      </trkpt>
      <trkpt lat="44.38256" lon="3.84205">
        <ele>1382.99</ele>
        <time>2012-06-17T07:26:43Z</time>
      </trkpt>
      <trkpt lat="44.38262" lon="3.84202">
        <ele>1382.99</ele>
        <time>2012-06-17T07:26:44Z</time>
      </trkpt>
      <trkpt lat="44.38268" lon="3.84196">
        <ele>1382.03</ele>
        <time>2012-06-17T07:26:45Z</time>
      </trkpt>
      <trkpt lat="44.38273" lon="3.84188">
        <ele>1381.55</ele>
        <time>2012-06-17T07:26:46Z</time>
      </trkpt>
      <trkpt lat="44.38277" lon="3.84179">
        <ele>1381.55</ele>
        <time>2012-06-17T07:26:47Z</time>
      </trkpt>
      <trkpt lat="44.3828" lon="3.84169">
        <ele>1381.07</ele>
        <time>2012-06-17T07:26:48Z</time>
      </trkpt>
      <trkpt lat="44.38282" lon="3.84159">
        <ele>1380.59</ele>
        <time>2012-06-17T07:26:49Z</time>
      </trkpt>
      <trkpt lat="44.38283" lon="3.8415">
        <ele>1380.59</ele>
        <time>2012-06-17T07:26:50Z</time>
      </trkpt>
      <trkpt lat="44.38283" lon="3.84141">
        <ele>1380.11</ele>
        <time>2012-06-17T07:26:51Z</time>
      </trkpt>
      <trkpt lat="44.38282" lon="3.84133">
        <ele>1380.11</ele>
        <time>2012-06-17T07:26:52Z</time>
      </trkpt>
      <trkpt lat="44.38278" lon="3.84126">
        <ele>1379.63</ele>
        <time>2012-06-17T07:26:53Z</time>
      </trkpt>
      <trkpt lat="44.38273" lon="3.84119">
        <ele>1379.63</ele>
        <time>2012-06-17T07:26:54Z</time>
      </trkpt>
      <trkpt lat="44.38268" lon="3.84113">
        <ele>1379.15</ele>
        <time>2012-06-17T07:26:55Z</time>
      </trkpt>
      <trkpt lat="44.38263" lon="3.84107">
        <ele>1379.15</ele>
        <time>2012-06-17T07:26:56Z</time>
      </trkpt>
      <trkpt lat="44.38249" lon="3.8409">
        <ele>1378.19</ele>
        <time>2012-06-17T07:26:59Z</time>
      </trkpt>
      <trkpt lat="44.38245" lon="3.84083">
        <ele>1378.67</ele>
        <time>2012-06-17T07:27:00Z</time>
      </trkpt>
      <trkpt lat="44.38242" lon="3.84075">
        <ele>1377.71</ele>
        <time>2012-06-17T07:27:01Z</time>
      </trkpt>
      <trkpt lat="44.3824" lon="3.84067">
        <ele>1378.67</ele>
        <time>2012-06-17T07:27:02Z</time>
      </trkpt>
      <trkpt lat="44.38239" lon="3.84058">
        <ele>1378.19</ele>
        <time>2012-06-17T07:27:03Z</time>
      </trkpt>
      <trkpt lat="44.38239" lon="3.84049">
        <ele>1377.23</ele>
        <time>2012-06-17T07:27:04Z</time>
      </trkpt>
      <trkpt lat="44.3824" lon="3.84041">
        <ele>1377.23</ele>
        <time>2012-06-17T07:27:05Z</time>
      </trkpt>
      <trkpt lat="44.38242" lon="3.84032">
        <ele>1377.23</ele>
        <time>2012-06-17T07:27:06Z</time>
      </trkpt>
      <trkpt lat="44.38244" lon="3.84023">
        <ele>1377.23</ele>
        <time>2012-06-17T07:27:07Z</time>
      </trkpt>
      <trkpt lat="44.38246" lon="3.84014">
        <ele>1377.23</ele>
        <time>2012-06-17T07:27:08Z</time>
      </trkpt>
      <trkpt lat="44.38255" lon="3.83973">
        <ele>1375.3</ele>
        <time>2012-06-17T07:27:12Z</time>
      </trkpt>
      <trkpt lat="44.38256" lon="3.83963">
        <ele>1374.82</ele>
        <time>2012-06-17T07:27:13Z</time>
      </trkpt>
      <trkpt lat="44.38255" lon="3.83916">
        <ele>1372.42</ele>
        <time>2012-06-17T07:27:21Z</time>
      </trkpt>
      <trkpt lat="44.38252" lon="3.83882">
        <ele>1372.42</ele>
        <time>2012-06-17T07:27:33Z</time>
      </trkpt>
      <trkpt lat="44.38252" lon="3.83875">
        <ele>1371.94</ele>
        <time>2012-06-17T07:27:37Z</time>
      </trkpt>
      <trkpt lat="44.38252" lon="3.83873">
        <ele>1371.94</ele>
        <time>2012-06-17T07:27:38Z</time>
      </trkpt>
      <trkpt lat="44.38254" lon="3.83832">
        <ele>1373.38</ele>
        <time>2012-06-17T07:27:53Z</time>
      </trkpt>
      <trkpt lat="44.38255" lon="3.83778">
        <ele>1375.3</ele>
        <time>2012-06-17T07:28:05Z</time>
      </trkpt>
      <trkpt lat="44.38238" lon="3.8373">
        <ele>1375.78</ele>
        <time>2012-06-17T07:28:16Z</time>
      </trkpt>
      <trkpt lat="44.3823" lon="3.83677">
        <ele>1378.19</ele>
        <time>2012-06-17T07:28:28Z</time>
      </trkpt>
      <trkpt lat="44.38219" lon="3.8363">
        <ele>1379.63</ele>
        <time>2012-06-17T07:28:39Z</time>
      </trkpt>
      <trkpt lat="44.382" lon="3.83588">
        <ele>1380.11</ele>
        <time>2012-06-17T07:28:52Z</time>
      </trkpt>
      <trkpt lat="44.38194" lon="3.83582">
        <ele>1380.11</ele>
        <time>2012-06-17T07:28:56Z</time>
      </trkpt>
      <trkpt lat="44.38192" lon="3.83581">
        <ele>1379.63</ele>
        <time>2012-06-17T07:28:57Z</time>
      </trkpt>
      <trkpt lat="44.3819" lon="3.8358">
        <ele>1380.11</ele>
        <time>2012-06-17T07:28:58Z</time>
      </trkpt>
      <trkpt lat="44.38178" lon="3.83545">
        <ele>1380.11</ele>
        <time>2012-06-17T07:29:08Z</time>
      </trkpt>
      <trkpt lat="44.38185" lon="3.83493">
        <ele>1379.15</ele>
        <time>2012-06-17T07:29:20Z</time>
      </trkpt>
      <trkpt lat="44.38185" lon="3.83487">
        <ele>1379.15</ele>
        <time>2012-06-17T07:29:21Z</time>
      </trkpt>
      <trkpt lat="44.38183" lon="3.83482">
        <ele>1379.15</ele>
        <time>2012-06-17T07:29:22Z</time>
      </trkpt>
      <trkpt lat="44.38172" lon="3.83441">
        <ele>1378.19</ele>
        <time>2012-06-17T07:29:33Z</time>
      </trkpt>
      <trkpt lat="44.38172" lon="3.83445">
        <ele>1378.19</ele>
        <time>2012-06-17T07:29:47Z</time>
      </trkpt>
      <trkpt lat="44.38171" lon="3.83447">
        <ele>1378.19</ele>
        <time>2012-06-17T07:29:49Z</time>
      </trkpt>
      <trkpt lat="44.38162" lon="3.83447">
        <ele>1377.23</ele>
        <time>2012-06-17T07:30:03Z</time>
      </trkpt>
      <trkpt lat="44.38163" lon="3.83447">
        <ele>1376.26</ele>
        <time>2012-06-17T07:30:26Z</time>
      </trkpt>
      <trkpt lat="44.38163" lon="3.83448">
        <ele>1377.23</ele>
        <time>2012-06-17T07:30:30Z</time>
      </trkpt>
      <trkpt lat="44.38163" lon="3.83448">
        <ele>1376.75</ele>
        <time>2012-06-17T07:30:35Z</time>
      </trkpt>
      <trkpt lat="44.38156" lon="3.83448">
        <ele>1376.26</ele>
        <time>2012-06-17T07:30:38Z</time>
      </trkpt>
      <trkpt lat="44.38113" lon="3.83452">
        <ele>1375.78</ele>
        <time>2012-06-17T07:30:49Z</time>
      </trkpt>
      <trkpt lat="44.38069" lon="3.8347">
        <ele>1373.86</ele>
        <time>2012-06-17T07:31:01Z</time>
      </trkpt>
      <trkpt lat="44.38036" lon="3.83491">
        <ele>1373.38</ele>
        <time>2012-06-17T07:31:13Z</time>
      </trkpt>
      <trkpt lat="44.3801" lon="3.83505">
        <ele>1372.9</ele>
        <time>2012-06-17T07:31:26Z</time>
      </trkpt>
      <trkpt lat="44.38009" lon="3.83505">
        <ele>1372.9</ele>
        <time>2012-06-17T07:31:27Z</time>
      </trkpt>
      <trkpt lat="44.38003" lon="3.83508">
        <ele>1372.42</ele>
        <time>2012-06-17T07:31:32Z</time>
      </trkpt>
      <trkpt lat="44.38001" lon="3.83509">
        <ele>1372.42</ele>
        <time>2012-06-17T07:31:33Z</time>
      </trkpt>
      <trkpt lat="44.37998" lon="3.8351">
        <ele>1372.42</ele>
        <time>2012-06-17T07:31:34Z</time>
      </trkpt>
      <trkpt lat="44.37979" lon="3.83514">
        <ele>1371.46</ele>
        <time>2012-06-17T07:31:46Z</time>
      </trkpt>
      <trkpt lat="44.37959" lon="3.83521">
        <ele>1370.02</ele>
        <time>2012-06-17T07:31:56Z</time>
      </trkpt>
      <trkpt lat="44.37957" lon="3.83523">
        <ele>1370.02</ele>
        <time>2012-06-17T07:31:58Z</time>
      </trkpt>
      <trkpt lat="44.37954" lon="3.83521">
        <ele>1368.57</ele>
        <time>2012-06-17T07:32:08Z</time>
      </trkpt>
      <trkpt lat="44.37953" lon="3.8352">
        <ele>1369.05</ele>
        <time>2012-06-17T07:32:18Z</time>
      </trkpt>
      <trkpt lat="44.37952" lon="3.8352">
        <ele>1369.05</ele>
        <time>2012-06-17T07:32:19Z</time>
      </trkpt>
      <trkpt lat="44.37945" lon="3.83519">
        <ele>1369.05</ele>
        <time>2012-06-17T07:32:28Z</time>
      </trkpt>
      <trkpt lat="44.3794" lon="3.83517">
        <ele>1368.09</ele>
        <time>2012-06-17T07:32:39Z</time>
      </trkpt>
      <trkpt lat="44.37924" lon="3.83504">
        <ele>1365.69</ele>
        <time>2012-06-17T07:32:49Z</time>
      </trkpt>
      <trkpt lat="44.37923" lon="3.83503">
        <ele>1365.69</ele>
        <time>2012-06-17T07:32:50Z</time>
      </trkpt>
      <trkpt lat="44.37921" lon="3.83502">
        <ele>1365.69</ele>
        <time>2012-06-17T07:32:51Z</time>
      </trkpt>
      <trkpt lat="44.379" lon="3.83482">
        <ele>1364.25</ele>
        <time>2012-06-17T07:33:00Z</time>
      </trkpt>
      <trkpt lat="44.37886" lon="3.83467">
        <ele>1361.84</ele>
        <time>2012-06-17T07:33:09Z</time>
      </trkpt>
      <trkpt lat="44.37883" lon="3.83465">
        <ele>1362.33</ele>
        <time>2012-06-17T07:33:11Z</time>
      </trkpt>
      <trkpt lat="44.37882" lon="3.83462">
        <ele>1362.33</ele>
        <time>2012-06-17T07:33:12Z</time>
      </trkpt>
      <trkpt lat="44.37881" lon="3.83459">
        <ele>1361.84</ele>
        <time>2012-06-17T07:33:13Z</time>
      </trkpt>
      <trkpt lat="44.37872" lon="3.83429">
        <ele>1360.88</ele>
        <time>2012-06-17T07:33:24Z</time>
      </trkpt>
      <trkpt lat="44.37858" lon="3.83422">
        <ele>1360.4</ele>
        <time>2012-06-17T07:33:33Z</time>
      </trkpt>
      <trkpt lat="44.37848" lon="3.83425">
        <ele>1359.92</ele>
        <time>2012-06-17T07:33:45Z</time>
      </trkpt>
      <trkpt lat="44.37843" lon="3.83428">
        <ele>1359.92</ele>
        <time>2012-06-17T07:34:03Z</time>
      </trkpt>
      <trkpt lat="44.37831" lon="3.83431">
        <ele>1360.88</ele>
        <time>2012-06-17T07:34:15Z</time>
      </trkpt>
      <trkpt lat="44.37826" lon="3.83434">
        <ele>1360.4</ele>
        <time>2012-06-17T07:34:27Z</time>
      </trkpt>
      <trkpt lat="44.37824" lon="3.83435">
        <ele>1360.4</ele>
        <time>2012-06-17T07:34:28Z</time>
      </trkpt>
      <trkpt lat="44.37823" lon="3.83436">
        <ele>1360.88</ele>
        <time>2012-06-17T07:34:29Z</time>
      </trkpt>
      <trkpt lat="44.37792" lon="3.83442">
        <ele>1361.84</ele>
        <time>2012-06-17T07:34:42Z</time>
      </trkpt>
      <trkpt lat="44.37785" lon="3.83438">
        <ele>1361.36</ele>
        <time>2012-06-17T07:34:45Z</time>
      </trkpt>
      <trkpt lat="44.37783" lon="3.83436">
        <ele>1361.36</ele>
        <time>2012-06-17T07:34:46Z</time>
      </trkpt>
      <trkpt lat="44.3778" lon="3.83436">
        <ele>1361.36</ele>
        <time>2012-06-17T07:34:47Z</time>
      </trkpt>
      <trkpt lat="44.37778" lon="3.83435">
        <ele>1361.36</ele>
        <time>2012-06-17T07:34:48Z</time>
      </trkpt>
      <trkpt lat="44.37775" lon="3.83433">
        <ele>1361.36</ele>
        <time>2012-06-17T07:34:49Z</time>
      </trkpt>
      <trkpt lat="44.37768" lon="3.8343">
        <ele>1360.88</ele>
        <time>2012-06-17T07:34:57Z</time>
      </trkpt>
      <trkpt lat="44.37767" lon="3.83429">
        <ele>1360.88</ele>
        <time>2012-06-17T07:35:07Z</time>
      </trkpt>
      <trkpt lat="44.37762" lon="3.83427">
        <ele>1359.92</ele>
        <time>2012-06-17T07:35:10Z</time>
      </trkpt>
      <trkpt lat="44.3776" lon="3.83427">
        <ele>1359.92</ele>
        <time>2012-06-17T07:35:11Z</time>
      </trkpt>
      <trkpt lat="44.37759" lon="3.83427">
        <ele>1360.4</ele>
        <time>2012-06-17T07:35:15Z</time>
      </trkpt>
      <trkpt lat="44.37758" lon="3.83426">
        <ele>1359.92</ele>
        <time>2012-06-17T07:35:16Z</time>
      </trkpt>
      <trkpt lat="44.37756" lon="3.83426">
        <ele>1360.4</ele>
        <time>2012-06-17T07:35:17Z</time>
      </trkpt>
      <trkpt lat="44.37751" lon="3.83424">
        <ele>1359.92</ele>
        <time>2012-06-17T07:35:28Z</time>
      </trkpt>
      <trkpt lat="44.3773" lon="3.83419">
        <ele>1359.92</ele>
        <time>2012-06-17T07:35:36Z</time>
      </trkpt>
      <trkpt lat="44.37728" lon="3.83418">
        <ele>1359.92</ele>
        <time>2012-06-17T07:35:37Z</time>
      </trkpt>
      <trkpt lat="44.37725" lon="3.83417">
        <ele>1359.92</ele>
        <time>2012-06-17T07:35:38Z</time>
      </trkpt>
      <trkpt lat="44.37722" lon="3.83416">
        <ele>1359.92</ele>
        <time>2012-06-17T07:35:39Z</time>
      </trkpt>
      <trkpt lat="44.3772" lon="3.83415">
        <ele>1359.92</ele>
        <time>2012-06-17T07:35:40Z</time>
      </trkpt>
      <trkpt lat="44.37717" lon="3.83414">
        <ele>1359.92</ele>
        <time>2012-06-17T07:35:41Z</time>
      </trkpt>
      <trkpt lat="44.37714" lon="3.83412">
        <ele>1360.4</ele>
        <time>2012-06-17T07:35:42Z</time>
      </trkpt>
      <trkpt lat="44.37704" lon="3.83409">
        <ele>1360.4</ele>
        <time>2012-06-17T07:35:46Z</time>
      </trkpt>
      <trkpt lat="44.37701" lon="3.8341">
        <ele>1359.44</ele>
        <time>2012-06-17T07:35:47Z</time>
      </trkpt>
      <trkpt lat="44.37696" lon="3.83409">
        <ele>1359.92</ele>
        <time>2012-06-17T07:35:49Z</time>
      </trkpt>
      <trkpt lat="44.37693" lon="3.83408">
        <ele>1359.92</ele>
        <time>2012-06-17T07:35:50Z</time>
      </trkpt>
      <trkpt lat="44.37655" lon="3.83399">
        <ele>1360.4</ele>
        <time>2012-06-17T07:36:02Z</time>
      </trkpt>
      <trkpt lat="44.37611" lon="3.83396">
        <ele>1359.44</ele>
        <time>2012-06-17T07:36:14Z</time>
      </trkpt>
      <trkpt lat="44.37577" lon="3.834">
        <ele>1358.48</ele>
        <time>2012-06-17T07:36:24Z</time>
      </trkpt>
      <trkpt lat="44.37539" lon="3.83414">
        <ele>1358</ele>
        <time>2012-06-17T07:36:37Z</time>
      </trkpt>
      <trkpt lat="44.37518" lon="3.83416">
        <ele>1357.52</ele>
        <time>2012-06-17T07:36:49Z</time>
      </trkpt>
      <trkpt lat="44.37518" lon="3.83415">
        <ele>1357.52</ele>
        <time>2012-06-17T07:37:16Z</time>
      </trkpt>
      <trkpt lat="44.37505" lon="3.83415">
        <ele>1357.52</ele>
        <time>2012-06-17T07:37:27Z</time>
      </trkpt>
      <trkpt lat="44.37468" lon="3.83413">
        <ele>1358.48</ele>
        <time>2012-06-17T07:37:41Z</time>
      </trkpt>
      <trkpt lat="44.37442" lon="3.8342">
        <ele>1360.4</ele>
        <time>2012-06-17T07:37:51Z</time>
      </trkpt>
      <trkpt lat="44.3743" lon="3.83421">
        <ele>1360.4</ele>
        <time>2012-06-17T07:37:59Z</time>
      </trkpt>
      <trkpt lat="44.37428" lon="3.8342">
        <ele>1360.4</ele>
        <time>2012-06-17T07:38:00Z</time>
      </trkpt>
      <trkpt lat="44.37426" lon="3.8342">
        <ele>1360.4</ele>
        <time>2012-06-17T07:38:01Z</time>
      </trkpt>
      <trkpt lat="44.37424" lon="3.8342">
        <ele>1360.4</ele>
        <time>2012-06-17T07:38:02Z</time>
      </trkpt>
      <trkpt lat="44.37423" lon="3.8342">
        <ele>1360.88</ele>
        <time>2012-06-17T07:38:03Z</time>
      </trkpt>
      <trkpt lat="44.37402" lon="3.83424">
        <ele>1361.84</ele>
        <time>2012-06-17T07:38:16Z</time>
      </trkpt>
      <trkpt lat="44.37401" lon="3.83424">
        <ele>1362.33</ele>
        <time>2012-06-17T07:38:33Z</time>
      </trkpt>
      <trkpt lat="44.374" lon="3.83425">
        <ele>1361.84</ele>
        <time>2012-06-17T07:38:34Z</time>
      </trkpt>
      <trkpt lat="44.37398" lon="3.83425">
        <ele>1362.33</ele>
        <time>2012-06-17T07:38:35Z</time>
      </trkpt>
      <trkpt lat="44.37397" lon="3.83426">
        <ele>1362.33</ele>
        <time>2012-06-17T07:38:36Z</time>
      </trkpt>
      <trkpt lat="44.37394" lon="3.83427">
        <ele>1361.84</ele>
        <time>2012-06-17T07:38:37Z</time>
      </trkpt>
      <trkpt lat="44.37392" lon="3.83428">
        <ele>1362.33</ele>
        <time>2012-06-17T07:38:38Z</time>
      </trkpt>
      <trkpt lat="44.37385" lon="3.8343">
        <ele>1362.81</ele>
        <time>2012-06-17T07:38:41Z</time>
      </trkpt>
      <trkpt lat="44.37381" lon="3.83434">
        <ele>1362.81</ele>
        <time>2012-06-17T07:38:43Z</time>
      </trkpt>
      <trkpt lat="44.37379" lon="3.83436">
        <ele>1362.81</ele>
        <time>2012-06-17T07:38:44Z</time>
      </trkpt>
      <trkpt lat="44.37378" lon="3.83439">
        <ele>1362.81</ele>
        <time>2012-06-17T07:38:45Z</time>
      </trkpt>
      <trkpt lat="44.37376" lon="3.83443">
        <ele>1362.81</ele>
        <time>2012-06-17T07:38:46Z</time>
      </trkpt>
      <trkpt lat="44.37375" lon="3.83446">
        <ele>1363.77</ele>
        <time>2012-06-17T07:38:47Z</time>
      </trkpt>
      <trkpt lat="44.37374" lon="3.83447">
        <ele>1363.29</ele>
        <time>2012-06-17T07:38:48Z</time>
      </trkpt>
      <trkpt lat="44.37372" lon="3.83449">
        <ele>1363.29</ele>
        <time>2012-06-17T07:38:49Z</time>
      </trkpt>
      <trkpt lat="44.37371" lon="3.83452">
        <ele>1363.29</ele>
        <time>2012-06-17T07:38:50Z</time>
      </trkpt>
      <trkpt lat="44.37369" lon="3.83454">
        <ele>1363.77</ele>
        <time>2012-06-17T07:38:51Z</time>
      </trkpt>
      <trkpt lat="44.37367" lon="3.83456">
        <ele>1364.25</ele>
        <time>2012-06-17T07:38:52Z</time>
      </trkpt>
      <trkpt lat="44.37365" lon="3.83458">
        <ele>1363.77</ele>
        <time>2012-06-17T07:38:53Z</time>
      </trkpt>
      <trkpt lat="44.37364" lon="3.8346">
        <ele>1364.73</ele>
        <time>2012-06-17T07:38:54Z</time>
      </trkpt>
      <trkpt lat="44.37362" lon="3.83461">
        <ele>1364.73</ele>
        <time>2012-06-17T07:38:55Z</time>
      </trkpt>
      <trkpt lat="44.3736" lon="3.83463">
        <ele>1364.73</ele>
        <time>2012-06-17T07:38:57Z</time>
      </trkpt>
      <trkpt lat="44.37358" lon="3.83463">
        <ele>1364.25</ele>
        <time>2012-06-17T07:38:59Z</time>
      </trkpt>
      <trkpt lat="44.37358" lon="3.83463">
        <ele>1364.25</ele>
        <time>2012-06-17T07:39:13Z</time>
      </trkpt>
      <trkpt lat="44.37357" lon="3.83463">
        <ele>1363.77</ele>
        <time>2012-06-17T07:39:29Z</time>
      </trkpt>
      <trkpt lat="44.37355" lon="3.83464">
        <ele>1363.77</ele>
        <time>2012-06-17T07:39:30Z</time>
      </trkpt>
      <trkpt lat="44.37354" lon="3.83464">
        <ele>1364.25</ele>
        <time>2012-06-17T07:39:31Z</time>
      </trkpt>
      <trkpt lat="44.37353" lon="3.83464">
        <ele>1364.25</ele>
        <time>2012-06-17T07:39:33Z</time>
      </trkpt>
      <trkpt lat="44.37351" lon="3.83465">
        <ele>1364.73</ele>
        <time>2012-06-17T07:39:35Z</time>
      </trkpt>
      <trkpt lat="44.37349" lon="3.83466">
        <ele>1364.73</ele>
        <time>2012-06-17T07:39:36Z</time>
      </trkpt>
      <trkpt lat="44.37348" lon="3.83467">
        <ele>1365.21</ele>
        <time>2012-06-17T07:39:37Z</time>
      </trkpt>
      <trkpt lat="44.37335" lon="3.83468">
        <ele>1365.69</ele>
        <time>2012-06-17T07:39:49Z</time>
      </trkpt>
      <trkpt lat="44.3733" lon="3.83468">
        <ele>1365.69</ele>
        <time>2012-06-17T07:39:52Z</time>
      </trkpt>
      <trkpt lat="44.37328" lon="3.83468">
        <ele>1365.21</ele>
        <time>2012-06-17T07:39:53Z</time>
      </trkpt>
      <trkpt lat="44.37327" lon="3.83469">
        <ele>1365.69</ele>
        <time>2012-06-17T07:39:54Z</time>
      </trkpt>
      <trkpt lat="44.37326" lon="3.8347">
        <ele>1365.69</ele>
        <time>2012-06-17T07:39:55Z</time>
      </trkpt>
      <trkpt lat="44.37321" lon="3.8347">
        <ele>1365.69</ele>
        <time>2012-06-17T07:40:05Z</time>
      </trkpt>
      <trkpt lat="44.37322" lon="3.83469">
        <ele>1365.21</ele>
        <time>2012-06-17T07:40:06Z</time>
      </trkpt>
      <trkpt lat="44.37323" lon="3.83468">
        <ele>1365.69</ele>
        <time>2012-06-17T07:40:07Z</time>
      </trkpt>
      <trkpt lat="44.37324" lon="3.83467">
        <ele>1365.69</ele>
        <time>2012-06-17T07:40:16Z</time>
      </trkpt>
      <trkpt lat="44.37325" lon="3.83464">
        <ele>1365.21</ele>
        <time>2012-06-17T07:40:17Z</time>
      </trkpt>
      <trkpt lat="44.37326" lon="3.8346">
        <ele>1365.21</ele>
        <time>2012-06-17T07:40:18Z</time>
      </trkpt>
      <trkpt lat="44.37326" lon="3.83456">
        <ele>1365.21</ele>
        <time>2012-06-17T07:40:19Z</time>
      </trkpt>
      <trkpt lat="44.37328" lon="3.83452">
        <ele>1364.73</ele>
        <time>2012-06-17T07:40:20Z</time>
      </trkpt>
      <trkpt lat="44.37329" lon="3.83448">
        <ele>1365.21</ele>
        <time>2012-06-17T07:40:21Z</time>
      </trkpt>
      <trkpt lat="44.37331" lon="3.83444">
        <ele>1365.21</ele>
        <time>2012-06-17T07:40:22Z</time>
      </trkpt>
      <trkpt lat="44.37334" lon="3.8344">
        <ele>1364.73</ele>
        <time>2012-06-17T07:40:23Z</time>
      </trkpt>
      <trkpt lat="44.37337" lon="3.83436">
        <ele>1364.73</ele>
        <time>2012-06-17T07:40:24Z</time>
      </trkpt>
      <trkpt lat="44.37344" lon="3.83428">
        <ele>1364.25</ele>
        <time>2012-06-17T07:40:26Z</time>
      </trkpt>
      <trkpt lat="44.37357" lon="3.83406">
        <ele>1364.25</ele>
        <time>2012-06-17T07:40:30Z</time>
      </trkpt>
      <trkpt lat="44.37361" lon="3.834">
        <ele>1364.25</ele>
        <time>2012-06-17T07:40:31Z</time>
      </trkpt>
      <trkpt lat="44.3738" lon="3.83365">
        <ele>1363.29</ele>
        <time>2012-06-17T07:40:36Z</time>
      </trkpt>
      <trkpt lat="44.37395" lon="3.83341">
        <ele>1363.29</ele>
        <time>2012-06-17T07:40:40Z</time>
      </trkpt>
      <trkpt lat="44.37416" lon="3.8329">
        <ele>1362.81</ele>
        <time>2012-06-17T07:40:48Z</time>
      </trkpt>
      <trkpt lat="44.37419" lon="3.83285">
        <ele>1362.81</ele>
        <time>2012-06-17T07:40:49Z</time>
      </trkpt>
      <trkpt lat="44.3743" lon="3.83271">
        <ele>1362.33</ele>
        <time>2012-06-17T07:40:52Z</time>
      </trkpt>
      <trkpt lat="44.37434" lon="3.83265">
        <ele>1362.33</ele>
        <time>2012-06-17T07:40:53Z</time>
      </trkpt>
      <trkpt lat="44.37437" lon="3.8326">
        <ele>1363.29</ele>
        <time>2012-06-17T07:40:54Z</time>
      </trkpt>
      <trkpt lat="44.3744" lon="3.83255">
        <ele>1362.81</ele>
        <time>2012-06-17T07:40:55Z</time>
      </trkpt>
      <trkpt lat="44.37443" lon="3.8325">
        <ele>1363.29</ele>
        <time>2012-06-17T07:40:56Z</time>
      </trkpt>
      <trkpt lat="44.37446" lon="3.83244">
        <ele>1362.81</ele>
        <time>2012-06-17T07:40:57Z</time>
      </trkpt>
      <trkpt lat="44.37449" lon="3.83238">
        <ele>1363.29</ele>
        <time>2012-06-17T07:40:58Z</time>
      </trkpt>
      <trkpt lat="44.37452" lon="3.83233">
        <ele>1363.29</ele>
        <time>2012-06-17T07:40:59Z</time>
      </trkpt>
      <trkpt lat="44.37454" lon="3.83228">
        <ele>1363.29</ele>
        <time>2012-06-17T07:41:00Z</time>
      </trkpt>
      <trkpt lat="44.37457" lon="3.83222">
        <ele>1363.29</ele>
        <time>2012-06-17T07:41:01Z</time>
      </trkpt>
      <trkpt lat="44.37459" lon="3.83216">
        <ele>1362.81</ele>
        <time>2012-06-17T07:41:02Z</time>
      </trkpt>
      <trkpt lat="44.3746" lon="3.8321">
        <ele>1363.77</ele>
        <time>2012-06-17T07:41:03Z</time>
      </trkpt>
      <trkpt lat="44.37462" lon="3.83204">
        <ele>1363.29</ele>
        <time>2012-06-17T07:41:04Z</time>
      </trkpt>
      <trkpt lat="44.37468" lon="3.83178">
        <ele>1362.33</ele>
        <time>2012-06-17T07:41:13Z</time>
      </trkpt>
      <trkpt lat="44.37469" lon="3.83166">
        <ele>1362.81</ele>
        <time>2012-06-17T07:41:20Z</time>
      </trkpt>
      <trkpt lat="44.3747" lon="3.83159">
        <ele>1362.33</ele>
        <time>2012-06-17T07:41:23Z</time>
      </trkpt>
      <trkpt lat="44.37471" lon="3.83156">
        <ele>1362.33</ele>
        <time>2012-06-17T07:41:24Z</time>
      </trkpt>
      <trkpt lat="44.37472" lon="3.83147">
        <ele>1361.84</ele>
        <time>2012-06-17T07:41:28Z</time>
      </trkpt>
      <trkpt lat="44.37472" lon="3.83144">
        <ele>1361.84</ele>
        <time>2012-06-17T07:41:29Z</time>
      </trkpt>
      <trkpt lat="44.37472" lon="3.83142">
        <ele>1361.84</ele>
        <time>2012-06-17T07:41:30Z</time>
      </trkpt>
      <trkpt lat="44.37474" lon="3.83102">
        <ele>1361.36</ele>
        <time>2012-06-17T07:41:38Z</time>
      </trkpt>
      <trkpt lat="44.37474" lon="3.83058">
        <ele>1360.4</ele>
        <time>2012-06-17T07:41:44Z</time>
      </trkpt>
      <trkpt lat="44.37474" lon="3.83051">
        <ele>1359.92</ele>
        <time>2012-06-17T07:41:45Z</time>
      </trkpt>
      <trkpt lat="44.37469" lon="3.83026">
        <ele>1359.92</ele>
        <time>2012-06-17T07:41:49Z</time>
      </trkpt>
      <trkpt lat="44.37468" lon="3.83019">
        <ele>1359.44</ele>
        <time>2012-06-17T07:41:50Z</time>
      </trkpt>
      <trkpt lat="44.37463" lon="3.82996">
        <ele>1358.48</ele>
        <time>2012-06-17T07:41:53Z</time>
      </trkpt>
      <trkpt lat="44.37456" lon="3.82979">
        <ele>1358</ele>
        <time>2012-06-17T07:41:55Z</time>
      </trkpt>
      <trkpt lat="44.37452" lon="3.82972">
        <ele>1358</ele>
        <time>2012-06-17T07:41:56Z</time>
      </trkpt>
      <trkpt lat="44.37448" lon="3.82965">
        <ele>1357.52</ele>
        <time>2012-06-17T07:41:57Z</time>
      </trkpt>
      <trkpt lat="44.37445" lon="3.82958">
        <ele>1357.52</ele>
        <time>2012-06-17T07:41:58Z</time>
      </trkpt>
      <trkpt lat="44.3744" lon="3.8295">
        <ele>1357.04</ele>
        <time>2012-06-17T07:41:59Z</time>
      </trkpt>
      <trkpt lat="44.37436" lon="3.82943">
        <ele>1357.04</ele>
        <time>2012-06-17T07:42:00Z</time>
      </trkpt>
      <trkpt lat="44.37413" lon="3.82904">
        <ele>1355.6</ele>
        <time>2012-06-17T07:42:08Z</time>
      </trkpt>
      <trkpt lat="44.37402" lon="3.82887">
        <ele>1355.12</ele>
        <time>2012-06-17T07:42:13Z</time>
      </trkpt>
      <trkpt lat="44.37399" lon="3.82884">
        <ele>1355.12</ele>
        <time>2012-06-17T07:42:14Z</time>
      </trkpt>
      <trkpt lat="44.37391" lon="3.82869">
        <ele>1355.12</ele>
        <time>2012-06-17T07:42:17Z</time>
      </trkpt>
      <trkpt lat="44.37389" lon="3.82863">
        <ele>1354.63</ele>
        <time>2012-06-17T07:42:18Z</time>
      </trkpt>
      <trkpt lat="44.37388" lon="3.82857">
        <ele>1354.63</ele>
        <time>2012-06-17T07:42:19Z</time>
      </trkpt>
      <trkpt lat="44.37387" lon="3.82851">
        <ele>1355.12</ele>
        <time>2012-06-17T07:42:20Z</time>
      </trkpt>
      <trkpt lat="44.37386" lon="3.82844">
        <ele>1353.67</ele>
        <time>2012-06-17T07:42:21Z</time>
      </trkpt>
      <trkpt lat="44.37386" lon="3.82838">
        <ele>1353.67</ele>
        <time>2012-06-17T07:42:22Z</time>
      </trkpt>
      <trkpt lat="44.37387" lon="3.82831">
        <ele>1353.19</ele>
        <time>2012-06-17T07:42:23Z</time>
      </trkpt>
      <trkpt lat="44.37388" lon="3.82825">
        <ele>1352.71</ele>
        <time>2012-06-17T07:42:24Z</time>
      </trkpt>
      <trkpt lat="44.3739" lon="3.82819">
        <ele>1352.71</ele>
        <time>2012-06-17T07:42:25Z</time>
      </trkpt>
      <trkpt lat="44.37393" lon="3.82814">
        <ele>1352.23</ele>
        <time>2012-06-17T07:42:26Z</time>
      </trkpt>
      <trkpt lat="44.37399" lon="3.82803">
        <ele>1352.23</ele>
        <time>2012-06-17T07:42:28Z</time>
      </trkpt>
      <trkpt lat="44.37403" lon="3.82799">
        <ele>1352.71</ele>
        <time>2012-06-17T07:42:29Z</time>
      </trkpt>
      <trkpt lat="44.37407" lon="3.82795">
        <ele>1352.23</ele>
        <time>2012-06-17T07:42:30Z</time>
      </trkpt>
      <trkpt lat="44.37416" lon="3.82787">
        <ele>1352.71</ele>
        <time>2012-06-17T07:42:32Z</time>
      </trkpt>
      <trkpt lat="44.37422" lon="3.82784">
        <ele>1352.23</ele>
        <time>2012-06-17T07:42:33Z</time>
      </trkpt>
      <trkpt lat="44.37429" lon="3.82781">
        <ele>1351.75</ele>
        <time>2012-06-17T07:42:34Z</time>
      </trkpt>
      <trkpt lat="44.37436" lon="3.82779">
        <ele>1351.75</ele>
        <time>2012-06-17T07:42:35Z</time>
      </trkpt>
      <trkpt lat="44.37442" lon="3.82777">
        <ele>1351.27</ele>
        <time>2012-06-17T07:42:36Z</time>
      </trkpt>
      <trkpt lat="44.37461" lon="3.82772">
        <ele>1350.31</ele>
        <time>2012-06-17T07:42:39Z</time>
      </trkpt>
      <trkpt lat="44.37467" lon="3.82771">
        <ele>1350.31</ele>
        <time>2012-06-17T07:42:40Z</time>
      </trkpt>
      <trkpt lat="44.37486" lon="3.82764">
        <ele>1349.35</ele>
        <time>2012-06-17T07:42:43Z</time>
      </trkpt>
      <trkpt lat="44.37505" lon="3.82752">
        <ele>1347.91</ele>
        <time>2012-06-17T07:42:46Z</time>
      </trkpt>
      <trkpt lat="44.37534" lon="3.82727">
        <ele>1346.46</ele>
        <time>2012-06-17T07:42:51Z</time>
      </trkpt>
      <trkpt lat="44.37544" lon="3.82714">
        <ele>1345.98</ele>
        <time>2012-06-17T07:42:53Z</time>
      </trkpt>
      <trkpt lat="44.37547" lon="3.82707">
        <ele>1345.5</ele>
        <time>2012-06-17T07:42:54Z</time>
      </trkpt>
      <trkpt lat="44.37553" lon="3.82692">
        <ele>1344.54</ele>
        <time>2012-06-17T07:42:56Z</time>
      </trkpt>
      <trkpt lat="44.37563" lon="3.82663">
        <ele>1344.54</ele>
        <time>2012-06-17T07:43:00Z</time>
      </trkpt>
      <trkpt lat="44.37566" lon="3.82656">
        <ele>1344.06</ele>
        <time>2012-06-17T07:43:01Z</time>
      </trkpt>
      <trkpt lat="44.37573" lon="3.82639">
        <ele>1344.06</ele>
        <time>2012-06-17T07:43:04Z</time>
      </trkpt>
      <trkpt lat="44.37576" lon="3.82634">
        <ele>1343.1</ele>
        <time>2012-06-17T07:43:05Z</time>
      </trkpt>
      <trkpt lat="44.37582" lon="3.82624">
        <ele>1344.06</ele>
        <time>2012-06-17T07:43:07Z</time>
      </trkpt>
      <trkpt lat="44.37585" lon="3.8262">
        <ele>1343.58</ele>
        <time>2012-06-17T07:43:08Z</time>
      </trkpt>
      <trkpt lat="44.37589" lon="3.82616">
        <ele>1343.58</ele>
        <time>2012-06-17T07:43:09Z</time>
      </trkpt>
      <trkpt lat="44.37592" lon="3.82611">
        <ele>1344.06</ele>
        <time>2012-06-17T07:43:10Z</time>
      </trkpt>
      <trkpt lat="44.37594" lon="3.82605">
        <ele>1343.58</ele>
        <time>2012-06-17T07:43:11Z</time>
      </trkpt>
      <trkpt lat="44.37595" lon="3.82598">
        <ele>1343.58</ele>
        <time>2012-06-17T07:43:12Z</time>
      </trkpt>
      <trkpt lat="44.37597" lon="3.82586">
        <ele>1343.1</ele>
        <time>2012-06-17T07:43:14Z</time>
      </trkpt>
      <trkpt lat="44.37599" lon="3.82545">
        <ele>1342.62</ele>
        <time>2012-06-17T07:43:20Z</time>
      </trkpt>
      <trkpt lat="44.37598" lon="3.82538">
        <ele>1342.14</ele>
        <time>2012-06-17T07:43:21Z</time>
      </trkpt>
      <trkpt lat="44.37596" lon="3.82531">
        <ele>1342.14</ele>
        <time>2012-06-17T07:43:22Z</time>
      </trkpt>
      <trkpt lat="44.37593" lon="3.82523">
        <ele>1342.14</ele>
        <time>2012-06-17T07:43:23Z</time>
      </trkpt>
      <trkpt lat="44.37591" lon="3.82516">
        <ele>1341.66</ele>
        <time>2012-06-17T07:43:24Z</time>
      </trkpt>
      <trkpt lat="44.37589" lon="3.8251">
        <ele>1341.66</ele>
        <time>2012-06-17T07:43:25Z</time>
      </trkpt>
      <trkpt lat="44.37585" lon="3.82504">
        <ele>1342.14</ele>
        <time>2012-06-17T07:43:26Z</time>
      </trkpt>
      <trkpt lat="44.37581" lon="3.82498">
        <ele>1341.18</ele>
        <time>2012-06-17T07:43:27Z</time>
      </trkpt>
      <trkpt lat="44.37577" lon="3.82492">
        <ele>1341.66</ele>
        <time>2012-06-17T07:43:28Z</time>
      </trkpt>
      <trkpt lat="44.37573" lon="3.82487">
        <ele>1341.66</ele>
        <time>2012-06-17T07:43:29Z</time>
      </trkpt>
      <trkpt lat="44.37568" lon="3.82482">
        <ele>1342.14</ele>
        <time>2012-06-17T07:43:30Z</time>
      </trkpt>
      <trkpt lat="44.37563" lon="3.82476">
        <ele>1341.18</ele>
        <time>2012-06-17T07:43:31Z</time>
      </trkpt>
      <trkpt lat="44.37534" lon="3.82444">
        <ele>1340.7</ele>
        <time>2012-06-17T07:43:38Z</time>
      </trkpt>
      <trkpt lat="44.37526" lon="3.82436">
        <ele>1340.7</ele>
        <time>2012-06-17T07:43:40Z</time>
      </trkpt>
      <trkpt lat="44.37483" lon="3.82391">
        <ele>1339.73</ele>
        <time>2012-06-17T07:43:51Z</time>
      </trkpt>
      <trkpt lat="44.3747" lon="3.82376">
        <ele>1338.77</ele>
        <time>2012-06-17T07:43:54Z</time>
      </trkpt>
      <trkpt lat="44.37456" lon="3.82362">
        <ele>1338.29</ele>
        <time>2012-06-17T07:43:57Z</time>
      </trkpt>
      <trkpt lat="44.37452" lon="3.82356">
        <ele>1337.81</ele>
        <time>2012-06-17T07:43:58Z</time>
      </trkpt>
      <trkpt lat="44.37435" lon="3.82336">
        <ele>1337.81</ele>
        <time>2012-06-17T07:44:02Z</time>
      </trkpt>
      <trkpt lat="44.3743" lon="3.82332">
        <ele>1337.33</ele>
        <time>2012-06-17T07:44:03Z</time>
      </trkpt>
      <trkpt lat="44.3738" lon="3.82282">
        <ele>1335.89</ele>
        <time>2012-06-17T07:44:16Z</time>
      </trkpt>
      <trkpt lat="44.37373" lon="3.82273">
        <ele>1335.89</ele>
        <time>2012-06-17T07:44:19Z</time>
      </trkpt>
      <trkpt lat="44.37372" lon="3.82269">
        <ele>1335.89</ele>
        <time>2012-06-17T07:44:20Z</time>
      </trkpt>
      <trkpt lat="44.37373" lon="3.82265">
        <ele>1335.89</ele>
        <time>2012-06-17T07:44:21Z</time>
      </trkpt>
      <trkpt lat="44.37374" lon="3.8226">
        <ele>1335.89</ele>
        <time>2012-06-17T07:44:22Z</time>
      </trkpt>
      <trkpt lat="44.37375" lon="3.82256">
        <ele>1336.37</ele>
        <time>2012-06-17T07:44:23Z</time>
      </trkpt>
      <trkpt lat="44.37376" lon="3.82222">
        <ele>1337.33</ele>
        <time>2012-06-17T07:44:34Z</time>
      </trkpt>
      <trkpt lat="44.37376" lon="3.82216">
        <ele>1337.81</ele>
        <time>2012-06-17T07:44:50Z</time>
      </trkpt>
      <trkpt lat="44.37374" lon="3.82215">
        <ele>1337.81</ele>
        <time>2012-06-17T07:45:02Z</time>
      </trkpt>
      <trkpt lat="44.37374" lon="3.82216">
        <ele>1336.85</ele>
        <time>2012-06-17T07:45:15Z</time>
      </trkpt>
      <trkpt lat="44.37374" lon="3.82216">
        <ele>1336.85</ele>
        <time>2012-06-17T07:45:21Z</time>
      </trkpt>
      <trkpt lat="44.37374" lon="3.82214">
        <ele>1336.85</ele>
        <time>2012-06-17T07:45:22Z</time>
      </trkpt>
      <trkpt lat="44.37374" lon="3.82211">
        <ele>1336.85</ele>
        <time>2012-06-17T07:45:23Z</time>
      </trkpt>
      <trkpt lat="44.37375" lon="3.82199">
        <ele>1336.85</ele>
        <time>2012-06-17T07:45:25Z</time>
      </trkpt>
      <trkpt lat="44.37374" lon="3.82191">
        <ele>1335.89</ele>
        <time>2012-06-17T07:45:26Z</time>
      </trkpt>
      <trkpt lat="44.37371" lon="3.8218">
        <ele>1335.89</ele>
        <time>2012-06-17T07:45:28Z</time>
      </trkpt>
      <trkpt lat="44.37368" lon="3.82177">
        <ele>1336.37</ele>
        <time>2012-06-17T07:45:29Z</time>
      </trkpt>
      <trkpt lat="44.37364" lon="3.82174">
        <ele>1336.37</ele>
        <time>2012-06-17T07:45:30Z</time>
      </trkpt>
      <trkpt lat="44.3736" lon="3.82171">
        <ele>1335.89</ele>
        <time>2012-06-17T07:45:31Z</time>
      </trkpt>
      <trkpt lat="44.37354" lon="3.82169">
        <ele>1335.89</ele>
        <time>2012-06-17T07:45:32Z</time>
      </trkpt>
      <trkpt lat="44.37349" lon="3.82167">
        <ele>1335.89</ele>
        <time>2012-06-17T07:45:33Z</time>
      </trkpt>
      <trkpt lat="44.37338" lon="3.82164">
        <ele>1336.37</ele>
        <time>2012-06-17T07:45:35Z</time>
      </trkpt>
      <trkpt lat="44.37333" lon="3.82161">
        <ele>1335.89</ele>
        <time>2012-06-17T07:45:36Z</time>
      </trkpt>
      <trkpt lat="44.37329" lon="3.82158">
        <ele>1335.89</ele>
        <time>2012-06-17T07:45:37Z</time>
      </trkpt>
      <trkpt lat="44.37324" lon="3.82154">
        <ele>1336.37</ele>
        <time>2012-06-17T07:45:38Z</time>
      </trkpt>
      <trkpt lat="44.37321" lon="3.8215">
        <ele>1335.89</ele>
        <time>2012-06-17T07:45:39Z</time>
      </trkpt>
      <trkpt lat="44.37317" lon="3.82146">
        <ele>1335.41</ele>
        <time>2012-06-17T07:45:40Z</time>
      </trkpt>
      <trkpt lat="44.37314" lon="3.82142">
        <ele>1335.41</ele>
        <time>2012-06-17T07:45:41Z</time>
      </trkpt>
      <trkpt lat="44.3731" lon="3.82141">
        <ele>1335.41</ele>
        <time>2012-06-17T07:45:42Z</time>
      </trkpt>
      <trkpt lat="44.37307" lon="3.82142">
        <ele>1335.41</ele>
        <time>2012-06-17T07:45:43Z</time>
      </trkpt>
      <trkpt lat="44.37269" lon="3.82142">
        <ele>1334.45</ele>
        <time>2012-06-17T07:45:53Z</time>
      </trkpt>
      <trkpt lat="44.37266" lon="3.82143">
        <ele>1334.45</ele>
        <time>2012-06-17T07:45:54Z</time>
      </trkpt>
      <trkpt lat="44.37262" lon="3.82144">
        <ele>1333.97</ele>
        <time>2012-06-17T07:45:55Z</time>
      </trkpt>
      <trkpt lat="44.37259" lon="3.82145">
        <ele>1333.97</ele>
        <time>2012-06-17T07:45:56Z</time>
      </trkpt>
      <trkpt lat="44.37257" lon="3.82145">
        <ele>1333.49</ele>
        <time>2012-06-17T07:45:57Z</time>
      </trkpt>
      <trkpt lat="44.37255" lon="3.82146">
        <ele>1333.97</ele>
        <time>2012-06-17T07:45:58Z</time>
      </trkpt>
      <trkpt lat="44.37254" lon="3.82147">
        <ele>1333.49</ele>
        <time>2012-06-17T07:45:59Z</time>
      </trkpt>
      <trkpt lat="44.37252" lon="3.82149">
        <ele>1333.49</ele>
        <time>2012-06-17T07:46:00Z</time>
      </trkpt>
      <trkpt lat="44.37251" lon="3.82151">
        <ele>1333.01</ele>
        <time>2012-06-17T07:46:01Z</time>
      </trkpt>
      <trkpt lat="44.3725" lon="3.82153">
        <ele>1333.49</ele>
        <time>2012-06-17T07:46:02Z</time>
      </trkpt>
      <trkpt lat="44.37249" lon="3.82155">
        <ele>1333.01</ele>
        <time>2012-06-17T07:46:03Z</time>
      </trkpt>
      <trkpt lat="44.37248" lon="3.82157">
        <ele>1333.49</ele>
        <time>2012-06-17T07:46:04Z</time>
      </trkpt>
      <trkpt lat="44.37246" lon="3.8216">
        <ele>1333.01</ele>
        <time>2012-06-17T07:46:05Z</time>
      </trkpt>
      <trkpt lat="44.37235" lon="3.82175">
        <ele>1332.52</ele>
        <time>2012-06-17T07:46:13Z</time>
      </trkpt>
      <trkpt lat="44.37234" lon="3.82177">
        <ele>1333.01</ele>
        <time>2012-06-17T07:46:14Z</time>
      </trkpt>
      <trkpt lat="44.37234" lon="3.82179">
        <ele>1333.01</ele>
        <time>2012-06-17T07:46:15Z</time>
      </trkpt>
      <trkpt lat="44.37231" lon="3.82196">
        <ele>1333.01</ele>
        <time>2012-06-17T07:46:22Z</time>
      </trkpt>
      <trkpt lat="44.37233" lon="3.82202">
        <ele>1332.04</ele>
        <time>2012-06-17T07:46:25Z</time>
      </trkpt>
      <trkpt lat="44.37234" lon="3.82203">
        <ele>1333.01</ele>
        <time>2012-06-17T07:46:26Z</time>
      </trkpt>
      <trkpt lat="44.37235" lon="3.82203">
        <ele>1332.52</ele>
        <time>2012-06-17T07:46:27Z</time>
      </trkpt>
      <trkpt lat="44.37236" lon="3.82202">
        <ele>1332.52</ele>
        <time>2012-06-17T07:46:28Z</time>
      </trkpt>
      <trkpt lat="44.37237" lon="3.82201">
        <ele>1332.52</ele>
        <time>2012-06-17T07:46:29Z</time>
      </trkpt>
      <trkpt lat="44.37238" lon="3.82198">
        <ele>1332.52</ele>
        <time>2012-06-17T07:46:32Z</time>
      </trkpt>
      <trkpt lat="44.37238" lon="3.82196">
        <ele>1332.04</ele>
        <time>2012-06-17T07:46:33Z</time>
      </trkpt>
      <trkpt lat="44.37239" lon="3.82193">
        <ele>1332.04</ele>
        <time>2012-06-17T07:46:34Z</time>
      </trkpt>
      <trkpt lat="44.37239" lon="3.82191">
        <ele>1332.04</ele>
        <time>2012-06-17T07:46:44Z</time>
      </trkpt>
      <trkpt lat="44.37239" lon="3.82181">
        <ele>1332.52</ele>
        <time>2012-06-17T07:46:55Z</time>
      </trkpt>
      <trkpt lat="44.37237" lon="3.82178">
        <ele>1332.52</ele>
        <time>2012-06-17T07:47:05Z</time>
      </trkpt>
      <trkpt lat="44.37235" lon="3.82178">
        <ele>1332.52</ele>
        <time>2012-06-17T07:47:17Z</time>
      </trkpt>
      <trkpt lat="44.37235" lon="3.82179">
        <ele>1332.52</ele>
        <time>2012-06-17T07:47:23Z</time>
      </trkpt>
      <trkpt lat="44.37235" lon="3.82182">
        <ele>1332.52</ele>
        <time>2012-06-17T07:47:24Z</time>
      </trkpt>
      <trkpt lat="44.37234" lon="3.82184">
        <ele>1332.04</ele>
        <time>2012-06-17T07:47:25Z</time>
      </trkpt>
      <trkpt lat="44.37234" lon="3.82186">
        <ele>1332.04</ele>
        <time>2012-06-17T07:47:26Z</time>
      </trkpt>
      <trkpt lat="44.37233" lon="3.82188">
        <ele>1332.04</ele>
        <time>2012-06-17T07:47:27Z</time>
      </trkpt>
      <trkpt lat="44.37232" lon="3.8219">
        <ele>1332.52</ele>
        <time>2012-06-17T07:47:28Z</time>
      </trkpt>
      <trkpt lat="44.37232" lon="3.82192">
        <ele>1332.52</ele>
        <time>2012-06-17T07:47:29Z</time>
      </trkpt>
      <trkpt lat="44.37232" lon="3.82193">
        <ele>1332.52</ele>
        <time>2012-06-17T07:47:30Z</time>
      </trkpt>
      <trkpt lat="44.37232" lon="3.82195">
        <ele>1332.04</ele>
        <time>2012-06-17T07:47:31Z</time>
      </trkpt>
      <trkpt lat="44.37232" lon="3.82201">
        <ele>1332.52</ele>
        <time>2012-06-17T07:47:34Z</time>
      </trkpt>
      <trkpt lat="44.37228" lon="3.8221">
        <ele>1332.52</ele>
        <time>2012-06-17T07:47:40Z</time>
      </trkpt>
      <trkpt lat="44.37227" lon="3.8221">
        <ele>1332.52</ele>
        <time>2012-06-17T07:47:41Z</time>
      </trkpt>
      <trkpt lat="44.37225" lon="3.8221">
        <ele>1333.01</ele>
        <time>2012-06-17T07:47:42Z</time>
      </trkpt>
      <trkpt lat="44.37224" lon="3.82211">
        <ele>1332.52</ele>
        <time>2012-06-17T07:47:43Z</time>
      </trkpt>
      <trkpt lat="44.37223" lon="3.82211">
        <ele>1333.01</ele>
        <time>2012-06-17T07:47:44Z</time>
      </trkpt>
      <trkpt lat="44.37217" lon="3.82206">
        <ele>1333.49</ele>
        <time>2012-06-17T07:47:58Z</time>
      </trkpt>
      <trkpt lat="44.37215" lon="3.82204">
        <ele>1333.49</ele>
        <time>2012-06-17T07:47:59Z</time>
      </trkpt>
      <trkpt lat="44.37213" lon="3.82202">
        <ele>1333.49</ele>
        <time>2012-06-17T07:48:00Z</time>
      </trkpt>
      <trkpt lat="44.37206" lon="3.82193">
        <ele>1333.01</ele>
        <time>2012-06-17T07:48:04Z</time>
      </trkpt>
      <trkpt lat="44.37205" lon="3.82191">
        <ele>1332.52</ele>
        <time>2012-06-17T07:48:05Z</time>
      </trkpt>
      <trkpt lat="44.37203" lon="3.82188">
        <ele>1333.01</ele>
        <time>2012-06-17T07:48:06Z</time>
      </trkpt>
      <trkpt lat="44.37202" lon="3.82186">
        <ele>1333.01</ele>
        <time>2012-06-17T07:48:07Z</time>
      </trkpt>
      <trkpt lat="44.372" lon="3.82185">
        <ele>1333.49</ele>
        <time>2012-06-17T07:48:08Z</time>
      </trkpt>
      <trkpt lat="44.37199" lon="3.82185">
        <ele>1333.49</ele>
        <time>2012-06-17T07:48:09Z</time>
      </trkpt>
      <trkpt lat="44.37197" lon="3.82184">
        <ele>1333.01</ele>
        <time>2012-06-17T07:48:10Z</time>
      </trkpt>
      <trkpt lat="44.37195" lon="3.82182">
        <ele>1333.01</ele>
        <time>2012-06-17T07:48:11Z</time>
      </trkpt>
      <trkpt lat="44.37194" lon="3.82181">
        <ele>1332.52</ele>
        <time>2012-06-17T07:48:12Z</time>
      </trkpt>
      <trkpt lat="44.37191" lon="3.82176">
        <ele>1333.97</ele>
        <time>2012-06-17T07:48:15Z</time>
      </trkpt>
      <trkpt lat="44.37191" lon="3.82174">
        <ele>1333.97</ele>
        <time>2012-06-17T07:48:16Z</time>
      </trkpt>
      <trkpt lat="44.37191" lon="3.82171">
        <ele>1333.49</ele>
        <time>2012-06-17T07:48:17Z</time>
      </trkpt>
      <trkpt lat="44.3719" lon="3.82166">
        <ele>1333.97</ele>
        <time>2012-06-17T07:48:20Z</time>
      </trkpt>
      <trkpt lat="44.37189" lon="3.82165">
        <ele>1333.97</ele>
        <time>2012-06-17T07:48:21Z</time>
      </trkpt>
      <trkpt lat="44.37188" lon="3.82163">
        <ele>1333.97</ele>
        <time>2012-06-17T07:48:22Z</time>
      </trkpt>
      <trkpt lat="44.37182" lon="3.82155">
        <ele>1333.49</ele>
        <time>2012-06-17T07:48:33Z</time>
      </trkpt>
      <trkpt lat="44.37181" lon="3.82152">
        <ele>1333.97</ele>
        <time>2012-06-17T07:48:34Z</time>
      </trkpt>
      <trkpt lat="44.3718" lon="3.82149">
        <ele>1333.97</ele>
        <time>2012-06-17T07:48:35Z</time>
      </trkpt>
      <trkpt lat="44.37178" lon="3.82147">
        <ele>1333.97</ele>
        <time>2012-06-17T07:48:36Z</time>
      </trkpt>
      <trkpt lat="44.37177" lon="3.82145">
        <ele>1333.97</ele>
        <time>2012-06-17T07:48:37Z</time>
      </trkpt>
      <trkpt lat="44.37175" lon="3.82139">
        <ele>1334.45</ele>
        <time>2012-06-17T07:48:40Z</time>
      </trkpt>
      <trkpt lat="44.37175" lon="3.82137">
        <ele>1334.93</ele>
        <time>2012-06-17T07:48:41Z</time>
      </trkpt>
      <trkpt lat="44.37174" lon="3.82135">
        <ele>1334.93</ele>
        <time>2012-06-17T07:48:42Z</time>
      </trkpt>
      <trkpt lat="44.3717" lon="3.8212">
        <ele>1333.97</ele>
        <time>2012-06-17T07:48:49Z</time>
      </trkpt>
      <trkpt lat="44.37169" lon="3.82118">
        <ele>1333.97</ele>
        <time>2012-06-17T07:48:50Z</time>
      </trkpt>
      <trkpt lat="44.37168" lon="3.82116">
        <ele>1333.97</ele>
        <time>2012-06-17T07:48:51Z</time>
      </trkpt>
      <trkpt lat="44.37167" lon="3.82113">
        <ele>1333.97</ele>
        <time>2012-06-17T07:48:52Z</time>
      </trkpt>
      <trkpt lat="44.37165" lon="3.8211">
        <ele>1333.97</ele>
        <time>2012-06-17T07:48:53Z</time>
      </trkpt>
      <trkpt lat="44.37164" lon="3.82108">
        <ele>1333.49</ele>
        <time>2012-06-17T07:48:54Z</time>
      </trkpt>
      <trkpt lat="44.37159" lon="3.82097">
        <ele>1333.01</ele>
        <time>2012-06-17T07:48:58Z</time>
      </trkpt>
      <trkpt lat="44.37157" lon="3.82095">
        <ele>1333.49</ele>
        <time>2012-06-17T07:48:59Z</time>
      </trkpt>
      <trkpt lat="44.37141" lon="3.82061">
        <ele>1333.01</ele>
        <time>2012-06-17T07:49:10Z</time>
      </trkpt>
      <trkpt lat="44.37139" lon="3.82055">
        <ele>1333.01</ele>
        <time>2012-06-17T07:49:12Z</time>
      </trkpt>
      <trkpt lat="44.37138" lon="3.82051">
        <ele>1333.01</ele>
        <time>2012-06-17T07:49:13Z</time>
      </trkpt>
      <trkpt lat="44.37136" lon="3.82048">
        <ele>1332.52</ele>
        <time>2012-06-17T07:49:14Z</time>
      </trkpt>
      <trkpt lat="44.37134" lon="3.82044">
        <ele>1332.04</ele>
        <time>2012-06-17T07:49:15Z</time>
      </trkpt>
      <trkpt lat="44.37133" lon="3.82041">
        <ele>1332.04</ele>
        <time>2012-06-17T07:49:16Z</time>
      </trkpt>
      <trkpt lat="44.37132" lon="3.82038">
        <ele>1332.04</ele>
        <time>2012-06-17T07:49:17Z</time>
      </trkpt>
      <trkpt lat="44.37132" lon="3.82035">
        <ele>1332.04</ele>
        <time>2012-06-17T07:49:18Z</time>
      </trkpt>
      <trkpt lat="44.3713" lon="3.8203">
        <ele>1332.52</ele>
        <time>2012-06-17T07:49:22Z</time>
      </trkpt>
      <trkpt lat="44.37126" lon="3.8203">
        <ele>1332.04</ele>
        <time>2012-06-17T07:49:32Z</time>
      </trkpt>
      <trkpt lat="44.37126" lon="3.82031">
        <ele>1332.04</ele>
        <time>2012-06-17T07:49:34Z</time>
      </trkpt>
      <trkpt lat="44.37129" lon="3.82021">
        <ele>1331.56</ele>
        <time>2012-06-17T07:49:40Z</time>
      </trkpt>
      <trkpt lat="44.37132" lon="3.81995">
        <ele>1331.56</ele>
        <time>2012-06-17T07:49:49Z</time>
      </trkpt>
      <trkpt lat="44.37131" lon="3.8199">
        <ele>1331.56</ele>
        <time>2012-06-17T07:49:51Z</time>
      </trkpt>
      <trkpt lat="44.37134" lon="3.81971">
        <ele>1331.56</ele>
        <time>2012-06-17T07:50:01Z</time>
      </trkpt>
      <trkpt lat="44.37134" lon="3.81971">
        <ele>1331.08</ele>
        <time>2012-06-17T07:50:20Z</time>
      </trkpt>
      <trkpt lat="44.3714" lon="3.81949">
        <ele>1331.56</ele>
        <time>2012-06-17T07:50:32Z</time>
      </trkpt>
      <trkpt lat="44.37149" lon="3.81894">
        <ele>1332.04</ele>
        <time>2012-06-17T07:50:45Z</time>
      </trkpt>
      <trkpt lat="44.37161" lon="3.81859">
        <ele>1332.04</ele>
        <time>2012-06-17T07:50:56Z</time>
      </trkpt>
      <trkpt lat="44.37173" lon="3.81817">
        <ele>1333.49</ele>
        <time>2012-06-17T07:51:11Z</time>
      </trkpt>
      <trkpt lat="44.3717" lon="3.81776">
        <ele>1333.01</ele>
        <time>2012-06-17T07:51:22Z</time>
      </trkpt>
      <trkpt lat="44.37153" lon="3.81742">
        <ele>1332.52</ele>
        <time>2012-06-17T07:51:33Z</time>
      </trkpt>
      <trkpt lat="44.37125" lon="3.81707">
        <ele>1332.04</ele>
        <time>2012-06-17T07:51:44Z</time>
      </trkpt>
      <trkpt lat="44.37098" lon="3.81668">
        <ele>1331.08</ele>
        <time>2012-06-17T07:51:55Z</time>
      </trkpt>
      <trkpt lat="44.37055" lon="3.81638">
        <ele>1329.64</ele>
        <time>2012-06-17T07:52:09Z</time>
      </trkpt>
      <trkpt lat="44.37015" lon="3.81602">
        <ele>1330.12</ele>
        <time>2012-06-17T07:52:22Z</time>
      </trkpt>
      <trkpt lat="44.36966" lon="3.81576">
        <ele>1329.64</ele>
        <time>2012-06-17T07:52:37Z</time>
      </trkpt>
      <trkpt lat="44.36931" lon="3.81555">
        <ele>1329.64</ele>
        <time>2012-06-17T07:52:50Z</time>
      </trkpt>
      <trkpt lat="44.36911" lon="3.81541">
        <ele>1329.16</ele>
        <time>2012-06-17T07:53:02Z</time>
      </trkpt>
      <trkpt lat="44.3689" lon="3.81533">
        <ele>1330.12</ele>
        <time>2012-06-17T07:53:12Z</time>
      </trkpt>
      <trkpt lat="44.36875" lon="3.81518">
        <ele>1330.12</ele>
        <time>2012-06-17T07:53:20Z</time>
      </trkpt>
      <trkpt lat="44.36855" lon="3.815">
        <ele>1330.6</ele>
        <time>2012-06-17T07:53:29Z</time>
      </trkpt>
      <trkpt lat="44.36841" lon="3.81477">
        <ele>1331.08</ele>
        <time>2012-06-17T07:53:37Z</time>
      </trkpt>
      <trkpt lat="44.36834" lon="3.81456">
        <ele>1332.52</ele>
        <time>2012-06-17T07:53:48Z</time>
      </trkpt>
      <trkpt lat="44.36835" lon="3.81447">
        <ele>1332.52</ele>
        <time>2012-06-17T07:53:53Z</time>
      </trkpt>
      <trkpt lat="44.36834" lon="3.81444">
        <ele>1332.52</ele>
        <time>2012-06-17T07:53:57Z</time>
      </trkpt>
      <trkpt lat="44.36831" lon="3.81428">
        <ele>1333.49</ele>
        <time>2012-06-17T07:54:09Z</time>
      </trkpt>
      <trkpt lat="44.36832" lon="3.81424">
        <ele>1333.01</ele>
        <time>2012-06-17T07:54:14Z</time>
      </trkpt>
      <trkpt lat="44.36832" lon="3.81407">
        <ele>1333.01</ele>
        <time>2012-06-17T07:54:20Z</time>
      </trkpt>
      <trkpt lat="44.36835" lon="3.8138">
        <ele>1332.52</ele>
        <time>2012-06-17T07:54:29Z</time>
      </trkpt>
      <trkpt lat="44.36837" lon="3.81373">
        <ele>1332.52</ele>
        <time>2012-06-17T07:54:32Z</time>
      </trkpt>
      <trkpt lat="44.36848" lon="3.81346">
        <ele>1329.64</ele>
        <time>2012-06-17T07:54:40Z</time>
      </trkpt>
      <trkpt lat="44.36851" lon="3.81343">
        <ele>1329.64</ele>
        <time>2012-06-17T07:54:41Z</time>
      </trkpt>
      <trkpt lat="44.36852" lon="3.8134">
        <ele>1330.6</ele>
        <time>2012-06-17T07:54:54Z</time>
      </trkpt>
      <trkpt lat="44.36852" lon="3.8134">
        <ele>1330.6</ele>
        <time>2012-06-17T07:55:14Z</time>
      </trkpt>
      <trkpt lat="44.36854" lon="3.81335">
        <ele>1330.12</ele>
        <time>2012-06-17T07:55:20Z</time>
      </trkpt>
      <trkpt lat="44.36857" lon="3.81332">
        <ele>1329.16</ele>
        <time>2012-06-17T07:55:22Z</time>
      </trkpt>
      <trkpt lat="44.36863" lon="3.81328">
        <ele>1328.68</ele>
        <time>2012-06-17T07:55:24Z</time>
      </trkpt>
      <trkpt lat="44.36867" lon="3.8132">
        <ele>1329.16</ele>
        <time>2012-06-17T07:55:26Z</time>
      </trkpt>
      <trkpt lat="44.3687" lon="3.81315">
        <ele>1329.16</ele>
        <time>2012-06-17T07:55:27Z</time>
      </trkpt>
      <trkpt lat="44.36871" lon="3.81311">
        <ele>1329.64</ele>
        <time>2012-06-17T07:55:28Z</time>
      </trkpt>
      <trkpt lat="44.36873" lon="3.81307">
        <ele>1329.64</ele>
        <time>2012-06-17T07:55:29Z</time>
      </trkpt>
      <trkpt lat="44.36875" lon="3.81304">
        <ele>1329.64</ele>
        <time>2012-06-17T07:55:30Z</time>
      </trkpt>
      <trkpt lat="44.36876" lon="3.81303">
        <ele>1329.64</ele>
        <time>2012-06-17T07:55:31Z</time>
      </trkpt>
      <trkpt lat="44.36878" lon="3.81301">
        <ele>1329.64</ele>
        <time>2012-06-17T07:55:32Z</time>
      </trkpt>
      <trkpt lat="44.36885" lon="3.81286">
        <ele>1329.64</ele>
        <time>2012-06-17T07:55:39Z</time>
      </trkpt>
      <trkpt lat="44.36886" lon="3.81286">
        <ele>1329.64</ele>
        <time>2012-06-17T07:55:40Z</time>
      </trkpt>
      <trkpt lat="44.36889" lon="3.81283">
        <ele>1329.64</ele>
        <time>2012-06-17T07:55:51Z</time>
      </trkpt>
      <trkpt lat="44.3689" lon="3.81281">
        <ele>1330.12</ele>
        <time>2012-06-17T07:55:52Z</time>
      </trkpt>
      <trkpt lat="44.36891" lon="3.81279">
        <ele>1329.64</ele>
        <time>2012-06-17T07:55:53Z</time>
      </trkpt>
      <trkpt lat="44.36893" lon="3.81277">
        <ele>1330.6</ele>
        <time>2012-06-17T07:55:54Z</time>
      </trkpt>
      <trkpt lat="44.36895" lon="3.81275">
        <ele>1330.6</ele>
        <time>2012-06-17T07:55:55Z</time>
      </trkpt>
      <trkpt lat="44.36897" lon="3.81273">
        <ele>1330.6</ele>
        <time>2012-06-17T07:55:56Z</time>
      </trkpt>
      <trkpt lat="44.36898" lon="3.8127">
        <ele>1330.6</ele>
        <time>2012-06-17T07:55:57Z</time>
      </trkpt>
      <trkpt lat="44.36901" lon="3.81264">
        <ele>1331.56</ele>
        <time>2012-06-17T07:56:00Z</time>
      </trkpt>
      <trkpt lat="44.36901" lon="3.81262">
        <ele>1331.56</ele>
        <time>2012-06-17T07:56:01Z</time>
      </trkpt>
      <trkpt lat="44.36902" lon="3.8126">
        <ele>1331.56</ele>
        <time>2012-06-17T07:56:02Z</time>
      </trkpt>
      <trkpt lat="44.36902" lon="3.81258">
        <ele>1331.56</ele>
        <time>2012-06-17T07:56:03Z</time>
      </trkpt>
      <trkpt lat="44.36903" lon="3.81256">
        <ele>1331.56</ele>
        <time>2012-06-17T07:56:04Z</time>
      </trkpt>
      <trkpt lat="44.36904" lon="3.81255">
        <ele>1331.56</ele>
        <time>2012-06-17T07:56:05Z</time>
      </trkpt>
      <trkpt lat="44.36904" lon="3.81252">
        <ele>1331.08</ele>
        <time>2012-06-17T07:56:06Z</time>
      </trkpt>
      <trkpt lat="44.36912" lon="3.81234">
        <ele>1330.6</ele>
        <time>2012-06-17T07:56:14Z</time>
      </trkpt>
      <trkpt lat="44.36932" lon="3.81205">
        <ele>1330.6</ele>
        <time>2012-06-17T07:56:26Z</time>
      </trkpt>
      <trkpt lat="44.36944" lon="3.81181">
        <ele>1330.6</ele>
        <time>2012-06-17T07:56:37Z</time>
      </trkpt>
      <trkpt lat="44.36956" lon="3.81141">
        <ele>1329.64</ele>
        <time>2012-06-17T07:56:51Z</time>
      </trkpt>
      <trkpt lat="44.36959" lon="3.81114">
        <ele>1330.12</ele>
        <time>2012-06-17T07:57:02Z</time>
      </trkpt>
      <trkpt lat="44.3696" lon="3.81099">
        <ele>1328.68</ele>
        <time>2012-06-17T07:57:10Z</time>
      </trkpt>
      <trkpt lat="44.36961" lon="3.81092">
        <ele>1328.68</ele>
        <time>2012-06-17T07:57:22Z</time>
      </trkpt>
      <trkpt lat="44.36963" lon="3.81086">
        <ele>1328.68</ele>
        <time>2012-06-17T07:57:34Z</time>
      </trkpt>
      <trkpt lat="44.36969" lon="3.81074">
        <ele>1328.2</ele>
        <time>2012-06-17T07:57:48Z</time>
      </trkpt>
      <trkpt lat="44.36994" lon="3.81052">
        <ele>1327.24</ele>
        <time>2012-06-17T07:58:00Z</time>
      </trkpt>
      <trkpt lat="44.37004" lon="3.81042">
        <ele>1327.72</ele>
        <time>2012-06-17T07:58:05Z</time>
      </trkpt>
      <trkpt lat="44.37014" lon="3.80989">
        <ele>1327.24</ele>
        <time>2012-06-17T07:58:18Z</time>
      </trkpt>
      <trkpt lat="44.37014" lon="3.80968">
        <ele>1326.28</ele>
        <time>2012-06-17T07:58:22Z</time>
      </trkpt>
      <trkpt lat="44.3702" lon="3.80938">
        <ele>1326.28</ele>
        <time>2012-06-17T07:58:30Z</time>
      </trkpt>
      <trkpt lat="44.37019" lon="3.80931">
        <ele>1326.28</ele>
        <time>2012-06-17T07:58:41Z</time>
      </trkpt>
      <trkpt lat="44.37017" lon="3.80931">
        <ele>1326.28</ele>
        <time>2012-06-17T07:58:57Z</time>
      </trkpt>
      <trkpt lat="44.37015" lon="3.80932">
        <ele>1325.31</ele>
        <time>2012-06-17T07:59:12Z</time>
      </trkpt>
      <trkpt lat="44.37016" lon="3.80931">
        <ele>1325.8</ele>
        <time>2012-06-17T07:59:24Z</time>
      </trkpt>
      <trkpt lat="44.37017" lon="3.80928">
        <ele>1325.8</ele>
        <time>2012-06-17T07:59:27Z</time>
      </trkpt>
      <trkpt lat="44.37017" lon="3.80926">
        <ele>1326.28</ele>
        <time>2012-06-17T07:59:28Z</time>
      </trkpt>
      <trkpt lat="44.37027" lon="3.80912">
        <ele>1327.24</ele>
        <time>2012-06-17T07:59:40Z</time>
      </trkpt>
      <trkpt lat="44.37028" lon="3.80912">
        <ele>1326.28</ele>
        <time>2012-06-17T07:59:55Z</time>
      </trkpt>
      <trkpt lat="44.3703" lon="3.80909">
        <ele>1325.8</ele>
        <time>2012-06-17T08:00:05Z</time>
      </trkpt>
      <trkpt lat="44.37032" lon="3.80907">
        <ele>1326.28</ele>
        <time>2012-06-17T08:00:07Z</time>
      </trkpt>
      <trkpt lat="44.37033" lon="3.80907">
        <ele>1326.76</ele>
        <time>2012-06-17T08:00:08Z</time>
      </trkpt>
      <trkpt lat="44.37035" lon="3.80907">
        <ele>1326.28</ele>
        <time>2012-06-17T08:00:09Z</time>
      </trkpt>
      <trkpt lat="44.37038" lon="3.80907">
        <ele>1326.28</ele>
        <time>2012-06-17T08:00:10Z</time>
      </trkpt>
      <trkpt lat="44.3704" lon="3.80905">
        <ele>1326.28</ele>
        <time>2012-06-17T08:00:11Z</time>
      </trkpt>
      <trkpt lat="44.37049" lon="3.80895">
        <ele>1326.76</ele>
        <time>2012-06-17T08:00:21Z</time>
      </trkpt>
      <trkpt lat="44.37051" lon="3.80891">
        <ele>1326.28</ele>
        <time>2012-06-17T08:00:24Z</time>
      </trkpt>
      <trkpt lat="44.37053" lon="3.80889">
        <ele>1326.28</ele>
        <time>2012-06-17T08:00:25Z</time>
      </trkpt>
      <trkpt lat="44.37054" lon="3.80888">
        <ele>1325.8</ele>
        <time>2012-06-17T08:00:26Z</time>
      </trkpt>
      <trkpt lat="44.37057" lon="3.80887">
        <ele>1325.31</ele>
        <time>2012-06-17T08:00:30Z</time>
      </trkpt>
      <trkpt lat="44.37059" lon="3.80886">
        <ele>1326.28</ele>
        <time>2012-06-17T08:00:31Z</time>
      </trkpt>
      <trkpt lat="44.37061" lon="3.80884">
        <ele>1326.28</ele>
        <time>2012-06-17T08:00:32Z</time>
      </trkpt>
      <trkpt lat="44.37062" lon="3.80882">
        <ele>1325.8</ele>
        <time>2012-06-17T08:00:33Z</time>
      </trkpt>
      <trkpt lat="44.37063" lon="3.80882">
        <ele>1325.31</ele>
        <time>2012-06-17T08:00:34Z</time>
      </trkpt>
      <trkpt lat="44.37064" lon="3.80881">
        <ele>1325.31</ele>
        <time>2012-06-17T08:00:35Z</time>
      </trkpt>
      <trkpt lat="44.37066" lon="3.80879">
        <ele>1325.8</ele>
        <time>2012-06-17T08:00:37Z</time>
      </trkpt>
      <trkpt lat="44.37068" lon="3.80877">
        <ele>1325.8</ele>
        <time>2012-06-17T08:00:38Z</time>
      </trkpt>
      <trkpt lat="44.37069" lon="3.80875">
        <ele>1325.8</ele>
        <time>2012-06-17T08:00:39Z</time>
      </trkpt>
      <trkpt lat="44.3707" lon="3.80873">
        <ele>1326.28</ele>
        <time>2012-06-17T08:00:40Z</time>
      </trkpt>
      <trkpt lat="44.37072" lon="3.80871">
        <ele>1325.8</ele>
        <time>2012-06-17T08:00:41Z</time>
      </trkpt>
      <trkpt lat="44.37083" lon="3.8086">
        <ele>1326.28</ele>
        <time>2012-06-17T08:00:47Z</time>
      </trkpt>
      <trkpt lat="44.37085" lon="3.80856">
        <ele>1326.28</ele>
        <time>2012-06-17T08:00:48Z</time>
      </trkpt>
      <trkpt lat="44.37086" lon="3.80853">
        <ele>1326.28</ele>
        <time>2012-06-17T08:00:49Z</time>
      </trkpt>
      <trkpt lat="44.37088" lon="3.80851">
        <ele>1326.28</ele>
        <time>2012-06-17T08:00:50Z</time>
      </trkpt>
      <trkpt lat="44.3709" lon="3.80848">
        <ele>1326.76</ele>
        <time>2012-06-17T08:00:51Z</time>
      </trkpt>
      <trkpt lat="44.37091" lon="3.80846">
        <ele>1327.24</ele>
        <time>2012-06-17T08:00:52Z</time>
      </trkpt>
      <trkpt lat="44.37093" lon="3.80843">
        <ele>1327.24</ele>
        <time>2012-06-17T08:00:53Z</time>
      </trkpt>
      <trkpt lat="44.37099" lon="3.80824">
        <ele>1327.24</ele>
        <time>2012-06-17T08:01:01Z</time>
      </trkpt>
      <trkpt lat="44.371" lon="3.80821">
        <ele>1327.72</ele>
        <time>2012-06-17T08:01:02Z</time>
      </trkpt>
      <trkpt lat="44.37102" lon="3.80817">
        <ele>1327.72</ele>
        <time>2012-06-17T08:01:03Z</time>
      </trkpt>
      <trkpt lat="44.37104" lon="3.80814">
        <ele>1327.72</ele>
        <time>2012-06-17T08:01:04Z</time>
      </trkpt>
      <trkpt lat="44.37106" lon="3.80812">
        <ele>1327.72</ele>
        <time>2012-06-17T08:01:05Z</time>
      </trkpt>
      <trkpt lat="44.37109" lon="3.80809">
        <ele>1326.76</ele>
        <time>2012-06-17T08:01:06Z</time>
      </trkpt>
      <trkpt lat="44.37112" lon="3.80805">
        <ele>1327.24</ele>
        <time>2012-06-17T08:01:07Z</time>
      </trkpt>
      <trkpt lat="44.37114" lon="3.80802">
        <ele>1327.24</ele>
        <time>2012-06-17T08:01:08Z</time>
      </trkpt>
      <trkpt lat="44.37117" lon="3.80798">
        <ele>1327.24</ele>
        <time>2012-06-17T08:01:09Z</time>
      </trkpt>
      <trkpt lat="44.37119" lon="3.80794">
        <ele>1326.76</ele>
        <time>2012-06-17T08:01:10Z</time>
      </trkpt>
      <trkpt lat="44.37121" lon="3.8079">
        <ele>1326.76</ele>
        <time>2012-06-17T08:01:11Z</time>
      </trkpt>
      <trkpt lat="44.37122" lon="3.80786">
        <ele>1327.24</ele>
        <time>2012-06-17T08:01:12Z</time>
      </trkpt>
      <trkpt lat="44.37123" lon="3.80782">
        <ele>1327.24</ele>
        <time>2012-06-17T08:01:13Z</time>
      </trkpt>
      <trkpt lat="44.37123" lon="3.80778">
        <ele>1326.76</ele>
        <time>2012-06-17T08:01:14Z</time>
      </trkpt>
      <trkpt lat="44.37123" lon="3.80774">
        <ele>1327.24</ele>
        <time>2012-06-17T08:01:15Z</time>
      </trkpt>
      <trkpt lat="44.37123" lon="3.80769">
        <ele>1326.76</ele>
        <time>2012-06-17T08:01:16Z</time>
      </trkpt>
      <trkpt lat="44.37123" lon="3.80764">
        <ele>1326.28</ele>
        <time>2012-06-17T08:01:17Z</time>
      </trkpt>
      <trkpt lat="44.37124" lon="3.8076">
        <ele>1325.8</ele>
        <time>2012-06-17T08:01:18Z</time>
      </trkpt>
      <trkpt lat="44.37126" lon="3.80756">
        <ele>1326.28</ele>
        <time>2012-06-17T08:01:19Z</time>
      </trkpt>
      <trkpt lat="44.37133" lon="3.80743">
        <ele>1325.8</ele>
        <time>2012-06-17T08:01:22Z</time>
      </trkpt>
      <trkpt lat="44.37135" lon="3.80738">
        <ele>1325.8</ele>
        <time>2012-06-17T08:01:23Z</time>
      </trkpt>
      <trkpt lat="44.37137" lon="3.80733">
        <ele>1326.28</ele>
        <time>2012-06-17T08:01:24Z</time>
      </trkpt>
      <trkpt lat="44.37139" lon="3.80729">
        <ele>1325.8</ele>
        <time>2012-06-17T08:01:25Z</time>
      </trkpt>
      <trkpt lat="44.3714" lon="3.80726">
        <ele>1326.28</ele>
        <time>2012-06-17T08:01:26Z</time>
      </trkpt>
      <trkpt lat="44.37142" lon="3.80722">
        <ele>1325.8</ele>
        <time>2012-06-17T08:01:27Z</time>
      </trkpt>
      <trkpt lat="44.37145" lon="3.80719">
        <ele>1326.76</ele>
        <time>2012-06-17T08:01:28Z</time>
      </trkpt>
      <trkpt lat="44.37175" lon="3.80686">
        <ele>1327.24</ele>
        <time>2012-06-17T08:01:39Z</time>
      </trkpt>
      <trkpt lat="44.37192" lon="3.80655">
        <ele>1327.24</ele>
        <time>2012-06-17T08:01:48Z</time>
      </trkpt>
      <trkpt lat="44.37209" lon="3.80641">
        <ele>1324.35</ele>
        <time>2012-06-17T08:01:56Z</time>
      </trkpt>
      <trkpt lat="44.3721" lon="3.80638">
        <ele>1324.35</ele>
        <time>2012-06-17T08:02:08Z</time>
      </trkpt>
      <trkpt lat="44.37209" lon="3.80637">
        <ele>1324.35</ele>
        <time>2012-06-17T08:02:28Z</time>
      </trkpt>
      <trkpt lat="44.37209" lon="3.80637">
        <ele>1323.87</ele>
        <time>2012-06-17T08:02:42Z</time>
      </trkpt>
      <trkpt lat="44.37208" lon="3.80637">
        <ele>1324.35</ele>
        <time>2012-06-17T08:03:03Z</time>
      </trkpt>
      <trkpt lat="44.37208" lon="3.80637">
        <ele>1324.35</ele>
        <time>2012-06-17T08:03:12Z</time>
      </trkpt>
      <trkpt lat="44.37207" lon="3.80639">
        <ele>1324.35</ele>
        <time>2012-06-17T08:03:13Z</time>
      </trkpt>
      <trkpt lat="44.37205" lon="3.80639">
        <ele>1324.35</ele>
        <time>2012-06-17T08:03:14Z</time>
      </trkpt>
      <trkpt lat="44.37203" lon="3.8064">
        <ele>1324.83</ele>
        <time>2012-06-17T08:03:15Z</time>
      </trkpt>
      <trkpt lat="44.372" lon="3.8064">
        <ele>1325.8</ele>
        <time>2012-06-17T08:03:17Z</time>
      </trkpt>
      <trkpt lat="44.37198" lon="3.80637">
        <ele>1326.28</ele>
        <time>2012-06-17T08:03:27Z</time>
      </trkpt>
      <trkpt lat="44.37197" lon="3.80638">
        <ele>1325.8</ele>
        <time>2012-06-17T08:03:55Z</time>
      </trkpt>
      <trkpt lat="44.37196" lon="3.80638">
        <ele>1325.31</ele>
        <time>2012-06-17T08:04:27Z</time>
      </trkpt>
      <trkpt lat="44.37195" lon="3.80639">
        <ele>1325.31</ele>
        <time>2012-06-17T08:05:00Z</time>
      </trkpt>
      <trkpt lat="44.37195" lon="3.80641">
        <ele>1325.8</ele>
        <time>2012-06-17T08:05:36Z</time>
      </trkpt>
      <trkpt lat="44.37196" lon="3.80642">
        <ele>1324.83</ele>
        <time>2012-06-17T08:06:12Z</time>
      </trkpt>
      <trkpt lat="44.37196" lon="3.80641">
        <ele>1325.31</ele>
        <time>2012-06-17T08:06:45Z</time>
      </trkpt>
      <trkpt lat="44.37196" lon="3.80641">
        <ele>1325.31</ele>
        <time>2012-06-17T08:07:17Z</time>
      </trkpt>
      <trkpt lat="44.37196" lon="3.80643">
        <ele>1325.31</ele>
        <time>2012-06-17T08:07:47Z</time>
      </trkpt>
      <trkpt lat="44.37195" lon="3.80641">
        <ele>1325.8</ele>
        <time>2012-06-17T08:08:03Z</time>
      </trkpt>
      <trkpt lat="44.37196" lon="3.8064">
        <ele>1325.8</ele>
        <time>2012-06-17T08:08:14Z</time>
      </trkpt>
      <trkpt lat="44.37197" lon="3.80615">
        <ele>1326.28</ele>
        <time>2012-06-17T08:08:22Z</time>
      </trkpt>
      <trkpt lat="44.37202" lon="3.806">
        <ele>1325.8</ele>
        <time>2012-06-17T08:08:28Z</time>
      </trkpt>
      <trkpt lat="44.37211" lon="3.8059">
        <ele>1323.87</ele>
        <time>2012-06-17T08:08:34Z</time>
      </trkpt>
      <trkpt lat="44.37214" lon="3.80571">
        <ele>1322.43</ele>
        <time>2012-06-17T08:08:40Z</time>
      </trkpt>
      <trkpt lat="44.37207" lon="3.80538">
        <ele>1321.95</ele>
        <time>2012-06-17T08:08:50Z</time>
      </trkpt>
      <trkpt lat="44.37206" lon="3.80537">
        <ele>1322.91</ele>
        <time>2012-06-17T08:09:07Z</time>
      </trkpt>
      <trkpt lat="44.37206" lon="3.80537">
        <ele>1321.95</ele>
        <time>2012-06-17T08:09:19Z</time>
      </trkpt>
      <trkpt lat="44.37205" lon="3.80528">
        <ele>1322.43</ele>
        <time>2012-06-17T08:09:23Z</time>
      </trkpt>
      <trkpt lat="44.37201" lon="3.80515">
        <ele>1321.95</ele>
        <time>2012-06-17T08:09:27Z</time>
      </trkpt>
      <trkpt lat="44.37195" lon="3.80473">
        <ele>1321.47</ele>
        <time>2012-06-17T08:09:39Z</time>
      </trkpt>
      <trkpt lat="44.37197" lon="3.80461">
        <ele>1320.99</ele>
        <time>2012-06-17T08:09:43Z</time>
      </trkpt>
      <trkpt lat="44.37187" lon="3.80415">
        <ele>1320.03</ele>
        <time>2012-06-17T08:09:57Z</time>
      </trkpt>
      <trkpt lat="44.37176" lon="3.80387">
        <ele>1319.55</ele>
        <time>2012-06-17T08:10:07Z</time>
      </trkpt>
      <trkpt lat="44.37155" lon="3.80344">
        <ele>1320.03</ele>
        <time>2012-06-17T08:10:18Z</time>
      </trkpt>
      <trkpt lat="44.37145" lon="3.80298">
        <ele>1319.07</ele>
        <time>2012-06-17T08:10:28Z</time>
      </trkpt>
      <trkpt lat="44.37127" lon="3.80253">
        <ele>1317.62</ele>
        <time>2012-06-17T08:10:38Z</time>
      </trkpt>
      <trkpt lat="44.3712" lon="3.80239">
        <ele>1317.14</ele>
        <time>2012-06-17T08:10:41Z</time>
      </trkpt>
      <trkpt lat="44.37093" lon="3.80204">
        <ele>1315.7</ele>
        <time>2012-06-17T08:10:51Z</time>
      </trkpt>
      <trkpt lat="44.37062" lon="3.80163">
        <ele>1315.22</ele>
        <time>2012-06-17T08:11:06Z</time>
      </trkpt>
      <trkpt lat="44.37031" lon="3.80128">
        <ele>1314.26</ele>
        <time>2012-06-17T08:11:19Z</time>
      </trkpt>
      <trkpt lat="44.37017" lon="3.80106">
        <ele>1313.78</ele>
        <time>2012-06-17T08:11:26Z</time>
      </trkpt>
      <trkpt lat="44.37016" lon="3.80101">
        <ele>1313.3</ele>
        <time>2012-06-17T08:11:27Z</time>
      </trkpt>
      <trkpt lat="44.36998" lon="3.8005">
        <ele>1312.82</ele>
        <time>2012-06-17T08:11:39Z</time>
      </trkpt>
      <trkpt lat="44.36981" lon="3.80001">
        <ele>1312.34</ele>
        <time>2012-06-17T08:11:50Z</time>
      </trkpt>
      <trkpt lat="44.36982" lon="3.79996">
        <ele>1311.86</ele>
        <time>2012-06-17T08:11:52Z</time>
      </trkpt>
      <trkpt lat="44.36982" lon="3.79995">
        <ele>1311.86</ele>
        <time>2012-06-17T08:12:04Z</time>
      </trkpt>
      <trkpt lat="44.36981" lon="3.79991">
        <ele>1312.34</ele>
        <time>2012-06-17T08:12:20Z</time>
      </trkpt>
      <trkpt lat="44.3698" lon="3.79985">
        <ele>1311.38</ele>
        <time>2012-06-17T08:12:24Z</time>
      </trkpt>
      <trkpt lat="44.36979" lon="3.79984">
        <ele>1311.38</ele>
        <time>2012-06-17T08:12:25Z</time>
      </trkpt>
      <trkpt lat="44.36978" lon="3.79982">
        <ele>1311.86</ele>
        <time>2012-06-17T08:12:26Z</time>
      </trkpt>
      <trkpt lat="44.36976" lon="3.79978">
        <ele>1311.38</ele>
        <time>2012-06-17T08:12:27Z</time>
      </trkpt>
      <trkpt lat="44.36975" lon="3.79975">
        <ele>1310.9</ele>
        <time>2012-06-17T08:12:28Z</time>
      </trkpt>
      <trkpt lat="44.36974" lon="3.79972">
        <ele>1310.9</ele>
        <time>2012-06-17T08:12:29Z</time>
      </trkpt>
      <trkpt lat="44.36973" lon="3.79967">
        <ele>1310.9</ele>
        <time>2012-06-17T08:12:30Z</time>
      </trkpt>
      <trkpt lat="44.36973" lon="3.79962">
        <ele>1311.38</ele>
        <time>2012-06-17T08:12:31Z</time>
      </trkpt>
      <trkpt lat="44.36967" lon="3.79933">
        <ele>1310.9</ele>
        <time>2012-06-17T08:12:36Z</time>
      </trkpt>
      <trkpt lat="44.36966" lon="3.79925">
        <ele>1310.9</ele>
        <time>2012-06-17T08:12:37Z</time>
      </trkpt>
      <trkpt lat="44.36965" lon="3.79918">
        <ele>1311.38</ele>
        <time>2012-06-17T08:12:38Z</time>
      </trkpt>
      <trkpt lat="44.36964" lon="3.79911">
        <ele>1311.38</ele>
        <time>2012-06-17T08:12:39Z</time>
      </trkpt>
      <trkpt lat="44.36963" lon="3.79903">
        <ele>1311.38</ele>
        <time>2012-06-17T08:12:40Z</time>
      </trkpt>
      <trkpt lat="44.36961" lon="3.79896">
        <ele>1310.9</ele>
        <time>2012-06-17T08:12:41Z</time>
      </trkpt>
      <trkpt lat="44.36959" lon="3.79889">
        <ele>1311.38</ele>
        <time>2012-06-17T08:12:42Z</time>
      </trkpt>
      <trkpt lat="44.36954" lon="3.79861">
        <ele>1310.41</ele>
        <time>2012-06-17T08:12:46Z</time>
      </trkpt>
      <trkpt lat="44.36952" lon="3.79855">
        <ele>1310.41</ele>
        <time>2012-06-17T08:12:47Z</time>
      </trkpt>
      <trkpt lat="44.36948" lon="3.7983">
        <ele>1310.41</ele>
        <time>2012-06-17T08:12:51Z</time>
      </trkpt>
      <trkpt lat="44.36948" lon="3.79824">
        <ele>1309.93</ele>
        <time>2012-06-17T08:12:52Z</time>
      </trkpt>
      <trkpt lat="44.36948" lon="3.79819">
        <ele>1309.93</ele>
        <time>2012-06-17T08:12:53Z</time>
      </trkpt>
      <trkpt lat="44.36948" lon="3.79813">
        <ele>1309.93</ele>
        <time>2012-06-17T08:12:54Z</time>
      </trkpt>
      <trkpt lat="44.36949" lon="3.79808">
        <ele>1310.41</ele>
        <time>2012-06-17T08:12:55Z</time>
      </trkpt>
      <trkpt lat="44.36949" lon="3.79802">
        <ele>1310.41</ele>
        <time>2012-06-17T08:12:56Z</time>
      </trkpt>
      <trkpt lat="44.36948" lon="3.79797">
        <ele>1310.41</ele>
        <time>2012-06-17T08:12:57Z</time>
      </trkpt>
      <trkpt lat="44.36948" lon="3.79792">
        <ele>1310.41</ele>
        <time>2012-06-17T08:12:58Z</time>
      </trkpt>
      <trkpt lat="44.36948" lon="3.79756">
        <ele>1309.45</ele>
        <time>2012-06-17T08:13:04Z</time>
      </trkpt>
      <trkpt lat="44.36947" lon="3.79749">
        <ele>1308.97</ele>
        <time>2012-06-17T08:13:05Z</time>
      </trkpt>
      <trkpt lat="44.36946" lon="3.79743">
        <ele>1308.97</ele>
        <time>2012-06-17T08:13:06Z</time>
      </trkpt>
      <trkpt lat="44.36944" lon="3.79737">
        <ele>1308.97</ele>
        <time>2012-06-17T08:13:07Z</time>
      </trkpt>
      <trkpt lat="44.36944" lon="3.7973">
        <ele>1308.01</ele>
        <time>2012-06-17T08:13:08Z</time>
      </trkpt>
      <trkpt lat="44.36942" lon="3.79717">
        <ele>1308.01</ele>
        <time>2012-06-17T08:13:10Z</time>
      </trkpt>
      <trkpt lat="44.36937" lon="3.79699">
        <ele>1308.01</ele>
        <time>2012-06-17T08:13:13Z</time>
      </trkpt>
      <trkpt lat="44.36937" lon="3.79694">
        <ele>1308.01</ele>
        <time>2012-06-17T08:13:14Z</time>
      </trkpt>
      <trkpt lat="44.36927" lon="3.79651">
        <ele>1307.53</ele>
        <time>2012-06-17T08:13:23Z</time>
      </trkpt>
      <trkpt lat="44.36927" lon="3.79646">
        <ele>1307.53</ele>
        <time>2012-06-17T08:13:24Z</time>
      </trkpt>
      <trkpt lat="44.36924" lon="3.79603">
        <ele>1305.13</ele>
        <time>2012-06-17T08:13:33Z</time>
      </trkpt>
      <trkpt lat="44.36923" lon="3.79572">
        <ele>1304.17</ele>
        <time>2012-06-17T08:13:40Z</time>
      </trkpt>
      <trkpt lat="44.36923" lon="3.79566">
        <ele>1304.17</ele>
        <time>2012-06-17T08:13:41Z</time>
      </trkpt>
      <trkpt lat="44.36924" lon="3.79561">
        <ele>1304.65</ele>
        <time>2012-06-17T08:13:42Z</time>
      </trkpt>
      <trkpt lat="44.36922" lon="3.79555">
        <ele>1304.65</ele>
        <time>2012-06-17T08:13:43Z</time>
      </trkpt>
      <trkpt lat="44.36921" lon="3.7955">
        <ele>1303.69</ele>
        <time>2012-06-17T08:13:44Z</time>
      </trkpt>
      <trkpt lat="44.36919" lon="3.79545">
        <ele>1303.69</ele>
        <time>2012-06-17T08:13:45Z</time>
      </trkpt>
      <trkpt lat="44.36917" lon="3.79542">
        <ele>1303.69</ele>
        <time>2012-06-17T08:13:46Z</time>
      </trkpt>
      <trkpt lat="44.36916" lon="3.79539">
        <ele>1303.69</ele>
        <time>2012-06-17T08:13:47Z</time>
      </trkpt>
      <trkpt lat="44.36915" lon="3.79537">
        <ele>1303.2</ele>
        <time>2012-06-17T08:13:48Z</time>
      </trkpt>
      <trkpt lat="44.36913" lon="3.79535">
        <ele>1302.72</ele>
        <time>2012-06-17T08:13:49Z</time>
      </trkpt>
      <trkpt lat="44.36912" lon="3.79534">
        <ele>1302.24</ele>
        <time>2012-06-17T08:13:50Z</time>
      </trkpt>
      <trkpt lat="44.3691" lon="3.79533">
        <ele>1303.69</ele>
        <time>2012-06-17T08:13:51Z</time>
      </trkpt>
      <trkpt lat="44.36908" lon="3.79532">
        <ele>1303.2</ele>
        <time>2012-06-17T08:13:52Z</time>
      </trkpt>
      <trkpt lat="44.36906" lon="3.7953">
        <ele>1302.72</ele>
        <time>2012-06-17T08:13:53Z</time>
      </trkpt>
      <trkpt lat="44.36903" lon="3.79529">
        <ele>1303.2</ele>
        <time>2012-06-17T08:13:54Z</time>
      </trkpt>
      <trkpt lat="44.36902" lon="3.79528">
        <ele>1303.2</ele>
        <time>2012-06-17T08:13:55Z</time>
      </trkpt>
      <trkpt lat="44.369" lon="3.79526">
        <ele>1302.72</ele>
        <time>2012-06-17T08:13:56Z</time>
      </trkpt>
      <trkpt lat="44.36896" lon="3.79524">
        <ele>1302.72</ele>
        <time>2012-06-17T08:14:09Z</time>
      </trkpt>
      <trkpt lat="44.36895" lon="3.79522">
        <ele>1302.72</ele>
        <time>2012-06-17T08:14:38Z</time>
      </trkpt>
      <trkpt lat="44.36894" lon="3.79521">
        <ele>1302.24</ele>
        <time>2012-06-17T08:15:01Z</time>
      </trkpt>
      <trkpt lat="44.36893" lon="3.7952">
        <ele>1302.72</ele>
        <time>2012-06-17T08:15:02Z</time>
      </trkpt>
      <trkpt lat="44.36891" lon="3.79515">
        <ele>1301.76</ele>
        <time>2012-06-17T08:15:04Z</time>
      </trkpt>
      <trkpt lat="44.36888" lon="3.79513">
        <ele>1301.76</ele>
        <time>2012-06-17T08:15:05Z</time>
      </trkpt>
      <trkpt lat="44.36886" lon="3.79512">
        <ele>1301.76</ele>
        <time>2012-06-17T08:15:06Z</time>
      </trkpt>
      <trkpt lat="44.36883" lon="3.79511">
        <ele>1302.24</ele>
        <time>2012-06-17T08:15:07Z</time>
      </trkpt>
      <trkpt lat="44.36879" lon="3.79511">
        <ele>1302.72</ele>
        <time>2012-06-17T08:15:08Z</time>
      </trkpt>
      <trkpt lat="44.36849" lon="3.79498">
        <ele>1301.28</ele>
        <time>2012-06-17T08:15:18Z</time>
      </trkpt>
      <trkpt lat="44.36837" lon="3.7949">
        <ele>1299.84</ele>
        <time>2012-06-17T08:15:25Z</time>
      </trkpt>
      <trkpt lat="44.36835" lon="3.79489">
        <ele>1300.8</ele>
        <time>2012-06-17T08:15:26Z</time>
      </trkpt>
      <trkpt lat="44.36831" lon="3.79484">
        <ele>1300.8</ele>
        <time>2012-06-17T08:15:28Z</time>
      </trkpt>
      <trkpt lat="44.3683" lon="3.7948">
        <ele>1300.8</ele>
        <time>2012-06-17T08:15:29Z</time>
      </trkpt>
      <trkpt lat="44.36829" lon="3.79477">
        <ele>1300.32</ele>
        <time>2012-06-17T08:15:30Z</time>
      </trkpt>
      <trkpt lat="44.36828" lon="3.79474">
        <ele>1300.32</ele>
        <time>2012-06-17T08:15:31Z</time>
      </trkpt>
      <trkpt lat="44.36827" lon="3.79472">
        <ele>1299.84</ele>
        <time>2012-06-17T08:15:32Z</time>
      </trkpt>
      <trkpt lat="44.36817" lon="3.79454">
        <ele>1299.36</ele>
        <time>2012-06-17T08:15:37Z</time>
      </trkpt>
      <trkpt lat="44.36815" lon="3.7945">
        <ele>1299.36</ele>
        <time>2012-06-17T08:15:38Z</time>
      </trkpt>
      <trkpt lat="44.36814" lon="3.79447">
        <ele>1299.36</ele>
        <time>2012-06-17T08:15:39Z</time>
      </trkpt>
      <trkpt lat="44.36809" lon="3.79434">
        <ele>1299.36</ele>
        <time>2012-06-17T08:15:43Z</time>
      </trkpt>
      <trkpt lat="44.36807" lon="3.79431">
        <ele>1298.88</ele>
        <time>2012-06-17T08:15:44Z</time>
      </trkpt>
      <trkpt lat="44.36805" lon="3.79427">
        <ele>1298.88</ele>
        <time>2012-06-17T08:15:45Z</time>
      </trkpt>
      <trkpt lat="44.36802" lon="3.79425">
        <ele>1298.88</ele>
        <time>2012-06-17T08:15:46Z</time>
      </trkpt>
      <trkpt lat="44.36799" lon="3.79423">
        <ele>1299.36</ele>
        <time>2012-06-17T08:15:47Z</time>
      </trkpt>
      <trkpt lat="44.36784" lon="3.79419">
        <ele>1300.32</ele>
        <time>2012-06-17T08:15:54Z</time>
      </trkpt>
      <trkpt lat="44.36774" lon="3.79412">
        <ele>1301.28</ele>
        <time>2012-06-17T08:15:59Z</time>
      </trkpt>
      <trkpt lat="44.36771" lon="3.7941">
        <ele>1301.76</ele>
        <time>2012-06-17T08:16:01Z</time>
      </trkpt>
      <trkpt lat="44.36757" lon="3.79392">
        <ele>1302.72</ele>
        <time>2012-06-17T08:16:13Z</time>
      </trkpt>
      <trkpt lat="44.36752" lon="3.79368">
        <ele>1303.69</ele>
        <time>2012-06-17T08:16:24Z</time>
      </trkpt>
      <trkpt lat="44.36753" lon="3.79365">
        <ele>1303.2</ele>
        <time>2012-06-17T08:16:25Z</time>
      </trkpt>
      <trkpt lat="44.36767" lon="3.79334">
        <ele>1301.28</ele>
        <time>2012-06-17T08:16:35Z</time>
      </trkpt>
      <trkpt lat="44.36771" lon="3.79307">
        <ele>1300.32</ele>
        <time>2012-06-17T08:16:43Z</time>
      </trkpt>
      <trkpt lat="44.3677" lon="3.79297">
        <ele>1299.84</ele>
        <time>2012-06-17T08:16:51Z</time>
      </trkpt>
      <trkpt lat="44.36769" lon="3.79283">
        <ele>1301.28</ele>
        <time>2012-06-17T08:17:01Z</time>
      </trkpt>
      <trkpt lat="44.36769" lon="3.79282">
        <ele>1301.76</ele>
        <time>2012-06-17T08:17:03Z</time>
      </trkpt>
      <trkpt lat="44.36764" lon="3.79268">
        <ele>1302.24</ele>
        <time>2012-06-17T08:17:09Z</time>
      </trkpt>
      <trkpt lat="44.36761" lon="3.79255">
        <ele>1302.72</ele>
        <time>2012-06-17T08:17:13Z</time>
      </trkpt>
      <trkpt lat="44.3676" lon="3.79249">
        <ele>1303.2</ele>
        <time>2012-06-17T08:17:16Z</time>
      </trkpt>
      <trkpt lat="44.36752" lon="3.79225">
        <ele>1304.65</ele>
        <time>2012-06-17T08:17:28Z</time>
      </trkpt>
      <trkpt lat="44.3675" lon="3.7922">
        <ele>1305.13</ele>
        <time>2012-06-17T08:17:31Z</time>
      </trkpt>
      <trkpt lat="44.36745" lon="3.79211">
        <ele>1305.61</ele>
        <time>2012-06-17T08:17:37Z</time>
      </trkpt>
      <trkpt lat="44.36742" lon="3.79204">
        <ele>1305.61</ele>
        <time>2012-06-17T08:17:41Z</time>
      </trkpt>
      <trkpt lat="44.36741" lon="3.79195">
        <ele>1306.09</ele>
        <time>2012-06-17T08:17:46Z</time>
      </trkpt>
      <trkpt lat="44.36739" lon="3.79186">
        <ele>1307.05</ele>
        <time>2012-06-17T08:17:57Z</time>
      </trkpt>
      <trkpt lat="44.36734" lon="3.79175">
        <ele>1307.05</ele>
        <time>2012-06-17T08:18:03Z</time>
      </trkpt>
      <trkpt lat="44.36732" lon="3.79171">
        <ele>1307.05</ele>
        <time>2012-06-17T08:18:05Z</time>
      </trkpt>
      <trkpt lat="44.36726" lon="3.79162">
        <ele>1308.01</ele>
        <time>2012-06-17T08:18:10Z</time>
      </trkpt>
      <trkpt lat="44.36714" lon="3.79133">
        <ele>1308.49</ele>
        <time>2012-06-17T08:18:22Z</time>
      </trkpt>
      <trkpt lat="44.36712" lon="3.7913">
        <ele>1308.97</ele>
        <time>2012-06-17T08:18:24Z</time>
      </trkpt>
      <trkpt lat="44.36701" lon="3.79109">
        <ele>1308.49</ele>
        <time>2012-06-17T08:18:33Z</time>
      </trkpt>
      <trkpt lat="44.36688" lon="3.7909">
        <ele>1308.49</ele>
        <time>2012-06-17T08:18:41Z</time>
      </trkpt>
      <trkpt lat="44.36682" lon="3.79086">
        <ele>1308.97</ele>
        <time>2012-06-17T08:18:44Z</time>
      </trkpt>
      <trkpt lat="44.36674" lon="3.79073">
        <ele>1309.45</ele>
        <time>2012-06-17T08:18:49Z</time>
      </trkpt>
      <trkpt lat="44.36662" lon="3.79051">
        <ele>1309.93</ele>
        <time>2012-06-17T08:18:59Z</time>
      </trkpt>
      <trkpt lat="44.36661" lon="3.79048">
        <ele>1309.93</ele>
        <time>2012-06-17T08:19:00Z</time>
      </trkpt>
      <trkpt lat="44.36655" lon="3.79035">
        <ele>1309.93</ele>
        <time>2012-06-17T08:19:05Z</time>
      </trkpt>
      <trkpt lat="44.36641" lon="3.79008">
        <ele>1309.93</ele>
        <time>2012-06-17T08:19:16Z</time>
      </trkpt>
      <trkpt lat="44.36637" lon="3.79003">
        <ele>1308.97</ele>
        <time>2012-06-17T08:19:18Z</time>
      </trkpt>
      <trkpt lat="44.36623" lon="3.78973">
        <ele>1309.93</ele>
        <time>2012-06-17T08:19:29Z</time>
      </trkpt>
      <trkpt lat="44.36617" lon="3.78964">
        <ele>1309.93</ele>
        <time>2012-06-17T08:19:33Z</time>
      </trkpt>
      <trkpt lat="44.36607" lon="3.78952">
        <ele>1309.45</ele>
        <time>2012-06-17T08:19:41Z</time>
      </trkpt>
      <trkpt lat="44.36586" lon="3.78928">
        <ele>1311.38</ele>
        <time>2012-06-17T08:19:56Z</time>
      </trkpt>
      <trkpt lat="44.36576" lon="3.78913">
        <ele>1311.86</ele>
        <time>2012-06-17T08:20:03Z</time>
      </trkpt>
      <trkpt lat="44.36559" lon="3.78896">
        <ele>1310.9</ele>
        <time>2012-06-17T08:20:12Z</time>
      </trkpt>
      <trkpt lat="44.36552" lon="3.7889">
        <ele>1310.41</ele>
        <time>2012-06-17T08:20:15Z</time>
      </trkpt>
      <trkpt lat="44.36542" lon="3.78881">
        <ele>1309.93</ele>
        <time>2012-06-17T08:20:22Z</time>
      </trkpt>
      <trkpt lat="44.3653" lon="3.78862">
        <ele>1308.01</ele>
        <time>2012-06-17T08:20:28Z</time>
      </trkpt>
      <trkpt lat="44.36526" lon="3.78859">
        <ele>1308.01</ele>
        <time>2012-06-17T08:20:29Z</time>
      </trkpt>
      <trkpt lat="44.36517" lon="3.78856">
        <ele>1307.05</ele>
        <time>2012-06-17T08:20:32Z</time>
      </trkpt>
      <trkpt lat="44.36497" lon="3.78834">
        <ele>1304.65</ele>
        <time>2012-06-17T08:20:40Z</time>
      </trkpt>
      <trkpt lat="44.36494" lon="3.78831">
        <ele>1304.17</ele>
        <time>2012-06-17T08:20:41Z</time>
      </trkpt>
      <trkpt lat="44.36491" lon="3.78829">
        <ele>1304.17</ele>
        <time>2012-06-17T08:20:42Z</time>
      </trkpt>
      <trkpt lat="44.36488" lon="3.78826">
        <ele>1304.17</ele>
        <time>2012-06-17T08:20:43Z</time>
      </trkpt>
      <trkpt lat="44.36485" lon="3.78823">
        <ele>1303.69</ele>
        <time>2012-06-17T08:20:44Z</time>
      </trkpt>
      <trkpt lat="44.36482" lon="3.78821">
        <ele>1302.72</ele>
        <time>2012-06-17T08:20:45Z</time>
      </trkpt>
      <trkpt lat="44.36479" lon="3.78819">
        <ele>1302.72</ele>
        <time>2012-06-17T08:20:46Z</time>
      </trkpt>
      <trkpt lat="44.36476" lon="3.78817">
        <ele>1303.2</ele>
        <time>2012-06-17T08:20:47Z</time>
      </trkpt>
      <trkpt lat="44.3647" lon="3.7881">
        <ele>1302.24</ele>
        <time>2012-06-17T08:20:49Z</time>
      </trkpt>
      <trkpt lat="44.36466" lon="3.78803">
        <ele>1301.76</ele>
        <time>2012-06-17T08:20:51Z</time>
      </trkpt>
      <trkpt lat="44.36465" lon="3.788">
        <ele>1301.28</ele>
        <time>2012-06-17T08:20:52Z</time>
      </trkpt>
      <trkpt lat="44.36454" lon="3.78776">
        <ele>1299.84</ele>
        <time>2012-06-17T08:20:59Z</time>
      </trkpt>
      <trkpt lat="44.36452" lon="3.78774">
        <ele>1299.36</ele>
        <time>2012-06-17T08:21:00Z</time>
      </trkpt>
      <trkpt lat="44.3645" lon="3.78771">
        <ele>1299.84</ele>
        <time>2012-06-17T08:21:01Z</time>
      </trkpt>
      <trkpt lat="44.36447" lon="3.78767">
        <ele>1299.36</ele>
        <time>2012-06-17T08:21:02Z</time>
      </trkpt>
      <trkpt lat="44.36445" lon="3.78762">
        <ele>1299.36</ele>
        <time>2012-06-17T08:21:03Z</time>
      </trkpt>
      <trkpt lat="44.36427" lon="3.78743">
        <ele>1296.48</ele>
        <time>2012-06-17T08:21:11Z</time>
      </trkpt>
      <trkpt lat="44.36423" lon="3.78737">
        <ele>1295.03</ele>
        <time>2012-06-17T08:21:20Z</time>
      </trkpt>
      <trkpt lat="44.36421" lon="3.78734">
        <ele>1295.03</ele>
        <time>2012-06-17T08:21:29Z</time>
      </trkpt>
      <trkpt lat="44.3642" lon="3.78732">
        <ele>1295.51</ele>
        <time>2012-06-17T08:21:37Z</time>
      </trkpt>
      <trkpt lat="44.3642" lon="3.7873">
        <ele>1295.03</ele>
        <time>2012-06-17T08:21:38Z</time>
      </trkpt>
      <trkpt lat="44.3642" lon="3.78728">
        <ele>1294.55</ele>
        <time>2012-06-17T08:21:39Z</time>
      </trkpt>
      <trkpt lat="44.36419" lon="3.78725">
        <ele>1294.55</ele>
        <time>2012-06-17T08:21:41Z</time>
      </trkpt>
      <trkpt lat="44.36419" lon="3.78722">
        <ele>1294.55</ele>
        <time>2012-06-17T08:21:42Z</time>
      </trkpt>
      <trkpt lat="44.36418" lon="3.7872">
        <ele>1294.07</ele>
        <time>2012-06-17T08:21:43Z</time>
      </trkpt>
      <trkpt lat="44.36417" lon="3.78716">
        <ele>1293.59</ele>
        <time>2012-06-17T08:21:50Z</time>
      </trkpt>
      <trkpt lat="44.36411" lon="3.787">
        <ele>1292.15</ele>
        <time>2012-06-17T08:21:55Z</time>
      </trkpt>
      <trkpt lat="44.36403" lon="3.7869">
        <ele>1290.71</ele>
        <time>2012-06-17T08:21:59Z</time>
      </trkpt>
      <trkpt lat="44.36389" lon="3.78671">
        <ele>1289.27</ele>
        <time>2012-06-17T08:22:06Z</time>
      </trkpt>
      <trkpt lat="44.36388" lon="3.78669">
        <ele>1288.78</ele>
        <time>2012-06-17T08:22:07Z</time>
      </trkpt>
      <trkpt lat="44.36387" lon="3.78668">
        <ele>1289.27</ele>
        <time>2012-06-17T08:22:08Z</time>
      </trkpt>
      <trkpt lat="44.36386" lon="3.78667">
        <ele>1288.78</ele>
        <time>2012-06-17T08:22:09Z</time>
      </trkpt>
      <trkpt lat="44.36385" lon="3.78666">
        <ele>1289.27</ele>
        <time>2012-06-17T08:22:10Z</time>
      </trkpt>
      <trkpt lat="44.36384" lon="3.78665">
        <ele>1288.78</ele>
        <time>2012-06-17T08:22:11Z</time>
      </trkpt>
      <trkpt lat="44.36381" lon="3.7866">
        <ele>1288.3</ele>
        <time>2012-06-17T08:22:21Z</time>
      </trkpt>
      <trkpt lat="44.36375" lon="3.78655">
        <ele>1288.78</ele>
        <time>2012-06-17T08:22:32Z</time>
      </trkpt>
      <trkpt lat="44.36372" lon="3.78653">
        <ele>1287.82</ele>
        <time>2012-06-17T08:22:53Z</time>
      </trkpt>
      <trkpt lat="44.36371" lon="3.78652">
        <ele>1287.82</ele>
        <time>2012-06-17T08:22:56Z</time>
      </trkpt>
      <trkpt lat="44.3637" lon="3.7865">
        <ele>1287.82</ele>
        <time>2012-06-17T08:22:57Z</time>
      </trkpt>
      <trkpt lat="44.36369" lon="3.78648">
        <ele>1287.34</ele>
        <time>2012-06-17T08:22:58Z</time>
      </trkpt>
      <trkpt lat="44.36368" lon="3.78647">
        <ele>1287.34</ele>
        <time>2012-06-17T08:22:59Z</time>
      </trkpt>
      <trkpt lat="44.36365" lon="3.78637">
        <ele>1286.38</ele>
        <time>2012-06-17T08:23:10Z</time>
      </trkpt>
      <trkpt lat="44.36362" lon="3.78632">
        <ele>1285.9</ele>
        <time>2012-06-17T08:23:20Z</time>
      </trkpt>
      <trkpt lat="44.36363" lon="3.7863">
        <ele>1285.9</ele>
        <time>2012-06-17T08:23:23Z</time>
      </trkpt>
      <trkpt lat="44.36367" lon="3.78628">
        <ele>1283.5</ele>
        <time>2012-06-17T08:23:27Z</time>
      </trkpt>
      <trkpt lat="44.36368" lon="3.78627">
        <ele>1283.02</ele>
        <time>2012-06-17T08:23:28Z</time>
      </trkpt>
      <trkpt lat="44.36369" lon="3.78626">
        <ele>1281.57</ele>
        <time>2012-06-17T08:23:46Z</time>
      </trkpt>
      <trkpt lat="44.3637" lon="3.78623">
        <ele>1282.06</ele>
        <time>2012-06-17T08:24:07Z</time>
      </trkpt>
      <trkpt lat="44.36371" lon="3.78622">
        <ele>1282.06</ele>
        <time>2012-06-17T08:24:22Z</time>
      </trkpt>
      <trkpt lat="44.3637" lon="3.7862">
        <ele>1282.54</ele>
        <time>2012-06-17T08:24:24Z</time>
      </trkpt>
      <trkpt lat="44.3637" lon="3.78619">
        <ele>1282.06</ele>
        <time>2012-06-17T08:24:25Z</time>
      </trkpt>
      <trkpt lat="44.3637" lon="3.78616">
        <ele>1281.57</ele>
        <time>2012-06-17T08:24:26Z</time>
      </trkpt>
      <trkpt lat="44.36369" lon="3.78614">
        <ele>1281.57</ele>
        <time>2012-06-17T08:24:27Z</time>
      </trkpt>
      <trkpt lat="44.36363" lon="3.78607">
        <ele>1280.61</ele>
        <time>2012-06-17T08:24:33Z</time>
      </trkpt>
      <trkpt lat="44.36362" lon="3.78601">
        <ele>1280.13</ele>
        <time>2012-06-17T08:24:37Z</time>
      </trkpt>
      <trkpt lat="44.36362" lon="3.78599">
        <ele>1279.65</ele>
        <time>2012-06-17T08:24:38Z</time>
      </trkpt>
      <trkpt lat="44.36362" lon="3.78597">
        <ele>1279.17</ele>
        <time>2012-06-17T08:24:39Z</time>
      </trkpt>
      <trkpt lat="44.36363" lon="3.78594">
        <ele>1279.17</ele>
        <time>2012-06-17T08:24:40Z</time>
      </trkpt>
      <trkpt lat="44.36365" lon="3.78588">
        <ele>1277.73</ele>
        <time>2012-06-17T08:24:43Z</time>
      </trkpt>
      <trkpt lat="44.36368" lon="3.78586">
        <ele>1276.77</ele>
        <time>2012-06-17T08:24:45Z</time>
      </trkpt>
      <trkpt lat="44.3637" lon="3.78578">
        <ele>1275.81</ele>
        <time>2012-06-17T08:24:47Z</time>
      </trkpt>
      <trkpt lat="44.36373" lon="3.78567">
        <ele>1273.88</ele>
        <time>2012-06-17T08:24:49Z</time>
      </trkpt>
      <trkpt lat="44.36376" lon="3.78558">
        <ele>1272.44</ele>
        <time>2012-06-17T08:24:51Z</time>
      </trkpt>
      <trkpt lat="44.36379" lon="3.78554">
        <ele>1271.48</ele>
        <time>2012-06-17T08:24:53Z</time>
      </trkpt>
      <trkpt lat="44.36381" lon="3.78548">
        <ele>1270.52</ele>
        <time>2012-06-17T08:24:55Z</time>
      </trkpt>
      <trkpt lat="44.36377" lon="3.78536">
        <ele>1269.08</ele>
        <time>2012-06-17T08:24:58Z</time>
      </trkpt>
      <trkpt lat="44.36374" lon="3.78508">
        <ele>1267.16</ele>
        <time>2012-06-17T08:25:04Z</time>
      </trkpt>
      <trkpt lat="44.36373" lon="3.78503">
        <ele>1267.16</ele>
        <time>2012-06-17T08:25:05Z</time>
      </trkpt>
      <trkpt lat="44.3637" lon="3.78494">
        <ele>1266.19</ele>
        <time>2012-06-17T08:25:07Z</time>
      </trkpt>
      <trkpt lat="44.36366" lon="3.78485">
        <ele>1264.75</ele>
        <time>2012-06-17T08:25:10Z</time>
      </trkpt>
      <trkpt lat="44.36367" lon="3.78473">
        <ele>1262.83</ele>
        <time>2012-06-17T08:25:14Z</time>
      </trkpt>
      <trkpt lat="44.3637" lon="3.78466">
        <ele>1261.87</ele>
        <time>2012-06-17T08:25:23Z</time>
      </trkpt>
      <trkpt lat="44.36369" lon="3.78466">
        <ele>1261.87</ele>
        <time>2012-06-17T08:25:26Z</time>
      </trkpt>
      <trkpt lat="44.3637" lon="3.78463">
        <ele>1261.39</ele>
        <time>2012-06-17T08:25:30Z</time>
      </trkpt>
      <trkpt lat="44.36371" lon="3.78451">
        <ele>1258.02</ele>
        <time>2012-06-17T08:25:42Z</time>
      </trkpt>
      <trkpt lat="44.36373" lon="3.78448">
        <ele>1256.58</ele>
        <time>2012-06-17T08:25:54Z</time>
      </trkpt>
      <trkpt lat="44.36372" lon="3.78448">
        <ele>1256.58</ele>
        <time>2012-06-17T08:26:17Z</time>
      </trkpt>
      <trkpt lat="44.36376" lon="3.78446">
        <ele>1256.1</ele>
        <time>2012-06-17T08:26:33Z</time>
      </trkpt>
      <trkpt lat="44.36375" lon="3.78445">
        <ele>1255.62</ele>
        <time>2012-06-17T08:26:55Z</time>
      </trkpt>
      <trkpt lat="44.36375" lon="3.7844">
        <ele>1254.18</ele>
        <time>2012-06-17T08:27:07Z</time>
      </trkpt>
      <trkpt lat="44.36375" lon="3.78437">
        <ele>1254.18</ele>
        <time>2012-06-17T08:27:22Z</time>
      </trkpt>
      <trkpt lat="44.36374" lon="3.78435">
        <ele>1253.22</ele>
        <time>2012-06-17T08:27:40Z</time>
      </trkpt>
      <trkpt lat="44.36374" lon="3.78434">
        <ele>1253.22</ele>
        <time>2012-06-17T08:27:51Z</time>
      </trkpt>
      <trkpt lat="44.36372" lon="3.78431">
        <ele>1253.22</ele>
        <time>2012-06-17T08:27:53Z</time>
      </trkpt>
      <trkpt lat="44.3637" lon="3.78412">
        <ele>1250.81</ele>
        <time>2012-06-17T08:28:02Z</time>
      </trkpt>
      <trkpt lat="44.36371" lon="3.784">
        <ele>1247.93</ele>
        <time>2012-06-17T08:28:13Z</time>
      </trkpt>
      <trkpt lat="44.36372" lon="3.78385">
        <ele>1246.49</ele>
        <time>2012-06-17T08:28:25Z</time>
      </trkpt>
      <trkpt lat="44.36372" lon="3.78382">
        <ele>1246.01</ele>
        <time>2012-06-17T08:28:36Z</time>
      </trkpt>
      <trkpt lat="44.36372" lon="3.78381">
        <ele>1246.01</ele>
        <time>2012-06-17T08:28:51Z</time>
      </trkpt>
      <trkpt lat="44.36366" lon="3.78374">
        <ele>1245.04</ele>
        <time>2012-06-17T08:29:03Z</time>
      </trkpt>
      <trkpt lat="44.36366" lon="3.78372">
        <ele>1245.53</ele>
        <time>2012-06-17T08:29:30Z</time>
      </trkpt>
      <trkpt lat="44.36363" lon="3.78367">
        <ele>1245.53</ele>
        <time>2012-06-17T08:29:54Z</time>
      </trkpt>
      <trkpt lat="44.36363" lon="3.78356">
        <ele>1246.01</ele>
        <time>2012-06-17T08:30:06Z</time>
      </trkpt>
      <trkpt lat="44.36361" lon="3.78353">
        <ele>1245.53</ele>
        <time>2012-06-17T08:30:25Z</time>
      </trkpt>
      <trkpt lat="44.3636" lon="3.78352">
        <ele>1245.04</ele>
        <time>2012-06-17T08:30:38Z</time>
      </trkpt>
      <trkpt lat="44.36361" lon="3.7835">
        <ele>1244.56</ele>
        <time>2012-06-17T08:30:51Z</time>
      </trkpt>
      <trkpt lat="44.36362" lon="3.78348">
        <ele>1244.56</ele>
        <time>2012-06-17T08:31:10Z</time>
      </trkpt>
      <trkpt lat="44.36363" lon="3.78348">
        <ele>1244.56</ele>
        <time>2012-06-17T08:31:41Z</time>
      </trkpt>
      <trkpt lat="44.36363" lon="3.78352">
        <ele>1244.56</ele>
        <time>2012-06-17T08:31:59Z</time>
      </trkpt>
      <trkpt lat="44.36363" lon="3.78358">
        <ele>1245.53</ele>
        <time>2012-06-17T08:32:12Z</time>
      </trkpt>
      <trkpt lat="44.36364" lon="3.78358">
        <ele>1245.04</ele>
        <time>2012-06-17T08:32:47Z</time>
      </trkpt>
      <trkpt lat="44.36364" lon="3.78358">
        <ele>1245.53</ele>
        <time>2012-06-17T08:33:14Z</time>
      </trkpt>
      <trkpt lat="44.36365" lon="3.78359">
        <ele>1245.53</ele>
        <time>2012-06-17T08:33:26Z</time>
      </trkpt>
      <trkpt lat="44.36365" lon="3.78369">
        <ele>1245.53</ele>
        <time>2012-06-17T08:33:33Z</time>
      </trkpt>
      <trkpt lat="44.36365" lon="3.78375">
        <ele>1246.01</ele>
        <time>2012-06-17T08:33:37Z</time>
      </trkpt>
      <trkpt lat="44.36354" lon="3.78376">
        <ele>1246.01</ele>
        <time>2012-06-17T08:33:47Z</time>
      </trkpt>
      <trkpt lat="44.36352" lon="3.78376">
        <ele>1245.04</ele>
        <time>2012-06-17T08:33:49Z</time>
      </trkpt>
      <trkpt lat="44.36349" lon="3.78378">
        <ele>1245.53</ele>
        <time>2012-06-17T08:33:54Z</time>
      </trkpt>
      <trkpt lat="44.36343" lon="3.78385">
        <ele>1246.49</ele>
        <time>2012-06-17T08:34:02Z</time>
      </trkpt>
      <trkpt lat="44.3634" lon="3.78387">
        <ele>1246.01</ele>
        <time>2012-06-17T08:34:05Z</time>
      </trkpt>
      <trkpt lat="44.36334" lon="3.78389">
        <ele>1245.53</ele>
        <time>2012-06-17T08:34:11Z</time>
      </trkpt>
      <trkpt lat="44.36324" lon="3.78398">
        <ele>1245.53</ele>
        <time>2012-06-17T08:34:25Z</time>
      </trkpt>
      <trkpt lat="44.36322" lon="3.78399">
        <ele>1245.53</ele>
        <time>2012-06-17T08:34:27Z</time>
      </trkpt>
      <trkpt lat="44.36311" lon="3.78406">
        <ele>1245.53</ele>
        <time>2012-06-17T08:34:43Z</time>
      </trkpt>
      <trkpt lat="44.36309" lon="3.78408">
        <ele>1246.01</ele>
        <time>2012-06-17T08:34:48Z</time>
      </trkpt>
      <trkpt lat="44.36308" lon="3.7841">
        <ele>1245.04</ele>
        <time>2012-06-17T08:34:50Z</time>
      </trkpt>
      <trkpt lat="44.36306" lon="3.78411">
        <ele>1244.56</ele>
        <time>2012-06-17T08:34:52Z</time>
      </trkpt>
      <trkpt lat="44.36303" lon="3.78414">
        <ele>1245.04</ele>
        <time>2012-06-17T08:34:56Z</time>
      </trkpt>
      <trkpt lat="44.36299" lon="3.78414">
        <ele>1245.04</ele>
        <time>2012-06-17T08:35:00Z</time>
      </trkpt>
      <trkpt lat="44.36289" lon="3.78421">
        <ele>1244.56</ele>
        <time>2012-06-17T08:35:12Z</time>
      </trkpt>
      <trkpt lat="44.36286" lon="3.78423">
        <ele>1244.56</ele>
        <time>2012-06-17T08:35:15Z</time>
      </trkpt>
      <trkpt lat="44.36281" lon="3.78432">
        <ele>1244.08</ele>
        <time>2012-06-17T08:35:24Z</time>
      </trkpt>
      <trkpt lat="44.36278" lon="3.78435">
        <ele>1243.6</ele>
        <time>2012-06-17T08:35:29Z</time>
      </trkpt>
      <trkpt lat="44.36266" lon="3.78439">
        <ele>1242.64</ele>
        <time>2012-06-17T08:35:42Z</time>
      </trkpt>
      <trkpt lat="44.36266" lon="3.78439">
        <ele>1242.16</ele>
        <time>2012-06-17T08:35:44Z</time>
      </trkpt>
      <trkpt lat="44.3625" lon="3.78442">
        <ele>1241.2</ele>
        <time>2012-06-17T08:35:56Z</time>
      </trkpt>
      <trkpt lat="44.36244" lon="3.78444">
        <ele>1241.2</ele>
        <time>2012-06-17T08:36:06Z</time>
      </trkpt>
      <trkpt lat="44.36239" lon="3.78444">
        <ele>1241.2</ele>
        <time>2012-06-17T08:36:13Z</time>
      </trkpt>
      <trkpt lat="44.36226" lon="3.78447">
        <ele>1240.72</ele>
        <time>2012-06-17T08:36:19Z</time>
      </trkpt>
      <trkpt lat="44.3622" lon="3.78447">
        <ele>1241.2</ele>
        <time>2012-06-17T08:36:31Z</time>
      </trkpt>
      <trkpt lat="44.36202" lon="3.78447">
        <ele>1239.76</ele>
        <time>2012-06-17T08:36:41Z</time>
      </trkpt>
      <trkpt lat="44.36185" lon="3.78453">
        <ele>1239.76</ele>
        <time>2012-06-17T08:36:52Z</time>
      </trkpt>
      <trkpt lat="44.36181" lon="3.78451">
        <ele>1239.28</ele>
        <time>2012-06-17T08:36:59Z</time>
      </trkpt>
      <trkpt lat="44.36167" lon="3.78457">
        <ele>1237.83</ele>
        <time>2012-06-17T08:37:11Z</time>
      </trkpt>
      <trkpt lat="44.36152" lon="3.78467">
        <ele>1237.35</ele>
        <time>2012-06-17T08:37:24Z</time>
      </trkpt>
      <trkpt lat="44.36147" lon="3.78472">
        <ele>1236.87</ele>
        <time>2012-06-17T08:37:30Z</time>
      </trkpt>
      <trkpt lat="44.36134" lon="3.78484">
        <ele>1236.39</ele>
        <time>2012-06-17T08:37:42Z</time>
      </trkpt>
      <trkpt lat="44.36126" lon="3.78497">
        <ele>1235.91</ele>
        <time>2012-06-17T08:37:55Z</time>
      </trkpt>
      <trkpt lat="44.3612" lon="3.785">
        <ele>1235.91</ele>
        <time>2012-06-17T08:38:06Z</time>
      </trkpt>
      <trkpt lat="44.36117" lon="3.78505">
        <ele>1234.95</ele>
        <time>2012-06-17T08:38:11Z</time>
      </trkpt>
      <trkpt lat="44.36112" lon="3.78509">
        <ele>1234.95</ele>
        <time>2012-06-17T08:38:18Z</time>
      </trkpt>
      <trkpt lat="44.36101" lon="3.78518">
        <ele>1233.99</ele>
        <time>2012-06-17T08:38:29Z</time>
      </trkpt>
      <trkpt lat="44.36088" lon="3.78531">
        <ele>1233.03</ele>
        <time>2012-06-17T08:38:43Z</time>
      </trkpt>
      <trkpt lat="44.36088" lon="3.78532">
        <ele>1233.03</ele>
        <time>2012-06-17T08:38:44Z</time>
      </trkpt>
      <trkpt lat="44.36083" lon="3.78536">
        <ele>1233.51</ele>
        <time>2012-06-17T08:38:50Z</time>
      </trkpt>
      <trkpt lat="44.36078" lon="3.78541">
        <ele>1232.55</ele>
        <time>2012-06-17T08:39:03Z</time>
      </trkpt>
      <trkpt lat="44.36078" lon="3.78542">
        <ele>1232.55</ele>
        <time>2012-06-17T08:39:04Z</time>
      </trkpt>
      <trkpt lat="44.36074" lon="3.7855">
        <ele>1233.03</ele>
        <time>2012-06-17T08:39:11Z</time>
      </trkpt>
      <trkpt lat="44.36066" lon="3.78563">
        <ele>1232.07</ele>
        <time>2012-06-17T08:39:21Z</time>
      </trkpt>
      <trkpt lat="44.36064" lon="3.78566">
        <ele>1231.59</ele>
        <time>2012-06-17T08:39:23Z</time>
      </trkpt>
      <trkpt lat="44.36056" lon="3.78581">
        <ele>1232.07</ele>
        <time>2012-06-17T08:39:37Z</time>
      </trkpt>
      <trkpt lat="44.36056" lon="3.78582">
        <ele>1231.59</ele>
        <time>2012-06-17T08:39:38Z</time>
      </trkpt>
      <trkpt lat="44.36055" lon="3.78583">
        <ele>1231.59</ele>
        <time>2012-06-17T08:39:40Z</time>
      </trkpt>
      <trkpt lat="44.36054" lon="3.78589">
        <ele>1230.62</ele>
        <time>2012-06-17T08:39:53Z</time>
      </trkpt>
      <trkpt lat="44.36055" lon="3.78596">
        <ele>1231.59</ele>
        <time>2012-06-17T08:40:14Z</time>
      </trkpt>
      <trkpt lat="44.36054" lon="3.78602">
        <ele>1229.66</ele>
        <time>2012-06-17T08:40:25Z</time>
      </trkpt>
      <trkpt lat="44.36052" lon="3.78611">
        <ele>1229.66</ele>
        <time>2012-06-17T08:40:34Z</time>
      </trkpt>
      <trkpt lat="44.36052" lon="3.7862">
        <ele>1230.14</ele>
        <time>2012-06-17T08:40:44Z</time>
      </trkpt>
      <trkpt lat="44.36052" lon="3.78621">
        <ele>1230.14</ele>
        <time>2012-06-17T08:40:45Z</time>
      </trkpt>
      <trkpt lat="44.36052" lon="3.78628">
        <ele>1229.66</ele>
        <time>2012-06-17T08:40:50Z</time>
      </trkpt>
      <trkpt lat="44.36051" lon="3.78633">
        <ele>1229.18</ele>
        <time>2012-06-17T08:40:55Z</time>
      </trkpt>
      <trkpt lat="44.36051" lon="3.78653">
        <ele>1228.22</ele>
        <time>2012-06-17T08:41:08Z</time>
      </trkpt>
      <trkpt lat="44.36052" lon="3.78657">
        <ele>1228.7</ele>
        <time>2012-06-17T08:41:11Z</time>
      </trkpt>
      <trkpt lat="44.36051" lon="3.78663">
        <ele>1228.7</ele>
        <time>2012-06-17T08:41:18Z</time>
      </trkpt>
      <trkpt lat="44.3605" lon="3.78666">
        <ele>1227.74</ele>
        <time>2012-06-17T08:41:21Z</time>
      </trkpt>
      <trkpt lat="44.36051" lon="3.78669">
        <ele>1227.26</ele>
        <time>2012-06-17T08:41:26Z</time>
      </trkpt>
      <trkpt lat="44.36051" lon="3.78671">
        <ele>1226.3</ele>
        <time>2012-06-17T08:41:39Z</time>
      </trkpt>
      <trkpt lat="44.36051" lon="3.78671">
        <ele>1226.3</ele>
        <time>2012-06-17T08:41:58Z</time>
      </trkpt>
      <trkpt lat="44.36051" lon="3.78672">
        <ele>1226.3</ele>
        <time>2012-06-17T08:42:19Z</time>
      </trkpt>
      <trkpt lat="44.36051" lon="3.78672">
        <ele>1226.3</ele>
        <time>2012-06-17T08:42:20Z</time>
      </trkpt>
      <trkpt lat="44.36052" lon="3.78682">
        <ele>1226.3</ele>
        <time>2012-06-17T08:42:24Z</time>
      </trkpt>
      <trkpt lat="44.36053" lon="3.78691">
        <ele>1226.3</ele>
        <time>2012-06-17T08:42:28Z</time>
      </trkpt>
      <trkpt lat="44.36058" lon="3.78711">
        <ele>1225.82</ele>
        <time>2012-06-17T08:42:37Z</time>
      </trkpt>
      <trkpt lat="44.36058" lon="3.78715">
        <ele>1226.3</ele>
        <time>2012-06-17T08:42:45Z</time>
      </trkpt>
      <trkpt lat="44.36052" lon="3.78692">
        <ele>1226.3</ele>
        <time>2012-06-17T08:43:02Z</time>
      </trkpt>
      <trkpt lat="44.36051" lon="3.78691">
        <ele>1225.34</ele>
        <time>2012-06-17T08:43:19Z</time>
      </trkpt>
      <trkpt lat="44.3605" lon="3.78691">
        <ele>1225.82</ele>
        <time>2012-06-17T08:43:57Z</time>
      </trkpt>
      <trkpt lat="44.3605" lon="3.78691">
        <ele>1225.82</ele>
        <time>2012-06-17T08:44:25Z</time>
      </trkpt>
      <trkpt lat="44.36051" lon="3.78693">
        <ele>1226.3</ele>
        <time>2012-06-17T08:44:54Z</time>
      </trkpt>
      <trkpt lat="44.36052" lon="3.78694">
        <ele>1225.34</ele>
        <time>2012-06-17T08:45:08Z</time>
      </trkpt>
      <trkpt lat="44.36054" lon="3.78702">
        <ele>1225.34</ele>
        <time>2012-06-17T08:45:12Z</time>
      </trkpt>
      <trkpt lat="44.36056" lon="3.78709">
        <ele>1224.86</ele>
        <time>2012-06-17T08:45:14Z</time>
      </trkpt>
      <trkpt lat="44.36059" lon="3.78738">
        <ele>1224.38</ele>
        <time>2012-06-17T08:45:22Z</time>
      </trkpt>
      <trkpt lat="44.36064" lon="3.7876">
        <ele>1223.9</ele>
        <time>2012-06-17T08:45:29Z</time>
      </trkpt>
      <trkpt lat="44.36064" lon="3.78786">
        <ele>1223.9</ele>
        <time>2012-06-17T08:45:37Z</time>
      </trkpt>
      <trkpt lat="44.36065" lon="3.78795">
        <ele>1222.93</ele>
        <time>2012-06-17T08:45:40Z</time>
      </trkpt>
      <trkpt lat="44.36064" lon="3.78809">
        <ele>1222.93</ele>
        <time>2012-06-17T08:45:46Z</time>
      </trkpt>
      <trkpt lat="44.36067" lon="3.78817">
        <ele>1222.93</ele>
        <time>2012-06-17T08:45:50Z</time>
      </trkpt>
      <trkpt lat="44.36072" lon="3.78864">
        <ele>1221.49</ele>
        <time>2012-06-17T08:46:03Z</time>
      </trkpt>
      <trkpt lat="44.36076" lon="3.78886">
        <ele>1219.09</ele>
        <time>2012-06-17T08:46:14Z</time>
      </trkpt>
      <trkpt lat="44.36074" lon="3.78886">
        <ele>1219.57</ele>
        <time>2012-06-17T08:46:29Z</time>
      </trkpt>
      <trkpt lat="44.36073" lon="3.78889">
        <ele>1220.05</ele>
        <time>2012-06-17T08:46:40Z</time>
      </trkpt>
      <trkpt lat="44.36072" lon="3.78891">
        <ele>1220.05</ele>
        <time>2012-06-17T08:47:00Z</time>
      </trkpt>
      <trkpt lat="44.36073" lon="3.78897">
        <ele>1219.57</ele>
        <time>2012-06-17T08:47:05Z</time>
      </trkpt>
      <trkpt lat="44.36072" lon="3.78898">
        <ele>1220.05</ele>
        <time>2012-06-17T08:47:07Z</time>
      </trkpt>
      <trkpt lat="44.3607" lon="3.78906">
        <ele>1219.09</ele>
        <time>2012-06-17T08:47:18Z</time>
      </trkpt>
      <trkpt lat="44.36071" lon="3.78918">
        <ele>1219.57</ele>
        <time>2012-06-17T08:47:29Z</time>
      </trkpt>
      <trkpt lat="44.36076" lon="3.78938">
        <ele>1218.61</ele>
        <time>2012-06-17T08:47:36Z</time>
      </trkpt>
      <trkpt lat="44.36077" lon="3.78958">
        <ele>1218.61</ele>
        <time>2012-06-17T08:47:48Z</time>
      </trkpt>
      <trkpt lat="44.36074" lon="3.78959">
        <ele>1217.65</ele>
        <time>2012-06-17T08:47:56Z</time>
      </trkpt>
      <trkpt lat="44.36073" lon="3.7896">
        <ele>1217.17</ele>
        <time>2012-06-17T08:47:58Z</time>
      </trkpt>
      <trkpt lat="44.36072" lon="3.78962">
        <ele>1217.17</ele>
        <time>2012-06-17T08:48:00Z</time>
      </trkpt>
      <trkpt lat="44.3607" lon="3.78965">
        <ele>1216.21</ele>
        <time>2012-06-17T08:48:04Z</time>
      </trkpt>
      <trkpt lat="44.36067" lon="3.7897">
        <ele>1214.76</ele>
        <time>2012-06-17T08:48:09Z</time>
      </trkpt>
      <trkpt lat="44.36065" lon="3.78971">
        <ele>1214.76</ele>
        <time>2012-06-17T08:48:11Z</time>
      </trkpt>
      <trkpt lat="44.36058" lon="3.78971">
        <ele>1211.88</ele>
        <time>2012-06-17T08:48:23Z</time>
      </trkpt>
      <trkpt lat="44.36056" lon="3.78969">
        <ele>1210.92</ele>
        <time>2012-06-17T08:48:29Z</time>
      </trkpt>
      <trkpt lat="44.36052" lon="3.78969">
        <ele>1210.44</ele>
        <time>2012-06-17T08:48:32Z</time>
      </trkpt>
      <trkpt lat="44.36049" lon="3.78967">
        <ele>1209.48</ele>
        <time>2012-06-17T08:48:35Z</time>
      </trkpt>
      <trkpt lat="44.36042" lon="3.78969">
        <ele>1207.07</ele>
        <time>2012-06-17T08:48:41Z</time>
      </trkpt>
      <trkpt lat="44.36039" lon="3.78973">
        <ele>1205.63</ele>
        <time>2012-06-17T08:48:44Z</time>
      </trkpt>
      <trkpt lat="44.36034" lon="3.78975">
        <ele>1204.67</ele>
        <time>2012-06-17T08:48:47Z</time>
      </trkpt>
      <trkpt lat="44.36029" lon="3.78976">
        <ele>1203.23</ele>
        <time>2012-06-17T08:48:58Z</time>
      </trkpt>
      <trkpt lat="44.36023" lon="3.78976">
        <ele>1200.82</ele>
        <time>2012-06-17T08:49:08Z</time>
      </trkpt>
      <trkpt lat="44.36023" lon="3.78976">
        <ele>1200.82</ele>
        <time>2012-06-17T08:49:09Z</time>
      </trkpt>
      <trkpt lat="44.36017" lon="3.78975">
        <ele>1199.38</ele>
        <time>2012-06-17T08:49:17Z</time>
      </trkpt>
      <trkpt lat="44.36015" lon="3.78976">
        <ele>1198.42</ele>
        <time>2012-06-17T08:49:19Z</time>
      </trkpt>
      <trkpt lat="44.36007" lon="3.78979">
        <ele>1195.06</ele>
        <time>2012-06-17T08:49:27Z</time>
      </trkpt>
      <trkpt lat="44.36007" lon="3.7898">
        <ele>1194.58</ele>
        <time>2012-06-17T08:49:28Z</time>
      </trkpt>
      <trkpt lat="44.36006" lon="3.78981">
        <ele>1194.58</ele>
        <time>2012-06-17T08:49:30Z</time>
      </trkpt>
      <trkpt lat="44.36001" lon="3.78982">
        <ele>1192.65</ele>
        <time>2012-06-17T08:49:37Z</time>
      </trkpt>
      <trkpt lat="44.35996" lon="3.78984">
        <ele>1191.21</ele>
        <time>2012-06-17T08:49:45Z</time>
      </trkpt>
      <trkpt lat="44.35995" lon="3.78989">
        <ele>1190.73</ele>
        <time>2012-06-17T08:49:48Z</time>
      </trkpt>
      <trkpt lat="44.35995" lon="3.78992">
        <ele>1189.77</ele>
        <time>2012-06-17T08:49:50Z</time>
      </trkpt>
      <trkpt lat="44.35994" lon="3.78993">
        <ele>1189.77</ele>
        <time>2012-06-17T08:49:51Z</time>
      </trkpt>
      <trkpt lat="44.35987" lon="3.79">
        <ele>1187.85</ele>
        <time>2012-06-17T08:49:55Z</time>
      </trkpt>
      <trkpt lat="44.35979" lon="3.79003">
        <ele>1186.4</ele>
        <time>2012-06-17T08:50:05Z</time>
      </trkpt>
      <trkpt lat="44.35977" lon="3.79002">
        <ele>1186.4</ele>
        <time>2012-06-17T08:50:38Z</time>
      </trkpt>
      <trkpt lat="44.35978" lon="3.79">
        <ele>1185.92</ele>
        <time>2012-06-17T08:51:09Z</time>
      </trkpt>
      <trkpt lat="44.35977" lon="3.79001">
        <ele>1185.92</ele>
        <time>2012-06-17T08:51:45Z</time>
      </trkpt>
      <trkpt lat="44.35977" lon="3.79003">
        <ele>1185.44</ele>
        <time>2012-06-17T08:51:56Z</time>
      </trkpt>
      <trkpt lat="44.35968" lon="3.79003">
        <ele>1184.48</ele>
        <time>2012-06-17T08:52:02Z</time>
      </trkpt>
      <trkpt lat="44.3595" lon="3.78986">
        <ele>1184</ele>
        <time>2012-06-17T08:52:09Z</time>
      </trkpt>
      <trkpt lat="44.35934" lon="3.78992">
        <ele>1182.56</ele>
        <time>2012-06-17T08:52:16Z</time>
      </trkpt>
      <trkpt lat="44.35921" lon="3.78992">
        <ele>1180.16</ele>
        <time>2012-06-17T08:52:21Z</time>
      </trkpt>
      <trkpt lat="44.35906" lon="3.78988">
        <ele>1177.75</ele>
        <time>2012-06-17T08:52:28Z</time>
      </trkpt>
      <trkpt lat="44.35879" lon="3.78958">
        <ele>1177.27</ele>
        <time>2012-06-17T08:52:40Z</time>
      </trkpt>
      <trkpt lat="44.35869" lon="3.78937">
        <ele>1176.79</ele>
        <time>2012-06-17T08:52:44Z</time>
      </trkpt>
      <trkpt lat="44.35858" lon="3.78916">
        <ele>1176.79</ele>
        <time>2012-06-17T08:52:50Z</time>
      </trkpt>
      <trkpt lat="44.35857" lon="3.78918">
        <ele>1176.31</ele>
        <time>2012-06-17T08:53:02Z</time>
      </trkpt>
      <trkpt lat="44.35857" lon="3.78922">
        <ele>1175.83</ele>
        <time>2012-06-17T08:53:26Z</time>
      </trkpt>
      <trkpt lat="44.35857" lon="3.7892">
        <ele>1175.35</ele>
        <time>2012-06-17T08:53:53Z</time>
      </trkpt>
      <trkpt lat="44.35857" lon="3.78922">
        <ele>1176.31</ele>
        <time>2012-06-17T08:54:15Z</time>
      </trkpt>
      <trkpt lat="44.35857" lon="3.78922">
        <ele>1176.31</ele>
        <time>2012-06-17T08:54:46Z</time>
      </trkpt>
      <trkpt lat="44.35857" lon="3.78923">
        <ele>1175.83</ele>
        <time>2012-06-17T08:55:04Z</time>
      </trkpt>
      <trkpt lat="44.35858" lon="3.78924">
        <ele>1176.31</ele>
        <time>2012-06-17T08:55:05Z</time>
      </trkpt>
      <trkpt lat="44.35859" lon="3.78926">
        <ele>1175.83</ele>
        <time>2012-06-17T08:55:06Z</time>
      </trkpt>
      <trkpt lat="44.3586" lon="3.78927">
        <ele>1175.83</ele>
        <time>2012-06-17T08:55:07Z</time>
      </trkpt>
      <trkpt lat="44.35861" lon="3.7893">
        <ele>1175.83</ele>
        <time>2012-06-17T08:55:08Z</time>
      </trkpt>
      <trkpt lat="44.35862" lon="3.78932">
        <ele>1175.83</ele>
        <time>2012-06-17T08:55:09Z</time>
      </trkpt>
      <trkpt lat="44.35863" lon="3.78935">
        <ele>1175.83</ele>
        <time>2012-06-17T08:55:10Z</time>
      </trkpt>
      <trkpt lat="44.35864" lon="3.78939">
        <ele>1175.35</ele>
        <time>2012-06-17T08:55:11Z</time>
      </trkpt>
      <trkpt lat="44.35866" lon="3.78942">
        <ele>1175.83</ele>
        <time>2012-06-17T08:55:12Z</time>
      </trkpt>
      <trkpt lat="44.35884" lon="3.78983">
        <ele>1174.87</ele>
        <time>2012-06-17T08:55:21Z</time>
      </trkpt>
      <trkpt lat="44.35915" lon="3.79043">
        <ele>1172.95</ele>
        <time>2012-06-17T08:55:34Z</time>
      </trkpt>
      <trkpt lat="44.35952" lon="3.79066">
        <ele>1175.35</ele>
        <time>2012-06-17T08:55:46Z</time>
      </trkpt>
      <trkpt lat="44.35973" lon="3.79082">
        <ele>1176.79</ele>
        <time>2012-06-17T08:55:54Z</time>
      </trkpt>
      <trkpt lat="44.35975" lon="3.79085">
        <ele>1176.79</ele>
        <time>2012-06-17T08:55:55Z</time>
      </trkpt>
      <trkpt lat="44.35976" lon="3.79089">
        <ele>1177.27</ele>
        <time>2012-06-17T08:55:56Z</time>
      </trkpt>
      <trkpt lat="44.35975" lon="3.79136">
        <ele>1178.23</ele>
        <time>2012-06-17T08:56:08Z</time>
      </trkpt>
      <trkpt lat="44.35974" lon="3.79172">
        <ele>1178.23</ele>
        <time>2012-06-17T08:56:20Z</time>
      </trkpt>
      <trkpt lat="44.35962" lon="3.79222">
        <ele>1176.79</ele>
        <time>2012-06-17T08:56:31Z</time>
      </trkpt>
      <trkpt lat="44.35951" lon="3.79259">
        <ele>1176.31</ele>
        <time>2012-06-17T08:56:42Z</time>
      </trkpt>
      <trkpt lat="44.35949" lon="3.79268">
        <ele>1176.31</ele>
        <time>2012-06-17T08:56:45Z</time>
      </trkpt>
      <trkpt lat="44.35929" lon="3.79301">
        <ele>1173.43</ele>
        <time>2012-06-17T08:56:57Z</time>
      </trkpt>
      <trkpt lat="44.3591" lon="3.79332">
        <ele>1172.47</ele>
        <time>2012-06-17T08:57:06Z</time>
      </trkpt>
      <trkpt lat="44.35882" lon="3.79367">
        <ele>1171.5</ele>
        <time>2012-06-17T08:57:17Z</time>
      </trkpt>
      <trkpt lat="44.35866" lon="3.79394">
        <ele>1170.54</ele>
        <time>2012-06-17T08:57:24Z</time>
      </trkpt>
      <trkpt lat="44.35838" lon="3.79433">
        <ele>1169.1</ele>
        <time>2012-06-17T08:57:36Z</time>
      </trkpt>
      <trkpt lat="44.35805" lon="3.79461">
        <ele>1168.62</ele>
        <time>2012-06-17T08:57:47Z</time>
      </trkpt>
      <trkpt lat="44.358" lon="3.79467">
        <ele>1168.14</ele>
        <time>2012-06-17T08:57:50Z</time>
      </trkpt>
      <trkpt lat="44.35798" lon="3.7947">
        <ele>1168.14</ele>
        <time>2012-06-17T08:57:51Z</time>
      </trkpt>
      <trkpt lat="44.35796" lon="3.79471">
        <ele>1168.14</ele>
        <time>2012-06-17T08:57:52Z</time>
      </trkpt>
      <trkpt lat="44.35794" lon="3.79473">
        <ele>1167.66</ele>
        <time>2012-06-17T08:57:53Z</time>
      </trkpt>
      <trkpt lat="44.35791" lon="3.79476">
        <ele>1167.66</ele>
        <time>2012-06-17T08:57:54Z</time>
      </trkpt>
      <trkpt lat="44.35789" lon="3.79478">
        <ele>1167.18</ele>
        <time>2012-06-17T08:57:55Z</time>
      </trkpt>
      <trkpt lat="44.35766" lon="3.79498">
        <ele>1166.22</ele>
        <time>2012-06-17T08:58:06Z</time>
      </trkpt>
      <trkpt lat="44.35763" lon="3.79501">
        <ele>1165.74</ele>
        <time>2012-06-17T08:58:08Z</time>
      </trkpt>
      <trkpt lat="44.35762" lon="3.79502">
        <ele>1166.22</ele>
        <time>2012-06-17T08:58:09Z</time>
      </trkpt>
      <trkpt lat="44.3576" lon="3.79502">
        <ele>1165.74</ele>
        <time>2012-06-17T08:58:22Z</time>
      </trkpt>
      <trkpt lat="44.3575" lon="3.79513">
        <ele>1165.74</ele>
        <time>2012-06-17T08:58:40Z</time>
      </trkpt>
      <trkpt lat="44.35707" lon="3.79539">
        <ele>1166.22</ele>
        <time>2012-06-17T08:58:53Z</time>
      </trkpt>
      <trkpt lat="44.35685" lon="3.79548">
        <ele>1164.29</ele>
        <time>2012-06-17T08:58:59Z</time>
      </trkpt>
      <trkpt lat="44.35651" lon="3.79563">
        <ele>1163.81</ele>
        <time>2012-06-17T08:59:12Z</time>
      </trkpt>
      <trkpt lat="44.3561" lon="3.79585">
        <ele>1162.37</ele>
        <time>2012-06-17T08:59:27Z</time>
      </trkpt>
      <trkpt lat="44.35577" lon="3.79606">
        <ele>1161.41</ele>
        <time>2012-06-17T08:59:39Z</time>
      </trkpt>
      <trkpt lat="44.3555" lon="3.79634">
        <ele>1160.45</ele>
        <time>2012-06-17T08:59:49Z</time>
      </trkpt>
      <trkpt lat="44.3553" lon="3.79667">
        <ele>1159.01</ele>
        <time>2012-06-17T09:00:00Z</time>
      </trkpt>
      <trkpt lat="44.35506" lon="3.79696">
        <ele>1159.01</ele>
        <time>2012-06-17T09:00:12Z</time>
      </trkpt>
      <trkpt lat="44.35473" lon="3.79743">
        <ele>1158.05</ele>
        <time>2012-06-17T09:00:27Z</time>
      </trkpt>
      <trkpt lat="44.35448" lon="3.79774">
        <ele>1158.05</ele>
        <time>2012-06-17T09:00:40Z</time>
      </trkpt>
      <trkpt lat="44.35429" lon="3.79794">
        <ele>1157.56</ele>
        <time>2012-06-17T09:00:50Z</time>
      </trkpt>
      <trkpt lat="44.35406" lon="3.79822">
        <ele>1157.08</ele>
        <time>2012-06-17T09:01:03Z</time>
      </trkpt>
      <trkpt lat="44.35389" lon="3.79839">
        <ele>1156.6</ele>
        <time>2012-06-17T09:01:14Z</time>
      </trkpt>
      <trkpt lat="44.35378" lon="3.7985">
        <ele>1157.08</ele>
        <time>2012-06-17T09:01:18Z</time>
      </trkpt>
      <trkpt lat="44.35375" lon="3.79851">
        <ele>1157.08</ele>
        <time>2012-06-17T09:01:19Z</time>
      </trkpt>
      <trkpt lat="44.35372" lon="3.79853">
        <ele>1157.08</ele>
        <time>2012-06-17T09:01:20Z</time>
      </trkpt>
      <trkpt lat="44.35355" lon="3.79871">
        <ele>1156.12</ele>
        <time>2012-06-17T09:01:30Z</time>
      </trkpt>
      <trkpt lat="44.35353" lon="3.79872">
        <ele>1156.6</ele>
        <time>2012-06-17T09:01:31Z</time>
      </trkpt>
      <trkpt lat="44.35351" lon="3.79873">
        <ele>1156.6</ele>
        <time>2012-06-17T09:01:32Z</time>
      </trkpt>
      <trkpt lat="44.35349" lon="3.79875">
        <ele>1156.6</ele>
        <time>2012-06-17T09:01:33Z</time>
      </trkpt>
      <trkpt lat="44.35346" lon="3.79877">
        <ele>1156.6</ele>
        <time>2012-06-17T09:01:34Z</time>
      </trkpt>
      <trkpt lat="44.35344" lon="3.79879">
        <ele>1156.12</ele>
        <time>2012-06-17T09:01:35Z</time>
      </trkpt>
      <trkpt lat="44.35341" lon="3.7988">
        <ele>1156.6</ele>
        <time>2012-06-17T09:01:36Z</time>
      </trkpt>
      <trkpt lat="44.35339" lon="3.79881">
        <ele>1156.6</ele>
        <time>2012-06-17T09:01:37Z</time>
      </trkpt>
      <trkpt lat="44.35337" lon="3.79882">
        <ele>1155.64</ele>
        <time>2012-06-17T09:01:38Z</time>
      </trkpt>
      <trkpt lat="44.35335" lon="3.79885">
        <ele>1155.64</ele>
        <time>2012-06-17T09:01:39Z</time>
      </trkpt>
      <trkpt lat="44.35334" lon="3.79888">
        <ele>1155.64</ele>
        <time>2012-06-17T09:01:40Z</time>
      </trkpt>
      <trkpt lat="44.35332" lon="3.79891">
        <ele>1155.16</ele>
        <time>2012-06-17T09:01:41Z</time>
      </trkpt>
      <trkpt lat="44.35331" lon="3.79894">
        <ele>1155.16</ele>
        <time>2012-06-17T09:01:42Z</time>
      </trkpt>
      <trkpt lat="44.35327" lon="3.79899">
        <ele>1155.16</ele>
        <time>2012-06-17T09:01:44Z</time>
      </trkpt>
      <trkpt lat="44.35325" lon="3.799">
        <ele>1155.16</ele>
        <time>2012-06-17T09:01:45Z</time>
      </trkpt>
      <trkpt lat="44.3532" lon="3.79908">
        <ele>1154.68</ele>
        <time>2012-06-17T09:01:48Z</time>
      </trkpt>
      <trkpt lat="44.35319" lon="3.7991">
        <ele>1154.68</ele>
        <time>2012-06-17T09:01:49Z</time>
      </trkpt>
      <trkpt lat="44.35317" lon="3.79912">
        <ele>1154.2</ele>
        <time>2012-06-17T09:01:50Z</time>
      </trkpt>
      <trkpt lat="44.35305" lon="3.79925">
        <ele>1152.76</ele>
        <time>2012-06-17T09:01:55Z</time>
      </trkpt>
      <trkpt lat="44.35296" lon="3.79929">
        <ele>1151.32</ele>
        <time>2012-06-17T09:02:00Z</time>
      </trkpt>
      <trkpt lat="44.35291" lon="3.79924">
        <ele>1149.87</ele>
        <time>2012-06-17T09:02:04Z</time>
      </trkpt>
      <trkpt lat="44.3529" lon="3.79923">
        <ele>1149.87</ele>
        <time>2012-06-17T09:02:05Z</time>
      </trkpt>
      <trkpt lat="44.35274" lon="3.79917">
        <ele>1146.99</ele>
        <time>2012-06-17T09:02:14Z</time>
      </trkpt>
      <trkpt lat="44.3527" lon="3.79903">
        <ele>1145.55</ele>
        <time>2012-06-17T09:02:18Z</time>
      </trkpt>
      <trkpt lat="44.35268" lon="3.79901">
        <ele>1145.07</ele>
        <time>2012-06-17T09:02:29Z</time>
      </trkpt>
      <trkpt lat="44.35259" lon="3.79881">
        <ele>1145.07</ele>
        <time>2012-06-17T09:02:37Z</time>
      </trkpt>
      <trkpt lat="44.3525" lon="3.79875">
        <ele>1145.55</ele>
        <time>2012-06-17T09:02:43Z</time>
      </trkpt>
      <trkpt lat="44.3523" lon="3.79873">
        <ele>1144.11</ele>
        <time>2012-06-17T09:02:53Z</time>
      </trkpt>
      <trkpt lat="44.35205" lon="3.79886">
        <ele>1140.26</ele>
        <time>2012-06-17T09:02:59Z</time>
      </trkpt>
      <trkpt lat="44.35198" lon="3.79886">
        <ele>1139.78</ele>
        <time>2012-06-17T09:03:01Z</time>
      </trkpt>
      <trkpt lat="44.35188" lon="3.79887">
        <ele>1139.3</ele>
        <time>2012-06-17T09:03:04Z</time>
      </trkpt>
      <trkpt lat="44.35184" lon="3.79888">
        <ele>1138.34</ele>
        <time>2012-06-17T09:03:05Z</time>
      </trkpt>
      <trkpt lat="44.3518" lon="3.79888">
        <ele>1137.86</ele>
        <time>2012-06-17T09:03:06Z</time>
      </trkpt>
      <trkpt lat="44.35178" lon="3.79889">
        <ele>1137.38</ele>
        <time>2012-06-17T09:03:07Z</time>
      </trkpt>
      <trkpt lat="44.35176" lon="3.7989">
        <ele>1136.9</ele>
        <time>2012-06-17T09:03:08Z</time>
      </trkpt>
      <trkpt lat="44.35172" lon="3.79891">
        <ele>1136.9</ele>
        <time>2012-06-17T09:03:09Z</time>
      </trkpt>
      <trkpt lat="44.35168" lon="3.79891">
        <ele>1136.42</ele>
        <time>2012-06-17T09:03:10Z</time>
      </trkpt>
      <trkpt lat="44.35164" lon="3.79891">
        <ele>1134.97</ele>
        <time>2012-06-17T09:03:11Z</time>
      </trkpt>
      <trkpt lat="44.35159" lon="3.79893">
        <ele>1134.97</ele>
        <time>2012-06-17T09:03:12Z</time>
      </trkpt>
      <trkpt lat="44.35156" lon="3.79895">
        <ele>1134.49</ele>
        <time>2012-06-17T09:03:13Z</time>
      </trkpt>
      <trkpt lat="44.35153" lon="3.79896">
        <ele>1133.53</ele>
        <time>2012-06-17T09:03:14Z</time>
      </trkpt>
      <trkpt lat="44.3515" lon="3.79897">
        <ele>1133.53</ele>
        <time>2012-06-17T09:03:15Z</time>
      </trkpt>
      <trkpt lat="44.35147" lon="3.79899">
        <ele>1133.05</ele>
        <time>2012-06-17T09:03:16Z</time>
      </trkpt>
      <trkpt lat="44.35145" lon="3.799">
        <ele>1132.57</ele>
        <time>2012-06-17T09:03:17Z</time>
      </trkpt>
      <trkpt lat="44.35142" lon="3.79899">
        <ele>1132.09</ele>
        <time>2012-06-17T09:03:18Z</time>
      </trkpt>
      <trkpt lat="44.35139" lon="3.79898">
        <ele>1131.13</ele>
        <time>2012-06-17T09:03:19Z</time>
      </trkpt>
      <trkpt lat="44.35137" lon="3.79898">
        <ele>1131.13</ele>
        <time>2012-06-17T09:03:20Z</time>
      </trkpt>
      <trkpt lat="44.35134" lon="3.79898">
        <ele>1130.65</ele>
        <time>2012-06-17T09:03:21Z</time>
      </trkpt>
      <trkpt lat="44.35132" lon="3.79898">
        <ele>1130.17</ele>
        <time>2012-06-17T09:03:22Z</time>
      </trkpt>
      <trkpt lat="44.35129" lon="3.799">
        <ele>1129.69</ele>
        <time>2012-06-17T09:03:23Z</time>
      </trkpt>
      <trkpt lat="44.35126" lon="3.79902">
        <ele>1129.69</ele>
        <time>2012-06-17T09:03:24Z</time>
      </trkpt>
      <trkpt lat="44.35124" lon="3.79904">
        <ele>1128.73</ele>
        <time>2012-06-17T09:03:25Z</time>
      </trkpt>
      <trkpt lat="44.35121" lon="3.79906">
        <ele>1128.24</ele>
        <time>2012-06-17T09:03:26Z</time>
      </trkpt>
      <trkpt lat="44.35119" lon="3.79909">
        <ele>1127.28</ele>
        <time>2012-06-17T09:03:27Z</time>
      </trkpt>
      <trkpt lat="44.35117" lon="3.79911">
        <ele>1127.28</ele>
        <time>2012-06-17T09:03:28Z</time>
      </trkpt>
      <trkpt lat="44.35114" lon="3.79912">
        <ele>1126.32</ele>
        <time>2012-06-17T09:03:29Z</time>
      </trkpt>
      <trkpt lat="44.35112" lon="3.79913">
        <ele>1125.84</ele>
        <time>2012-06-17T09:03:30Z</time>
      </trkpt>
      <trkpt lat="44.3511" lon="3.79914">
        <ele>1125.36</ele>
        <time>2012-06-17T09:03:31Z</time>
      </trkpt>
      <trkpt lat="44.35108" lon="3.79915">
        <ele>1124.88</ele>
        <time>2012-06-17T09:03:32Z</time>
      </trkpt>
      <trkpt lat="44.35106" lon="3.79916">
        <ele>1124.4</ele>
        <time>2012-06-17T09:03:33Z</time>
      </trkpt>
      <trkpt lat="44.35104" lon="3.79917">
        <ele>1123.92</ele>
        <time>2012-06-17T09:03:34Z</time>
      </trkpt>
      <trkpt lat="44.35101" lon="3.79919">
        <ele>1123.92</ele>
        <time>2012-06-17T09:03:35Z</time>
      </trkpt>
      <trkpt lat="44.35097" lon="3.7992">
        <ele>1123.44</ele>
        <time>2012-06-17T09:03:36Z</time>
      </trkpt>
      <trkpt lat="44.35094" lon="3.79921">
        <ele>1122.48</ele>
        <time>2012-06-17T09:03:37Z</time>
      </trkpt>
      <trkpt lat="44.3509" lon="3.79923">
        <ele>1122</ele>
        <time>2012-06-17T09:03:38Z</time>
      </trkpt>
      <trkpt lat="44.35087" lon="3.79925">
        <ele>1121.52</ele>
        <time>2012-06-17T09:03:39Z</time>
      </trkpt>
      <trkpt lat="44.35085" lon="3.79927">
        <ele>1121.03</ele>
        <time>2012-06-17T09:03:40Z</time>
      </trkpt>
      <trkpt lat="44.35083" lon="3.79929">
        <ele>1121.03</ele>
        <time>2012-06-17T09:03:41Z</time>
      </trkpt>
      <trkpt lat="44.35081" lon="3.79932">
        <ele>1120.55</ele>
        <time>2012-06-17T09:03:45Z</time>
      </trkpt>
      <trkpt lat="44.35081" lon="3.79936">
        <ele>1121.03</ele>
        <time>2012-06-17T09:03:55Z</time>
      </trkpt>
      <trkpt lat="44.35079" lon="3.79936">
        <ele>1120.55</ele>
        <time>2012-06-17T09:04:02Z</time>
      </trkpt>
      <trkpt lat="44.35078" lon="3.79937">
        <ele>1120.55</ele>
        <time>2012-06-17T09:04:03Z</time>
      </trkpt>
      <trkpt lat="44.35077" lon="3.79937">
        <ele>1120.55</ele>
        <time>2012-06-17T09:04:16Z</time>
      </trkpt>
      <trkpt lat="44.35076" lon="3.79936">
        <ele>1120.07</ele>
        <time>2012-06-17T09:04:48Z</time>
      </trkpt>
      <trkpt lat="44.35076" lon="3.79936">
        <ele>1119.59</ele>
        <time>2012-06-17T09:05:21Z</time>
      </trkpt>
      <trkpt lat="44.35075" lon="3.79935">
        <ele>1120.07</ele>
        <time>2012-06-17T09:05:23Z</time>
      </trkpt>
      <trkpt lat="44.3507" lon="3.79935">
        <ele>1119.59</ele>
        <time>2012-06-17T09:05:32Z</time>
      </trkpt>
      <trkpt lat="44.35066" lon="3.79934">
        <ele>1119.11</ele>
        <time>2012-06-17T09:05:33Z</time>
      </trkpt>
      <trkpt lat="44.35063" lon="3.79933">
        <ele>1119.11</ele>
        <time>2012-06-17T09:05:34Z</time>
      </trkpt>
      <trkpt lat="44.35055" lon="3.7993">
        <ele>1117.67</ele>
        <time>2012-06-17T09:05:37Z</time>
      </trkpt>
      <trkpt lat="44.35038" lon="3.79897">
        <ele>1115.27</ele>
        <time>2012-06-17T09:05:46Z</time>
      </trkpt>
      <trkpt lat="44.35036" lon="3.79898">
        <ele>1113.82</ele>
        <time>2012-06-17T09:05:55Z</time>
      </trkpt>
      <trkpt lat="44.35036" lon="3.79899">
        <ele>1113.82</ele>
        <time>2012-06-17T09:06:24Z</time>
      </trkpt>
      <trkpt lat="44.35036" lon="3.79899">
        <ele>1114.31</ele>
        <time>2012-06-17T09:06:48Z</time>
      </trkpt>
      <trkpt lat="44.35036" lon="3.799">
        <ele>1114.31</ele>
        <time>2012-06-17T09:07:15Z</time>
      </trkpt>
      <trkpt lat="44.35036" lon="3.799">
        <ele>1113.82</ele>
        <time>2012-06-17T09:07:37Z</time>
      </trkpt>
      <trkpt lat="44.35036" lon="3.799">
        <ele>1111.42</ele>
        <time>2012-06-17T09:07:48Z</time>
      </trkpt>
      <trkpt lat="44.35036" lon="3.799">
        <ele>1116.23</ele>
        <time>2012-06-17T09:07:49Z</time>
      </trkpt>
      <trkpt lat="44.35036" lon="3.799">
        <ele>1113.82</ele>
        <time>2012-06-17T09:07:50Z</time>
      </trkpt>
      <trkpt lat="44.35036" lon="3.799">
        <ele>1113.34</ele>
        <time>2012-06-17T09:08:10Z</time>
      </trkpt>
      <trkpt lat="44.35035" lon="3.79902">
        <ele>1113.82</ele>
        <time>2012-06-17T09:08:29Z</time>
      </trkpt>
      <trkpt lat="44.35026" lon="3.79946">
        <ele>1112.86</ele>
        <time>2012-06-17T09:08:39Z</time>
      </trkpt>
      <trkpt lat="44.35024" lon="3.7995">
        <ele>1112.86</ele>
        <time>2012-06-17T09:08:40Z</time>
      </trkpt>
      <trkpt lat="44.35021" lon="3.79954">
        <ele>1111.9</ele>
        <time>2012-06-17T09:08:41Z</time>
      </trkpt>
      <trkpt lat="44.35018" lon="3.79958">
        <ele>1111.42</ele>
        <time>2012-06-17T09:08:42Z</time>
      </trkpt>
      <trkpt lat="44.35014" lon="3.79963">
        <ele>1111.42</ele>
        <time>2012-06-17T09:08:43Z</time>
      </trkpt>
      <trkpt lat="44.3501" lon="3.79968">
        <ele>1110.94</ele>
        <time>2012-06-17T09:08:44Z</time>
      </trkpt>
      <trkpt lat="44.35008" lon="3.79974">
        <ele>1110.94</ele>
        <time>2012-06-17T09:08:45Z</time>
      </trkpt>
      <trkpt lat="44.35008" lon="3.79981">
        <ele>1110.94</ele>
        <time>2012-06-17T09:08:46Z</time>
      </trkpt>
      <trkpt lat="44.35009" lon="3.79987">
        <ele>1109.98</ele>
        <time>2012-06-17T09:08:47Z</time>
      </trkpt>
      <trkpt lat="44.35011" lon="3.79992">
        <ele>1109.98</ele>
        <time>2012-06-17T09:08:48Z</time>
      </trkpt>
      <trkpt lat="44.35011" lon="3.79996">
        <ele>1109.5</ele>
        <time>2012-06-17T09:08:49Z</time>
      </trkpt>
      <trkpt lat="44.3501" lon="3.8">
        <ele>1109.98</ele>
        <time>2012-06-17T09:08:50Z</time>
      </trkpt>
      <trkpt lat="44.35005" lon="3.80025">
        <ele>1109.02</ele>
        <time>2012-06-17T09:08:56Z</time>
      </trkpt>
      <trkpt lat="44.35003" lon="3.80027">
        <ele>1109.02</ele>
        <time>2012-06-17T09:08:57Z</time>
      </trkpt>
      <trkpt lat="44.34985" lon="3.80039">
        <ele>1107.1</ele>
        <time>2012-06-17T09:09:06Z</time>
      </trkpt>
      <trkpt lat="44.34974" lon="3.80049">
        <ele>1105.17</ele>
        <time>2012-06-17T09:09:10Z</time>
      </trkpt>
      <trkpt lat="44.3497" lon="3.8005">
        <ele>1104.69</ele>
        <time>2012-06-17T09:09:11Z</time>
      </trkpt>
      <trkpt lat="44.34966" lon="3.80051">
        <ele>1104.21</ele>
        <time>2012-06-17T09:09:12Z</time>
      </trkpt>
      <trkpt lat="44.34943" lon="3.80057">
        <ele>1101.33</ele>
        <time>2012-06-17T09:09:18Z</time>
      </trkpt>
      <trkpt lat="44.34914" lon="3.80075">
        <ele>1097.48</ele>
        <time>2012-06-17T09:09:26Z</time>
      </trkpt>
      <trkpt lat="44.34892" lon="3.80088">
        <ele>1096.52</ele>
        <time>2012-06-17T09:09:36Z</time>
      </trkpt>
      <trkpt lat="44.3489" lon="3.8009">
        <ele>1096.52</ele>
        <time>2012-06-17T09:09:37Z</time>
      </trkpt>
      <trkpt lat="44.34888" lon="3.80091">
        <ele>1096.52</ele>
        <time>2012-06-17T09:09:38Z</time>
      </trkpt>
      <trkpt lat="44.34886" lon="3.80092">
        <ele>1097</ele>
        <time>2012-06-17T09:09:39Z</time>
      </trkpt>
      <trkpt lat="44.34883" lon="3.80093">
        <ele>1097</ele>
        <time>2012-06-17T09:09:40Z</time>
      </trkpt>
      <trkpt lat="44.34851" lon="3.80108">
        <ele>1096.04</ele>
        <time>2012-06-17T09:09:52Z</time>
      </trkpt>
      <trkpt lat="44.34809" lon="3.80126">
        <ele>1095.08</ele>
        <time>2012-06-17T09:10:06Z</time>
      </trkpt>
      <trkpt lat="44.34805" lon="3.80128">
        <ele>1095.08</ele>
        <time>2012-06-17T09:10:07Z</time>
      </trkpt>
      <trkpt lat="44.34757" lon="3.80169">
        <ele>1095.08</ele>
        <time>2012-06-17T09:10:21Z</time>
      </trkpt>
      <trkpt lat="44.34751" lon="3.80179">
        <ele>1094.6</ele>
        <time>2012-06-17T09:10:23Z</time>
      </trkpt>
      <trkpt lat="44.34725" lon="3.80219">
        <ele>1093.64</ele>
        <time>2012-06-17T09:10:34Z</time>
      </trkpt>
      <trkpt lat="44.34704" lon="3.80253">
        <ele>1090.75</ele>
        <time>2012-06-17T09:10:45Z</time>
      </trkpt>
      <trkpt lat="44.34696" lon="3.80269">
        <ele>1089.31</ele>
        <time>2012-06-17T09:10:52Z</time>
      </trkpt>
      <trkpt lat="44.34696" lon="3.80272">
        <ele>1089.31</ele>
        <time>2012-06-17T09:10:53Z</time>
      </trkpt>
      <trkpt lat="44.34697" lon="3.80275">
        <ele>1089.31</ele>
        <time>2012-06-17T09:10:54Z</time>
      </trkpt>
      <trkpt lat="44.34698" lon="3.80279">
        <ele>1089.31</ele>
        <time>2012-06-17T09:10:55Z</time>
      </trkpt>
      <trkpt lat="44.34699" lon="3.80283">
        <ele>1089.31</ele>
        <time>2012-06-17T09:10:56Z</time>
      </trkpt>
      <trkpt lat="44.34699" lon="3.80295">
        <ele>1088.35</ele>
        <time>2012-06-17T09:10:58Z</time>
      </trkpt>
      <trkpt lat="44.34696" lon="3.80299">
        <ele>1087.87</ele>
        <time>2012-06-17T09:10:59Z</time>
      </trkpt>
      <trkpt lat="44.34691" lon="3.80301">
        <ele>1086.91</ele>
        <time>2012-06-17T09:11:00Z</time>
      </trkpt>
      <trkpt lat="44.34687" lon="3.80301">
        <ele>1086.43</ele>
        <time>2012-06-17T09:11:01Z</time>
      </trkpt>
      <trkpt lat="44.34684" lon="3.80302">
        <ele>1085.95</ele>
        <time>2012-06-17T09:11:02Z</time>
      </trkpt>
      <trkpt lat="44.3468" lon="3.80302">
        <ele>1085.95</ele>
        <time>2012-06-17T09:11:03Z</time>
      </trkpt>
      <trkpt lat="44.34664" lon="3.80299">
        <ele>1084.5</ele>
        <time>2012-06-17T09:11:12Z</time>
      </trkpt>
      <trkpt lat="44.34661" lon="3.80298">
        <ele>1084.5</ele>
        <time>2012-06-17T09:11:44Z</time>
      </trkpt>
      <trkpt lat="44.34661" lon="3.80296">
        <ele>1084.02</ele>
        <time>2012-06-17T09:11:45Z</time>
      </trkpt>
      <trkpt lat="44.34661" lon="3.80293">
        <ele>1084.5</ele>
        <time>2012-06-17T09:11:46Z</time>
      </trkpt>
      <trkpt lat="44.3466" lon="3.80252">
        <ele>1084.99</ele>
        <time>2012-06-17T09:11:55Z</time>
      </trkpt>
      <trkpt lat="44.34638" lon="3.80217">
        <ele>1084.02</ele>
        <time>2012-06-17T09:12:08Z</time>
      </trkpt>
      <trkpt lat="44.34617" lon="3.80192">
        <ele>1083.54</ele>
        <time>2012-06-17T09:12:19Z</time>
      </trkpt>
      <trkpt lat="44.3461" lon="3.80143">
        <ele>1083.54</ele>
        <time>2012-06-17T09:12:30Z</time>
      </trkpt>
      <trkpt lat="44.34581" lon="3.80093">
        <ele>1082.1</ele>
        <time>2012-06-17T09:12:44Z</time>
      </trkpt>
      <trkpt lat="44.34557" lon="3.80078">
        <ele>1082.1</ele>
        <time>2012-06-17T09:12:51Z</time>
      </trkpt>
      <trkpt lat="44.34553" lon="3.80075">
        <ele>1081.62</ele>
        <time>2012-06-17T09:12:52Z</time>
      </trkpt>
      <trkpt lat="44.34495" lon="3.80014">
        <ele>1079.22</ele>
        <time>2012-06-17T09:13:06Z</time>
      </trkpt>
      <trkpt lat="44.34484" lon="3.79998">
        <ele>1078.26</ele>
        <time>2012-06-17T09:13:09Z</time>
      </trkpt>
      <trkpt lat="44.34481" lon="3.79992">
        <ele>1078.26</ele>
        <time>2012-06-17T09:13:10Z</time>
      </trkpt>
      <trkpt lat="44.34479" lon="3.79985">
        <ele>1078.26</ele>
        <time>2012-06-17T09:13:11Z</time>
      </trkpt>
      <trkpt lat="44.34477" lon="3.79978">
        <ele>1077.78</ele>
        <time>2012-06-17T09:13:12Z</time>
      </trkpt>
      <trkpt lat="44.34475" lon="3.79971">
        <ele>1077.29</ele>
        <time>2012-06-17T09:13:13Z</time>
      </trkpt>
      <trkpt lat="44.34473" lon="3.79956">
        <ele>1076.33</ele>
        <time>2012-06-17T09:13:15Z</time>
      </trkpt>
      <trkpt lat="44.34473" lon="3.79951">
        <ele>1076.33</ele>
        <time>2012-06-17T09:13:16Z</time>
      </trkpt>
      <trkpt lat="44.34473" lon="3.79947">
        <ele>1075.85</ele>
        <time>2012-06-17T09:13:17Z</time>
      </trkpt>
      <trkpt lat="44.34473" lon="3.79945">
        <ele>1075.85</ele>
        <time>2012-06-17T09:13:18Z</time>
      </trkpt>
      <trkpt lat="44.34474" lon="3.79941">
        <ele>1075.37</ele>
        <time>2012-06-17T09:13:30Z</time>
      </trkpt>
      <trkpt lat="44.34474" lon="3.7994">
        <ele>1075.37</ele>
        <time>2012-06-17T09:13:32Z</time>
      </trkpt>
      <trkpt lat="44.34474" lon="3.79938">
        <ele>1075.37</ele>
        <time>2012-06-17T09:13:33Z</time>
      </trkpt>
      <trkpt lat="44.34473" lon="3.79937">
        <ele>1075.37</ele>
        <time>2012-06-17T09:13:34Z</time>
      </trkpt>
      <trkpt lat="44.34472" lon="3.79935">
        <ele>1075.37</ele>
        <time>2012-06-17T09:13:35Z</time>
      </trkpt>
      <trkpt lat="44.34471" lon="3.79935">
        <ele>1074.89</ele>
        <time>2012-06-17T09:13:36Z</time>
      </trkpt>
      <trkpt lat="44.3447" lon="3.79937">
        <ele>1074.89</ele>
        <time>2012-06-17T09:13:49Z</time>
      </trkpt>
      <trkpt lat="44.3447" lon="3.79938">
        <ele>1074.89</ele>
        <time>2012-06-17T09:14:01Z</time>
      </trkpt>
      <trkpt lat="44.34471" lon="3.7994">
        <ele>1074.89</ele>
        <time>2012-06-17T09:14:02Z</time>
      </trkpt>
      <trkpt lat="44.34471" lon="3.79943">
        <ele>1074.89</ele>
        <time>2012-06-17T09:14:03Z</time>
      </trkpt>
      <trkpt lat="44.34476" lon="3.7998">
        <ele>1076.33</ele>
        <time>2012-06-17T09:14:14Z</time>
      </trkpt>
      <trkpt lat="44.34497" lon="3.80021">
        <ele>1078.26</ele>
        <time>2012-06-17T09:14:24Z</time>
      </trkpt>
      <trkpt lat="44.34539" lon="3.80067">
        <ele>1080.66</ele>
        <time>2012-06-17T09:14:37Z</time>
      </trkpt>
      <trkpt lat="44.34589" lon="3.801">
        <ele>1082.1</ele>
        <time>2012-06-17T09:14:49Z</time>
      </trkpt>
      <trkpt lat="44.34593" lon="3.80104">
        <ele>1082.1</ele>
        <time>2012-06-17T09:14:50Z</time>
      </trkpt>
      <trkpt lat="44.34596" lon="3.80108">
        <ele>1082.58</ele>
        <time>2012-06-17T09:14:51Z</time>
      </trkpt>
      <trkpt lat="44.34606" lon="3.80122">
        <ele>1082.58</ele>
        <time>2012-06-17T09:14:54Z</time>
      </trkpt>
      <trkpt lat="44.34608" lon="3.80127">
        <ele>1083.06</ele>
        <time>2012-06-17T09:14:55Z</time>
      </trkpt>
      <trkpt lat="44.3461" lon="3.80133">
        <ele>1083.06</ele>
        <time>2012-06-17T09:14:56Z</time>
      </trkpt>
      <trkpt lat="44.34612" lon="3.80139">
        <ele>1083.06</ele>
        <time>2012-06-17T09:14:57Z</time>
      </trkpt>
      <trkpt lat="44.34613" lon="3.80145">
        <ele>1083.06</ele>
        <time>2012-06-17T09:14:58Z</time>
      </trkpt>
      <trkpt lat="44.34613" lon="3.80152">
        <ele>1083.06</ele>
        <time>2012-06-17T09:14:59Z</time>
      </trkpt>
      <trkpt lat="44.34619" lon="3.80193">
        <ele>1084.02</ele>
        <time>2012-06-17T09:15:06Z</time>
      </trkpt>
      <trkpt lat="44.34621" lon="3.80197">
        <ele>1084.02</ele>
        <time>2012-06-17T09:15:07Z</time>
      </trkpt>
      <trkpt lat="44.34624" lon="3.80202">
        <ele>1084.5</ele>
        <time>2012-06-17T09:15:08Z</time>
      </trkpt>
      <trkpt lat="44.3463" lon="3.8021">
        <ele>1084.02</ele>
        <time>2012-06-17T09:15:10Z</time>
      </trkpt>
      <trkpt lat="44.34633" lon="3.80215">
        <ele>1084.99</ele>
        <time>2012-06-17T09:15:11Z</time>
      </trkpt>
      <trkpt lat="44.34658" lon="3.80249">
        <ele>1084.99</ele>
        <time>2012-06-17T09:15:18Z</time>
      </trkpt>
      <trkpt lat="44.34661" lon="3.80254">
        <ele>1084.02</ele>
        <time>2012-06-17T09:15:19Z</time>
      </trkpt>
      <trkpt lat="44.34662" lon="3.80259">
        <ele>1084.5</ele>
        <time>2012-06-17T09:15:20Z</time>
      </trkpt>
      <trkpt lat="44.34663" lon="3.80264">
        <ele>1084.5</ele>
        <time>2012-06-17T09:15:21Z</time>
      </trkpt>
      <trkpt lat="44.34663" lon="3.80269">
        <ele>1084.5</ele>
        <time>2012-06-17T09:15:22Z</time>
      </trkpt>
      <trkpt lat="44.34663" lon="3.80274">
        <ele>1084.5</ele>
        <time>2012-06-17T09:15:23Z</time>
      </trkpt>
      <trkpt lat="44.34662" lon="3.80279">
        <ele>1084.5</ele>
        <time>2012-06-17T09:15:24Z</time>
      </trkpt>
      <trkpt lat="44.34662" lon="3.80284">
        <ele>1084.5</ele>
        <time>2012-06-17T09:15:25Z</time>
      </trkpt>
      <trkpt lat="44.34662" lon="3.80289">
        <ele>1084.5</ele>
        <time>2012-06-17T09:15:26Z</time>
      </trkpt>
      <trkpt lat="44.34663" lon="3.80294">
        <ele>1084.5</ele>
        <time>2012-06-17T09:15:27Z</time>
      </trkpt>
      <trkpt lat="44.34664" lon="3.803">
        <ele>1084.02</ele>
        <time>2012-06-17T09:15:28Z</time>
      </trkpt>
      <trkpt lat="44.34667" lon="3.80306">
        <ele>1084.02</ele>
        <time>2012-06-17T09:15:29Z</time>
      </trkpt>
      <trkpt lat="44.3467" lon="3.80312">
        <ele>1084.02</ele>
        <time>2012-06-17T09:15:30Z</time>
      </trkpt>
      <trkpt lat="44.34675" lon="3.80316">
        <ele>1084.02</ele>
        <time>2012-06-17T09:15:31Z</time>
      </trkpt>
      <trkpt lat="44.3468" lon="3.80321">
        <ele>1083.54</ele>
        <time>2012-06-17T09:15:32Z</time>
      </trkpt>
      <trkpt lat="44.34685" lon="3.80325">
        <ele>1083.54</ele>
        <time>2012-06-17T09:15:33Z</time>
      </trkpt>
      <trkpt lat="44.34696" lon="3.80332">
        <ele>1083.06</ele>
        <time>2012-06-17T09:15:35Z</time>
      </trkpt>
      <trkpt lat="44.34701" lon="3.80335">
        <ele>1083.06</ele>
        <time>2012-06-17T09:15:36Z</time>
      </trkpt>
      <trkpt lat="44.34707" lon="3.80336">
        <ele>1083.06</ele>
        <time>2012-06-17T09:15:37Z</time>
      </trkpt>
      <trkpt lat="44.34733" lon="3.8034">
        <ele>1082.1</ele>
        <time>2012-06-17T09:15:41Z</time>
      </trkpt>
      <trkpt lat="44.3474" lon="3.80339">
        <ele>1081.62</ele>
        <time>2012-06-17T09:15:42Z</time>
      </trkpt>
      <trkpt lat="44.34808" lon="3.80314">
        <ele>1078.74</ele>
        <time>2012-06-17T09:15:51Z</time>
      </trkpt>
      <trkpt lat="44.34816" lon="3.80308">
        <ele>1079.22</ele>
        <time>2012-06-17T09:15:52Z</time>
      </trkpt>
      <trkpt lat="44.34865" lon="3.8027">
        <ele>1076.81</ele>
        <time>2012-06-17T09:15:58Z</time>
      </trkpt>
      <trkpt lat="44.34873" lon="3.80268">
        <ele>1075.85</ele>
        <time>2012-06-17T09:15:59Z</time>
      </trkpt>
      <trkpt lat="44.3488" lon="3.8027">
        <ele>1075.37</ele>
        <time>2012-06-17T09:16:00Z</time>
      </trkpt>
      <trkpt lat="44.34887" lon="3.80273">
        <ele>1075.37</ele>
        <time>2012-06-17T09:16:01Z</time>
      </trkpt>
      <trkpt lat="44.34893" lon="3.80278">
        <ele>1074.41</ele>
        <time>2012-06-17T09:16:02Z</time>
      </trkpt>
      <trkpt lat="44.34899" lon="3.80284">
        <ele>1074.89</ele>
        <time>2012-06-17T09:16:03Z</time>
      </trkpt>
      <trkpt lat="44.34904" lon="3.80291">
        <ele>1074.89</ele>
        <time>2012-06-17T09:16:04Z</time>
      </trkpt>
      <trkpt lat="44.34906" lon="3.803">
        <ele>1074.41</ele>
        <time>2012-06-17T09:16:05Z</time>
      </trkpt>
      <trkpt lat="44.34906" lon="3.8031">
        <ele>1075.37</ele>
        <time>2012-06-17T09:16:06Z</time>
      </trkpt>
      <trkpt lat="44.34905" lon="3.80321">
        <ele>1075.37</ele>
        <time>2012-06-17T09:16:07Z</time>
      </trkpt>
      <trkpt lat="44.34902" lon="3.80331">
        <ele>1076.33</ele>
        <time>2012-06-17T09:16:08Z</time>
      </trkpt>
      <trkpt lat="44.34898" lon="3.80339">
        <ele>1076.33</ele>
        <time>2012-06-17T09:16:09Z</time>
      </trkpt>
      <trkpt lat="44.34894" lon="3.80348">
        <ele>1076.33</ele>
        <time>2012-06-17T09:16:10Z</time>
      </trkpt>
      <trkpt lat="44.34841" lon="3.80477">
        <ele>1079.22</ele>
        <time>2012-06-17T09:16:23Z</time>
      </trkpt>
      <trkpt lat="44.34835" lon="3.80497">
        <ele>1079.22</ele>
        <time>2012-06-17T09:16:25Z</time>
      </trkpt>
      <trkpt lat="44.34833" lon="3.80506">
        <ele>1079.7</ele>
        <time>2012-06-17T09:16:26Z</time>
      </trkpt>
      <trkpt lat="44.3483" lon="3.80555">
        <ele>1078.74</ele>
        <time>2012-06-17T09:16:34Z</time>
      </trkpt>
      <trkpt lat="44.34824" lon="3.80618">
        <ele>1079.7</ele>
        <time>2012-06-17T09:16:49Z</time>
      </trkpt>
      <trkpt lat="44.34816" lon="3.80669">
        <ele>1080.66</ele>
        <time>2012-06-17T09:17:02Z</time>
      </trkpt>
      <trkpt lat="44.34813" lon="3.80729">
        <ele>1080.66</ele>
        <time>2012-06-17T09:17:16Z</time>
      </trkpt>
      <trkpt lat="44.34839" lon="3.80767">
        <ele>1082.1</ele>
        <time>2012-06-17T09:17:28Z</time>
      </trkpt>
      <trkpt lat="44.34843" lon="3.80776">
        <ele>1082.58</ele>
        <time>2012-06-17T09:17:30Z</time>
      </trkpt>
      <trkpt lat="44.34845" lon="3.80781">
        <ele>1082.1</ele>
        <time>2012-06-17T09:17:31Z</time>
      </trkpt>
      <trkpt lat="44.34845" lon="3.80787">
        <ele>1082.58</ele>
        <time>2012-06-17T09:17:32Z</time>
      </trkpt>
      <trkpt lat="44.34825" lon="3.80823">
        <ele>1083.54</ele>
        <time>2012-06-17T09:17:42Z</time>
      </trkpt>
      <trkpt lat="44.34816" lon="3.80826">
        <ele>1084.02</ele>
        <time>2012-06-17T09:17:44Z</time>
      </trkpt>
      <trkpt lat="44.34812" lon="3.80827">
        <ele>1084.02</ele>
        <time>2012-06-17T09:17:45Z</time>
      </trkpt>
      <trkpt lat="44.3478" lon="3.80857">
        <ele>1086.43</ele>
        <time>2012-06-17T09:17:57Z</time>
      </trkpt>
      <trkpt lat="44.34767" lon="3.80882">
        <ele>1088.35</ele>
        <time>2012-06-17T09:18:06Z</time>
      </trkpt>
      <trkpt lat="44.34765" lon="3.80922">
        <ele>1089.31</ele>
        <time>2012-06-17T09:18:16Z</time>
      </trkpt>
      <trkpt lat="44.34753" lon="3.80971">
        <ele>1092.2</ele>
        <time>2012-06-17T09:18:28Z</time>
      </trkpt>
      <trkpt lat="44.34735" lon="3.81021">
        <ele>1095.08</ele>
        <time>2012-06-17T09:18:42Z</time>
      </trkpt>
      <trkpt lat="44.34718" lon="3.81057">
        <ele>1097.48</ele>
        <time>2012-06-17T09:18:55Z</time>
      </trkpt>
      <trkpt lat="44.34696" lon="3.81101">
        <ele>1099.89</ele>
        <time>2012-06-17T09:19:09Z</time>
      </trkpt>
      <trkpt lat="44.34676" lon="3.81135">
        <ele>1101.81</ele>
        <time>2012-06-17T09:19:20Z</time>
      </trkpt>
      <trkpt lat="44.34651" lon="3.81179">
        <ele>1103.73</ele>
        <time>2012-06-17T09:19:34Z</time>
      </trkpt>
      <trkpt lat="44.34639" lon="3.81223">
        <ele>1105.65</ele>
        <time>2012-06-17T09:19:46Z</time>
      </trkpt>
      <trkpt lat="44.3464" lon="3.81281">
        <ele>1108.06</ele>
        <time>2012-06-17T09:20:00Z</time>
      </trkpt>
      <trkpt lat="44.34637" lon="3.81299">
        <ele>1108.54</ele>
        <time>2012-06-17T09:20:05Z</time>
      </trkpt>
      <trkpt lat="44.34635" lon="3.81304">
        <ele>1109.5</ele>
        <time>2012-06-17T09:20:07Z</time>
      </trkpt>
      <trkpt lat="44.34632" lon="3.81315">
        <ele>1109.98</ele>
        <time>2012-06-17T09:20:11Z</time>
      </trkpt>
      <trkpt lat="44.34633" lon="3.81319">
        <ele>1109.98</ele>
        <time>2012-06-17T09:20:12Z</time>
      </trkpt>
      <trkpt lat="44.34632" lon="3.81373">
        <ele>1110.94</ele>
        <time>2012-06-17T09:20:25Z</time>
      </trkpt>
      <trkpt lat="44.34637" lon="3.81427">
        <ele>1110.94</ele>
        <time>2012-06-17T09:20:37Z</time>
      </trkpt>
      <trkpt lat="44.34666" lon="3.81475">
        <ele>1111.9</ele>
        <time>2012-06-17T09:20:50Z</time>
      </trkpt>
      <trkpt lat="44.34699" lon="3.81511">
        <ele>1112.38</ele>
        <time>2012-06-17T09:21:02Z</time>
      </trkpt>
      <trkpt lat="44.34738" lon="3.8155">
        <ele>1114.31</ele>
        <time>2012-06-17T09:21:15Z</time>
      </trkpt>
      <trkpt lat="44.34745" lon="3.81555">
        <ele>1114.31</ele>
        <time>2012-06-17T09:21:17Z</time>
      </trkpt>
      <trkpt lat="44.34749" lon="3.81557">
        <ele>1114.79</ele>
        <time>2012-06-17T09:21:18Z</time>
      </trkpt>
      <trkpt lat="44.34753" lon="3.81557">
        <ele>1114.79</ele>
        <time>2012-06-17T09:21:19Z</time>
      </trkpt>
      <trkpt lat="44.34795" lon="3.81548">
        <ele>1115.27</ele>
        <time>2012-06-17T09:21:30Z</time>
      </trkpt>
      <trkpt lat="44.34809" lon="3.81537">
        <ele>1115.75</ele>
        <time>2012-06-17T09:21:34Z</time>
      </trkpt>
      <trkpt lat="44.34813" lon="3.81535">
        <ele>1115.75</ele>
        <time>2012-06-17T09:21:35Z</time>
      </trkpt>
      <trkpt lat="44.34816" lon="3.81532">
        <ele>1115.75</ele>
        <time>2012-06-17T09:21:36Z</time>
      </trkpt>
      <trkpt lat="44.3482" lon="3.81531">
        <ele>1115.75</ele>
        <time>2012-06-17T09:21:37Z</time>
      </trkpt>
      <trkpt lat="44.34824" lon="3.8153">
        <ele>1116.23</ele>
        <time>2012-06-17T09:21:38Z</time>
      </trkpt>
      <trkpt lat="44.34827" lon="3.81528">
        <ele>1116.23</ele>
        <time>2012-06-17T09:21:39Z</time>
      </trkpt>
      <trkpt lat="44.34831" lon="3.81525">
        <ele>1115.27</ele>
        <time>2012-06-17T09:21:40Z</time>
      </trkpt>
      <trkpt lat="44.34845" lon="3.81514">
        <ele>1116.23</ele>
        <time>2012-06-17T09:21:45Z</time>
      </trkpt>
      <trkpt lat="44.34849" lon="3.81515">
        <ele>1116.23</ele>
        <time>2012-06-17T09:21:46Z</time>
      </trkpt>
      <trkpt lat="44.34853" lon="3.81517">
        <ele>1115.75</ele>
        <time>2012-06-17T09:21:47Z</time>
      </trkpt>
      <trkpt lat="44.34863" lon="3.81525">
        <ele>1116.71</ele>
        <time>2012-06-17T09:21:50Z</time>
      </trkpt>
      <trkpt lat="44.34865" lon="3.81529">
        <ele>1116.71</ele>
        <time>2012-06-17T09:21:51Z</time>
      </trkpt>
      <trkpt lat="44.34893" lon="3.81556">
        <ele>1116.71</ele>
        <time>2012-06-17T09:22:00Z</time>
      </trkpt>
      <trkpt lat="44.34919" lon="3.8156">
        <ele>1116.71</ele>
        <time>2012-06-17T09:22:06Z</time>
      </trkpt>
      <trkpt lat="44.34924" lon="3.81559">
        <ele>1117.19</ele>
        <time>2012-06-17T09:22:07Z</time>
      </trkpt>
      <trkpt lat="44.34928" lon="3.81557">
        <ele>1117.19</ele>
        <time>2012-06-17T09:22:08Z</time>
      </trkpt>
      <trkpt lat="44.34933" lon="3.81556">
        <ele>1117.19</ele>
        <time>2012-06-17T09:22:09Z</time>
      </trkpt>
      <trkpt lat="44.34937" lon="3.81556">
        <ele>1117.19</ele>
        <time>2012-06-17T09:22:10Z</time>
      </trkpt>
      <trkpt lat="44.34941" lon="3.81557">
        <ele>1117.19</ele>
        <time>2012-06-17T09:22:11Z</time>
      </trkpt>
      <trkpt lat="44.34945" lon="3.81558">
        <ele>1117.19</ele>
        <time>2012-06-17T09:22:12Z</time>
      </trkpt>
      <trkpt lat="44.34949" lon="3.81558">
        <ele>1117.67</ele>
        <time>2012-06-17T09:22:13Z</time>
      </trkpt>
      <trkpt lat="44.34953" lon="3.81559">
        <ele>1117.19</ele>
        <time>2012-06-17T09:22:14Z</time>
      </trkpt>
      <trkpt lat="44.34957" lon="3.81559">
        <ele>1117.67</ele>
        <time>2012-06-17T09:22:15Z</time>
      </trkpt>
      <trkpt lat="44.34998" lon="3.81566">
        <ele>1118.15</ele>
        <time>2012-06-17T09:22:25Z</time>
      </trkpt>
      <trkpt lat="44.35006" lon="3.8157">
        <ele>1118.15</ele>
        <time>2012-06-17T09:22:27Z</time>
      </trkpt>
      <trkpt lat="44.3501" lon="3.81574">
        <ele>1118.15</ele>
        <time>2012-06-17T09:22:28Z</time>
      </trkpt>
      <trkpt lat="44.35013" lon="3.81579">
        <ele>1118.15</ele>
        <time>2012-06-17T09:22:29Z</time>
      </trkpt>
      <trkpt lat="44.35015" lon="3.81584">
        <ele>1118.63</ele>
        <time>2012-06-17T09:22:30Z</time>
      </trkpt>
      <trkpt lat="44.35017" lon="3.8159">
        <ele>1118.15</ele>
        <time>2012-06-17T09:22:31Z</time>
      </trkpt>
      <trkpt lat="44.35018" lon="3.81595">
        <ele>1118.15</ele>
        <time>2012-06-17T09:22:32Z</time>
      </trkpt>
      <trkpt lat="44.35019" lon="3.81601">
        <ele>1118.63</ele>
        <time>2012-06-17T09:22:33Z</time>
      </trkpt>
      <trkpt lat="44.35018" lon="3.81607">
        <ele>1118.63</ele>
        <time>2012-06-17T09:22:34Z</time>
      </trkpt>
      <trkpt lat="44.35017" lon="3.81612">
        <ele>1119.11</ele>
        <time>2012-06-17T09:22:35Z</time>
      </trkpt>
      <trkpt lat="44.35015" lon="3.81616">
        <ele>1118.63</ele>
        <time>2012-06-17T09:22:36Z</time>
      </trkpt>
      <trkpt lat="44.35012" lon="3.8162">
        <ele>1118.63</ele>
        <time>2012-06-17T09:22:37Z</time>
      </trkpt>
      <trkpt lat="44.35008" lon="3.81622">
        <ele>1119.11</ele>
        <time>2012-06-17T09:22:38Z</time>
      </trkpt>
      <trkpt lat="44.35005" lon="3.81624">
        <ele>1119.11</ele>
        <time>2012-06-17T09:22:39Z</time>
      </trkpt>
      <trkpt lat="44.35001" lon="3.81625">
        <ele>1119.11</ele>
        <time>2012-06-17T09:22:40Z</time>
      </trkpt>
      <trkpt lat="44.34997" lon="3.81625">
        <ele>1119.59</ele>
        <time>2012-06-17T09:22:41Z</time>
      </trkpt>
      <trkpt lat="44.34993" lon="3.81625">
        <ele>1119.59</ele>
        <time>2012-06-17T09:22:42Z</time>
      </trkpt>
      <trkpt lat="44.34989" lon="3.81625">
        <ele>1119.59</ele>
        <time>2012-06-17T09:22:43Z</time>
      </trkpt>
      <trkpt lat="44.34966" lon="3.81627">
        <ele>1120.07</ele>
        <time>2012-06-17T09:22:48Z</time>
      </trkpt>
      <trkpt lat="44.34891" lon="3.81671">
        <ele>1120.07</ele>
        <time>2012-06-17T09:23:06Z</time>
      </trkpt>
      <trkpt lat="44.34859" lon="3.81696">
        <ele>1121.03</ele>
        <time>2012-06-17T09:23:14Z</time>
      </trkpt>
      <trkpt lat="44.34855" lon="3.81701">
        <ele>1121.03</ele>
        <time>2012-06-17T09:23:15Z</time>
      </trkpt>
      <trkpt lat="44.34853" lon="3.81707">
        <ele>1121.52</ele>
        <time>2012-06-17T09:23:16Z</time>
      </trkpt>
      <trkpt lat="44.34851" lon="3.81713">
        <ele>1122</ele>
        <time>2012-06-17T09:23:17Z</time>
      </trkpt>
      <trkpt lat="44.34849" lon="3.81719">
        <ele>1122</ele>
        <time>2012-06-17T09:23:18Z</time>
      </trkpt>
      <trkpt lat="44.34849" lon="3.81726">
        <ele>1122.48</ele>
        <time>2012-06-17T09:23:19Z</time>
      </trkpt>
      <trkpt lat="44.34849" lon="3.81732">
        <ele>1122.48</ele>
        <time>2012-06-17T09:23:20Z</time>
      </trkpt>
      <trkpt lat="44.3485" lon="3.81738">
        <ele>1122.48</ele>
        <time>2012-06-17T09:23:21Z</time>
      </trkpt>
      <trkpt lat="44.34851" lon="3.81744">
        <ele>1122.96</ele>
        <time>2012-06-17T09:23:22Z</time>
      </trkpt>
      <trkpt lat="44.34855" lon="3.81754">
        <ele>1122.96</ele>
        <time>2012-06-17T09:23:24Z</time>
      </trkpt>
      <trkpt lat="44.34857" lon="3.81759">
        <ele>1123.44</ele>
        <time>2012-06-17T09:23:25Z</time>
      </trkpt>
      <trkpt lat="44.34896" lon="3.81812">
        <ele>1125.36</ele>
        <time>2012-06-17T09:23:39Z</time>
      </trkpt>
      <trkpt lat="44.34935" lon="3.81866">
        <ele>1127.28</ele>
        <time>2012-06-17T09:23:54Z</time>
      </trkpt>
      <trkpt lat="44.34974" lon="3.81899">
        <ele>1128.73</ele>
        <time>2012-06-17T09:24:07Z</time>
      </trkpt>
      <trkpt lat="44.35015" lon="3.81939">
        <ele>1130.17</ele>
        <time>2012-06-17T09:24:21Z</time>
      </trkpt>
      <trkpt lat="44.35068" lon="3.81977">
        <ele>1133.05</ele>
        <time>2012-06-17T09:24:37Z</time>
      </trkpt>
      <trkpt lat="44.35104" lon="3.82004">
        <ele>1133.53</ele>
        <time>2012-06-17T09:24:49Z</time>
      </trkpt>
      <trkpt lat="44.35135" lon="3.82046">
        <ele>1134.97</ele>
        <time>2012-06-17T09:25:01Z</time>
      </trkpt>
      <trkpt lat="44.35146" lon="3.82091">
        <ele>1136.9</ele>
        <time>2012-06-17T09:25:10Z</time>
      </trkpt>
      <trkpt lat="44.35171" lon="3.8215">
        <ele>1139.3</ele>
        <time>2012-06-17T09:25:24Z</time>
      </trkpt>
      <trkpt lat="44.35208" lon="3.82193">
        <ele>1141.22</ele>
        <time>2012-06-17T09:25:39Z</time>
      </trkpt>
      <trkpt lat="44.35256" lon="3.82203">
        <ele>1142.66</ele>
        <time>2012-06-17T09:25:54Z</time>
      </trkpt>
      <trkpt lat="44.35292" lon="3.82224">
        <ele>1143.63</ele>
        <time>2012-06-17T09:26:08Z</time>
      </trkpt>
      <trkpt lat="44.35296" lon="3.82226">
        <ele>1143.14</ele>
        <time>2012-06-17T09:26:11Z</time>
      </trkpt>
      <trkpt lat="44.35297" lon="3.82227">
        <ele>1143.63</ele>
        <time>2012-06-17T09:26:12Z</time>
      </trkpt>
      <trkpt lat="44.35302" lon="3.82227">
        <ele>1143.63</ele>
        <time>2012-06-17T09:26:16Z</time>
      </trkpt>
      <trkpt lat="44.35305" lon="3.82226">
        <ele>1143.63</ele>
        <time>2012-06-17T09:26:17Z</time>
      </trkpt>
      <trkpt lat="44.35308" lon="3.82224">
        <ele>1144.11</ele>
        <time>2012-06-17T09:26:18Z</time>
      </trkpt>
      <trkpt lat="44.35354" lon="3.82208">
        <ele>1144.11</ele>
        <time>2012-06-17T09:26:30Z</time>
      </trkpt>
      <trkpt lat="44.35395" lon="3.82231">
        <ele>1145.55</ele>
        <time>2012-06-17T09:26:42Z</time>
      </trkpt>
      <trkpt lat="44.35436" lon="3.82238">
        <ele>1147.47</ele>
        <time>2012-06-17T09:26:54Z</time>
      </trkpt>
      <trkpt lat="44.35488" lon="3.82218">
        <ele>1149.39</ele>
        <time>2012-06-17T09:27:10Z</time>
      </trkpt>
      <trkpt lat="44.3553" lon="3.82191">
        <ele>1150.84</ele>
        <time>2012-06-17T09:27:23Z</time>
      </trkpt>
      <trkpt lat="44.35576" lon="3.82196">
        <ele>1153.24</ele>
        <time>2012-06-17T09:27:36Z</time>
      </trkpt>
      <trkpt lat="44.35611" lon="3.82211">
        <ele>1153.72</ele>
        <time>2012-06-17T09:27:48Z</time>
      </trkpt>
      <trkpt lat="44.35619" lon="3.82255">
        <ele>1155.16</ele>
        <time>2012-06-17T09:27:58Z</time>
      </trkpt>
      <trkpt lat="44.35599" lon="3.82294">
        <ele>1156.6</ele>
        <time>2012-06-17T09:28:08Z</time>
      </trkpt>
      <trkpt lat="44.35567" lon="3.8232">
        <ele>1158.05</ele>
        <time>2012-06-17T09:28:19Z</time>
      </trkpt>
      <trkpt lat="44.35541" lon="3.8235">
        <ele>1160.45</ele>
        <time>2012-06-17T09:28:30Z</time>
      </trkpt>
      <trkpt lat="44.35522" lon="3.82379">
        <ele>1162.37</ele>
        <time>2012-06-17T09:28:40Z</time>
      </trkpt>
      <trkpt lat="44.3549" lon="3.82425">
        <ele>1165.74</ele>
        <time>2012-06-17T09:28:55Z</time>
      </trkpt>
      <trkpt lat="44.35471" lon="3.82479">
        <ele>1168.14</ele>
        <time>2012-06-17T09:29:10Z</time>
      </trkpt>
      <trkpt lat="44.35459" lon="3.82525">
        <ele>1170.54</ele>
        <time>2012-06-17T09:29:22Z</time>
      </trkpt>
      <trkpt lat="44.35449" lon="3.82565">
        <ele>1173.91</ele>
        <time>2012-06-17T09:29:34Z</time>
      </trkpt>
      <trkpt lat="44.35426" lon="3.82589">
        <ele>1174.39</ele>
        <time>2012-06-17T09:29:45Z</time>
      </trkpt>
      <trkpt lat="44.35394" lon="3.82591">
        <ele>1175.35</ele>
        <time>2012-06-17T09:29:57Z</time>
      </trkpt>
      <trkpt lat="44.35347" lon="3.82589">
        <ele>1176.31</ele>
        <time>2012-06-17T09:30:12Z</time>
      </trkpt>
      <trkpt lat="44.35303" lon="3.82601">
        <ele>1177.75</ele>
        <time>2012-06-17T09:30:25Z</time>
      </trkpt>
      <trkpt lat="44.35262" lon="3.82613">
        <ele>1181.12</ele>
        <time>2012-06-17T09:30:38Z</time>
      </trkpt>
      <trkpt lat="44.35217" lon="3.82626">
        <ele>1184</ele>
        <time>2012-06-17T09:30:54Z</time>
      </trkpt>
      <trkpt lat="44.35181" lon="3.82636">
        <ele>1186.88</ele>
        <time>2012-06-17T09:31:07Z</time>
      </trkpt>
      <trkpt lat="44.35136" lon="3.82655">
        <ele>1190.25</ele>
        <time>2012-06-17T09:31:24Z</time>
      </trkpt>
      <trkpt lat="44.3511" lon="3.82672">
        <ele>1192.17</ele>
        <time>2012-06-17T09:31:36Z</time>
      </trkpt>
      <trkpt lat="44.35086" lon="3.82694">
        <ele>1193.61</ele>
        <time>2012-06-17T09:31:47Z</time>
      </trkpt>
      <trkpt lat="44.35056" lon="3.82727">
        <ele>1196.98</ele>
        <time>2012-06-17T09:32:01Z</time>
      </trkpt>
      <trkpt lat="44.3504" lon="3.82763">
        <ele>1198.9</ele>
        <time>2012-06-17T09:32:14Z</time>
      </trkpt>
      <trkpt lat="44.3503" lon="3.82806">
        <ele>1200.34</ele>
        <time>2012-06-17T09:32:28Z</time>
      </trkpt>
      <trkpt lat="44.35025" lon="3.82855">
        <ele>1202.75</ele>
        <time>2012-06-17T09:32:42Z</time>
      </trkpt>
      <trkpt lat="44.35039" lon="3.82896">
        <ele>1205.15</ele>
        <time>2012-06-17T09:32:56Z</time>
      </trkpt>
      <trkpt lat="44.35068" lon="3.82911">
        <ele>1207.07</ele>
        <time>2012-06-17T09:33:07Z</time>
      </trkpt>
      <trkpt lat="44.35083" lon="3.82943">
        <ele>1210.92</ele>
        <time>2012-06-17T09:33:17Z</time>
      </trkpt>
      <trkpt lat="44.35069" lon="3.82992">
        <ele>1212.84</ele>
        <time>2012-06-17T09:33:30Z</time>
      </trkpt>
      <trkpt lat="44.35066" lon="3.83038">
        <ele>1214.76</ele>
        <time>2012-06-17T09:33:43Z</time>
      </trkpt>
      <trkpt lat="44.35072" lon="3.83085">
        <ele>1216.69</ele>
        <time>2012-06-17T09:33:55Z</time>
      </trkpt>
      <trkpt lat="44.35083" lon="3.83144">
        <ele>1219.57</ele>
        <time>2012-06-17T09:34:11Z</time>
      </trkpt>
      <trkpt lat="44.35093" lon="3.83181">
        <ele>1221.49</ele>
        <time>2012-06-17T09:34:22Z</time>
      </trkpt>
      <trkpt lat="44.35109" lon="3.83229">
        <ele>1223.9</ele>
        <time>2012-06-17T09:34:36Z</time>
      </trkpt>
      <trkpt lat="44.35138" lon="3.83265">
        <ele>1225.82</ele>
        <time>2012-06-17T09:34:50Z</time>
      </trkpt>
      <trkpt lat="44.35175" lon="3.83277">
        <ele>1227.26</ele>
        <time>2012-06-17T09:35:04Z</time>
      </trkpt>
      <trkpt lat="44.35207" lon="3.83281">
        <ele>1229.18</ele>
        <time>2012-06-17T09:35:16Z</time>
      </trkpt>
      <trkpt lat="44.35235" lon="3.83303">
        <ele>1231.11</ele>
        <time>2012-06-17T09:35:28Z</time>
      </trkpt>
      <trkpt lat="44.35238" lon="3.83347">
        <ele>1233.03</ele>
        <time>2012-06-17T09:35:40Z</time>
      </trkpt>
      <trkpt lat="44.35229" lon="3.83393">
        <ele>1234.95</ele>
        <time>2012-06-17T09:35:52Z</time>
      </trkpt>
      <trkpt lat="44.35228" lon="3.83451">
        <ele>1236.87</ele>
        <time>2012-06-17T09:36:06Z</time>
      </trkpt>
      <trkpt lat="44.35226" lon="3.83516">
        <ele>1239.76</ele>
        <time>2012-06-17T09:36:21Z</time>
      </trkpt>
      <trkpt lat="44.35239" lon="3.83572">
        <ele>1241.68</ele>
        <time>2012-06-17T09:36:36Z</time>
      </trkpt>
      <trkpt lat="44.35272" lon="3.83615">
        <ele>1244.56</ele>
        <time>2012-06-17T09:36:52Z</time>
      </trkpt>
      <trkpt lat="44.35275" lon="3.83671">
        <ele>1246.97</ele>
        <time>2012-06-17T09:37:06Z</time>
      </trkpt>
      <trkpt lat="44.35274" lon="3.83732">
        <ele>1248.89</ele>
        <time>2012-06-17T09:37:21Z</time>
      </trkpt>
      <trkpt lat="44.35292" lon="3.83785">
        <ele>1250.81</ele>
        <time>2012-06-17T09:37:37Z</time>
      </trkpt>
      <trkpt lat="44.35294" lon="3.83791">
        <ele>1252.25</ele>
        <time>2012-06-17T09:37:44Z</time>
      </trkpt>
      <trkpt lat="44.35293" lon="3.83792">
        <ele>1251.77</ele>
        <time>2012-06-17T09:37:57Z</time>
      </trkpt>
      <trkpt lat="44.35292" lon="3.83791">
        <ele>1250.81</ele>
        <time>2012-06-17T09:38:29Z</time>
      </trkpt>
      <trkpt lat="44.35293" lon="3.83791">
        <ele>1251.29</ele>
        <time>2012-06-17T09:38:58Z</time>
      </trkpt>
      <trkpt lat="44.35293" lon="3.83791">
        <ele>1251.77</ele>
        <time>2012-06-17T09:39:29Z</time>
      </trkpt>
      <trkpt lat="44.35293" lon="3.83791">
        <ele>1252.25</ele>
        <time>2012-06-17T09:40:02Z</time>
      </trkpt>
      <trkpt lat="44.35294" lon="3.83791">
        <ele>1251.77</ele>
        <time>2012-06-17T09:40:34Z</time>
      </trkpt>
      <trkpt lat="44.35294" lon="3.8379">
        <ele>1251.77</ele>
        <time>2012-06-17T09:41:03Z</time>
      </trkpt>
      <trkpt lat="44.35293" lon="3.83791">
        <ele>1251.77</ele>
        <time>2012-06-17T09:41:35Z</time>
      </trkpt>
      <trkpt lat="44.35294" lon="3.83792">
        <ele>1251.77</ele>
        <time>2012-06-17T09:41:56Z</time>
      </trkpt>
      <trkpt lat="44.35293" lon="3.83794">
        <ele>1251.77</ele>
        <time>2012-06-17T09:42:00Z</time>
      </trkpt>
      <trkpt lat="44.35292" lon="3.83796">
        <ele>1251.29</ele>
        <time>2012-06-17T09:42:01Z</time>
      </trkpt>
      <trkpt lat="44.35289" lon="3.83797">
        <ele>1251.29</ele>
        <time>2012-06-17T09:42:02Z</time>
      </trkpt>
      <trkpt lat="44.35287" lon="3.83799">
        <ele>1250.81</ele>
        <time>2012-06-17T09:42:03Z</time>
      </trkpt>
      <trkpt lat="44.35283" lon="3.838">
        <ele>1251.29</ele>
        <time>2012-06-17T09:42:04Z</time>
      </trkpt>
      <trkpt lat="44.35267" lon="3.83805">
        <ele>1250.33</ele>
        <time>2012-06-17T09:42:08Z</time>
      </trkpt>
      <trkpt lat="44.35263" lon="3.83807">
        <ele>1251.29</ele>
        <time>2012-06-17T09:42:09Z</time>
      </trkpt>
      <trkpt lat="44.35247" lon="3.83818">
        <ele>1250.33</ele>
        <time>2012-06-17T09:42:13Z</time>
      </trkpt>
      <trkpt lat="44.35242" lon="3.83819">
        <ele>1249.37</ele>
        <time>2012-06-17T09:42:14Z</time>
      </trkpt>
      <trkpt lat="44.35237" lon="3.83819">
        <ele>1248.89</ele>
        <time>2012-06-17T09:42:15Z</time>
      </trkpt>
      <trkpt lat="44.35232" lon="3.83819">
        <ele>1247.93</ele>
        <time>2012-06-17T09:42:16Z</time>
      </trkpt>
      <trkpt lat="44.35228" lon="3.83818">
        <ele>1248.41</ele>
        <time>2012-06-17T09:42:17Z</time>
      </trkpt>
      <trkpt lat="44.35223" lon="3.83818">
        <ele>1248.41</ele>
        <time>2012-06-17T09:42:18Z</time>
      </trkpt>
      <trkpt lat="44.3522" lon="3.83817">
        <ele>1248.41</ele>
        <time>2012-06-17T09:42:19Z</time>
      </trkpt>
      <trkpt lat="44.35171" lon="3.83813">
        <ele>1249.37</ele>
        <time>2012-06-17T09:42:32Z</time>
      </trkpt>
      <trkpt lat="44.35126" lon="3.83819">
        <ele>1249.85</ele>
        <time>2012-06-17T09:42:44Z</time>
      </trkpt>
      <trkpt lat="44.35122" lon="3.83819">
        <ele>1249.37</ele>
        <time>2012-06-17T09:42:45Z</time>
      </trkpt>
      <trkpt lat="44.3509" lon="3.83799">
        <ele>1249.37</ele>
        <time>2012-06-17T09:42:56Z</time>
      </trkpt>
      <trkpt lat="44.35078" lon="3.83796">
        <ele>1250.33</ele>
        <time>2012-06-17T09:43:00Z</time>
      </trkpt>
      <trkpt lat="44.35052" lon="3.83787">
        <ele>1250.33</ele>
        <time>2012-06-17T09:43:09Z</time>
      </trkpt>
      <trkpt lat="44.35022" lon="3.8378">
        <ele>1252.74</ele>
        <time>2012-06-17T09:43:21Z</time>
      </trkpt>
      <trkpt lat="44.35" lon="3.83772">
        <ele>1254.66</ele>
        <time>2012-06-17T09:43:31Z</time>
      </trkpt>
      <trkpt lat="44.34978" lon="3.83773">
        <ele>1256.58</ele>
        <time>2012-06-17T09:43:43Z</time>
      </trkpt>
      <trkpt lat="44.34977" lon="3.83773">
        <ele>1257.06</ele>
        <time>2012-06-17T09:43:44Z</time>
      </trkpt>
      <trkpt lat="44.34975" lon="3.83772">
        <ele>1257.06</ele>
        <time>2012-06-17T09:43:45Z</time>
      </trkpt>
      <trkpt lat="44.34973" lon="3.83772">
        <ele>1257.54</ele>
        <time>2012-06-17T09:43:46Z</time>
      </trkpt>
      <trkpt lat="44.34956" lon="3.83766">
        <ele>1259.94</ele>
        <time>2012-06-17T09:43:57Z</time>
      </trkpt>
      <trkpt lat="44.34951" lon="3.8375">
        <ele>1260.91</ele>
        <time>2012-06-17T09:44:05Z</time>
      </trkpt>
      <trkpt lat="44.3495" lon="3.83749">
        <ele>1260.91</ele>
        <time>2012-06-17T09:44:06Z</time>
      </trkpt>
      <trkpt lat="44.34949" lon="3.83748">
        <ele>1261.39</ele>
        <time>2012-06-17T09:44:07Z</time>
      </trkpt>
      <trkpt lat="44.34942" lon="3.83742">
        <ele>1262.35</ele>
        <time>2012-06-17T09:44:11Z</time>
      </trkpt>
      <trkpt lat="44.34935" lon="3.8374">
        <ele>1263.79</ele>
        <time>2012-06-17T09:44:16Z</time>
      </trkpt>
      <trkpt lat="44.34919" lon="3.83746">
        <ele>1264.27</ele>
        <time>2012-06-17T09:44:28Z</time>
      </trkpt>
      <trkpt lat="44.349" lon="3.83757">
        <ele>1265.71</ele>
        <time>2012-06-17T09:44:40Z</time>
      </trkpt>
      <trkpt lat="44.34889" lon="3.83762">
        <ele>1267.64</ele>
        <time>2012-06-17T09:44:46Z</time>
      </trkpt>
      <trkpt lat="44.34887" lon="3.83762">
        <ele>1267.64</ele>
        <time>2012-06-17T09:44:47Z</time>
      </trkpt>
      <trkpt lat="44.34885" lon="3.83761">
        <ele>1268.12</ele>
        <time>2012-06-17T09:44:48Z</time>
      </trkpt>
      <trkpt lat="44.34885" lon="3.83759">
        <ele>1268.12</ele>
        <time>2012-06-17T09:44:49Z</time>
      </trkpt>
      <trkpt lat="44.34885" lon="3.83758">
        <ele>1268.12</ele>
        <time>2012-06-17T09:44:50Z</time>
      </trkpt>
      <trkpt lat="44.34887" lon="3.83752">
        <ele>1268.6</ele>
        <time>2012-06-17T09:44:52Z</time>
      </trkpt>
      <trkpt lat="44.34884" lon="3.83742">
        <ele>1269.56</ele>
        <time>2012-06-17T09:45:00Z</time>
      </trkpt>
      <trkpt lat="44.34866" lon="3.83752">
        <ele>1271.48</ele>
        <time>2012-06-17T09:45:12Z</time>
      </trkpt>
      <trkpt lat="44.34848" lon="3.83754">
        <ele>1272.92</ele>
        <time>2012-06-17T09:45:24Z</time>
      </trkpt>
      <trkpt lat="44.34841" lon="3.83753">
        <ele>1273.4</ele>
        <time>2012-06-17T09:45:28Z</time>
      </trkpt>
      <trkpt lat="44.34828" lon="3.83749">
        <ele>1274.85</ele>
        <time>2012-06-17T09:45:35Z</time>
      </trkpt>
      <trkpt lat="44.34816" lon="3.83744">
        <ele>1275.33</ele>
        <time>2012-06-17T09:45:42Z</time>
      </trkpt>
      <trkpt lat="44.34804" lon="3.83742">
        <ele>1276.77</ele>
        <time>2012-06-17T09:45:54Z</time>
      </trkpt>
      <trkpt lat="44.34804" lon="3.83742">
        <ele>1276.29</ele>
        <time>2012-06-17T09:46:14Z</time>
      </trkpt>
      <trkpt lat="44.34804" lon="3.83742">
        <ele>1276.77</ele>
        <time>2012-06-17T09:46:56Z</time>
      </trkpt>
      <trkpt lat="44.34803" lon="3.83742">
        <ele>1277.25</ele>
        <time>2012-06-17T09:47:35Z</time>
      </trkpt>
      <trkpt lat="44.34798" lon="3.83741">
        <ele>1276.77</ele>
        <time>2012-06-17T09:47:57Z</time>
      </trkpt>
      <trkpt lat="44.34794" lon="3.83737">
        <ele>1277.25</ele>
        <time>2012-06-17T09:48:00Z</time>
      </trkpt>
      <trkpt lat="44.34788" lon="3.83737">
        <ele>1277.25</ele>
        <time>2012-06-17T09:48:05Z</time>
      </trkpt>
      <trkpt lat="44.34781" lon="3.83739">
        <ele>1277.73</ele>
        <time>2012-06-17T09:48:10Z</time>
      </trkpt>
      <trkpt lat="44.34748" lon="3.83742">
        <ele>1279.17</ele>
        <time>2012-06-17T09:48:26Z</time>
      </trkpt>
      <trkpt lat="44.34705" lon="3.83747">
        <ele>1280.13</ele>
        <time>2012-06-17T09:48:39Z</time>
      </trkpt>
      <trkpt lat="44.34701" lon="3.83749">
        <ele>1279.17</ele>
        <time>2012-06-17T09:48:40Z</time>
      </trkpt>
      <trkpt lat="44.34697" lon="3.8375">
        <ele>1279.17</ele>
        <time>2012-06-17T09:48:41Z</time>
      </trkpt>
      <trkpt lat="44.34693" lon="3.83752">
        <ele>1279.65</ele>
        <time>2012-06-17T09:48:42Z</time>
      </trkpt>
      <trkpt lat="44.3469" lon="3.83753">
        <ele>1279.17</ele>
        <time>2012-06-17T09:48:43Z</time>
      </trkpt>
      <trkpt lat="44.34686" lon="3.83754">
        <ele>1278.69</ele>
        <time>2012-06-17T09:48:44Z</time>
      </trkpt>
      <trkpt lat="44.3464" lon="3.83767">
        <ele>1278.69</ele>
        <time>2012-06-17T09:48:57Z</time>
      </trkpt>
      <trkpt lat="44.34596" lon="3.83781">
        <ele>1278.21</ele>
        <time>2012-06-17T09:49:10Z</time>
      </trkpt>
      <trkpt lat="44.34549" lon="3.83802">
        <ele>1276.77</ele>
        <time>2012-06-17T09:49:23Z</time>
      </trkpt>
      <trkpt lat="44.34546" lon="3.83804">
        <ele>1276.29</ele>
        <time>2012-06-17T09:49:30Z</time>
      </trkpt>
      <trkpt lat="44.34545" lon="3.83803">
        <ele>1275.81</ele>
        <time>2012-06-17T09:49:52Z</time>
      </trkpt>
      <trkpt lat="44.34545" lon="3.83799">
        <ele>1276.29</ele>
        <time>2012-06-17T09:50:22Z</time>
      </trkpt>
      <trkpt lat="44.34545" lon="3.83799">
        <ele>1275.81</ele>
        <time>2012-06-17T09:50:44Z</time>
      </trkpt>
      <trkpt lat="44.34543" lon="3.83799">
        <ele>1275.81</ele>
        <time>2012-06-17T09:50:45Z</time>
      </trkpt>
      <trkpt lat="44.34541" lon="3.838">
        <ele>1275.81</ele>
        <time>2012-06-17T09:50:46Z</time>
      </trkpt>
      <trkpt lat="44.34538" lon="3.838">
        <ele>1275.33</ele>
        <time>2012-06-17T09:50:47Z</time>
      </trkpt>
      <trkpt lat="44.34535" lon="3.83801">
        <ele>1275.33</ele>
        <time>2012-06-17T09:50:48Z</time>
      </trkpt>
      <trkpt lat="44.34532" lon="3.83801">
        <ele>1275.81</ele>
        <time>2012-06-17T09:50:49Z</time>
      </trkpt>
      <trkpt lat="44.34528" lon="3.83802">
        <ele>1275.33</ele>
        <time>2012-06-17T09:50:50Z</time>
      </trkpt>
      <trkpt lat="44.34524" lon="3.83803">
        <ele>1274.85</ele>
        <time>2012-06-17T09:50:51Z</time>
      </trkpt>
      <trkpt lat="44.34519" lon="3.83804">
        <ele>1274.36</ele>
        <time>2012-06-17T09:50:52Z</time>
      </trkpt>
      <trkpt lat="44.34471" lon="3.83815">
        <ele>1271.48</ele>
        <time>2012-06-17T09:51:00Z</time>
      </trkpt>
      <trkpt lat="44.34451" lon="3.83821">
        <ele>1267.16</ele>
        <time>2012-06-17T09:51:03Z</time>
      </trkpt>
      <trkpt lat="44.34445" lon="3.83821">
        <ele>1266.67</ele>
        <time>2012-06-17T09:51:04Z</time>
      </trkpt>
      <trkpt lat="44.34434" lon="3.83818">
        <ele>1264.75</ele>
        <time>2012-06-17T09:51:06Z</time>
      </trkpt>
      <trkpt lat="44.34429" lon="3.83817">
        <ele>1263.79</ele>
        <time>2012-06-17T09:51:07Z</time>
      </trkpt>
      <trkpt lat="44.34423" lon="3.83816">
        <ele>1262.35</ele>
        <time>2012-06-17T09:51:08Z</time>
      </trkpt>
      <trkpt lat="44.34418" lon="3.83816">
        <ele>1261.39</ele>
        <time>2012-06-17T09:51:09Z</time>
      </trkpt>
      <trkpt lat="44.34412" lon="3.83816">
        <ele>1261.39</ele>
        <time>2012-06-17T09:51:10Z</time>
      </trkpt>
      <trkpt lat="44.34406" lon="3.83816">
        <ele>1260.43</ele>
        <time>2012-06-17T09:51:11Z</time>
      </trkpt>
      <trkpt lat="44.3439" lon="3.83816">
        <ele>1256.58</ele>
        <time>2012-06-17T09:51:14Z</time>
      </trkpt>
      <trkpt lat="44.34384" lon="3.83816">
        <ele>1255.62</ele>
        <time>2012-06-17T09:51:16Z</time>
      </trkpt>
      <trkpt lat="44.34376" lon="3.83817">
        <ele>1254.66</ele>
        <time>2012-06-17T09:51:18Z</time>
      </trkpt>
      <trkpt lat="44.34371" lon="3.83818">
        <ele>1254.18</ele>
        <time>2012-06-17T09:51:19Z</time>
      </trkpt>
      <trkpt lat="44.34366" lon="3.83819">
        <ele>1253.22</ele>
        <time>2012-06-17T09:51:20Z</time>
      </trkpt>
      <trkpt lat="44.34354" lon="3.83822">
        <ele>1252.25</ele>
        <time>2012-06-17T09:51:22Z</time>
      </trkpt>
      <trkpt lat="44.34337" lon="3.83826">
        <ele>1249.37</ele>
        <time>2012-06-17T09:51:25Z</time>
      </trkpt>
      <trkpt lat="44.34331" lon="3.83827">
        <ele>1248.89</ele>
        <time>2012-06-17T09:51:26Z</time>
      </trkpt>
      <trkpt lat="44.34325" lon="3.83828">
        <ele>1247.93</ele>
        <time>2012-06-17T09:51:27Z</time>
      </trkpt>
      <trkpt lat="44.34319" lon="3.83828">
        <ele>1247.45</ele>
        <time>2012-06-17T09:51:28Z</time>
      </trkpt>
      <trkpt lat="44.34312" lon="3.83828">
        <ele>1246.97</ele>
        <time>2012-06-17T09:51:29Z</time>
      </trkpt>
      <trkpt lat="44.34306" lon="3.83828">
        <ele>1246.01</ele>
        <time>2012-06-17T09:51:30Z</time>
      </trkpt>
      <trkpt lat="44.34291" lon="3.83827">
        <ele>1243.12</ele>
        <time>2012-06-17T09:51:33Z</time>
      </trkpt>
      <trkpt lat="44.34286" lon="3.83826">
        <ele>1242.16</ele>
        <time>2012-06-17T09:51:34Z</time>
      </trkpt>
      <trkpt lat="44.34263" lon="3.8382">
        <ele>1238.32</ele>
        <time>2012-06-17T09:51:38Z</time>
      </trkpt>
      <trkpt lat="44.34243" lon="3.83816">
        <ele>1234.95</ele>
        <time>2012-06-17T09:51:42Z</time>
      </trkpt>
      <trkpt lat="44.34234" lon="3.83815">
        <ele>1232.55</ele>
        <time>2012-06-17T09:51:44Z</time>
      </trkpt>
      <trkpt lat="44.34229" lon="3.83813">
        <ele>1231.59</ele>
        <time>2012-06-17T09:51:45Z</time>
      </trkpt>
      <trkpt lat="44.34224" lon="3.83812">
        <ele>1231.11</ele>
        <time>2012-06-17T09:51:46Z</time>
      </trkpt>
      <trkpt lat="44.34212" lon="3.83809">
        <ele>1229.18</ele>
        <time>2012-06-17T09:51:48Z</time>
      </trkpt>
      <trkpt lat="44.34187" lon="3.83803">
        <ele>1225.82</ele>
        <time>2012-06-17T09:51:52Z</time>
      </trkpt>
      <trkpt lat="44.34164" lon="3.83797">
        <ele>1221.49</ele>
        <time>2012-06-17T09:51:56Z</time>
      </trkpt>
      <trkpt lat="44.3415" lon="3.83794">
        <ele>1219.57</ele>
        <time>2012-06-17T09:51:58Z</time>
      </trkpt>
      <trkpt lat="44.34144" lon="3.83792">
        <ele>1219.09</ele>
        <time>2012-06-17T09:51:59Z</time>
      </trkpt>
      <trkpt lat="44.34104" lon="3.83786">
        <ele>1215.24</ele>
        <time>2012-06-17T09:52:04Z</time>
      </trkpt>
      <trkpt lat="44.34077" lon="3.8378">
        <ele>1214.28</ele>
        <time>2012-06-17T09:52:07Z</time>
      </trkpt>
      <trkpt lat="44.34019" lon="3.83757">
        <ele>1214.28</ele>
        <time>2012-06-17T09:52:16Z</time>
      </trkpt>
      <trkpt lat="44.34014" lon="3.83754">
        <ele>1214.76</ele>
        <time>2012-06-17T09:52:17Z</time>
      </trkpt>
      <trkpt lat="44.33992" lon="3.83741">
        <ele>1216.69</ele>
        <time>2012-06-17T09:52:24Z</time>
      </trkpt>
      <trkpt lat="44.33952" lon="3.83719">
        <ele>1219.57</ele>
        <time>2012-06-17T09:52:36Z</time>
      </trkpt>
      <trkpt lat="44.33916" lon="3.83699">
        <ele>1221.97</ele>
        <time>2012-06-17T09:52:48Z</time>
      </trkpt>
      <trkpt lat="44.33892" lon="3.83681">
        <ele>1223.9</ele>
        <time>2012-06-17T09:53:01Z</time>
      </trkpt>
      <trkpt lat="44.33867" lon="3.83663">
        <ele>1226.78</ele>
        <time>2012-06-17T09:53:15Z</time>
      </trkpt>
      <trkpt lat="44.33845" lon="3.83648">
        <ele>1228.7</ele>
        <time>2012-06-17T09:53:28Z</time>
      </trkpt>
      <trkpt lat="44.33826" lon="3.83632">
        <ele>1230.62</ele>
        <time>2012-06-17T09:53:40Z</time>
      </trkpt>
      <trkpt lat="44.33823" lon="3.83627">
        <ele>1230.62</ele>
        <time>2012-06-17T09:53:44Z</time>
      </trkpt>
      <trkpt lat="44.33823" lon="3.83625">
        <ele>1231.11</ele>
        <time>2012-06-17T09:53:45Z</time>
      </trkpt>
      <trkpt lat="44.33822" lon="3.83624">
        <ele>1231.11</ele>
        <time>2012-06-17T09:53:46Z</time>
      </trkpt>
      <trkpt lat="44.33821" lon="3.83623">
        <ele>1230.62</ele>
        <time>2012-06-17T09:53:47Z</time>
      </trkpt>
      <trkpt lat="44.33817" lon="3.83621">
        <ele>1230.14</ele>
        <time>2012-06-17T09:54:02Z</time>
      </trkpt>
      <trkpt lat="44.33819" lon="3.8362">
        <ele>1230.62</ele>
        <time>2012-06-17T09:54:25Z</time>
      </trkpt>
      <trkpt lat="44.33819" lon="3.8362">
        <ele>1230.62</ele>
        <time>2012-06-17T09:54:33Z</time>
      </trkpt>
      <trkpt lat="44.33819" lon="3.83619">
        <ele>1230.14</ele>
        <time>2012-06-17T09:55:02Z</time>
      </trkpt>
      <trkpt lat="44.33818" lon="3.83619">
        <ele>1230.14</ele>
        <time>2012-06-17T09:55:10Z</time>
      </trkpt>
      <trkpt lat="44.33817" lon="3.83618">
        <ele>1230.62</ele>
        <time>2012-06-17T09:55:11Z</time>
      </trkpt>
      <trkpt lat="44.33816" lon="3.83618">
        <ele>1230.14</ele>
        <time>2012-06-17T09:55:12Z</time>
      </trkpt>
      <trkpt lat="44.33815" lon="3.83617">
        <ele>1230.14</ele>
        <time>2012-06-17T09:55:13Z</time>
      </trkpt>
      <trkpt lat="44.33813" lon="3.83615">
        <ele>1230.62</ele>
        <time>2012-06-17T09:55:14Z</time>
      </trkpt>
      <trkpt lat="44.33811" lon="3.83614">
        <ele>1230.14</ele>
        <time>2012-06-17T09:55:15Z</time>
      </trkpt>
      <trkpt lat="44.33809" lon="3.83612">
        <ele>1230.14</ele>
        <time>2012-06-17T09:55:16Z</time>
      </trkpt>
      <trkpt lat="44.33806" lon="3.83609">
        <ele>1229.18</ele>
        <time>2012-06-17T09:55:17Z</time>
      </trkpt>
      <trkpt lat="44.33785" lon="3.83586">
        <ele>1228.7</ele>
        <time>2012-06-17T09:55:23Z</time>
      </trkpt>
      <trkpt lat="44.33777" lon="3.83577">
        <ele>1227.74</ele>
        <time>2012-06-17T09:55:25Z</time>
      </trkpt>
      <trkpt lat="44.33773" lon="3.83572">
        <ele>1227.26</ele>
        <time>2012-06-17T09:55:26Z</time>
      </trkpt>
      <trkpt lat="44.33727" lon="3.83524">
        <ele>1223.9</ele>
        <time>2012-06-17T09:55:35Z</time>
      </trkpt>
      <trkpt lat="44.33718" lon="3.83516">
        <ele>1222.45</ele>
        <time>2012-06-17T09:55:37Z</time>
      </trkpt>
      <trkpt lat="44.33715" lon="3.83511">
        <ele>1221.97</ele>
        <time>2012-06-17T09:55:38Z</time>
      </trkpt>
      <trkpt lat="44.33707" lon="3.83499">
        <ele>1219.57</ele>
        <time>2012-06-17T09:55:42Z</time>
      </trkpt>
      <trkpt lat="44.33705" lon="3.83497">
        <ele>1219.57</ele>
        <time>2012-06-17T09:55:43Z</time>
      </trkpt>
      <trkpt lat="44.33702" lon="3.83495">
        <ele>1218.61</ele>
        <time>2012-06-17T09:55:44Z</time>
      </trkpt>
      <trkpt lat="44.337" lon="3.83493">
        <ele>1218.61</ele>
        <time>2012-06-17T09:55:45Z</time>
      </trkpt>
      <trkpt lat="44.33696" lon="3.83489">
        <ele>1218.13</ele>
        <time>2012-06-17T09:55:46Z</time>
      </trkpt>
      <trkpt lat="44.33693" lon="3.83484">
        <ele>1217.65</ele>
        <time>2012-06-17T09:55:47Z</time>
      </trkpt>
      <trkpt lat="44.33689" lon="3.83479">
        <ele>1216.69</ele>
        <time>2012-06-17T09:55:48Z</time>
      </trkpt>
      <trkpt lat="44.33684" lon="3.83474">
        <ele>1215.72</ele>
        <time>2012-06-17T09:55:49Z</time>
      </trkpt>
      <trkpt lat="44.33678" lon="3.83469">
        <ele>1215.24</ele>
        <time>2012-06-17T09:55:50Z</time>
      </trkpt>
      <trkpt lat="44.33655" lon="3.83451">
        <ele>1211.88</ele>
        <time>2012-06-17T09:55:54Z</time>
      </trkpt>
      <trkpt lat="44.33652" lon="3.83446">
        <ele>1211.88</ele>
        <time>2012-06-17T09:55:55Z</time>
      </trkpt>
      <trkpt lat="44.3365" lon="3.83442">
        <ele>1210.92</ele>
        <time>2012-06-17T09:55:56Z</time>
      </trkpt>
      <trkpt lat="44.3365" lon="3.83436">
        <ele>1210.92</ele>
        <time>2012-06-17T09:55:57Z</time>
      </trkpt>
      <trkpt lat="44.33648" lon="3.83431">
        <ele>1210.92</ele>
        <time>2012-06-17T09:55:58Z</time>
      </trkpt>
      <trkpt lat="44.33646" lon="3.83426">
        <ele>1210.44</ele>
        <time>2012-06-17T09:55:59Z</time>
      </trkpt>
      <trkpt lat="44.33643" lon="3.8342">
        <ele>1210.44</ele>
        <time>2012-06-17T09:56:00Z</time>
      </trkpt>
      <trkpt lat="44.3364" lon="3.83415">
        <ele>1209.48</ele>
        <time>2012-06-17T09:56:01Z</time>
      </trkpt>
      <trkpt lat="44.33637" lon="3.83411">
        <ele>1208.03</ele>
        <time>2012-06-17T09:56:02Z</time>
      </trkpt>
      <trkpt lat="44.33634" lon="3.83407">
        <ele>1207.07</ele>
        <time>2012-06-17T09:56:03Z</time>
      </trkpt>
      <trkpt lat="44.33631" lon="3.83404">
        <ele>1206.59</ele>
        <time>2012-06-17T09:56:04Z</time>
      </trkpt>
      <trkpt lat="44.33629" lon="3.83401">
        <ele>1205.63</ele>
        <time>2012-06-17T09:56:05Z</time>
      </trkpt>
      <trkpt lat="44.33626" lon="3.83399">
        <ele>1205.15</ele>
        <time>2012-06-17T09:56:06Z</time>
      </trkpt>
      <trkpt lat="44.33623" lon="3.83397">
        <ele>1204.67</ele>
        <time>2012-06-17T09:56:07Z</time>
      </trkpt>
      <trkpt lat="44.3362" lon="3.83395">
        <ele>1204.19</ele>
        <time>2012-06-17T09:56:08Z</time>
      </trkpt>
      <trkpt lat="44.33601" lon="3.83379">
        <ele>1201.3</ele>
        <time>2012-06-17T09:56:14Z</time>
      </trkpt>
      <trkpt lat="44.33597" lon="3.83374">
        <ele>1201.3</ele>
        <time>2012-06-17T09:56:15Z</time>
      </trkpt>
      <trkpt lat="44.33591" lon="3.83368">
        <ele>1200.82</ele>
        <time>2012-06-17T09:56:17Z</time>
      </trkpt>
      <trkpt lat="44.33591" lon="3.83366">
        <ele>1199.86</ele>
        <time>2012-06-17T09:56:18Z</time>
      </trkpt>
      <trkpt lat="44.3359" lon="3.83363">
        <ele>1199.86</ele>
        <time>2012-06-17T09:56:19Z</time>
      </trkpt>
      <trkpt lat="44.33587" lon="3.8336">
        <ele>1198.9</ele>
        <time>2012-06-17T09:56:20Z</time>
      </trkpt>
      <trkpt lat="44.33584" lon="3.83356">
        <ele>1198.9</ele>
        <time>2012-06-17T09:56:21Z</time>
      </trkpt>
      <trkpt lat="44.3358" lon="3.83353">
        <ele>1197.94</ele>
        <time>2012-06-17T09:56:22Z</time>
      </trkpt>
      <trkpt lat="44.33573" lon="3.83344">
        <ele>1196.98</ele>
        <time>2012-06-17T09:56:24Z</time>
      </trkpt>
      <trkpt lat="44.33553" lon="3.83324">
        <ele>1193.61</ele>
        <time>2012-06-17T09:56:30Z</time>
      </trkpt>
      <trkpt lat="44.33547" lon="3.83318">
        <ele>1193.13</ele>
        <time>2012-06-17T09:56:32Z</time>
      </trkpt>
      <trkpt lat="44.33536" lon="3.83309">
        <ele>1189.77</ele>
        <time>2012-06-17T09:56:36Z</time>
      </trkpt>
      <trkpt lat="44.33533" lon="3.83308">
        <ele>1189.29</ele>
        <time>2012-06-17T09:56:37Z</time>
      </trkpt>
      <trkpt lat="44.3353" lon="3.83307">
        <ele>1188.33</ele>
        <time>2012-06-17T09:56:38Z</time>
      </trkpt>
      <trkpt lat="44.33527" lon="3.83307">
        <ele>1187.85</ele>
        <time>2012-06-17T09:56:39Z</time>
      </trkpt>
      <trkpt lat="44.3351" lon="3.833">
        <ele>1184.96</ele>
        <time>2012-06-17T09:56:44Z</time>
      </trkpt>
      <trkpt lat="44.33507" lon="3.83298">
        <ele>1184</ele>
        <time>2012-06-17T09:56:45Z</time>
      </trkpt>
      <trkpt lat="44.33505" lon="3.83296">
        <ele>1183.52</ele>
        <time>2012-06-17T09:56:46Z</time>
      </trkpt>
      <trkpt lat="44.33501" lon="3.83293">
        <ele>1182.56</ele>
        <time>2012-06-17T09:56:47Z</time>
      </trkpt>
      <trkpt lat="44.33498" lon="3.8329">
        <ele>1182.56</ele>
        <time>2012-06-17T09:56:48Z</time>
      </trkpt>
      <trkpt lat="44.33492" lon="3.83283">
        <ele>1181.12</ele>
        <time>2012-06-17T09:56:50Z</time>
      </trkpt>
      <trkpt lat="44.33489" lon="3.83279">
        <ele>1180.16</ele>
        <time>2012-06-17T09:56:51Z</time>
      </trkpt>
      <trkpt lat="44.33487" lon="3.83276">
        <ele>1179.19</ele>
        <time>2012-06-17T09:56:52Z</time>
      </trkpt>
      <trkpt lat="44.33483" lon="3.83273">
        <ele>1178.71</ele>
        <time>2012-06-17T09:56:53Z</time>
      </trkpt>
      <trkpt lat="44.3348" lon="3.83272">
        <ele>1177.27</ele>
        <time>2012-06-17T09:56:54Z</time>
      </trkpt>
      <trkpt lat="44.33477" lon="3.83271">
        <ele>1176.79</ele>
        <time>2012-06-17T09:56:55Z</time>
      </trkpt>
      <trkpt lat="44.33464" lon="3.83262">
        <ele>1173.91</ele>
        <time>2012-06-17T09:57:00Z</time>
      </trkpt>
      <trkpt lat="44.33459" lon="3.83255">
        <ele>1172.47</ele>
        <time>2012-06-17T09:57:02Z</time>
      </trkpt>
      <trkpt lat="44.33448" lon="3.8324">
        <ele>1169.1</ele>
        <time>2012-06-17T09:57:06Z</time>
      </trkpt>
      <trkpt lat="44.33446" lon="3.83235">
        <ele>1169.1</ele>
        <time>2012-06-17T09:57:07Z</time>
      </trkpt>
      <trkpt lat="44.33442" lon="3.83232">
        <ele>1168.14</ele>
        <time>2012-06-17T09:57:08Z</time>
      </trkpt>
      <trkpt lat="44.33438" lon="3.83229">
        <ele>1167.18</ele>
        <time>2012-06-17T09:57:09Z</time>
      </trkpt>
      <trkpt lat="44.33434" lon="3.83226">
        <ele>1166.7</ele>
        <time>2012-06-17T09:57:10Z</time>
      </trkpt>
      <trkpt lat="44.33431" lon="3.83225">
        <ele>1165.26</ele>
        <time>2012-06-17T09:57:11Z</time>
      </trkpt>
      <trkpt lat="44.33428" lon="3.83225">
        <ele>1164.29</ele>
        <time>2012-06-17T09:57:12Z</time>
      </trkpt>
      <trkpt lat="44.33425" lon="3.83224">
        <ele>1163.81</ele>
        <time>2012-06-17T09:57:13Z</time>
      </trkpt>
      <trkpt lat="44.33422" lon="3.83223">
        <ele>1163.81</ele>
        <time>2012-06-17T09:57:14Z</time>
      </trkpt>
      <trkpt lat="44.33419" lon="3.8322">
        <ele>1162.37</ele>
        <time>2012-06-17T09:57:15Z</time>
      </trkpt>
      <trkpt lat="44.33416" lon="3.83218">
        <ele>1161.41</ele>
        <time>2012-06-17T09:57:16Z</time>
      </trkpt>
      <trkpt lat="44.33415" lon="3.83215">
        <ele>1161.41</ele>
        <time>2012-06-17T09:57:17Z</time>
      </trkpt>
      <trkpt lat="44.33415" lon="3.83213">
        <ele>1160.93</ele>
        <time>2012-06-17T09:57:18Z</time>
      </trkpt>
      <trkpt lat="44.33413" lon="3.83213">
        <ele>1159.97</ele>
        <time>2012-06-17T09:57:19Z</time>
      </trkpt>
      <trkpt lat="44.33412" lon="3.83213">
        <ele>1159.49</ele>
        <time>2012-06-17T09:57:20Z</time>
      </trkpt>
      <trkpt lat="44.33413" lon="3.83211">
        <ele>1159.97</ele>
        <time>2012-06-17T09:57:31Z</time>
      </trkpt>
      <trkpt lat="44.33412" lon="3.83209">
        <ele>1159.97</ele>
        <time>2012-06-17T09:57:33Z</time>
      </trkpt>
      <trkpt lat="44.33411" lon="3.83206">
        <ele>1159.49</ele>
        <time>2012-06-17T09:57:34Z</time>
      </trkpt>
      <trkpt lat="44.33408" lon="3.83195">
        <ele>1159.49</ele>
        <time>2012-06-17T09:57:36Z</time>
      </trkpt>
      <trkpt lat="44.33406" lon="3.83189">
        <ele>1159.01</ele>
        <time>2012-06-17T09:57:37Z</time>
      </trkpt>
      <trkpt lat="44.33395" lon="3.83166">
        <ele>1157.08</ele>
        <time>2012-06-17T09:57:40Z</time>
      </trkpt>
      <trkpt lat="44.3339" lon="3.83159">
        <ele>1156.12</ele>
        <time>2012-06-17T09:57:41Z</time>
      </trkpt>
      <trkpt lat="44.33385" lon="3.83151">
        <ele>1155.64</ele>
        <time>2012-06-17T09:57:42Z</time>
      </trkpt>
      <trkpt lat="44.33369" lon="3.83129">
        <ele>1155.16</ele>
        <time>2012-06-17T09:57:45Z</time>
      </trkpt>
      <trkpt lat="44.33358" lon="3.83117">
        <ele>1153.72</ele>
        <time>2012-06-17T09:57:47Z</time>
      </trkpt>
      <trkpt lat="44.33352" lon="3.83112">
        <ele>1153.72</ele>
        <time>2012-06-17T09:57:48Z</time>
      </trkpt>
      <trkpt lat="44.3334" lon="3.83105">
        <ele>1153.24</ele>
        <time>2012-06-17T09:57:50Z</time>
      </trkpt>
      <trkpt lat="44.33335" lon="3.83101">
        <ele>1152.76</ele>
        <time>2012-06-17T09:57:51Z</time>
      </trkpt>
      <trkpt lat="44.33325" lon="3.83097">
        <ele>1153.24</ele>
        <time>2012-06-17T09:57:53Z</time>
      </trkpt>
      <trkpt lat="44.33299" lon="3.83094">
        <ele>1153.72</ele>
        <time>2012-06-17T09:58:01Z</time>
      </trkpt>
      <trkpt lat="44.33279" lon="3.83088">
        <ele>1155.16</ele>
        <time>2012-06-17T09:58:13Z</time>
      </trkpt>
      <trkpt lat="44.33274" lon="3.83084">
        <ele>1156.12</ele>
        <time>2012-06-17T09:58:17Z</time>
      </trkpt>
      <trkpt lat="44.33273" lon="3.83083">
        <ele>1156.12</ele>
        <time>2012-06-17T09:58:18Z</time>
      </trkpt>
      <trkpt lat="44.3327" lon="3.83079">
        <ele>1155.64</ele>
        <time>2012-06-17T09:58:20Z</time>
      </trkpt>
      <trkpt lat="44.33268" lon="3.83079">
        <ele>1155.64</ele>
        <time>2012-06-17T09:58:21Z</time>
      </trkpt>
      <trkpt lat="44.33267" lon="3.83079">
        <ele>1156.12</ele>
        <time>2012-06-17T09:58:22Z</time>
      </trkpt>
      <trkpt lat="44.33261" lon="3.83078">
        <ele>1156.6</ele>
        <time>2012-06-17T09:58:26Z</time>
      </trkpt>
      <trkpt lat="44.33259" lon="3.83077">
        <ele>1156.6</ele>
        <time>2012-06-17T09:58:27Z</time>
      </trkpt>
      <trkpt lat="44.33258" lon="3.83077">
        <ele>1156.6</ele>
        <time>2012-06-17T09:58:28Z</time>
      </trkpt>
      <trkpt lat="44.33233" lon="3.83067">
        <ele>1158.05</ele>
        <time>2012-06-17T09:58:42Z</time>
      </trkpt>
      <trkpt lat="44.3321" lon="3.83057">
        <ele>1158.53</ele>
        <time>2012-06-17T09:58:52Z</time>
      </trkpt>
      <trkpt lat="44.33208" lon="3.83055">
        <ele>1159.01</ele>
        <time>2012-06-17T09:58:53Z</time>
      </trkpt>
      <trkpt lat="44.33206" lon="3.83054">
        <ele>1159.01</ele>
        <time>2012-06-17T09:58:54Z</time>
      </trkpt>
      <trkpt lat="44.33203" lon="3.83054">
        <ele>1159.49</ele>
        <time>2012-06-17T09:58:55Z</time>
      </trkpt>
      <trkpt lat="44.332" lon="3.83053">
        <ele>1159.49</ele>
        <time>2012-06-17T09:58:56Z</time>
      </trkpt>
      <trkpt lat="44.33197" lon="3.83052">
        <ele>1159.97</ele>
        <time>2012-06-17T09:58:57Z</time>
      </trkpt>
      <trkpt lat="44.33194" lon="3.83052">
        <ele>1159.49</ele>
        <time>2012-06-17T09:58:58Z</time>
      </trkpt>
      <trkpt lat="44.33165" lon="3.8304">
        <ele>1160.45</ele>
        <time>2012-06-17T09:59:12Z</time>
      </trkpt>
      <trkpt lat="44.33147" lon="3.83033">
        <ele>1159.49</ele>
        <time>2012-06-17T09:59:23Z</time>
      </trkpt>
      <trkpt lat="44.33146" lon="3.83033">
        <ele>1159.49</ele>
        <time>2012-06-17T09:59:24Z</time>
      </trkpt>
      <trkpt lat="44.33145" lon="3.83033">
        <ele>1159.49</ele>
        <time>2012-06-17T09:59:25Z</time>
      </trkpt>
      <trkpt lat="44.33143" lon="3.83033">
        <ele>1159.49</ele>
        <time>2012-06-17T09:59:26Z</time>
      </trkpt>
      <trkpt lat="44.33143" lon="3.83033">
        <ele>1159.01</ele>
        <time>2012-06-17T09:59:39Z</time>
      </trkpt>
      <trkpt lat="44.33143" lon="3.83033">
        <ele>1159.01</ele>
        <time>2012-06-17T09:59:45Z</time>
      </trkpt>
      <trkpt lat="44.33141" lon="3.83033">
        <ele>1158.53</ele>
        <time>2012-06-17T09:59:46Z</time>
      </trkpt>
      <trkpt lat="44.33138" lon="3.83032">
        <ele>1159.01</ele>
        <time>2012-06-17T09:59:47Z</time>
      </trkpt>
      <trkpt lat="44.33127" lon="3.83028">
        <ele>1158.53</ele>
        <time>2012-06-17T09:59:50Z</time>
      </trkpt>
      <trkpt lat="44.33122" lon="3.83026">
        <ele>1158.05</ele>
        <time>2012-06-17T09:59:51Z</time>
      </trkpt>
      <trkpt lat="44.33109" lon="3.8302">
        <ele>1157.56</ele>
        <time>2012-06-17T09:59:54Z</time>
      </trkpt>
      <trkpt lat="44.33071" lon="3.82998">
        <ele>1157.56</ele>
        <time>2012-06-17T10:00:01Z</time>
      </trkpt>
      <trkpt lat="44.33047" lon="3.82974">
        <ele>1156.6</ele>
        <time>2012-06-17T10:00:06Z</time>
      </trkpt>
      <trkpt lat="44.33014" lon="3.82932">
        <ele>1156.12</ele>
        <time>2012-06-17T10:00:15Z</time>
      </trkpt>
      <trkpt lat="44.32985" lon="3.82885">
        <ele>1154.2</ele>
        <time>2012-06-17T10:00:23Z</time>
      </trkpt>
      <trkpt lat="44.32979" lon="3.82868">
        <ele>1154.2</ele>
        <time>2012-06-17T10:00:25Z</time>
      </trkpt>
      <trkpt lat="44.32976" lon="3.82858">
        <ele>1154.68</ele>
        <time>2012-06-17T10:00:26Z</time>
      </trkpt>
      <trkpt lat="44.32974" lon="3.82848">
        <ele>1154.2</ele>
        <time>2012-06-17T10:00:27Z</time>
      </trkpt>
      <trkpt lat="44.32973" lon="3.82838">
        <ele>1154.68</ele>
        <time>2012-06-17T10:00:28Z</time>
      </trkpt>
      <trkpt lat="44.32972" lon="3.82828">
        <ele>1154.2</ele>
        <time>2012-06-17T10:00:29Z</time>
      </trkpt>
      <trkpt lat="44.32971" lon="3.82818">
        <ele>1153.24</ele>
        <time>2012-06-17T10:00:30Z</time>
      </trkpt>
      <trkpt lat="44.32968" lon="3.82808">
        <ele>1152.28</ele>
        <time>2012-06-17T10:00:31Z</time>
      </trkpt>
      <trkpt lat="44.32965" lon="3.828">
        <ele>1151.32</ele>
        <time>2012-06-17T10:00:32Z</time>
      </trkpt>
      <trkpt lat="44.32961" lon="3.82792">
        <ele>1151.32</ele>
        <time>2012-06-17T10:00:33Z</time>
      </trkpt>
      <trkpt lat="44.32957" lon="3.82784">
        <ele>1150.84</ele>
        <time>2012-06-17T10:00:34Z</time>
      </trkpt>
      <trkpt lat="44.32954" lon="3.82775">
        <ele>1150.35</ele>
        <time>2012-06-17T10:00:35Z</time>
      </trkpt>
      <trkpt lat="44.32951" lon="3.82764">
        <ele>1149.39</ele>
        <time>2012-06-17T10:00:36Z</time>
      </trkpt>
      <trkpt lat="44.32948" lon="3.82753">
        <ele>1148.91</ele>
        <time>2012-06-17T10:00:37Z</time>
      </trkpt>
      <trkpt lat="44.32946" lon="3.82741">
        <ele>1148.91</ele>
        <time>2012-06-17T10:00:38Z</time>
      </trkpt>
      <trkpt lat="44.32933" lon="3.82684">
        <ele>1146.03</ele>
        <time>2012-06-17T10:00:43Z</time>
      </trkpt>
      <trkpt lat="44.32914" lon="3.82626">
        <ele>1144.11</ele>
        <time>2012-06-17T10:00:48Z</time>
      </trkpt>
      <trkpt lat="44.3291" lon="3.82615">
        <ele>1143.14</ele>
        <time>2012-06-17T10:00:49Z</time>
      </trkpt>
      <trkpt lat="44.32905" lon="3.82604">
        <ele>1142.66</ele>
        <time>2012-06-17T10:00:50Z</time>
      </trkpt>
      <trkpt lat="44.32899" lon="3.82584">
        <ele>1140.74</ele>
        <time>2012-06-17T10:00:52Z</time>
      </trkpt>
      <trkpt lat="44.32899" lon="3.82575">
        <ele>1139.78</ele>
        <time>2012-06-17T10:00:53Z</time>
      </trkpt>
      <trkpt lat="44.32902" lon="3.82566">
        <ele>1139.3</ele>
        <time>2012-06-17T10:00:54Z</time>
      </trkpt>
      <trkpt lat="44.32909" lon="3.82548">
        <ele>1138.34</ele>
        <time>2012-06-17T10:00:56Z</time>
      </trkpt>
      <trkpt lat="44.32911" lon="3.82539">
        <ele>1137.86</ele>
        <time>2012-06-17T10:00:57Z</time>
      </trkpt>
      <trkpt lat="44.32912" lon="3.82528">
        <ele>1136.9</ele>
        <time>2012-06-17T10:00:58Z</time>
      </trkpt>
      <trkpt lat="44.32912" lon="3.82517">
        <ele>1137.38</ele>
        <time>2012-06-17T10:00:59Z</time>
      </trkpt>
      <trkpt lat="44.32912" lon="3.82505">
        <ele>1136.9</ele>
        <time>2012-06-17T10:01:00Z</time>
      </trkpt>
      <trkpt lat="44.32911" lon="3.82492">
        <ele>1135.94</ele>
        <time>2012-06-17T10:01:01Z</time>
      </trkpt>
      <trkpt lat="44.32908" lon="3.82468">
        <ele>1135.45</ele>
        <time>2012-06-17T10:01:03Z</time>
      </trkpt>
      <trkpt lat="44.32907" lon="3.82456">
        <ele>1134.97</ele>
        <time>2012-06-17T10:01:04Z</time>
      </trkpt>
      <trkpt lat="44.32908" lon="3.82445">
        <ele>1133.53</ele>
        <time>2012-06-17T10:01:05Z</time>
      </trkpt>
      <trkpt lat="44.32911" lon="3.82435">
        <ele>1133.53</ele>
        <time>2012-06-17T10:01:06Z</time>
      </trkpt>
      <trkpt lat="44.32925" lon="3.82402">
        <ele>1131.13</ele>
        <time>2012-06-17T10:01:09Z</time>
      </trkpt>
      <trkpt lat="44.32928" lon="3.8239">
        <ele>1130.65</ele>
        <time>2012-06-17T10:01:10Z</time>
      </trkpt>
      <trkpt lat="44.32934" lon="3.8235">
        <ele>1129.21</ele>
        <time>2012-06-17T10:01:13Z</time>
      </trkpt>
      <trkpt lat="44.32944" lon="3.82301">
        <ele>1127.28</ele>
        <time>2012-06-17T10:01:17Z</time>
      </trkpt>
      <trkpt lat="44.32959" lon="3.82236">
        <ele>1124.88</ele>
        <time>2012-06-17T10:01:22Z</time>
      </trkpt>
      <trkpt lat="44.32991" lon="3.82093">
        <ele>1122.48</ele>
        <time>2012-06-17T10:01:33Z</time>
      </trkpt>
      <trkpt lat="44.32993" lon="3.8208">
        <ele>1121.03</ele>
        <time>2012-06-17T10:01:34Z</time>
      </trkpt>
      <trkpt lat="44.32998" lon="3.82044">
        <ele>1121.52</ele>
        <time>2012-06-17T10:01:37Z</time>
      </trkpt>
      <trkpt lat="44.33001" lon="3.82021">
        <ele>1121.52</ele>
        <time>2012-06-17T10:01:39Z</time>
      </trkpt>
      <trkpt lat="44.33002" lon="3.82009">
        <ele>1121.52</ele>
        <time>2012-06-17T10:01:40Z</time>
      </trkpt>
      <trkpt lat="44.33001" lon="3.81997">
        <ele>1121.03</ele>
        <time>2012-06-17T10:01:41Z</time>
      </trkpt>
      <trkpt lat="44.32997" lon="3.81941">
        <ele>1120.55</ele>
        <time>2012-06-17T10:01:46Z</time>
      </trkpt>
      <trkpt lat="44.32997" lon="3.8193">
        <ele>1120.07</ele>
        <time>2012-06-17T10:01:47Z</time>
      </trkpt>
      <trkpt lat="44.32998" lon="3.81918">
        <ele>1119.59</ele>
        <time>2012-06-17T10:01:48Z</time>
      </trkpt>
      <trkpt lat="44.33" lon="3.81895">
        <ele>1120.07</ele>
        <time>2012-06-17T10:01:50Z</time>
      </trkpt>
      <trkpt lat="44.32996" lon="3.81792">
        <ele>1116.23</ele>
        <time>2012-06-17T10:01:59Z</time>
      </trkpt>
      <trkpt lat="44.32995" lon="3.81784">
        <ele>1116.23</ele>
        <time>2012-06-17T10:02:00Z</time>
      </trkpt>
      <trkpt lat="44.32994" lon="3.81774">
        <ele>1116.23</ele>
        <time>2012-06-17T10:02:01Z</time>
      </trkpt>
      <trkpt lat="44.32986" lon="3.81746">
        <ele>1113.82</ele>
        <time>2012-06-17T10:02:04Z</time>
      </trkpt>
      <trkpt lat="44.32983" lon="3.81737">
        <ele>1113.34</ele>
        <time>2012-06-17T10:02:05Z</time>
      </trkpt>
      <trkpt lat="44.32979" lon="3.81728">
        <ele>1112.86</ele>
        <time>2012-06-17T10:02:06Z</time>
      </trkpt>
      <trkpt lat="44.32972" lon="3.81721">
        <ele>1111.9</ele>
        <time>2012-06-17T10:02:07Z</time>
      </trkpt>
      <trkpt lat="44.32965" lon="3.81714">
        <ele>1110.94</ele>
        <time>2012-06-17T10:02:08Z</time>
      </trkpt>
      <trkpt lat="44.32958" lon="3.81707">
        <ele>1110.46</ele>
        <time>2012-06-17T10:02:09Z</time>
      </trkpt>
      <trkpt lat="44.32952" lon="3.81701">
        <ele>1109.5</ele>
        <time>2012-06-17T10:02:10Z</time>
      </trkpt>
      <trkpt lat="44.32946" lon="3.81693">
        <ele>1109.02</ele>
        <time>2012-06-17T10:02:11Z</time>
      </trkpt>
      <trkpt lat="44.32941" lon="3.81684">
        <ele>1108.54</ele>
        <time>2012-06-17T10:02:12Z</time>
      </trkpt>
      <trkpt lat="44.32934" lon="3.81675">
        <ele>1107.58</ele>
        <time>2012-06-17T10:02:13Z</time>
      </trkpt>
      <trkpt lat="44.32926" lon="3.81667">
        <ele>1107.1</ele>
        <time>2012-06-17T10:02:14Z</time>
      </trkpt>
      <trkpt lat="44.32918" lon="3.81659">
        <ele>1106.13</ele>
        <time>2012-06-17T10:02:15Z</time>
      </trkpt>
      <trkpt lat="44.32909" lon="3.81652">
        <ele>1105.65</ele>
        <time>2012-06-17T10:02:16Z</time>
      </trkpt>
      <trkpt lat="44.329" lon="3.81646">
        <ele>1103.73</ele>
        <time>2012-06-17T10:02:17Z</time>
      </trkpt>
      <trkpt lat="44.32892" lon="3.81641">
        <ele>1103.25</ele>
        <time>2012-06-17T10:02:18Z</time>
      </trkpt>
      <trkpt lat="44.32883" lon="3.81637">
        <ele>1102.29</ele>
        <time>2012-06-17T10:02:19Z</time>
      </trkpt>
      <trkpt lat="44.32857" lon="3.81628">
        <ele>1099.89</ele>
        <time>2012-06-17T10:02:22Z</time>
      </trkpt>
      <trkpt lat="44.3285" lon="3.81622">
        <ele>1099.89</ele>
        <time>2012-06-17T10:02:23Z</time>
      </trkpt>
      <trkpt lat="44.32842" lon="3.81618">
        <ele>1099.89</ele>
        <time>2012-06-17T10:02:24Z</time>
      </trkpt>
      <trkpt lat="44.32834" lon="3.81614">
        <ele>1099.89</ele>
        <time>2012-06-17T10:02:25Z</time>
      </trkpt>
      <trkpt lat="44.32825" lon="3.81613">
        <ele>1099.89</ele>
        <time>2012-06-17T10:02:26Z</time>
      </trkpt>
      <trkpt lat="44.32816" lon="3.81612">
        <ele>1099.4</ele>
        <time>2012-06-17T10:02:27Z</time>
      </trkpt>
      <trkpt lat="44.32809" lon="3.81611">
        <ele>1098.92</ele>
        <time>2012-06-17T10:02:28Z</time>
      </trkpt>
      <trkpt lat="44.32801" lon="3.81609">
        <ele>1098.44</ele>
        <time>2012-06-17T10:02:29Z</time>
      </trkpt>
      <trkpt lat="44.32795" lon="3.81607">
        <ele>1098.44</ele>
        <time>2012-06-17T10:02:30Z</time>
      </trkpt>
      <trkpt lat="44.32789" lon="3.81605">
        <ele>1097.48</ele>
        <time>2012-06-17T10:02:31Z</time>
      </trkpt>
      <trkpt lat="44.32784" lon="3.81604">
        <ele>1096.52</ele>
        <time>2012-06-17T10:02:32Z</time>
      </trkpt>
      <trkpt lat="44.32779" lon="3.81603">
        <ele>1095.56</ele>
        <time>2012-06-17T10:02:33Z</time>
      </trkpt>
      <trkpt lat="44.32775" lon="3.81601">
        <ele>1095.08</ele>
        <time>2012-06-17T10:02:34Z</time>
      </trkpt>
      <trkpt lat="44.32772" lon="3.816">
        <ele>1094.6</ele>
        <time>2012-06-17T10:02:35Z</time>
      </trkpt>
      <trkpt lat="44.32768" lon="3.816">
        <ele>1094.12</ele>
        <time>2012-06-17T10:02:36Z</time>
      </trkpt>
      <trkpt lat="44.32764" lon="3.81599">
        <ele>1093.16</ele>
        <time>2012-06-17T10:02:38Z</time>
      </trkpt>
      <trkpt lat="44.32763" lon="3.81599">
        <ele>1093.16</ele>
        <time>2012-06-17T10:02:39Z</time>
      </trkpt>
      <trkpt lat="44.32761" lon="3.81599">
        <ele>1092.68</ele>
        <time>2012-06-17T10:02:40Z</time>
      </trkpt>
      <trkpt lat="44.32758" lon="3.81599">
        <ele>1092.68</ele>
        <time>2012-06-17T10:02:41Z</time>
      </trkpt>
      <trkpt lat="44.32756" lon="3.816">
        <ele>1092.2</ele>
        <time>2012-06-17T10:02:42Z</time>
      </trkpt>
      <trkpt lat="44.32753" lon="3.81601">
        <ele>1092.2</ele>
        <time>2012-06-17T10:02:43Z</time>
      </trkpt>
      <trkpt lat="44.32751" lon="3.81602">
        <ele>1092.2</ele>
        <time>2012-06-17T10:02:44Z</time>
      </trkpt>
      <trkpt lat="44.32747" lon="3.81603">
        <ele>1092.68</ele>
        <time>2012-06-17T10:02:45Z</time>
      </trkpt>
      <trkpt lat="44.32744" lon="3.81605">
        <ele>1092.2</ele>
        <time>2012-06-17T10:02:46Z</time>
      </trkpt>
      <trkpt lat="44.32713" lon="3.81622">
        <ele>1091.23</ele>
        <time>2012-06-17T10:02:57Z</time>
      </trkpt>
      <trkpt lat="44.32712" lon="3.81624">
        <ele>1091.23</ele>
        <time>2012-06-17T10:02:58Z</time>
      </trkpt>
      <trkpt lat="44.32711" lon="3.81625">
        <ele>1091.71</ele>
        <time>2012-06-17T10:02:59Z</time>
      </trkpt>
      <trkpt lat="44.32711" lon="3.81628">
        <ele>1091.71</ele>
        <time>2012-06-17T10:03:10Z</time>
      </trkpt>
      <trkpt lat="44.32711" lon="3.81628">
        <ele>1091.23</ele>
        <time>2012-06-17T10:03:38Z</time>
      </trkpt>
      <trkpt lat="44.32711" lon="3.81627">
        <ele>1090.75</ele>
        <time>2012-06-17T10:04:05Z</time>
      </trkpt>
      <trkpt lat="44.32709" lon="3.81625">
        <ele>1090.27</ele>
        <time>2012-06-17T10:04:33Z</time>
      </trkpt>
      <trkpt lat="44.32704" lon="3.81621">
        <ele>1090.75</ele>
        <time>2012-06-17T10:04:49Z</time>
      </trkpt>
      <trkpt lat="44.32701" lon="3.81622">
        <ele>1090.75</ele>
        <time>2012-06-17T10:05:18Z</time>
      </trkpt>
      <trkpt lat="44.327" lon="3.81622">
        <ele>1090.27</ele>
        <time>2012-06-17T10:05:50Z</time>
      </trkpt>
      <trkpt lat="44.327" lon="3.81621">
        <ele>1090.75</ele>
        <time>2012-06-17T10:06:12Z</time>
      </trkpt>
      <trkpt lat="44.32699" lon="3.81621">
        <ele>1091.23</ele>
        <time>2012-06-17T10:06:34Z</time>
      </trkpt>
      <trkpt lat="44.32698" lon="3.81624">
        <ele>1090.27</ele>
        <time>2012-06-17T10:06:56Z</time>
      </trkpt>
      <trkpt lat="44.32691" lon="3.81628">
        <ele>1090.75</ele>
        <time>2012-06-17T10:07:02Z</time>
      </trkpt>
      <trkpt lat="44.32689" lon="3.8163">
        <ele>1090.27</ele>
        <time>2012-06-17T10:07:03Z</time>
      </trkpt>
      <trkpt lat="44.32677" lon="3.81638">
        <ele>1090.27</ele>
        <time>2012-06-17T10:07:10Z</time>
      </trkpt>
      <trkpt lat="44.32659" lon="3.81641">
        <ele>1090.27</ele>
        <time>2012-06-17T10:07:20Z</time>
      </trkpt>
      <trkpt lat="44.32658" lon="3.8164">
        <ele>1089.79</ele>
        <time>2012-06-17T10:07:33Z</time>
      </trkpt>
      <trkpt lat="44.32658" lon="3.81642">
        <ele>1089.79</ele>
        <time>2012-06-17T10:07:58Z</time>
      </trkpt>
      <trkpt lat="44.32659" lon="3.81644">
        <ele>1089.79</ele>
        <time>2012-06-17T10:08:29Z</time>
      </trkpt>
      <trkpt lat="44.32659" lon="3.81645">
        <ele>1089.79</ele>
        <time>2012-06-17T10:08:58Z</time>
      </trkpt>
      <trkpt lat="44.32659" lon="3.81644">
        <ele>1089.31</ele>
        <time>2012-06-17T10:09:29Z</time>
      </trkpt>
      <trkpt lat="44.32659" lon="3.81645">
        <ele>1089.31</ele>
        <time>2012-06-17T10:10:04Z</time>
      </trkpt>
      <trkpt lat="44.32659" lon="3.81646">
        <ele>1089.79</ele>
        <time>2012-06-17T10:10:45Z</time>
      </trkpt>
      <trkpt lat="44.32658" lon="3.81646">
        <ele>1089.79</ele>
        <time>2012-06-17T10:11:14Z</time>
      </trkpt>
      <trkpt lat="44.32656" lon="3.8165">
        <ele>1089.79</ele>
        <time>2012-06-17T10:11:17Z</time>
      </trkpt>
      <trkpt lat="44.32655" lon="3.81652">
        <ele>1089.31</ele>
        <time>2012-06-17T10:11:18Z</time>
      </trkpt>
      <trkpt lat="44.32629" lon="3.81686">
        <ele>1092.2</ele>
        <time>2012-06-17T10:11:29Z</time>
      </trkpt>
      <trkpt lat="44.32627" lon="3.8169">
        <ele>1092.2</ele>
        <time>2012-06-17T10:11:30Z</time>
      </trkpt>
      <trkpt lat="44.32624" lon="3.81695">
        <ele>1092.68</ele>
        <time>2012-06-17T10:11:31Z</time>
      </trkpt>
      <trkpt lat="44.32622" lon="3.817">
        <ele>1092.68</ele>
        <time>2012-06-17T10:11:32Z</time>
      </trkpt>
      <trkpt lat="44.32592" lon="3.81763">
        <ele>1093.64</ele>
        <time>2012-06-17T10:11:44Z</time>
      </trkpt>
      <trkpt lat="44.32571" lon="3.81802">
        <ele>1092.68</ele>
        <time>2012-06-17T10:11:56Z</time>
      </trkpt>
      <trkpt lat="44.3257" lon="3.81801">
        <ele>1092.68</ele>
        <time>2012-06-17T10:12:14Z</time>
      </trkpt>
      <trkpt lat="44.32568" lon="3.818">
        <ele>1092.2</ele>
        <time>2012-06-17T10:12:25Z</time>
      </trkpt>
      <trkpt lat="44.32568" lon="3.81799">
        <ele>1092.68</ele>
        <time>2012-06-17T10:12:26Z</time>
      </trkpt>
      <trkpt lat="44.32569" lon="3.81797">
        <ele>1092.68</ele>
        <time>2012-06-17T10:12:27Z</time>
      </trkpt>
      <trkpt lat="44.3257" lon="3.81796">
        <ele>1092.68</ele>
        <time>2012-06-17T10:12:28Z</time>
      </trkpt>
      <trkpt lat="44.32572" lon="3.81796">
        <ele>1092.68</ele>
        <time>2012-06-17T10:12:29Z</time>
      </trkpt>
      <trkpt lat="44.32584" lon="3.81782">
        <ele>1092.68</ele>
        <time>2012-06-17T10:12:39Z</time>
      </trkpt>
      <trkpt lat="44.32589" lon="3.81776">
        <ele>1093.16</ele>
        <time>2012-06-17T10:12:50Z</time>
      </trkpt>
      <trkpt lat="44.32589" lon="3.81773">
        <ele>1093.16</ele>
        <time>2012-06-17T10:13:16Z</time>
      </trkpt>
      <trkpt lat="44.3259" lon="3.81775">
        <ele>1092.68</ele>
        <time>2012-06-17T10:13:54Z</time>
      </trkpt>
      <trkpt lat="44.3259" lon="3.81775">
        <ele>1092.68</ele>
        <time>2012-06-17T10:14:23Z</time>
      </trkpt>
      <trkpt lat="44.32589" lon="3.81776">
        <ele>1093.16</ele>
        <time>2012-06-17T10:14:26Z</time>
      </trkpt>
      <trkpt lat="44.32588" lon="3.81777">
        <ele>1092.68</ele>
        <time>2012-06-17T10:14:27Z</time>
      </trkpt>
      <trkpt lat="44.32587" lon="3.81778">
        <ele>1093.16</ele>
        <time>2012-06-17T10:14:28Z</time>
      </trkpt>
      <trkpt lat="44.32586" lon="3.8178">
        <ele>1092.68</ele>
        <time>2012-06-17T10:14:29Z</time>
      </trkpt>
      <trkpt lat="44.32585" lon="3.81781">
        <ele>1093.16</ele>
        <time>2012-06-17T10:14:30Z</time>
      </trkpt>
      <trkpt lat="44.32584" lon="3.81783">
        <ele>1092.68</ele>
        <time>2012-06-17T10:14:31Z</time>
      </trkpt>
      <trkpt lat="44.32583" lon="3.81785">
        <ele>1092.68</ele>
        <time>2012-06-17T10:14:32Z</time>
      </trkpt>
      <trkpt lat="44.32582" lon="3.81787">
        <ele>1092.2</ele>
        <time>2012-06-17T10:14:33Z</time>
      </trkpt>
      <trkpt lat="44.32581" lon="3.81789">
        <ele>1092.2</ele>
        <time>2012-06-17T10:14:34Z</time>
      </trkpt>
      <trkpt lat="44.3258" lon="3.81791">
        <ele>1093.16</ele>
        <time>2012-06-17T10:14:35Z</time>
      </trkpt>
      <trkpt lat="44.32579" lon="3.81792">
        <ele>1092.68</ele>
        <time>2012-06-17T10:14:36Z</time>
      </trkpt>
      <trkpt lat="44.32576" lon="3.81795">
        <ele>1092.68</ele>
        <time>2012-06-17T10:14:49Z</time>
      </trkpt>
      <trkpt lat="44.32576" lon="3.81797">
        <ele>1092.68</ele>
        <time>2012-06-17T10:15:14Z</time>
      </trkpt>
      <trkpt lat="44.32576" lon="3.81797">
        <ele>1092.2</ele>
        <time>2012-06-17T10:15:39Z</time>
      </trkpt>
      <trkpt lat="44.32576" lon="3.81796">
        <ele>1092.2</ele>
        <time>2012-06-17T10:16:04Z</time>
      </trkpt>
      <trkpt lat="44.32576" lon="3.81797">
        <ele>1091.71</ele>
        <time>2012-06-17T10:16:28Z</time>
      </trkpt>
      <trkpt lat="44.32575" lon="3.81797">
        <ele>1091.71</ele>
        <time>2012-06-17T10:16:58Z</time>
      </trkpt>
      <trkpt lat="44.32575" lon="3.81797">
        <ele>1092.2</ele>
        <time>2012-06-17T10:17:27Z</time>
      </trkpt>
      <trkpt lat="44.32574" lon="3.81797">
        <ele>1092.2</ele>
        <time>2012-06-17T10:17:53Z</time>
      </trkpt>
      <trkpt lat="44.32573" lon="3.81795">
        <ele>1091.71</ele>
        <time>2012-06-17T10:18:13Z</time>
      </trkpt>
      <trkpt lat="44.32574" lon="3.81793">
        <ele>1091.71</ele>
        <time>2012-06-17T10:18:14Z</time>
      </trkpt>
      <trkpt lat="44.32575" lon="3.81792">
        <ele>1092.2</ele>
        <time>2012-06-17T10:18:15Z</time>
      </trkpt>
      <trkpt lat="44.32577" lon="3.81791">
        <ele>1091.71</ele>
        <time>2012-06-17T10:18:16Z</time>
      </trkpt>
      <trkpt lat="44.32579" lon="3.81788">
        <ele>1092.2</ele>
        <time>2012-06-17T10:18:17Z</time>
      </trkpt>
      <trkpt lat="44.32581" lon="3.81786">
        <ele>1092.68</ele>
        <time>2012-06-17T10:18:18Z</time>
      </trkpt>
      <trkpt lat="44.32583" lon="3.81784">
        <ele>1092.2</ele>
        <time>2012-06-17T10:18:19Z</time>
      </trkpt>
      <trkpt lat="44.32586" lon="3.81781">
        <ele>1092.68</ele>
        <time>2012-06-17T10:18:20Z</time>
      </trkpt>
      <trkpt lat="44.32588" lon="3.81778">
        <ele>1092.2</ele>
        <time>2012-06-17T10:18:21Z</time>
      </trkpt>
      <trkpt lat="44.3259" lon="3.81774">
        <ele>1092.68</ele>
        <time>2012-06-17T10:18:22Z</time>
      </trkpt>
      <trkpt lat="44.32592" lon="3.8177">
        <ele>1092.68</ele>
        <time>2012-06-17T10:18:23Z</time>
      </trkpt>
      <trkpt lat="44.32595" lon="3.81765">
        <ele>1093.16</ele>
        <time>2012-06-17T10:18:24Z</time>
      </trkpt>
      <trkpt lat="44.32597" lon="3.81761">
        <ele>1092.68</ele>
        <time>2012-06-17T10:18:25Z</time>
      </trkpt>
      <trkpt lat="44.326" lon="3.81755">
        <ele>1092.68</ele>
        <time>2012-06-17T10:18:26Z</time>
      </trkpt>
      <trkpt lat="44.32602" lon="3.8175">
        <ele>1092.68</ele>
        <time>2012-06-17T10:18:27Z</time>
      </trkpt>
      <trkpt lat="44.32628" lon="3.81694">
        <ele>1092.2</ele>
        <time>2012-06-17T10:18:36Z</time>
      </trkpt>
      <trkpt lat="44.32656" lon="3.81654">
        <ele>1090.75</ele>
        <time>2012-06-17T10:18:43Z</time>
      </trkpt>
      <trkpt lat="44.32659" lon="3.81647">
        <ele>1090.27</ele>
        <time>2012-06-17T10:18:44Z</time>
      </trkpt>
      <trkpt lat="44.32671" lon="3.81614">
        <ele>1088.83</ele>
        <time>2012-06-17T10:18:48Z</time>
      </trkpt>
      <trkpt lat="44.32686" lon="3.81578">
        <ele>1086.91</ele>
        <time>2012-06-17T10:18:52Z</time>
      </trkpt>
      <trkpt lat="44.32693" lon="3.81558">
        <ele>1085.95</ele>
        <time>2012-06-17T10:18:54Z</time>
      </trkpt>
      <trkpt lat="44.32731" lon="3.81448">
        <ele>1084.02</ele>
        <time>2012-06-17T10:19:06Z</time>
      </trkpt>
      <trkpt lat="44.32734" lon="3.81442">
        <ele>1084.02</ele>
        <time>2012-06-17T10:19:07Z</time>
      </trkpt>
      <trkpt lat="44.32739" lon="3.81429">
        <ele>1084.99</ele>
        <time>2012-06-17T10:19:10Z</time>
      </trkpt>
      <trkpt lat="44.32741" lon="3.81426">
        <ele>1084.5</ele>
        <time>2012-06-17T10:19:11Z</time>
      </trkpt>
      <trkpt lat="44.32742" lon="3.81424">
        <ele>1084.5</ele>
        <time>2012-06-17T10:19:12Z</time>
      </trkpt>
      <trkpt lat="44.32744" lon="3.81422">
        <ele>1084.5</ele>
        <time>2012-06-17T10:19:13Z</time>
      </trkpt>
      <trkpt lat="44.32745" lon="3.81421">
        <ele>1084.99</ele>
        <time>2012-06-17T10:19:14Z</time>
      </trkpt>
      <trkpt lat="44.32746" lon="3.81419">
        <ele>1084.99</ele>
        <time>2012-06-17T10:19:15Z</time>
      </trkpt>
      <trkpt lat="44.32747" lon="3.81415">
        <ele>1084.99</ele>
        <time>2012-06-17T10:19:28Z</time>
      </trkpt>
      <trkpt lat="44.32746" lon="3.81418">
        <ele>1084.5</ele>
        <time>2012-06-17T10:19:41Z</time>
      </trkpt>
      <trkpt lat="44.32745" lon="3.81419">
        <ele>1084.5</ele>
        <time>2012-06-17T10:20:00Z</time>
      </trkpt>
      <trkpt lat="44.32745" lon="3.81418">
        <ele>1084.99</ele>
        <time>2012-06-17T10:20:16Z</time>
      </trkpt>
      <trkpt lat="44.32746" lon="3.81418">
        <ele>1084.5</ele>
        <time>2012-06-17T10:20:40Z</time>
      </trkpt>
      <trkpt lat="44.32748" lon="3.8142">
        <ele>1084.02</ele>
        <time>2012-06-17T10:21:04Z</time>
      </trkpt>
      <trkpt lat="44.32745" lon="3.8142">
        <ele>1084.5</ele>
        <time>2012-06-17T10:21:30Z</time>
      </trkpt>
      <trkpt lat="44.32744" lon="3.81419">
        <ele>1084.5</ele>
        <time>2012-06-17T10:21:57Z</time>
      </trkpt>
      <trkpt lat="44.32747" lon="3.81418">
        <ele>1085.47</ele>
        <time>2012-06-17T10:22:31Z</time>
      </trkpt>
      <trkpt lat="44.32747" lon="3.8142">
        <ele>1084.99</ele>
        <time>2012-06-17T10:23:04Z</time>
      </trkpt>
      <trkpt lat="44.32748" lon="3.81421">
        <ele>1084.99</ele>
        <time>2012-06-17T10:23:33Z</time>
      </trkpt>
      <trkpt lat="44.32749" lon="3.81421">
        <ele>1085.47</ele>
        <time>2012-06-17T10:24:06Z</time>
      </trkpt>
      <trkpt lat="44.32747" lon="3.81421">
        <ele>1085.47</ele>
        <time>2012-06-17T10:24:35Z</time>
      </trkpt>
      <trkpt lat="44.32746" lon="3.8142">
        <ele>1085.47</ele>
        <time>2012-06-17T10:25:05Z</time>
      </trkpt>
      <trkpt lat="44.32745" lon="3.81421">
        <ele>1085.47</ele>
        <time>2012-06-17T10:25:36Z</time>
      </trkpt>
      <trkpt lat="44.32747" lon="3.8142">
        <ele>1085.95</ele>
        <time>2012-06-17T10:26:10Z</time>
      </trkpt>
      <trkpt lat="44.32745" lon="3.81421">
        <ele>1085.95</ele>
        <time>2012-06-17T10:26:41Z</time>
      </trkpt>
      <trkpt lat="44.32744" lon="3.81423">
        <ele>1085.47</ele>
        <time>2012-06-17T10:27:13Z</time>
      </trkpt>
      <trkpt lat="44.32745" lon="3.81421">
        <ele>1085.95</ele>
        <time>2012-06-17T10:27:40Z</time>
      </trkpt>
      <trkpt lat="44.32746" lon="3.8142">
        <ele>1085.95</ele>
        <time>2012-06-17T10:28:09Z</time>
      </trkpt>
      <trkpt lat="44.32745" lon="3.81421">
        <ele>1086.43</ele>
        <time>2012-06-17T10:28:44Z</time>
      </trkpt>
      <trkpt lat="44.32747" lon="3.8142">
        <ele>1086.43</ele>
        <time>2012-06-17T10:29:18Z</time>
      </trkpt>
      <trkpt lat="44.32746" lon="3.81419">
        <ele>1086.43</ele>
        <time>2012-06-17T10:29:52Z</time>
      </trkpt>
      <trkpt lat="44.32746" lon="3.8142">
        <ele>1086.43</ele>
        <time>2012-06-17T10:30:25Z</time>
      </trkpt>
      <trkpt lat="44.32746" lon="3.81422">
        <ele>1086.43</ele>
        <time>2012-06-17T10:31:01Z</time>
      </trkpt>
      <trkpt lat="44.32745" lon="3.8142">
        <ele>1086.91</ele>
        <time>2012-06-17T10:31:29Z</time>
      </trkpt>
      <trkpt lat="44.32745" lon="3.81421">
        <ele>1086.43</ele>
        <time>2012-06-17T10:31:54Z</time>
      </trkpt>
      <trkpt lat="44.32745" lon="3.81421">
        <ele>1086.43</ele>
        <time>2012-06-17T10:32:25Z</time>
      </trkpt>
      <trkpt lat="44.32746" lon="3.81418">
        <ele>1085.95</ele>
        <time>2012-06-17T10:32:55Z</time>
      </trkpt>
      <trkpt lat="44.32746" lon="3.81418">
        <ele>1086.43</ele>
        <time>2012-06-17T10:33:23Z</time>
      </trkpt>
      <trkpt lat="44.32746" lon="3.81419">
        <ele>1086.43</ele>
        <time>2012-06-17T10:33:47Z</time>
      </trkpt>
      <trkpt lat="44.32746" lon="3.81419">
        <ele>1086.91</ele>
        <time>2012-06-17T10:34:18Z</time>
      </trkpt>
      <trkpt lat="44.32746" lon="3.81421">
        <ele>1086.91</ele>
        <time>2012-06-17T10:34:49Z</time>
      </trkpt>
      <trkpt lat="44.32747" lon="3.81421">
        <ele>1086.91</ele>
        <time>2012-06-17T10:35:14Z</time>
      </trkpt>
      <trkpt lat="44.32747" lon="3.81423">
        <ele>1086.91</ele>
        <time>2012-06-17T10:35:46Z</time>
      </trkpt>
      <trkpt lat="44.32747" lon="3.81424">
        <ele>1086.91</ele>
        <time>2012-06-17T10:36:18Z</time>
      </trkpt>
      <trkpt lat="44.32746" lon="3.81423">
        <ele>1086.91</ele>
        <time>2012-06-17T10:36:46Z</time>
      </trkpt>
      <trkpt lat="44.32745" lon="3.81422">
        <ele>1086.91</ele>
        <time>2012-06-17T10:37:22Z</time>
      </trkpt>
      <trkpt lat="44.32745" lon="3.81421">
        <ele>1086.91</ele>
        <time>2012-06-17T10:37:52Z</time>
      </trkpt>
      <trkpt lat="44.32746" lon="3.81422">
        <ele>1086.91</ele>
        <time>2012-06-17T10:38:25Z</time>
      </trkpt>
      <trkpt lat="44.32746" lon="3.81422">
        <ele>1086.91</ele>
        <time>2012-06-17T10:39:01Z</time>
      </trkpt>
      <trkpt lat="44.32748" lon="3.81421">
        <ele>1087.39</ele>
        <time>2012-06-17T10:39:34Z</time>
      </trkpt>
      <trkpt lat="44.32748" lon="3.81419">
        <ele>1086.91</ele>
        <time>2012-06-17T10:40:07Z</time>
      </trkpt>
      <trkpt lat="44.32749" lon="3.81421">
        <ele>1086.91</ele>
        <time>2012-06-17T10:40:36Z</time>
      </trkpt>
      <trkpt lat="44.3275" lon="3.81422">
        <ele>1087.39</ele>
        <time>2012-06-17T10:41:05Z</time>
      </trkpt>
      <trkpt lat="44.32749" lon="3.81423">
        <ele>1087.39</ele>
        <time>2012-06-17T10:41:30Z</time>
      </trkpt>
      <trkpt lat="44.32749" lon="3.81424">
        <ele>1087.39</ele>
        <time>2012-06-17T10:41:59Z</time>
      </trkpt>
      <trkpt lat="44.32749" lon="3.81423">
        <ele>1086.91</ele>
        <time>2012-06-17T10:42:25Z</time>
      </trkpt>
      <trkpt lat="44.32748" lon="3.81423">
        <ele>1086.91</ele>
        <time>2012-06-17T10:42:52Z</time>
      </trkpt>
      <trkpt lat="44.32747" lon="3.81422">
        <ele>1087.87</ele>
        <time>2012-06-17T10:43:19Z</time>
      </trkpt>
      <trkpt lat="44.32746" lon="3.81422">
        <ele>1086.91</ele>
        <time>2012-06-17T10:43:52Z</time>
      </trkpt>
      <trkpt lat="44.32745" lon="3.81422">
        <ele>1087.39</ele>
        <time>2012-06-17T10:44:21Z</time>
      </trkpt>
      <trkpt lat="44.32745" lon="3.81423">
        <ele>1087.39</ele>
        <time>2012-06-17T10:44:54Z</time>
      </trkpt>
      <trkpt lat="44.32745" lon="3.81423">
        <ele>1087.39</ele>
        <time>2012-06-17T10:45:25Z</time>
      </trkpt>
      <trkpt lat="44.32744" lon="3.81421">
        <ele>1086.91</ele>
        <time>2012-06-17T10:45:53Z</time>
      </trkpt>
      <trkpt lat="44.32744" lon="3.8142">
        <ele>1087.87</ele>
        <time>2012-06-17T10:46:24Z</time>
      </trkpt>
      <trkpt lat="44.32743" lon="3.8142">
        <ele>1087.87</ele>
        <time>2012-06-17T10:46:47Z</time>
      </trkpt>
      <trkpt lat="44.32743" lon="3.81419">
        <ele>1087.87</ele>
        <time>2012-06-17T10:47:11Z</time>
      </trkpt>
      <trkpt lat="44.32741" lon="3.81418">
        <ele>1087.39</ele>
        <time>2012-06-17T10:47:37Z</time>
      </trkpt>
      <trkpt lat="44.32741" lon="3.81419">
        <ele>1087.87</ele>
        <time>2012-06-17T10:48:03Z</time>
      </trkpt>
      <trkpt lat="44.32742" lon="3.81421">
        <ele>1086.91</ele>
        <time>2012-06-17T10:48:26Z</time>
      </trkpt>
      <trkpt lat="44.32741" lon="3.81423">
        <ele>1087.39</ele>
        <time>2012-06-17T10:48:51Z</time>
      </trkpt>
      <trkpt lat="44.32741" lon="3.81422">
        <ele>1086.91</ele>
        <time>2012-06-17T10:49:15Z</time>
      </trkpt>
      <trkpt lat="44.32741" lon="3.81423">
        <ele>1087.39</ele>
        <time>2012-06-17T10:49:43Z</time>
      </trkpt>
      <trkpt lat="44.32741" lon="3.81422">
        <ele>1087.39</ele>
        <time>2012-06-17T10:50:18Z</time>
      </trkpt>
      <trkpt lat="44.32738" lon="3.81421">
        <ele>1087.87</ele>
        <time>2012-06-17T10:50:47Z</time>
      </trkpt>
      <trkpt lat="44.32736" lon="3.81419">
        <ele>1087.87</ele>
        <time>2012-06-17T10:51:15Z</time>
      </trkpt>
      <trkpt lat="44.32736" lon="3.81419">
        <ele>1087.87</ele>
        <time>2012-06-17T10:51:36Z</time>
      </trkpt>
      <trkpt lat="44.32735" lon="3.81419">
        <ele>1087.39</ele>
        <time>2012-06-17T10:52:03Z</time>
      </trkpt>
      <trkpt lat="44.32737" lon="3.81416">
        <ele>1087.87</ele>
        <time>2012-06-17T10:52:27Z</time>
      </trkpt>
      <trkpt lat="44.32738" lon="3.81416">
        <ele>1087.87</ele>
        <time>2012-06-17T10:53:04Z</time>
      </trkpt>
      <trkpt lat="44.32739" lon="3.81417">
        <ele>1088.35</ele>
        <time>2012-06-17T10:53:34Z</time>
      </trkpt>
      <trkpt lat="44.3274" lon="3.81418">
        <ele>1087.87</ele>
        <time>2012-06-17T10:54:08Z</time>
      </trkpt>
      <trkpt lat="44.32738" lon="3.81417">
        <ele>1087.39</ele>
        <time>2012-06-17T10:54:40Z</time>
      </trkpt>
      <trkpt lat="44.32737" lon="3.81416">
        <ele>1087.87</ele>
        <time>2012-06-17T10:55:19Z</time>
      </trkpt>
      <trkpt lat="44.32738" lon="3.81418">
        <ele>1087.87</ele>
        <time>2012-06-17T10:55:51Z</time>
      </trkpt>
      <trkpt lat="44.32737" lon="3.81418">
        <ele>1087.87</ele>
        <time>2012-06-17T10:56:22Z</time>
      </trkpt>
      <trkpt lat="44.32736" lon="3.81417">
        <ele>1087.39</ele>
        <time>2012-06-17T10:56:54Z</time>
      </trkpt>
      <trkpt lat="44.32736" lon="3.81418">
        <ele>1087.87</ele>
        <time>2012-06-17T10:57:24Z</time>
      </trkpt>
      <trkpt lat="44.32733" lon="3.81414">
        <ele>1087.87</ele>
        <time>2012-06-17T10:58:04Z</time>
      </trkpt>
      <trkpt lat="44.32734" lon="3.81416">
        <ele>1087.87</ele>
        <time>2012-06-17T10:58:38Z</time>
      </trkpt>
      <trkpt lat="44.32735" lon="3.81419">
        <ele>1087.39</ele>
        <time>2012-06-17T10:59:09Z</time>
      </trkpt>
      <trkpt lat="44.32735" lon="3.81417">
        <ele>1087.87</ele>
        <time>2012-06-17T10:59:38Z</time>
      </trkpt>
      <trkpt lat="44.32735" lon="3.81416">
        <ele>1087.39</ele>
        <time>2012-06-17T11:00:11Z</time>
      </trkpt>
      <trkpt lat="44.32734" lon="3.81415">
        <ele>1087.39</ele>
        <time>2012-06-17T11:00:43Z</time>
      </trkpt>
      <trkpt lat="44.32735" lon="3.81417">
        <ele>1087.39</ele>
        <time>2012-06-17T11:01:21Z</time>
      </trkpt>
      <trkpt lat="44.32735" lon="3.81416">
        <ele>1087.39</ele>
        <time>2012-06-17T11:01:56Z</time>
      </trkpt>
      <trkpt lat="44.32736" lon="3.81413">
        <ele>1087.87</ele>
        <time>2012-06-17T11:02:29Z</time>
      </trkpt>
      <trkpt lat="44.32738" lon="3.81416">
        <ele>1087.87</ele>
        <time>2012-06-17T11:03:03Z</time>
      </trkpt>
      <trkpt lat="44.32739" lon="3.81417">
        <ele>1088.35</ele>
        <time>2012-06-17T11:03:38Z</time>
      </trkpt>
      <trkpt lat="44.3274" lon="3.81419">
        <ele>1087.87</ele>
        <time>2012-06-17T11:04:13Z</time>
      </trkpt>
      <trkpt lat="44.32743" lon="3.81419">
        <ele>1088.83</ele>
        <time>2012-06-17T11:04:49Z</time>
      </trkpt>
      <trkpt lat="44.3274" lon="3.81419">
        <ele>1087.87</ele>
        <time>2012-06-17T11:05:26Z</time>
      </trkpt>
      <trkpt lat="44.32737" lon="3.81417">
        <ele>1088.35</ele>
        <time>2012-06-17T11:06:01Z</time>
      </trkpt>
      <trkpt lat="44.32738" lon="3.81419">
        <ele>1087.87</ele>
        <time>2012-06-17T11:06:29Z</time>
      </trkpt>
      <trkpt lat="44.32738" lon="3.81418">
        <ele>1087.87</ele>
        <time>2012-06-17T11:06:53Z</time>
      </trkpt>
      <trkpt lat="44.32737" lon="3.81417">
        <ele>1087.87</ele>
        <time>2012-06-17T11:07:17Z</time>
      </trkpt>
      <trkpt lat="44.32737" lon="3.81417">
        <ele>1087.87</ele>
        <time>2012-06-17T11:07:48Z</time>
      </trkpt>
      <trkpt lat="44.32737" lon="3.81417">
        <ele>1087.39</ele>
        <time>2012-06-17T11:08:17Z</time>
      </trkpt>
      <trkpt lat="44.32737" lon="3.81418">
        <ele>1087.39</ele>
        <time>2012-06-17T11:08:45Z</time>
      </trkpt>
      <trkpt lat="44.32737" lon="3.81415">
        <ele>1086.91</ele>
        <time>2012-06-17T11:09:14Z</time>
      </trkpt>
      <trkpt lat="44.32738" lon="3.81416">
        <ele>1087.39</ele>
        <time>2012-06-17T11:09:43Z</time>
      </trkpt>
      <trkpt lat="44.32739" lon="3.81418">
        <ele>1087.39</ele>
        <time>2012-06-17T11:10:17Z</time>
      </trkpt>
      <trkpt lat="44.32741" lon="3.81417">
        <ele>1087.87</ele>
        <time>2012-06-17T11:10:50Z</time>
      </trkpt>
      <trkpt lat="44.32742" lon="3.81419">
        <ele>1087.39</ele>
        <time>2012-06-17T11:11:17Z</time>
      </trkpt>
      <trkpt lat="44.32744" lon="3.81422">
        <ele>1087.39</ele>
        <time>2012-06-17T11:11:51Z</time>
      </trkpt>
      <trkpt lat="44.32743" lon="3.81421">
        <ele>1087.39</ele>
        <time>2012-06-17T11:12:23Z</time>
      </trkpt>
      <trkpt lat="44.32744" lon="3.81419">
        <ele>1087.39</ele>
        <time>2012-06-17T11:12:53Z</time>
      </trkpt>
      <trkpt lat="44.32744" lon="3.81421">
        <ele>1087.39</ele>
        <time>2012-06-17T11:13:21Z</time>
      </trkpt>
      <trkpt lat="44.32745" lon="3.8142">
        <ele>1086.91</ele>
        <time>2012-06-17T11:13:53Z</time>
      </trkpt>
      <trkpt lat="44.32744" lon="3.8142">
        <ele>1087.39</ele>
        <time>2012-06-17T11:14:19Z</time>
      </trkpt>
      <trkpt lat="44.32743" lon="3.81419">
        <ele>1086.91</ele>
        <time>2012-06-17T11:14:46Z</time>
      </trkpt>
      <trkpt lat="44.32744" lon="3.81418">
        <ele>1087.39</ele>
        <time>2012-06-17T11:15:15Z</time>
      </trkpt>
      <trkpt lat="44.32744" lon="3.81419">
        <ele>1087.39</ele>
        <time>2012-06-17T11:15:49Z</time>
      </trkpt>
      <trkpt lat="44.32744" lon="3.81421">
        <ele>1086.91</ele>
        <time>2012-06-17T11:16:19Z</time>
      </trkpt>
      <trkpt lat="44.32742" lon="3.81421">
        <ele>1087.39</ele>
        <time>2012-06-17T11:16:48Z</time>
      </trkpt>
      <trkpt lat="44.32742" lon="3.81421">
        <ele>1087.39</ele>
        <time>2012-06-17T11:17:20Z</time>
      </trkpt>
      <trkpt lat="44.32741" lon="3.81419">
        <ele>1086.91</ele>
        <time>2012-06-17T11:17:52Z</time>
      </trkpt>
      <trkpt lat="44.32741" lon="3.8142">
        <ele>1087.39</ele>
        <time>2012-06-17T11:18:24Z</time>
      </trkpt>
      <trkpt lat="44.32743" lon="3.81418">
        <ele>1087.39</ele>
        <time>2012-06-17T11:18:55Z</time>
      </trkpt>
      <trkpt lat="44.32744" lon="3.8142">
        <ele>1087.39</ele>
        <time>2012-06-17T11:19:28Z</time>
      </trkpt>
      <trkpt lat="44.32743" lon="3.81422">
        <ele>1087.39</ele>
        <time>2012-06-17T11:20:01Z</time>
      </trkpt>
      <trkpt lat="44.3274" lon="3.8142">
        <ele>1086.91</ele>
        <time>2012-06-17T11:20:38Z</time>
      </trkpt>
      <trkpt lat="44.3274" lon="3.81419">
        <ele>1086.91</ele>
        <time>2012-06-17T11:21:08Z</time>
      </trkpt>
      <trkpt lat="44.3274" lon="3.81416">
        <ele>1086.43</ele>
        <time>2012-06-17T11:21:38Z</time>
      </trkpt>
      <trkpt lat="44.32739" lon="3.81417">
        <ele>1086.91</ele>
        <time>2012-06-17T11:22:13Z</time>
      </trkpt>
      <trkpt lat="44.32738" lon="3.81418">
        <ele>1087.39</ele>
        <time>2012-06-17T11:22:47Z</time>
      </trkpt>
      <trkpt lat="44.32737" lon="3.8142">
        <ele>1087.39</ele>
        <time>2012-06-17T11:23:21Z</time>
      </trkpt>
      <trkpt lat="44.32737" lon="3.8142">
        <ele>1086.91</ele>
        <time>2012-06-17T11:23:51Z</time>
      </trkpt>
      <trkpt lat="44.32737" lon="3.81419">
        <ele>1086.91</ele>
        <time>2012-06-17T11:24:21Z</time>
      </trkpt>
      <trkpt lat="44.3274" lon="3.8142">
        <ele>1087.39</ele>
        <time>2012-06-17T11:24:46Z</time>
      </trkpt>
      <trkpt lat="44.32744" lon="3.81421">
        <ele>1086.91</ele>
        <time>2012-06-17T11:25:16Z</time>
      </trkpt>
      <trkpt lat="44.32744" lon="3.8142">
        <ele>1087.39</ele>
        <time>2012-06-17T11:25:49Z</time>
      </trkpt>
      <trkpt lat="44.32743" lon="3.81419">
        <ele>1086.91</ele>
        <time>2012-06-17T11:26:23Z</time>
      </trkpt>
      <trkpt lat="44.32741" lon="3.81421">
        <ele>1086.43</ele>
        <time>2012-06-17T11:26:56Z</time>
      </trkpt>
      <trkpt lat="44.32741" lon="3.81422">
        <ele>1086.43</ele>
        <time>2012-06-17T11:27:29Z</time>
      </trkpt>
      <trkpt lat="44.32742" lon="3.81422">
        <ele>1085.95</ele>
        <time>2012-06-17T11:27:56Z</time>
      </trkpt>
      <trkpt lat="44.32741" lon="3.81421">
        <ele>1086.43</ele>
        <time>2012-06-17T11:28:28Z</time>
      </trkpt>
      <trkpt lat="44.32741" lon="3.8142">
        <ele>1086.43</ele>
        <time>2012-06-17T11:28:57Z</time>
      </trkpt>
      <trkpt lat="44.32741" lon="3.81421">
        <ele>1086.43</ele>
        <time>2012-06-17T11:29:31Z</time>
      </trkpt>
      <trkpt lat="44.32739" lon="3.81419">
        <ele>1086.43</ele>
        <time>2012-06-17T11:30:02Z</time>
      </trkpt>
      <trkpt lat="44.32738" lon="3.81417">
        <ele>1085.47</ele>
        <time>2012-06-17T11:30:36Z</time>
      </trkpt>
      <trkpt lat="44.32739" lon="3.81419">
        <ele>1085.95</ele>
        <time>2012-06-17T11:31:13Z</time>
      </trkpt>
      <trkpt lat="44.3274" lon="3.8142">
        <ele>1085.95</ele>
        <time>2012-06-17T11:31:44Z</time>
      </trkpt>
      <trkpt lat="44.32738" lon="3.81422">
        <ele>1085.95</ele>
        <time>2012-06-17T11:32:10Z</time>
      </trkpt>
      <trkpt lat="44.32739" lon="3.81421">
        <ele>1085.47</ele>
        <time>2012-06-17T11:32:39Z</time>
      </trkpt>
      <trkpt lat="44.32739" lon="3.81421">
        <ele>1085.95</ele>
        <time>2012-06-17T11:32:42Z</time>
      </trkpt>
      <trkpt lat="44.32741" lon="3.81422">
        <ele>1085.47</ele>
        <time>2012-06-17T11:32:48Z</time>
      </trkpt>
      <trkpt lat="44.32741" lon="3.81426">
        <ele>1085.47</ele>
        <time>2012-06-17T11:32:58Z</time>
      </trkpt>
      <trkpt lat="44.32741" lon="3.81425">
        <ele>1085.47</ele>
        <time>2012-06-17T11:33:15Z</time>
      </trkpt>
      <trkpt lat="44.32742" lon="3.81428">
        <ele>1085.95</ele>
        <time>2012-06-17T11:33:44Z</time>
      </trkpt>
      <trkpt lat="44.32741" lon="3.81429">
        <ele>1085.95</ele>
        <time>2012-06-17T11:33:58Z</time>
      </trkpt>
      <trkpt lat="44.32741" lon="3.81429">
        <ele>1086.43</ele>
        <time>2012-06-17T11:34:10Z</time>
      </trkpt>
      <trkpt lat="44.32738" lon="3.81436">
        <ele>1085.47</ele>
        <time>2012-06-17T11:34:26Z</time>
      </trkpt>
      <trkpt lat="44.32738" lon="3.81437">
        <ele>1085.95</ele>
        <time>2012-06-17T11:34:34Z</time>
      </trkpt>
      <trkpt lat="44.32737" lon="3.81439">
        <ele>1085.95</ele>
        <time>2012-06-17T11:34:35Z</time>
      </trkpt>
      <trkpt lat="44.32729" lon="3.81459">
        <ele>1085.47</ele>
        <time>2012-06-17T11:34:40Z</time>
      </trkpt>
      <trkpt lat="44.32727" lon="3.81464">
        <ele>1085.47</ele>
        <time>2012-06-17T11:34:41Z</time>
      </trkpt>
      <trkpt lat="44.32696" lon="3.81544">
        <ele>1085.47</ele>
        <time>2012-06-17T11:34:55Z</time>
      </trkpt>
      <trkpt lat="44.32681" lon="3.81582">
        <ele>1087.39</ele>
        <time>2012-06-17T11:35:02Z</time>
      </trkpt>
      <trkpt lat="44.32666" lon="3.8162">
        <ele>1089.79</ele>
        <time>2012-06-17T11:35:09Z</time>
      </trkpt>
      <trkpt lat="44.32658" lon="3.8164">
        <ele>1090.75</ele>
        <time>2012-06-17T11:35:15Z</time>
      </trkpt>
      <trkpt lat="44.3266" lon="3.81659">
        <ele>1090.75</ele>
        <time>2012-06-17T11:35:26Z</time>
      </trkpt>
      <trkpt lat="44.32657" lon="3.8166">
        <ele>1091.23</ele>
        <time>2012-06-17T11:35:41Z</time>
      </trkpt>
      <trkpt lat="44.32656" lon="3.8166">
        <ele>1091.23</ele>
        <time>2012-06-17T11:35:42Z</time>
      </trkpt>
      <trkpt lat="44.32654" lon="3.81662">
        <ele>1091.23</ele>
        <time>2012-06-17T11:35:43Z</time>
      </trkpt>
      <trkpt lat="44.32653" lon="3.81663">
        <ele>1091.23</ele>
        <time>2012-06-17T11:35:44Z</time>
      </trkpt>
      <trkpt lat="44.32651" lon="3.81664">
        <ele>1091.23</ele>
        <time>2012-06-17T11:35:45Z</time>
      </trkpt>
      <trkpt lat="44.3265" lon="3.81666">
        <ele>1091.71</ele>
        <time>2012-06-17T11:35:46Z</time>
      </trkpt>
      <trkpt lat="44.32648" lon="3.81667">
        <ele>1091.71</ele>
        <time>2012-06-17T11:35:47Z</time>
      </trkpt>
      <trkpt lat="44.32646" lon="3.81669">
        <ele>1091.71</ele>
        <time>2012-06-17T11:35:48Z</time>
      </trkpt>
      <trkpt lat="44.32644" lon="3.81671">
        <ele>1091.71</ele>
        <time>2012-06-17T11:35:49Z</time>
      </trkpt>
      <trkpt lat="44.32622" lon="3.81703">
        <ele>1093.16</ele>
        <time>2012-06-17T11:36:01Z</time>
      </trkpt>
      <trkpt lat="44.32615" lon="3.81714">
        <ele>1094.6</ele>
        <time>2012-06-17T11:36:03Z</time>
      </trkpt>
      <trkpt lat="44.32613" lon="3.8172">
        <ele>1094.6</ele>
        <time>2012-06-17T11:36:04Z</time>
      </trkpt>
      <trkpt lat="44.3261" lon="3.81725">
        <ele>1094.12</ele>
        <time>2012-06-17T11:36:05Z</time>
      </trkpt>
      <trkpt lat="44.32607" lon="3.8173">
        <ele>1094.12</ele>
        <time>2012-06-17T11:36:06Z</time>
      </trkpt>
      <trkpt lat="44.32605" lon="3.81734">
        <ele>1094.12</ele>
        <time>2012-06-17T11:36:07Z</time>
      </trkpt>
      <trkpt lat="44.32574" lon="3.81785">
        <ele>1094.12</ele>
        <time>2012-06-17T11:36:21Z</time>
      </trkpt>
      <trkpt lat="44.32541" lon="3.81829">
        <ele>1093.64</ele>
        <time>2012-06-17T11:36:31Z</time>
      </trkpt>
      <trkpt lat="44.32505" lon="3.81868">
        <ele>1093.16</ele>
        <time>2012-06-17T11:36:40Z</time>
      </trkpt>
      <trkpt lat="44.32501" lon="3.8187">
        <ele>1092.68</ele>
        <time>2012-06-17T11:36:41Z</time>
      </trkpt>
      <trkpt lat="44.32453" lon="3.8189">
        <ele>1091.23</ele>
        <time>2012-06-17T11:36:52Z</time>
      </trkpt>
      <trkpt lat="44.32416" lon="3.81921">
        <ele>1090.27</ele>
        <time>2012-06-17T11:37:02Z</time>
      </trkpt>
      <trkpt lat="44.32412" lon="3.81923">
        <ele>1090.27</ele>
        <time>2012-06-17T11:37:03Z</time>
      </trkpt>
      <trkpt lat="44.32373" lon="3.81939">
        <ele>1088.35</ele>
        <time>2012-06-17T11:37:14Z</time>
      </trkpt>
      <trkpt lat="44.32368" lon="3.8194">
        <ele>1087.87</ele>
        <time>2012-06-17T11:37:15Z</time>
      </trkpt>
      <trkpt lat="44.32363" lon="3.81941">
        <ele>1087.87</ele>
        <time>2012-06-17T11:37:16Z</time>
      </trkpt>
      <trkpt lat="44.32359" lon="3.81944">
        <ele>1088.35</ele>
        <time>2012-06-17T11:37:17Z</time>
      </trkpt>
      <trkpt lat="44.32356" lon="3.81948">
        <ele>1088.35</ele>
        <time>2012-06-17T11:37:18Z</time>
      </trkpt>
      <trkpt lat="44.32353" lon="3.81952">
        <ele>1088.35</ele>
        <time>2012-06-17T11:37:19Z</time>
      </trkpt>
      <trkpt lat="44.32307" lon="3.81997">
        <ele>1086.91</ele>
        <time>2012-06-17T11:37:33Z</time>
      </trkpt>
      <trkpt lat="44.3228" lon="3.82026">
        <ele>1086.43</ele>
        <time>2012-06-17T11:37:44Z</time>
      </trkpt>
      <trkpt lat="44.32259" lon="3.82046">
        <ele>1086.43</ele>
        <time>2012-06-17T11:37:51Z</time>
      </trkpt>
      <trkpt lat="44.32199" lon="3.82073">
        <ele>1085.47</ele>
        <time>2012-06-17T11:38:03Z</time>
      </trkpt>
      <trkpt lat="44.32195" lon="3.82075">
        <ele>1084.99</ele>
        <time>2012-06-17T11:38:04Z</time>
      </trkpt>
      <trkpt lat="44.32191" lon="3.82078">
        <ele>1084.99</ele>
        <time>2012-06-17T11:38:05Z</time>
      </trkpt>
      <trkpt lat="44.32172" lon="3.82093">
        <ele>1084.99</ele>
        <time>2012-06-17T11:38:10Z</time>
      </trkpt>
      <trkpt lat="44.32167" lon="3.82095">
        <ele>1084.5</ele>
        <time>2012-06-17T11:38:11Z</time>
      </trkpt>
      <trkpt lat="44.32162" lon="3.82097">
        <ele>1084.5</ele>
        <time>2012-06-17T11:38:12Z</time>
      </trkpt>
      <trkpt lat="44.32157" lon="3.82098">
        <ele>1083.54</ele>
        <time>2012-06-17T11:38:13Z</time>
      </trkpt>
      <trkpt lat="44.32151" lon="3.82098">
        <ele>1084.02</ele>
        <time>2012-06-17T11:38:14Z</time>
      </trkpt>
      <trkpt lat="44.32146" lon="3.82097">
        <ele>1083.54</ele>
        <time>2012-06-17T11:38:15Z</time>
      </trkpt>
      <trkpt lat="44.3214" lon="3.82095">
        <ele>1083.54</ele>
        <time>2012-06-17T11:38:16Z</time>
      </trkpt>
      <trkpt lat="44.32121" lon="3.82091">
        <ele>1082.1</ele>
        <time>2012-06-17T11:38:19Z</time>
      </trkpt>
      <trkpt lat="44.32041" lon="3.82084">
        <ele>1080.66</ele>
        <time>2012-06-17T11:38:32Z</time>
      </trkpt>
      <trkpt lat="44.32005" lon="3.82087">
        <ele>1080.66</ele>
        <time>2012-06-17T11:38:37Z</time>
      </trkpt>
      <trkpt lat="44.31925" lon="3.82078">
        <ele>1077.78</ele>
        <time>2012-06-17T11:38:48Z</time>
      </trkpt>
      <trkpt lat="44.31918" lon="3.82079">
        <ele>1077.78</ele>
        <time>2012-06-17T11:38:49Z</time>
      </trkpt>
      <trkpt lat="44.31911" lon="3.82083">
        <ele>1077.78</ele>
        <time>2012-06-17T11:38:50Z</time>
      </trkpt>
      <trkpt lat="44.31904" lon="3.82089">
        <ele>1077.78</ele>
        <time>2012-06-17T11:38:51Z</time>
      </trkpt>
      <trkpt lat="44.31899" lon="3.82096">
        <ele>1077.78</ele>
        <time>2012-06-17T11:38:52Z</time>
      </trkpt>
      <trkpt lat="44.31899" lon="3.82104">
        <ele>1078.26</ele>
        <time>2012-06-17T11:38:53Z</time>
      </trkpt>
      <trkpt lat="44.31903" lon="3.82114">
        <ele>1077.78</ele>
        <time>2012-06-17T11:38:54Z</time>
      </trkpt>
      <trkpt lat="44.31908" lon="3.82123">
        <ele>1077.78</ele>
        <time>2012-06-17T11:38:55Z</time>
      </trkpt>
      <trkpt lat="44.31914" lon="3.82131">
        <ele>1077.78</ele>
        <time>2012-06-17T11:38:56Z</time>
      </trkpt>
      <trkpt lat="44.31942" lon="3.82169">
        <ele>1076.81</ele>
        <time>2012-06-17T11:39:01Z</time>
      </trkpt>
      <trkpt lat="44.31952" lon="3.82184">
        <ele>1076.81</ele>
        <time>2012-06-17T11:39:03Z</time>
      </trkpt>
      <trkpt lat="44.3196" lon="3.82199">
        <ele>1076.81</ele>
        <time>2012-06-17T11:39:05Z</time>
      </trkpt>
      <trkpt lat="44.31963" lon="3.82206">
        <ele>1077.29</ele>
        <time>2012-06-17T11:39:06Z</time>
      </trkpt>
      <trkpt lat="44.31966" lon="3.82213">
        <ele>1077.29</ele>
        <time>2012-06-17T11:39:07Z</time>
      </trkpt>
      <trkpt lat="44.31985" lon="3.82248">
        <ele>1076.81</ele>
        <time>2012-06-17T11:39:13Z</time>
      </trkpt>
      <trkpt lat="44.31987" lon="3.82253">
        <ele>1077.29</ele>
        <time>2012-06-17T11:39:14Z</time>
      </trkpt>
      <trkpt lat="44.31991" lon="3.82257">
        <ele>1076.81</ele>
        <time>2012-06-17T11:39:15Z</time>
      </trkpt>
      <trkpt lat="44.32025" lon="3.82297">
        <ele>1076.33</ele>
        <time>2012-06-17T11:39:25Z</time>
      </trkpt>
      <trkpt lat="44.32029" lon="3.82302">
        <ele>1076.33</ele>
        <time>2012-06-17T11:39:26Z</time>
      </trkpt>
      <trkpt lat="44.32035" lon="3.8231">
        <ele>1076.33</ele>
        <time>2012-06-17T11:39:28Z</time>
      </trkpt>
      <trkpt lat="44.32038" lon="3.82315">
        <ele>1076.33</ele>
        <time>2012-06-17T11:39:29Z</time>
      </trkpt>
      <trkpt lat="44.32041" lon="3.82319">
        <ele>1076.33</ele>
        <time>2012-06-17T11:39:30Z</time>
      </trkpt>
      <trkpt lat="44.32075" lon="3.82395">
        <ele>1076.33</ele>
        <time>2012-06-17T11:39:44Z</time>
      </trkpt>
      <trkpt lat="44.32078" lon="3.824">
        <ele>1076.33</ele>
        <time>2012-06-17T11:39:45Z</time>
      </trkpt>
      <trkpt lat="44.32085" lon="3.82417">
        <ele>1075.85</ele>
        <time>2012-06-17T11:39:48Z</time>
      </trkpt>
      <trkpt lat="44.32087" lon="3.82423">
        <ele>1076.81</ele>
        <time>2012-06-17T11:39:49Z</time>
      </trkpt>
      <trkpt lat="44.32091" lon="3.82436">
        <ele>1076.33</ele>
        <time>2012-06-17T11:39:51Z</time>
      </trkpt>
      <trkpt lat="44.32101" lon="3.82473">
        <ele>1076.81</ele>
        <time>2012-06-17T11:39:57Z</time>
      </trkpt>
      <trkpt lat="44.32103" lon="3.82479">
        <ele>1076.33</ele>
        <time>2012-06-17T11:39:58Z</time>
      </trkpt>
      <trkpt lat="44.32107" lon="3.82485">
        <ele>1075.85</ele>
        <time>2012-06-17T11:39:59Z</time>
      </trkpt>
      <trkpt lat="44.3211" lon="3.8249">
        <ele>1076.33</ele>
        <time>2012-06-17T11:40:00Z</time>
      </trkpt>
      <trkpt lat="44.32114" lon="3.82495">
        <ele>1076.33</ele>
        <time>2012-06-17T11:40:01Z</time>
      </trkpt>
      <trkpt lat="44.32124" lon="3.82511">
        <ele>1076.33</ele>
        <time>2012-06-17T11:40:04Z</time>
      </trkpt>
      <trkpt lat="44.32126" lon="3.82518">
        <ele>1076.33</ele>
        <time>2012-06-17T11:40:05Z</time>
      </trkpt>
      <trkpt lat="44.32128" lon="3.82524">
        <ele>1076.81</ele>
        <time>2012-06-17T11:40:06Z</time>
      </trkpt>
      <trkpt lat="44.3213" lon="3.8253">
        <ele>1076.81</ele>
        <time>2012-06-17T11:40:07Z</time>
      </trkpt>
      <trkpt lat="44.3213" lon="3.82537">
        <ele>1076.81</ele>
        <time>2012-06-17T11:40:08Z</time>
      </trkpt>
      <trkpt lat="44.32132" lon="3.8255">
        <ele>1076.33</ele>
        <time>2012-06-17T11:40:10Z</time>
      </trkpt>
      <trkpt lat="44.32132" lon="3.82556">
        <ele>1076.81</ele>
        <time>2012-06-17T11:40:11Z</time>
      </trkpt>
      <trkpt lat="44.32131" lon="3.82575">
        <ele>1076.33</ele>
        <time>2012-06-17T11:40:14Z</time>
      </trkpt>
      <trkpt lat="44.3213" lon="3.82581">
        <ele>1076.33</ele>
        <time>2012-06-17T11:40:15Z</time>
      </trkpt>
      <trkpt lat="44.32126" lon="3.82598">
        <ele>1076.81</ele>
        <time>2012-06-17T11:40:18Z</time>
      </trkpt>
      <trkpt lat="44.32096" lon="3.82686">
        <ele>1076.81</ele>
        <time>2012-06-17T11:40:34Z</time>
      </trkpt>
      <trkpt lat="44.32089" lon="3.82702">
        <ele>1077.29</ele>
        <time>2012-06-17T11:40:37Z</time>
      </trkpt>
      <trkpt lat="44.32048" lon="3.82747">
        <ele>1078.74</ele>
        <time>2012-06-17T11:40:51Z</time>
      </trkpt>
      <trkpt lat="44.31999" lon="3.82752">
        <ele>1079.22</ele>
        <time>2012-06-17T11:41:04Z</time>
      </trkpt>
      <trkpt lat="44.31979" lon="3.82752">
        <ele>1079.22</ele>
        <time>2012-06-17T11:41:09Z</time>
      </trkpt>
      <trkpt lat="44.31954" lon="3.82753">
        <ele>1078.26</ele>
        <time>2012-06-17T11:41:15Z</time>
      </trkpt>
      <trkpt lat="44.3195" lon="3.82755">
        <ele>1078.74</ele>
        <time>2012-06-17T11:41:16Z</time>
      </trkpt>
      <trkpt lat="44.31946" lon="3.82756">
        <ele>1078.74</ele>
        <time>2012-06-17T11:41:17Z</time>
      </trkpt>
      <trkpt lat="44.31942" lon="3.82759">
        <ele>1078.74</ele>
        <time>2012-06-17T11:41:18Z</time>
      </trkpt>
      <trkpt lat="44.31939" lon="3.82762">
        <ele>1079.22</ele>
        <time>2012-06-17T11:41:19Z</time>
      </trkpt>
      <trkpt lat="44.31936" lon="3.82765">
        <ele>1079.22</ele>
        <time>2012-06-17T11:41:20Z</time>
      </trkpt>
      <trkpt lat="44.31932" lon="3.82767">
        <ele>1079.22</ele>
        <time>2012-06-17T11:41:21Z</time>
      </trkpt>
      <trkpt lat="44.319" lon="3.82793">
        <ele>1079.22</ele>
        <time>2012-06-17T11:41:30Z</time>
      </trkpt>
      <trkpt lat="44.31839" lon="3.82858">
        <ele>1078.74</ele>
        <time>2012-06-17T11:41:47Z</time>
      </trkpt>
      <trkpt lat="44.31836" lon="3.82862">
        <ele>1078.26</ele>
        <time>2012-06-17T11:41:48Z</time>
      </trkpt>
      <trkpt lat="44.31812" lon="3.82904">
        <ele>1077.78</ele>
        <time>2012-06-17T11:41:57Z</time>
      </trkpt>
      <trkpt lat="44.3181" lon="3.82909">
        <ele>1077.78</ele>
        <time>2012-06-17T11:41:58Z</time>
      </trkpt>
      <trkpt lat="44.31804" lon="3.82918">
        <ele>1077.78</ele>
        <time>2012-06-17T11:42:00Z</time>
      </trkpt>
      <trkpt lat="44.31802" lon="3.82923">
        <ele>1078.26</ele>
        <time>2012-06-17T11:42:01Z</time>
      </trkpt>
      <trkpt lat="44.318" lon="3.82928">
        <ele>1077.78</ele>
        <time>2012-06-17T11:42:02Z</time>
      </trkpt>
      <trkpt lat="44.31797" lon="3.82937">
        <ele>1078.74</ele>
        <time>2012-06-17T11:42:04Z</time>
      </trkpt>
      <trkpt lat="44.31791" lon="3.82954">
        <ele>1079.7</ele>
        <time>2012-06-17T11:42:07Z</time>
      </trkpt>
      <trkpt lat="44.3179" lon="3.8296">
        <ele>1079.7</ele>
        <time>2012-06-17T11:42:08Z</time>
      </trkpt>
      <trkpt lat="44.31786" lon="3.82987">
        <ele>1080.66</ele>
        <time>2012-06-17T11:42:13Z</time>
      </trkpt>
      <trkpt lat="44.31786" lon="3.82993">
        <ele>1080.18</ele>
        <time>2012-06-17T11:42:14Z</time>
      </trkpt>
      <trkpt lat="44.3178" lon="3.83079">
        <ele>1078.74</ele>
        <time>2012-06-17T11:42:28Z</time>
      </trkpt>
      <trkpt lat="44.31781" lon="3.83105">
        <ele>1077.29</ele>
        <time>2012-06-17T11:42:31Z</time>
      </trkpt>
      <trkpt lat="44.31783" lon="3.83162">
        <ele>1074.89</ele>
        <time>2012-06-17T11:42:37Z</time>
      </trkpt>
      <trkpt lat="44.31786" lon="3.83209">
        <ele>1072.01</ele>
        <time>2012-06-17T11:42:41Z</time>
      </trkpt>
      <trkpt lat="44.31785" lon="3.83222">
        <ele>1070.57</ele>
        <time>2012-06-17T11:42:42Z</time>
      </trkpt>
      <trkpt lat="44.31782" lon="3.83235">
        <ele>1070.57</ele>
        <time>2012-06-17T11:42:43Z</time>
      </trkpt>
      <trkpt lat="44.31776" lon="3.83246">
        <ele>1069.6</ele>
        <time>2012-06-17T11:42:44Z</time>
      </trkpt>
      <trkpt lat="44.3177" lon="3.83256">
        <ele>1069.6</ele>
        <time>2012-06-17T11:42:45Z</time>
      </trkpt>
      <trkpt lat="44.31764" lon="3.83266">
        <ele>1068.64</ele>
        <time>2012-06-17T11:42:46Z</time>
      </trkpt>
      <trkpt lat="44.31758" lon="3.83277">
        <ele>1068.16</ele>
        <time>2012-06-17T11:42:47Z</time>
      </trkpt>
      <trkpt lat="44.31753" lon="3.83289">
        <ele>1067.68</ele>
        <time>2012-06-17T11:42:48Z</time>
      </trkpt>
      <trkpt lat="44.31749" lon="3.83301">
        <ele>1066.72</ele>
        <time>2012-06-17T11:42:49Z</time>
      </trkpt>
      <trkpt lat="44.31742" lon="3.83327">
        <ele>1065.28</ele>
        <time>2012-06-17T11:42:51Z</time>
      </trkpt>
      <trkpt lat="44.31741" lon="3.83341">
        <ele>1063.36</ele>
        <time>2012-06-17T11:42:52Z</time>
      </trkpt>
      <trkpt lat="44.31744" lon="3.83356">
        <ele>1062.39</ele>
        <time>2012-06-17T11:42:53Z</time>
      </trkpt>
      <trkpt lat="44.31747" lon="3.83369">
        <ele>1061.43</ele>
        <time>2012-06-17T11:42:54Z</time>
      </trkpt>
      <trkpt lat="44.31752" lon="3.83383">
        <ele>1060.47</ele>
        <time>2012-06-17T11:42:55Z</time>
      </trkpt>
      <trkpt lat="44.31765" lon="3.83434">
        <ele>1057.11</ele>
        <time>2012-06-17T11:42:59Z</time>
      </trkpt>
      <trkpt lat="44.31767" lon="3.83444">
        <ele>1055.18</ele>
        <time>2012-06-17T11:43:00Z</time>
      </trkpt>
      <trkpt lat="44.31768" lon="3.83454">
        <ele>1054.7</ele>
        <time>2012-06-17T11:43:01Z</time>
      </trkpt>
      <trkpt lat="44.31767" lon="3.83464">
        <ele>1054.22</ele>
        <time>2012-06-17T11:43:02Z</time>
      </trkpt>
      <trkpt lat="44.31764" lon="3.83474">
        <ele>1054.22</ele>
        <time>2012-06-17T11:43:03Z</time>
      </trkpt>
      <trkpt lat="44.31759" lon="3.83483">
        <ele>1053.74</ele>
        <time>2012-06-17T11:43:04Z</time>
      </trkpt>
      <trkpt lat="44.31753" lon="3.83492">
        <ele>1053.26</ele>
        <time>2012-06-17T11:43:05Z</time>
      </trkpt>
      <trkpt lat="44.31735" lon="3.83526">
        <ele>1051.34</ele>
        <time>2012-06-17T11:43:08Z</time>
      </trkpt>
      <trkpt lat="44.31698" lon="3.83616">
        <ele>1046.53</ele>
        <time>2012-06-17T11:43:14Z</time>
      </trkpt>
      <trkpt lat="44.31693" lon="3.83632">
        <ele>1046.05</ele>
        <time>2012-06-17T11:43:15Z</time>
      </trkpt>
      <trkpt lat="44.31682" lon="3.83682">
        <ele>1042.69</ele>
        <time>2012-06-17T11:43:18Z</time>
      </trkpt>
      <trkpt lat="44.31673" lon="3.83733">
        <ele>1040.28</ele>
        <time>2012-06-17T11:43:21Z</time>
      </trkpt>
      <trkpt lat="44.3167" lon="3.83768">
        <ele>1037.4</ele>
        <time>2012-06-17T11:43:23Z</time>
      </trkpt>
      <trkpt lat="44.3166" lon="3.83838">
        <ele>1033.55</ele>
        <time>2012-06-17T11:43:27Z</time>
      </trkpt>
      <trkpt lat="44.31656" lon="3.83855">
        <ele>1033.55</ele>
        <time>2012-06-17T11:43:28Z</time>
      </trkpt>
      <trkpt lat="44.3165" lon="3.83872">
        <ele>1033.07</ele>
        <time>2012-06-17T11:43:29Z</time>
      </trkpt>
      <trkpt lat="44.31632" lon="3.83921">
        <ele>1029.71</ele>
        <time>2012-06-17T11:43:32Z</time>
      </trkpt>
      <trkpt lat="44.31628" lon="3.83939">
        <ele>1028.75</ele>
        <time>2012-06-17T11:43:33Z</time>
      </trkpt>
      <trkpt lat="44.31614" lon="3.83994">
        <ele>1024.9</ele>
        <time>2012-06-17T11:43:36Z</time>
      </trkpt>
      <trkpt lat="44.31605" lon="3.84031">
        <ele>1022.98</ele>
        <time>2012-06-17T11:43:38Z</time>
      </trkpt>
      <trkpt lat="44.31575" lon="3.84116">
        <ele>1018.65</ele>
        <time>2012-06-17T11:43:43Z</time>
      </trkpt>
      <trkpt lat="44.31557" lon="3.84169">
        <ele>1014.81</ele>
        <time>2012-06-17T11:43:46Z</time>
      </trkpt>
      <trkpt lat="44.31541" lon="3.84224">
        <ele>1011.44</ele>
        <time>2012-06-17T11:43:49Z</time>
      </trkpt>
      <trkpt lat="44.3153" lon="3.84261">
        <ele>1008.08</ele>
        <time>2012-06-17T11:43:51Z</time>
      </trkpt>
      <trkpt lat="44.31521" lon="3.84277">
        <ele>1007.12</ele>
        <time>2012-06-17T11:43:52Z</time>
      </trkpt>
      <trkpt lat="44.3151" lon="3.84289">
        <ele>1006.64</ele>
        <time>2012-06-17T11:43:53Z</time>
      </trkpt>
      <trkpt lat="44.31479" lon="3.84325">
        <ele>1005.68</ele>
        <time>2012-06-17T11:43:56Z</time>
      </trkpt>
      <trkpt lat="44.31401" lon="3.84437">
        <ele>1004.72</ele>
        <time>2012-06-17T11:44:05Z</time>
      </trkpt>
      <trkpt lat="44.3135" lon="3.84518">
        <ele>1004.72</ele>
        <time>2012-06-17T11:44:14Z</time>
      </trkpt>
      <trkpt lat="44.31313" lon="3.84577">
        <ele>1003.27</ele>
        <time>2012-06-17T11:44:24Z</time>
      </trkpt>
      <trkpt lat="44.3131" lon="3.84583">
        <ele>1003.75</ele>
        <time>2012-06-17T11:44:25Z</time>
      </trkpt>
      <trkpt lat="44.31306" lon="3.84589">
        <ele>1003.75</ele>
        <time>2012-06-17T11:44:26Z</time>
      </trkpt>
      <trkpt lat="44.31298" lon="3.84599">
        <ele>1003.75</ele>
        <time>2012-06-17T11:44:28Z</time>
      </trkpt>
      <trkpt lat="44.3124" lon="3.84697">
        <ele>1001.83</ele>
        <time>2012-06-17T11:44:43Z</time>
      </trkpt>
      <trkpt lat="44.31215" lon="3.84742">
        <ele>1002.79</ele>
        <time>2012-06-17T11:44:51Z</time>
      </trkpt>
      <trkpt lat="44.31214" lon="3.84748">
        <ele>1002.31</ele>
        <time>2012-06-17T11:44:52Z</time>
      </trkpt>
      <trkpt lat="44.31213" lon="3.84753">
        <ele>1002.79</ele>
        <time>2012-06-17T11:44:53Z</time>
      </trkpt>
      <trkpt lat="44.31213" lon="3.84759">
        <ele>1002.79</ele>
        <time>2012-06-17T11:44:54Z</time>
      </trkpt>
      <trkpt lat="44.31213" lon="3.84764">
        <ele>1002.31</ele>
        <time>2012-06-17T11:44:55Z</time>
      </trkpt>
      <trkpt lat="44.31215" lon="3.84768">
        <ele>1002.79</ele>
        <time>2012-06-17T11:44:56Z</time>
      </trkpt>
      <trkpt lat="44.31217" lon="3.84771">
        <ele>1002.79</ele>
        <time>2012-06-17T11:44:57Z</time>
      </trkpt>
      <trkpt lat="44.31235" lon="3.84805">
        <ele>1003.27</ele>
        <time>2012-06-17T11:45:09Z</time>
      </trkpt>
      <trkpt lat="44.31236" lon="3.84809">
        <ele>1002.79</ele>
        <time>2012-06-17T11:45:21Z</time>
      </trkpt>
      <trkpt lat="44.31236" lon="3.84809">
        <ele>1002.79</ele>
        <time>2012-06-17T11:45:50Z</time>
      </trkpt>
      <trkpt lat="44.31236" lon="3.84813">
        <ele>1002.31</ele>
        <time>2012-06-17T11:46:16Z</time>
      </trkpt>
      <trkpt lat="44.31236" lon="3.84834">
        <ele>1001.83</ele>
        <time>2012-06-17T11:46:26Z</time>
      </trkpt>
      <trkpt lat="44.31227" lon="3.84883">
        <ele>997.99</ele>
        <time>2012-06-17T11:46:34Z</time>
      </trkpt>
      <trkpt lat="44.31226" lon="3.84891">
        <ele>997.51</ele>
        <time>2012-06-17T11:46:35Z</time>
      </trkpt>
      <trkpt lat="44.31225" lon="3.84912">
        <ele>994.62</ele>
        <time>2012-06-17T11:46:38Z</time>
      </trkpt>
      <trkpt lat="44.31223" lon="3.8492">
        <ele>994.14</ele>
        <time>2012-06-17T11:46:39Z</time>
      </trkpt>
      <trkpt lat="44.31222" lon="3.84928">
        <ele>993.18</ele>
        <time>2012-06-17T11:46:40Z</time>
      </trkpt>
      <trkpt lat="44.3122" lon="3.84935">
        <ele>992.22</ele>
        <time>2012-06-17T11:46:41Z</time>
      </trkpt>
      <trkpt lat="44.31219" lon="3.84943">
        <ele>992.22</ele>
        <time>2012-06-17T11:46:42Z</time>
      </trkpt>
      <trkpt lat="44.31218" lon="3.84951">
        <ele>990.78</ele>
        <time>2012-06-17T11:46:43Z</time>
      </trkpt>
      <trkpt lat="44.31217" lon="3.84967">
        <ele>989.33</ele>
        <time>2012-06-17T11:46:45Z</time>
      </trkpt>
      <trkpt lat="44.31216" lon="3.84976">
        <ele>988.37</ele>
        <time>2012-06-17T11:46:46Z</time>
      </trkpt>
      <trkpt lat="44.31215" lon="3.84985">
        <ele>987.41</ele>
        <time>2012-06-17T11:46:47Z</time>
      </trkpt>
      <trkpt lat="44.31215" lon="3.84993">
        <ele>986.45</ele>
        <time>2012-06-17T11:46:48Z</time>
      </trkpt>
      <trkpt lat="44.31214" lon="3.85001">
        <ele>985.49</ele>
        <time>2012-06-17T11:46:49Z</time>
      </trkpt>
      <trkpt lat="44.31214" lon="3.85009">
        <ele>984.53</ele>
        <time>2012-06-17T11:46:50Z</time>
      </trkpt>
      <trkpt lat="44.31214" lon="3.85016">
        <ele>983.57</ele>
        <time>2012-06-17T11:46:51Z</time>
      </trkpt>
      <trkpt lat="44.31213" lon="3.85024">
        <ele>982.6</ele>
        <time>2012-06-17T11:46:52Z</time>
      </trkpt>
      <trkpt lat="44.31212" lon="3.85031">
        <ele>982.12</ele>
        <time>2012-06-17T11:46:53Z</time>
      </trkpt>
      <trkpt lat="44.3121" lon="3.85061">
        <ele>979.24</ele>
        <time>2012-06-17T11:46:57Z</time>
      </trkpt>
      <trkpt lat="44.31209" lon="3.85096">
        <ele>975.88</ele>
        <time>2012-06-17T11:47:02Z</time>
      </trkpt>
      <trkpt lat="44.31209" lon="3.85103">
        <ele>975.39</ele>
        <time>2012-06-17T11:47:03Z</time>
      </trkpt>
      <trkpt lat="44.31208" lon="3.85109">
        <ele>974.43</ele>
        <time>2012-06-17T11:47:04Z</time>
      </trkpt>
      <trkpt lat="44.31207" lon="3.85116">
        <ele>973.95</ele>
        <time>2012-06-17T11:47:05Z</time>
      </trkpt>
      <trkpt lat="44.31206" lon="3.85124">
        <ele>973.47</ele>
        <time>2012-06-17T11:47:06Z</time>
      </trkpt>
      <trkpt lat="44.31206" lon="3.85131">
        <ele>972.99</ele>
        <time>2012-06-17T11:47:07Z</time>
      </trkpt>
      <trkpt lat="44.31205" lon="3.85139">
        <ele>971.55</ele>
        <time>2012-06-17T11:47:08Z</time>
      </trkpt>
      <trkpt lat="44.31205" lon="3.85145">
        <ele>971.55</ele>
        <time>2012-06-17T11:47:09Z</time>
      </trkpt>
      <trkpt lat="44.31203" lon="3.85164">
        <ele>968.18</ele>
        <time>2012-06-17T11:47:13Z</time>
      </trkpt>
      <trkpt lat="44.31199" lon="3.85185">
        <ele>965.3</ele>
        <time>2012-06-17T11:47:19Z</time>
      </trkpt>
      <trkpt lat="44.31198" lon="3.85193">
        <ele>963.86</ele>
        <time>2012-06-17T11:47:21Z</time>
      </trkpt>
      <trkpt lat="44.31197" lon="3.852">
        <ele>963.86</ele>
        <time>2012-06-17T11:47:22Z</time>
      </trkpt>
      <trkpt lat="44.31196" lon="3.85207">
        <ele>962.42</ele>
        <time>2012-06-17T11:47:23Z</time>
      </trkpt>
      <trkpt lat="44.31196" lon="3.85213">
        <ele>961.46</ele>
        <time>2012-06-17T11:47:24Z</time>
      </trkpt>
      <trkpt lat="44.31196" lon="3.85219">
        <ele>960.49</ele>
        <time>2012-06-17T11:47:25Z</time>
      </trkpt>
      <trkpt lat="44.31196" lon="3.85231">
        <ele>959.05</ele>
        <time>2012-06-17T11:47:27Z</time>
      </trkpt>
      <trkpt lat="44.31196" lon="3.85237">
        <ele>958.57</ele>
        <time>2012-06-17T11:47:28Z</time>
      </trkpt>
      <trkpt lat="44.31195" lon="3.85242">
        <ele>958.09</ele>
        <time>2012-06-17T11:47:29Z</time>
      </trkpt>
      <trkpt lat="44.31194" lon="3.85246">
        <ele>957.13</ele>
        <time>2012-06-17T11:47:30Z</time>
      </trkpt>
      <trkpt lat="44.31194" lon="3.85251">
        <ele>957.13</ele>
        <time>2012-06-17T11:47:31Z</time>
      </trkpt>
      <trkpt lat="44.31194" lon="3.85255">
        <ele>956.17</ele>
        <time>2012-06-17T11:47:32Z</time>
      </trkpt>
      <trkpt lat="44.31194" lon="3.85264">
        <ele>955.21</ele>
        <time>2012-06-17T11:47:34Z</time>
      </trkpt>
      <trkpt lat="44.31201" lon="3.85286">
        <ele>951.36</ele>
        <time>2012-06-17T11:47:38Z</time>
      </trkpt>
      <trkpt lat="44.31208" lon="3.85306">
        <ele>948</ele>
        <time>2012-06-17T11:47:42Z</time>
      </trkpt>
      <trkpt lat="44.31217" lon="3.85326">
        <ele>945.11</ele>
        <time>2012-06-17T11:47:46Z</time>
      </trkpt>
      <trkpt lat="44.31228" lon="3.85347">
        <ele>942.71</ele>
        <time>2012-06-17T11:47:50Z</time>
      </trkpt>
      <trkpt lat="44.31232" lon="3.85354">
        <ele>940.79</ele>
        <time>2012-06-17T11:47:51Z</time>
      </trkpt>
      <trkpt lat="44.31247" lon="3.85387">
        <ele>937.42</ele>
        <time>2012-06-17T11:47:55Z</time>
      </trkpt>
      <trkpt lat="44.31266" lon="3.85417">
        <ele>934.06</ele>
        <time>2012-06-17T11:47:59Z</time>
      </trkpt>
      <trkpt lat="44.31274" lon="3.8543">
        <ele>934.06</ele>
        <time>2012-06-17T11:48:01Z</time>
      </trkpt>
      <trkpt lat="44.31293" lon="3.85462">
        <ele>930.69</ele>
        <time>2012-06-17T11:48:05Z</time>
      </trkpt>
      <trkpt lat="44.31315" lon="3.8549">
        <ele>927.33</ele>
        <time>2012-06-17T11:48:09Z</time>
      </trkpt>
      <trkpt lat="44.31321" lon="3.85497">
        <ele>925.41</ele>
        <time>2012-06-17T11:48:10Z</time>
      </trkpt>
      <trkpt lat="44.31339" lon="3.85517">
        <ele>922.04</ele>
        <time>2012-06-17T11:48:13Z</time>
      </trkpt>
      <trkpt lat="44.3135" lon="3.85527">
        <ele>919.64</ele>
        <time>2012-06-17T11:48:15Z</time>
      </trkpt>
      <trkpt lat="44.31355" lon="3.85531">
        <ele>919.64</ele>
        <time>2012-06-17T11:48:16Z</time>
      </trkpt>
      <trkpt lat="44.31365" lon="3.85541">
        <ele>917.24</ele>
        <time>2012-06-17T11:48:18Z</time>
      </trkpt>
      <trkpt lat="44.31371" lon="3.85551">
        <ele>914.83</ele>
        <time>2012-06-17T11:48:20Z</time>
      </trkpt>
      <trkpt lat="44.31372" lon="3.85556">
        <ele>914.83</ele>
        <time>2012-06-17T11:48:21Z</time>
      </trkpt>
      <trkpt lat="44.31373" lon="3.8556">
        <ele>914.35</ele>
        <time>2012-06-17T11:48:22Z</time>
      </trkpt>
      <trkpt lat="44.31373" lon="3.85562">
        <ele>912.91</ele>
        <time>2012-06-17T11:48:23Z</time>
      </trkpt>
      <trkpt lat="44.31373" lon="3.85565">
        <ele>912.43</ele>
        <time>2012-06-17T11:48:24Z</time>
      </trkpt>
      <trkpt lat="44.31365" lon="3.85575">
        <ele>910.51</ele>
        <time>2012-06-17T11:48:27Z</time>
      </trkpt>
      <trkpt lat="44.3136" lon="3.8558">
        <ele>910.03</ele>
        <time>2012-06-17T11:48:28Z</time>
      </trkpt>
      <trkpt lat="44.31351" lon="3.85591">
        <ele>907.14</ele>
        <time>2012-06-17T11:48:30Z</time>
      </trkpt>
      <trkpt lat="44.31333" lon="3.85605">
        <ele>904.26</ele>
        <time>2012-06-17T11:48:33Z</time>
      </trkpt>
      <trkpt lat="44.31321" lon="3.85613">
        <ele>903.3</ele>
        <time>2012-06-17T11:48:35Z</time>
      </trkpt>
      <trkpt lat="44.31306" lon="3.85629">
        <ele>899.45</ele>
        <time>2012-06-17T11:48:38Z</time>
      </trkpt>
      <trkpt lat="44.31298" lon="3.85637">
        <ele>898.01</ele>
        <time>2012-06-17T11:48:40Z</time>
      </trkpt>
      <trkpt lat="44.31295" lon="3.85639">
        <ele>897.53</ele>
        <time>2012-06-17T11:48:41Z</time>
      </trkpt>
      <trkpt lat="44.31291" lon="3.85641">
        <ele>896.09</ele>
        <time>2012-06-17T11:48:42Z</time>
      </trkpt>
      <trkpt lat="44.31288" lon="3.85644">
        <ele>895.61</ele>
        <time>2012-06-17T11:48:43Z</time>
      </trkpt>
      <trkpt lat="44.31286" lon="3.85648">
        <ele>894.64</ele>
        <time>2012-06-17T11:48:44Z</time>
      </trkpt>
      <trkpt lat="44.31284" lon="3.85651">
        <ele>894.64</ele>
        <time>2012-06-17T11:48:45Z</time>
      </trkpt>
      <trkpt lat="44.31283" lon="3.85654">
        <ele>894.16</ele>
        <time>2012-06-17T11:48:46Z</time>
      </trkpt>
      <trkpt lat="44.31283" lon="3.85658">
        <ele>894.16</ele>
        <time>2012-06-17T11:48:47Z</time>
      </trkpt>
      <trkpt lat="44.31285" lon="3.85662">
        <ele>894.16</ele>
        <time>2012-06-17T11:48:48Z</time>
      </trkpt>
      <trkpt lat="44.31292" lon="3.8568">
        <ele>895.12</ele>
        <time>2012-06-17T11:48:51Z</time>
      </trkpt>
      <trkpt lat="44.31304" lon="3.85713">
        <ele>893.2</ele>
        <time>2012-06-17T11:48:59Z</time>
      </trkpt>
      <trkpt lat="44.31306" lon="3.85721">
        <ele>892.24</ele>
        <time>2012-06-17T11:49:25Z</time>
      </trkpt>
      <trkpt lat="44.31307" lon="3.85725">
        <ele>893.2</ele>
        <time>2012-06-17T11:49:50Z</time>
      </trkpt>
      <trkpt lat="44.31309" lon="3.85725">
        <ele>892.72</ele>
        <time>2012-06-17T11:50:20Z</time>
      </trkpt>
      <trkpt lat="44.3131" lon="3.85728">
        <ele>892.72</ele>
        <time>2012-06-17T11:50:32Z</time>
      </trkpt>
      <trkpt lat="44.31311" lon="3.8573">
        <ele>892.72</ele>
        <time>2012-06-17T11:50:33Z</time>
      </trkpt>
      <trkpt lat="44.31313" lon="3.85743">
        <ele>891.28</ele>
        <time>2012-06-17T11:50:45Z</time>
      </trkpt>
      <trkpt lat="44.31314" lon="3.85765">
        <ele>890.32</ele>
        <time>2012-06-17T11:50:52Z</time>
      </trkpt>
      <trkpt lat="44.31315" lon="3.85771">
        <ele>889.84</ele>
        <time>2012-06-17T11:50:53Z</time>
      </trkpt>
      <trkpt lat="44.31317" lon="3.85777">
        <ele>889.84</ele>
        <time>2012-06-17T11:50:54Z</time>
      </trkpt>
      <trkpt lat="44.31321" lon="3.85793">
        <ele>888.88</ele>
        <time>2012-06-17T11:50:56Z</time>
      </trkpt>
      <trkpt lat="44.31326" lon="3.85813">
        <ele>887.91</ele>
        <time>2012-06-17T11:50:58Z</time>
      </trkpt>
      <trkpt lat="44.31348" lon="3.85892">
        <ele>888.88</ele>
        <time>2012-06-17T11:51:08Z</time>
      </trkpt>
      <trkpt lat="44.31349" lon="3.85933">
        <ele>890.32</ele>
        <time>2012-06-17T11:51:17Z</time>
      </trkpt>
      <trkpt lat="44.31343" lon="3.8597">
        <ele>891.28</ele>
        <time>2012-06-17T11:51:28Z</time>
      </trkpt>
      <trkpt lat="44.31335" lon="3.85999">
        <ele>890.8</ele>
        <time>2012-06-17T11:51:37Z</time>
      </trkpt>
      <trkpt lat="44.31335" lon="3.86003">
        <ele>890.8</ele>
        <time>2012-06-17T11:51:38Z</time>
      </trkpt>
      <trkpt lat="44.31336" lon="3.86007">
        <ele>891.28</ele>
        <time>2012-06-17T11:51:39Z</time>
      </trkpt>
      <trkpt lat="44.31346" lon="3.86058">
        <ele>893.68</ele>
        <time>2012-06-17T11:51:51Z</time>
      </trkpt>
      <trkpt lat="44.31353" lon="3.86093">
        <ele>895.12</ele>
        <time>2012-06-17T11:52:02Z</time>
      </trkpt>
      <trkpt lat="44.31353" lon="3.86096">
        <ele>895.12</ele>
        <time>2012-06-17T11:52:03Z</time>
      </trkpt>
      <trkpt lat="44.31348" lon="3.86122">
        <ele>893.68</ele>
        <time>2012-06-17T11:52:13Z</time>
      </trkpt>
      <trkpt lat="44.3135" lon="3.86131">
        <ele>893.2</ele>
        <time>2012-06-17T11:52:17Z</time>
      </trkpt>
      <trkpt lat="44.31378" lon="3.86148">
        <ele>893.68</ele>
        <time>2012-06-17T11:52:29Z</time>
      </trkpt>
      <trkpt lat="44.31393" lon="3.86154">
        <ele>892.24</ele>
        <time>2012-06-17T11:52:32Z</time>
      </trkpt>
      <trkpt lat="44.31397" lon="3.86157">
        <ele>892.24</ele>
        <time>2012-06-17T11:52:33Z</time>
      </trkpt>
      <trkpt lat="44.31416" lon="3.86173">
        <ele>891.76</ele>
        <time>2012-06-17T11:52:38Z</time>
      </trkpt>
      <trkpt lat="44.31442" lon="3.86191">
        <ele>892.24</ele>
        <time>2012-06-17T11:52:49Z</time>
      </trkpt>
      <trkpt lat="44.31448" lon="3.8619">
        <ele>892.24</ele>
        <time>2012-06-17T11:52:51Z</time>
      </trkpt>
      <trkpt lat="44.31451" lon="3.8619">
        <ele>892.24</ele>
        <time>2012-06-17T11:52:52Z</time>
      </trkpt>
      <trkpt lat="44.31454" lon="3.86189">
        <ele>892.24</ele>
        <time>2012-06-17T11:52:53Z</time>
      </trkpt>
      <trkpt lat="44.31494" lon="3.86167">
        <ele>893.2</ele>
        <time>2012-06-17T11:53:07Z</time>
      </trkpt>
      <trkpt lat="44.31535" lon="3.86165">
        <ele>894.64</ele>
        <time>2012-06-17T11:53:20Z</time>
      </trkpt>
      <trkpt lat="44.31572" lon="3.86172">
        <ele>895.61</ele>
        <time>2012-06-17T11:53:32Z</time>
      </trkpt>
      <trkpt lat="44.31604" lon="3.8619">
        <ele>895.61</ele>
        <time>2012-06-17T11:53:43Z</time>
      </trkpt>
      <trkpt lat="44.31606" lon="3.86192">
        <ele>895.61</ele>
        <time>2012-06-17T11:53:44Z</time>
      </trkpt>
      <trkpt lat="44.31609" lon="3.86195">
        <ele>895.12</ele>
        <time>2012-06-17T11:53:45Z</time>
      </trkpt>
      <trkpt lat="44.31611" lon="3.86198">
        <ele>895.12</ele>
        <time>2012-06-17T11:53:46Z</time>
      </trkpt>
      <trkpt lat="44.31614" lon="3.86201">
        <ele>894.64</ele>
        <time>2012-06-17T11:53:47Z</time>
      </trkpt>
      <trkpt lat="44.31627" lon="3.86237">
        <ele>894.16</ele>
        <time>2012-06-17T11:53:56Z</time>
      </trkpt>
      <trkpt lat="44.31631" lon="3.86271">
        <ele>893.2</ele>
        <time>2012-06-17T11:54:02Z</time>
      </trkpt>
      <trkpt lat="44.31632" lon="3.86294">
        <ele>891.76</ele>
        <time>2012-06-17T11:54:05Z</time>
      </trkpt>
      <trkpt lat="44.31633" lon="3.86302">
        <ele>890.8</ele>
        <time>2012-06-17T11:54:06Z</time>
      </trkpt>
      <trkpt lat="44.31636" lon="3.8632">
        <ele>890.32</ele>
        <time>2012-06-17T11:54:08Z</time>
      </trkpt>
      <trkpt lat="44.3164" lon="3.86339">
        <ele>889.84</ele>
        <time>2012-06-17T11:54:10Z</time>
      </trkpt>
      <trkpt lat="44.31643" lon="3.86359">
        <ele>888.88</ele>
        <time>2012-06-17T11:54:12Z</time>
      </trkpt>
      <trkpt lat="44.31648" lon="3.86377">
        <ele>887.43</ele>
        <time>2012-06-17T11:54:14Z</time>
      </trkpt>
      <trkpt lat="44.3165" lon="3.86385">
        <ele>886.47</ele>
        <time>2012-06-17T11:54:15Z</time>
      </trkpt>
      <trkpt lat="44.31662" lon="3.86415">
        <ele>883.11</ele>
        <time>2012-06-17T11:54:19Z</time>
      </trkpt>
      <trkpt lat="44.3167" lon="3.86428">
        <ele>882.15</ele>
        <time>2012-06-17T11:54:21Z</time>
      </trkpt>
      <trkpt lat="44.31683" lon="3.86445">
        <ele>881.67</ele>
        <time>2012-06-17T11:54:24Z</time>
      </trkpt>
      <trkpt lat="44.31688" lon="3.8645">
        <ele>881.67</ele>
        <time>2012-06-17T11:54:25Z</time>
      </trkpt>
      <trkpt lat="44.31728" lon="3.86487">
        <ele>881.67</ele>
        <time>2012-06-17T11:54:32Z</time>
      </trkpt>
      <trkpt lat="44.31737" lon="3.86498">
        <ele>881.67</ele>
        <time>2012-06-17T11:54:34Z</time>
      </trkpt>
      <trkpt lat="44.31742" lon="3.86502">
        <ele>881.19</ele>
        <time>2012-06-17T11:54:35Z</time>
      </trkpt>
      <trkpt lat="44.31747" lon="3.86508">
        <ele>881.67</ele>
        <time>2012-06-17T11:54:36Z</time>
      </trkpt>
      <trkpt lat="44.31751" lon="3.86514">
        <ele>881.67</ele>
        <time>2012-06-17T11:54:37Z</time>
      </trkpt>
      <trkpt lat="44.31756" lon="3.86519">
        <ele>881.67</ele>
        <time>2012-06-17T11:54:38Z</time>
      </trkpt>
      <trkpt lat="44.31776" lon="3.86548">
        <ele>882.15</ele>
        <time>2012-06-17T11:54:43Z</time>
      </trkpt>
      <trkpt lat="44.31834" lon="3.86618">
        <ele>884.07</ele>
        <time>2012-06-17T11:54:56Z</time>
      </trkpt>
      <trkpt lat="44.31844" lon="3.86646">
        <ele>883.11</ele>
        <time>2012-06-17T11:55:07Z</time>
      </trkpt>
      <trkpt lat="44.31843" lon="3.86653">
        <ele>882.15</ele>
        <time>2012-06-17T11:55:11Z</time>
      </trkpt>
      <trkpt lat="44.31842" lon="3.86655">
        <ele>882.15</ele>
        <time>2012-06-17T11:55:12Z</time>
      </trkpt>
      <trkpt lat="44.31816" lon="3.86696">
        <ele>879.74</ele>
        <time>2012-06-17T11:55:23Z</time>
      </trkpt>
      <trkpt lat="44.31813" lon="3.86701">
        <ele>879.74</ele>
        <time>2012-06-17T11:55:24Z</time>
      </trkpt>
      <trkpt lat="44.31803" lon="3.86715">
        <ele>877.82</ele>
        <time>2012-06-17T11:55:27Z</time>
      </trkpt>
      <trkpt lat="44.31794" lon="3.86732">
        <ele>876.86</ele>
        <time>2012-06-17T11:55:30Z</time>
      </trkpt>
      <trkpt lat="44.31776" lon="3.86756">
        <ele>874.46</ele>
        <time>2012-06-17T11:55:34Z</time>
      </trkpt>
      <trkpt lat="44.3177" lon="3.86764">
        <ele>873.5</ele>
        <time>2012-06-17T11:55:35Z</time>
      </trkpt>
      <trkpt lat="44.31765" lon="3.86771">
        <ele>873.01</ele>
        <time>2012-06-17T11:55:36Z</time>
      </trkpt>
      <trkpt lat="44.3176" lon="3.86777">
        <ele>872.53</ele>
        <time>2012-06-17T11:55:37Z</time>
      </trkpt>
      <trkpt lat="44.31755" lon="3.86784">
        <ele>872.53</ele>
        <time>2012-06-17T11:55:38Z</time>
      </trkpt>
      <trkpt lat="44.31751" lon="3.8679">
        <ele>872.05</ele>
        <time>2012-06-17T11:55:39Z</time>
      </trkpt>
      <trkpt lat="44.31732" lon="3.86819">
        <ele>868.69</ele>
        <time>2012-06-17T11:55:43Z</time>
      </trkpt>
      <trkpt lat="44.31727" lon="3.86826">
        <ele>867.25</ele>
        <time>2012-06-17T11:55:44Z</time>
      </trkpt>
      <trkpt lat="44.31703" lon="3.86853">
        <ele>863.88</ele>
        <time>2012-06-17T11:55:48Z</time>
      </trkpt>
      <trkpt lat="44.31696" lon="3.86861">
        <ele>863.88</ele>
        <time>2012-06-17T11:55:49Z</time>
      </trkpt>
      <trkpt lat="44.31678" lon="3.86883">
        <ele>862.44</ele>
        <time>2012-06-17T11:55:52Z</time>
      </trkpt>
      <trkpt lat="44.31643" lon="3.86923">
        <ele>859.08</ele>
        <time>2012-06-17T11:55:58Z</time>
      </trkpt>
      <trkpt lat="44.31637" lon="3.86927">
        <ele>858.59</ele>
        <time>2012-06-17T11:55:59Z</time>
      </trkpt>
      <trkpt lat="44.3163" lon="3.86931">
        <ele>858.11</ele>
        <time>2012-06-17T11:56:00Z</time>
      </trkpt>
      <trkpt lat="44.3161" lon="3.86939">
        <ele>856.19</ele>
        <time>2012-06-17T11:56:03Z</time>
      </trkpt>
      <trkpt lat="44.31577" lon="3.86943">
        <ele>853.31</ele>
        <time>2012-06-17T11:56:08Z</time>
      </trkpt>
      <trkpt lat="44.31522" lon="3.86946">
        <ele>849.94</ele>
        <time>2012-06-17T11:56:15Z</time>
      </trkpt>
      <trkpt lat="44.31507" lon="3.86944">
        <ele>848.5</ele>
        <time>2012-06-17T11:56:17Z</time>
      </trkpt>
      <trkpt lat="44.315" lon="3.86942">
        <ele>848.02</ele>
        <time>2012-06-17T11:56:18Z</time>
      </trkpt>
      <trkpt lat="44.31484" lon="3.86936">
        <ele>847.06</ele>
        <time>2012-06-17T11:56:22Z</time>
      </trkpt>
      <trkpt lat="44.31477" lon="3.86941">
        <ele>846.58</ele>
        <time>2012-06-17T11:56:25Z</time>
      </trkpt>
      <trkpt lat="44.31476" lon="3.86944">
        <ele>847.06</ele>
        <time>2012-06-17T11:56:26Z</time>
      </trkpt>
      <trkpt lat="44.31473" lon="3.86947">
        <ele>847.54</ele>
        <time>2012-06-17T11:56:27Z</time>
      </trkpt>
      <trkpt lat="44.31472" lon="3.86948">
        <ele>847.54</ele>
        <time>2012-06-17T11:56:28Z</time>
      </trkpt>
      <trkpt lat="44.3147" lon="3.8695">
        <ele>848.02</ele>
        <time>2012-06-17T11:56:29Z</time>
      </trkpt>
      <trkpt lat="44.31468" lon="3.86951">
        <ele>847.54</ele>
        <time>2012-06-17T11:56:30Z</time>
      </trkpt>
      <trkpt lat="44.31466" lon="3.86952">
        <ele>848.02</ele>
        <time>2012-06-17T11:56:31Z</time>
      </trkpt>
      <trkpt lat="44.31438" lon="3.86968">
        <ele>848.98</ele>
        <time>2012-06-17T11:56:41Z</time>
      </trkpt>
      <trkpt lat="44.31437" lon="3.86971">
        <ele>848.5</ele>
        <time>2012-06-17T11:56:42Z</time>
      </trkpt>
      <trkpt lat="44.31436" lon="3.86974">
        <ele>848.98</ele>
        <time>2012-06-17T11:56:43Z</time>
      </trkpt>
      <trkpt lat="44.31435" lon="3.86978">
        <ele>849.46</ele>
        <time>2012-06-17T11:56:44Z</time>
      </trkpt>
      <trkpt lat="44.31435" lon="3.86986">
        <ele>849.94</ele>
        <time>2012-06-17T11:56:46Z</time>
      </trkpt>
      <trkpt lat="44.31437" lon="3.86995">
        <ele>849.46</ele>
        <time>2012-06-17T11:56:48Z</time>
      </trkpt>
      <trkpt lat="44.31437" lon="3.86998">
        <ele>849.94</ele>
        <time>2012-06-17T11:56:49Z</time>
      </trkpt>
      <trkpt lat="44.31436" lon="3.87001">
        <ele>849.94</ele>
        <time>2012-06-17T11:56:50Z</time>
      </trkpt>
      <trkpt lat="44.31437" lon="3.87003">
        <ele>849.94</ele>
        <time>2012-06-17T11:56:51Z</time>
      </trkpt>
      <trkpt lat="44.31437" lon="3.87006">
        <ele>849.94</ele>
        <time>2012-06-17T11:56:52Z</time>
      </trkpt>
      <trkpt lat="44.31438" lon="3.87008">
        <ele>850.42</ele>
        <time>2012-06-17T11:56:53Z</time>
      </trkpt>
      <trkpt lat="44.31439" lon="3.87011">
        <ele>849.94</ele>
        <time>2012-06-17T11:56:54Z</time>
      </trkpt>
      <trkpt lat="44.31439" lon="3.87013">
        <ele>850.42</ele>
        <time>2012-06-17T11:56:55Z</time>
      </trkpt>
      <trkpt lat="44.31441" lon="3.87015">
        <ele>849.94</ele>
        <time>2012-06-17T11:56:56Z</time>
      </trkpt>
      <trkpt lat="44.31442" lon="3.87017">
        <ele>850.42</ele>
        <time>2012-06-17T11:56:57Z</time>
      </trkpt>
      <trkpt lat="44.31442" lon="3.8702">
        <ele>850.42</ele>
        <time>2012-06-17T11:56:58Z</time>
      </trkpt>
      <trkpt lat="44.31442" lon="3.87026">
        <ele>850.42</ele>
        <time>2012-06-17T11:57:00Z</time>
      </trkpt>
      <trkpt lat="44.31436" lon="3.87048">
        <ele>850.42</ele>
        <time>2012-06-17T11:57:08Z</time>
      </trkpt>
      <trkpt lat="44.31441" lon="3.87066">
        <ele>850.42</ele>
        <time>2012-06-17T11:57:13Z</time>
      </trkpt>
      <trkpt lat="44.31449" lon="3.87117">
        <ele>850.42</ele>
        <time>2012-06-17T11:57:24Z</time>
      </trkpt>
      <trkpt lat="44.31438" lon="3.87151">
        <ele>851.38</ele>
        <time>2012-06-17T11:57:36Z</time>
      </trkpt>
      <trkpt lat="44.3143" lon="3.87163">
        <ele>850.42</ele>
        <time>2012-06-17T11:57:39Z</time>
      </trkpt>
      <trkpt lat="44.31429" lon="3.87168">
        <ele>849.94</ele>
        <time>2012-06-17T11:57:40Z</time>
      </trkpt>
      <trkpt lat="44.31429" lon="3.87172">
        <ele>849.94</ele>
        <time>2012-06-17T11:57:41Z</time>
      </trkpt>
      <trkpt lat="44.31431" lon="3.87176">
        <ele>849.46</ele>
        <time>2012-06-17T11:57:42Z</time>
      </trkpt>
      <trkpt lat="44.31433" lon="3.87179">
        <ele>850.42</ele>
        <time>2012-06-17T11:57:43Z</time>
      </trkpt>
      <trkpt lat="44.31435" lon="3.87183">
        <ele>849.94</ele>
        <time>2012-06-17T11:57:44Z</time>
      </trkpt>
      <trkpt lat="44.31436" lon="3.87187">
        <ele>850.42</ele>
        <time>2012-06-17T11:57:45Z</time>
      </trkpt>
      <trkpt lat="44.31438" lon="3.87189">
        <ele>849.94</ele>
        <time>2012-06-17T11:57:46Z</time>
      </trkpt>
      <trkpt lat="44.31439" lon="3.87192">
        <ele>850.42</ele>
        <time>2012-06-17T11:57:47Z</time>
      </trkpt>
      <trkpt lat="44.31441" lon="3.87195">
        <ele>850.42</ele>
        <time>2012-06-17T11:57:48Z</time>
      </trkpt>
      <trkpt lat="44.31443" lon="3.87199">
        <ele>849.94</ele>
        <time>2012-06-17T11:57:49Z</time>
      </trkpt>
      <trkpt lat="44.31448" lon="3.87237">
        <ele>847.06</ele>
        <time>2012-06-17T11:57:57Z</time>
      </trkpt>
      <trkpt lat="44.31447" lon="3.87244">
        <ele>847.06</ele>
        <time>2012-06-17T11:57:58Z</time>
      </trkpt>
      <trkpt lat="44.31447" lon="3.8725">
        <ele>847.06</ele>
        <time>2012-06-17T11:57:59Z</time>
      </trkpt>
      <trkpt lat="44.31447" lon="3.87255">
        <ele>847.06</ele>
        <time>2012-06-17T11:58:00Z</time>
      </trkpt>
      <trkpt lat="44.31445" lon="3.87261">
        <ele>846.1</ele>
        <time>2012-06-17T11:58:01Z</time>
      </trkpt>
      <trkpt lat="44.31442" lon="3.87267">
        <ele>846.58</ele>
        <time>2012-06-17T11:58:02Z</time>
      </trkpt>
      <trkpt lat="44.31438" lon="3.87271">
        <ele>846.1</ele>
        <time>2012-06-17T11:58:03Z</time>
      </trkpt>
      <trkpt lat="44.31435" lon="3.87275">
        <ele>845.62</ele>
        <time>2012-06-17T11:58:04Z</time>
      </trkpt>
      <trkpt lat="44.31432" lon="3.87279">
        <ele>845.62</ele>
        <time>2012-06-17T11:58:05Z</time>
      </trkpt>
      <trkpt lat="44.31429" lon="3.87283">
        <ele>844.66</ele>
        <time>2012-06-17T11:58:06Z</time>
      </trkpt>
      <trkpt lat="44.31427" lon="3.87287">
        <ele>845.62</ele>
        <time>2012-06-17T11:58:07Z</time>
      </trkpt>
      <trkpt lat="44.31427" lon="3.87292">
        <ele>844.66</ele>
        <time>2012-06-17T11:58:08Z</time>
      </trkpt>
      <trkpt lat="44.31428" lon="3.87296">
        <ele>844.66</ele>
        <time>2012-06-17T11:58:09Z</time>
      </trkpt>
      <trkpt lat="44.3143" lon="3.87298">
        <ele>845.14</ele>
        <time>2012-06-17T11:58:10Z</time>
      </trkpt>
      <trkpt lat="44.31442" lon="3.87324">
        <ele>844.18</ele>
        <time>2012-06-17T11:58:17Z</time>
      </trkpt>
      <trkpt lat="44.31445" lon="3.8733">
        <ele>843.69</ele>
        <time>2012-06-17T11:58:18Z</time>
      </trkpt>
      <trkpt lat="44.31448" lon="3.87335">
        <ele>843.69</ele>
        <time>2012-06-17T11:58:19Z</time>
      </trkpt>
      <trkpt lat="44.31452" lon="3.87338">
        <ele>843.69</ele>
        <time>2012-06-17T11:58:20Z</time>
      </trkpt>
      <trkpt lat="44.31456" lon="3.87341">
        <ele>843.69</ele>
        <time>2012-06-17T11:58:21Z</time>
      </trkpt>
      <trkpt lat="44.3146" lon="3.87344">
        <ele>843.69</ele>
        <time>2012-06-17T11:58:22Z</time>
      </trkpt>
      <trkpt lat="44.31464" lon="3.87348">
        <ele>844.18</ele>
        <time>2012-06-17T11:58:23Z</time>
      </trkpt>
      <trkpt lat="44.31468" lon="3.87352">
        <ele>844.18</ele>
        <time>2012-06-17T11:58:24Z</time>
      </trkpt>
      <trkpt lat="44.31471" lon="3.87357">
        <ele>843.69</ele>
        <time>2012-06-17T11:58:25Z</time>
      </trkpt>
      <trkpt lat="44.31472" lon="3.87362">
        <ele>844.18</ele>
        <time>2012-06-17T11:58:26Z</time>
      </trkpt>
      <trkpt lat="44.31474" lon="3.87367">
        <ele>844.18</ele>
        <time>2012-06-17T11:58:27Z</time>
      </trkpt>
      <trkpt lat="44.31475" lon="3.87371">
        <ele>844.18</ele>
        <time>2012-06-17T11:58:28Z</time>
      </trkpt>
      <trkpt lat="44.31476" lon="3.87375">
        <ele>844.66</ele>
        <time>2012-06-17T11:58:29Z</time>
      </trkpt>
      <trkpt lat="44.31477" lon="3.87379">
        <ele>844.18</ele>
        <time>2012-06-17T11:58:30Z</time>
      </trkpt>
      <trkpt lat="44.31479" lon="3.87383">
        <ele>844.66</ele>
        <time>2012-06-17T11:58:31Z</time>
      </trkpt>
      <trkpt lat="44.3148" lon="3.87386">
        <ele>844.66</ele>
        <time>2012-06-17T11:58:32Z</time>
      </trkpt>
      <trkpt lat="44.31483" lon="3.87389">
        <ele>844.66</ele>
        <time>2012-06-17T11:58:33Z</time>
      </trkpt>
      <trkpt lat="44.31486" lon="3.87392">
        <ele>844.18</ele>
        <time>2012-06-17T11:58:34Z</time>
      </trkpt>
      <trkpt lat="44.3149" lon="3.87394">
        <ele>844.18</ele>
        <time>2012-06-17T11:58:35Z</time>
      </trkpt>
      <trkpt lat="44.31493" lon="3.87396">
        <ele>844.18</ele>
        <time>2012-06-17T11:58:36Z</time>
      </trkpt>
      <trkpt lat="44.31496" lon="3.87398">
        <ele>844.18</ele>
        <time>2012-06-17T11:58:37Z</time>
      </trkpt>
      <trkpt lat="44.31534" lon="3.87427">
        <ele>846.1</ele>
        <time>2012-06-17T11:58:49Z</time>
      </trkpt>
      <trkpt lat="44.31558" lon="3.87473">
        <ele>846.58</ele>
        <time>2012-06-17T11:59:03Z</time>
      </trkpt>
      <trkpt lat="44.31594" lon="3.87509">
        <ele>845.14</ele>
        <time>2012-06-17T11:59:14Z</time>
      </trkpt>
      <trkpt lat="44.31664" lon="3.87564">
        <ele>841.77</ele>
        <time>2012-06-17T11:59:29Z</time>
      </trkpt>
      <trkpt lat="44.3167" lon="3.87569">
        <ele>841.77</ele>
        <time>2012-06-17T11:59:30Z</time>
      </trkpt>
      <trkpt lat="44.31713" lon="3.87599">
        <ele>841.29</ele>
        <time>2012-06-17T11:59:38Z</time>
      </trkpt>
      <trkpt lat="44.31718" lon="3.876">
        <ele>841.29</ele>
        <time>2012-06-17T11:59:39Z</time>
      </trkpt>
      <trkpt lat="44.31723" lon="3.87602">
        <ele>841.29</ele>
        <time>2012-06-17T11:59:40Z</time>
      </trkpt>
      <trkpt lat="44.31742" lon="3.87621">
        <ele>841.77</ele>
        <time>2012-06-17T11:59:47Z</time>
      </trkpt>
      <trkpt lat="44.31742" lon="3.87627">
        <ele>842.25</ele>
        <time>2012-06-17T11:59:48Z</time>
      </trkpt>
      <trkpt lat="44.31741" lon="3.87634">
        <ele>841.29</ele>
        <time>2012-06-17T11:59:49Z</time>
      </trkpt>
      <trkpt lat="44.31738" lon="3.8767">
        <ele>837.93</ele>
        <time>2012-06-17T11:59:53Z</time>
      </trkpt>
      <trkpt lat="44.31738" lon="3.87679">
        <ele>837.45</ele>
        <time>2012-06-17T11:59:54Z</time>
      </trkpt>
      <trkpt lat="44.3174" lon="3.87688">
        <ele>836</ele>
        <time>2012-06-17T11:59:55Z</time>
      </trkpt>
      <trkpt lat="44.31743" lon="3.87696">
        <ele>836</ele>
        <time>2012-06-17T11:59:56Z</time>
      </trkpt>
      <trkpt lat="44.31747" lon="3.87703">
        <ele>835.52</ele>
        <time>2012-06-17T11:59:57Z</time>
      </trkpt>
      <trkpt lat="44.3175" lon="3.8771">
        <ele>834.08</ele>
        <time>2012-06-17T11:59:58Z</time>
      </trkpt>
      <trkpt lat="44.31753" lon="3.87716">
        <ele>833.6</ele>
        <time>2012-06-17T11:59:59Z</time>
      </trkpt>
      <trkpt lat="44.31755" lon="3.87724">
        <ele>832.64</ele>
        <time>2012-06-17T12:00:00Z</time>
      </trkpt>
      <trkpt lat="44.31757" lon="3.87731">
        <ele>832.16</ele>
        <time>2012-06-17T12:00:01Z</time>
      </trkpt>
      <trkpt lat="44.31761" lon="3.87739">
        <ele>831.68</ele>
        <time>2012-06-17T12:00:02Z</time>
      </trkpt>
      <trkpt lat="44.31766" lon="3.87745">
        <ele>830.72</ele>
        <time>2012-06-17T12:00:03Z</time>
      </trkpt>
      <trkpt lat="44.31783" lon="3.87763">
        <ele>828.79</ele>
        <time>2012-06-17T12:00:06Z</time>
      </trkpt>
      <trkpt lat="44.31788" lon="3.8777">
        <ele>828.31</ele>
        <time>2012-06-17T12:00:07Z</time>
      </trkpt>
      <trkpt lat="44.31794" lon="3.87777">
        <ele>827.35</ele>
        <time>2012-06-17T12:00:08Z</time>
      </trkpt>
      <trkpt lat="44.31805" lon="3.8779">
        <ele>825.43</ele>
        <time>2012-06-17T12:00:10Z</time>
      </trkpt>
      <trkpt lat="44.31811" lon="3.87793">
        <ele>825.43</ele>
        <time>2012-06-17T12:00:11Z</time>
      </trkpt>
      <trkpt lat="44.31823" lon="3.878">
        <ele>823.51</ele>
        <time>2012-06-17T12:00:13Z</time>
      </trkpt>
      <trkpt lat="44.31829" lon="3.87805">
        <ele>822.55</ele>
        <time>2012-06-17T12:00:14Z</time>
      </trkpt>
      <trkpt lat="44.3184" lon="3.87816">
        <ele>820.62</ele>
        <time>2012-06-17T12:00:16Z</time>
      </trkpt>
      <trkpt lat="44.31845" lon="3.87822">
        <ele>820.62</ele>
        <time>2012-06-17T12:00:17Z</time>
      </trkpt>
      <trkpt lat="44.3185" lon="3.87829">
        <ele>819.18</ele>
        <time>2012-06-17T12:00:18Z</time>
      </trkpt>
      <trkpt lat="44.31863" lon="3.87845">
        <ele>816.3</ele>
        <time>2012-06-17T12:00:21Z</time>
      </trkpt>
      <trkpt lat="44.31868" lon="3.87855">
        <ele>813.41</ele>
        <time>2012-06-17T12:00:23Z</time>
      </trkpt>
      <trkpt lat="44.31868" lon="3.87867">
        <ele>809.09</ele>
        <time>2012-06-17T12:00:28Z</time>
      </trkpt>
      <trkpt lat="44.31869" lon="3.87869">
        <ele>809.09</ele>
        <time>2012-06-17T12:00:43Z</time>
      </trkpt>
      <trkpt lat="44.31868" lon="3.87871">
        <ele>808.13</ele>
        <time>2012-06-17T12:01:13Z</time>
      </trkpt>
      <trkpt lat="44.31868" lon="3.87871">
        <ele>809.09</ele>
        <time>2012-06-17T12:01:36Z</time>
      </trkpt>
      <trkpt lat="44.31868" lon="3.87868">
        <ele>809.09</ele>
        <time>2012-06-17T12:01:47Z</time>
      </trkpt>
      <trkpt lat="44.31873" lon="3.87861">
        <ele>809.57</ele>
        <time>2012-06-17T12:01:52Z</time>
      </trkpt>
      <trkpt lat="44.31868" lon="3.87848">
        <ele>812.93</ele>
        <time>2012-06-17T12:01:59Z</time>
      </trkpt>
      <trkpt lat="44.31864" lon="3.87846">
        <ele>813.89</ele>
        <time>2012-06-17T12:02:02Z</time>
      </trkpt>
      <trkpt lat="44.31859" lon="3.8784">
        <ele>814.85</ele>
        <time>2012-06-17T12:02:05Z</time>
      </trkpt>
      <trkpt lat="44.31849" lon="3.87829">
        <ele>817.74</ele>
        <time>2012-06-17T12:02:10Z</time>
      </trkpt>
      <trkpt lat="44.31843" lon="3.87821">
        <ele>819.18</ele>
        <time>2012-06-17T12:02:14Z</time>
      </trkpt>
      <trkpt lat="44.31831" lon="3.87803">
        <ele>821.1</ele>
        <time>2012-06-17T12:02:21Z</time>
      </trkpt>
      <trkpt lat="44.31801" lon="3.87782">
        <ele>823.51</ele>
        <time>2012-06-17T12:02:34Z</time>
      </trkpt>
      <trkpt lat="44.31778" lon="3.87754">
        <ele>826.87</ele>
        <time>2012-06-17T12:02:46Z</time>
      </trkpt>
      <trkpt lat="44.31764" lon="3.87737">
        <ele>828.79</ele>
        <time>2012-06-17T12:02:57Z</time>
      </trkpt>
      <trkpt lat="44.31754" lon="3.87718">
        <ele>831.2</ele>
        <time>2012-06-17T12:03:08Z</time>
      </trkpt>
      <trkpt lat="44.31745" lon="3.87693">
        <ele>833.6</ele>
        <time>2012-06-17T12:03:20Z</time>
      </trkpt>
      <trkpt lat="44.31738" lon="3.87674">
        <ele>835.04</ele>
        <time>2012-06-17T12:03:33Z</time>
      </trkpt>
      <trkpt lat="44.31735" lon="3.87669">
        <ele>835.52</ele>
        <time>2012-06-17T12:03:38Z</time>
      </trkpt>
      <trkpt lat="44.31733" lon="3.8767">
        <ele>834.56</ele>
        <time>2012-06-17T12:03:52Z</time>
      </trkpt>
      <trkpt lat="44.31727" lon="3.87675">
        <ele>834.08</ele>
        <time>2012-06-17T12:04:20Z</time>
      </trkpt>
      <trkpt lat="44.31708" lon="3.87678">
        <ele>834.56</ele>
        <time>2012-06-17T12:04:28Z</time>
      </trkpt>
      <trkpt lat="44.31692" lon="3.87697">
        <ele>832.16</ele>
        <time>2012-06-17T12:04:36Z</time>
      </trkpt>
      <trkpt lat="44.31678" lon="3.8771">
        <ele>830.24</ele>
        <time>2012-06-17T12:04:41Z</time>
      </trkpt>
      <trkpt lat="44.31674" lon="3.87713">
        <ele>829.27</ele>
        <time>2012-06-17T12:04:42Z</time>
      </trkpt>
      <trkpt lat="44.31672" lon="3.87716">
        <ele>828.79</ele>
        <time>2012-06-17T12:04:43Z</time>
      </trkpt>
      <trkpt lat="44.31671" lon="3.87719">
        <ele>828.31</ele>
        <time>2012-06-17T12:04:44Z</time>
      </trkpt>
      <trkpt lat="44.31669" lon="3.87722">
        <ele>827.83</ele>
        <time>2012-06-17T12:04:45Z</time>
      </trkpt>
      <trkpt lat="44.31664" lon="3.87736">
        <ele>825.91</ele>
        <time>2012-06-17T12:04:49Z</time>
      </trkpt>
      <trkpt lat="44.31654" lon="3.87759">
        <ele>822.55</ele>
        <time>2012-06-17T12:04:54Z</time>
      </trkpt>
      <trkpt lat="44.31651" lon="3.87764">
        <ele>821.58</ele>
        <time>2012-06-17T12:04:55Z</time>
      </trkpt>
      <trkpt lat="44.31648" lon="3.87768">
        <ele>820.14</ele>
        <time>2012-06-17T12:04:56Z</time>
      </trkpt>
      <trkpt lat="44.31645" lon="3.87773">
        <ele>819.66</ele>
        <time>2012-06-17T12:04:57Z</time>
      </trkpt>
      <trkpt lat="44.31642" lon="3.87778">
        <ele>818.7</ele>
        <time>2012-06-17T12:04:58Z</time>
      </trkpt>
      <trkpt lat="44.31639" lon="3.87783">
        <ele>817.74</ele>
        <time>2012-06-17T12:04:59Z</time>
      </trkpt>
      <trkpt lat="44.31632" lon="3.87794">
        <ele>816.3</ele>
        <time>2012-06-17T12:05:02Z</time>
      </trkpt>
      <trkpt lat="44.31626" lon="3.87802">
        <ele>813.89</ele>
        <time>2012-06-17T12:05:06Z</time>
      </trkpt>
      <trkpt lat="44.31624" lon="3.87804">
        <ele>813.41</ele>
        <time>2012-06-17T12:05:07Z</time>
      </trkpt>
      <trkpt lat="44.31622" lon="3.87806">
        <ele>812.93</ele>
        <time>2012-06-17T12:05:08Z</time>
      </trkpt>
      <trkpt lat="44.31619" lon="3.87808">
        <ele>811.97</ele>
        <time>2012-06-17T12:05:09Z</time>
      </trkpt>
      <trkpt lat="44.31616" lon="3.8781">
        <ele>811.01</ele>
        <time>2012-06-17T12:05:10Z</time>
      </trkpt>
      <trkpt lat="44.31612" lon="3.87813">
        <ele>811.49</ele>
        <time>2012-06-17T12:05:11Z</time>
      </trkpt>
      <trkpt lat="44.31609" lon="3.87816">
        <ele>809.57</ele>
        <time>2012-06-17T12:05:12Z</time>
      </trkpt>
      <trkpt lat="44.31605" lon="3.8782">
        <ele>808.61</ele>
        <time>2012-06-17T12:05:13Z</time>
      </trkpt>
      <trkpt lat="44.31603" lon="3.87822">
        <ele>808.61</ele>
        <time>2012-06-17T12:05:14Z</time>
      </trkpt>
      <trkpt lat="44.3159" lon="3.87827">
        <ele>806.2</ele>
        <time>2012-06-17T12:05:19Z</time>
      </trkpt>
      <trkpt lat="44.31568" lon="3.8783">
        <ele>805.24</ele>
        <time>2012-06-17T12:05:23Z</time>
      </trkpt>
      <trkpt lat="44.31562" lon="3.87833">
        <ele>804.76</ele>
        <time>2012-06-17T12:05:24Z</time>
      </trkpt>
      <trkpt lat="44.31555" lon="3.87836">
        <ele>804.76</ele>
        <time>2012-06-17T12:05:25Z</time>
      </trkpt>
      <trkpt lat="44.31534" lon="3.87848">
        <ele>803.8</ele>
        <time>2012-06-17T12:05:28Z</time>
      </trkpt>
      <trkpt lat="44.31526" lon="3.87851">
        <ele>803.32</ele>
        <time>2012-06-17T12:05:29Z</time>
      </trkpt>
      <trkpt lat="44.31519" lon="3.87855">
        <ele>801.88</ele>
        <time>2012-06-17T12:05:30Z</time>
      </trkpt>
      <trkpt lat="44.31514" lon="3.8786">
        <ele>801.4</ele>
        <time>2012-06-17T12:05:31Z</time>
      </trkpt>
      <trkpt lat="44.3151" lon="3.87866">
        <ele>800.92</ele>
        <time>2012-06-17T12:05:32Z</time>
      </trkpt>
      <trkpt lat="44.31507" lon="3.87873">
        <ele>800.44</ele>
        <time>2012-06-17T12:05:33Z</time>
      </trkpt>
      <trkpt lat="44.31503" lon="3.87878">
        <ele>799.95</ele>
        <time>2012-06-17T12:05:34Z</time>
      </trkpt>
      <trkpt lat="44.31497" lon="3.8788">
        <ele>799.47</ele>
        <time>2012-06-17T12:05:35Z</time>
      </trkpt>
      <trkpt lat="44.31493" lon="3.87882">
        <ele>799.95</ele>
        <time>2012-06-17T12:05:36Z</time>
      </trkpt>
      <trkpt lat="44.31489" lon="3.87884">
        <ele>799.47</ele>
        <time>2012-06-17T12:05:37Z</time>
      </trkpt>
      <trkpt lat="44.31487" lon="3.87887">
        <ele>799.47</ele>
        <time>2012-06-17T12:05:38Z</time>
      </trkpt>
      <trkpt lat="44.31486" lon="3.87894">
        <ele>799.47</ele>
        <time>2012-06-17T12:05:39Z</time>
      </trkpt>
      <trkpt lat="44.31486" lon="3.879">
        <ele>799.47</ele>
        <time>2012-06-17T12:05:40Z</time>
      </trkpt>
      <trkpt lat="44.31486" lon="3.87905">
        <ele>799.47</ele>
        <time>2012-06-17T12:05:41Z</time>
      </trkpt>
      <trkpt lat="44.31487" lon="3.8791">
        <ele>799.47</ele>
        <time>2012-06-17T12:05:42Z</time>
      </trkpt>
      <trkpt lat="44.31486" lon="3.87915">
        <ele>799.95</ele>
        <time>2012-06-17T12:05:43Z</time>
      </trkpt>
      <trkpt lat="44.31485" lon="3.8792">
        <ele>799.47</ele>
        <time>2012-06-17T12:05:44Z</time>
      </trkpt>
      <trkpt lat="44.31484" lon="3.87926">
        <ele>799.95</ele>
        <time>2012-06-17T12:05:45Z</time>
      </trkpt>
      <trkpt lat="44.31483" lon="3.87931">
        <ele>799.47</ele>
        <time>2012-06-17T12:05:46Z</time>
      </trkpt>
      <trkpt lat="44.31483" lon="3.87937">
        <ele>800.44</ele>
        <time>2012-06-17T12:05:47Z</time>
      </trkpt>
      <trkpt lat="44.31484" lon="3.87943">
        <ele>800.44</ele>
        <time>2012-06-17T12:05:48Z</time>
      </trkpt>
      <trkpt lat="44.31483" lon="3.87969">
        <ele>801.88</ele>
        <time>2012-06-17T12:05:52Z</time>
      </trkpt>
      <trkpt lat="44.31483" lon="3.87975">
        <ele>802.36</ele>
        <time>2012-06-17T12:05:53Z</time>
      </trkpt>
      <trkpt lat="44.31483" lon="3.87982">
        <ele>802.84</ele>
        <time>2012-06-17T12:05:54Z</time>
      </trkpt>
      <trkpt lat="44.31484" lon="3.87986">
        <ele>803.32</ele>
        <time>2012-06-17T12:05:55Z</time>
      </trkpt>
      <trkpt lat="44.31485" lon="3.87991">
        <ele>803.32</ele>
        <time>2012-06-17T12:05:56Z</time>
      </trkpt>
      <trkpt lat="44.3149" lon="3.8803">
        <ele>806.2</ele>
        <time>2012-06-17T12:06:08Z</time>
      </trkpt>
      <trkpt lat="44.3149" lon="3.88039">
        <ele>806.2</ele>
        <time>2012-06-17T12:06:11Z</time>
      </trkpt>
      <trkpt lat="44.3149" lon="3.88042">
        <ele>806.68</ele>
        <time>2012-06-17T12:06:12Z</time>
      </trkpt>
      <trkpt lat="44.3149" lon="3.88044">
        <ele>806.68</ele>
        <time>2012-06-17T12:06:13Z</time>
      </trkpt>
      <trkpt lat="44.3149" lon="3.88049">
        <ele>806.68</ele>
        <time>2012-06-17T12:06:15Z</time>
      </trkpt>
      <trkpt lat="44.31489" lon="3.88051">
        <ele>806.68</ele>
        <time>2012-06-17T12:06:16Z</time>
      </trkpt>
      <trkpt lat="44.31486" lon="3.88081">
        <ele>808.61</ele>
        <time>2012-06-17T12:06:28Z</time>
      </trkpt>
      <trkpt lat="44.31485" lon="3.88088">
        <ele>809.09</ele>
        <time>2012-06-17T12:06:32Z</time>
      </trkpt>
      <trkpt lat="44.3148" lon="3.88105">
        <ele>810.05</ele>
        <time>2012-06-17T12:06:41Z</time>
      </trkpt>
      <trkpt lat="44.31472" lon="3.88125">
        <ele>811.97</ele>
        <time>2012-06-17T12:06:50Z</time>
      </trkpt>
      <trkpt lat="44.31465" lon="3.88143">
        <ele>813.41</ele>
        <time>2012-06-17T12:06:57Z</time>
      </trkpt>
      <trkpt lat="44.31464" lon="3.88144">
        <ele>814.37</ele>
        <time>2012-06-17T12:06:58Z</time>
      </trkpt>
      <trkpt lat="44.3146" lon="3.88153">
        <ele>814.37</ele>
        <time>2012-06-17T12:07:03Z</time>
      </trkpt>
      <trkpt lat="44.3146" lon="3.88155">
        <ele>814.37</ele>
        <time>2012-06-17T12:07:04Z</time>
      </trkpt>
      <trkpt lat="44.3146" lon="3.88165">
        <ele>814.37</ele>
        <time>2012-06-17T12:07:07Z</time>
      </trkpt>
      <trkpt lat="44.3146" lon="3.88168">
        <ele>814.85</ele>
        <time>2012-06-17T12:07:08Z</time>
      </trkpt>
      <trkpt lat="44.31461" lon="3.8817">
        <ele>814.37</ele>
        <time>2012-06-17T12:07:09Z</time>
      </trkpt>
      <trkpt lat="44.31461" lon="3.88172">
        <ele>815.34</ele>
        <time>2012-06-17T12:07:10Z</time>
      </trkpt>
      <trkpt lat="44.31462" lon="3.88174">
        <ele>814.85</ele>
        <time>2012-06-17T12:07:11Z</time>
      </trkpt>
      <trkpt lat="44.31463" lon="3.88176">
        <ele>815.34</ele>
        <time>2012-06-17T12:07:12Z</time>
      </trkpt>
      <trkpt lat="44.31464" lon="3.88178">
        <ele>815.34</ele>
        <time>2012-06-17T12:07:13Z</time>
      </trkpt>
      <trkpt lat="44.31465" lon="3.88181">
        <ele>815.34</ele>
        <time>2012-06-17T12:07:14Z</time>
      </trkpt>
      <trkpt lat="44.31466" lon="3.88184">
        <ele>815.82</ele>
        <time>2012-06-17T12:07:15Z</time>
      </trkpt>
      <trkpt lat="44.31467" lon="3.88186">
        <ele>815.34</ele>
        <time>2012-06-17T12:07:16Z</time>
      </trkpt>
      <trkpt lat="44.31468" lon="3.88188">
        <ele>815.34</ele>
        <time>2012-06-17T12:07:17Z</time>
      </trkpt>
      <trkpt lat="44.3147" lon="3.8819">
        <ele>815.82</ele>
        <time>2012-06-17T12:07:18Z</time>
      </trkpt>
      <trkpt lat="44.31471" lon="3.88193">
        <ele>815.34</ele>
        <time>2012-06-17T12:07:19Z</time>
      </trkpt>
      <trkpt lat="44.31472" lon="3.88196">
        <ele>815.82</ele>
        <time>2012-06-17T12:07:20Z</time>
      </trkpt>
      <trkpt lat="44.31473" lon="3.88199">
        <ele>815.82</ele>
        <time>2012-06-17T12:07:21Z</time>
      </trkpt>
      <trkpt lat="44.31473" lon="3.88202">
        <ele>815.82</ele>
        <time>2012-06-17T12:07:22Z</time>
      </trkpt>
      <trkpt lat="44.31474" lon="3.88206">
        <ele>815.82</ele>
        <time>2012-06-17T12:07:23Z</time>
      </trkpt>
      <trkpt lat="44.31475" lon="3.8821">
        <ele>815.82</ele>
        <time>2012-06-17T12:07:24Z</time>
      </trkpt>
      <trkpt lat="44.31475" lon="3.88213">
        <ele>815.82</ele>
        <time>2012-06-17T12:07:25Z</time>
      </trkpt>
      <trkpt lat="44.31476" lon="3.88217">
        <ele>815.82</ele>
        <time>2012-06-17T12:07:26Z</time>
      </trkpt>
      <trkpt lat="44.31477" lon="3.88222">
        <ele>815.82</ele>
        <time>2012-06-17T12:07:27Z</time>
      </trkpt>
      <trkpt lat="44.31478" lon="3.88226">
        <ele>815.34</ele>
        <time>2012-06-17T12:07:28Z</time>
      </trkpt>
      <trkpt lat="44.31479" lon="3.8823">
        <ele>815.34</ele>
        <time>2012-06-17T12:07:29Z</time>
      </trkpt>
      <trkpt lat="44.31492" lon="3.88275">
        <ele>815.82</ele>
        <time>2012-06-17T12:07:39Z</time>
      </trkpt>
      <trkpt lat="44.31496" lon="3.88312">
        <ele>817.26</ele>
        <time>2012-06-17T12:07:48Z</time>
      </trkpt>
      <trkpt lat="44.31492" lon="3.88353">
        <ele>818.22</ele>
        <time>2012-06-17T12:07:59Z</time>
      </trkpt>
      <trkpt lat="44.31485" lon="3.8839">
        <ele>819.18</ele>
        <time>2012-06-17T12:08:11Z</time>
      </trkpt>
      <trkpt lat="44.31475" lon="3.88423">
        <ele>821.58</ele>
        <time>2012-06-17T12:08:21Z</time>
      </trkpt>
      <trkpt lat="44.31464" lon="3.88453">
        <ele>823.03</ele>
        <time>2012-06-17T12:08:30Z</time>
      </trkpt>
      <trkpt lat="44.31459" lon="3.88478">
        <ele>823.99</ele>
        <time>2012-06-17T12:08:41Z</time>
      </trkpt>
      <trkpt lat="44.31457" lon="3.88501">
        <ele>825.91</ele>
        <time>2012-06-17T12:08:50Z</time>
      </trkpt>
      <trkpt lat="44.31457" lon="3.88504">
        <ele>825.91</ele>
        <time>2012-06-17T12:08:52Z</time>
      </trkpt>
      <trkpt lat="44.31459" lon="3.88533">
        <ele>827.35</ele>
        <time>2012-06-17T12:09:01Z</time>
      </trkpt>
      <trkpt lat="44.3146" lon="3.88536">
        <ele>827.83</ele>
        <time>2012-06-17T12:09:02Z</time>
      </trkpt>
      <trkpt lat="44.31461" lon="3.88539">
        <ele>827.83</ele>
        <time>2012-06-17T12:09:03Z</time>
      </trkpt>
      <trkpt lat="44.31462" lon="3.88542">
        <ele>827.83</ele>
        <time>2012-06-17T12:09:04Z</time>
      </trkpt>
      <trkpt lat="44.31463" lon="3.88545">
        <ele>827.83</ele>
        <time>2012-06-17T12:09:05Z</time>
      </trkpt>
      <trkpt lat="44.31473" lon="3.88583">
        <ele>828.79</ele>
        <time>2012-06-17T12:09:16Z</time>
      </trkpt>
      <trkpt lat="44.3149" lon="3.88625">
        <ele>828.31</ele>
        <time>2012-06-17T12:09:26Z</time>
      </trkpt>
      <trkpt lat="44.31491" lon="3.88685">
        <ele>826.87</ele>
        <time>2012-06-17T12:09:37Z</time>
      </trkpt>
      <trkpt lat="44.31488" lon="3.88723">
        <ele>829.76</ele>
        <time>2012-06-17T12:09:47Z</time>
      </trkpt>
      <trkpt lat="44.31489" lon="3.88755">
        <ele>830.72</ele>
        <time>2012-06-17T12:09:56Z</time>
      </trkpt>
      <trkpt lat="44.31489" lon="3.8876">
        <ele>830.72</ele>
        <time>2012-06-17T12:09:57Z</time>
      </trkpt>
      <trkpt lat="44.31488" lon="3.88765">
        <ele>831.2</ele>
        <time>2012-06-17T12:09:58Z</time>
      </trkpt>
      <trkpt lat="44.31488" lon="3.8877">
        <ele>830.72</ele>
        <time>2012-06-17T12:09:59Z</time>
      </trkpt>
      <trkpt lat="44.31498" lon="3.88824">
        <ele>831.68</ele>
        <time>2012-06-17T12:10:09Z</time>
      </trkpt>
      <trkpt lat="44.3151" lon="3.88868">
        <ele>833.6</ele>
        <time>2012-06-17T12:10:18Z</time>
      </trkpt>
      <trkpt lat="44.31515" lon="3.88886">
        <ele>834.08</ele>
        <time>2012-06-17T12:10:23Z</time>
      </trkpt>
      <trkpt lat="44.31515" lon="3.8889">
        <ele>834.08</ele>
        <time>2012-06-17T12:10:24Z</time>
      </trkpt>
      <trkpt lat="44.31533" lon="3.88936">
        <ele>836</ele>
        <time>2012-06-17T12:10:37Z</time>
      </trkpt>
      <trkpt lat="44.31552" lon="3.88982">
        <ele>837.45</ele>
        <time>2012-06-17T12:10:49Z</time>
      </trkpt>
      <trkpt lat="44.31559" lon="3.8904">
        <ele>838.41</ele>
        <time>2012-06-17T12:11:02Z</time>
      </trkpt>
      <trkpt lat="44.31555" lon="3.89049">
        <ele>838.41</ele>
        <time>2012-06-17T12:11:04Z</time>
      </trkpt>
      <trkpt lat="44.31552" lon="3.89053">
        <ele>837.93</ele>
        <time>2012-06-17T12:11:05Z</time>
      </trkpt>
      <trkpt lat="44.3152" lon="3.89089">
        <ele>836.48</ele>
        <time>2012-06-17T12:11:15Z</time>
      </trkpt>
      <trkpt lat="44.31495" lon="3.89123">
        <ele>836</ele>
        <time>2012-06-17T12:11:23Z</time>
      </trkpt>
      <trkpt lat="44.31493" lon="3.89129">
        <ele>835.52</ele>
        <time>2012-06-17T12:11:24Z</time>
      </trkpt>
      <trkpt lat="44.31491" lon="3.89135">
        <ele>835.52</ele>
        <time>2012-06-17T12:11:25Z</time>
      </trkpt>
      <trkpt lat="44.31489" lon="3.89141">
        <ele>835.52</ele>
        <time>2012-06-17T12:11:26Z</time>
      </trkpt>
      <trkpt lat="44.31488" lon="3.89147">
        <ele>835.52</ele>
        <time>2012-06-17T12:11:27Z</time>
      </trkpt>
      <trkpt lat="44.31474" lon="3.89244">
        <ele>834.08</ele>
        <time>2012-06-17T12:11:41Z</time>
      </trkpt>
      <trkpt lat="44.31477" lon="3.89342">
        <ele>834.56</ele>
        <time>2012-06-17T12:11:56Z</time>
      </trkpt>
      <trkpt lat="44.31483" lon="3.89389">
        <ele>837.45</ele>
        <time>2012-06-17T12:12:03Z</time>
      </trkpt>
      <trkpt lat="44.31502" lon="3.89469">
        <ele>839.85</ele>
        <time>2012-06-17T12:12:17Z</time>
      </trkpt>
      <trkpt lat="44.31512" lon="3.89511">
        <ele>841.29</ele>
        <time>2012-06-17T12:12:29Z</time>
      </trkpt>
      <trkpt lat="44.31523" lon="3.8955">
        <ele>842.73</ele>
        <time>2012-06-17T12:12:42Z</time>
      </trkpt>
      <trkpt lat="44.31525" lon="3.89559">
        <ele>843.69</ele>
        <time>2012-06-17T12:12:44Z</time>
      </trkpt>
      <trkpt lat="44.31527" lon="3.89565">
        <ele>843.69</ele>
        <time>2012-06-17T12:12:45Z</time>
      </trkpt>
      <trkpt lat="44.31531" lon="3.89579">
        <ele>845.14</ele>
        <time>2012-06-17T12:12:48Z</time>
      </trkpt>
      <trkpt lat="44.31534" lon="3.89618">
        <ele>848.02</ele>
        <time>2012-06-17T12:12:58Z</time>
      </trkpt>
      <trkpt lat="44.31521" lon="3.89646">
        <ele>846.58</ele>
        <time>2012-06-17T12:13:06Z</time>
      </trkpt>
      <trkpt lat="44.31518" lon="3.8965">
        <ele>846.58</ele>
        <time>2012-06-17T12:13:07Z</time>
      </trkpt>
      <trkpt lat="44.3149" lon="3.89682">
        <ele>844.18</ele>
        <time>2012-06-17T12:13:16Z</time>
      </trkpt>
      <trkpt lat="44.3149" lon="3.89683">
        <ele>843.69</ele>
        <time>2012-06-17T12:13:30Z</time>
      </trkpt>
      <trkpt lat="44.31484" lon="3.89688">
        <ele>843.69</ele>
        <time>2012-06-17T12:13:51Z</time>
      </trkpt>
      <trkpt lat="44.3148" lon="3.89692">
        <ele>843.21</ele>
        <time>2012-06-17T12:13:52Z</time>
      </trkpt>
      <trkpt lat="44.31447" lon="3.8973">
        <ele>842.25</ele>
        <time>2012-06-17T12:13:58Z</time>
      </trkpt>
      <trkpt lat="44.31444" lon="3.89736">
        <ele>842.25</ele>
        <time>2012-06-17T12:13:59Z</time>
      </trkpt>
      <trkpt lat="44.31438" lon="3.8975">
        <ele>841.29</ele>
        <time>2012-06-17T12:14:01Z</time>
      </trkpt>
      <trkpt lat="44.31434" lon="3.89757">
        <ele>841.77</ele>
        <time>2012-06-17T12:14:02Z</time>
      </trkpt>
      <trkpt lat="44.31419" lon="3.89783">
        <ele>840.81</ele>
        <time>2012-06-17T12:14:07Z</time>
      </trkpt>
      <trkpt lat="44.31416" lon="3.89789">
        <ele>840.81</ele>
        <time>2012-06-17T12:14:08Z</time>
      </trkpt>
      <trkpt lat="44.31397" lon="3.89827">
        <ele>840.81</ele>
        <time>2012-06-17T12:14:14Z</time>
      </trkpt>
      <trkpt lat="44.31363" lon="3.89886">
        <ele>842.25</ele>
        <time>2012-06-17T12:14:27Z</time>
      </trkpt>
      <trkpt lat="44.3131" lon="3.89921">
        <ele>843.21</ele>
        <time>2012-06-17T12:14:42Z</time>
      </trkpt>
      <trkpt lat="44.31263" lon="3.89948">
        <ele>845.14</ele>
        <time>2012-06-17T12:14:56Z</time>
      </trkpt>
      <trkpt lat="44.31233" lon="3.89971">
        <ele>846.58</ele>
        <time>2012-06-17T12:15:08Z</time>
      </trkpt>
      <trkpt lat="44.31207" lon="3.89975">
        <ele>848.5</ele>
        <time>2012-06-17T12:15:18Z</time>
      </trkpt>
      <trkpt lat="44.31198" lon="3.89969">
        <ele>848.98</ele>
        <time>2012-06-17T12:15:30Z</time>
      </trkpt>
      <trkpt lat="44.31198" lon="3.89969">
        <ele>848.98</ele>
        <time>2012-06-17T12:15:38Z</time>
      </trkpt>
      <trkpt lat="44.31197" lon="3.89967">
        <ele>848.5</ele>
        <time>2012-06-17T12:15:39Z</time>
      </trkpt>
      <trkpt lat="44.31195" lon="3.89964">
        <ele>848.5</ele>
        <time>2012-06-17T12:15:40Z</time>
      </trkpt>
      <trkpt lat="44.31194" lon="3.89961">
        <ele>848.02</ele>
        <time>2012-06-17T12:15:41Z</time>
      </trkpt>
      <trkpt lat="44.31193" lon="3.89958">
        <ele>848.5</ele>
        <time>2012-06-17T12:15:42Z</time>
      </trkpt>
      <trkpt lat="44.31192" lon="3.89956">
        <ele>848.02</ele>
        <time>2012-06-17T12:15:43Z</time>
      </trkpt>
      <trkpt lat="44.31192" lon="3.89954">
        <ele>848.5</ele>
        <time>2012-06-17T12:15:44Z</time>
      </trkpt>
      <trkpt lat="44.31191" lon="3.89951">
        <ele>848.5</ele>
        <time>2012-06-17T12:15:45Z</time>
      </trkpt>
      <trkpt lat="44.31191" lon="3.89948">
        <ele>848.02</ele>
        <time>2012-06-17T12:15:46Z</time>
      </trkpt>
      <trkpt lat="44.31192" lon="3.89943">
        <ele>848.02</ele>
        <time>2012-06-17T12:15:47Z</time>
      </trkpt>
      <trkpt lat="44.31192" lon="3.89938">
        <ele>847.54</ele>
        <time>2012-06-17T12:15:48Z</time>
      </trkpt>
      <trkpt lat="44.31192" lon="3.89933">
        <ele>847.06</ele>
        <time>2012-06-17T12:15:49Z</time>
      </trkpt>
      <trkpt lat="44.31193" lon="3.89926">
        <ele>847.06</ele>
        <time>2012-06-17T12:15:50Z</time>
      </trkpt>
      <trkpt lat="44.31194" lon="3.8992">
        <ele>846.58</ele>
        <time>2012-06-17T12:15:51Z</time>
      </trkpt>
      <trkpt lat="44.31195" lon="3.89913">
        <ele>846.58</ele>
        <time>2012-06-17T12:15:52Z</time>
      </trkpt>
      <trkpt lat="44.31196" lon="3.89905">
        <ele>846.58</ele>
        <time>2012-06-17T12:15:53Z</time>
      </trkpt>
      <trkpt lat="44.31215" lon="3.89811">
        <ele>843.69</ele>
        <time>2012-06-17T12:16:02Z</time>
      </trkpt>
      <trkpt lat="44.31218" lon="3.89798">
        <ele>843.69</ele>
        <time>2012-06-17T12:16:03Z</time>
      </trkpt>
      <trkpt lat="44.31222" lon="3.89785">
        <ele>842.73</ele>
        <time>2012-06-17T12:16:04Z</time>
      </trkpt>
      <trkpt lat="44.31224" lon="3.89771">
        <ele>842.25</ele>
        <time>2012-06-17T12:16:05Z</time>
      </trkpt>
      <trkpt lat="44.31229" lon="3.89745">
        <ele>841.29</ele>
        <time>2012-06-17T12:16:07Z</time>
      </trkpt>
      <trkpt lat="44.31232" lon="3.89735">
        <ele>839.85</ele>
        <time>2012-06-17T12:16:08Z</time>
      </trkpt>
      <trkpt lat="44.31231" lon="3.89727">
        <ele>838.89</ele>
        <time>2012-06-17T12:16:09Z</time>
      </trkpt>
      <trkpt lat="44.31228" lon="3.89723">
        <ele>838.41</ele>
        <time>2012-06-17T12:16:10Z</time>
      </trkpt>
      <trkpt lat="44.31224" lon="3.89722">
        <ele>837.93</ele>
        <time>2012-06-17T12:16:11Z</time>
      </trkpt>
      <trkpt lat="44.31222" lon="3.89723">
        <ele>837.93</ele>
        <time>2012-06-17T12:16:12Z</time>
      </trkpt>
      <trkpt lat="44.3122" lon="3.89725">
        <ele>837.45</ele>
        <time>2012-06-17T12:16:13Z</time>
      </trkpt>
      <trkpt lat="44.31218" lon="3.8973">
        <ele>837.93</ele>
        <time>2012-06-17T12:16:14Z</time>
      </trkpt>
      <trkpt lat="44.31217" lon="3.89738">
        <ele>836.96</ele>
        <time>2012-06-17T12:16:15Z</time>
      </trkpt>
      <trkpt lat="44.31217" lon="3.89747">
        <ele>836.96</ele>
        <time>2012-06-17T12:16:16Z</time>
      </trkpt>
      <trkpt lat="44.31217" lon="3.89757">
        <ele>837.45</ele>
        <time>2012-06-17T12:16:17Z</time>
      </trkpt>
      <trkpt lat="44.31216" lon="3.89768">
        <ele>837.45</ele>
        <time>2012-06-17T12:16:18Z</time>
      </trkpt>
      <trkpt lat="44.31213" lon="3.8978">
        <ele>836.96</ele>
        <time>2012-06-17T12:16:19Z</time>
      </trkpt>
      <trkpt lat="44.31208" lon="3.8979">
        <ele>836.48</ele>
        <time>2012-06-17T12:16:20Z</time>
      </trkpt>
      <trkpt lat="44.31202" lon="3.898">
        <ele>836.48</ele>
        <time>2012-06-17T12:16:21Z</time>
      </trkpt>
      <trkpt lat="44.31191" lon="3.8982">
        <ele>835.52</ele>
        <time>2012-06-17T12:16:23Z</time>
      </trkpt>
      <trkpt lat="44.31166" lon="3.89872">
        <ele>833.6</ele>
        <time>2012-06-17T12:16:28Z</time>
      </trkpt>
      <trkpt lat="44.3116" lon="3.8988">
        <ele>832.64</ele>
        <time>2012-06-17T12:16:29Z</time>
      </trkpt>
      <trkpt lat="44.31153" lon="3.89887">
        <ele>832.16</ele>
        <time>2012-06-17T12:16:30Z</time>
      </trkpt>
      <trkpt lat="44.31091" lon="3.89951">
        <ele>828.79</ele>
        <time>2012-06-17T12:16:40Z</time>
      </trkpt>
      <trkpt lat="44.31031" lon="3.90034">
        <ele>825.43</ele>
        <time>2012-06-17T12:16:51Z</time>
      </trkpt>
      <trkpt lat="44.31009" lon="3.90089">
        <ele>823.51</ele>
        <time>2012-06-17T12:16:57Z</time>
      </trkpt>
      <trkpt lat="44.30981" lon="3.9018">
        <ele>821.1</ele>
        <time>2012-06-17T12:17:06Z</time>
      </trkpt>
      <trkpt lat="44.30974" lon="3.90199">
        <ele>820.62</ele>
        <time>2012-06-17T12:17:08Z</time>
      </trkpt>
      <trkpt lat="44.30971" lon="3.90209">
        <ele>820.14</ele>
        <time>2012-06-17T12:17:09Z</time>
      </trkpt>
      <trkpt lat="44.30967" lon="3.90219">
        <ele>820.14</ele>
        <time>2012-06-17T12:17:10Z</time>
      </trkpt>
      <trkpt lat="44.30944" lon="3.90266">
        <ele>817.74</ele>
        <time>2012-06-17T12:17:15Z</time>
      </trkpt>
      <trkpt lat="44.3093" lon="3.90294">
        <ele>817.26</ele>
        <time>2012-06-17T12:17:18Z</time>
      </trkpt>
      <trkpt lat="44.30925" lon="3.90303">
        <ele>816.78</ele>
        <time>2012-06-17T12:17:19Z</time>
      </trkpt>
      <trkpt lat="44.30871" lon="3.90391">
        <ele>813.41</ele>
        <time>2012-06-17T12:17:30Z</time>
      </trkpt>
      <trkpt lat="44.30856" lon="3.90417">
        <ele>812.45</ele>
        <time>2012-06-17T12:17:33Z</time>
      </trkpt>
      <trkpt lat="44.30852" lon="3.90426">
        <ele>811.97</ele>
        <time>2012-06-17T12:17:34Z</time>
      </trkpt>
      <trkpt lat="44.30836" lon="3.90463">
        <ele>811.49</ele>
        <time>2012-06-17T12:17:38Z</time>
      </trkpt>
      <trkpt lat="44.30831" lon="3.90471">
        <ele>811.01</ele>
        <time>2012-06-17T12:17:39Z</time>
      </trkpt>
      <trkpt lat="44.30825" lon="3.90478">
        <ele>810.53</ele>
        <time>2012-06-17T12:17:40Z</time>
      </trkpt>
      <trkpt lat="44.30819" lon="3.90484">
        <ele>810.53</ele>
        <time>2012-06-17T12:17:41Z</time>
      </trkpt>
      <trkpt lat="44.30812" lon="3.90488">
        <ele>810.53</ele>
        <time>2012-06-17T12:17:42Z</time>
      </trkpt>
      <trkpt lat="44.30805" lon="3.9049">
        <ele>810.53</ele>
        <time>2012-06-17T12:17:43Z</time>
      </trkpt>
      <trkpt lat="44.30798" lon="3.90492">
        <ele>810.53</ele>
        <time>2012-06-17T12:17:44Z</time>
      </trkpt>
      <trkpt lat="44.30791" lon="3.90494">
        <ele>810.53</ele>
        <time>2012-06-17T12:17:45Z</time>
      </trkpt>
      <trkpt lat="44.30719" lon="3.90501">
        <ele>811.97</ele>
        <time>2012-06-17T12:17:56Z</time>
      </trkpt>
      <trkpt lat="44.30712" lon="3.90499">
        <ele>812.45</ele>
        <time>2012-06-17T12:17:57Z</time>
      </trkpt>
      <trkpt lat="44.30667" lon="3.90483">
        <ele>814.37</ele>
        <time>2012-06-17T12:18:06Z</time>
      </trkpt>
      <trkpt lat="44.30662" lon="3.90481">
        <ele>814.37</ele>
        <time>2012-06-17T12:18:07Z</time>
      </trkpt>
      <trkpt lat="44.30647" lon="3.90473">
        <ele>815.34</ele>
        <time>2012-06-17T12:18:10Z</time>
      </trkpt>
      <trkpt lat="44.30641" lon="3.90471">
        <ele>815.34</ele>
        <time>2012-06-17T12:18:11Z</time>
      </trkpt>
      <trkpt lat="44.30635" lon="3.9047">
        <ele>815.82</ele>
        <time>2012-06-17T12:18:12Z</time>
      </trkpt>
      <trkpt lat="44.30608" lon="3.90469">
        <ele>816.78</ele>
        <time>2012-06-17T12:18:17Z</time>
      </trkpt>
      <trkpt lat="44.30603" lon="3.90469">
        <ele>817.26</ele>
        <time>2012-06-17T12:18:18Z</time>
      </trkpt>
      <trkpt lat="44.30598" lon="3.9047">
        <ele>817.26</ele>
        <time>2012-06-17T12:18:19Z</time>
      </trkpt>
      <trkpt lat="44.30594" lon="3.9047">
        <ele>817.26</ele>
        <time>2012-06-17T12:18:20Z</time>
      </trkpt>
      <trkpt lat="44.30589" lon="3.90471">
        <ele>817.74</ele>
        <time>2012-06-17T12:18:21Z</time>
      </trkpt>
      <trkpt lat="44.30585" lon="3.90473">
        <ele>817.74</ele>
        <time>2012-06-17T12:18:22Z</time>
      </trkpt>
      <trkpt lat="44.30581" lon="3.90476">
        <ele>818.22</ele>
        <time>2012-06-17T12:18:23Z</time>
      </trkpt>
      <trkpt lat="44.30577" lon="3.90478">
        <ele>818.22</ele>
        <time>2012-06-17T12:18:24Z</time>
      </trkpt>
      <trkpt lat="44.3057" lon="3.90484">
        <ele>817.74</ele>
        <time>2012-06-17T12:18:32Z</time>
      </trkpt>
      <trkpt lat="44.30567" lon="3.90485">
        <ele>818.22</ele>
        <time>2012-06-17T12:18:48Z</time>
      </trkpt>
      <trkpt lat="44.30566" lon="3.90487">
        <ele>817.74</ele>
        <time>2012-06-17T12:18:49Z</time>
      </trkpt>
      <trkpt lat="44.30566" lon="3.9049">
        <ele>817.74</ele>
        <time>2012-06-17T12:18:50Z</time>
      </trkpt>
      <trkpt lat="44.30566" lon="3.90492">
        <ele>818.22</ele>
        <time>2012-06-17T12:18:51Z</time>
      </trkpt>
      <trkpt lat="44.30566" lon="3.90495">
        <ele>818.22</ele>
        <time>2012-06-17T12:18:52Z</time>
      </trkpt>
      <trkpt lat="44.3057" lon="3.90537">
        <ele>819.18</ele>
        <time>2012-06-17T12:19:01Z</time>
      </trkpt>
      <trkpt lat="44.30586" lon="3.9058">
        <ele>820.62</ele>
        <time>2012-06-17T12:19:13Z</time>
      </trkpt>
      <trkpt lat="44.30601" lon="3.90638">
        <ele>821.58</ele>
        <time>2012-06-17T12:19:28Z</time>
      </trkpt>
      <trkpt lat="44.30604" lon="3.9065">
        <ele>823.03</ele>
        <time>2012-06-17T12:19:31Z</time>
      </trkpt>
      <trkpt lat="44.30631" lon="3.90706">
        <ele>824.47</ele>
        <time>2012-06-17T12:19:44Z</time>
      </trkpt>
      <trkpt lat="44.3065" lon="3.90731">
        <ele>825.43</ele>
        <time>2012-06-17T12:19:52Z</time>
      </trkpt>
      <trkpt lat="44.30677" lon="3.90764">
        <ele>826.87</ele>
        <time>2012-06-17T12:20:04Z</time>
      </trkpt>
      <trkpt lat="44.30687" lon="3.90783">
        <ele>827.83</ele>
        <time>2012-06-17T12:20:10Z</time>
      </trkpt>
      <trkpt lat="44.30679" lon="3.90829">
        <ele>829.76</ele>
        <time>2012-06-17T12:20:21Z</time>
      </trkpt>
      <trkpt lat="44.30682" lon="3.90893">
        <ele>831.2</ele>
        <time>2012-06-17T12:20:35Z</time>
      </trkpt>
      <trkpt lat="44.30675" lon="3.90961">
        <ele>833.12</ele>
        <time>2012-06-17T12:20:48Z</time>
      </trkpt>
      <trkpt lat="44.30665" lon="3.91006">
        <ele>834.08</ele>
        <time>2012-06-17T12:20:57Z</time>
      </trkpt>
      <trkpt lat="44.30663" lon="3.91017">
        <ele>834.56</ele>
        <time>2012-06-17T12:20:59Z</time>
      </trkpt>
      <trkpt lat="44.30662" lon="3.91023">
        <ele>834.08</ele>
        <time>2012-06-17T12:21:00Z</time>
      </trkpt>
      <trkpt lat="44.3066" lon="3.9104">
        <ele>834.08</ele>
        <time>2012-06-17T12:21:03Z</time>
      </trkpt>
      <trkpt lat="44.30659" lon="3.91053">
        <ele>833.6</ele>
        <time>2012-06-17T12:21:05Z</time>
      </trkpt>
      <trkpt lat="44.30659" lon="3.9106">
        <ele>833.6</ele>
        <time>2012-06-17T12:21:06Z</time>
      </trkpt>
      <trkpt lat="44.3066" lon="3.91075">
        <ele>832.64</ele>
        <time>2012-06-17T12:21:08Z</time>
      </trkpt>
      <trkpt lat="44.30659" lon="3.91101">
        <ele>832.64</ele>
        <time>2012-06-17T12:21:11Z</time>
      </trkpt>
      <trkpt lat="44.30658" lon="3.9111">
        <ele>832.16</ele>
        <time>2012-06-17T12:21:12Z</time>
      </trkpt>
      <trkpt lat="44.30656" lon="3.91119">
        <ele>832.16</ele>
        <time>2012-06-17T12:21:13Z</time>
      </trkpt>
      <trkpt lat="44.30652" lon="3.91135">
        <ele>832.16</ele>
        <time>2012-06-17T12:21:15Z</time>
      </trkpt>
      <trkpt lat="44.30648" lon="3.91163">
        <ele>832.16</ele>
        <time>2012-06-17T12:21:18Z</time>
      </trkpt>
      <trkpt lat="44.30645" lon="3.91172">
        <ele>831.68</ele>
        <time>2012-06-17T12:21:19Z</time>
      </trkpt>
      <trkpt lat="44.3064" lon="3.9118">
        <ele>831.68</ele>
        <time>2012-06-17T12:21:20Z</time>
      </trkpt>
      <trkpt lat="44.30635" lon="3.91187">
        <ele>830.72</ele>
        <time>2012-06-17T12:21:21Z</time>
      </trkpt>
      <trkpt lat="44.30629" lon="3.91193">
        <ele>830.72</ele>
        <time>2012-06-17T12:21:22Z</time>
      </trkpt>
      <trkpt lat="44.3059" lon="3.91228">
        <ele>828.79</ele>
        <time>2012-06-17T12:21:27Z</time>
      </trkpt>
      <trkpt lat="44.30532" lon="3.9128">
        <ele>824.95</ele>
        <time>2012-06-17T12:21:34Z</time>
      </trkpt>
      <trkpt lat="44.30527" lon="3.9129">
        <ele>824.47</ele>
        <time>2012-06-17T12:21:35Z</time>
      </trkpt>
      <trkpt lat="44.30524" lon="3.91302">
        <ele>823.99</ele>
        <time>2012-06-17T12:21:36Z</time>
      </trkpt>
      <trkpt lat="44.30522" lon="3.91315">
        <ele>823.51</ele>
        <time>2012-06-17T12:21:37Z</time>
      </trkpt>
      <trkpt lat="44.30521" lon="3.91328">
        <ele>823.51</ele>
        <time>2012-06-17T12:21:38Z</time>
      </trkpt>
      <trkpt lat="44.30521" lon="3.91342">
        <ele>822.55</ele>
        <time>2012-06-17T12:21:39Z</time>
      </trkpt>
      <trkpt lat="44.30522" lon="3.91354">
        <ele>821.58</ele>
        <time>2012-06-17T12:21:40Z</time>
      </trkpt>
      <trkpt lat="44.30524" lon="3.91367">
        <ele>822.06</ele>
        <time>2012-06-17T12:21:41Z</time>
      </trkpt>
      <trkpt lat="44.30528" lon="3.91378">
        <ele>821.1</ele>
        <time>2012-06-17T12:21:42Z</time>
      </trkpt>
      <trkpt lat="44.30556" lon="3.91481">
        <ele>818.7</ele>
        <time>2012-06-17T12:21:51Z</time>
      </trkpt>
      <trkpt lat="44.30556" lon="3.91493">
        <ele>817.74</ele>
        <time>2012-06-17T12:21:52Z</time>
      </trkpt>
      <trkpt lat="44.30539" lon="3.91586">
        <ele>815.82</ele>
        <time>2012-06-17T12:22:02Z</time>
      </trkpt>
      <trkpt lat="44.30537" lon="3.91589">
        <ele>815.34</ele>
        <time>2012-06-17T12:22:03Z</time>
      </trkpt>
      <trkpt lat="44.30536" lon="3.91591">
        <ele>814.37</ele>
        <time>2012-06-17T12:22:12Z</time>
      </trkpt>
      <trkpt lat="44.30537" lon="3.91593">
        <ele>814.85</ele>
        <time>2012-06-17T12:22:17Z</time>
      </trkpt>
      <trkpt lat="44.30536" lon="3.91596">
        <ele>815.34</ele>
        <time>2012-06-17T12:22:18Z</time>
      </trkpt>
      <trkpt lat="44.30535" lon="3.91599">
        <ele>815.34</ele>
        <time>2012-06-17T12:22:19Z</time>
      </trkpt>
      <trkpt lat="44.30533" lon="3.91602">
        <ele>815.34</ele>
        <time>2012-06-17T12:22:20Z</time>
      </trkpt>
      <trkpt lat="44.30529" lon="3.91605">
        <ele>815.82</ele>
        <time>2012-06-17T12:22:21Z</time>
      </trkpt>
      <trkpt lat="44.30522" lon="3.91611">
        <ele>815.34</ele>
        <time>2012-06-17T12:22:23Z</time>
      </trkpt>
      <trkpt lat="44.30505" lon="3.91624">
        <ele>815.82</ele>
        <time>2012-06-17T12:22:27Z</time>
      </trkpt>
      <trkpt lat="44.30482" lon="3.91646">
        <ele>817.26</ele>
        <time>2012-06-17T12:22:32Z</time>
      </trkpt>
      <trkpt lat="44.30465" lon="3.91661">
        <ele>818.22</ele>
        <time>2012-06-17T12:22:36Z</time>
      </trkpt>
      <trkpt lat="44.30444" lon="3.91703">
        <ele>819.18</ele>
        <time>2012-06-17T12:22:47Z</time>
      </trkpt>
      <trkpt lat="44.30441" lon="3.91744">
        <ele>819.66</ele>
        <time>2012-06-17T12:22:59Z</time>
      </trkpt>
      <trkpt lat="44.30443" lon="3.91783">
        <ele>821.1</ele>
        <time>2012-06-17T12:23:12Z</time>
      </trkpt>
      <trkpt lat="44.30443" lon="3.91786">
        <ele>821.1</ele>
        <time>2012-06-17T12:23:23Z</time>
      </trkpt>
      <trkpt lat="44.30444" lon="3.91787">
        <ele>821.1</ele>
        <time>2012-06-17T12:23:52Z</time>
      </trkpt>
      <trkpt lat="44.30444" lon="3.91788">
        <ele>821.1</ele>
        <time>2012-06-17T12:24:18Z</time>
      </trkpt>
      <trkpt lat="44.30444" lon="3.91788">
        <ele>820.62</ele>
        <time>2012-06-17T12:24:46Z</time>
      </trkpt>
      <trkpt lat="44.30444" lon="3.91788">
        <ele>820.62</ele>
        <time>2012-06-17T12:25:13Z</time>
      </trkpt>
      <trkpt lat="44.30444" lon="3.9179">
        <ele>820.62</ele>
        <time>2012-06-17T12:25:14Z</time>
      </trkpt>
      <trkpt lat="44.30444" lon="3.91792">
        <ele>821.1</ele>
        <time>2012-06-17T12:25:15Z</time>
      </trkpt>
      <trkpt lat="44.30445" lon="3.91793">
        <ele>821.1</ele>
        <time>2012-06-17T12:25:16Z</time>
      </trkpt>
      <trkpt lat="44.30447" lon="3.91798">
        <ele>821.58</ele>
        <time>2012-06-17T12:25:19Z</time>
      </trkpt>
      <trkpt lat="44.30447" lon="3.918">
        <ele>821.58</ele>
        <time>2012-06-17T12:25:20Z</time>
      </trkpt>
      <trkpt lat="44.30448" lon="3.91826">
        <ele>822.06</ele>
        <time>2012-06-17T12:25:31Z</time>
      </trkpt>
      <trkpt lat="44.30442" lon="3.91874">
        <ele>822.55</ele>
        <time>2012-06-17T12:25:43Z</time>
      </trkpt>
      <trkpt lat="44.3044" lon="3.91878">
        <ele>822.55</ele>
        <time>2012-06-17T12:25:45Z</time>
      </trkpt>
      <trkpt lat="44.3044" lon="3.9188">
        <ele>822.55</ele>
        <time>2012-06-17T12:25:46Z</time>
      </trkpt>
      <trkpt lat="44.30439" lon="3.91885">
        <ele>823.03</ele>
        <time>2012-06-17T12:25:47Z</time>
      </trkpt>
      <trkpt lat="44.3044" lon="3.91889">
        <ele>823.03</ele>
        <time>2012-06-17T12:25:48Z</time>
      </trkpt>
      <trkpt lat="44.30441" lon="3.91892">
        <ele>823.51</ele>
        <time>2012-06-17T12:25:49Z</time>
      </trkpt>
      <trkpt lat="44.30442" lon="3.91894">
        <ele>823.51</ele>
        <time>2012-06-17T12:25:50Z</time>
      </trkpt>
      <trkpt lat="44.30441" lon="3.91897">
        <ele>823.51</ele>
        <time>2012-06-17T12:26:00Z</time>
      </trkpt>
      <trkpt lat="44.3044" lon="3.91896">
        <ele>823.03</ele>
        <time>2012-06-17T12:26:32Z</time>
      </trkpt>
      <trkpt lat="44.30439" lon="3.91897">
        <ele>823.51</ele>
        <time>2012-06-17T12:27:02Z</time>
      </trkpt>
      <trkpt lat="44.30438" lon="3.91898">
        <ele>823.99</ele>
        <time>2012-06-17T12:27:03Z</time>
      </trkpt>
      <trkpt lat="44.30436" lon="3.91899">
        <ele>823.03</ele>
        <time>2012-06-17T12:27:04Z</time>
      </trkpt>
      <trkpt lat="44.30433" lon="3.919">
        <ele>823.51</ele>
        <time>2012-06-17T12:27:05Z</time>
      </trkpt>
      <trkpt lat="44.3042" lon="3.91948">
        <ele>825.91</ele>
        <time>2012-06-17T12:27:16Z</time>
      </trkpt>
      <trkpt lat="44.30418" lon="3.9196">
        <ele>826.39</ele>
        <time>2012-06-17T12:27:18Z</time>
      </trkpt>
      <trkpt lat="44.30407" lon="3.92034">
        <ele>827.35</ele>
        <time>2012-06-17T12:27:29Z</time>
      </trkpt>
      <trkpt lat="44.30405" lon="3.92105">
        <ele>829.27</ele>
        <time>2012-06-17T12:27:38Z</time>
      </trkpt>
      <trkpt lat="44.30405" lon="3.92112">
        <ele>829.27</ele>
        <time>2012-06-17T12:27:39Z</time>
      </trkpt>
      <trkpt lat="44.30403" lon="3.92119">
        <ele>829.76</ele>
        <time>2012-06-17T12:27:40Z</time>
      </trkpt>
      <trkpt lat="44.304" lon="3.92125">
        <ele>830.24</ele>
        <time>2012-06-17T12:27:41Z</time>
      </trkpt>
      <trkpt lat="44.30397" lon="3.92129">
        <ele>830.24</ele>
        <time>2012-06-17T12:27:42Z</time>
      </trkpt>
      <trkpt lat="44.30393" lon="3.92133">
        <ele>830.72</ele>
        <time>2012-06-17T12:27:43Z</time>
      </trkpt>
      <trkpt lat="44.30388" lon="3.92136">
        <ele>831.2</ele>
        <time>2012-06-17T12:27:44Z</time>
      </trkpt>
      <trkpt lat="44.30382" lon="3.92139">
        <ele>831.2</ele>
        <time>2012-06-17T12:27:45Z</time>
      </trkpt>
      <trkpt lat="44.30351" lon="3.92159">
        <ele>831.2</ele>
        <time>2012-06-17T12:27:52Z</time>
      </trkpt>
      <trkpt lat="44.30347" lon="3.92162">
        <ele>831.2</ele>
        <time>2012-06-17T12:27:53Z</time>
      </trkpt>
      <trkpt lat="44.30345" lon="3.92166">
        <ele>831.2</ele>
        <time>2012-06-17T12:27:54Z</time>
      </trkpt>
      <trkpt lat="44.30342" lon="3.92169">
        <ele>831.2</ele>
        <time>2012-06-17T12:27:55Z</time>
      </trkpt>
      <trkpt lat="44.30339" lon="3.92173">
        <ele>831.68</ele>
        <time>2012-06-17T12:27:56Z</time>
      </trkpt>
      <trkpt lat="44.30337" lon="3.92177">
        <ele>831.68</ele>
        <time>2012-06-17T12:27:57Z</time>
      </trkpt>
      <trkpt lat="44.30308" lon="3.92214">
        <ele>831.68</ele>
        <time>2012-06-17T12:28:10Z</time>
      </trkpt>
      <trkpt lat="44.30274" lon="3.92219">
        <ele>833.12</ele>
        <time>2012-06-17T12:28:21Z</time>
      </trkpt>
      <trkpt lat="44.30246" lon="3.92206">
        <ele>832.64</ele>
        <time>2012-06-17T12:28:29Z</time>
      </trkpt>
      <trkpt lat="44.30224" lon="3.92183">
        <ele>832.64</ele>
        <time>2012-06-17T12:28:35Z</time>
      </trkpt>
      <trkpt lat="44.30207" lon="3.92167">
        <ele>832.64</ele>
        <time>2012-06-17T12:28:39Z</time>
      </trkpt>
      <trkpt lat="44.30202" lon="3.92164">
        <ele>832.64</ele>
        <time>2012-06-17T12:28:40Z</time>
      </trkpt>
      <trkpt lat="44.30197" lon="3.92161">
        <ele>832.64</ele>
        <time>2012-06-17T12:28:41Z</time>
      </trkpt>
      <trkpt lat="44.30192" lon="3.92158">
        <ele>833.12</ele>
        <time>2012-06-17T12:28:42Z</time>
      </trkpt>
      <trkpt lat="44.30187" lon="3.92156">
        <ele>832.64</ele>
        <time>2012-06-17T12:28:43Z</time>
      </trkpt>
      <trkpt lat="44.30155" lon="3.92139">
        <ele>832.64</ele>
        <time>2012-06-17T12:28:49Z</time>
      </trkpt>
      <trkpt lat="44.3015" lon="3.92138">
        <ele>833.12</ele>
        <time>2012-06-17T12:28:50Z</time>
      </trkpt>
      <trkpt lat="44.30145" lon="3.92139">
        <ele>832.64</ele>
        <time>2012-06-17T12:28:51Z</time>
      </trkpt>
      <trkpt lat="44.30141" lon="3.92142">
        <ele>833.12</ele>
        <time>2012-06-17T12:28:52Z</time>
      </trkpt>
      <trkpt lat="44.30136" lon="3.92146">
        <ele>833.6</ele>
        <time>2012-06-17T12:28:53Z</time>
      </trkpt>
      <trkpt lat="44.30095" lon="3.9219">
        <ele>832.16</ele>
        <time>2012-06-17T12:29:03Z</time>
      </trkpt>
      <trkpt lat="44.30091" lon="3.92193">
        <ele>832.16</ele>
        <time>2012-06-17T12:29:04Z</time>
      </trkpt>
      <trkpt lat="44.30086" lon="3.92193">
        <ele>832.16</ele>
        <time>2012-06-17T12:29:05Z</time>
      </trkpt>
      <trkpt lat="44.30081" lon="3.92189">
        <ele>832.16</ele>
        <time>2012-06-17T12:29:06Z</time>
      </trkpt>
      <trkpt lat="44.30077" lon="3.92183">
        <ele>832.16</ele>
        <time>2012-06-17T12:29:07Z</time>
      </trkpt>
      <trkpt lat="44.30073" lon="3.92178">
        <ele>832.16</ele>
        <time>2012-06-17T12:29:08Z</time>
      </trkpt>
      <trkpt lat="44.30068" lon="3.92174">
        <ele>831.68</ele>
        <time>2012-06-17T12:29:09Z</time>
      </trkpt>
      <trkpt lat="44.30063" lon="3.9217">
        <ele>832.16</ele>
        <time>2012-06-17T12:29:10Z</time>
      </trkpt>
      <trkpt lat="44.30014" lon="3.9214">
        <ele>831.68</ele>
        <time>2012-06-17T12:29:20Z</time>
      </trkpt>
      <trkpt lat="44.29988" lon="3.92127">
        <ele>832.16</ele>
        <time>2012-06-17T12:29:25Z</time>
      </trkpt>
      <trkpt lat="44.29972" lon="3.92119">
        <ele>832.16</ele>
        <time>2012-06-17T12:29:28Z</time>
      </trkpt>
      <trkpt lat="44.29935" lon="3.92094">
        <ele>831.2</ele>
        <time>2012-06-17T12:29:36Z</time>
      </trkpt>
      <trkpt lat="44.29929" lon="3.92092">
        <ele>831.68</ele>
        <time>2012-06-17T12:29:37Z</time>
      </trkpt>
      <trkpt lat="44.29924" lon="3.92091">
        <ele>831.68</ele>
        <time>2012-06-17T12:29:38Z</time>
      </trkpt>
      <trkpt lat="44.29849" lon="3.92065">
        <ele>830.72</ele>
        <time>2012-06-17T12:29:51Z</time>
      </trkpt>
      <trkpt lat="44.29843" lon="3.92064">
        <ele>830.72</ele>
        <time>2012-06-17T12:29:52Z</time>
      </trkpt>
      <trkpt lat="44.29798" lon="3.92059">
        <ele>831.2</ele>
        <time>2012-06-17T12:30:00Z</time>
      </trkpt>
      <trkpt lat="44.2979" lon="3.92061">
        <ele>831.2</ele>
        <time>2012-06-17T12:30:02Z</time>
      </trkpt>
      <trkpt lat="44.29786" lon="3.92064">
        <ele>831.68</ele>
        <time>2012-06-17T12:30:03Z</time>
      </trkpt>
      <trkpt lat="44.29782" lon="3.92068">
        <ele>831.2</ele>
        <time>2012-06-17T12:30:04Z</time>
      </trkpt>
      <trkpt lat="44.29776" lon="3.92076">
        <ele>831.2</ele>
        <time>2012-06-17T12:30:06Z</time>
      </trkpt>
      <trkpt lat="44.29773" lon="3.92081">
        <ele>831.68</ele>
        <time>2012-06-17T12:30:07Z</time>
      </trkpt>
      <trkpt lat="44.29771" lon="3.92086">
        <ele>831.68</ele>
        <time>2012-06-17T12:30:08Z</time>
      </trkpt>
      <trkpt lat="44.29768" lon="3.9209">
        <ele>831.2</ele>
        <time>2012-06-17T12:30:09Z</time>
      </trkpt>
      <trkpt lat="44.29766" lon="3.92094">
        <ele>830.72</ele>
        <time>2012-06-17T12:30:10Z</time>
      </trkpt>
      <trkpt lat="44.29764" lon="3.92099">
        <ele>831.2</ele>
        <time>2012-06-17T12:30:11Z</time>
      </trkpt>
      <trkpt lat="44.29754" lon="3.9213">
        <ele>829.76</ele>
        <time>2012-06-17T12:30:21Z</time>
      </trkpt>
      <trkpt lat="44.29754" lon="3.92135">
        <ele>829.76</ele>
        <time>2012-06-17T12:30:35Z</time>
      </trkpt>
      <trkpt lat="44.29754" lon="3.92137">
        <ele>829.76</ele>
        <time>2012-06-17T12:30:36Z</time>
      </trkpt>
      <trkpt lat="44.29755" lon="3.92178">
        <ele>828.31</ele>
        <time>2012-06-17T12:30:48Z</time>
      </trkpt>
      <trkpt lat="44.29756" lon="3.92184">
        <ele>827.83</ele>
        <time>2012-06-17T12:30:49Z</time>
      </trkpt>
      <trkpt lat="44.29771" lon="3.92281">
        <ele>826.87</ele>
        <time>2012-06-17T12:31:03Z</time>
      </trkpt>
      <trkpt lat="44.29783" lon="3.92356">
        <ele>825.91</ele>
        <time>2012-06-17T12:31:14Z</time>
      </trkpt>
      <trkpt lat="44.29784" lon="3.92362">
        <ele>825.91</ele>
        <time>2012-06-17T12:31:15Z</time>
      </trkpt>
      <trkpt lat="44.29785" lon="3.92369">
        <ele>825.43</ele>
        <time>2012-06-17T12:31:16Z</time>
      </trkpt>
      <trkpt lat="44.29787" lon="3.92376">
        <ele>825.43</ele>
        <time>2012-06-17T12:31:17Z</time>
      </trkpt>
      <trkpt lat="44.29788" lon="3.92382">
        <ele>825.91</ele>
        <time>2012-06-17T12:31:18Z</time>
      </trkpt>
      <trkpt lat="44.29788" lon="3.9239">
        <ele>825.43</ele>
        <time>2012-06-17T12:31:19Z</time>
      </trkpt>
      <trkpt lat="44.29789" lon="3.92411">
        <ele>824.95</ele>
        <time>2012-06-17T12:31:22Z</time>
      </trkpt>
      <trkpt lat="44.29789" lon="3.92418">
        <ele>824.47</ele>
        <time>2012-06-17T12:31:23Z</time>
      </trkpt>
      <trkpt lat="44.2979" lon="3.92459">
        <ele>823.03</ele>
        <time>2012-06-17T12:31:28Z</time>
      </trkpt>
      <trkpt lat="44.29796" lon="3.92511">
        <ele>820.62</ele>
        <time>2012-06-17T12:31:33Z</time>
      </trkpt>
      <trkpt lat="44.29796" lon="3.92523">
        <ele>820.14</ele>
        <time>2012-06-17T12:31:34Z</time>
      </trkpt>
      <trkpt lat="44.29795" lon="3.92536">
        <ele>819.66</ele>
        <time>2012-06-17T12:31:35Z</time>
      </trkpt>
      <trkpt lat="44.29792" lon="3.92576">
        <ele>818.22</ele>
        <time>2012-06-17T12:31:38Z</time>
      </trkpt>
      <trkpt lat="44.29793" lon="3.9259">
        <ele>817.26</ele>
        <time>2012-06-17T12:31:39Z</time>
      </trkpt>
      <trkpt lat="44.29796" lon="3.92604">
        <ele>817.74</ele>
        <time>2012-06-17T12:31:40Z</time>
      </trkpt>
      <trkpt lat="44.298" lon="3.92617">
        <ele>817.26</ele>
        <time>2012-06-17T12:31:41Z</time>
      </trkpt>
      <trkpt lat="44.29805" lon="3.92628">
        <ele>816.3</ele>
        <time>2012-06-17T12:31:42Z</time>
      </trkpt>
      <trkpt lat="44.29811" lon="3.92638">
        <ele>815.82</ele>
        <time>2012-06-17T12:31:43Z</time>
      </trkpt>
      <trkpt lat="44.29814" lon="3.92648">
        <ele>814.85</ele>
        <time>2012-06-17T12:31:44Z</time>
      </trkpt>
      <trkpt lat="44.29816" lon="3.92659">
        <ele>813.89</ele>
        <time>2012-06-17T12:31:45Z</time>
      </trkpt>
      <trkpt lat="44.29815" lon="3.9267">
        <ele>812.93</ele>
        <time>2012-06-17T12:31:46Z</time>
      </trkpt>
      <trkpt lat="44.29812" lon="3.9268">
        <ele>812.45</ele>
        <time>2012-06-17T12:31:47Z</time>
      </trkpt>
      <trkpt lat="44.29808" lon="3.92691">
        <ele>812.45</ele>
        <time>2012-06-17T12:31:48Z</time>
      </trkpt>
      <trkpt lat="44.29806" lon="3.92703">
        <ele>811.97</ele>
        <time>2012-06-17T12:31:49Z</time>
      </trkpt>
      <trkpt lat="44.29806" lon="3.92716">
        <ele>811.01</ele>
        <time>2012-06-17T12:31:50Z</time>
      </trkpt>
      <trkpt lat="44.29808" lon="3.92727">
        <ele>810.05</ele>
        <time>2012-06-17T12:31:51Z</time>
      </trkpt>
      <trkpt lat="44.29812" lon="3.92735">
        <ele>809.57</ele>
        <time>2012-06-17T12:31:52Z</time>
      </trkpt>
      <trkpt lat="44.29818" lon="3.92741">
        <ele>809.09</ele>
        <time>2012-06-17T12:31:53Z</time>
      </trkpt>
      <trkpt lat="44.29824" lon="3.92746">
        <ele>808.61</ele>
        <time>2012-06-17T12:31:54Z</time>
      </trkpt>
      <trkpt lat="44.2983" lon="3.92754">
        <ele>807.64</ele>
        <time>2012-06-17T12:31:55Z</time>
      </trkpt>
      <trkpt lat="44.29833" lon="3.92764">
        <ele>806.68</ele>
        <time>2012-06-17T12:31:56Z</time>
      </trkpt>
      <trkpt lat="44.29835" lon="3.92775">
        <ele>806.2</ele>
        <time>2012-06-17T12:31:57Z</time>
      </trkpt>
      <trkpt lat="44.29834" lon="3.92786">
        <ele>805.24</ele>
        <time>2012-06-17T12:31:58Z</time>
      </trkpt>
      <trkpt lat="44.29834" lon="3.92797">
        <ele>805.24</ele>
        <time>2012-06-17T12:31:59Z</time>
      </trkpt>
      <trkpt lat="44.29832" lon="3.92807">
        <ele>805.24</ele>
        <time>2012-06-17T12:32:00Z</time>
      </trkpt>
      <trkpt lat="44.29828" lon="3.92818">
        <ele>804.76</ele>
        <time>2012-06-17T12:32:01Z</time>
      </trkpt>
      <trkpt lat="44.29821" lon="3.92828">
        <ele>804.28</ele>
        <time>2012-06-17T12:32:02Z</time>
      </trkpt>
      <trkpt lat="44.29813" lon="3.92837">
        <ele>803.32</ele>
        <time>2012-06-17T12:32:03Z</time>
      </trkpt>
      <trkpt lat="44.29804" lon="3.92846">
        <ele>803.32</ele>
        <time>2012-06-17T12:32:04Z</time>
      </trkpt>
      <trkpt lat="44.29768" lon="3.92879">
        <ele>800.44</ele>
        <time>2012-06-17T12:32:08Z</time>
      </trkpt>
      <trkpt lat="44.29749" lon="3.92891">
        <ele>798.99</ele>
        <time>2012-06-17T12:32:10Z</time>
      </trkpt>
      <trkpt lat="44.29741" lon="3.92901">
        <ele>798.99</ele>
        <time>2012-06-17T12:32:11Z</time>
      </trkpt>
      <trkpt lat="44.29734" lon="3.92912">
        <ele>797.55</ele>
        <time>2012-06-17T12:32:12Z</time>
      </trkpt>
      <trkpt lat="44.29728" lon="3.92924">
        <ele>797.07</ele>
        <time>2012-06-17T12:32:13Z</time>
      </trkpt>
      <trkpt lat="44.29722" lon="3.92937">
        <ele>796.11</ele>
        <time>2012-06-17T12:32:14Z</time>
      </trkpt>
      <trkpt lat="44.29685" lon="3.93008">
        <ele>793.71</ele>
        <time>2012-06-17T12:32:19Z</time>
      </trkpt>
      <trkpt lat="44.2967" lon="3.93038">
        <ele>791.3</ele>
        <time>2012-06-17T12:32:21Z</time>
      </trkpt>
      <trkpt lat="44.29653" lon="3.93082">
        <ele>787.94</ele>
        <time>2012-06-17T12:32:24Z</time>
      </trkpt>
      <trkpt lat="44.29647" lon="3.93097">
        <ele>788.42</ele>
        <time>2012-06-17T12:32:25Z</time>
      </trkpt>
      <trkpt lat="44.29631" lon="3.9314">
        <ele>787.46</ele>
        <time>2012-06-17T12:32:28Z</time>
      </trkpt>
      <trkpt lat="44.29622" lon="3.93166">
        <ele>785.05</ele>
        <time>2012-06-17T12:32:30Z</time>
      </trkpt>
      <trkpt lat="44.2962" lon="3.9318">
        <ele>783.13</ele>
        <time>2012-06-17T12:32:31Z</time>
      </trkpt>
      <trkpt lat="44.29621" lon="3.93193">
        <ele>782.17</ele>
        <time>2012-06-17T12:32:32Z</time>
      </trkpt>
      <trkpt lat="44.29623" lon="3.93207">
        <ele>781.69</ele>
        <time>2012-06-17T12:32:33Z</time>
      </trkpt>
      <trkpt lat="44.29623" lon="3.9322">
        <ele>780.73</ele>
        <time>2012-06-17T12:32:34Z</time>
      </trkpt>
      <trkpt lat="44.2962" lon="3.93232">
        <ele>779.77</ele>
        <time>2012-06-17T12:32:35Z</time>
      </trkpt>
      <trkpt lat="44.29614" lon="3.93243">
        <ele>778.81</ele>
        <time>2012-06-17T12:32:36Z</time>
      </trkpt>
      <trkpt lat="44.29607" lon="3.93251">
        <ele>778.81</ele>
        <time>2012-06-17T12:32:37Z</time>
      </trkpt>
      <trkpt lat="44.29599" lon="3.93259">
        <ele>777.84</ele>
        <time>2012-06-17T12:32:38Z</time>
      </trkpt>
      <trkpt lat="44.29593" lon="3.93269">
        <ele>777.36</ele>
        <time>2012-06-17T12:32:39Z</time>
      </trkpt>
      <trkpt lat="44.29588" lon="3.9328">
        <ele>777.36</ele>
        <time>2012-06-17T12:32:40Z</time>
      </trkpt>
      <trkpt lat="44.29585" lon="3.93292">
        <ele>776.4</ele>
        <time>2012-06-17T12:32:41Z</time>
      </trkpt>
      <trkpt lat="44.29583" lon="3.93305">
        <ele>775.44</ele>
        <time>2012-06-17T12:32:42Z</time>
      </trkpt>
      <trkpt lat="44.29573" lon="3.9334">
        <ele>772.56</ele>
        <time>2012-06-17T12:32:45Z</time>
      </trkpt>
      <trkpt lat="44.29568" lon="3.93351">
        <ele>772.56</ele>
        <time>2012-06-17T12:32:46Z</time>
      </trkpt>
      <trkpt lat="44.29561" lon="3.93361">
        <ele>772.56</ele>
        <time>2012-06-17T12:32:47Z</time>
      </trkpt>
      <trkpt lat="44.29555" lon="3.93368">
        <ele>771.11</ele>
        <time>2012-06-17T12:32:48Z</time>
      </trkpt>
      <trkpt lat="44.29551" lon="3.93372">
        <ele>770.63</ele>
        <time>2012-06-17T12:32:49Z</time>
      </trkpt>
      <trkpt lat="44.29549" lon="3.93374">
        <ele>769.67</ele>
        <time>2012-06-17T12:32:50Z</time>
      </trkpt>
      <trkpt lat="44.29544" lon="3.93379">
        <ele>768.71</ele>
        <time>2012-06-17T12:32:52Z</time>
      </trkpt>
      <trkpt lat="44.29541" lon="3.93383">
        <ele>769.19</ele>
        <time>2012-06-17T12:32:53Z</time>
      </trkpt>
      <trkpt lat="44.29538" lon="3.93389">
        <ele>768.71</ele>
        <time>2012-06-17T12:32:54Z</time>
      </trkpt>
      <trkpt lat="44.29527" lon="3.93413">
        <ele>767.75</ele>
        <time>2012-06-17T12:32:59Z</time>
      </trkpt>
      <trkpt lat="44.29527" lon="3.93415">
        <ele>767.27</ele>
        <time>2012-06-17T12:33:00Z</time>
      </trkpt>
      <trkpt lat="44.29526" lon="3.93417">
        <ele>766.79</ele>
        <time>2012-06-17T12:33:01Z</time>
      </trkpt>
      <trkpt lat="44.29524" lon="3.93419">
        <ele>766.79</ele>
        <time>2012-06-17T12:33:02Z</time>
      </trkpt>
      <trkpt lat="44.29522" lon="3.93421">
        <ele>766.79</ele>
        <time>2012-06-17T12:33:03Z</time>
      </trkpt>
      <trkpt lat="44.29522" lon="3.93424">
        <ele>766.79</ele>
        <time>2012-06-17T12:33:04Z</time>
      </trkpt>
      <trkpt lat="44.29523" lon="3.93425">
        <ele>766.79</ele>
        <time>2012-06-17T12:33:05Z</time>
      </trkpt>
      <trkpt lat="44.29526" lon="3.93422">
        <ele>766.79</ele>
        <time>2012-06-17T12:33:07Z</time>
      </trkpt>
      <trkpt lat="44.2953" lon="3.93412">
        <ele>767.27</ele>
        <time>2012-06-17T12:33:10Z</time>
      </trkpt>
      <trkpt lat="44.29534" lon="3.93419">
        <ele>768.23</ele>
        <time>2012-06-17T12:33:14Z</time>
      </trkpt>
      <trkpt lat="44.29539" lon="3.93452">
        <ele>767.75</ele>
        <time>2012-06-17T12:33:21Z</time>
      </trkpt>
      <trkpt lat="44.2954" lon="3.93458">
        <ele>768.23</ele>
        <time>2012-06-17T12:33:22Z</time>
      </trkpt>
      <trkpt lat="44.2954" lon="3.93464">
        <ele>767.75</ele>
        <time>2012-06-17T12:33:23Z</time>
      </trkpt>
      <trkpt lat="44.2954" lon="3.9347">
        <ele>767.27</ele>
        <time>2012-06-17T12:33:24Z</time>
      </trkpt>
      <trkpt lat="44.29539" lon="3.93476">
        <ele>766.79</ele>
        <time>2012-06-17T12:33:25Z</time>
      </trkpt>
      <trkpt lat="44.29538" lon="3.93481">
        <ele>766.31</ele>
        <time>2012-06-17T12:33:26Z</time>
      </trkpt>
      <trkpt lat="44.29536" lon="3.93487">
        <ele>765.35</ele>
        <time>2012-06-17T12:33:27Z</time>
      </trkpt>
      <trkpt lat="44.29534" lon="3.93491">
        <ele>764.87</ele>
        <time>2012-06-17T12:33:28Z</time>
      </trkpt>
      <trkpt lat="44.29532" lon="3.93494">
        <ele>763.9</ele>
        <time>2012-06-17T12:33:29Z</time>
      </trkpt>
      <trkpt lat="44.29529" lon="3.93498">
        <ele>763.9</ele>
        <time>2012-06-17T12:33:30Z</time>
      </trkpt>
      <trkpt lat="44.29525" lon="3.93501">
        <ele>763.42</ele>
        <time>2012-06-17T12:33:31Z</time>
      </trkpt>
      <trkpt lat="44.29522" lon="3.93504">
        <ele>762.46</ele>
        <time>2012-06-17T12:33:32Z</time>
      </trkpt>
      <trkpt lat="44.29508" lon="3.93519">
        <ele>760.54</ele>
        <time>2012-06-17T12:33:36Z</time>
      </trkpt>
      <trkpt lat="44.29505" lon="3.93522">
        <ele>760.54</ele>
        <time>2012-06-17T12:33:37Z</time>
      </trkpt>
      <trkpt lat="44.29499" lon="3.93527">
        <ele>759.58</ele>
        <time>2012-06-17T12:33:40Z</time>
      </trkpt>
      <trkpt lat="44.29497" lon="3.93529">
        <ele>759.58</ele>
        <time>2012-06-17T12:33:41Z</time>
      </trkpt>
      <trkpt lat="44.29497" lon="3.93532">
        <ele>759.1</ele>
        <time>2012-06-17T12:33:42Z</time>
      </trkpt>
      <trkpt lat="44.29496" lon="3.93534">
        <ele>759.1</ele>
        <time>2012-06-17T12:33:43Z</time>
      </trkpt>
      <trkpt lat="44.29497" lon="3.93536">
        <ele>758.62</ele>
        <time>2012-06-17T12:33:45Z</time>
      </trkpt>
      <trkpt lat="44.29499" lon="3.93536">
        <ele>757.66</ele>
        <time>2012-06-17T12:33:46Z</time>
      </trkpt>
      <trkpt lat="44.29501" lon="3.93534">
        <ele>757.66</ele>
        <time>2012-06-17T12:33:47Z</time>
      </trkpt>
      <trkpt lat="44.29502" lon="3.93532">
        <ele>757.66</ele>
        <time>2012-06-17T12:33:48Z</time>
      </trkpt>
      <trkpt lat="44.29504" lon="3.93531">
        <ele>757.66</ele>
        <time>2012-06-17T12:33:49Z</time>
      </trkpt>
      <trkpt lat="44.29506" lon="3.93529">
        <ele>757.18</ele>
        <time>2012-06-17T12:33:50Z</time>
      </trkpt>
      <trkpt lat="44.29509" lon="3.93528">
        <ele>756.69</ele>
        <time>2012-06-17T12:33:51Z</time>
      </trkpt>
      <trkpt lat="44.29512" lon="3.93527">
        <ele>757.18</ele>
        <time>2012-06-17T12:33:52Z</time>
      </trkpt>
      <trkpt lat="44.29519" lon="3.93525">
        <ele>755.25</ele>
        <time>2012-06-17T12:33:55Z</time>
      </trkpt>
      <trkpt lat="44.29521" lon="3.93525">
        <ele>755.25</ele>
        <time>2012-06-17T12:33:56Z</time>
      </trkpt>
      <trkpt lat="44.29523" lon="3.93527">
        <ele>754.29</ele>
        <time>2012-06-17T12:33:58Z</time>
      </trkpt>
      <trkpt lat="44.2952" lon="3.93531">
        <ele>754.77</ele>
        <time>2012-06-17T12:34:01Z</time>
      </trkpt>
      <trkpt lat="44.29507" lon="3.93548">
        <ele>753.33</ele>
        <time>2012-06-17T12:34:06Z</time>
      </trkpt>
      <trkpt lat="44.295" lon="3.93567">
        <ele>752.37</ele>
        <time>2012-06-17T12:34:09Z</time>
      </trkpt>
      <trkpt lat="44.29497" lon="3.93574">
        <ele>752.37</ele>
        <time>2012-06-17T12:34:10Z</time>
      </trkpt>
      <trkpt lat="44.2949" lon="3.93598">
        <ele>750.93</ele>
        <time>2012-06-17T12:34:13Z</time>
      </trkpt>
      <trkpt lat="44.29487" lon="3.93605">
        <ele>750.45</ele>
        <time>2012-06-17T12:34:14Z</time>
      </trkpt>
      <trkpt lat="44.29478" lon="3.93618">
        <ele>749.49</ele>
        <time>2012-06-17T12:34:16Z</time>
      </trkpt>
      <trkpt lat="44.29429" lon="3.93672">
        <ele>747.56</ele>
        <time>2012-06-17T12:34:26Z</time>
      </trkpt>
      <trkpt lat="44.29411" lon="3.93696">
        <ele>748.04</ele>
        <time>2012-06-17T12:34:31Z</time>
      </trkpt>
      <trkpt lat="44.29408" lon="3.93702">
        <ele>748.04</ele>
        <time>2012-06-17T12:34:32Z</time>
      </trkpt>
      <trkpt lat="44.29406" lon="3.93708">
        <ele>748.04</ele>
        <time>2012-06-17T12:34:33Z</time>
      </trkpt>
      <trkpt lat="44.29404" lon="3.93713">
        <ele>748.52</ele>
        <time>2012-06-17T12:34:34Z</time>
      </trkpt>
      <trkpt lat="44.29402" lon="3.93718">
        <ele>749</ele>
        <time>2012-06-17T12:34:35Z</time>
      </trkpt>
      <trkpt lat="44.29401" lon="3.93723">
        <ele>749</ele>
        <time>2012-06-17T12:34:36Z</time>
      </trkpt>
      <trkpt lat="44.29401" lon="3.93725">
        <ele>749.49</ele>
        <time>2012-06-17T12:34:37Z</time>
      </trkpt>
      <trkpt lat="44.29402" lon="3.93728">
        <ele>749.49</ele>
        <time>2012-06-17T12:34:38Z</time>
      </trkpt>
      <trkpt lat="44.29402" lon="3.93731">
        <ele>749</ele>
        <time>2012-06-17T12:34:39Z</time>
      </trkpt>
      <trkpt lat="44.29407" lon="3.93761">
        <ele>749</ele>
        <time>2012-06-17T12:34:44Z</time>
      </trkpt>
      <trkpt lat="44.29407" lon="3.9377">
        <ele>748.52</ele>
        <time>2012-06-17T12:34:45Z</time>
      </trkpt>
      <trkpt lat="44.29406" lon="3.93777">
        <ele>748.04</ele>
        <time>2012-06-17T12:34:46Z</time>
      </trkpt>
      <trkpt lat="44.29402" lon="3.93783">
        <ele>747.08</ele>
        <time>2012-06-17T12:34:47Z</time>
      </trkpt>
      <trkpt lat="44.29397" lon="3.93787">
        <ele>746.6</ele>
        <time>2012-06-17T12:34:48Z</time>
      </trkpt>
      <trkpt lat="44.29391" lon="3.93791">
        <ele>746.12</ele>
        <time>2012-06-17T12:34:49Z</time>
      </trkpt>
      <trkpt lat="44.29384" lon="3.93795">
        <ele>746.12</ele>
        <time>2012-06-17T12:34:50Z</time>
      </trkpt>
      <trkpt lat="44.29376" lon="3.93797">
        <ele>746.12</ele>
        <time>2012-06-17T12:34:51Z</time>
      </trkpt>
      <trkpt lat="44.29368" lon="3.93797">
        <ele>745.16</ele>
        <time>2012-06-17T12:34:52Z</time>
      </trkpt>
      <trkpt lat="44.29358" lon="3.93794">
        <ele>744.2</ele>
        <time>2012-06-17T12:34:53Z</time>
      </trkpt>
      <trkpt lat="44.29349" lon="3.93791">
        <ele>743.24</ele>
        <time>2012-06-17T12:34:54Z</time>
      </trkpt>
      <trkpt lat="44.29339" lon="3.93788">
        <ele>742.28</ele>
        <time>2012-06-17T12:34:55Z</time>
      </trkpt>
      <trkpt lat="44.2933" lon="3.93783">
        <ele>740.83</ele>
        <time>2012-06-17T12:34:56Z</time>
      </trkpt>
      <trkpt lat="44.29321" lon="3.9378">
        <ele>740.83</ele>
        <time>2012-06-17T12:34:57Z</time>
      </trkpt>
      <trkpt lat="44.29302" lon="3.93774">
        <ele>739.39</ele>
        <time>2012-06-17T12:34:59Z</time>
      </trkpt>
      <trkpt lat="44.29293" lon="3.93773">
        <ele>738.91</ele>
        <time>2012-06-17T12:35:00Z</time>
      </trkpt>
      <trkpt lat="44.29285" lon="3.93774">
        <ele>737.95</ele>
        <time>2012-06-17T12:35:01Z</time>
      </trkpt>
      <trkpt lat="44.29277" lon="3.93778">
        <ele>737.47</ele>
        <time>2012-06-17T12:35:02Z</time>
      </trkpt>
      <trkpt lat="44.2927" lon="3.93783">
        <ele>737.95</ele>
        <time>2012-06-17T12:35:03Z</time>
      </trkpt>
      <trkpt lat="44.29261" lon="3.93788">
        <ele>736.99</ele>
        <time>2012-06-17T12:35:04Z</time>
      </trkpt>
      <trkpt lat="44.29252" lon="3.93793">
        <ele>736.51</ele>
        <time>2012-06-17T12:35:05Z</time>
      </trkpt>
      <trkpt lat="44.29243" lon="3.93798">
        <ele>736.03</ele>
        <time>2012-06-17T12:35:06Z</time>
      </trkpt>
      <trkpt lat="44.29225" lon="3.93809">
        <ele>735.07</ele>
        <time>2012-06-17T12:35:08Z</time>
      </trkpt>
      <trkpt lat="44.29169" lon="3.9384">
        <ele>734.1</ele>
        <time>2012-06-17T12:35:16Z</time>
      </trkpt>
      <trkpt lat="44.29159" lon="3.93848">
        <ele>733.62</ele>
        <time>2012-06-17T12:35:18Z</time>
      </trkpt>
      <trkpt lat="44.29153" lon="3.93851">
        <ele>733.14</ele>
        <time>2012-06-17T12:35:19Z</time>
      </trkpt>
      <trkpt lat="44.29147" lon="3.9385">
        <ele>732.66</ele>
        <time>2012-06-17T12:35:20Z</time>
      </trkpt>
      <trkpt lat="44.2914" lon="3.93847">
        <ele>732.18</ele>
        <time>2012-06-17T12:35:21Z</time>
      </trkpt>
      <trkpt lat="44.29125" lon="3.93839">
        <ele>730.74</ele>
        <time>2012-06-17T12:35:23Z</time>
      </trkpt>
      <trkpt lat="44.29107" lon="3.93833">
        <ele>728.34</ele>
        <time>2012-06-17T12:35:25Z</time>
      </trkpt>
      <trkpt lat="44.29097" lon="3.93831">
        <ele>727.86</ele>
        <time>2012-06-17T12:35:26Z</time>
      </trkpt>
      <trkpt lat="44.29087" lon="3.93831">
        <ele>727.37</ele>
        <time>2012-06-17T12:35:27Z</time>
      </trkpt>
      <trkpt lat="44.29077" lon="3.9383">
        <ele>726.41</ele>
        <time>2012-06-17T12:35:28Z</time>
      </trkpt>
      <trkpt lat="44.29066" lon="3.93828">
        <ele>725.93</ele>
        <time>2012-06-17T12:35:29Z</time>
      </trkpt>
      <trkpt lat="44.29056" lon="3.93828">
        <ele>724.01</ele>
        <time>2012-06-17T12:35:30Z</time>
      </trkpt>
      <trkpt lat="44.29046" lon="3.93831">
        <ele>723.53</ele>
        <time>2012-06-17T12:35:31Z</time>
      </trkpt>
      <trkpt lat="44.29037" lon="3.93834">
        <ele>723.53</ele>
        <time>2012-06-17T12:35:32Z</time>
      </trkpt>
      <trkpt lat="44.2903" lon="3.93839">
        <ele>723.53</ele>
        <time>2012-06-17T12:35:33Z</time>
      </trkpt>
      <trkpt lat="44.29023" lon="3.93845">
        <ele>722.57</ele>
        <time>2012-06-17T12:35:34Z</time>
      </trkpt>
      <trkpt lat="44.29015" lon="3.93852">
        <ele>722.57</ele>
        <time>2012-06-17T12:35:35Z</time>
      </trkpt>
      <trkpt lat="44.29007" lon="3.93858">
        <ele>721.61</ele>
        <time>2012-06-17T12:35:36Z</time>
      </trkpt>
      <trkpt lat="44.28998" lon="3.93862">
        <ele>720.65</ele>
        <time>2012-06-17T12:35:37Z</time>
      </trkpt>
      <trkpt lat="44.28988" lon="3.93864">
        <ele>719.68</ele>
        <time>2012-06-17T12:35:38Z</time>
      </trkpt>
      <trkpt lat="44.28979" lon="3.93863">
        <ele>719.68</ele>
        <time>2012-06-17T12:35:39Z</time>
      </trkpt>
      <trkpt lat="44.2897" lon="3.93862">
        <ele>719.68</ele>
        <time>2012-06-17T12:35:40Z</time>
      </trkpt>
      <trkpt lat="44.28961" lon="3.9386">
        <ele>719.68</ele>
        <time>2012-06-17T12:35:41Z</time>
      </trkpt>
      <trkpt lat="44.28917" lon="3.93859">
        <ele>719.2</ele>
        <time>2012-06-17T12:35:47Z</time>
      </trkpt>
      <trkpt lat="44.28911" lon="3.93861">
        <ele>719.2</ele>
        <time>2012-06-17T12:35:48Z</time>
      </trkpt>
      <trkpt lat="44.28905" lon="3.93863">
        <ele>719.2</ele>
        <time>2012-06-17T12:35:49Z</time>
      </trkpt>
      <trkpt lat="44.28899" lon="3.93866">
        <ele>718.72</ele>
        <time>2012-06-17T12:35:50Z</time>
      </trkpt>
      <trkpt lat="44.28894" lon="3.93868">
        <ele>719.2</ele>
        <time>2012-06-17T12:35:51Z</time>
      </trkpt>
      <trkpt lat="44.2889" lon="3.9387">
        <ele>718.72</ele>
        <time>2012-06-17T12:35:52Z</time>
      </trkpt>
      <trkpt lat="44.28886" lon="3.93872">
        <ele>718.72</ele>
        <time>2012-06-17T12:35:53Z</time>
      </trkpt>
      <trkpt lat="44.28882" lon="3.93874">
        <ele>718.72</ele>
        <time>2012-06-17T12:35:54Z</time>
      </trkpt>
      <trkpt lat="44.28879" lon="3.93876">
        <ele>719.2</ele>
        <time>2012-06-17T12:35:55Z</time>
      </trkpt>
      <trkpt lat="44.28876" lon="3.93878">
        <ele>719.2</ele>
        <time>2012-06-17T12:35:56Z</time>
      </trkpt>
      <trkpt lat="44.28874" lon="3.9388">
        <ele>719.2</ele>
        <time>2012-06-17T12:35:57Z</time>
      </trkpt>
      <trkpt lat="44.28871" lon="3.93882">
        <ele>719.2</ele>
        <time>2012-06-17T12:35:58Z</time>
      </trkpt>
      <trkpt lat="44.28868" lon="3.93884">
        <ele>720.16</ele>
        <time>2012-06-17T12:35:59Z</time>
      </trkpt>
      <trkpt lat="44.28865" lon="3.93886">
        <ele>719.68</ele>
        <time>2012-06-17T12:36:00Z</time>
      </trkpt>
      <trkpt lat="44.28862" lon="3.93888">
        <ele>720.16</ele>
        <time>2012-06-17T12:36:01Z</time>
      </trkpt>
      <trkpt lat="44.28859" lon="3.93891">
        <ele>720.16</ele>
        <time>2012-06-17T12:36:02Z</time>
      </trkpt>
      <trkpt lat="44.28856" lon="3.93893">
        <ele>721.13</ele>
        <time>2012-06-17T12:36:03Z</time>
      </trkpt>
      <trkpt lat="44.28853" lon="3.93894">
        <ele>721.13</ele>
        <time>2012-06-17T12:36:04Z</time>
      </trkpt>
      <trkpt lat="44.28851" lon="3.93894">
        <ele>721.61</ele>
        <time>2012-06-17T12:36:05Z</time>
      </trkpt>
      <trkpt lat="44.28831" lon="3.93907">
        <ele>722.09</ele>
        <time>2012-06-17T12:36:12Z</time>
      </trkpt>
      <trkpt lat="44.28827" lon="3.93908">
        <ele>722.09</ele>
        <time>2012-06-17T12:36:13Z</time>
      </trkpt>
      <trkpt lat="44.288" lon="3.93925">
        <ele>722.57</ele>
        <time>2012-06-17T12:36:25Z</time>
      </trkpt>
      <trkpt lat="44.28775" lon="3.93944">
        <ele>722.09</ele>
        <time>2012-06-17T12:36:37Z</time>
      </trkpt>
      <trkpt lat="44.28756" lon="3.93963">
        <ele>722.57</ele>
        <time>2012-06-17T12:36:46Z</time>
      </trkpt>
      <trkpt lat="44.28731" lon="3.93982">
        <ele>724.01</ele>
        <time>2012-06-17T12:36:57Z</time>
      </trkpt>
      <trkpt lat="44.28708" lon="3.94001">
        <ele>723.53</ele>
        <time>2012-06-17T12:37:07Z</time>
      </trkpt>
      <trkpt lat="44.28685" lon="3.94019">
        <ele>721.61</ele>
        <time>2012-06-17T12:37:16Z</time>
      </trkpt>
      <trkpt lat="44.28656" lon="3.94042">
        <ele>720.65</ele>
        <time>2012-06-17T12:37:25Z</time>
      </trkpt>
      <trkpt lat="44.28653" lon="3.94047">
        <ele>720.65</ele>
        <time>2012-06-17T12:37:26Z</time>
      </trkpt>
      <trkpt lat="44.28641" lon="3.9406">
        <ele>720.65</ele>
        <time>2012-06-17T12:37:29Z</time>
      </trkpt>
      <trkpt lat="44.28614" lon="3.94093">
        <ele>719.2</ele>
        <time>2012-06-17T12:37:37Z</time>
      </trkpt>
      <trkpt lat="44.28611" lon="3.94097">
        <ele>718.72</ele>
        <time>2012-06-17T12:37:38Z</time>
      </trkpt>
      <trkpt lat="44.28596" lon="3.94113">
        <ele>717.76</ele>
        <time>2012-06-17T12:37:43Z</time>
      </trkpt>
      <trkpt lat="44.28594" lon="3.94118">
        <ele>717.28</ele>
        <time>2012-06-17T12:37:44Z</time>
      </trkpt>
      <trkpt lat="44.28591" lon="3.94121">
        <ele>717.28</ele>
        <time>2012-06-17T12:37:45Z</time>
      </trkpt>
      <trkpt lat="44.28588" lon="3.94126">
        <ele>717.28</ele>
        <time>2012-06-17T12:37:46Z</time>
      </trkpt>
      <trkpt lat="44.28585" lon="3.9413">
        <ele>716.32</ele>
        <time>2012-06-17T12:37:47Z</time>
      </trkpt>
      <trkpt lat="44.28565" lon="3.94159">
        <ele>712.95</ele>
        <time>2012-06-17T12:37:54Z</time>
      </trkpt>
      <trkpt lat="44.28562" lon="3.94165">
        <ele>713.92</ele>
        <time>2012-06-17T12:37:55Z</time>
      </trkpt>
      <trkpt lat="44.28553" lon="3.94176">
        <ele>711.51</ele>
        <time>2012-06-17T12:37:58Z</time>
      </trkpt>
      <trkpt lat="44.28536" lon="3.94201">
        <ele>709.11</ele>
        <time>2012-06-17T12:38:04Z</time>
      </trkpt>
      <trkpt lat="44.28532" lon="3.94206">
        <ele>709.11</ele>
        <time>2012-06-17T12:38:05Z</time>
      </trkpt>
      <trkpt lat="44.28525" lon="3.94215">
        <ele>707.19</ele>
        <time>2012-06-17T12:38:07Z</time>
      </trkpt>
      <trkpt lat="44.28522" lon="3.9422">
        <ele>706.71</ele>
        <time>2012-06-17T12:38:08Z</time>
      </trkpt>
      <trkpt lat="44.28511" lon="3.94237">
        <ele>705.75</ele>
        <time>2012-06-17T12:38:12Z</time>
      </trkpt>
      <trkpt lat="44.28508" lon="3.94244">
        <ele>705.26</ele>
        <time>2012-06-17T12:38:13Z</time>
      </trkpt>
      <trkpt lat="44.28489" lon="3.94287">
        <ele>702.38</ele>
        <time>2012-06-17T12:38:21Z</time>
      </trkpt>
      <trkpt lat="44.28481" lon="3.94304">
        <ele>701.42</ele>
        <time>2012-06-17T12:38:24Z</time>
      </trkpt>
      <trkpt lat="44.28478" lon="3.94311">
        <ele>700.46</ele>
        <time>2012-06-17T12:38:25Z</time>
      </trkpt>
      <trkpt lat="44.28475" lon="3.94317">
        <ele>699.98</ele>
        <time>2012-06-17T12:38:26Z</time>
      </trkpt>
      <trkpt lat="44.28464" lon="3.94337">
        <ele>698.05</ele>
        <time>2012-06-17T12:38:30Z</time>
      </trkpt>
      <trkpt lat="44.28453" lon="3.94358">
        <ele>696.61</ele>
        <time>2012-06-17T12:38:34Z</time>
      </trkpt>
      <trkpt lat="44.28451" lon="3.94363">
        <ele>696.13</ele>
        <time>2012-06-17T12:38:35Z</time>
      </trkpt>
      <trkpt lat="44.28446" lon="3.94373">
        <ele>695.17</ele>
        <time>2012-06-17T12:38:37Z</time>
      </trkpt>
      <trkpt lat="44.28438" lon="3.94386">
        <ele>693.73</ele>
        <time>2012-06-17T12:38:40Z</time>
      </trkpt>
      <trkpt lat="44.28436" lon="3.9439">
        <ele>693.73</ele>
        <time>2012-06-17T12:38:41Z</time>
      </trkpt>
      <trkpt lat="44.28434" lon="3.94395">
        <ele>693.25</ele>
        <time>2012-06-17T12:38:42Z</time>
      </trkpt>
      <trkpt lat="44.28428" lon="3.94407">
        <ele>691.81</ele>
        <time>2012-06-17T12:38:44Z</time>
      </trkpt>
      <trkpt lat="44.28425" lon="3.94413">
        <ele>691.81</ele>
        <time>2012-06-17T12:38:45Z</time>
      </trkpt>
      <trkpt lat="44.28415" lon="3.94429">
        <ele>689.88</ele>
        <time>2012-06-17T12:38:48Z</time>
      </trkpt>
      <trkpt lat="44.28408" lon="3.94437">
        <ele>688.92</ele>
        <time>2012-06-17T12:38:50Z</time>
      </trkpt>
      <trkpt lat="44.28405" lon="3.94442">
        <ele>687.96</ele>
        <time>2012-06-17T12:38:51Z</time>
      </trkpt>
      <trkpt lat="44.28402" lon="3.94446">
        <ele>687.96</ele>
        <time>2012-06-17T12:38:52Z</time>
      </trkpt>
      <trkpt lat="44.28399" lon="3.9445">
        <ele>687.48</ele>
        <time>2012-06-17T12:38:53Z</time>
      </trkpt>
      <trkpt lat="44.28395" lon="3.94453">
        <ele>687</ele>
        <time>2012-06-17T12:38:54Z</time>
      </trkpt>
      <trkpt lat="44.28391" lon="3.94456">
        <ele>686.52</ele>
        <time>2012-06-17T12:38:55Z</time>
      </trkpt>
      <trkpt lat="44.28387" lon="3.94458">
        <ele>685.56</ele>
        <time>2012-06-17T12:38:56Z</time>
      </trkpt>
      <trkpt lat="44.28372" lon="3.94466">
        <ele>684.6</ele>
        <time>2012-06-17T12:38:59Z</time>
      </trkpt>
      <trkpt lat="44.28344" lon="3.94475">
        <ele>681.23</ele>
        <time>2012-06-17T12:39:07Z</time>
      </trkpt>
      <trkpt lat="44.28331" lon="3.94481">
        <ele>678.35</ele>
        <time>2012-06-17T12:39:11Z</time>
      </trkpt>
      <trkpt lat="44.28327" lon="3.94486">
        <ele>676.91</ele>
        <time>2012-06-17T12:39:13Z</time>
      </trkpt>
      <trkpt lat="44.28326" lon="3.9449">
        <ele>676.42</ele>
        <time>2012-06-17T12:39:14Z</time>
      </trkpt>
      <trkpt lat="44.28326" lon="3.94493">
        <ele>676.42</ele>
        <time>2012-06-17T12:39:15Z</time>
      </trkpt>
      <trkpt lat="44.28325" lon="3.94496">
        <ele>675.94</ele>
        <time>2012-06-17T12:39:16Z</time>
      </trkpt>
      <trkpt lat="44.28325" lon="3.94498">
        <ele>676.42</ele>
        <time>2012-06-17T12:39:17Z</time>
      </trkpt>
      <trkpt lat="44.28323" lon="3.94504">
        <ele>676.42</ele>
        <time>2012-06-17T12:39:33Z</time>
      </trkpt>
      <trkpt lat="44.28317" lon="3.94529">
        <ele>675.46</ele>
        <time>2012-06-17T12:39:39Z</time>
      </trkpt>
      <trkpt lat="44.28309" lon="3.94548">
        <ele>675.46</ele>
        <time>2012-06-17T12:39:43Z</time>
      </trkpt>
      <trkpt lat="44.28308" lon="3.94556">
        <ele>674.98</ele>
        <time>2012-06-17T12:39:54Z</time>
      </trkpt>
      <trkpt lat="44.28307" lon="3.94561">
        <ele>674.98</ele>
        <time>2012-06-17T12:40:20Z</time>
      </trkpt>
      <trkpt lat="44.28306" lon="3.94562">
        <ele>674.98</ele>
        <time>2012-06-17T12:40:26Z</time>
      </trkpt>
      <trkpt lat="44.28306" lon="3.94563">
        <ele>674.98</ele>
        <time>2012-06-17T12:40:27Z</time>
      </trkpt>
      <trkpt lat="44.28304" lon="3.94567">
        <ele>674.98</ele>
        <time>2012-06-17T12:40:29Z</time>
      </trkpt>
      <trkpt lat="44.28303" lon="3.9457">
        <ele>674.98</ele>
        <time>2012-06-17T12:40:30Z</time>
      </trkpt>
      <trkpt lat="44.28302" lon="3.94572">
        <ele>674.98</ele>
        <time>2012-06-17T12:40:31Z</time>
      </trkpt>
      <trkpt lat="44.28301" lon="3.94576">
        <ele>674.98</ele>
        <time>2012-06-17T12:40:34Z</time>
      </trkpt>
      <trkpt lat="44.283" lon="3.94578">
        <ele>675.46</ele>
        <time>2012-06-17T12:40:35Z</time>
      </trkpt>
      <trkpt lat="44.283" lon="3.9458">
        <ele>675.46</ele>
        <time>2012-06-17T12:40:36Z</time>
      </trkpt>
      <trkpt lat="44.28298" lon="3.94582">
        <ele>674.98</ele>
        <time>2012-06-17T12:40:37Z</time>
      </trkpt>
      <trkpt lat="44.28297" lon="3.94585">
        <ele>675.46</ele>
        <time>2012-06-17T12:40:38Z</time>
      </trkpt>
      <trkpt lat="44.28296" lon="3.94588">
        <ele>674.98</ele>
        <time>2012-06-17T12:40:39Z</time>
      </trkpt>
      <trkpt lat="44.28295" lon="3.94592">
        <ele>674.98</ele>
        <time>2012-06-17T12:40:40Z</time>
      </trkpt>
      <trkpt lat="44.28277" lon="3.94636">
        <ele>674.02</ele>
        <time>2012-06-17T12:40:50Z</time>
      </trkpt>
      <trkpt lat="44.28253" lon="3.94709">
        <ele>672.1</ele>
        <time>2012-06-17T12:41:03Z</time>
      </trkpt>
      <trkpt lat="44.28251" lon="3.9472">
        <ele>672.1</ele>
        <time>2012-06-17T12:41:05Z</time>
      </trkpt>
      <trkpt lat="44.28249" lon="3.94726">
        <ele>672.1</ele>
        <time>2012-06-17T12:41:06Z</time>
      </trkpt>
      <trkpt lat="44.28248" lon="3.94732">
        <ele>672.1</ele>
        <time>2012-06-17T12:41:07Z</time>
      </trkpt>
      <trkpt lat="44.28246" lon="3.94738">
        <ele>671.62</ele>
        <time>2012-06-17T12:41:08Z</time>
      </trkpt>
      <trkpt lat="44.28245" lon="3.94744">
        <ele>671.62</ele>
        <time>2012-06-17T12:41:09Z</time>
      </trkpt>
      <trkpt lat="44.28244" lon="3.94751">
        <ele>671.14</ele>
        <time>2012-06-17T12:41:10Z</time>
      </trkpt>
      <trkpt lat="44.2824" lon="3.94791">
        <ele>670.18</ele>
        <time>2012-06-17T12:41:19Z</time>
      </trkpt>
      <trkpt lat="44.2824" lon="3.9483">
        <ele>670.18</ele>
        <time>2012-06-17T12:41:28Z</time>
      </trkpt>
      <trkpt lat="44.28246" lon="3.94869">
        <ele>666.33</ele>
        <time>2012-06-17T12:41:36Z</time>
      </trkpt>
      <trkpt lat="44.28246" lon="3.94873">
        <ele>665.85</ele>
        <time>2012-06-17T12:41:37Z</time>
      </trkpt>
      <trkpt lat="44.2825" lon="3.94891">
        <ele>663.93</ele>
        <time>2012-06-17T12:41:42Z</time>
      </trkpt>
      <trkpt lat="44.28251" lon="3.94899">
        <ele>662.97</ele>
        <time>2012-06-17T12:41:45Z</time>
      </trkpt>
      <trkpt lat="44.28247" lon="3.9491">
        <ele>661.52</ele>
        <time>2012-06-17T12:41:48Z</time>
      </trkpt>
      <trkpt lat="44.28248" lon="3.94914">
        <ele>661.52</ele>
        <time>2012-06-17T12:41:49Z</time>
      </trkpt>
      <trkpt lat="44.28249" lon="3.94917">
        <ele>661.04</ele>
        <time>2012-06-17T12:41:50Z</time>
      </trkpt>
      <trkpt lat="44.2825" lon="3.94922">
        <ele>660.56</ele>
        <time>2012-06-17T12:41:51Z</time>
      </trkpt>
      <trkpt lat="44.28252" lon="3.94924">
        <ele>660.08</ele>
        <time>2012-06-17T12:41:52Z</time>
      </trkpt>
      <trkpt lat="44.28254" lon="3.94926">
        <ele>660.08</ele>
        <time>2012-06-17T12:41:53Z</time>
      </trkpt>
      <trkpt lat="44.2826" lon="3.94953">
        <ele>657.68</ele>
        <time>2012-06-17T12:42:02Z</time>
      </trkpt>
      <trkpt lat="44.28259" lon="3.94955">
        <ele>658.16</ele>
        <time>2012-06-17T12:42:03Z</time>
      </trkpt>
      <trkpt lat="44.28259" lon="3.94958">
        <ele>657.68</ele>
        <time>2012-06-17T12:42:04Z</time>
      </trkpt>
      <trkpt lat="44.28258" lon="3.94966">
        <ele>657.2</ele>
        <time>2012-06-17T12:42:07Z</time>
      </trkpt>
      <trkpt lat="44.28258" lon="3.9497">
        <ele>656.24</ele>
        <time>2012-06-17T12:42:08Z</time>
      </trkpt>
      <trkpt lat="44.28257" lon="3.94974">
        <ele>656.24</ele>
        <time>2012-06-17T12:42:09Z</time>
      </trkpt>
      <trkpt lat="44.28256" lon="3.94977">
        <ele>656.24</ele>
        <time>2012-06-17T12:42:10Z</time>
      </trkpt>
      <trkpt lat="44.28256" lon="3.94979">
        <ele>655.76</ele>
        <time>2012-06-17T12:42:11Z</time>
      </trkpt>
      <trkpt lat="44.28255" lon="3.94983">
        <ele>655.28</ele>
        <time>2012-06-17T12:42:12Z</time>
      </trkpt>
      <trkpt lat="44.28254" lon="3.94988">
        <ele>655.28</ele>
        <time>2012-06-17T12:42:13Z</time>
      </trkpt>
      <trkpt lat="44.28253" lon="3.94992">
        <ele>654.8</ele>
        <time>2012-06-17T12:42:14Z</time>
      </trkpt>
      <trkpt lat="44.2824" lon="3.95029">
        <ele>652.39</ele>
        <time>2012-06-17T12:42:24Z</time>
      </trkpt>
      <trkpt lat="44.28228" lon="3.95072">
        <ele>650.47</ele>
        <time>2012-06-17T12:42:34Z</time>
      </trkpt>
      <trkpt lat="44.28221" lon="3.95098">
        <ele>649.51</ele>
        <time>2012-06-17T12:42:40Z</time>
      </trkpt>
      <trkpt lat="44.2822" lon="3.95102">
        <ele>648.55</ele>
        <time>2012-06-17T12:42:41Z</time>
      </trkpt>
      <trkpt lat="44.2821" lon="3.95137">
        <ele>646.14</ele>
        <time>2012-06-17T12:42:50Z</time>
      </trkpt>
      <trkpt lat="44.28209" lon="3.95141">
        <ele>646.14</ele>
        <time>2012-06-17T12:42:51Z</time>
      </trkpt>
      <trkpt lat="44.28206" lon="3.9516">
        <ele>644.22</ele>
        <time>2012-06-17T12:42:57Z</time>
      </trkpt>
      <trkpt lat="44.28206" lon="3.95163">
        <ele>643.74</ele>
        <time>2012-06-17T12:42:58Z</time>
      </trkpt>
      <trkpt lat="44.28206" lon="3.95167">
        <ele>643.74</ele>
        <time>2012-06-17T12:42:59Z</time>
      </trkpt>
      <trkpt lat="44.28205" lon="3.9517">
        <ele>643.26</ele>
        <time>2012-06-17T12:43:00Z</time>
      </trkpt>
      <trkpt lat="44.28205" lon="3.95173">
        <ele>643.26</ele>
        <time>2012-06-17T12:43:01Z</time>
      </trkpt>
      <trkpt lat="44.28205" lon="3.95176">
        <ele>643.26</ele>
        <time>2012-06-17T12:43:02Z</time>
      </trkpt>
      <trkpt lat="44.28205" lon="3.9518">
        <ele>642.3</ele>
        <time>2012-06-17T12:43:03Z</time>
      </trkpt>
      <trkpt lat="44.28205" lon="3.95184">
        <ele>642.78</ele>
        <time>2012-06-17T12:43:04Z</time>
      </trkpt>
      <trkpt lat="44.28206" lon="3.95189">
        <ele>642.78</ele>
        <time>2012-06-17T12:43:05Z</time>
      </trkpt>
      <trkpt lat="44.28207" lon="3.95196">
        <ele>641.82</ele>
        <time>2012-06-17T12:43:07Z</time>
      </trkpt>
      <trkpt lat="44.28208" lon="3.95198">
        <ele>641.34</ele>
        <time>2012-06-17T12:43:08Z</time>
      </trkpt>
      <trkpt lat="44.2821" lon="3.95217">
        <ele>640.38</ele>
        <time>2012-06-17T12:43:13Z</time>
      </trkpt>
      <trkpt lat="44.28209" lon="3.9522">
        <ele>639.89</ele>
        <time>2012-06-17T12:43:14Z</time>
      </trkpt>
      <trkpt lat="44.2821" lon="3.95223">
        <ele>639.89</ele>
        <time>2012-06-17T12:43:15Z</time>
      </trkpt>
      <trkpt lat="44.28211" lon="3.95226">
        <ele>639.41</ele>
        <time>2012-06-17T12:43:16Z</time>
      </trkpt>
      <trkpt lat="44.28212" lon="3.95229">
        <ele>639.41</ele>
        <time>2012-06-17T12:43:17Z</time>
      </trkpt>
      <trkpt lat="44.28212" lon="3.95232">
        <ele>638.93</ele>
        <time>2012-06-17T12:43:18Z</time>
      </trkpt>
      <trkpt lat="44.28213" lon="3.95236">
        <ele>637.97</ele>
        <time>2012-06-17T12:43:19Z</time>
      </trkpt>
      <trkpt lat="44.28213" lon="3.9524">
        <ele>637.97</ele>
        <time>2012-06-17T12:43:20Z</time>
      </trkpt>
      <trkpt lat="44.28213" lon="3.95244">
        <ele>637.97</ele>
        <time>2012-06-17T12:43:21Z</time>
      </trkpt>
      <trkpt lat="44.28214" lon="3.95248">
        <ele>637.97</ele>
        <time>2012-06-17T12:43:22Z</time>
      </trkpt>
      <trkpt lat="44.28214" lon="3.95251">
        <ele>637.97</ele>
        <time>2012-06-17T12:43:23Z</time>
      </trkpt>
      <trkpt lat="44.28214" lon="3.95254">
        <ele>637.49</ele>
        <time>2012-06-17T12:43:24Z</time>
      </trkpt>
      <trkpt lat="44.28215" lon="3.95258">
        <ele>637.01</ele>
        <time>2012-06-17T12:43:25Z</time>
      </trkpt>
      <trkpt lat="44.28216" lon="3.95262">
        <ele>637.01</ele>
        <time>2012-06-17T12:43:26Z</time>
      </trkpt>
      <trkpt lat="44.28217" lon="3.95264">
        <ele>637.01</ele>
        <time>2012-06-17T12:43:27Z</time>
      </trkpt>
      <trkpt lat="44.28217" lon="3.95268">
        <ele>636.05</ele>
        <time>2012-06-17T12:43:28Z</time>
      </trkpt>
      <trkpt lat="44.28218" lon="3.95272">
        <ele>636.05</ele>
        <time>2012-06-17T12:43:29Z</time>
      </trkpt>
      <trkpt lat="44.28218" lon="3.95277">
        <ele>636.05</ele>
        <time>2012-06-17T12:43:30Z</time>
      </trkpt>
      <trkpt lat="44.28219" lon="3.95282">
        <ele>636.05</ele>
        <time>2012-06-17T12:43:31Z</time>
      </trkpt>
      <trkpt lat="44.2823" lon="3.95321">
        <ele>634.13</ele>
        <time>2012-06-17T12:43:41Z</time>
      </trkpt>
      <trkpt lat="44.28233" lon="3.95328">
        <ele>633.65</ele>
        <time>2012-06-17T12:43:43Z</time>
      </trkpt>
      <trkpt lat="44.28235" lon="3.95331">
        <ele>633.17</ele>
        <time>2012-06-17T12:43:44Z</time>
      </trkpt>
      <trkpt lat="44.28237" lon="3.95334">
        <ele>633.17</ele>
        <time>2012-06-17T12:43:45Z</time>
      </trkpt>
      <trkpt lat="44.28241" lon="3.9534">
        <ele>632.68</ele>
        <time>2012-06-17T12:43:47Z</time>
      </trkpt>
      <trkpt lat="44.28242" lon="3.95344">
        <ele>632.2</ele>
        <time>2012-06-17T12:43:48Z</time>
      </trkpt>
      <trkpt lat="44.28244" lon="3.95347">
        <ele>632.2</ele>
        <time>2012-06-17T12:43:49Z</time>
      </trkpt>
      <trkpt lat="44.28246" lon="3.95351">
        <ele>632.2</ele>
        <time>2012-06-17T12:43:50Z</time>
      </trkpt>
      <trkpt lat="44.28248" lon="3.95354">
        <ele>632.2</ele>
        <time>2012-06-17T12:43:51Z</time>
      </trkpt>
      <trkpt lat="44.2825" lon="3.95355">
        <ele>632.2</ele>
        <time>2012-06-17T12:43:52Z</time>
      </trkpt>
      <trkpt lat="44.28251" lon="3.95357">
        <ele>631.24</ele>
        <time>2012-06-17T12:43:53Z</time>
      </trkpt>
      <trkpt lat="44.28253" lon="3.95359">
        <ele>632.68</ele>
        <time>2012-06-17T12:43:54Z</time>
      </trkpt>
      <trkpt lat="44.28256" lon="3.95365">
        <ele>632.2</ele>
        <time>2012-06-17T12:43:58Z</time>
      </trkpt>
      <trkpt lat="44.28258" lon="3.95365">
        <ele>632.2</ele>
        <time>2012-06-17T12:43:59Z</time>
      </trkpt>
      <trkpt lat="44.28259" lon="3.95369">
        <ele>631.72</ele>
        <time>2012-06-17T12:44:12Z</time>
      </trkpt>
      <trkpt lat="44.28259" lon="3.95373">
        <ele>632.2</ele>
        <time>2012-06-17T12:44:33Z</time>
      </trkpt>
      <trkpt lat="44.28256" lon="3.95376">
        <ele>632.2</ele>
        <time>2012-06-17T12:44:35Z</time>
      </trkpt>
      <trkpt lat="44.28254" lon="3.95378">
        <ele>632.2</ele>
        <time>2012-06-17T12:44:36Z</time>
      </trkpt>
      <trkpt lat="44.28253" lon="3.95382">
        <ele>632.2</ele>
        <time>2012-06-17T12:44:37Z</time>
      </trkpt>
      <trkpt lat="44.28252" lon="3.95385">
        <ele>632.68</ele>
        <time>2012-06-17T12:44:38Z</time>
      </trkpt>
      <trkpt lat="44.28251" lon="3.95389">
        <ele>632.68</ele>
        <time>2012-06-17T12:44:39Z</time>
      </trkpt>
      <trkpt lat="44.28251" lon="3.95393">
        <ele>633.17</ele>
        <time>2012-06-17T12:44:40Z</time>
      </trkpt>
      <trkpt lat="44.28251" lon="3.95398">
        <ele>632.68</ele>
        <time>2012-06-17T12:44:41Z</time>
      </trkpt>
      <trkpt lat="44.2825" lon="3.95402">
        <ele>633.17</ele>
        <time>2012-06-17T12:44:42Z</time>
      </trkpt>
      <trkpt lat="44.2825" lon="3.95406">
        <ele>633.17</ele>
        <time>2012-06-17T12:44:43Z</time>
      </trkpt>
      <trkpt lat="44.28249" lon="3.9541">
        <ele>633.17</ele>
        <time>2012-06-17T12:44:44Z</time>
      </trkpt>
      <trkpt lat="44.28243" lon="3.95453">
        <ele>634.61</ele>
        <time>2012-06-17T12:44:55Z</time>
      </trkpt>
      <trkpt lat="44.28242" lon="3.95464">
        <ele>635.57</ele>
        <time>2012-06-17T12:44:58Z</time>
      </trkpt>
      <trkpt lat="44.28243" lon="3.95467">
        <ele>634.61</ele>
        <time>2012-06-17T12:44:59Z</time>
      </trkpt>
      <trkpt lat="44.28243" lon="3.95471">
        <ele>635.09</ele>
        <time>2012-06-17T12:45:00Z</time>
      </trkpt>
      <trkpt lat="44.28243" lon="3.95474">
        <ele>635.57</ele>
        <time>2012-06-17T12:45:01Z</time>
      </trkpt>
      <trkpt lat="44.28243" lon="3.95478">
        <ele>635.57</ele>
        <time>2012-06-17T12:45:02Z</time>
      </trkpt>
      <trkpt lat="44.28244" lon="3.95482">
        <ele>635.57</ele>
        <time>2012-06-17T12:45:03Z</time>
      </trkpt>
      <trkpt lat="44.28245" lon="3.95486">
        <ele>636.05</ele>
        <time>2012-06-17T12:45:04Z</time>
      </trkpt>
      <trkpt lat="44.28247" lon="3.95489">
        <ele>636.05</ele>
        <time>2012-06-17T12:45:05Z</time>
      </trkpt>
      <trkpt lat="44.28264" lon="3.95516">
        <ele>638.45</ele>
        <time>2012-06-17T12:45:15Z</time>
      </trkpt>
      <trkpt lat="44.28266" lon="3.95518">
        <ele>638.45</ele>
        <time>2012-06-17T12:45:16Z</time>
      </trkpt>
      <trkpt lat="44.28284" lon="3.95557">
        <ele>640.86</ele>
        <time>2012-06-17T12:45:29Z</time>
      </trkpt>
      <trkpt lat="44.28301" lon="3.95594">
        <ele>640.86</ele>
        <time>2012-06-17T12:45:41Z</time>
      </trkpt>
      <trkpt lat="44.28327" lon="3.95612">
        <ele>642.3</ele>
        <time>2012-06-17T12:45:52Z</time>
      </trkpt>
      <trkpt lat="44.28328" lon="3.95613">
        <ele>642.3</ele>
        <time>2012-06-17T12:45:53Z</time>
      </trkpt>
      <trkpt lat="44.28329" lon="3.95614">
        <ele>641.82</ele>
        <time>2012-06-17T12:45:54Z</time>
      </trkpt>
      <trkpt lat="44.28331" lon="3.95614">
        <ele>641.82</ele>
        <time>2012-06-17T12:45:55Z</time>
      </trkpt>
      <trkpt lat="44.28332" lon="3.95615">
        <ele>642.3</ele>
        <time>2012-06-17T12:45:56Z</time>
      </trkpt>
      <trkpt lat="44.28335" lon="3.95618">
        <ele>642.3</ele>
        <time>2012-06-17T12:46:02Z</time>
      </trkpt>
      <trkpt lat="44.28337" lon="3.95619">
        <ele>642.3</ele>
        <time>2012-06-17T12:46:03Z</time>
      </trkpt>
      <trkpt lat="44.28352" lon="3.95639">
        <ele>643.26</ele>
        <time>2012-06-17T12:46:12Z</time>
      </trkpt>
      <trkpt lat="44.28381" lon="3.95681">
        <ele>643.74</ele>
        <time>2012-06-17T12:46:26Z</time>
      </trkpt>
      <trkpt lat="44.28408" lon="3.95727">
        <ele>642.78</ele>
        <time>2012-06-17T12:46:37Z</time>
      </trkpt>
      <trkpt lat="44.28434" lon="3.95773">
        <ele>644.22</ele>
        <time>2012-06-17T12:46:50Z</time>
      </trkpt>
      <trkpt lat="44.28443" lon="3.95793">
        <ele>643.74</ele>
        <time>2012-06-17T12:46:55Z</time>
      </trkpt>
      <trkpt lat="44.28454" lon="3.95814">
        <ele>641.82</ele>
        <time>2012-06-17T12:47:01Z</time>
      </trkpt>
      <trkpt lat="44.28455" lon="3.95817">
        <ele>641.34</ele>
        <time>2012-06-17T12:47:02Z</time>
      </trkpt>
      <trkpt lat="44.28455" lon="3.95819">
        <ele>640.86</ele>
        <time>2012-06-17T12:47:03Z</time>
      </trkpt>
      <trkpt lat="44.28456" lon="3.9582">
        <ele>640.86</ele>
        <time>2012-06-17T12:47:04Z</time>
      </trkpt>
      <trkpt lat="44.28458" lon="3.95826">
        <ele>639.89</ele>
        <time>2012-06-17T12:47:17Z</time>
      </trkpt>
      <trkpt lat="44.28459" lon="3.95826">
        <ele>640.38</ele>
        <time>2012-06-17T12:47:23Z</time>
      </trkpt>
      <trkpt lat="44.2846" lon="3.95827">
        <ele>640.38</ele>
        <time>2012-06-17T12:47:24Z</time>
      </trkpt>
      <trkpt lat="44.2846" lon="3.9583">
        <ele>639.89</ele>
        <time>2012-06-17T12:47:25Z</time>
      </trkpt>
      <trkpt lat="44.28461" lon="3.95832">
        <ele>639.89</ele>
        <time>2012-06-17T12:47:26Z</time>
      </trkpt>
      <trkpt lat="44.28462" lon="3.95834">
        <ele>639.89</ele>
        <time>2012-06-17T12:47:27Z</time>
      </trkpt>
      <trkpt lat="44.28463" lon="3.95836">
        <ele>639.41</ele>
        <time>2012-06-17T12:47:28Z</time>
      </trkpt>
      <trkpt lat="44.28464" lon="3.95837">
        <ele>639.89</ele>
        <time>2012-06-17T12:47:29Z</time>
      </trkpt>
      <trkpt lat="44.28466" lon="3.95839">
        <ele>639.41</ele>
        <time>2012-06-17T12:47:30Z</time>
      </trkpt>
      <trkpt lat="44.28467" lon="3.95842">
        <ele>639.41</ele>
        <time>2012-06-17T12:47:31Z</time>
      </trkpt>
      <trkpt lat="44.28469" lon="3.95844">
        <ele>638.93</ele>
        <time>2012-06-17T12:47:32Z</time>
      </trkpt>
      <trkpt lat="44.28472" lon="3.95846">
        <ele>638.93</ele>
        <time>2012-06-17T12:47:33Z</time>
      </trkpt>
      <trkpt lat="44.28475" lon="3.95849">
        <ele>638.45</ele>
        <time>2012-06-17T12:47:34Z</time>
      </trkpt>
      <trkpt lat="44.28478" lon="3.95853">
        <ele>638.45</ele>
        <time>2012-06-17T12:47:35Z</time>
      </trkpt>
      <trkpt lat="44.28481" lon="3.95859">
        <ele>638.45</ele>
        <time>2012-06-17T12:47:36Z</time>
      </trkpt>
      <trkpt lat="44.28485" lon="3.95863">
        <ele>637.49</ele>
        <time>2012-06-17T12:47:37Z</time>
      </trkpt>
      <trkpt lat="44.28487" lon="3.95866">
        <ele>637.49</ele>
        <time>2012-06-17T12:47:38Z</time>
      </trkpt>
      <trkpt lat="44.28488" lon="3.95871">
        <ele>636.53</ele>
        <time>2012-06-17T12:47:39Z</time>
      </trkpt>
      <trkpt lat="44.28489" lon="3.95875">
        <ele>636.05</ele>
        <time>2012-06-17T12:47:40Z</time>
      </trkpt>
      <trkpt lat="44.2849" lon="3.9588">
        <ele>636.05</ele>
        <time>2012-06-17T12:47:41Z</time>
      </trkpt>
      <trkpt lat="44.28491" lon="3.95886">
        <ele>635.09</ele>
        <time>2012-06-17T12:47:42Z</time>
      </trkpt>
      <trkpt lat="44.28493" lon="3.95892">
        <ele>635.09</ele>
        <time>2012-06-17T12:47:43Z</time>
      </trkpt>
      <trkpt lat="44.28496" lon="3.95897">
        <ele>634.61</ele>
        <time>2012-06-17T12:47:44Z</time>
      </trkpt>
      <trkpt lat="44.28498" lon="3.95902">
        <ele>634.13</ele>
        <time>2012-06-17T12:47:45Z</time>
      </trkpt>
      <trkpt lat="44.285" lon="3.95905">
        <ele>633.65</ele>
        <time>2012-06-17T12:47:46Z</time>
      </trkpt>
      <trkpt lat="44.28502" lon="3.9591">
        <ele>633.65</ele>
        <time>2012-06-17T12:47:47Z</time>
      </trkpt>
      <trkpt lat="44.28504" lon="3.95916">
        <ele>633.65</ele>
        <time>2012-06-17T12:47:48Z</time>
      </trkpt>
      <trkpt lat="44.28508" lon="3.95927">
        <ele>632.68</ele>
        <time>2012-06-17T12:47:50Z</time>
      </trkpt>
      <trkpt lat="44.2851" lon="3.95933">
        <ele>632.2</ele>
        <time>2012-06-17T12:47:51Z</time>
      </trkpt>
      <trkpt lat="44.28516" lon="3.95953">
        <ele>630.76</ele>
        <time>2012-06-17T12:47:54Z</time>
      </trkpt>
      <trkpt lat="44.28521" lon="3.95972">
        <ele>629.32</ele>
        <time>2012-06-17T12:47:57Z</time>
      </trkpt>
      <trkpt lat="44.2853" lon="3.95994">
        <ele>626.92</ele>
        <time>2012-06-17T12:48:01Z</time>
      </trkpt>
      <trkpt lat="44.28532" lon="3.96002">
        <ele>626.44</ele>
        <time>2012-06-17T12:48:02Z</time>
      </trkpt>
      <trkpt lat="44.28535" lon="3.96009">
        <ele>626.44</ele>
        <time>2012-06-17T12:48:03Z</time>
      </trkpt>
      <trkpt lat="44.28537" lon="3.96017">
        <ele>625.96</ele>
        <time>2012-06-17T12:48:04Z</time>
      </trkpt>
      <trkpt lat="44.28541" lon="3.96025">
        <ele>625.96</ele>
        <time>2012-06-17T12:48:05Z</time>
      </trkpt>
      <trkpt lat="44.28544" lon="3.96032">
        <ele>624.99</ele>
        <time>2012-06-17T12:48:06Z</time>
      </trkpt>
      <trkpt lat="44.28546" lon="3.96039">
        <ele>624.03</ele>
        <time>2012-06-17T12:48:07Z</time>
      </trkpt>
      <trkpt lat="44.28547" lon="3.96044">
        <ele>624.03</ele>
        <time>2012-06-17T12:48:08Z</time>
      </trkpt>
      <trkpt lat="44.28548" lon="3.96049">
        <ele>623.07</ele>
        <time>2012-06-17T12:48:09Z</time>
      </trkpt>
      <trkpt lat="44.2855" lon="3.96054">
        <ele>622.59</ele>
        <time>2012-06-17T12:48:10Z</time>
      </trkpt>
      <trkpt lat="44.28551" lon="3.9606">
        <ele>622.11</ele>
        <time>2012-06-17T12:48:11Z</time>
      </trkpt>
      <trkpt lat="44.28554" lon="3.96066">
        <ele>621.63</ele>
        <time>2012-06-17T12:48:12Z</time>
      </trkpt>
      <trkpt lat="44.28557" lon="3.96068">
        <ele>621.15</ele>
        <time>2012-06-17T12:48:13Z</time>
      </trkpt>
      <trkpt lat="44.28561" lon="3.96069">
        <ele>621.15</ele>
        <time>2012-06-17T12:48:14Z</time>
      </trkpt>
      <trkpt lat="44.28564" lon="3.96072">
        <ele>620.19</ele>
        <time>2012-06-17T12:48:15Z</time>
      </trkpt>
      <trkpt lat="44.28567" lon="3.96077">
        <ele>619.23</ele>
        <time>2012-06-17T12:48:16Z</time>
      </trkpt>
      <trkpt lat="44.28569" lon="3.96084">
        <ele>618.75</ele>
        <time>2012-06-17T12:48:17Z</time>
      </trkpt>
      <trkpt lat="44.28571" lon="3.9609">
        <ele>617.78</ele>
        <time>2012-06-17T12:48:18Z</time>
      </trkpt>
      <trkpt lat="44.28575" lon="3.96095">
        <ele>617.3</ele>
        <time>2012-06-17T12:48:19Z</time>
      </trkpt>
      <trkpt lat="44.28579" lon="3.961">
        <ele>616.82</ele>
        <time>2012-06-17T12:48:20Z</time>
      </trkpt>
      <trkpt lat="44.28583" lon="3.96105">
        <ele>616.34</ele>
        <time>2012-06-17T12:48:21Z</time>
      </trkpt>
      <trkpt lat="44.28586" lon="3.96108">
        <ele>615.86</ele>
        <time>2012-06-17T12:48:22Z</time>
      </trkpt>
      <trkpt lat="44.28588" lon="3.96112">
        <ele>615.86</ele>
        <time>2012-06-17T12:48:23Z</time>
      </trkpt>
      <trkpt lat="44.28589" lon="3.96118">
        <ele>615.86</ele>
        <time>2012-06-17T12:48:24Z</time>
      </trkpt>
      <trkpt lat="44.28594" lon="3.96143">
        <ele>612.5</ele>
        <time>2012-06-17T12:48:30Z</time>
      </trkpt>
      <trkpt lat="44.28595" lon="3.96157">
        <ele>610.57</ele>
        <time>2012-06-17T12:48:33Z</time>
      </trkpt>
      <trkpt lat="44.28594" lon="3.96177">
        <ele>607.69</ele>
        <time>2012-06-17T12:48:37Z</time>
      </trkpt>
      <trkpt lat="44.28596" lon="3.96195">
        <ele>605.77</ele>
        <time>2012-06-17T12:48:40Z</time>
      </trkpt>
      <trkpt lat="44.286" lon="3.96201">
        <ele>604.81</ele>
        <time>2012-06-17T12:48:42Z</time>
      </trkpt>
      <trkpt lat="44.28602" lon="3.9621">
        <ele>603.36</ele>
        <time>2012-06-17T12:48:44Z</time>
      </trkpt>
      <trkpt lat="44.28601" lon="3.96215">
        <ele>602.4</ele>
        <time>2012-06-17T12:48:45Z</time>
      </trkpt>
      <trkpt lat="44.286" lon="3.96221">
        <ele>601.44</ele>
        <time>2012-06-17T12:48:46Z</time>
      </trkpt>
      <trkpt lat="44.28599" lon="3.96227">
        <ele>601.44</ele>
        <time>2012-06-17T12:48:47Z</time>
      </trkpt>
      <trkpt lat="44.28598" lon="3.96234">
        <ele>600.96</ele>
        <time>2012-06-17T12:48:48Z</time>
      </trkpt>
      <trkpt lat="44.28598" lon="3.96239">
        <ele>600.96</ele>
        <time>2012-06-17T12:48:49Z</time>
      </trkpt>
      <trkpt lat="44.28598" lon="3.96243">
        <ele>600.96</ele>
        <time>2012-06-17T12:48:50Z</time>
      </trkpt>
      <trkpt lat="44.28598" lon="3.96247">
        <ele>600.48</ele>
        <time>2012-06-17T12:48:51Z</time>
      </trkpt>
      <trkpt lat="44.28599" lon="3.9625">
        <ele>600</ele>
        <time>2012-06-17T12:48:52Z</time>
      </trkpt>
      <trkpt lat="44.28599" lon="3.96254">
        <ele>600</ele>
        <time>2012-06-17T12:48:53Z</time>
      </trkpt>
      <trkpt lat="44.286" lon="3.96259">
        <ele>598.56</ele>
        <time>2012-06-17T12:48:54Z</time>
      </trkpt>
      <trkpt lat="44.28601" lon="3.96266">
        <ele>597.6</ele>
        <time>2012-06-17T12:48:55Z</time>
      </trkpt>
      <trkpt lat="44.28618" lon="3.96289">
        <ele>594.71</ele>
        <time>2012-06-17T12:49:03Z</time>
      </trkpt>
      <trkpt lat="44.28623" lon="3.96287">
        <ele>593.27</ele>
        <time>2012-06-17T12:49:05Z</time>
      </trkpt>
      <trkpt lat="44.28627" lon="3.96313">
        <ele>589.91</ele>
        <time>2012-06-17T12:49:13Z</time>
      </trkpt>
      <trkpt lat="44.28627" lon="3.96318">
        <ele>589.91</ele>
        <time>2012-06-17T12:49:14Z</time>
      </trkpt>
      <trkpt lat="44.28626" lon="3.96323">
        <ele>589.91</ele>
        <time>2012-06-17T12:49:15Z</time>
      </trkpt>
      <trkpt lat="44.28624" lon="3.96328">
        <ele>588.95</ele>
        <time>2012-06-17T12:49:16Z</time>
      </trkpt>
      <trkpt lat="44.28622" lon="3.96332">
        <ele>588.95</ele>
        <time>2012-06-17T12:49:17Z</time>
      </trkpt>
      <trkpt lat="44.28619" lon="3.96336">
        <ele>588.95</ele>
        <time>2012-06-17T12:49:18Z</time>
      </trkpt>
      <trkpt lat="44.28616" lon="3.96339">
        <ele>587.98</ele>
        <time>2012-06-17T12:49:19Z</time>
      </trkpt>
      <trkpt lat="44.28613" lon="3.96343">
        <ele>587.5</ele>
        <time>2012-06-17T12:49:20Z</time>
      </trkpt>
      <trkpt lat="44.28611" lon="3.96347">
        <ele>586.06</ele>
        <time>2012-06-17T12:49:21Z</time>
      </trkpt>
      <trkpt lat="44.28609" lon="3.9635">
        <ele>586.06</ele>
        <time>2012-06-17T12:49:22Z</time>
      </trkpt>
      <trkpt lat="44.28606" lon="3.96352">
        <ele>585.58</ele>
        <time>2012-06-17T12:49:23Z</time>
      </trkpt>
      <trkpt lat="44.28603" lon="3.96355">
        <ele>584.62</ele>
        <time>2012-06-17T12:49:24Z</time>
      </trkpt>
      <trkpt lat="44.28601" lon="3.96358">
        <ele>584.62</ele>
        <time>2012-06-17T12:49:25Z</time>
      </trkpt>
      <trkpt lat="44.28598" lon="3.96359">
        <ele>584.14</ele>
        <time>2012-06-17T12:49:26Z</time>
      </trkpt>
      <trkpt lat="44.28595" lon="3.96361">
        <ele>583.66</ele>
        <time>2012-06-17T12:49:27Z</time>
      </trkpt>
      <trkpt lat="44.28591" lon="3.96362">
        <ele>583.18</ele>
        <time>2012-06-17T12:49:28Z</time>
      </trkpt>
      <trkpt lat="44.28588" lon="3.96364">
        <ele>583.18</ele>
        <time>2012-06-17T12:49:29Z</time>
      </trkpt>
      <trkpt lat="44.28584" lon="3.96367">
        <ele>583.18</ele>
        <time>2012-06-17T12:49:30Z</time>
      </trkpt>
      <trkpt lat="44.28581" lon="3.96369">
        <ele>581.73</ele>
        <time>2012-06-17T12:49:31Z</time>
      </trkpt>
      <trkpt lat="44.28577" lon="3.96372">
        <ele>581.25</ele>
        <time>2012-06-17T12:49:32Z</time>
      </trkpt>
      <trkpt lat="44.28573" lon="3.96375">
        <ele>581.25</ele>
        <time>2012-06-17T12:49:33Z</time>
      </trkpt>
      <trkpt lat="44.28568" lon="3.96379">
        <ele>580.77</ele>
        <time>2012-06-17T12:49:34Z</time>
      </trkpt>
      <trkpt lat="44.28563" lon="3.96381">
        <ele>579.81</ele>
        <time>2012-06-17T12:49:35Z</time>
      </trkpt>
      <trkpt lat="44.28553" lon="3.96385">
        <ele>579.33</ele>
        <time>2012-06-17T12:49:37Z</time>
      </trkpt>
      <trkpt lat="44.28548" lon="3.96388">
        <ele>577.89</ele>
        <time>2012-06-17T12:49:38Z</time>
      </trkpt>
      <trkpt lat="44.28544" lon="3.96391">
        <ele>578.37</ele>
        <time>2012-06-17T12:49:39Z</time>
      </trkpt>
      <trkpt lat="44.28539" lon="3.96393">
        <ele>578.37</ele>
        <time>2012-06-17T12:49:40Z</time>
      </trkpt>
      <trkpt lat="44.28534" lon="3.96394">
        <ele>577.41</ele>
        <time>2012-06-17T12:49:41Z</time>
      </trkpt>
      <trkpt lat="44.2853" lon="3.96396">
        <ele>577.41</ele>
        <time>2012-06-17T12:49:42Z</time>
      </trkpt>
      <trkpt lat="44.28525" lon="3.96398">
        <ele>576.45</ele>
        <time>2012-06-17T12:49:43Z</time>
      </trkpt>
      <trkpt lat="44.28521" lon="3.96399">
        <ele>575.49</ele>
        <time>2012-06-17T12:49:44Z</time>
      </trkpt>
      <trkpt lat="44.28518" lon="3.96399">
        <ele>575.01</ele>
        <time>2012-06-17T12:49:45Z</time>
      </trkpt>
      <trkpt lat="44.28515" lon="3.96399">
        <ele>574.04</ele>
        <time>2012-06-17T12:49:46Z</time>
      </trkpt>
      <trkpt lat="44.28512" lon="3.96399">
        <ele>573.56</ele>
        <time>2012-06-17T12:49:47Z</time>
      </trkpt>
      <trkpt lat="44.2851" lon="3.96399">
        <ele>573.08</ele>
        <time>2012-06-17T12:49:48Z</time>
      </trkpt>
      <trkpt lat="44.28509" lon="3.96399">
        <ele>572.12</ele>
        <time>2012-06-17T12:49:49Z</time>
      </trkpt>
      <trkpt lat="44.28508" lon="3.96401">
        <ele>571.64</ele>
        <time>2012-06-17T12:49:50Z</time>
      </trkpt>
      <trkpt lat="44.28509" lon="3.96408">
        <ele>570.68</ele>
        <time>2012-06-17T12:49:53Z</time>
      </trkpt>
      <trkpt lat="44.28509" lon="3.96419">
        <ele>569.24</ele>
        <time>2012-06-17T12:49:56Z</time>
      </trkpt>
      <trkpt lat="44.28505" lon="3.96443">
        <ele>566.83</ele>
        <time>2012-06-17T12:50:01Z</time>
      </trkpt>
      <trkpt lat="44.28521" lon="3.96489">
        <ele>562.99</ele>
        <time>2012-06-17T12:50:11Z</time>
      </trkpt>
      <trkpt lat="44.28525" lon="3.96508">
        <ele>560.59</ele>
        <time>2012-06-17T12:50:14Z</time>
      </trkpt>
      <trkpt lat="44.28527" lon="3.96514">
        <ele>560.59</ele>
        <time>2012-06-17T12:50:15Z</time>
      </trkpt>
      <trkpt lat="44.28528" lon="3.96521">
        <ele>560.11</ele>
        <time>2012-06-17T12:50:16Z</time>
      </trkpt>
      <trkpt lat="44.28531" lon="3.96527">
        <ele>559.14</ele>
        <time>2012-06-17T12:50:17Z</time>
      </trkpt>
      <trkpt lat="44.28532" lon="3.96532">
        <ele>558.18</ele>
        <time>2012-06-17T12:50:18Z</time>
      </trkpt>
      <trkpt lat="44.28533" lon="3.96537">
        <ele>558.18</ele>
        <time>2012-06-17T12:50:19Z</time>
      </trkpt>
      <trkpt lat="44.28534" lon="3.96541">
        <ele>557.22</ele>
        <time>2012-06-17T12:50:20Z</time>
      </trkpt>
      <trkpt lat="44.28534" lon="3.96545">
        <ele>556.26</ele>
        <time>2012-06-17T12:50:21Z</time>
      </trkpt>
      <trkpt lat="44.28534" lon="3.9655">
        <ele>555.78</ele>
        <time>2012-06-17T12:50:22Z</time>
      </trkpt>
      <trkpt lat="44.28535" lon="3.96555">
        <ele>555.78</ele>
        <time>2012-06-17T12:50:23Z</time>
      </trkpt>
      <trkpt lat="44.28536" lon="3.96558">
        <ele>555.3</ele>
        <time>2012-06-17T12:50:24Z</time>
      </trkpt>
      <trkpt lat="44.28537" lon="3.96562">
        <ele>554.82</ele>
        <time>2012-06-17T12:50:25Z</time>
      </trkpt>
      <trkpt lat="44.28531" lon="3.96585">
        <ele>552.9</ele>
        <time>2012-06-17T12:50:34Z</time>
      </trkpt>
      <trkpt lat="44.28533" lon="3.96591">
        <ele>551.93</ele>
        <time>2012-06-17T12:50:58Z</time>
      </trkpt>
      <trkpt lat="44.28536" lon="3.96594">
        <ele>551.45</ele>
        <time>2012-06-17T12:51:20Z</time>
      </trkpt>
      <trkpt lat="44.28538" lon="3.96596">
        <ele>551.93</ele>
        <time>2012-06-17T12:51:49Z</time>
      </trkpt>
      <trkpt lat="44.28539" lon="3.96597">
        <ele>551.93</ele>
        <time>2012-06-17T12:52:10Z</time>
      </trkpt>
      <trkpt lat="44.2854" lon="3.96597">
        <ele>551.45</ele>
        <time>2012-06-17T12:52:32Z</time>
      </trkpt>
      <trkpt lat="44.2854" lon="3.96598">
        <ele>551.45</ele>
        <time>2012-06-17T12:52:55Z</time>
      </trkpt>
      <trkpt lat="44.2854" lon="3.96598">
        <ele>550.49</ele>
        <time>2012-06-17T12:53:21Z</time>
      </trkpt>
      <trkpt lat="44.28539" lon="3.96598">
        <ele>550.97</ele>
        <time>2012-06-17T12:53:42Z</time>
      </trkpt>
      <trkpt lat="44.28538" lon="3.966">
        <ele>550.97</ele>
        <time>2012-06-17T12:53:43Z</time>
      </trkpt>
      <trkpt lat="44.28536" lon="3.96603">
        <ele>550.01</ele>
        <time>2012-06-17T12:53:44Z</time>
      </trkpt>
      <trkpt lat="44.28534" lon="3.96606">
        <ele>550.49</ele>
        <time>2012-06-17T12:53:45Z</time>
      </trkpt>
      <trkpt lat="44.28531" lon="3.96608">
        <ele>549.53</ele>
        <time>2012-06-17T12:53:46Z</time>
      </trkpt>
      <trkpt lat="44.28527" lon="3.96611">
        <ele>549.53</ele>
        <time>2012-06-17T12:53:47Z</time>
      </trkpt>
      <trkpt lat="44.28523" lon="3.96616">
        <ele>548.57</ele>
        <time>2012-06-17T12:53:48Z</time>
      </trkpt>
      <trkpt lat="44.28496" lon="3.96637">
        <ele>546.65</ele>
        <time>2012-06-17T12:53:52Z</time>
      </trkpt>
      <trkpt lat="44.28487" lon="3.96644">
        <ele>545.2</ele>
        <time>2012-06-17T12:53:53Z</time>
      </trkpt>
      <trkpt lat="44.28478" lon="3.96652">
        <ele>544.72</ele>
        <time>2012-06-17T12:53:54Z</time>
      </trkpt>
      <trkpt lat="44.2847" lon="3.96658">
        <ele>543.76</ele>
        <time>2012-06-17T12:53:55Z</time>
      </trkpt>
      <trkpt lat="44.28462" lon="3.96664">
        <ele>542.32</ele>
        <time>2012-06-17T12:53:56Z</time>
      </trkpt>
      <trkpt lat="44.2844" lon="3.9668">
        <ele>538.96</ele>
        <time>2012-06-17T12:53:59Z</time>
      </trkpt>
      <trkpt lat="44.28414" lon="3.96703">
        <ele>534.63</ele>
        <time>2012-06-17T12:54:03Z</time>
      </trkpt>
      <trkpt lat="44.28396" lon="3.96719">
        <ele>531.27</ele>
        <time>2012-06-17T12:54:06Z</time>
      </trkpt>
      <trkpt lat="44.28376" lon="3.96738">
        <ele>527.9</ele>
        <time>2012-06-17T12:54:10Z</time>
      </trkpt>
      <trkpt lat="44.28366" lon="3.96748">
        <ele>526.94</ele>
        <time>2012-06-17T12:54:12Z</time>
      </trkpt>
      <trkpt lat="44.28348" lon="3.9677">
        <ele>523.58</ele>
        <time>2012-06-17T12:54:16Z</time>
      </trkpt>
      <trkpt lat="44.28343" lon="3.96777">
        <ele>523.09</ele>
        <time>2012-06-17T12:54:17Z</time>
      </trkpt>
      <trkpt lat="44.2834" lon="3.96784">
        <ele>522.61</ele>
        <time>2012-06-17T12:54:18Z</time>
      </trkpt>
      <trkpt lat="44.28338" lon="3.9679">
        <ele>521.65</ele>
        <time>2012-06-17T12:54:19Z</time>
      </trkpt>
      <trkpt lat="44.28336" lon="3.96796">
        <ele>521.65</ele>
        <time>2012-06-17T12:54:20Z</time>
      </trkpt>
      <trkpt lat="44.28336" lon="3.968">
        <ele>521.17</ele>
        <time>2012-06-17T12:54:21Z</time>
      </trkpt>
      <trkpt lat="44.28336" lon="3.96804">
        <ele>521.17</ele>
        <time>2012-06-17T12:54:22Z</time>
      </trkpt>
      <trkpt lat="44.28337" lon="3.96845">
        <ele>521.17</ele>
        <time>2012-06-17T12:54:32Z</time>
      </trkpt>
      <trkpt lat="44.28344" lon="3.96881">
        <ele>522.13</ele>
        <time>2012-06-17T12:54:42Z</time>
      </trkpt>
      <trkpt lat="44.28352" lon="3.9691">
        <ele>524.54</ele>
        <time>2012-06-17T12:54:53Z</time>
      </trkpt>
      <trkpt lat="44.28361" lon="3.96939">
        <ele>526.94</ele>
        <time>2012-06-17T12:55:06Z</time>
      </trkpt>
      <trkpt lat="44.28363" lon="3.96947">
        <ele>527.42</ele>
        <time>2012-06-17T12:55:10Z</time>
      </trkpt>
      <trkpt lat="44.28364" lon="3.96949">
        <ele>527.42</ele>
        <time>2012-06-17T12:55:11Z</time>
      </trkpt>
      <trkpt lat="44.28365" lon="3.96951">
        <ele>527.42</ele>
        <time>2012-06-17T12:55:12Z</time>
      </trkpt>
      <trkpt lat="44.28366" lon="3.96953">
        <ele>527.42</ele>
        <time>2012-06-17T12:55:13Z</time>
      </trkpt>
      <trkpt lat="44.28367" lon="3.96955">
        <ele>527.9</ele>
        <time>2012-06-17T12:55:14Z</time>
      </trkpt>
      <trkpt lat="44.28368" lon="3.96957">
        <ele>527.9</ele>
        <time>2012-06-17T12:55:15Z</time>
      </trkpt>
      <trkpt lat="44.28369" lon="3.96959">
        <ele>528.38</ele>
        <time>2012-06-17T12:55:16Z</time>
      </trkpt>
      <trkpt lat="44.2837" lon="3.9696">
        <ele>528.38</ele>
        <time>2012-06-17T12:55:17Z</time>
      </trkpt>
      <trkpt lat="44.28372" lon="3.96962">
        <ele>528.38</ele>
        <time>2012-06-17T12:55:18Z</time>
      </trkpt>
      <trkpt lat="44.28372" lon="3.96964">
        <ele>528.86</ele>
        <time>2012-06-17T12:55:19Z</time>
      </trkpt>
      <trkpt lat="44.28373" lon="3.96967">
        <ele>529.34</ele>
        <time>2012-06-17T12:55:20Z</time>
      </trkpt>
      <trkpt lat="44.28373" lon="3.96969">
        <ele>529.34</ele>
        <time>2012-06-17T12:55:21Z</time>
      </trkpt>
      <trkpt lat="44.28374" lon="3.96977">
        <ele>530.3</ele>
        <time>2012-06-17T12:55:25Z</time>
      </trkpt>
      <trkpt lat="44.28375" lon="3.96979">
        <ele>530.3</ele>
        <time>2012-06-17T12:55:26Z</time>
      </trkpt>
      <trkpt lat="44.28376" lon="3.9698">
        <ele>530.3</ele>
        <time>2012-06-17T12:55:27Z</time>
      </trkpt>
      <trkpt lat="44.28377" lon="3.96982">
        <ele>530.3</ele>
        <time>2012-06-17T12:55:28Z</time>
      </trkpt>
      <trkpt lat="44.28377" lon="3.96984">
        <ele>530.3</ele>
        <time>2012-06-17T12:55:29Z</time>
      </trkpt>
      <trkpt lat="44.28377" lon="3.96986">
        <ele>530.3</ele>
        <time>2012-06-17T12:55:30Z</time>
      </trkpt>
      <trkpt lat="44.28377" lon="3.96988">
        <ele>530.79</ele>
        <time>2012-06-17T12:55:31Z</time>
      </trkpt>
      <trkpt lat="44.28377" lon="3.9699">
        <ele>530.79</ele>
        <time>2012-06-17T12:55:32Z</time>
      </trkpt>
      <trkpt lat="44.28387" lon="3.97021">
        <ele>533.67</ele>
        <time>2012-06-17T12:55:46Z</time>
      </trkpt>
      <trkpt lat="44.2839" lon="3.97026">
        <ele>533.67</ele>
        <time>2012-06-17T12:55:48Z</time>
      </trkpt>
      <trkpt lat="44.28391" lon="3.97028">
        <ele>533.67</ele>
        <time>2012-06-17T12:55:49Z</time>
      </trkpt>
      <trkpt lat="44.28392" lon="3.97031">
        <ele>533.67</ele>
        <time>2012-06-17T12:55:50Z</time>
      </trkpt>
      <trkpt lat="44.28393" lon="3.97033">
        <ele>533.67</ele>
        <time>2012-06-17T12:55:51Z</time>
      </trkpt>
      <trkpt lat="44.28394" lon="3.97036">
        <ele>534.15</ele>
        <time>2012-06-17T12:55:52Z</time>
      </trkpt>
      <trkpt lat="44.28406" lon="3.97063">
        <ele>536.07</ele>
        <time>2012-06-17T12:56:04Z</time>
      </trkpt>
      <trkpt lat="44.2841" lon="3.9708">
        <ele>537.03</ele>
        <time>2012-06-17T12:56:10Z</time>
      </trkpt>
      <trkpt lat="44.28412" lon="3.97083">
        <ele>537.51</ele>
        <time>2012-06-17T12:56:11Z</time>
      </trkpt>
      <trkpt lat="44.28413" lon="3.97085">
        <ele>537.51</ele>
        <time>2012-06-17T12:56:12Z</time>
      </trkpt>
      <trkpt lat="44.28417" lon="3.971">
        <ele>538.96</ele>
        <time>2012-06-17T12:56:17Z</time>
      </trkpt>
      <trkpt lat="44.28417" lon="3.97103">
        <ele>539.92</ele>
        <time>2012-06-17T12:56:18Z</time>
      </trkpt>
      <trkpt lat="44.28417" lon="3.97106">
        <ele>539.44</ele>
        <time>2012-06-17T12:56:19Z</time>
      </trkpt>
      <trkpt lat="44.28417" lon="3.97109">
        <ele>539.92</ele>
        <time>2012-06-17T12:56:20Z</time>
      </trkpt>
      <trkpt lat="44.28417" lon="3.97111">
        <ele>540.4</ele>
        <time>2012-06-17T12:56:21Z</time>
      </trkpt>
      <trkpt lat="44.28415" lon="3.97119">
        <ele>541.36</ele>
        <time>2012-06-17T12:56:24Z</time>
      </trkpt>
      <trkpt lat="44.28408" lon="3.97145">
        <ele>543.28</ele>
        <time>2012-06-17T12:56:34Z</time>
      </trkpt>
      <trkpt lat="44.28405" lon="3.97147">
        <ele>542.8</ele>
        <time>2012-06-17T12:56:35Z</time>
      </trkpt>
      <trkpt lat="44.2839" lon="3.97163">
        <ele>544.24</ele>
        <time>2012-06-17T12:56:46Z</time>
      </trkpt>
      <trkpt lat="44.2838" lon="3.97173">
        <ele>545.2</ele>
        <time>2012-06-17T12:56:54Z</time>
      </trkpt>
      <trkpt lat="44.28379" lon="3.97173">
        <ele>544.72</ele>
        <time>2012-06-17T12:56:55Z</time>
      </trkpt>
      <trkpt lat="44.28377" lon="3.97174">
        <ele>545.2</ele>
        <time>2012-06-17T12:56:56Z</time>
      </trkpt>
      <trkpt lat="44.28363" lon="3.97182">
        <ele>546.65</ele>
        <time>2012-06-17T12:57:04Z</time>
      </trkpt>
      <trkpt lat="44.28361" lon="3.97183">
        <ele>546.17</ele>
        <time>2012-06-17T12:57:05Z</time>
      </trkpt>
      <trkpt lat="44.28358" lon="3.97185">
        <ele>546.65</ele>
        <time>2012-06-17T12:57:07Z</time>
      </trkpt>
      <trkpt lat="44.2835" lon="3.97191">
        <ele>546.65</ele>
        <time>2012-06-17T12:57:13Z</time>
      </trkpt>
      <trkpt lat="44.28349" lon="3.97192">
        <ele>547.13</ele>
        <time>2012-06-17T12:57:14Z</time>
      </trkpt>
      <trkpt lat="44.28338" lon="3.97215">
        <ele>547.13</ele>
        <time>2012-06-17T12:57:27Z</time>
      </trkpt>
      <trkpt lat="44.28329" lon="3.97231">
        <ele>547.61</ele>
        <time>2012-06-17T12:57:35Z</time>
      </trkpt>
      <trkpt lat="44.28328" lon="3.97235">
        <ele>548.09</ele>
        <time>2012-06-17T12:57:36Z</time>
      </trkpt>
      <trkpt lat="44.28327" lon="3.97238">
        <ele>548.09</ele>
        <time>2012-06-17T12:57:37Z</time>
      </trkpt>
      <trkpt lat="44.28313" lon="3.97277">
        <ele>550.01</ele>
        <time>2012-06-17T12:57:47Z</time>
      </trkpt>
      <trkpt lat="44.28301" lon="3.97308">
        <ele>551.45</ele>
        <time>2012-06-17T12:57:57Z</time>
      </trkpt>
      <trkpt lat="44.28298" lon="3.9732">
        <ele>552.41</ele>
        <time>2012-06-17T12:58:01Z</time>
      </trkpt>
      <trkpt lat="44.28297" lon="3.97323">
        <ele>551.93</ele>
        <time>2012-06-17T12:58:02Z</time>
      </trkpt>
      <trkpt lat="44.28295" lon="3.97327">
        <ele>552.9</ele>
        <time>2012-06-17T12:58:03Z</time>
      </trkpt>
      <trkpt lat="44.28294" lon="3.9733">
        <ele>552.9</ele>
        <time>2012-06-17T12:58:04Z</time>
      </trkpt>
      <trkpt lat="44.28292" lon="3.97333">
        <ele>553.38</ele>
        <time>2012-06-17T12:58:05Z</time>
      </trkpt>
      <trkpt lat="44.28281" lon="3.97355">
        <ele>554.34</ele>
        <time>2012-06-17T12:58:12Z</time>
      </trkpt>
      <trkpt lat="44.2828" lon="3.97359">
        <ele>554.82</ele>
        <time>2012-06-17T12:58:13Z</time>
      </trkpt>
      <trkpt lat="44.2826" lon="3.9739">
        <ele>556.74</ele>
        <time>2012-06-17T12:58:25Z</time>
      </trkpt>
      <trkpt lat="44.28256" lon="3.97392">
        <ele>557.22</ele>
        <time>2012-06-17T12:58:27Z</time>
      </trkpt>
      <trkpt lat="44.28254" lon="3.97393">
        <ele>557.7</ele>
        <time>2012-06-17T12:58:28Z</time>
      </trkpt>
      <trkpt lat="44.28253" lon="3.97395">
        <ele>557.22</ele>
        <time>2012-06-17T12:58:29Z</time>
      </trkpt>
      <trkpt lat="44.28251" lon="3.97398">
        <ele>557.7</ele>
        <time>2012-06-17T12:58:30Z</time>
      </trkpt>
      <trkpt lat="44.2825" lon="3.97399">
        <ele>558.18</ele>
        <time>2012-06-17T12:58:31Z</time>
      </trkpt>
      <trkpt lat="44.28236" lon="3.97417">
        <ele>560.11</ele>
        <time>2012-06-17T12:58:42Z</time>
      </trkpt>
      <trkpt lat="44.28238" lon="3.97416">
        <ele>560.59</ele>
        <time>2012-06-17T12:58:43Z</time>
      </trkpt>
      <trkpt lat="44.28239" lon="3.97415">
        <ele>561.07</ele>
        <time>2012-06-17T12:58:44Z</time>
      </trkpt>
      <trkpt lat="44.28239" lon="3.97415">
        <ele>560.59</ele>
        <time>2012-06-17T12:58:45Z</time>
      </trkpt>
      <trkpt lat="44.28228" lon="3.97423">
        <ele>561.55</ele>
        <time>2012-06-17T12:58:53Z</time>
      </trkpt>
      <trkpt lat="44.28227" lon="3.97424">
        <ele>562.03</ele>
        <time>2012-06-17T12:58:54Z</time>
      </trkpt>
      <trkpt lat="44.28215" lon="3.97441">
        <ele>562.03</ele>
        <time>2012-06-17T12:59:06Z</time>
      </trkpt>
      <trkpt lat="44.28197" lon="3.97463">
        <ele>561.07</ele>
        <time>2012-06-17T12:59:17Z</time>
      </trkpt>
      <trkpt lat="44.28189" lon="3.97474">
        <ele>559.62</ele>
        <time>2012-06-17T12:59:21Z</time>
      </trkpt>
      <trkpt lat="44.28188" lon="3.97479">
        <ele>560.11</ele>
        <time>2012-06-17T12:59:23Z</time>
      </trkpt>
      <trkpt lat="44.28187" lon="3.97481">
        <ele>560.11</ele>
        <time>2012-06-17T12:59:24Z</time>
      </trkpt>
      <trkpt lat="44.28186" lon="3.97483">
        <ele>559.62</ele>
        <time>2012-06-17T12:59:25Z</time>
      </trkpt>
      <trkpt lat="44.28185" lon="3.97485">
        <ele>559.62</ele>
        <time>2012-06-17T12:59:26Z</time>
      </trkpt>
      <trkpt lat="44.28184" lon="3.97488">
        <ele>559.62</ele>
        <time>2012-06-17T12:59:27Z</time>
      </trkpt>
      <trkpt lat="44.28183" lon="3.97491">
        <ele>559.62</ele>
        <time>2012-06-17T12:59:28Z</time>
      </trkpt>
      <trkpt lat="44.28182" lon="3.97494">
        <ele>559.14</ele>
        <time>2012-06-17T12:59:29Z</time>
      </trkpt>
      <trkpt lat="44.28171" lon="3.97522">
        <ele>558.18</ele>
        <time>2012-06-17T12:59:38Z</time>
      </trkpt>
      <trkpt lat="44.28163" lon="3.9756">
        <ele>556.74</ele>
        <time>2012-06-17T12:59:49Z</time>
      </trkpt>
      <trkpt lat="44.28159" lon="3.97586">
        <ele>556.74</ele>
        <time>2012-06-17T12:59:56Z</time>
      </trkpt>
      <trkpt lat="44.28159" lon="3.97589">
        <ele>557.22</ele>
        <time>2012-06-17T12:59:57Z</time>
      </trkpt>
      <trkpt lat="44.28158" lon="3.97592">
        <ele>556.74</ele>
        <time>2012-06-17T12:59:58Z</time>
      </trkpt>
      <trkpt lat="44.28157" lon="3.97595">
        <ele>556.74</ele>
        <time>2012-06-17T12:59:59Z</time>
      </trkpt>
      <trkpt lat="44.28156" lon="3.97598">
        <ele>557.22</ele>
        <time>2012-06-17T13:00:00Z</time>
      </trkpt>
      <trkpt lat="44.28144" lon="3.97618">
        <ele>557.7</ele>
        <time>2012-06-17T13:00:12Z</time>
      </trkpt>
      <trkpt lat="44.28143" lon="3.9762">
        <ele>558.18</ele>
        <time>2012-06-17T13:00:28Z</time>
      </trkpt>
      <trkpt lat="44.28142" lon="3.97621">
        <ele>557.7</ele>
        <time>2012-06-17T13:00:56Z</time>
      </trkpt>
      <trkpt lat="44.28141" lon="3.9762">
        <ele>557.7</ele>
        <time>2012-06-17T13:01:15Z</time>
      </trkpt>
      <trkpt lat="44.28141" lon="3.9762">
        <ele>557.7</ele>
        <time>2012-06-17T13:01:18Z</time>
      </trkpt>
      <trkpt lat="44.2814" lon="3.97621">
        <ele>557.7</ele>
        <time>2012-06-17T13:01:19Z</time>
      </trkpt>
      <trkpt lat="44.28139" lon="3.97622">
        <ele>558.18</ele>
        <time>2012-06-17T13:01:20Z</time>
      </trkpt>
      <trkpt lat="44.28123" lon="3.97657">
        <ele>557.7</ele>
        <time>2012-06-17T13:01:31Z</time>
      </trkpt>
      <trkpt lat="44.28099" lon="3.97683">
        <ele>559.14</ele>
        <time>2012-06-17T13:01:42Z</time>
      </trkpt>
      <trkpt lat="44.2808" lon="3.97708">
        <ele>561.07</ele>
        <time>2012-06-17T13:01:52Z</time>
      </trkpt>
      <trkpt lat="44.28056" lon="3.97743">
        <ele>562.51</ele>
        <time>2012-06-17T13:02:06Z</time>
      </trkpt>
      <trkpt lat="44.28046" lon="3.97768">
        <ele>562.99</ele>
        <time>2012-06-17T13:02:15Z</time>
      </trkpt>
      <trkpt lat="44.28046" lon="3.97774">
        <ele>563.47</ele>
        <time>2012-06-17T13:02:17Z</time>
      </trkpt>
      <trkpt lat="44.28046" lon="3.97776">
        <ele>562.99</ele>
        <time>2012-06-17T13:02:18Z</time>
      </trkpt>
      <trkpt lat="44.28042" lon="3.97828">
        <ele>562.99</ele>
        <time>2012-06-17T13:02:31Z</time>
      </trkpt>
      <trkpt lat="44.28041" lon="3.97833">
        <ele>562.03</ele>
        <time>2012-06-17T13:02:32Z</time>
      </trkpt>
      <trkpt lat="44.2804" lon="3.97862">
        <ele>561.55</ele>
        <time>2012-06-17T13:02:37Z</time>
      </trkpt>
      <trkpt lat="44.2804" lon="3.97867">
        <ele>561.55</ele>
        <time>2012-06-17T13:02:38Z</time>
      </trkpt>
      <trkpt lat="44.28041" lon="3.97872">
        <ele>561.55</ele>
        <time>2012-06-17T13:02:39Z</time>
      </trkpt>
      <trkpt lat="44.28041" lon="3.97878">
        <ele>561.07</ele>
        <time>2012-06-17T13:02:40Z</time>
      </trkpt>
      <trkpt lat="44.28041" lon="3.97884">
        <ele>561.07</ele>
        <time>2012-06-17T13:02:41Z</time>
      </trkpt>
      <trkpt lat="44.28042" lon="3.97896">
        <ele>560.59</ele>
        <time>2012-06-17T13:02:43Z</time>
      </trkpt>
      <trkpt lat="44.28043" lon="3.97903">
        <ele>560.59</ele>
        <time>2012-06-17T13:02:44Z</time>
      </trkpt>
      <trkpt lat="44.28043" lon="3.97917">
        <ele>560.11</ele>
        <time>2012-06-17T13:02:46Z</time>
      </trkpt>
      <trkpt lat="44.28043" lon="3.97925">
        <ele>559.62</ele>
        <time>2012-06-17T13:02:47Z</time>
      </trkpt>
      <trkpt lat="44.28044" lon="3.97934">
        <ele>559.62</ele>
        <time>2012-06-17T13:02:48Z</time>
      </trkpt>
      <trkpt lat="44.28043" lon="3.97975">
        <ele>559.14</ele>
        <time>2012-06-17T13:02:52Z</time>
      </trkpt>
      <trkpt lat="44.28041" lon="3.97984">
        <ele>558.66</ele>
        <time>2012-06-17T13:02:53Z</time>
      </trkpt>
      <trkpt lat="44.28032" lon="3.98008">
        <ele>559.14</ele>
        <time>2012-06-17T13:02:56Z</time>
      </trkpt>
      <trkpt lat="44.28017" lon="3.98056">
        <ele>559.62</ele>
        <time>2012-06-17T13:03:02Z</time>
      </trkpt>
      <trkpt lat="44.28014" lon="3.98063">
        <ele>559.14</ele>
        <time>2012-06-17T13:03:03Z</time>
      </trkpt>
      <trkpt lat="44.28012" lon="3.98069">
        <ele>559.62</ele>
        <time>2012-06-17T13:03:04Z</time>
      </trkpt>
      <trkpt lat="44.27984" lon="3.98107">
        <ele>562.03</ele>
        <time>2012-06-17T13:03:14Z</time>
      </trkpt>
      <trkpt lat="44.27961" lon="3.98133">
        <ele>564.91</ele>
        <time>2012-06-17T13:03:25Z</time>
      </trkpt>
      <trkpt lat="44.27934" lon="3.98157">
        <ele>567.32</ele>
        <time>2012-06-17T13:03:37Z</time>
      </trkpt>
      <trkpt lat="44.27911" lon="3.98181">
        <ele>569.24</ele>
        <time>2012-06-17T13:03:48Z</time>
      </trkpt>
      <trkpt lat="44.2788" lon="3.98211">
        <ele>572.6</ele>
        <time>2012-06-17T13:04:02Z</time>
      </trkpt>
      <trkpt lat="44.27856" lon="3.9824">
        <ele>575.01</ele>
        <time>2012-06-17T13:04:13Z</time>
      </trkpt>
      <trkpt lat="44.27846" lon="3.98273">
        <ele>577.41</ele>
        <time>2012-06-17T13:04:26Z</time>
      </trkpt>
      <trkpt lat="44.27846" lon="3.98276">
        <ele>577.41</ele>
        <time>2012-06-17T13:04:27Z</time>
      </trkpt>
      <trkpt lat="44.27845" lon="3.98278">
        <ele>577.89</ele>
        <time>2012-06-17T13:04:28Z</time>
      </trkpt>
      <trkpt lat="44.27845" lon="3.9828">
        <ele>578.37</ele>
        <time>2012-06-17T13:04:29Z</time>
      </trkpt>
      <trkpt lat="44.27844" lon="3.98282">
        <ele>577.89</ele>
        <time>2012-06-17T13:04:30Z</time>
      </trkpt>
      <trkpt lat="44.27844" lon="3.98285">
        <ele>578.37</ele>
        <time>2012-06-17T13:04:31Z</time>
      </trkpt>
      <trkpt lat="44.27844" lon="3.98287">
        <ele>578.85</ele>
        <time>2012-06-17T13:04:32Z</time>
      </trkpt>
      <trkpt lat="44.27843" lon="3.98289">
        <ele>578.85</ele>
        <time>2012-06-17T13:04:33Z</time>
      </trkpt>
      <trkpt lat="44.27841" lon="3.98306">
        <ele>580.77</ele>
        <time>2012-06-17T13:04:40Z</time>
      </trkpt>
      <trkpt lat="44.27837" lon="3.98333">
        <ele>584.14</ele>
        <time>2012-06-17T13:04:54Z</time>
      </trkpt>
      <trkpt lat="44.27832" lon="3.98356">
        <ele>587.02</ele>
        <time>2012-06-17T13:05:06Z</time>
      </trkpt>
      <trkpt lat="44.2783" lon="3.98361">
        <ele>587.98</ele>
        <time>2012-06-17T13:05:09Z</time>
      </trkpt>
      <trkpt lat="44.2783" lon="3.98363">
        <ele>588.46</ele>
        <time>2012-06-17T13:05:11Z</time>
      </trkpt>
      <trkpt lat="44.27829" lon="3.98365">
        <ele>588.46</ele>
        <time>2012-06-17T13:05:12Z</time>
      </trkpt>
      <trkpt lat="44.27827" lon="3.98372">
        <ele>589.43</ele>
        <time>2012-06-17T13:05:16Z</time>
      </trkpt>
      <trkpt lat="44.27828" lon="3.98374">
        <ele>589.43</ele>
        <time>2012-06-17T13:05:17Z</time>
      </trkpt>
      <trkpt lat="44.27827" lon="3.98376">
        <ele>589.91</ele>
        <time>2012-06-17T13:05:18Z</time>
      </trkpt>
      <trkpt lat="44.27827" lon="3.9838">
        <ele>590.39</ele>
        <time>2012-06-17T13:05:21Z</time>
      </trkpt>
      <trkpt lat="44.27827" lon="3.98382">
        <ele>590.87</ele>
        <time>2012-06-17T13:05:22Z</time>
      </trkpt>
      <trkpt lat="44.27827" lon="3.98387">
        <ele>591.35</ele>
        <time>2012-06-17T13:05:25Z</time>
      </trkpt>
      <trkpt lat="44.27828" lon="3.98389">
        <ele>591.35</ele>
        <time>2012-06-17T13:05:26Z</time>
      </trkpt>
      <trkpt lat="44.27827" lon="3.98395">
        <ele>591.83</ele>
        <time>2012-06-17T13:05:30Z</time>
      </trkpt>
      <trkpt lat="44.27827" lon="3.98397">
        <ele>592.31</ele>
        <time>2012-06-17T13:05:31Z</time>
      </trkpt>
      <trkpt lat="44.27826" lon="3.98399">
        <ele>592.79</ele>
        <time>2012-06-17T13:05:32Z</time>
      </trkpt>
      <trkpt lat="44.27825" lon="3.984">
        <ele>593.27</ele>
        <time>2012-06-17T13:05:33Z</time>
      </trkpt>
      <trkpt lat="44.27824" lon="3.98402">
        <ele>593.27</ele>
        <time>2012-06-17T13:05:34Z</time>
      </trkpt>
      <trkpt lat="44.27822" lon="3.98404">
        <ele>593.27</ele>
        <time>2012-06-17T13:05:35Z</time>
      </trkpt>
      <trkpt lat="44.27821" lon="3.98406">
        <ele>593.27</ele>
        <time>2012-06-17T13:05:36Z</time>
      </trkpt>
      <trkpt lat="44.2782" lon="3.98407">
        <ele>593.75</ele>
        <time>2012-06-17T13:05:37Z</time>
      </trkpt>
      <trkpt lat="44.27819" lon="3.98409">
        <ele>594.23</ele>
        <time>2012-06-17T13:05:38Z</time>
      </trkpt>
      <trkpt lat="44.27819" lon="3.98412">
        <ele>593.75</ele>
        <time>2012-06-17T13:05:39Z</time>
      </trkpt>
      <trkpt lat="44.27818" lon="3.98414">
        <ele>594.23</ele>
        <time>2012-06-17T13:05:40Z</time>
      </trkpt>
      <trkpt lat="44.27819" lon="3.98416">
        <ele>594.71</ele>
        <time>2012-06-17T13:05:41Z</time>
      </trkpt>
      <trkpt lat="44.27819" lon="3.98418">
        <ele>594.71</ele>
        <time>2012-06-17T13:05:42Z</time>
      </trkpt>
      <trkpt lat="44.27818" lon="3.98423">
        <ele>595.67</ele>
        <time>2012-06-17T13:05:46Z</time>
      </trkpt>
      <trkpt lat="44.27818" lon="3.98425">
        <ele>595.67</ele>
        <time>2012-06-17T13:05:47Z</time>
      </trkpt>
      <trkpt lat="44.27817" lon="3.98426">
        <ele>596.15</ele>
        <time>2012-06-17T13:05:48Z</time>
      </trkpt>
      <trkpt lat="44.27817" lon="3.98428">
        <ele>595.67</ele>
        <time>2012-06-17T13:05:49Z</time>
      </trkpt>
      <trkpt lat="44.27817" lon="3.98429">
        <ele>595.67</ele>
        <time>2012-06-17T13:05:50Z</time>
      </trkpt>
      <trkpt lat="44.27816" lon="3.98431">
        <ele>596.64</ele>
        <time>2012-06-17T13:05:51Z</time>
      </trkpt>
      <trkpt lat="44.27815" lon="3.98435">
        <ele>597.12</ele>
        <time>2012-06-17T13:05:53Z</time>
      </trkpt>
      <trkpt lat="44.2781" lon="3.9845">
        <ele>599.52</ele>
        <time>2012-06-17T13:06:03Z</time>
      </trkpt>
      <trkpt lat="44.27811" lon="3.98452">
        <ele>599.04</ele>
        <time>2012-06-17T13:06:04Z</time>
      </trkpt>
      <trkpt lat="44.27816" lon="3.98469">
        <ele>600</ele>
        <time>2012-06-17T13:06:14Z</time>
      </trkpt>
      <trkpt lat="44.27817" lon="3.9847">
        <ele>600.48</ele>
        <time>2012-06-17T13:06:15Z</time>
      </trkpt>
      <trkpt lat="44.27817" lon="3.98472">
        <ele>600</ele>
        <time>2012-06-17T13:06:16Z</time>
      </trkpt>
      <trkpt lat="44.27817" lon="3.98474">
        <ele>600.48</ele>
        <time>2012-06-17T13:06:17Z</time>
      </trkpt>
      <trkpt lat="44.2782" lon="3.98494">
        <ele>601.44</ele>
        <time>2012-06-17T13:06:28Z</time>
      </trkpt>
      <trkpt lat="44.2782" lon="3.98497">
        <ele>601.92</ele>
        <time>2012-06-17T13:06:29Z</time>
      </trkpt>
      <trkpt lat="44.27821" lon="3.98499">
        <ele>601.92</ele>
        <time>2012-06-17T13:06:30Z</time>
      </trkpt>
      <trkpt lat="44.27821" lon="3.98501">
        <ele>601.92</ele>
        <time>2012-06-17T13:06:31Z</time>
      </trkpt>
      <trkpt lat="44.27821" lon="3.98503">
        <ele>602.4</ele>
        <time>2012-06-17T13:06:32Z</time>
      </trkpt>
      <trkpt lat="44.27821" lon="3.98508">
        <ele>602.4</ele>
        <time>2012-06-17T13:06:35Z</time>
      </trkpt>
      <trkpt lat="44.27823" lon="3.98516">
        <ele>602.88</ele>
        <time>2012-06-17T13:06:39Z</time>
      </trkpt>
      <trkpt lat="44.27823" lon="3.98518">
        <ele>603.36</ele>
        <time>2012-06-17T13:06:40Z</time>
      </trkpt>
      <trkpt lat="44.27824" lon="3.9852">
        <ele>602.88</ele>
        <time>2012-06-17T13:06:41Z</time>
      </trkpt>
      <trkpt lat="44.27825" lon="3.98522">
        <ele>603.36</ele>
        <time>2012-06-17T13:06:42Z</time>
      </trkpt>
      <trkpt lat="44.2783" lon="3.98534">
        <ele>603.85</ele>
        <time>2012-06-17T13:06:49Z</time>
      </trkpt>
      <trkpt lat="44.27831" lon="3.98536">
        <ele>604.33</ele>
        <time>2012-06-17T13:06:50Z</time>
      </trkpt>
      <trkpt lat="44.27831" lon="3.98538">
        <ele>603.85</ele>
        <time>2012-06-17T13:06:51Z</time>
      </trkpt>
      <trkpt lat="44.27832" lon="3.98541">
        <ele>604.33</ele>
        <time>2012-06-17T13:06:52Z</time>
      </trkpt>
      <trkpt lat="44.27832" lon="3.98543">
        <ele>604.33</ele>
        <time>2012-06-17T13:06:53Z</time>
      </trkpt>
      <trkpt lat="44.27841" lon="3.9857">
        <ele>605.77</ele>
        <time>2012-06-17T13:07:07Z</time>
      </trkpt>
      <trkpt lat="44.27843" lon="3.98573">
        <ele>606.25</ele>
        <time>2012-06-17T13:07:09Z</time>
      </trkpt>
      <trkpt lat="44.27844" lon="3.98575">
        <ele>605.77</ele>
        <time>2012-06-17T13:07:10Z</time>
      </trkpt>
      <trkpt lat="44.27845" lon="3.98576">
        <ele>605.77</ele>
        <time>2012-06-17T13:07:11Z</time>
      </trkpt>
      <trkpt lat="44.27846" lon="3.98578">
        <ele>606.25</ele>
        <time>2012-06-17T13:07:12Z</time>
      </trkpt>
      <trkpt lat="44.27847" lon="3.98579">
        <ele>606.73</ele>
        <time>2012-06-17T13:07:13Z</time>
      </trkpt>
      <trkpt lat="44.27848" lon="3.98581">
        <ele>606.25</ele>
        <time>2012-06-17T13:07:14Z</time>
      </trkpt>
      <trkpt lat="44.27849" lon="3.98583">
        <ele>606.73</ele>
        <time>2012-06-17T13:07:15Z</time>
      </trkpt>
      <trkpt lat="44.2785" lon="3.98584">
        <ele>607.21</ele>
        <time>2012-06-17T13:07:16Z</time>
      </trkpt>
      <trkpt lat="44.27851" lon="3.98585">
        <ele>607.21</ele>
        <time>2012-06-17T13:07:17Z</time>
      </trkpt>
      <trkpt lat="44.27852" lon="3.98587">
        <ele>607.21</ele>
        <time>2012-06-17T13:07:18Z</time>
      </trkpt>
      <trkpt lat="44.27855" lon="3.98593">
        <ele>607.69</ele>
        <time>2012-06-17T13:07:22Z</time>
      </trkpt>
      <trkpt lat="44.27856" lon="3.98595">
        <ele>607.69</ele>
        <time>2012-06-17T13:07:23Z</time>
      </trkpt>
      <trkpt lat="44.27857" lon="3.98597">
        <ele>607.69</ele>
        <time>2012-06-17T13:07:24Z</time>
      </trkpt>
      <trkpt lat="44.27858" lon="3.98599">
        <ele>608.17</ele>
        <time>2012-06-17T13:07:25Z</time>
      </trkpt>
      <trkpt lat="44.27859" lon="3.986">
        <ele>608.17</ele>
        <time>2012-06-17T13:07:26Z</time>
      </trkpt>
      <trkpt lat="44.2786" lon="3.98602">
        <ele>608.17</ele>
        <time>2012-06-17T13:07:27Z</time>
      </trkpt>
      <trkpt lat="44.27861" lon="3.98603">
        <ele>608.65</ele>
        <time>2012-06-17T13:07:28Z</time>
      </trkpt>
      <trkpt lat="44.27867" lon="3.98611">
        <ele>609.13</ele>
        <time>2012-06-17T13:07:40Z</time>
      </trkpt>
      <trkpt lat="44.27868" lon="3.98611">
        <ele>608.65</ele>
        <time>2012-06-17T13:07:54Z</time>
      </trkpt>
      <trkpt lat="44.27868" lon="3.9861">
        <ele>608.17</ele>
        <time>2012-06-17T13:08:27Z</time>
      </trkpt>
      <trkpt lat="44.27867" lon="3.98609">
        <ele>607.69</ele>
        <time>2012-06-17T13:08:59Z</time>
      </trkpt>
      <trkpt lat="44.27867" lon="3.9861">
        <ele>608.65</ele>
        <time>2012-06-17T13:09:33Z</time>
      </trkpt>
      <trkpt lat="44.27866" lon="3.98611">
        <ele>608.65</ele>
        <time>2012-06-17T13:09:58Z</time>
      </trkpt>
      <trkpt lat="44.27867" lon="3.98613">
        <ele>608.65</ele>
        <time>2012-06-17T13:10:11Z</time>
      </trkpt>
      <trkpt lat="44.27868" lon="3.98614">
        <ele>608.65</ele>
        <time>2012-06-17T13:10:12Z</time>
      </trkpt>
      <trkpt lat="44.27868" lon="3.98616">
        <ele>609.13</ele>
        <time>2012-06-17T13:10:13Z</time>
      </trkpt>
      <trkpt lat="44.27869" lon="3.98619">
        <ele>609.13</ele>
        <time>2012-06-17T13:10:14Z</time>
      </trkpt>
      <trkpt lat="44.27869" lon="3.9862">
        <ele>609.13</ele>
        <time>2012-06-17T13:10:15Z</time>
      </trkpt>
      <trkpt lat="44.2787" lon="3.98622">
        <ele>609.13</ele>
        <time>2012-06-17T13:10:16Z</time>
      </trkpt>
      <trkpt lat="44.27871" lon="3.98624">
        <ele>609.13</ele>
        <time>2012-06-17T13:10:17Z</time>
      </trkpt>
      <trkpt lat="44.27872" lon="3.98626">
        <ele>609.61</ele>
        <time>2012-06-17T13:10:18Z</time>
      </trkpt>
      <trkpt lat="44.27873" lon="3.98628">
        <ele>609.61</ele>
        <time>2012-06-17T13:10:19Z</time>
      </trkpt>
      <trkpt lat="44.27874" lon="3.98629">
        <ele>609.61</ele>
        <time>2012-06-17T13:10:20Z</time>
      </trkpt>
      <trkpt lat="44.27875" lon="3.98631">
        <ele>609.61</ele>
        <time>2012-06-17T13:10:21Z</time>
      </trkpt>
      <trkpt lat="44.27876" lon="3.98633">
        <ele>609.61</ele>
        <time>2012-06-17T13:10:22Z</time>
      </trkpt>
      <trkpt lat="44.27886" lon="3.98651">
        <ele>611.54</ele>
        <time>2012-06-17T13:10:33Z</time>
      </trkpt>
      <trkpt lat="44.27887" lon="3.98653">
        <ele>611.54</ele>
        <time>2012-06-17T13:10:34Z</time>
      </trkpt>
      <trkpt lat="44.27889" lon="3.98654">
        <ele>611.54</ele>
        <time>2012-06-17T13:10:35Z</time>
      </trkpt>
      <trkpt lat="44.27895" lon="3.98662">
        <ele>612.5</ele>
        <time>2012-06-17T13:10:40Z</time>
      </trkpt>
      <trkpt lat="44.27896" lon="3.98671">
        <ele>613.46</ele>
        <time>2012-06-17T13:10:49Z</time>
      </trkpt>
      <trkpt lat="44.27896" lon="3.98665">
        <ele>612.5</ele>
        <time>2012-06-17T13:10:55Z</time>
      </trkpt>
      <trkpt lat="44.27897" lon="3.98666">
        <ele>612.5</ele>
        <time>2012-06-17T13:10:56Z</time>
      </trkpt>
      <trkpt lat="44.27898" lon="3.98667">
        <ele>612.98</ele>
        <time>2012-06-17T13:10:57Z</time>
      </trkpt>
      <trkpt lat="44.279" lon="3.9867">
        <ele>612.5</ele>
        <time>2012-06-17T13:10:59Z</time>
      </trkpt>
      <trkpt lat="44.27909" lon="3.9869">
        <ele>613.46</ele>
        <time>2012-06-17T13:11:10Z</time>
      </trkpt>
      <trkpt lat="44.27911" lon="3.98692">
        <ele>613.94</ele>
        <time>2012-06-17T13:11:13Z</time>
      </trkpt>
      <trkpt lat="44.27912" lon="3.98693">
        <ele>613.94</ele>
        <time>2012-06-17T13:11:14Z</time>
      </trkpt>
      <trkpt lat="44.27913" lon="3.98695">
        <ele>613.94</ele>
        <time>2012-06-17T13:11:15Z</time>
      </trkpt>
      <trkpt lat="44.27914" lon="3.98696">
        <ele>614.42</ele>
        <time>2012-06-17T13:11:16Z</time>
      </trkpt>
      <trkpt lat="44.27915" lon="3.98698">
        <ele>614.42</ele>
        <time>2012-06-17T13:11:17Z</time>
      </trkpt>
      <trkpt lat="44.2792" lon="3.98703">
        <ele>614.42</ele>
        <time>2012-06-17T13:11:23Z</time>
      </trkpt>
      <trkpt lat="44.27921" lon="3.98705">
        <ele>614.42</ele>
        <time>2012-06-17T13:11:24Z</time>
      </trkpt>
      <trkpt lat="44.27922" lon="3.98706">
        <ele>614.42</ele>
        <time>2012-06-17T13:11:25Z</time>
      </trkpt>
      <trkpt lat="44.27923" lon="3.98707">
        <ele>614.42</ele>
        <time>2012-06-17T13:11:26Z</time>
      </trkpt>
      <trkpt lat="44.27924" lon="3.98708">
        <ele>614.9</ele>
        <time>2012-06-17T13:11:27Z</time>
      </trkpt>
      <trkpt lat="44.27927" lon="3.98713">
        <ele>614.9</ele>
        <time>2012-06-17T13:11:39Z</time>
      </trkpt>
      <trkpt lat="44.27927" lon="3.98713">
        <ele>615.86</ele>
        <time>2012-06-17T13:11:47Z</time>
      </trkpt>
      <trkpt lat="44.27929" lon="3.98715">
        <ele>614.9</ele>
        <time>2012-06-17T13:12:04Z</time>
      </trkpt>
      <trkpt lat="44.2793" lon="3.98716">
        <ele>614.9</ele>
        <time>2012-06-17T13:12:11Z</time>
      </trkpt>
      <trkpt lat="44.27931" lon="3.98718">
        <ele>614.9</ele>
        <time>2012-06-17T13:12:12Z</time>
      </trkpt>
      <trkpt lat="44.27932" lon="3.98719">
        <ele>615.38</ele>
        <time>2012-06-17T13:12:13Z</time>
      </trkpt>
      <trkpt lat="44.27933" lon="3.98722">
        <ele>615.38</ele>
        <time>2012-06-17T13:12:14Z</time>
      </trkpt>
      <trkpt lat="44.27935" lon="3.98725">
        <ele>615.38</ele>
        <time>2012-06-17T13:12:15Z</time>
      </trkpt>
      <trkpt lat="44.27936" lon="3.98728">
        <ele>615.38</ele>
        <time>2012-06-17T13:12:16Z</time>
      </trkpt>
      <trkpt lat="44.27937" lon="3.98731">
        <ele>615.38</ele>
        <time>2012-06-17T13:12:17Z</time>
      </trkpt>
      <trkpt lat="44.27938" lon="3.98733">
        <ele>615.86</ele>
        <time>2012-06-17T13:12:18Z</time>
      </trkpt>
      <trkpt lat="44.2794" lon="3.98746">
        <ele>616.34</ele>
        <time>2012-06-17T13:12:22Z</time>
      </trkpt>
      <trkpt lat="44.27939" lon="3.98749">
        <ele>616.82</ele>
        <time>2012-06-17T13:12:23Z</time>
      </trkpt>
      <trkpt lat="44.27938" lon="3.98752">
        <ele>616.82</ele>
        <time>2012-06-17T13:12:24Z</time>
      </trkpt>
      <trkpt lat="44.27937" lon="3.98754">
        <ele>617.3</ele>
        <time>2012-06-17T13:12:25Z</time>
      </trkpt>
      <trkpt lat="44.27935" lon="3.98756">
        <ele>617.3</ele>
        <time>2012-06-17T13:12:26Z</time>
      </trkpt>
      <trkpt lat="44.27916" lon="3.98774">
        <ele>619.23</ele>
        <time>2012-06-17T13:12:38Z</time>
      </trkpt>
      <trkpt lat="44.27912" lon="3.98776">
        <ele>619.23</ele>
        <time>2012-06-17T13:12:40Z</time>
      </trkpt>
      <trkpt lat="44.27911" lon="3.98778">
        <ele>619.71</ele>
        <time>2012-06-17T13:12:41Z</time>
      </trkpt>
      <trkpt lat="44.27909" lon="3.98779">
        <ele>619.71</ele>
        <time>2012-06-17T13:12:42Z</time>
      </trkpt>
      <trkpt lat="44.27907" lon="3.98781">
        <ele>620.19</ele>
        <time>2012-06-17T13:12:43Z</time>
      </trkpt>
      <trkpt lat="44.27905" lon="3.98782">
        <ele>620.67</ele>
        <time>2012-06-17T13:12:44Z</time>
      </trkpt>
      <trkpt lat="44.27903" lon="3.98783">
        <ele>620.67</ele>
        <time>2012-06-17T13:12:45Z</time>
      </trkpt>
      <trkpt lat="44.27901" lon="3.98785">
        <ele>620.67</ele>
        <time>2012-06-17T13:12:46Z</time>
      </trkpt>
      <trkpt lat="44.27899" lon="3.98786">
        <ele>621.15</ele>
        <time>2012-06-17T13:12:47Z</time>
      </trkpt>
      <trkpt lat="44.27878" lon="3.98805">
        <ele>622.59</ele>
        <time>2012-06-17T13:12:58Z</time>
      </trkpt>
      <trkpt lat="44.27867" lon="3.9884">
        <ele>623.07</ele>
        <time>2012-06-17T13:13:09Z</time>
      </trkpt>
      <trkpt lat="44.27867" lon="3.98876">
        <ele>623.07</ele>
        <time>2012-06-17T13:13:18Z</time>
      </trkpt>
      <trkpt lat="44.27873" lon="3.98925">
        <ele>621.15</ele>
        <time>2012-06-17T13:13:27Z</time>
      </trkpt>
      <trkpt lat="44.27873" lon="3.98931">
        <ele>620.67</ele>
        <time>2012-06-17T13:13:28Z</time>
      </trkpt>
      <trkpt lat="44.27873" lon="3.98937">
        <ele>621.15</ele>
        <time>2012-06-17T13:13:29Z</time>
      </trkpt>
      <trkpt lat="44.27873" lon="3.98942">
        <ele>620.19</ele>
        <time>2012-06-17T13:13:30Z</time>
      </trkpt>
      <trkpt lat="44.27873" lon="3.98949">
        <ele>620.19</ele>
        <time>2012-06-17T13:13:31Z</time>
      </trkpt>
      <trkpt lat="44.27873" lon="3.98955">
        <ele>620.19</ele>
        <time>2012-06-17T13:13:32Z</time>
      </trkpt>
      <trkpt lat="44.27874" lon="3.98961">
        <ele>620.19</ele>
        <time>2012-06-17T13:13:33Z</time>
      </trkpt>
      <trkpt lat="44.27874" lon="3.98967">
        <ele>620.19</ele>
        <time>2012-06-17T13:13:34Z</time>
      </trkpt>
      <trkpt lat="44.27877" lon="3.98997">
        <ele>619.71</ele>
        <time>2012-06-17T13:13:39Z</time>
      </trkpt>
      <trkpt lat="44.27881" lon="3.99016">
        <ele>620.67</ele>
        <time>2012-06-17T13:13:42Z</time>
      </trkpt>
      <trkpt lat="44.27883" lon="3.99022">
        <ele>620.67</ele>
        <time>2012-06-17T13:13:43Z</time>
      </trkpt>
      <trkpt lat="44.27884" lon="3.99027">
        <ele>621.15</ele>
        <time>2012-06-17T13:13:44Z</time>
      </trkpt>
      <trkpt lat="44.27887" lon="3.99038">
        <ele>622.11</ele>
        <time>2012-06-17T13:13:46Z</time>
      </trkpt>
      <trkpt lat="44.27886" lon="3.99079">
        <ele>622.11</ele>
        <time>2012-06-17T13:13:55Z</time>
      </trkpt>
      <trkpt lat="44.27882" lon="3.99088">
        <ele>622.11</ele>
        <time>2012-06-17T13:13:57Z</time>
      </trkpt>
      <trkpt lat="44.2788" lon="3.99093">
        <ele>622.11</ele>
        <time>2012-06-17T13:13:58Z</time>
      </trkpt>
      <trkpt lat="44.27877" lon="3.99099">
        <ele>622.11</ele>
        <time>2012-06-17T13:13:59Z</time>
      </trkpt>
      <trkpt lat="44.27874" lon="3.99103">
        <ele>621.63</ele>
        <time>2012-06-17T13:14:00Z</time>
      </trkpt>
      <trkpt lat="44.27871" lon="3.99108">
        <ele>621.15</ele>
        <time>2012-06-17T13:14:01Z</time>
      </trkpt>
      <trkpt lat="44.27868" lon="3.99113">
        <ele>621.15</ele>
        <time>2012-06-17T13:14:02Z</time>
      </trkpt>
      <trkpt lat="44.27864" lon="3.99119">
        <ele>620.67</ele>
        <time>2012-06-17T13:14:03Z</time>
      </trkpt>
      <trkpt lat="44.2786" lon="3.99124">
        <ele>620.19</ele>
        <time>2012-06-17T13:14:04Z</time>
      </trkpt>
      <trkpt lat="44.27852" lon="3.99137">
        <ele>619.23</ele>
        <time>2012-06-17T13:14:06Z</time>
      </trkpt>
      <trkpt lat="44.27849" lon="3.99143">
        <ele>618.75</ele>
        <time>2012-06-17T13:14:07Z</time>
      </trkpt>
      <trkpt lat="44.27843" lon="3.99158">
        <ele>618.26</ele>
        <time>2012-06-17T13:14:09Z</time>
      </trkpt>
      <trkpt lat="44.27833" lon="3.992">
        <ele>614.42</ele>
        <time>2012-06-17T13:14:14Z</time>
      </trkpt>
      <trkpt lat="44.27831" lon="3.9921">
        <ele>613.46</ele>
        <time>2012-06-17T13:14:15Z</time>
      </trkpt>
      <trkpt lat="44.2783" lon="3.99222">
        <ele>612.98</ele>
        <time>2012-06-17T13:14:16Z</time>
      </trkpt>
      <trkpt lat="44.2783" lon="3.99234">
        <ele>612.5</ele>
        <time>2012-06-17T13:14:17Z</time>
      </trkpt>
      <trkpt lat="44.2783" lon="3.99246">
        <ele>611.54</ele>
        <time>2012-06-17T13:14:18Z</time>
      </trkpt>
      <trkpt lat="44.27829" lon="3.99259">
        <ele>611.06</ele>
        <time>2012-06-17T13:14:19Z</time>
      </trkpt>
      <trkpt lat="44.27827" lon="3.99304">
        <ele>607.69</ele>
        <time>2012-06-17T13:14:24Z</time>
      </trkpt>
      <trkpt lat="44.27826" lon="3.99311">
        <ele>607.21</ele>
        <time>2012-06-17T13:14:25Z</time>
      </trkpt>
      <trkpt lat="44.27822" lon="3.99318">
        <ele>606.73</ele>
        <time>2012-06-17T13:14:26Z</time>
      </trkpt>
      <trkpt lat="44.27814" lon="3.99331">
        <ele>605.77</ele>
        <time>2012-06-17T13:14:28Z</time>
      </trkpt>
      <trkpt lat="44.27799" lon="3.99349">
        <ele>604.33</ele>
        <time>2012-06-17T13:14:31Z</time>
      </trkpt>
      <trkpt lat="44.27788" lon="3.99362">
        <ele>603.36</ele>
        <time>2012-06-17T13:14:33Z</time>
      </trkpt>
      <trkpt lat="44.27764" lon="3.99388">
        <ele>600.96</ele>
        <time>2012-06-17T13:14:37Z</time>
      </trkpt>
      <trkpt lat="44.27758" lon="3.99394">
        <ele>600.96</ele>
        <time>2012-06-17T13:14:38Z</time>
      </trkpt>
      <trkpt lat="44.27751" lon="3.99399">
        <ele>600</ele>
        <time>2012-06-17T13:14:39Z</time>
      </trkpt>
      <trkpt lat="44.27745" lon="3.99404">
        <ele>600</ele>
        <time>2012-06-17T13:14:40Z</time>
      </trkpt>
      <trkpt lat="44.27739" lon="3.99408">
        <ele>600</ele>
        <time>2012-06-17T13:14:41Z</time>
      </trkpt>
      <trkpt lat="44.27734" lon="3.99413">
        <ele>600</ele>
        <time>2012-06-17T13:14:42Z</time>
      </trkpt>
      <trkpt lat="44.27729" lon="3.99419">
        <ele>600</ele>
        <time>2012-06-17T13:14:43Z</time>
      </trkpt>
      <trkpt lat="44.2772" lon="3.9943">
        <ele>599.04</ele>
        <time>2012-06-17T13:14:45Z</time>
      </trkpt>
      <trkpt lat="44.27715" lon="3.99437">
        <ele>599.04</ele>
        <time>2012-06-17T13:14:46Z</time>
      </trkpt>
      <trkpt lat="44.27711" lon="3.99443">
        <ele>597.6</ele>
        <time>2012-06-17T13:14:47Z</time>
      </trkpt>
      <trkpt lat="44.27707" lon="3.99449">
        <ele>597.6</ele>
        <time>2012-06-17T13:14:48Z</time>
      </trkpt>
      <trkpt lat="44.27698" lon="3.99472">
        <ele>595.19</ele>
        <time>2012-06-17T13:14:55Z</time>
      </trkpt>
      <trkpt lat="44.27694" lon="3.99473">
        <ele>594.71</ele>
        <time>2012-06-17T13:15:13Z</time>
      </trkpt>
      <trkpt lat="44.27694" lon="3.99474">
        <ele>595.19</ele>
        <time>2012-06-17T13:15:31Z</time>
      </trkpt>
      <trkpt lat="44.27694" lon="3.99475">
        <ele>594.71</ele>
        <time>2012-06-17T13:16:02Z</time>
      </trkpt>
      <trkpt lat="44.27693" lon="3.99475">
        <ele>594.71</ele>
        <time>2012-06-17T13:16:36Z</time>
      </trkpt>
      <trkpt lat="44.27692" lon="3.99477">
        <ele>594.71</ele>
        <time>2012-06-17T13:17:13Z</time>
      </trkpt>
      <trkpt lat="44.27693" lon="3.99478">
        <ele>595.19</ele>
        <time>2012-06-17T13:17:36Z</time>
      </trkpt>
      <trkpt lat="44.27688" lon="3.99493">
        <ele>594.71</ele>
        <time>2012-06-17T13:17:48Z</time>
      </trkpt>
      <trkpt lat="44.27683" lon="3.99509">
        <ele>594.23</ele>
        <time>2012-06-17T13:17:52Z</time>
      </trkpt>
      <trkpt lat="44.27682" lon="3.99515">
        <ele>593.75</ele>
        <time>2012-06-17T13:17:53Z</time>
      </trkpt>
      <trkpt lat="44.27677" lon="3.99535">
        <ele>592.31</ele>
        <time>2012-06-17T13:17:56Z</time>
      </trkpt>
      <trkpt lat="44.2767" lon="3.99566">
        <ele>590.87</ele>
        <time>2012-06-17T13:18:00Z</time>
      </trkpt>
      <trkpt lat="44.27664" lon="3.99592">
        <ele>589.43</ele>
        <time>2012-06-17T13:18:03Z</time>
      </trkpt>
      <trkpt lat="44.27657" lon="3.99628">
        <ele>587.5</ele>
        <time>2012-06-17T13:18:07Z</time>
      </trkpt>
      <trkpt lat="44.27651" lon="3.99663">
        <ele>585.58</ele>
        <time>2012-06-17T13:18:11Z</time>
      </trkpt>
      <trkpt lat="44.27641" lon="3.99725">
        <ele>583.66</ele>
        <time>2012-06-17T13:18:19Z</time>
      </trkpt>
      <trkpt lat="44.27639" lon="3.99751">
        <ele>584.14</ele>
        <time>2012-06-17T13:18:23Z</time>
      </trkpt>
      <trkpt lat="44.27637" lon="3.99757">
        <ele>584.14</ele>
        <time>2012-06-17T13:18:24Z</time>
      </trkpt>
      <trkpt lat="44.27635" lon="3.99762">
        <ele>583.66</ele>
        <time>2012-06-17T13:18:25Z</time>
      </trkpt>
      <trkpt lat="44.27633" lon="3.99767">
        <ele>583.66</ele>
        <time>2012-06-17T13:18:26Z</time>
      </trkpt>
      <trkpt lat="44.2763" lon="3.99772">
        <ele>583.18</ele>
        <time>2012-06-17T13:18:27Z</time>
      </trkpt>
      <trkpt lat="44.27628" lon="3.99776">
        <ele>583.18</ele>
        <time>2012-06-17T13:18:28Z</time>
      </trkpt>
      <trkpt lat="44.27609" lon="3.99801">
        <ele>582.22</ele>
        <time>2012-06-17T13:18:33Z</time>
      </trkpt>
      <trkpt lat="44.27605" lon="3.99808">
        <ele>582.7</ele>
        <time>2012-06-17T13:18:34Z</time>
      </trkpt>
      <trkpt lat="44.27603" lon="3.99815">
        <ele>582.22</ele>
        <time>2012-06-17T13:18:35Z</time>
      </trkpt>
      <trkpt lat="44.27602" lon="3.99822">
        <ele>582.22</ele>
        <time>2012-06-17T13:18:36Z</time>
      </trkpt>
      <trkpt lat="44.27602" lon="3.99829">
        <ele>582.7</ele>
        <time>2012-06-17T13:18:37Z</time>
      </trkpt>
      <trkpt lat="44.27602" lon="3.99835">
        <ele>582.7</ele>
        <time>2012-06-17T13:18:38Z</time>
      </trkpt>
      <trkpt lat="44.27602" lon="3.99839">
        <ele>582.22</ele>
        <time>2012-06-17T13:18:39Z</time>
      </trkpt>
      <trkpt lat="44.27602" lon="3.99841">
        <ele>582.22</ele>
        <time>2012-06-17T13:18:40Z</time>
      </trkpt>
      <trkpt lat="44.27603" lon="3.99845">
        <ele>582.22</ele>
        <time>2012-06-17T13:18:52Z</time>
      </trkpt>
      <trkpt lat="44.27604" lon="3.99846">
        <ele>582.22</ele>
        <time>2012-06-17T13:18:55Z</time>
      </trkpt>
      <trkpt lat="44.27605" lon="3.99846">
        <ele>582.22</ele>
        <time>2012-06-17T13:18:56Z</time>
      </trkpt>
      <trkpt lat="44.27605" lon="3.99839">
        <ele>582.22</ele>
        <time>2012-06-17T13:19:01Z</time>
      </trkpt>
      <trkpt lat="44.27606" lon="3.99833">
        <ele>581.73</ele>
        <time>2012-06-17T13:19:05Z</time>
      </trkpt>
      <trkpt lat="44.27607" lon="3.99824">
        <ele>581.73</ele>
        <time>2012-06-17T13:19:10Z</time>
      </trkpt>
      <trkpt lat="44.27605" lon="3.99814">
        <ele>581.73</ele>
        <time>2012-06-17T13:19:24Z</time>
      </trkpt>
      <trkpt lat="44.27605" lon="3.99815">
        <ele>581.73</ele>
        <time>2012-06-17T13:19:29Z</time>
      </trkpt>
      <trkpt lat="44.27601" lon="3.99813">
        <ele>581.25</ele>
        <time>2012-06-17T13:19:43Z</time>
      </trkpt>
      <trkpt lat="44.276" lon="3.99813">
        <ele>580.77</ele>
        <time>2012-06-17T13:20:17Z</time>
      </trkpt>
      <trkpt lat="44.27601" lon="3.99815">
        <ele>581.73</ele>
        <time>2012-06-17T13:20:47Z</time>
      </trkpt>
      <trkpt lat="44.27601" lon="3.99816">
        <ele>581.25</ele>
        <time>2012-06-17T13:21:18Z</time>
      </trkpt>
      <trkpt lat="44.276" lon="3.99816">
        <ele>581.25</ele>
        <time>2012-06-17T13:21:54Z</time>
      </trkpt>
      <trkpt lat="44.27601" lon="3.99815">
        <ele>581.25</ele>
        <time>2012-06-17T13:22:32Z</time>
      </trkpt>
      <trkpt lat="44.27601" lon="3.99814">
        <ele>580.77</ele>
        <time>2012-06-17T13:22:59Z</time>
      </trkpt>
      <trkpt lat="44.27601" lon="3.99814">
        <ele>581.25</ele>
        <time>2012-06-17T13:23:37Z</time>
      </trkpt>
      <trkpt lat="44.27601" lon="3.99814">
        <ele>581.25</ele>
        <time>2012-06-17T13:24:10Z</time>
      </trkpt>
      <trkpt lat="44.27601" lon="3.99815">
        <ele>580.29</ele>
        <time>2012-06-17T13:24:37Z</time>
      </trkpt>
      <trkpt lat="44.27601" lon="3.99815">
        <ele>580.77</ele>
        <time>2012-06-17T13:25:12Z</time>
      </trkpt>
      <trkpt lat="44.276" lon="3.99815">
        <ele>580.77</ele>
        <time>2012-06-17T13:25:48Z</time>
      </trkpt>
      <trkpt lat="44.276" lon="3.99814">
        <ele>579.81</ele>
        <time>2012-06-17T13:26:16Z</time>
      </trkpt>
      <trkpt lat="44.27602" lon="3.99814">
        <ele>579.81</ele>
        <time>2012-06-17T13:26:50Z</time>
      </trkpt>
      <trkpt lat="44.27602" lon="3.99815">
        <ele>579.81</ele>
        <time>2012-06-17T13:27:22Z</time>
      </trkpt>
      <trkpt lat="44.27601" lon="3.99815">
        <ele>579.81</ele>
        <time>2012-06-17T13:27:56Z</time>
      </trkpt>
      <trkpt lat="44.276" lon="3.99813">
        <ele>579.81</ele>
        <time>2012-06-17T13:28:27Z</time>
      </trkpt>
      <trkpt lat="44.27598" lon="3.99812">
        <ele>579.81</ele>
        <time>2012-06-17T13:29:08Z</time>
      </trkpt>
      <trkpt lat="44.27597" lon="3.99813">
        <ele>580.29</ele>
        <time>2012-06-17T13:29:44Z</time>
      </trkpt>
      <trkpt lat="44.27596" lon="3.99813">
        <ele>580.29</ele>
        <time>2012-06-17T13:30:13Z</time>
      </trkpt>
      <trkpt lat="44.27595" lon="3.99812">
        <ele>579.81</ele>
        <time>2012-06-17T13:30:52Z</time>
      </trkpt>
      <trkpt lat="44.27596" lon="3.99812">
        <ele>579.81</ele>
        <time>2012-06-17T13:31:25Z</time>
      </trkpt>
      <trkpt lat="44.27596" lon="3.99811">
        <ele>579.81</ele>
        <time>2012-06-17T13:31:52Z</time>
      </trkpt>
      <trkpt lat="44.27595" lon="3.99813">
        <ele>579.81</ele>
        <time>2012-06-17T13:32:27Z</time>
      </trkpt>
      <trkpt lat="44.27595" lon="3.9981">
        <ele>579.33</ele>
        <time>2012-06-17T13:33:07Z</time>
      </trkpt>
      <trkpt lat="44.27592" lon="3.9981">
        <ele>579.81</ele>
        <time>2012-06-17T13:33:42Z</time>
      </trkpt>
      <trkpt lat="44.27592" lon="3.99811">
        <ele>579.81</ele>
        <time>2012-06-17T13:34:14Z</time>
      </trkpt>
      <trkpt lat="44.27592" lon="3.99813">
        <ele>579.33</ele>
        <time>2012-06-17T13:34:51Z</time>
      </trkpt>
      <trkpt lat="44.27592" lon="3.99813">
        <ele>579.81</ele>
        <time>2012-06-17T13:35:33Z</time>
      </trkpt>
      <trkpt lat="44.27594" lon="3.99811">
        <ele>579.33</ele>
        <time>2012-06-17T13:36:06Z</time>
      </trkpt>
      <trkpt lat="44.27595" lon="3.99815">
        <ele>579.81</ele>
        <time>2012-06-17T13:36:31Z</time>
      </trkpt>
      <trkpt lat="44.27596" lon="3.99815">
        <ele>580.29</ele>
        <time>2012-06-17T13:36:52Z</time>
      </trkpt>
      <trkpt lat="44.276" lon="3.99816">
        <ele>580.29</ele>
        <time>2012-06-17T13:37:13Z</time>
      </trkpt>
      <trkpt lat="44.27602" lon="3.99817">
        <ele>580.29</ele>
        <time>2012-06-17T13:37:27Z</time>
      </trkpt>
      <trkpt lat="44.27602" lon="3.9983">
        <ele>580.29</ele>
        <time>2012-06-17T13:37:31Z</time>
      </trkpt>
      <trkpt lat="44.27603" lon="3.99855">
        <ele>580.77</ele>
        <time>2012-06-17T13:37:36Z</time>
      </trkpt>
      <trkpt lat="44.27604" lon="3.99861">
        <ele>581.25</ele>
        <time>2012-06-17T13:37:37Z</time>
      </trkpt>
      <trkpt lat="44.27604" lon="3.99866">
        <ele>581.25</ele>
        <time>2012-06-17T13:37:38Z</time>
      </trkpt>
      <trkpt lat="44.27604" lon="3.99872">
        <ele>581.25</ele>
        <time>2012-06-17T13:37:39Z</time>
      </trkpt>
      <trkpt lat="44.27604" lon="3.99878">
        <ele>581.73</ele>
        <time>2012-06-17T13:37:40Z</time>
      </trkpt>
      <trkpt lat="44.27604" lon="3.99884">
        <ele>582.22</ele>
        <time>2012-06-17T13:37:41Z</time>
      </trkpt>
      <trkpt lat="44.27604" lon="3.99891">
        <ele>582.22</ele>
        <time>2012-06-17T13:37:42Z</time>
      </trkpt>
      <trkpt lat="44.27604" lon="3.99898">
        <ele>582.22</ele>
        <time>2012-06-17T13:37:43Z</time>
      </trkpt>
      <trkpt lat="44.27604" lon="3.99905">
        <ele>582.7</ele>
        <time>2012-06-17T13:37:44Z</time>
      </trkpt>
      <trkpt lat="44.27605" lon="3.99912">
        <ele>583.18</ele>
        <time>2012-06-17T13:37:45Z</time>
      </trkpt>
      <trkpt lat="44.27605" lon="3.99918">
        <ele>583.66</ele>
        <time>2012-06-17T13:37:46Z</time>
      </trkpt>
      <trkpt lat="44.27604" lon="3.99924">
        <ele>583.66</ele>
        <time>2012-06-17T13:37:47Z</time>
      </trkpt>
      <trkpt lat="44.27604" lon="3.99938">
        <ele>584.62</ele>
        <time>2012-06-17T13:37:50Z</time>
      </trkpt>
      <trkpt lat="44.27603" lon="3.99942">
        <ele>584.14</ele>
        <time>2012-06-17T13:37:51Z</time>
      </trkpt>
      <trkpt lat="44.27602" lon="3.99945">
        <ele>584.62</ele>
        <time>2012-06-17T13:37:52Z</time>
      </trkpt>
      <trkpt lat="44.27601" lon="3.99949">
        <ele>584.62</ele>
        <time>2012-06-17T13:37:53Z</time>
      </trkpt>
      <trkpt lat="44.276" lon="3.99953">
        <ele>584.62</ele>
        <time>2012-06-17T13:37:54Z</time>
      </trkpt>
      <trkpt lat="44.27599" lon="3.99958">
        <ele>584.62</ele>
        <time>2012-06-17T13:37:55Z</time>
      </trkpt>
      <trkpt lat="44.27591" lon="4">
        <ele>584.62</ele>
        <time>2012-06-17T13:38:03Z</time>
      </trkpt>
      <trkpt lat="44.2759" lon="4.00006">
        <ele>584.14</ele>
        <time>2012-06-17T13:38:04Z</time>
      </trkpt>
      <trkpt lat="44.27585" lon="4.00022">
        <ele>584.14</ele>
        <time>2012-06-17T13:38:07Z</time>
      </trkpt>
      <trkpt lat="44.27584" lon="4.00028">
        <ele>584.14</ele>
        <time>2012-06-17T13:38:08Z</time>
      </trkpt>
      <trkpt lat="44.27582" lon="4.00051">
        <ele>583.18</ele>
        <time>2012-06-17T13:38:12Z</time>
      </trkpt>
      <trkpt lat="44.2758" lon="4.00057">
        <ele>583.66</ele>
        <time>2012-06-17T13:38:13Z</time>
      </trkpt>
      <trkpt lat="44.27572" lon="4.00103">
        <ele>582.7</ele>
        <time>2012-06-17T13:38:20Z</time>
      </trkpt>
      <trkpt lat="44.2757" lon="4.00108">
        <ele>583.18</ele>
        <time>2012-06-17T13:38:21Z</time>
      </trkpt>
      <trkpt lat="44.27568" lon="4.00113">
        <ele>582.7</ele>
        <time>2012-06-17T13:38:22Z</time>
      </trkpt>
      <trkpt lat="44.27566" lon="4.00118">
        <ele>582.7</ele>
        <time>2012-06-17T13:38:23Z</time>
      </trkpt>
      <trkpt lat="44.27564" lon="4.00122">
        <ele>583.18</ele>
        <time>2012-06-17T13:38:24Z</time>
      </trkpt>
      <trkpt lat="44.27563" lon="4.00128">
        <ele>583.18</ele>
        <time>2012-06-17T13:38:25Z</time>
      </trkpt>
      <trkpt lat="44.27539" lon="4.00218">
        <ele>581.73</ele>
        <time>2012-06-17T13:38:39Z</time>
      </trkpt>
      <trkpt lat="44.27504" lon="4.00302">
        <ele>579.81</ele>
        <time>2012-06-17T13:38:51Z</time>
      </trkpt>
      <trkpt lat="44.27478" lon="4.00342">
        <ele>576.93</ele>
        <time>2012-06-17T13:38:57Z</time>
      </trkpt>
      <trkpt lat="44.27433" lon="4.00435">
        <ele>575.01</ele>
        <time>2012-06-17T13:39:09Z</time>
      </trkpt>
      <trkpt lat="44.27417" lon="4.00531">
        <ele>573.08</ele>
        <time>2012-06-17T13:39:19Z</time>
      </trkpt>
      <trkpt lat="44.27416" lon="4.00554">
        <ele>574.04</ele>
        <time>2012-06-17T13:39:22Z</time>
      </trkpt>
      <trkpt lat="44.27415" lon="4.0056">
        <ele>574.04</ele>
        <time>2012-06-17T13:39:23Z</time>
      </trkpt>
      <trkpt lat="44.27416" lon="4.00618">
        <ele>575.97</ele>
        <time>2012-06-17T13:39:34Z</time>
      </trkpt>
      <trkpt lat="44.27419" lon="4.00662">
        <ele>577.41</ele>
        <time>2012-06-17T13:39:44Z</time>
      </trkpt>
      <trkpt lat="44.27417" lon="4.00703">
        <ele>579.33</ele>
        <time>2012-06-17T13:39:57Z</time>
      </trkpt>
      <trkpt lat="44.27413" lon="4.00737">
        <ele>580.29</ele>
        <time>2012-06-17T13:40:08Z</time>
      </trkpt>
      <trkpt lat="44.27404" lon="4.0077">
        <ele>582.22</ele>
        <time>2012-06-17T13:40:19Z</time>
      </trkpt>
      <trkpt lat="44.27392" lon="4.008">
        <ele>584.14</ele>
        <time>2012-06-17T13:40:32Z</time>
      </trkpt>
      <trkpt lat="44.27386" lon="4.00818">
        <ele>585.1</ele>
        <time>2012-06-17T13:40:40Z</time>
      </trkpt>
      <trkpt lat="44.27385" lon="4.0082">
        <ele>585.1</ele>
        <time>2012-06-17T13:40:41Z</time>
      </trkpt>
      <trkpt lat="44.27385" lon="4.00823">
        <ele>585.1</ele>
        <time>2012-06-17T13:40:42Z</time>
      </trkpt>
      <trkpt lat="44.27384" lon="4.00825">
        <ele>585.58</ele>
        <time>2012-06-17T13:40:43Z</time>
      </trkpt>
      <trkpt lat="44.27383" lon="4.00828">
        <ele>585.1</ele>
        <time>2012-06-17T13:40:44Z</time>
      </trkpt>
      <trkpt lat="44.27382" lon="4.00831">
        <ele>585.1</ele>
        <time>2012-06-17T13:40:45Z</time>
      </trkpt>
      <trkpt lat="44.27381" lon="4.00833">
        <ele>585.1</ele>
        <time>2012-06-17T13:40:46Z</time>
      </trkpt>
      <trkpt lat="44.2738" lon="4.00836">
        <ele>586.06</ele>
        <time>2012-06-17T13:40:47Z</time>
      </trkpt>
      <trkpt lat="44.27378" lon="4.00839">
        <ele>585.58</ele>
        <time>2012-06-17T13:40:48Z</time>
      </trkpt>
      <trkpt lat="44.27377" lon="4.00843">
        <ele>585.58</ele>
        <time>2012-06-17T13:40:49Z</time>
      </trkpt>
      <trkpt lat="44.27375" lon="4.00846">
        <ele>585.58</ele>
        <time>2012-06-17T13:40:50Z</time>
      </trkpt>
      <trkpt lat="44.27353" lon="4.00899">
        <ele>585.1</ele>
        <time>2012-06-17T13:41:03Z</time>
      </trkpt>
      <trkpt lat="44.27347" lon="4.00922">
        <ele>585.58</ele>
        <time>2012-06-17T13:41:09Z</time>
      </trkpt>
      <trkpt lat="44.27342" lon="4.00928">
        <ele>585.58</ele>
        <time>2012-06-17T13:41:11Z</time>
      </trkpt>
      <trkpt lat="44.27341" lon="4.00932">
        <ele>585.58</ele>
        <time>2012-06-17T13:41:12Z</time>
      </trkpt>
      <trkpt lat="44.2734" lon="4.00936">
        <ele>585.58</ele>
        <time>2012-06-17T13:41:13Z</time>
      </trkpt>
      <trkpt lat="44.27317" lon="4.0097">
        <ele>585.1</ele>
        <time>2012-06-17T13:41:22Z</time>
      </trkpt>
      <trkpt lat="44.27307" lon="4.00982">
        <ele>584.62</ele>
        <time>2012-06-17T13:41:25Z</time>
      </trkpt>
      <trkpt lat="44.27302" lon="4.00991">
        <ele>584.14</ele>
        <time>2012-06-17T13:41:27Z</time>
      </trkpt>
      <trkpt lat="44.2728" lon="4.01051">
        <ele>585.58</ele>
        <time>2012-06-17T13:41:39Z</time>
      </trkpt>
      <trkpt lat="44.27279" lon="4.01056">
        <ele>585.58</ele>
        <time>2012-06-17T13:41:40Z</time>
      </trkpt>
      <trkpt lat="44.27277" lon="4.01061">
        <ele>585.58</ele>
        <time>2012-06-17T13:41:41Z</time>
      </trkpt>
      <trkpt lat="44.27275" lon="4.01066">
        <ele>585.58</ele>
        <time>2012-06-17T13:41:42Z</time>
      </trkpt>
      <trkpt lat="44.27273" lon="4.01071">
        <ele>585.58</ele>
        <time>2012-06-17T13:41:43Z</time>
      </trkpt>
      <trkpt lat="44.27271" lon="4.01076">
        <ele>586.06</ele>
        <time>2012-06-17T13:41:44Z</time>
      </trkpt>
      <trkpt lat="44.27269" lon="4.01082">
        <ele>586.06</ele>
        <time>2012-06-17T13:41:45Z</time>
      </trkpt>
      <trkpt lat="44.27267" lon="4.01087">
        <ele>585.58</ele>
        <time>2012-06-17T13:41:46Z</time>
      </trkpt>
      <trkpt lat="44.27263" lon="4.01097">
        <ele>585.58</ele>
        <time>2012-06-17T13:41:48Z</time>
      </trkpt>
      <trkpt lat="44.27261" lon="4.01101">
        <ele>586.06</ele>
        <time>2012-06-17T13:41:49Z</time>
      </trkpt>
      <trkpt lat="44.27259" lon="4.01106">
        <ele>585.58</ele>
        <time>2012-06-17T13:41:50Z</time>
      </trkpt>
      <trkpt lat="44.27257" lon="4.01111">
        <ele>585.58</ele>
        <time>2012-06-17T13:41:51Z</time>
      </trkpt>
      <trkpt lat="44.27256" lon="4.01116">
        <ele>586.06</ele>
        <time>2012-06-17T13:41:52Z</time>
      </trkpt>
      <trkpt lat="44.27252" lon="4.01127">
        <ele>585.1</ele>
        <time>2012-06-17T13:41:54Z</time>
      </trkpt>
      <trkpt lat="44.27235" lon="4.01176">
        <ele>584.14</ele>
        <time>2012-06-17T13:42:03Z</time>
      </trkpt>
      <trkpt lat="44.27226" lon="4.01208">
        <ele>583.66</ele>
        <time>2012-06-17T13:42:09Z</time>
      </trkpt>
      <trkpt lat="44.27225" lon="4.01214">
        <ele>583.66</ele>
        <time>2012-06-17T13:42:10Z</time>
      </trkpt>
      <trkpt lat="44.2722" lon="4.01236">
        <ele>584.62</ele>
        <time>2012-06-17T13:42:14Z</time>
      </trkpt>
      <trkpt lat="44.27219" lon="4.01241">
        <ele>584.62</ele>
        <time>2012-06-17T13:42:15Z</time>
      </trkpt>
      <trkpt lat="44.27217" lon="4.01247">
        <ele>585.1</ele>
        <time>2012-06-17T13:42:16Z</time>
      </trkpt>
      <trkpt lat="44.27215" lon="4.01252">
        <ele>585.1</ele>
        <time>2012-06-17T13:42:17Z</time>
      </trkpt>
      <trkpt lat="44.27214" lon="4.01257">
        <ele>585.1</ele>
        <time>2012-06-17T13:42:18Z</time>
      </trkpt>
      <trkpt lat="44.27213" lon="4.01262">
        <ele>585.58</ele>
        <time>2012-06-17T13:42:19Z</time>
      </trkpt>
      <trkpt lat="44.27199" lon="4.01308">
        <ele>587.5</ele>
        <time>2012-06-17T13:42:30Z</time>
      </trkpt>
      <trkpt lat="44.27183" lon="4.0135">
        <ele>588.46</ele>
        <time>2012-06-17T13:42:41Z</time>
      </trkpt>
      <trkpt lat="44.27164" lon="4.01399">
        <ele>589.91</ele>
        <time>2012-06-17T13:42:55Z</time>
      </trkpt>
      <trkpt lat="44.27156" lon="4.01422">
        <ele>590.39</ele>
        <time>2012-06-17T13:43:01Z</time>
      </trkpt>
      <trkpt lat="44.27155" lon="4.01427">
        <ele>590.87</ele>
        <time>2012-06-17T13:43:02Z</time>
      </trkpt>
      <trkpt lat="44.27136" lon="4.01464">
        <ele>593.27</ele>
        <time>2012-06-17T13:43:14Z</time>
      </trkpt>
      <trkpt lat="44.27117" lon="4.01487">
        <ele>594.71</ele>
        <time>2012-06-17T13:43:24Z</time>
      </trkpt>
      <trkpt lat="44.27098" lon="4.01523">
        <ele>594.23</ele>
        <time>2012-06-17T13:43:34Z</time>
      </trkpt>
      <trkpt lat="44.27094" lon="4.01526">
        <ele>593.75</ele>
        <time>2012-06-17T13:43:35Z</time>
      </trkpt>
      <trkpt lat="44.2709" lon="4.01529">
        <ele>593.27</ele>
        <time>2012-06-17T13:43:36Z</time>
      </trkpt>
      <trkpt lat="44.27068" lon="4.01547">
        <ele>592.79</ele>
        <time>2012-06-17T13:43:41Z</time>
      </trkpt>
      <trkpt lat="44.27063" lon="4.01552">
        <ele>592.31</ele>
        <time>2012-06-17T13:43:42Z</time>
      </trkpt>
      <trkpt lat="44.27059" lon="4.01557">
        <ele>592.31</ele>
        <time>2012-06-17T13:43:43Z</time>
      </trkpt>
      <trkpt lat="44.27055" lon="4.01563">
        <ele>591.35</ele>
        <time>2012-06-17T13:43:44Z</time>
      </trkpt>
      <trkpt lat="44.27051" lon="4.01569">
        <ele>591.35</ele>
        <time>2012-06-17T13:43:45Z</time>
      </trkpt>
      <trkpt lat="44.27027" lon="4.01604">
        <ele>589.43</ele>
        <time>2012-06-17T13:43:50Z</time>
      </trkpt>
      <trkpt lat="44.27001" lon="4.01644">
        <ele>586.54</ele>
        <time>2012-06-17T13:43:55Z</time>
      </trkpt>
      <trkpt lat="44.26994" lon="4.01648">
        <ele>586.06</ele>
        <time>2012-06-17T13:43:56Z</time>
      </trkpt>
      <trkpt lat="44.26987" lon="4.0165">
        <ele>585.58</ele>
        <time>2012-06-17T13:43:57Z</time>
      </trkpt>
      <trkpt lat="44.2698" lon="4.0165">
        <ele>584.62</ele>
        <time>2012-06-17T13:43:58Z</time>
      </trkpt>
      <trkpt lat="44.26973" lon="4.01648">
        <ele>584.62</ele>
        <time>2012-06-17T13:43:59Z</time>
      </trkpt>
      <trkpt lat="44.26966" lon="4.01648">
        <ele>584.14</ele>
        <time>2012-06-17T13:44:00Z</time>
      </trkpt>
      <trkpt lat="44.2696" lon="4.0165">
        <ele>582.7</ele>
        <time>2012-06-17T13:44:01Z</time>
      </trkpt>
      <trkpt lat="44.26954" lon="4.01653">
        <ele>582.7</ele>
        <time>2012-06-17T13:44:02Z</time>
      </trkpt>
      <trkpt lat="44.26948" lon="4.01658">
        <ele>582.22</ele>
        <time>2012-06-17T13:44:03Z</time>
      </trkpt>
      <trkpt lat="44.26944" lon="4.01664">
        <ele>581.73</ele>
        <time>2012-06-17T13:44:04Z</time>
      </trkpt>
      <trkpt lat="44.2694" lon="4.01671">
        <ele>582.7</ele>
        <time>2012-06-17T13:44:05Z</time>
      </trkpt>
      <trkpt lat="44.26938" lon="4.01678">
        <ele>582.22</ele>
        <time>2012-06-17T13:44:06Z</time>
      </trkpt>
      <trkpt lat="44.26935" lon="4.01685">
        <ele>581.73</ele>
        <time>2012-06-17T13:44:07Z</time>
      </trkpt>
      <trkpt lat="44.26932" lon="4.01691">
        <ele>581.25</ele>
        <time>2012-06-17T13:44:08Z</time>
      </trkpt>
      <trkpt lat="44.26928" lon="4.01696">
        <ele>581.25</ele>
        <time>2012-06-17T13:44:09Z</time>
      </trkpt>
      <trkpt lat="44.26924" lon="4.01701">
        <ele>581.25</ele>
        <time>2012-06-17T13:44:10Z</time>
      </trkpt>
      <trkpt lat="44.26918" lon="4.01711">
        <ele>581.73</ele>
        <time>2012-06-17T13:44:12Z</time>
      </trkpt>
      <trkpt lat="44.26915" lon="4.01716">
        <ele>581.73</ele>
        <time>2012-06-17T13:44:13Z</time>
      </trkpt>
      <trkpt lat="44.26913" lon="4.01722">
        <ele>581.73</ele>
        <time>2012-06-17T13:44:14Z</time>
      </trkpt>
      <trkpt lat="44.26913" lon="4.01728">
        <ele>582.22</ele>
        <time>2012-06-17T13:44:15Z</time>
      </trkpt>
      <trkpt lat="44.26912" lon="4.01733">
        <ele>582.22</ele>
        <time>2012-06-17T13:44:16Z</time>
      </trkpt>
      <trkpt lat="44.26907" lon="4.01796">
        <ele>584.62</ele>
        <time>2012-06-17T13:44:28Z</time>
      </trkpt>
      <trkpt lat="44.26903" lon="4.01823">
        <ele>585.1</ele>
        <time>2012-06-17T13:44:34Z</time>
      </trkpt>
      <trkpt lat="44.26904" lon="4.01828">
        <ele>585.1</ele>
        <time>2012-06-17T13:44:35Z</time>
      </trkpt>
      <trkpt lat="44.26905" lon="4.01883">
        <ele>586.06</ele>
        <time>2012-06-17T13:44:47Z</time>
      </trkpt>
      <trkpt lat="44.26906" lon="4.01946">
        <ele>586.54</ele>
        <time>2012-06-17T13:45:00Z</time>
      </trkpt>
      <trkpt lat="44.26917" lon="4.02002">
        <ele>585.58</ele>
        <time>2012-06-17T13:45:11Z</time>
      </trkpt>
      <trkpt lat="44.26918" lon="4.02008">
        <ele>585.1</ele>
        <time>2012-06-17T13:45:12Z</time>
      </trkpt>
      <trkpt lat="44.2692" lon="4.02014">
        <ele>585.58</ele>
        <time>2012-06-17T13:45:13Z</time>
      </trkpt>
      <trkpt lat="44.26929" lon="4.02059">
        <ele>584.62</ele>
        <time>2012-06-17T13:45:20Z</time>
      </trkpt>
      <trkpt lat="44.26933" lon="4.02073">
        <ele>585.1</ele>
        <time>2012-06-17T13:45:22Z</time>
      </trkpt>
      <trkpt lat="44.26934" lon="4.02079">
        <ele>585.1</ele>
        <time>2012-06-17T13:45:23Z</time>
      </trkpt>
      <trkpt lat="44.26944" lon="4.0216">
        <ele>581.73</ele>
        <time>2012-06-17T13:45:35Z</time>
      </trkpt>
      <trkpt lat="44.26944" lon="4.02167">
        <ele>581.25</ele>
        <time>2012-06-17T13:45:36Z</time>
      </trkpt>
      <trkpt lat="44.26944" lon="4.02175">
        <ele>580.77</ele>
        <time>2012-06-17T13:45:37Z</time>
      </trkpt>
      <trkpt lat="44.26943" lon="4.02184">
        <ele>580.77</ele>
        <time>2012-06-17T13:45:38Z</time>
      </trkpt>
      <trkpt lat="44.26939" lon="4.02202">
        <ele>578.85</ele>
        <time>2012-06-17T13:45:40Z</time>
      </trkpt>
      <trkpt lat="44.26936" lon="4.02211">
        <ele>578.37</ele>
        <time>2012-06-17T13:45:41Z</time>
      </trkpt>
      <trkpt lat="44.26917" lon="4.02256">
        <ele>575.01</ele>
        <time>2012-06-17T13:45:45Z</time>
      </trkpt>
      <trkpt lat="44.269" lon="4.0231">
        <ele>571.64</ele>
        <time>2012-06-17T13:45:49Z</time>
      </trkpt>
      <trkpt lat="44.26882" lon="4.02352">
        <ele>568.28</ele>
        <time>2012-06-17T13:45:52Z</time>
      </trkpt>
      <trkpt lat="44.26876" lon="4.02366">
        <ele>567.8</ele>
        <time>2012-06-17T13:45:53Z</time>
      </trkpt>
      <trkpt lat="44.26859" lon="4.02413">
        <ele>564.43</ele>
        <time>2012-06-17T13:45:57Z</time>
      </trkpt>
      <trkpt lat="44.26854" lon="4.0243">
        <ele>562.99</ele>
        <time>2012-06-17T13:45:59Z</time>
      </trkpt>
      <trkpt lat="44.26853" lon="4.02437">
        <ele>562.03</ele>
        <time>2012-06-17T13:46:00Z</time>
      </trkpt>
      <trkpt lat="44.26852" lon="4.02442">
        <ele>560.59</ele>
        <time>2012-06-17T13:46:01Z</time>
      </trkpt>
      <trkpt lat="44.26853" lon="4.02447">
        <ele>559.62</ele>
        <time>2012-06-17T13:46:02Z</time>
      </trkpt>
      <trkpt lat="44.26853" lon="4.0245">
        <ele>559.62</ele>
        <time>2012-06-17T13:46:03Z</time>
      </trkpt>
      <trkpt lat="44.26853" lon="4.02452">
        <ele>559.62</ele>
        <time>2012-06-17T13:46:04Z</time>
      </trkpt>
      <trkpt lat="44.26853" lon="4.02454">
        <ele>559.14</ele>
        <time>2012-06-17T13:46:05Z</time>
      </trkpt>
      <trkpt lat="44.26852" lon="4.02456">
        <ele>558.66</ele>
        <time>2012-06-17T13:46:06Z</time>
      </trkpt>
      <trkpt lat="44.2685" lon="4.02458">
        <ele>558.66</ele>
        <time>2012-06-17T13:46:07Z</time>
      </trkpt>
      <trkpt lat="44.26849" lon="4.0246">
        <ele>559.14</ele>
        <time>2012-06-17T13:46:08Z</time>
      </trkpt>
      <trkpt lat="44.26847" lon="4.02461">
        <ele>559.14</ele>
        <time>2012-06-17T13:46:09Z</time>
      </trkpt>
      <trkpt lat="44.26844" lon="4.02463">
        <ele>559.14</ele>
        <time>2012-06-17T13:46:10Z</time>
      </trkpt>
      <trkpt lat="44.26842" lon="4.02465">
        <ele>559.14</ele>
        <time>2012-06-17T13:46:11Z</time>
      </trkpt>
      <trkpt lat="44.26817" lon="4.02487">
        <ele>559.62</ele>
        <time>2012-06-17T13:46:22Z</time>
      </trkpt>
      <trkpt lat="44.26807" lon="4.02524">
        <ele>559.62</ele>
        <time>2012-06-17T13:46:31Z</time>
      </trkpt>
      <trkpt lat="44.26803" lon="4.02544">
        <ele>559.14</ele>
        <time>2012-06-17T13:46:40Z</time>
      </trkpt>
      <trkpt lat="44.26802" lon="4.02547">
        <ele>559.62</ele>
        <time>2012-06-17T13:46:57Z</time>
      </trkpt>
      <trkpt lat="44.26802" lon="4.02547">
        <ele>559.14</ele>
        <time>2012-06-17T13:47:29Z</time>
      </trkpt>
      <trkpt lat="44.26803" lon="4.02547">
        <ele>559.14</ele>
        <time>2012-06-17T13:47:57Z</time>
      </trkpt>
      <trkpt lat="44.26804" lon="4.0255">
        <ele>559.14</ele>
        <time>2012-06-17T13:48:31Z</time>
      </trkpt>
      <trkpt lat="44.26804" lon="4.02549">
        <ele>559.62</ele>
        <time>2012-06-17T13:49:09Z</time>
      </trkpt>
      <trkpt lat="44.26803" lon="4.02549">
        <ele>559.14</ele>
        <time>2012-06-17T13:49:46Z</time>
      </trkpt>
      <trkpt lat="44.26802" lon="4.02551">
        <ele>559.62</ele>
        <time>2012-06-17T13:50:22Z</time>
      </trkpt>
      <trkpt lat="44.26802" lon="4.0255">
        <ele>559.62</ele>
        <time>2012-06-17T13:51:00Z</time>
      </trkpt>
      <trkpt lat="44.26802" lon="4.02551">
        <ele>559.14</ele>
        <time>2012-06-17T13:51:33Z</time>
      </trkpt>
      <trkpt lat="44.26803" lon="4.02552">
        <ele>559.62</ele>
        <time>2012-06-17T13:52:10Z</time>
      </trkpt>
      <trkpt lat="44.26804" lon="4.02555">
        <ele>559.14</ele>
        <time>2012-06-17T13:52:43Z</time>
      </trkpt>
      <trkpt lat="44.26804" lon="4.02557">
        <ele>559.14</ele>
        <time>2012-06-17T13:53:17Z</time>
      </trkpt>
      <trkpt lat="44.26804" lon="4.02552">
        <ele>559.14</ele>
        <time>2012-06-17T13:53:54Z</time>
      </trkpt>
      <trkpt lat="44.26803" lon="4.02549">
        <ele>559.62</ele>
        <time>2012-06-17T13:54:31Z</time>
      </trkpt>
      <trkpt lat="44.26803" lon="4.02548">
        <ele>560.11</ele>
        <time>2012-06-17T13:55:09Z</time>
      </trkpt>
      <trkpt lat="44.26803" lon="4.02549">
        <ele>559.14</ele>
        <time>2012-06-17T13:55:43Z</time>
      </trkpt>
      <trkpt lat="44.26803" lon="4.0255">
        <ele>559.14</ele>
        <time>2012-06-17T13:56:17Z</time>
      </trkpt>
      <trkpt lat="44.26803" lon="4.0255">
        <ele>559.14</ele>
        <time>2012-06-17T13:56:54Z</time>
      </trkpt>
      <trkpt lat="44.26804" lon="4.02549">
        <ele>559.14</ele>
        <time>2012-06-17T13:57:36Z</time>
      </trkpt>
      <trkpt lat="44.26802" lon="4.0255">
        <ele>559.14</ele>
        <time>2012-06-17T13:58:13Z</time>
      </trkpt>
      <trkpt lat="44.26803" lon="4.02548">
        <ele>558.66</ele>
        <time>2012-06-17T13:58:49Z</time>
      </trkpt>
      <trkpt lat="44.26804" lon="4.02548">
        <ele>559.14</ele>
        <time>2012-06-17T13:59:23Z</time>
      </trkpt>
      <trkpt lat="44.26803" lon="4.02548">
        <ele>559.14</ele>
        <time>2012-06-17T13:59:39Z</time>
      </trkpt>
      <trkpt lat="44.26803" lon="4.02548">
        <ele>559.14</ele>
        <time>2012-06-17T14:00:04Z</time>
      </trkpt>
      <trkpt lat="44.26805" lon="4.02542">
        <ele>558.66</ele>
        <time>2012-06-17T14:00:24Z</time>
      </trkpt>
      <trkpt lat="44.26806" lon="4.02537">
        <ele>558.66</ele>
        <time>2012-06-17T14:00:54Z</time>
      </trkpt>
      <trkpt lat="44.26806" lon="4.02536">
        <ele>558.66</ele>
        <time>2012-06-17T14:00:55Z</time>
      </trkpt>
      <trkpt lat="44.26806" lon="4.02532">
        <ele>558.66</ele>
        <time>2012-06-17T14:00:57Z</time>
      </trkpt>
      <trkpt lat="44.26807" lon="4.02531">
        <ele>558.66</ele>
        <time>2012-06-17T14:00:58Z</time>
      </trkpt>
      <trkpt lat="44.26809" lon="4.0253">
        <ele>558.66</ele>
        <time>2012-06-17T14:00:59Z</time>
      </trkpt>
      <trkpt lat="44.26815" lon="4.02535">
        <ele>558.66</ele>
        <time>2012-06-17T14:01:03Z</time>
      </trkpt>
      <trkpt lat="44.26814" lon="4.02547">
        <ele>559.14</ele>
        <time>2012-06-17T14:01:10Z</time>
      </trkpt>
      <trkpt lat="44.26819" lon="4.02546">
        <ele>558.66</ele>
        <time>2012-06-17T14:01:15Z</time>
      </trkpt>
      <trkpt lat="44.26817" lon="4.02536">
        <ele>558.18</ele>
        <time>2012-06-17T14:01:20Z</time>
      </trkpt>
      <trkpt lat="44.26817" lon="4.02531">
        <ele>558.66</ele>
        <time>2012-06-17T14:01:22Z</time>
      </trkpt>
      <trkpt lat="44.26811" lon="4.02523">
        <ele>558.66</ele>
        <time>2012-06-17T14:01:29Z</time>
      </trkpt>
      <trkpt lat="44.26813" lon="4.02513">
        <ele>558.66</ele>
        <time>2012-06-17T14:01:33Z</time>
      </trkpt>
      <trkpt lat="44.268" lon="4.0249">
        <ele>560.59</ele>
        <time>2012-06-17T14:01:42Z</time>
      </trkpt>
      <trkpt lat="44.26785" lon="4.02482">
        <ele>561.55</ele>
        <time>2012-06-17T14:01:49Z</time>
      </trkpt>
      <trkpt lat="44.2676" lon="4.0246">
        <ele>565.39</ele>
        <time>2012-06-17T14:02:03Z</time>
      </trkpt>
      <trkpt lat="44.26741" lon="4.02431">
        <ele>567.32</ele>
        <time>2012-06-17T14:02:16Z</time>
      </trkpt>
      <trkpt lat="44.26719" lon="4.02396">
        <ele>566.35</ele>
        <time>2012-06-17T14:02:26Z</time>
      </trkpt>
      <trkpt lat="44.26691" lon="4.02357">
        <ele>568.28</ele>
        <time>2012-06-17T14:02:38Z</time>
      </trkpt>
      <trkpt lat="44.26681" lon="4.02346">
        <ele>568.28</ele>
        <time>2012-06-17T14:02:45Z</time>
      </trkpt>
      <trkpt lat="44.26652" lon="4.02313">
        <ele>567.32</ele>
        <time>2012-06-17T14:02:57Z</time>
      </trkpt>
      <trkpt lat="44.26619" lon="4.0226">
        <ele>565.87</ele>
        <time>2012-06-17T14:03:11Z</time>
      </trkpt>
      <trkpt lat="44.26604" lon="4.022">
        <ele>567.8</ele>
        <time>2012-06-17T14:03:25Z</time>
      </trkpt>
      <trkpt lat="44.26603" lon="4.02174">
        <ele>567.32</ele>
        <time>2012-06-17T14:03:31Z</time>
      </trkpt>
      <trkpt lat="44.26605" lon="4.0214">
        <ele>566.35</ele>
        <time>2012-06-17T14:03:36Z</time>
      </trkpt>
      <trkpt lat="44.26604" lon="4.02127">
        <ele>566.35</ele>
        <time>2012-06-17T14:03:38Z</time>
      </trkpt>
      <trkpt lat="44.26594" lon="4.02039">
        <ele>563.95</ele>
        <time>2012-06-17T14:03:48Z</time>
      </trkpt>
      <trkpt lat="44.26596" lon="4.02003">
        <ele>562.51</ele>
        <time>2012-06-17T14:03:51Z</time>
      </trkpt>
      <trkpt lat="44.26599" lon="4.01979">
        <ele>560.59</ele>
        <time>2012-06-17T14:03:53Z</time>
      </trkpt>
      <trkpt lat="44.26601" lon="4.01957">
        <ele>560.11</ele>
        <time>2012-06-17T14:03:55Z</time>
      </trkpt>
      <trkpt lat="44.266" lon="4.01947">
        <ele>560.11</ele>
        <time>2012-06-17T14:03:56Z</time>
      </trkpt>
      <trkpt lat="44.26598" lon="4.01937">
        <ele>560.59</ele>
        <time>2012-06-17T14:03:57Z</time>
      </trkpt>
      <trkpt lat="44.26594" lon="4.01927">
        <ele>559.14</ele>
        <time>2012-06-17T14:03:58Z</time>
      </trkpt>
      <trkpt lat="44.26589" lon="4.01918">
        <ele>558.66</ele>
        <time>2012-06-17T14:03:59Z</time>
      </trkpt>
      <trkpt lat="44.26583" lon="4.0191">
        <ele>558.18</ele>
        <time>2012-06-17T14:04:00Z</time>
      </trkpt>
      <trkpt lat="44.26577" lon="4.01901">
        <ele>557.22</ele>
        <time>2012-06-17T14:04:01Z</time>
      </trkpt>
      <trkpt lat="44.2657" lon="4.01894">
        <ele>556.74</ele>
        <time>2012-06-17T14:04:02Z</time>
      </trkpt>
      <trkpt lat="44.26564" lon="4.01886">
        <ele>556.26</ele>
        <time>2012-06-17T14:04:03Z</time>
      </trkpt>
      <trkpt lat="44.26552" lon="4.01869">
        <ele>556.26</ele>
        <time>2012-06-17T14:04:05Z</time>
      </trkpt>
      <trkpt lat="44.26545" lon="4.01865">
        <ele>556.26</ele>
        <time>2012-06-17T14:04:06Z</time>
      </trkpt>
      <trkpt lat="44.26538" lon="4.01862">
        <ele>556.26</ele>
        <time>2012-06-17T14:04:07Z</time>
      </trkpt>
      <trkpt lat="44.26531" lon="4.0186">
        <ele>556.74</ele>
        <time>2012-06-17T14:04:08Z</time>
      </trkpt>
      <trkpt lat="44.26526" lon="4.01857">
        <ele>556.74</ele>
        <time>2012-06-17T14:04:09Z</time>
      </trkpt>
      <trkpt lat="44.2652" lon="4.01855">
        <ele>556.74</ele>
        <time>2012-06-17T14:04:10Z</time>
      </trkpt>
      <trkpt lat="44.26484" lon="4.01827">
        <ele>557.22</ele>
        <time>2012-06-17T14:04:18Z</time>
      </trkpt>
      <trkpt lat="44.26479" lon="4.01824">
        <ele>557.22</ele>
        <time>2012-06-17T14:04:19Z</time>
      </trkpt>
      <trkpt lat="44.26475" lon="4.01819">
        <ele>556.74</ele>
        <time>2012-06-17T14:04:20Z</time>
      </trkpt>
      <trkpt lat="44.2647" lon="4.01815">
        <ele>557.7</ele>
        <time>2012-06-17T14:04:21Z</time>
      </trkpt>
      <trkpt lat="44.26465" lon="4.01811">
        <ele>558.66</ele>
        <time>2012-06-17T14:04:22Z</time>
      </trkpt>
      <trkpt lat="44.2646" lon="4.01809">
        <ele>559.62</ele>
        <time>2012-06-17T14:04:23Z</time>
      </trkpt>
      <trkpt lat="44.26455" lon="4.01807">
        <ele>559.62</ele>
        <time>2012-06-17T14:04:24Z</time>
      </trkpt>
      <trkpt lat="44.26404" lon="4.01786">
        <ele>559.14</ele>
        <time>2012-06-17T14:04:37Z</time>
      </trkpt>
      <trkpt lat="44.26397" lon="4.0178">
        <ele>559.14</ele>
        <time>2012-06-17T14:04:49Z</time>
      </trkpt>
      <trkpt lat="44.26396" lon="4.01778">
        <ele>559.62</ele>
        <time>2012-06-17T14:05:00Z</time>
      </trkpt>
      <trkpt lat="44.26395" lon="4.0178">
        <ele>559.14</ele>
        <time>2012-06-17T14:05:10Z</time>
      </trkpt>
      <trkpt lat="44.26395" lon="4.0178">
        <ele>559.62</ele>
        <time>2012-06-17T14:05:12Z</time>
      </trkpt>
      <trkpt lat="44.26399" lon="4.01783">
        <ele>559.62</ele>
        <time>2012-06-17T14:05:27Z</time>
      </trkpt>
      <trkpt lat="44.26399" lon="4.01782">
        <ele>559.62</ele>
        <time>2012-06-17T14:05:48Z</time>
      </trkpt>
      <trkpt lat="44.26397" lon="4.01778">
        <ele>559.62</ele>
        <time>2012-06-17T14:06:09Z</time>
      </trkpt>
      <trkpt lat="44.26397" lon="4.01778">
        <ele>558.66</ele>
        <time>2012-06-17T14:06:40Z</time>
      </trkpt>
      <trkpt lat="44.26397" lon="4.01778">
        <ele>559.14</ele>
        <time>2012-06-17T14:07:14Z</time>
      </trkpt>
      <trkpt lat="44.26397" lon="4.01779">
        <ele>559.14</ele>
        <time>2012-06-17T14:07:45Z</time>
      </trkpt>
      <trkpt lat="44.26396" lon="4.0178">
        <ele>558.66</ele>
        <time>2012-06-17T14:08:20Z</time>
      </trkpt>
      <trkpt lat="44.26397" lon="4.0178">
        <ele>558.66</ele>
        <time>2012-06-17T14:08:56Z</time>
      </trkpt>
      <trkpt lat="44.26397" lon="4.01778">
        <ele>558.66</ele>
        <time>2012-06-17T14:09:32Z</time>
      </trkpt>
      <trkpt lat="44.26397" lon="4.01778">
        <ele>558.66</ele>
        <time>2012-06-17T14:10:09Z</time>
      </trkpt>
      <trkpt lat="44.26396" lon="4.01778">
        <ele>558.18</ele>
        <time>2012-06-17T14:10:47Z</time>
      </trkpt>
      <trkpt lat="44.26397" lon="4.01779">
        <ele>558.18</ele>
        <time>2012-06-17T14:11:27Z</time>
      </trkpt>
      <trkpt lat="44.26398" lon="4.01778">
        <ele>557.7</ele>
        <time>2012-06-17T14:12:08Z</time>
      </trkpt>
      <trkpt lat="44.26398" lon="4.01778">
        <ele>558.18</ele>
        <time>2012-06-17T14:12:47Z</time>
      </trkpt>
      <trkpt lat="44.26398" lon="4.01777">
        <ele>558.18</ele>
        <time>2012-06-17T14:13:28Z</time>
      </trkpt>
      <trkpt lat="44.26398" lon="4.01777">
        <ele>557.7</ele>
        <time>2012-06-17T14:14:05Z</time>
      </trkpt>
      <trkpt lat="44.26397" lon="4.01778">
        <ele>557.7</ele>
        <time>2012-06-17T14:14:45Z</time>
      </trkpt>
      <trkpt lat="44.26398" lon="4.01778">
        <ele>557.7</ele>
        <time>2012-06-17T14:15:32Z</time>
      </trkpt>
      <trkpt lat="44.26398" lon="4.01778">
        <ele>557.7</ele>
        <time>2012-06-17T14:16:09Z</time>
      </trkpt>
      <trkpt lat="44.26397" lon="4.01777">
        <ele>557.7</ele>
        <time>2012-06-17T14:16:24Z</time>
      </trkpt>
      <trkpt lat="44.26396" lon="4.01778">
        <ele>558.18</ele>
        <time>2012-06-17T14:16:46Z</time>
      </trkpt>
      <trkpt lat="44.26396" lon="4.01778">
        <ele>558.18</ele>
        <time>2012-06-17T14:16:47Z</time>
      </trkpt>
      <trkpt lat="44.26393" lon="4.01774">
        <ele>558.18</ele>
        <time>2012-06-17T14:16:51Z</time>
      </trkpt>
      <trkpt lat="44.26372" lon="4.01751">
        <ele>557.7</ele>
        <time>2012-06-17T14:17:01Z</time>
      </trkpt>
      <trkpt lat="44.26368" lon="4.01751">
        <ele>557.7</ele>
        <time>2012-06-17T14:17:02Z</time>
      </trkpt>
      <trkpt lat="44.26364" lon="4.01752">
        <ele>557.7</ele>
        <time>2012-06-17T14:17:03Z</time>
      </trkpt>
      <trkpt lat="44.26359" lon="4.01754">
        <ele>557.7</ele>
        <time>2012-06-17T14:17:04Z</time>
      </trkpt>
      <trkpt lat="44.26355" lon="4.01756">
        <ele>557.7</ele>
        <time>2012-06-17T14:17:05Z</time>
      </trkpt>
      <trkpt lat="44.26351" lon="4.01758">
        <ele>557.7</ele>
        <time>2012-06-17T14:17:06Z</time>
      </trkpt>
      <trkpt lat="44.26323" lon="4.01797">
        <ele>558.66</ele>
        <time>2012-06-17T14:17:17Z</time>
      </trkpt>
      <trkpt lat="44.26322" lon="4.01799">
        <ele>558.66</ele>
        <time>2012-06-17T14:17:18Z</time>
      </trkpt>
      <trkpt lat="44.2632" lon="4.01801">
        <ele>558.66</ele>
        <time>2012-06-17T14:17:19Z</time>
      </trkpt>
      <trkpt lat="44.26318" lon="4.01802">
        <ele>559.14</ele>
        <time>2012-06-17T14:17:20Z</time>
      </trkpt>
      <trkpt lat="44.26315" lon="4.01803">
        <ele>559.62</ele>
        <time>2012-06-17T14:17:21Z</time>
      </trkpt>
      <trkpt lat="44.26312" lon="4.01801">
        <ele>560.11</ele>
        <time>2012-06-17T14:17:22Z</time>
      </trkpt>
      <trkpt lat="44.26309" lon="4.018">
        <ele>560.11</ele>
        <time>2012-06-17T14:17:23Z</time>
      </trkpt>
      <trkpt lat="44.26306" lon="4.01799">
        <ele>560.59</ele>
        <time>2012-06-17T14:17:24Z</time>
      </trkpt>
      <trkpt lat="44.26303" lon="4.01798">
        <ele>561.07</ele>
        <time>2012-06-17T14:17:25Z</time>
      </trkpt>
      <trkpt lat="44.263" lon="4.01797">
        <ele>561.07</ele>
        <time>2012-06-17T14:17:26Z</time>
      </trkpt>
      <trkpt lat="44.26298" lon="4.01796">
        <ele>561.07</ele>
        <time>2012-06-17T14:17:27Z</time>
      </trkpt>
      <trkpt lat="44.26275" lon="4.01781">
        <ele>563.95</ele>
        <time>2012-06-17T14:17:38Z</time>
      </trkpt>
      <trkpt lat="44.26253" lon="4.01781">
        <ele>564.43</ele>
        <time>2012-06-17T14:17:50Z</time>
      </trkpt>
      <trkpt lat="44.26226" lon="4.01781">
        <ele>566.35</ele>
        <time>2012-06-17T14:18:03Z</time>
      </trkpt>
      <trkpt lat="44.2619" lon="4.01762">
        <ele>568.28</ele>
        <time>2012-06-17T14:18:18Z</time>
      </trkpt>
      <trkpt lat="44.26162" lon="4.01745">
        <ele>568.76</ele>
        <time>2012-06-17T14:18:30Z</time>
      </trkpt>
      <trkpt lat="44.26136" lon="4.01731">
        <ele>570.68</ele>
        <time>2012-06-17T14:18:41Z</time>
      </trkpt>
      <trkpt lat="44.26101" lon="4.01724">
        <ele>573.08</ele>
        <time>2012-06-17T14:18:54Z</time>
      </trkpt>
      <trkpt lat="44.26075" lon="4.0173">
        <ele>574.53</ele>
        <time>2012-06-17T14:19:05Z</time>
      </trkpt>
      <trkpt lat="44.26024" lon="4.01747">
        <ele>574.04</ele>
        <time>2012-06-17T14:19:22Z</time>
      </trkpt>
      <trkpt lat="44.25968" lon="4.01749">
        <ele>575.49</ele>
        <time>2012-06-17T14:19:38Z</time>
      </trkpt>
      <trkpt lat="44.25912" lon="4.01743">
        <ele>575.97</ele>
        <time>2012-06-17T14:19:54Z</time>
      </trkpt>
      <trkpt lat="44.25867" lon="4.01748">
        <ele>576.45</ele>
        <time>2012-06-17T14:20:03Z</time>
      </trkpt>
      <trkpt lat="44.25828" lon="4.0175">
        <ele>579.81</ele>
        <time>2012-06-17T14:20:13Z</time>
      </trkpt>
      <trkpt lat="44.258" lon="4.01748">
        <ele>578.85</ele>
        <time>2012-06-17T14:20:24Z</time>
      </trkpt>
      <trkpt lat="44.25768" lon="4.01758">
        <ele>577.89</ele>
        <time>2012-06-17T14:20:36Z</time>
      </trkpt>
      <trkpt lat="44.25749" lon="4.01771">
        <ele>577.89</ele>
        <time>2012-06-17T14:20:46Z</time>
      </trkpt>
      <trkpt lat="44.25733" lon="4.01779">
        <ele>578.37</ele>
        <time>2012-06-17T14:20:52Z</time>
      </trkpt>
      <trkpt lat="44.25731" lon="4.0178">
        <ele>578.85</ele>
        <time>2012-06-17T14:20:53Z</time>
      </trkpt>
      <trkpt lat="44.25729" lon="4.01781">
        <ele>578.85</ele>
        <time>2012-06-17T14:20:54Z</time>
      </trkpt>
      <trkpt lat="44.25727" lon="4.01782">
        <ele>579.33</ele>
        <time>2012-06-17T14:20:55Z</time>
      </trkpt>
      <trkpt lat="44.25725" lon="4.01783">
        <ele>579.33</ele>
        <time>2012-06-17T14:20:56Z</time>
      </trkpt>
      <trkpt lat="44.25723" lon="4.01784">
        <ele>579.33</ele>
        <time>2012-06-17T14:20:57Z</time>
      </trkpt>
      <trkpt lat="44.25692" lon="4.01792">
        <ele>581.73</ele>
        <time>2012-06-17T14:21:08Z</time>
      </trkpt>
      <trkpt lat="44.25659" lon="4.01799">
        <ele>583.18</ele>
        <time>2012-06-17T14:21:20Z</time>
      </trkpt>
      <trkpt lat="44.25648" lon="4.01804">
        <ele>583.18</ele>
        <time>2012-06-17T14:21:25Z</time>
      </trkpt>
      <trkpt lat="44.25646" lon="4.01805">
        <ele>583.18</ele>
        <time>2012-06-17T14:21:26Z</time>
      </trkpt>
      <trkpt lat="44.25619" lon="4.01814">
        <ele>583.18</ele>
        <time>2012-06-17T14:21:37Z</time>
      </trkpt>
      <trkpt lat="44.25572" lon="4.01811">
        <ele>584.62</ele>
        <time>2012-06-17T14:21:52Z</time>
      </trkpt>
      <trkpt lat="44.25526" lon="4.01787">
        <ele>587.5</ele>
        <time>2012-06-17T14:22:06Z</time>
      </trkpt>
      <trkpt lat="44.25487" lon="4.01762">
        <ele>588.95</ele>
        <time>2012-06-17T14:22:22Z</time>
      </trkpt>
      <trkpt lat="44.25457" lon="4.01741">
        <ele>588.46</ele>
        <time>2012-06-17T14:22:34Z</time>
      </trkpt>
      <trkpt lat="44.25453" lon="4.01739">
        <ele>588.46</ele>
        <time>2012-06-17T14:22:35Z</time>
      </trkpt>
      <trkpt lat="44.25437" lon="4.01729">
        <ele>587.5</ele>
        <time>2012-06-17T14:22:39Z</time>
      </trkpt>
      <trkpt lat="44.25389" lon="4.0172">
        <ele>588.95</ele>
        <time>2012-06-17T14:22:51Z</time>
      </trkpt>
      <trkpt lat="44.25385" lon="4.0172">
        <ele>588.95</ele>
        <time>2012-06-17T14:22:52Z</time>
      </trkpt>
      <trkpt lat="44.25381" lon="4.0172">
        <ele>588.95</ele>
        <time>2012-06-17T14:22:53Z</time>
      </trkpt>
      <trkpt lat="44.25371" lon="4.0172">
        <ele>590.39</ele>
        <time>2012-06-17T14:22:55Z</time>
      </trkpt>
      <trkpt lat="44.2536" lon="4.01721">
        <ele>590.87</ele>
        <time>2012-06-17T14:22:57Z</time>
      </trkpt>
      <trkpt lat="44.25337" lon="4.01723">
        <ele>591.35</ele>
        <time>2012-06-17T14:23:02Z</time>
      </trkpt>
      <trkpt lat="44.25329" lon="4.01724">
        <ele>591.35</ele>
        <time>2012-06-17T14:23:04Z</time>
      </trkpt>
      <trkpt lat="44.25325" lon="4.01727">
        <ele>591.35</ele>
        <time>2012-06-17T14:23:05Z</time>
      </trkpt>
      <trkpt lat="44.25321" lon="4.01731">
        <ele>591.35</ele>
        <time>2012-06-17T14:23:06Z</time>
      </trkpt>
      <trkpt lat="44.25319" lon="4.01737">
        <ele>591.35</ele>
        <time>2012-06-17T14:23:07Z</time>
      </trkpt>
      <trkpt lat="44.25317" lon="4.01741">
        <ele>591.35</ele>
        <time>2012-06-17T14:23:08Z</time>
      </trkpt>
      <trkpt lat="44.25314" lon="4.01744">
        <ele>591.83</ele>
        <time>2012-06-17T14:23:09Z</time>
      </trkpt>
      <trkpt lat="44.25311" lon="4.01746">
        <ele>592.31</ele>
        <time>2012-06-17T14:23:10Z</time>
      </trkpt>
      <trkpt lat="44.25307" lon="4.01747">
        <ele>591.83</ele>
        <time>2012-06-17T14:23:11Z</time>
      </trkpt>
      <trkpt lat="44.25304" lon="4.01745">
        <ele>591.83</ele>
        <time>2012-06-17T14:23:12Z</time>
      </trkpt>
      <trkpt lat="44.25303" lon="4.01742">
        <ele>591.83</ele>
        <time>2012-06-17T14:23:13Z</time>
      </trkpt>
      <trkpt lat="44.25302" lon="4.01739">
        <ele>591.35</ele>
        <time>2012-06-17T14:23:14Z</time>
      </trkpt>
      <trkpt lat="44.25301" lon="4.01736">
        <ele>591.35</ele>
        <time>2012-06-17T14:23:15Z</time>
      </trkpt>
      <trkpt lat="44.25297" lon="4.01734">
        <ele>590.87</ele>
        <time>2012-06-17T14:23:16Z</time>
      </trkpt>
      <trkpt lat="44.25293" lon="4.01733">
        <ele>590.87</ele>
        <time>2012-06-17T14:23:17Z</time>
      </trkpt>
      <trkpt lat="44.25288" lon="4.01732">
        <ele>591.35</ele>
        <time>2012-06-17T14:23:18Z</time>
      </trkpt>
      <trkpt lat="44.2524" lon="4.01728">
        <ele>589.43</ele>
        <time>2012-06-17T14:23:29Z</time>
      </trkpt>
      <trkpt lat="44.25191" lon="4.01725">
        <ele>587.02</ele>
        <time>2012-06-17T14:23:40Z</time>
      </trkpt>
      <trkpt lat="44.25119" lon="4.01726">
        <ele>583.66</ele>
        <time>2012-06-17T14:23:51Z</time>
      </trkpt>
      <trkpt lat="44.25074" lon="4.01725">
        <ele>580.29</ele>
        <time>2012-06-17T14:23:56Z</time>
      </trkpt>
      <trkpt lat="44.25046" lon="4.01728">
        <ele>576.93</ele>
        <time>2012-06-17T14:23:59Z</time>
      </trkpt>
      <trkpt lat="44.25031" lon="4.01728">
        <ele>575.01</ele>
        <time>2012-06-17T14:24:01Z</time>
      </trkpt>
      <trkpt lat="44.24982" lon="4.0172">
        <ele>571.64</ele>
        <time>2012-06-17T14:24:07Z</time>
      </trkpt>
      <trkpt lat="44.24949" lon="4.01716">
        <ele>568.28</ele>
        <time>2012-06-17T14:24:10Z</time>
      </trkpt>
      <trkpt lat="44.24912" lon="4.01713">
        <ele>563.95</ele>
        <time>2012-06-17T14:24:13Z</time>
      </trkpt>
      <trkpt lat="44.2489" lon="4.01712">
        <ele>560.59</ele>
        <time>2012-06-17T14:24:15Z</time>
      </trkpt>
      <trkpt lat="44.24871" lon="4.01707">
        <ele>557.7</ele>
        <time>2012-06-17T14:24:17Z</time>
      </trkpt>
      <trkpt lat="44.24863" lon="4.01702">
        <ele>557.7</ele>
        <time>2012-06-17T14:24:18Z</time>
      </trkpt>
      <trkpt lat="44.24856" lon="4.01695">
        <ele>555.78</ele>
        <time>2012-06-17T14:24:19Z</time>
      </trkpt>
      <trkpt lat="44.24851" lon="4.01685">
        <ele>554.82</ele>
        <time>2012-06-17T14:24:20Z</time>
      </trkpt>
      <trkpt lat="44.24848" lon="4.01673">
        <ele>554.34</ele>
        <time>2012-06-17T14:24:21Z</time>
      </trkpt>
      <trkpt lat="44.24845" lon="4.0166">
        <ele>552.9</ele>
        <time>2012-06-17T14:24:22Z</time>
      </trkpt>
      <trkpt lat="44.24842" lon="4.01647">
        <ele>551.45</ele>
        <time>2012-06-17T14:24:23Z</time>
      </trkpt>
      <trkpt lat="44.24838" lon="4.01635">
        <ele>550.97</ele>
        <time>2012-06-17T14:24:24Z</time>
      </trkpt>
      <trkpt lat="44.24831" lon="4.01623">
        <ele>550.01</ele>
        <time>2012-06-17T14:24:25Z</time>
      </trkpt>
      <trkpt lat="44.24824" lon="4.01612">
        <ele>549.05</ele>
        <time>2012-06-17T14:24:26Z</time>
      </trkpt>
      <trkpt lat="44.24815" lon="4.01602">
        <ele>548.09</ele>
        <time>2012-06-17T14:24:27Z</time>
      </trkpt>
      <trkpt lat="44.24805" lon="4.01593">
        <ele>547.13</ele>
        <time>2012-06-17T14:24:28Z</time>
      </trkpt>
      <trkpt lat="44.24796" lon="4.01586">
        <ele>547.13</ele>
        <time>2012-06-17T14:24:29Z</time>
      </trkpt>
      <trkpt lat="44.24787" lon="4.01581">
        <ele>545.69</ele>
        <time>2012-06-17T14:24:30Z</time>
      </trkpt>
      <trkpt lat="44.24778" lon="4.01579">
        <ele>545.69</ele>
        <time>2012-06-17T14:24:31Z</time>
      </trkpt>
      <trkpt lat="44.2477" lon="4.0158">
        <ele>545.2</ele>
        <time>2012-06-17T14:24:32Z</time>
      </trkpt>
      <trkpt lat="44.24762" lon="4.01584">
        <ele>545.2</ele>
        <time>2012-06-17T14:24:33Z</time>
      </trkpt>
      <trkpt lat="44.24756" lon="4.0159">
        <ele>543.76</ele>
        <time>2012-06-17T14:24:34Z</time>
      </trkpt>
      <trkpt lat="44.2475" lon="4.01599">
        <ele>542.32</ele>
        <time>2012-06-17T14:24:35Z</time>
      </trkpt>
      <trkpt lat="44.24745" lon="4.0161">
        <ele>541.84</ele>
        <time>2012-06-17T14:24:36Z</time>
      </trkpt>
      <trkpt lat="44.24741" lon="4.01624">
        <ele>540.88</ele>
        <time>2012-06-17T14:24:37Z</time>
      </trkpt>
      <trkpt lat="44.2474" lon="4.0164">
        <ele>539.44</ele>
        <time>2012-06-17T14:24:38Z</time>
      </trkpt>
      <trkpt lat="44.24739" lon="4.01656">
        <ele>539.44</ele>
        <time>2012-06-17T14:24:39Z</time>
      </trkpt>
      <trkpt lat="44.2474" lon="4.01672">
        <ele>538.48</ele>
        <time>2012-06-17T14:24:40Z</time>
      </trkpt>
      <trkpt lat="44.24744" lon="4.01722">
        <ele>534.63</ele>
        <time>2012-06-17T14:24:43Z</time>
      </trkpt>
      <trkpt lat="44.24751" lon="4.01774">
        <ele>530.79</ele>
        <time>2012-06-17T14:24:46Z</time>
      </trkpt>
      <trkpt lat="44.24768" lon="4.01836">
        <ele>527.9</ele>
        <time>2012-06-17T14:24:50Z</time>
      </trkpt>
      <trkpt lat="44.24778" lon="4.01867">
        <ele>525.98</ele>
        <time>2012-06-17T14:24:52Z</time>
      </trkpt>
      <trkpt lat="44.2478" lon="4.01883">
        <ele>524.54</ele>
        <time>2012-06-17T14:24:53Z</time>
      </trkpt>
      <trkpt lat="44.24781" lon="4.01899">
        <ele>523.58</ele>
        <time>2012-06-17T14:24:54Z</time>
      </trkpt>
      <trkpt lat="44.24781" lon="4.01913">
        <ele>522.61</ele>
        <time>2012-06-17T14:24:55Z</time>
      </trkpt>
      <trkpt lat="44.24781" lon="4.01926">
        <ele>522.13</ele>
        <time>2012-06-17T14:24:56Z</time>
      </trkpt>
      <trkpt lat="44.2478" lon="4.01937">
        <ele>520.69</ele>
        <time>2012-06-17T14:24:57Z</time>
      </trkpt>
      <trkpt lat="44.24779" lon="4.01949">
        <ele>519.73</ele>
        <time>2012-06-17T14:24:58Z</time>
      </trkpt>
      <trkpt lat="44.24779" lon="4.01959">
        <ele>519.73</ele>
        <time>2012-06-17T14:24:59Z</time>
      </trkpt>
      <trkpt lat="44.2478" lon="4.01988">
        <ele>517.33</ele>
        <time>2012-06-17T14:25:03Z</time>
      </trkpt>
      <trkpt lat="44.2478" lon="4.01995">
        <ele>517.33</ele>
        <time>2012-06-17T14:25:06Z</time>
      </trkpt>
      <trkpt lat="44.24779" lon="4.01998">
        <ele>516.85</ele>
        <time>2012-06-17T14:25:08Z</time>
      </trkpt>
      <trkpt lat="44.24779" lon="4.02001">
        <ele>516.85</ele>
        <time>2012-06-17T14:25:09Z</time>
      </trkpt>
      <trkpt lat="44.2478" lon="4.02004">
        <ele>516.37</ele>
        <time>2012-06-17T14:25:10Z</time>
      </trkpt>
      <trkpt lat="44.24781" lon="4.02007">
        <ele>516.37</ele>
        <time>2012-06-17T14:25:11Z</time>
      </trkpt>
      <trkpt lat="44.24783" lon="4.0201">
        <ele>516.37</ele>
        <time>2012-06-17T14:25:12Z</time>
      </trkpt>
      <trkpt lat="44.24784" lon="4.02015">
        <ele>516.37</ele>
        <time>2012-06-17T14:25:13Z</time>
      </trkpt>
      <trkpt lat="44.24785" lon="4.02021">
        <ele>516.37</ele>
        <time>2012-06-17T14:25:14Z</time>
      </trkpt>
      <trkpt lat="44.24786" lon="4.02029">
        <ele>516.37</ele>
        <time>2012-06-17T14:25:15Z</time>
      </trkpt>
      <trkpt lat="44.24792" lon="4.02085">
        <ele>513</ele>
        <time>2012-06-17T14:25:20Z</time>
      </trkpt>
      <trkpt lat="44.24795" lon="4.02113">
        <ele>509.16</ele>
        <time>2012-06-17T14:25:23Z</time>
      </trkpt>
      <trkpt lat="44.24795" lon="4.02122">
        <ele>508.67</ele>
        <time>2012-06-17T14:25:24Z</time>
      </trkpt>
      <trkpt lat="44.24794" lon="4.02142">
        <ele>507.71</ele>
        <time>2012-06-17T14:25:26Z</time>
      </trkpt>
      <trkpt lat="44.24795" lon="4.02152">
        <ele>507.23</ele>
        <time>2012-06-17T14:25:27Z</time>
      </trkpt>
      <trkpt lat="44.24796" lon="4.0216">
        <ele>506.27</ele>
        <time>2012-06-17T14:25:28Z</time>
      </trkpt>
      <trkpt lat="44.24795" lon="4.02168">
        <ele>506.27</ele>
        <time>2012-06-17T14:25:29Z</time>
      </trkpt>
      <trkpt lat="44.24791" lon="4.02173">
        <ele>505.79</ele>
        <time>2012-06-17T14:25:30Z</time>
      </trkpt>
      <trkpt lat="44.24786" lon="4.02175">
        <ele>504.35</ele>
        <time>2012-06-17T14:25:31Z</time>
      </trkpt>
      <trkpt lat="44.24781" lon="4.02174">
        <ele>503.39</ele>
        <time>2012-06-17T14:25:32Z</time>
      </trkpt>
      <trkpt lat="44.24775" lon="4.02169">
        <ele>502.43</ele>
        <time>2012-06-17T14:25:33Z</time>
      </trkpt>
      <trkpt lat="44.24769" lon="4.02162">
        <ele>501.46</ele>
        <time>2012-06-17T14:25:34Z</time>
      </trkpt>
      <trkpt lat="44.24762" lon="4.02152">
        <ele>500.5</ele>
        <time>2012-06-17T14:25:35Z</time>
      </trkpt>
      <trkpt lat="44.24755" lon="4.02141">
        <ele>499.54</ele>
        <time>2012-06-17T14:25:36Z</time>
      </trkpt>
      <trkpt lat="44.24736" lon="4.02102">
        <ele>496.18</ele>
        <time>2012-06-17T14:25:39Z</time>
      </trkpt>
      <trkpt lat="44.24702" lon="4.02052">
        <ele>492.81</ele>
        <time>2012-06-17T14:25:43Z</time>
      </trkpt>
      <trkpt lat="44.24676" lon="4.02016">
        <ele>487.53</ele>
        <time>2012-06-17T14:25:46Z</time>
      </trkpt>
      <trkpt lat="44.24665" lon="4.01999">
        <ele>483.68</ele>
        <time>2012-06-17T14:25:48Z</time>
      </trkpt>
      <trkpt lat="44.24656" lon="4.01982">
        <ele>481.76</ele>
        <time>2012-06-17T14:25:50Z</time>
      </trkpt>
      <trkpt lat="44.24653" lon="4.0197">
        <ele>480.8</ele>
        <time>2012-06-17T14:25:51Z</time>
      </trkpt>
      <trkpt lat="44.24651" lon="4.01957">
        <ele>480.32</ele>
        <time>2012-06-17T14:25:52Z</time>
      </trkpt>
      <trkpt lat="44.24649" lon="4.01943">
        <ele>479.84</ele>
        <time>2012-06-17T14:25:53Z</time>
      </trkpt>
      <trkpt lat="44.24646" lon="4.0193">
        <ele>479.35</ele>
        <time>2012-06-17T14:25:54Z</time>
      </trkpt>
      <trkpt lat="44.24636" lon="4.01891">
        <ele>478.39</ele>
        <time>2012-06-17T14:25:57Z</time>
      </trkpt>
      <trkpt lat="44.24628" lon="4.01868">
        <ele>477.91</ele>
        <time>2012-06-17T14:25:59Z</time>
      </trkpt>
      <trkpt lat="44.24624" lon="4.01859">
        <ele>478.39</ele>
        <time>2012-06-17T14:26:00Z</time>
      </trkpt>
      <trkpt lat="44.24618" lon="4.0185">
        <ele>477.91</ele>
        <time>2012-06-17T14:26:01Z</time>
      </trkpt>
      <trkpt lat="44.24612" lon="4.01842">
        <ele>477.43</ele>
        <time>2012-06-17T14:26:02Z</time>
      </trkpt>
      <trkpt lat="44.24605" lon="4.01835">
        <ele>477.43</ele>
        <time>2012-06-17T14:26:03Z</time>
      </trkpt>
      <trkpt lat="44.24598" lon="4.01827">
        <ele>475.99</ele>
        <time>2012-06-17T14:26:04Z</time>
      </trkpt>
      <trkpt lat="44.24553" lon="4.0177">
        <ele>472.63</ele>
        <time>2012-06-17T14:26:11Z</time>
      </trkpt>
      <trkpt lat="44.24547" lon="4.01761">
        <ele>472.14</ele>
        <time>2012-06-17T14:26:12Z</time>
      </trkpt>
      <trkpt lat="44.24541" lon="4.01752">
        <ele>472.14</ele>
        <time>2012-06-17T14:26:13Z</time>
      </trkpt>
      <trkpt lat="44.24504" lon="4.01682">
        <ele>470.22</ele>
        <time>2012-06-17T14:26:21Z</time>
      </trkpt>
      <trkpt lat="44.24495" lon="4.01668">
        <ele>469.74</ele>
        <time>2012-06-17T14:26:23Z</time>
      </trkpt>
      <trkpt lat="44.2449" lon="4.01662">
        <ele>469.74</ele>
        <time>2012-06-17T14:26:24Z</time>
      </trkpt>
      <trkpt lat="44.24484" lon="4.01657">
        <ele>469.26</ele>
        <time>2012-06-17T14:26:25Z</time>
      </trkpt>
      <trkpt lat="44.24478" lon="4.01653">
        <ele>468.3</ele>
        <time>2012-06-17T14:26:26Z</time>
      </trkpt>
      <trkpt lat="44.24471" lon="4.01649">
        <ele>468.3</ele>
        <time>2012-06-17T14:26:27Z</time>
      </trkpt>
      <trkpt lat="44.24423" lon="4.01606">
        <ele>464.93</ele>
        <time>2012-06-17T14:26:34Z</time>
      </trkpt>
      <trkpt lat="44.24413" lon="4.01595">
        <ele>464.45</ele>
        <time>2012-06-17T14:26:36Z</time>
      </trkpt>
      <trkpt lat="44.24409" lon="4.01595">
        <ele>463.97</ele>
        <time>2012-06-17T14:26:37Z</time>
      </trkpt>
      <trkpt lat="44.24405" lon="4.01599">
        <ele>463.01</ele>
        <time>2012-06-17T14:26:38Z</time>
      </trkpt>
      <trkpt lat="44.24404" lon="4.01605">
        <ele>463.01</ele>
        <time>2012-06-17T14:26:39Z</time>
      </trkpt>
      <trkpt lat="44.24405" lon="4.01612">
        <ele>462.53</ele>
        <time>2012-06-17T14:26:40Z</time>
      </trkpt>
      <trkpt lat="44.24407" lon="4.0162">
        <ele>462.53</ele>
        <time>2012-06-17T14:26:41Z</time>
      </trkpt>
      <trkpt lat="44.2441" lon="4.01629">
        <ele>462.05</ele>
        <time>2012-06-17T14:26:42Z</time>
      </trkpt>
      <trkpt lat="44.24411" lon="4.01637">
        <ele>461.57</ele>
        <time>2012-06-17T14:26:43Z</time>
      </trkpt>
      <trkpt lat="44.24413" lon="4.01646">
        <ele>461.09</ele>
        <time>2012-06-17T14:26:44Z</time>
      </trkpt>
      <trkpt lat="44.24413" lon="4.01656">
        <ele>460.61</ele>
        <time>2012-06-17T14:26:45Z</time>
      </trkpt>
      <trkpt lat="44.24412" lon="4.01667">
        <ele>460.13</ele>
        <time>2012-06-17T14:26:46Z</time>
      </trkpt>
      <trkpt lat="44.2441" lon="4.01677">
        <ele>459.17</ele>
        <time>2012-06-17T14:26:47Z</time>
      </trkpt>
      <trkpt lat="44.24407" lon="4.01686">
        <ele>457.72</ele>
        <time>2012-06-17T14:26:48Z</time>
      </trkpt>
      <trkpt lat="44.24404" lon="4.01693">
        <ele>456.76</ele>
        <time>2012-06-17T14:26:49Z</time>
      </trkpt>
      <trkpt lat="44.24401" lon="4.01698">
        <ele>455.8</ele>
        <time>2012-06-17T14:26:50Z</time>
      </trkpt>
      <trkpt lat="44.24398" lon="4.01706">
        <ele>454.84</ele>
        <time>2012-06-17T14:26:52Z</time>
      </trkpt>
      <trkpt lat="44.24397" lon="4.01711">
        <ele>453.88</ele>
        <time>2012-06-17T14:26:54Z</time>
      </trkpt>
      <trkpt lat="44.24397" lon="4.01713">
        <ele>453.4</ele>
        <time>2012-06-17T14:26:55Z</time>
      </trkpt>
      <trkpt lat="44.24397" lon="4.01716">
        <ele>453.4</ele>
        <time>2012-06-17T14:26:56Z</time>
      </trkpt>
      <trkpt lat="44.24397" lon="4.01718">
        <ele>453.4</ele>
        <time>2012-06-17T14:26:57Z</time>
      </trkpt>
      <trkpt lat="44.24397" lon="4.0172">
        <ele>452.92</ele>
        <time>2012-06-17T14:26:58Z</time>
      </trkpt>
      <trkpt lat="44.24397" lon="4.01722">
        <ele>453.4</ele>
        <time>2012-06-17T14:26:59Z</time>
      </trkpt>
      <trkpt lat="44.24397" lon="4.01723">
        <ele>452.92</ele>
        <time>2012-06-17T14:27:00Z</time>
      </trkpt>
      <trkpt lat="44.24398" lon="4.01729">
        <ele>452.92</ele>
        <time>2012-06-17T14:27:16Z</time>
      </trkpt>
      <trkpt lat="44.24401" lon="4.01736">
        <ele>452.44</ele>
        <time>2012-06-17T14:27:48Z</time>
      </trkpt>
      <trkpt lat="44.24422" lon="4.01771">
        <ele>449.55</ele>
        <time>2012-06-17T14:27:56Z</time>
      </trkpt>
      <trkpt lat="44.24425" lon="4.01777">
        <ele>449.07</ele>
        <time>2012-06-17T14:27:57Z</time>
      </trkpt>
      <trkpt lat="44.24428" lon="4.01784">
        <ele>448.11</ele>
        <time>2012-06-17T14:27:58Z</time>
      </trkpt>
      <trkpt lat="44.2443" lon="4.01793">
        <ele>448.11</ele>
        <time>2012-06-17T14:27:59Z</time>
      </trkpt>
      <trkpt lat="44.2443" lon="4.01802">
        <ele>447.63</ele>
        <time>2012-06-17T14:28:00Z</time>
      </trkpt>
      <trkpt lat="44.24429" lon="4.01812">
        <ele>446.67</ele>
        <time>2012-06-17T14:28:01Z</time>
      </trkpt>
      <trkpt lat="44.24427" lon="4.01824">
        <ele>445.23</ele>
        <time>2012-06-17T14:28:02Z</time>
      </trkpt>
      <trkpt lat="44.24422" lon="4.01859">
        <ele>441.38</ele>
        <time>2012-06-17T14:28:05Z</time>
      </trkpt>
      <trkpt lat="44.24421" lon="4.01869">
        <ele>439.46</ele>
        <time>2012-06-17T14:28:06Z</time>
      </trkpt>
      <trkpt lat="44.24419" lon="4.01878">
        <ele>439.46</ele>
        <time>2012-06-17T14:28:07Z</time>
      </trkpt>
      <trkpt lat="44.24417" lon="4.01887">
        <ele>438.02</ele>
        <time>2012-06-17T14:28:08Z</time>
      </trkpt>
      <trkpt lat="44.24414" lon="4.01896">
        <ele>437.06</ele>
        <time>2012-06-17T14:28:09Z</time>
      </trkpt>
      <trkpt lat="44.2441" lon="4.01906">
        <ele>436.1</ele>
        <time>2012-06-17T14:28:10Z</time>
      </trkpt>
      <trkpt lat="44.24405" lon="4.01915">
        <ele>435.61</ele>
        <time>2012-06-17T14:28:11Z</time>
      </trkpt>
      <trkpt lat="44.24397" lon="4.01935">
        <ele>432.73</ele>
        <time>2012-06-17T14:28:13Z</time>
      </trkpt>
      <trkpt lat="44.24395" lon="4.01945">
        <ele>431.29</ele>
        <time>2012-06-17T14:28:14Z</time>
      </trkpt>
      <trkpt lat="44.24393" lon="4.0197">
        <ele>427.92</ele>
        <time>2012-06-17T14:28:17Z</time>
      </trkpt>
      <trkpt lat="44.2439" lon="4.01974">
        <ele>426.96</ele>
        <time>2012-06-17T14:28:18Z</time>
      </trkpt>
      <trkpt lat="44.24385" lon="4.01974">
        <ele>426.96</ele>
        <time>2012-06-17T14:28:19Z</time>
      </trkpt>
      <trkpt lat="44.24379" lon="4.0197">
        <ele>426.48</ele>
        <time>2012-06-17T14:28:20Z</time>
      </trkpt>
      <trkpt lat="44.24375" lon="4.01963">
        <ele>426</ele>
        <time>2012-06-17T14:28:21Z</time>
      </trkpt>
      <trkpt lat="44.24371" lon="4.01957">
        <ele>425.52</ele>
        <time>2012-06-17T14:28:22Z</time>
      </trkpt>
      <trkpt lat="44.24366" lon="4.01951">
        <ele>425.52</ele>
        <time>2012-06-17T14:28:23Z</time>
      </trkpt>
      <trkpt lat="44.2436" lon="4.01948">
        <ele>425.52</ele>
        <time>2012-06-17T14:28:24Z</time>
      </trkpt>
      <trkpt lat="44.24354" lon="4.01949">
        <ele>425.04</ele>
        <time>2012-06-17T14:28:25Z</time>
      </trkpt>
      <trkpt lat="44.24349" lon="4.0195">
        <ele>425.52</ele>
        <time>2012-06-17T14:28:26Z</time>
      </trkpt>
      <trkpt lat="44.24344" lon="4.01951">
        <ele>425.52</ele>
        <time>2012-06-17T14:28:27Z</time>
      </trkpt>
      <trkpt lat="44.2434" lon="4.01955">
        <ele>426</ele>
        <time>2012-06-17T14:28:28Z</time>
      </trkpt>
      <trkpt lat="44.24336" lon="4.01959">
        <ele>426</ele>
        <time>2012-06-17T14:28:29Z</time>
      </trkpt>
      <trkpt lat="44.24332" lon="4.01966">
        <ele>425.52</ele>
        <time>2012-06-17T14:28:30Z</time>
      </trkpt>
      <trkpt lat="44.2433" lon="4.01974">
        <ele>425.04</ele>
        <time>2012-06-17T14:28:31Z</time>
      </trkpt>
      <trkpt lat="44.24328" lon="4.01983">
        <ele>423.6</ele>
        <time>2012-06-17T14:28:32Z</time>
      </trkpt>
      <trkpt lat="44.24326" lon="4.01993">
        <ele>423.6</ele>
        <time>2012-06-17T14:28:33Z</time>
      </trkpt>
      <trkpt lat="44.24326" lon="4.02002">
        <ele>422.64</ele>
        <time>2012-06-17T14:28:34Z</time>
      </trkpt>
      <trkpt lat="44.24326" lon="4.02011">
        <ele>422.16</ele>
        <time>2012-06-17T14:28:35Z</time>
      </trkpt>
      <trkpt lat="44.24326" lon="4.02021">
        <ele>420.71</ele>
        <time>2012-06-17T14:28:36Z</time>
      </trkpt>
      <trkpt lat="44.2433" lon="4.02054">
        <ele>416.87</ele>
        <time>2012-06-17T14:28:39Z</time>
      </trkpt>
      <trkpt lat="44.24332" lon="4.02075">
        <ele>413.98</ele>
        <time>2012-06-17T14:28:41Z</time>
      </trkpt>
      <trkpt lat="44.24332" lon="4.02086">
        <ele>413.02</ele>
        <time>2012-06-17T14:28:42Z</time>
      </trkpt>
      <trkpt lat="44.24331" lon="4.02096">
        <ele>412.06</ele>
        <time>2012-06-17T14:28:43Z</time>
      </trkpt>
      <trkpt lat="44.24329" lon="4.02106">
        <ele>411.58</ele>
        <time>2012-06-17T14:28:44Z</time>
      </trkpt>
      <trkpt lat="44.24326" lon="4.02117">
        <ele>411.58</ele>
        <time>2012-06-17T14:28:45Z</time>
      </trkpt>
      <trkpt lat="44.24322" lon="4.02127">
        <ele>409.66</ele>
        <time>2012-06-17T14:28:46Z</time>
      </trkpt>
      <trkpt lat="44.24319" lon="4.02134">
        <ele>408.22</ele>
        <time>2012-06-17T14:28:47Z</time>
      </trkpt>
      <trkpt lat="44.24316" lon="4.0214">
        <ele>407.26</ele>
        <time>2012-06-17T14:28:48Z</time>
      </trkpt>
      <trkpt lat="44.24314" lon="4.02145">
        <ele>406.29</ele>
        <time>2012-06-17T14:28:49Z</time>
      </trkpt>
      <trkpt lat="44.24313" lon="4.0215">
        <ele>405.81</ele>
        <time>2012-06-17T14:28:50Z</time>
      </trkpt>
      <trkpt lat="44.24315" lon="4.02155">
        <ele>405.33</ele>
        <time>2012-06-17T14:28:51Z</time>
      </trkpt>
      <trkpt lat="44.24318" lon="4.02159">
        <ele>405.33</ele>
        <time>2012-06-17T14:28:52Z</time>
      </trkpt>
      <trkpt lat="44.24321" lon="4.02163">
        <ele>405.33</ele>
        <time>2012-06-17T14:28:53Z</time>
      </trkpt>
      <trkpt lat="44.24331" lon="4.02174">
        <ele>406.77</ele>
        <time>2012-06-17T14:28:57Z</time>
      </trkpt>
      <trkpt lat="44.24333" lon="4.02176">
        <ele>407.26</ele>
        <time>2012-06-17T14:28:58Z</time>
      </trkpt>
      <trkpt lat="44.24333" lon="4.02179">
        <ele>407.26</ele>
        <time>2012-06-17T14:28:59Z</time>
      </trkpt>
      <trkpt lat="44.24333" lon="4.02182">
        <ele>408.22</ele>
        <time>2012-06-17T14:29:00Z</time>
      </trkpt>
      <trkpt lat="44.24334" lon="4.02184">
        <ele>408.22</ele>
        <time>2012-06-17T14:29:01Z</time>
      </trkpt>
      <trkpt lat="44.24335" lon="4.02186">
        <ele>407.74</ele>
        <time>2012-06-17T14:29:02Z</time>
      </trkpt>
      <trkpt lat="44.24335" lon="4.02188">
        <ele>408.22</ele>
        <time>2012-06-17T14:29:03Z</time>
      </trkpt>
      <trkpt lat="44.24335" lon="4.0219">
        <ele>408.22</ele>
        <time>2012-06-17T14:29:04Z</time>
      </trkpt>
      <trkpt lat="44.24334" lon="4.02192">
        <ele>408.22</ele>
        <time>2012-06-17T14:29:05Z</time>
      </trkpt>
      <trkpt lat="44.24335" lon="4.02194">
        <ele>408.22</ele>
        <time>2012-06-17T14:29:06Z</time>
      </trkpt>
      <trkpt lat="44.24339" lon="4.0223">
        <ele>411.1</ele>
        <time>2012-06-17T14:29:17Z</time>
      </trkpt>
      <trkpt lat="44.24358" lon="4.02232">
        <ele>412.54</ele>
        <time>2012-06-17T14:29:28Z</time>
      </trkpt>
      <trkpt lat="44.24367" lon="4.0223">
        <ele>413.02</ele>
        <time>2012-06-17T14:29:33Z</time>
      </trkpt>
      <trkpt lat="44.24369" lon="4.02231">
        <ele>413.02</ele>
        <time>2012-06-17T14:29:34Z</time>
      </trkpt>
      <trkpt lat="44.2437" lon="4.02232">
        <ele>412.54</ele>
        <time>2012-06-17T14:29:35Z</time>
      </trkpt>
      <trkpt lat="44.24371" lon="4.02235">
        <ele>412.54</ele>
        <time>2012-06-17T14:29:36Z</time>
      </trkpt>
      <trkpt lat="44.24373" lon="4.02238">
        <ele>413.02</ele>
        <time>2012-06-17T14:29:37Z</time>
      </trkpt>
      <trkpt lat="44.24373" lon="4.02242">
        <ele>413.02</ele>
        <time>2012-06-17T14:29:38Z</time>
      </trkpt>
      <trkpt lat="44.24373" lon="4.02246">
        <ele>413.02</ele>
        <time>2012-06-17T14:29:39Z</time>
      </trkpt>
      <trkpt lat="44.24373" lon="4.02251">
        <ele>413.02</ele>
        <time>2012-06-17T14:29:40Z</time>
      </trkpt>
      <trkpt lat="44.24372" lon="4.02256">
        <ele>412.06</ele>
        <time>2012-06-17T14:29:41Z</time>
      </trkpt>
      <trkpt lat="44.2437" lon="4.02267">
        <ele>412.06</ele>
        <time>2012-06-17T14:29:43Z</time>
      </trkpt>
      <trkpt lat="44.24369" lon="4.02272">
        <ele>411.58</ele>
        <time>2012-06-17T14:29:44Z</time>
      </trkpt>
      <trkpt lat="44.24365" lon="4.02297">
        <ele>410.14</ele>
        <time>2012-06-17T14:29:49Z</time>
      </trkpt>
      <trkpt lat="44.24367" lon="4.02301">
        <ele>410.14</ele>
        <time>2012-06-17T14:29:50Z</time>
      </trkpt>
      <trkpt lat="44.24369" lon="4.02304">
        <ele>410.14</ele>
        <time>2012-06-17T14:29:51Z</time>
      </trkpt>
      <trkpt lat="44.24371" lon="4.02307">
        <ele>409.66</ele>
        <time>2012-06-17T14:29:52Z</time>
      </trkpt>
      <trkpt lat="44.24373" lon="4.02308">
        <ele>409.66</ele>
        <time>2012-06-17T14:29:53Z</time>
      </trkpt>
      <trkpt lat="44.24379" lon="4.02311">
        <ele>408.7</ele>
        <time>2012-06-17T14:29:56Z</time>
      </trkpt>
      <trkpt lat="44.2438" lon="4.02313">
        <ele>408.22</ele>
        <time>2012-06-17T14:29:57Z</time>
      </trkpt>
      <trkpt lat="44.24382" lon="4.02313">
        <ele>408.22</ele>
        <time>2012-06-17T14:29:58Z</time>
      </trkpt>
      <trkpt lat="44.24384" lon="4.02314">
        <ele>408.22</ele>
        <time>2012-06-17T14:29:59Z</time>
      </trkpt>
      <trkpt lat="44.24387" lon="4.02316">
        <ele>407.74</ele>
        <time>2012-06-17T14:30:00Z</time>
      </trkpt>
      <trkpt lat="44.24391" lon="4.0232">
        <ele>407.26</ele>
        <time>2012-06-17T14:30:02Z</time>
      </trkpt>
      <trkpt lat="44.24393" lon="4.02322">
        <ele>406.77</ele>
        <time>2012-06-17T14:30:03Z</time>
      </trkpt>
      <trkpt lat="44.24395" lon="4.02324">
        <ele>406.29</ele>
        <time>2012-06-17T14:30:04Z</time>
      </trkpt>
      <trkpt lat="44.24394" lon="4.02365">
        <ele>404.37</ele>
        <time>2012-06-17T14:30:13Z</time>
      </trkpt>
      <trkpt lat="44.24389" lon="4.02396">
        <ele>403.41</ele>
        <time>2012-06-17T14:30:18Z</time>
      </trkpt>
      <trkpt lat="44.24377" lon="4.02458">
        <ele>402.93</ele>
        <time>2012-06-17T14:30:29Z</time>
      </trkpt>
      <trkpt lat="44.24375" lon="4.02463">
        <ele>402.93</ele>
        <time>2012-06-17T14:30:30Z</time>
      </trkpt>
      <trkpt lat="44.24371" lon="4.02467">
        <ele>402.45</ele>
        <time>2012-06-17T14:30:31Z</time>
      </trkpt>
      <trkpt lat="44.24367" lon="4.02469">
        <ele>401.97</ele>
        <time>2012-06-17T14:30:32Z</time>
      </trkpt>
      <trkpt lat="44.24362" lon="4.02468">
        <ele>402.45</ele>
        <time>2012-06-17T14:30:33Z</time>
      </trkpt>
      <trkpt lat="44.24358" lon="4.02467">
        <ele>402.45</ele>
        <time>2012-06-17T14:30:34Z</time>
      </trkpt>
      <trkpt lat="44.24302" lon="4.02458">
        <ele>401.97</ele>
        <time>2012-06-17T14:30:48Z</time>
      </trkpt>
      <trkpt lat="44.24282" lon="4.02448">
        <ele>400.53</ele>
        <time>2012-06-17T14:30:52Z</time>
      </trkpt>
      <trkpt lat="44.24276" lon="4.02443">
        <ele>400.53</ele>
        <time>2012-06-17T14:30:53Z</time>
      </trkpt>
      <trkpt lat="44.2427" lon="4.02438">
        <ele>400.53</ele>
        <time>2012-06-17T14:30:54Z</time>
      </trkpt>
      <trkpt lat="44.24238" lon="4.02403">
        <ele>397.64</ele>
        <time>2012-06-17T14:30:59Z</time>
      </trkpt>
      <trkpt lat="44.24231" lon="4.02393">
        <ele>397.16</ele>
        <time>2012-06-17T14:31:00Z</time>
      </trkpt>
      <trkpt lat="44.24226" lon="4.02383">
        <ele>396.68</ele>
        <time>2012-06-17T14:31:01Z</time>
      </trkpt>
      <trkpt lat="44.24222" lon="4.02371">
        <ele>396.2</ele>
        <time>2012-06-17T14:31:02Z</time>
      </trkpt>
      <trkpt lat="44.24215" lon="4.02348">
        <ele>395.24</ele>
        <time>2012-06-17T14:31:04Z</time>
      </trkpt>
      <trkpt lat="44.24206" lon="4.02325">
        <ele>393.32</ele>
        <time>2012-06-17T14:31:06Z</time>
      </trkpt>
      <trkpt lat="44.242" lon="4.02315">
        <ele>392.36</ele>
        <time>2012-06-17T14:31:07Z</time>
      </trkpt>
      <trkpt lat="44.24193" lon="4.02307">
        <ele>392.84</ele>
        <time>2012-06-17T14:31:08Z</time>
      </trkpt>
      <trkpt lat="44.24185" lon="4.02299">
        <ele>392.84</ele>
        <time>2012-06-17T14:31:09Z</time>
      </trkpt>
      <trkpt lat="44.24178" lon="4.02293">
        <ele>391.87</ele>
        <time>2012-06-17T14:31:10Z</time>
      </trkpt>
      <trkpt lat="44.24169" lon="4.02288">
        <ele>390.91</ele>
        <time>2012-06-17T14:31:11Z</time>
      </trkpt>
      <trkpt lat="44.2416" lon="4.02284">
        <ele>390.43</ele>
        <time>2012-06-17T14:31:12Z</time>
      </trkpt>
      <trkpt lat="44.24151" lon="4.02282">
        <ele>389.95</ele>
        <time>2012-06-17T14:31:13Z</time>
      </trkpt>
      <trkpt lat="44.24142" lon="4.02281">
        <ele>389.95</ele>
        <time>2012-06-17T14:31:14Z</time>
      </trkpt>
      <trkpt lat="44.24133" lon="4.02282">
        <ele>389.47</ele>
        <time>2012-06-17T14:31:15Z</time>
      </trkpt>
      <trkpt lat="44.24104" lon="4.02287">
        <ele>388.03</ele>
        <time>2012-06-17T14:31:18Z</time>
      </trkpt>
      <trkpt lat="44.24095" lon="4.02292">
        <ele>387.07</ele>
        <time>2012-06-17T14:31:19Z</time>
      </trkpt>
      <trkpt lat="44.24087" lon="4.02297">
        <ele>386.11</ele>
        <time>2012-06-17T14:31:20Z</time>
      </trkpt>
      <trkpt lat="44.2408" lon="4.02304">
        <ele>385.63</ele>
        <time>2012-06-17T14:31:21Z</time>
      </trkpt>
      <trkpt lat="44.24073" lon="4.02312">
        <ele>385.15</ele>
        <time>2012-06-17T14:31:22Z</time>
      </trkpt>
      <trkpt lat="44.24065" lon="4.02321">
        <ele>384.18</ele>
        <time>2012-06-17T14:31:23Z</time>
      </trkpt>
      <trkpt lat="44.24058" lon="4.02331">
        <ele>383.7</ele>
        <time>2012-06-17T14:31:24Z</time>
      </trkpt>
      <trkpt lat="44.24036" lon="4.02365">
        <ele>379.86</ele>
        <time>2012-06-17T14:31:27Z</time>
      </trkpt>
      <trkpt lat="44.24012" lon="4.024">
        <ele>377.45</ele>
        <time>2012-06-17T14:31:30Z</time>
      </trkpt>
      <trkpt lat="44.24002" lon="4.02409">
        <ele>376.97</ele>
        <time>2012-06-17T14:31:31Z</time>
      </trkpt>
      <trkpt lat="44.23992" lon="4.02417">
        <ele>375.05</ele>
        <time>2012-06-17T14:31:32Z</time>
      </trkpt>
      <trkpt lat="44.23959" lon="4.02437">
        <ele>372.65</ele>
        <time>2012-06-17T14:31:35Z</time>
      </trkpt>
      <trkpt lat="44.23938" lon="4.02451">
        <ele>371.69</ele>
        <time>2012-06-17T14:31:37Z</time>
      </trkpt>
      <trkpt lat="44.23919" lon="4.02466">
        <ele>367.36</ele>
        <time>2012-06-17T14:31:39Z</time>
      </trkpt>
      <trkpt lat="44.23909" lon="4.02471">
        <ele>367.36</ele>
        <time>2012-06-17T14:31:40Z</time>
      </trkpt>
      <trkpt lat="44.23899" lon="4.02472">
        <ele>365.92</ele>
        <time>2012-06-17T14:31:41Z</time>
      </trkpt>
      <trkpt lat="44.23889" lon="4.02466">
        <ele>364.48</ele>
        <time>2012-06-17T14:31:42Z</time>
      </trkpt>
      <trkpt lat="44.2388" lon="4.02456">
        <ele>364</ele>
        <time>2012-06-17T14:31:43Z</time>
      </trkpt>
      <trkpt lat="44.23872" lon="4.02445">
        <ele>364</ele>
        <time>2012-06-17T14:31:44Z</time>
      </trkpt>
      <trkpt lat="44.23863" lon="4.02435">
        <ele>363.52</ele>
        <time>2012-06-17T14:31:45Z</time>
      </trkpt>
      <trkpt lat="44.23853" lon="4.02427">
        <ele>362.07</ele>
        <time>2012-06-17T14:31:46Z</time>
      </trkpt>
      <trkpt lat="44.23843" lon="4.02421">
        <ele>360.63</ele>
        <time>2012-06-17T14:31:47Z</time>
      </trkpt>
      <trkpt lat="44.23832" lon="4.02416">
        <ele>360.15</ele>
        <time>2012-06-17T14:31:48Z</time>
      </trkpt>
      <trkpt lat="44.23798" lon="4.02406">
        <ele>357.27</ele>
        <time>2012-06-17T14:31:51Z</time>
      </trkpt>
      <trkpt lat="44.23763" lon="4.02402">
        <ele>352.94</ele>
        <time>2012-06-17T14:31:54Z</time>
      </trkpt>
      <trkpt lat="44.2374" lon="4.02401">
        <ele>350.54</ele>
        <time>2012-06-17T14:31:56Z</time>
      </trkpt>
      <trkpt lat="44.23729" lon="4.02395">
        <ele>350.06</ele>
        <time>2012-06-17T14:31:57Z</time>
      </trkpt>
      <trkpt lat="44.2372" lon="4.02384">
        <ele>349.1</ele>
        <time>2012-06-17T14:31:58Z</time>
      </trkpt>
      <trkpt lat="44.23694" lon="4.02348">
        <ele>346.21</ele>
        <time>2012-06-17T14:32:01Z</time>
      </trkpt>
      <trkpt lat="44.23684" lon="4.02338">
        <ele>346.21</ele>
        <time>2012-06-17T14:32:02Z</time>
      </trkpt>
      <trkpt lat="44.23631" lon="4.02289">
        <ele>342.85</ele>
        <time>2012-06-17T14:32:07Z</time>
      </trkpt>
      <trkpt lat="44.23623" lon="4.02275">
        <ele>341.41</ele>
        <time>2012-06-17T14:32:08Z</time>
      </trkpt>
      <trkpt lat="44.23615" lon="4.02261">
        <ele>339.48</ele>
        <time>2012-06-17T14:32:09Z</time>
      </trkpt>
      <trkpt lat="44.23598" lon="4.02234">
        <ele>339</ele>
        <time>2012-06-17T14:32:11Z</time>
      </trkpt>
      <trkpt lat="44.23572" lon="4.02194">
        <ele>335.16</ele>
        <time>2012-06-17T14:32:14Z</time>
      </trkpt>
      <trkpt lat="44.23565" lon="4.02181">
        <ele>334.68</ele>
        <time>2012-06-17T14:32:15Z</time>
      </trkpt>
      <trkpt lat="44.23551" lon="4.02154">
        <ele>334.68</ele>
        <time>2012-06-17T14:32:17Z</time>
      </trkpt>
      <trkpt lat="44.23537" lon="4.02132">
        <ele>331.79</ele>
        <time>2012-06-17T14:32:19Z</time>
      </trkpt>
      <trkpt lat="44.23529" lon="4.02123">
        <ele>331.31</ele>
        <time>2012-06-17T14:32:20Z</time>
      </trkpt>
      <trkpt lat="44.2352" lon="4.02116">
        <ele>330.83</ele>
        <time>2012-06-17T14:32:21Z</time>
      </trkpt>
      <trkpt lat="44.23511" lon="4.02111">
        <ele>329.87</ele>
        <time>2012-06-17T14:32:22Z</time>
      </trkpt>
      <trkpt lat="44.23502" lon="4.02106">
        <ele>329.39</ele>
        <time>2012-06-17T14:32:23Z</time>
      </trkpt>
      <trkpt lat="44.23493" lon="4.02102">
        <ele>329.39</ele>
        <time>2012-06-17T14:32:24Z</time>
      </trkpt>
      <trkpt lat="44.23447" lon="4.02074">
        <ele>325.54</ele>
        <time>2012-06-17T14:32:29Z</time>
      </trkpt>
      <trkpt lat="44.23438" lon="4.02066">
        <ele>325.06</ele>
        <time>2012-06-17T14:32:30Z</time>
      </trkpt>
      <trkpt lat="44.2343" lon="4.02058">
        <ele>325.06</ele>
        <time>2012-06-17T14:32:31Z</time>
      </trkpt>
      <trkpt lat="44.23388" lon="4.02008">
        <ele>321.22</ele>
        <time>2012-06-17T14:32:36Z</time>
      </trkpt>
      <trkpt lat="44.23371" lon="4.01987">
        <ele>320.26</ele>
        <time>2012-06-17T14:32:38Z</time>
      </trkpt>
      <trkpt lat="44.23344" lon="4.01956">
        <ele>316.89</ele>
        <time>2012-06-17T14:32:41Z</time>
      </trkpt>
      <trkpt lat="44.23323" lon="4.01938">
        <ele>315.93</ele>
        <time>2012-06-17T14:32:43Z</time>
      </trkpt>
      <trkpt lat="44.23301" lon="4.01921">
        <ele>312.57</ele>
        <time>2012-06-17T14:32:45Z</time>
      </trkpt>
      <trkpt lat="44.23268" lon="4.01897">
        <ele>309.2</ele>
        <time>2012-06-17T14:32:48Z</time>
      </trkpt>
      <trkpt lat="44.23257" lon="4.01887">
        <ele>308.72</ele>
        <time>2012-06-17T14:32:49Z</time>
      </trkpt>
      <trkpt lat="44.23226" lon="4.01858">
        <ele>305.84</ele>
        <time>2012-06-17T14:32:52Z</time>
      </trkpt>
      <trkpt lat="44.23195" lon="4.0183">
        <ele>302.95</ele>
        <time>2012-06-17T14:32:55Z</time>
      </trkpt>
      <trkpt lat="44.23163" lon="4.01803">
        <ele>298.63</ele>
        <time>2012-06-17T14:32:58Z</time>
      </trkpt>
      <trkpt lat="44.23143" lon="4.01786">
        <ele>297.18</ele>
        <time>2012-06-17T14:33:00Z</time>
      </trkpt>
      <trkpt lat="44.23078" lon="4.01738">
        <ele>293.82</ele>
        <time>2012-06-17T14:33:06Z</time>
      </trkpt>
      <trkpt lat="44.23033" lon="4.01709">
        <ele>290.46</ele>
        <time>2012-06-17T14:33:10Z</time>
      </trkpt>
      <trkpt lat="44.23011" lon="4.01693">
        <ele>289.49</ele>
        <time>2012-06-17T14:33:12Z</time>
      </trkpt>
      <trkpt lat="44.22967" lon="4.01662">
        <ele>287.09</ele>
        <time>2012-06-17T14:33:16Z</time>
      </trkpt>
      <trkpt lat="44.22945" lon="4.01647">
        <ele>285.17</ele>
        <time>2012-06-17T14:33:18Z</time>
      </trkpt>
      <trkpt lat="44.22913" lon="4.01623">
        <ele>282.77</ele>
        <time>2012-06-17T14:33:21Z</time>
      </trkpt>
      <trkpt lat="44.22905" lon="4.01611">
        <ele>282.28</ele>
        <time>2012-06-17T14:33:22Z</time>
      </trkpt>
      <trkpt lat="44.22897" lon="4.01599">
        <ele>281.32</ele>
        <time>2012-06-17T14:33:23Z</time>
      </trkpt>
      <trkpt lat="44.2289" lon="4.01584">
        <ele>280.36</ele>
        <time>2012-06-17T14:33:24Z</time>
      </trkpt>
      <trkpt lat="44.22884" lon="4.01569">
        <ele>279.4</ele>
        <time>2012-06-17T14:33:25Z</time>
      </trkpt>
      <trkpt lat="44.22866" lon="4.0152">
        <ele>276.04</ele>
        <time>2012-06-17T14:33:28Z</time>
      </trkpt>
      <trkpt lat="44.2286" lon="4.01503">
        <ele>275.07</ele>
        <time>2012-06-17T14:33:29Z</time>
      </trkpt>
      <trkpt lat="44.22852" lon="4.01486">
        <ele>274.59</ele>
        <time>2012-06-17T14:33:30Z</time>
      </trkpt>
      <trkpt lat="44.22827" lon="4.01438">
        <ele>271.23</ele>
        <time>2012-06-17T14:33:33Z</time>
      </trkpt>
      <trkpt lat="44.22804" lon="4.01387">
        <ele>267.38</ele>
        <time>2012-06-17T14:33:36Z</time>
      </trkpt>
      <trkpt lat="44.2278" lon="4.01339">
        <ele>264.02</ele>
        <time>2012-06-17T14:33:39Z</time>
      </trkpt>
      <trkpt lat="44.22771" lon="4.01326">
        <ele>263.06</ele>
        <time>2012-06-17T14:33:40Z</time>
      </trkpt>
      <trkpt lat="44.22759" lon="4.01316">
        <ele>262.1</ele>
        <time>2012-06-17T14:33:41Z</time>
      </trkpt>
      <trkpt lat="44.22747" lon="4.0131">
        <ele>261.62</ele>
        <time>2012-06-17T14:33:42Z</time>
      </trkpt>
      <trkpt lat="44.22734" lon="4.01307">
        <ele>261.62</ele>
        <time>2012-06-17T14:33:43Z</time>
      </trkpt>
      <trkpt lat="44.22721" lon="4.01307">
        <ele>261.14</ele>
        <time>2012-06-17T14:33:44Z</time>
      </trkpt>
      <trkpt lat="44.22709" lon="4.01309">
        <ele>260.65</ele>
        <time>2012-06-17T14:33:45Z</time>
      </trkpt>
      <trkpt lat="44.22696" lon="4.01312">
        <ele>260.17</ele>
        <time>2012-06-17T14:33:46Z</time>
      </trkpt>
      <trkpt lat="44.22684" lon="4.01317">
        <ele>259.69</ele>
        <time>2012-06-17T14:33:47Z</time>
      </trkpt>
      <trkpt lat="44.22659" lon="4.01323">
        <ele>258.73</ele>
        <time>2012-06-17T14:33:49Z</time>
      </trkpt>
      <trkpt lat="44.22607" lon="4.0133">
        <ele>255.37</ele>
        <time>2012-06-17T14:33:53Z</time>
      </trkpt>
      <trkpt lat="44.22552" lon="4.01338">
        <ele>250.56</ele>
        <time>2012-06-17T14:33:57Z</time>
      </trkpt>
      <trkpt lat="44.22524" lon="4.01342">
        <ele>247.2</ele>
        <time>2012-06-17T14:33:59Z</time>
      </trkpt>
      <trkpt lat="44.22487" lon="4.01349">
        <ele>242.87</ele>
        <time>2012-06-17T14:34:02Z</time>
      </trkpt>
      <trkpt lat="44.22454" lon="4.01362">
        <ele>239.99</ele>
        <time>2012-06-17T14:34:05Z</time>
      </trkpt>
      <trkpt lat="44.22445" lon="4.0137">
        <ele>239.02</ele>
        <time>2012-06-17T14:34:06Z</time>
      </trkpt>
      <trkpt lat="44.22438" lon="4.0138">
        <ele>238.54</ele>
        <time>2012-06-17T14:34:07Z</time>
      </trkpt>
      <trkpt lat="44.22431" lon="4.01391">
        <ele>237.58</ele>
        <time>2012-06-17T14:34:08Z</time>
      </trkpt>
      <trkpt lat="44.22426" lon="4.01402">
        <ele>237.58</ele>
        <time>2012-06-17T14:34:09Z</time>
      </trkpt>
      <trkpt lat="44.22422" lon="4.01413">
        <ele>238.06</ele>
        <time>2012-06-17T14:34:10Z</time>
      </trkpt>
      <trkpt lat="44.22418" lon="4.01424">
        <ele>237.58</ele>
        <time>2012-06-17T14:34:11Z</time>
      </trkpt>
      <trkpt lat="44.22413" lon="4.01434">
        <ele>236.14</ele>
        <time>2012-06-17T14:34:12Z</time>
      </trkpt>
      <trkpt lat="44.22406" lon="4.01442">
        <ele>236.14</ele>
        <time>2012-06-17T14:34:13Z</time>
      </trkpt>
      <trkpt lat="44.22398" lon="4.01449">
        <ele>235.18</ele>
        <time>2012-06-17T14:34:14Z</time>
      </trkpt>
      <trkpt lat="44.2239" lon="4.01456">
        <ele>234.7</ele>
        <time>2012-06-17T14:34:15Z</time>
      </trkpt>
      <trkpt lat="44.22381" lon="4.01461">
        <ele>234.22</ele>
        <time>2012-06-17T14:34:16Z</time>
      </trkpt>
      <trkpt lat="44.22372" lon="4.01466">
        <ele>233.26</ele>
        <time>2012-06-17T14:34:17Z</time>
      </trkpt>
      <trkpt lat="44.22332" lon="4.01484">
        <ele>228.45</ele>
        <time>2012-06-17T14:34:21Z</time>
      </trkpt>
      <trkpt lat="44.22312" lon="4.01493">
        <ele>227.01</ele>
        <time>2012-06-17T14:34:23Z</time>
      </trkpt>
      <trkpt lat="44.22304" lon="4.01497">
        <ele>224.61</ele>
        <time>2012-06-17T14:34:24Z</time>
      </trkpt>
      <trkpt lat="44.22296" lon="4.015">
        <ele>223.64</ele>
        <time>2012-06-17T14:34:25Z</time>
      </trkpt>
      <trkpt lat="44.22287" lon="4.01504">
        <ele>223.64</ele>
        <time>2012-06-17T14:34:26Z</time>
      </trkpt>
      <trkpt lat="44.22278" lon="4.01507">
        <ele>223.16</ele>
        <time>2012-06-17T14:34:27Z</time>
      </trkpt>
      <trkpt lat="44.2225" lon="4.01521">
        <ele>221.24</ele>
        <time>2012-06-17T14:34:30Z</time>
      </trkpt>
      <trkpt lat="44.22242" lon="4.0153">
        <ele>221.24</ele>
        <time>2012-06-17T14:34:31Z</time>
      </trkpt>
      <trkpt lat="44.22192" lon="4.01592">
        <ele>217.88</ele>
        <time>2012-06-17T14:34:37Z</time>
      </trkpt>
      <trkpt lat="44.22113" lon="4.01701">
        <ele>216.43</ele>
        <time>2012-06-17T14:34:48Z</time>
      </trkpt>
      <trkpt lat="44.22056" lon="4.01772">
        <ele>215.47</ele>
        <time>2012-06-17T14:34:57Z</time>
      </trkpt>
      <trkpt lat="44.2205" lon="4.0178">
        <ele>215.47</ele>
        <time>2012-06-17T14:34:58Z</time>
      </trkpt>
      <trkpt lat="44.22044" lon="4.01787">
        <ele>215.47</ele>
        <time>2012-06-17T14:34:59Z</time>
      </trkpt>
      <trkpt lat="44.21995" lon="4.01843">
        <ele>214.51</ele>
        <time>2012-06-17T14:35:08Z</time>
      </trkpt>
      <trkpt lat="44.21929" lon="4.01913">
        <ele>213.55</ele>
        <time>2012-06-17T14:35:21Z</time>
      </trkpt>
      <trkpt lat="44.21923" lon="4.01914">
        <ele>214.51</ele>
        <time>2012-06-17T14:35:22Z</time>
      </trkpt>
      <trkpt lat="44.21918" lon="4.01914">
        <ele>214.51</ele>
        <time>2012-06-17T14:35:23Z</time>
      </trkpt>
      <trkpt lat="44.21912" lon="4.01913">
        <ele>213.55</ele>
        <time>2012-06-17T14:35:24Z</time>
      </trkpt>
      <trkpt lat="44.21906" lon="4.01911">
        <ele>213.55</ele>
        <time>2012-06-17T14:35:25Z</time>
      </trkpt>
      <trkpt lat="44.21901" lon="4.01908">
        <ele>214.03</ele>
        <time>2012-06-17T14:35:26Z</time>
      </trkpt>
      <trkpt lat="44.21896" lon="4.01904">
        <ele>214.03</ele>
        <time>2012-06-17T14:35:27Z</time>
      </trkpt>
      <trkpt lat="44.21892" lon="4.019">
        <ele>213.55</ele>
        <time>2012-06-17T14:35:28Z</time>
      </trkpt>
      <trkpt lat="44.21887" lon="4.01896">
        <ele>213.07</ele>
        <time>2012-06-17T14:35:29Z</time>
      </trkpt>
      <trkpt lat="44.21882" lon="4.01894">
        <ele>213.07</ele>
        <time>2012-06-17T14:35:30Z</time>
      </trkpt>
      <trkpt lat="44.21877" lon="4.01895">
        <ele>213.07</ele>
        <time>2012-06-17T14:35:31Z</time>
      </trkpt>
      <trkpt lat="44.21872" lon="4.01896">
        <ele>212.59</ele>
        <time>2012-06-17T14:35:32Z</time>
      </trkpt>
      <trkpt lat="44.21868" lon="4.01899">
        <ele>213.07</ele>
        <time>2012-06-17T14:35:33Z</time>
      </trkpt>
      <trkpt lat="44.21863" lon="4.01903">
        <ele>212.59</ele>
        <time>2012-06-17T14:35:34Z</time>
      </trkpt>
      <trkpt lat="44.21858" lon="4.01907">
        <ele>213.07</ele>
        <time>2012-06-17T14:35:35Z</time>
      </trkpt>
      <trkpt lat="44.21854" lon="4.01911">
        <ele>213.55</ele>
        <time>2012-06-17T14:35:36Z</time>
      </trkpt>
      <trkpt lat="44.21844" lon="4.01917">
        <ele>213.55</ele>
        <time>2012-06-17T14:35:38Z</time>
      </trkpt>
      <trkpt lat="44.21835" lon="4.01923">
        <ele>214.03</ele>
        <time>2012-06-17T14:35:40Z</time>
      </trkpt>
      <trkpt lat="44.21825" lon="4.0193">
        <ele>214.51</ele>
        <time>2012-06-17T14:35:42Z</time>
      </trkpt>
      <trkpt lat="44.21816" lon="4.01938">
        <ele>214.99</ele>
        <time>2012-06-17T14:35:44Z</time>
      </trkpt>
      <trkpt lat="44.21812" lon="4.01942">
        <ele>214.99</ele>
        <time>2012-06-17T14:35:45Z</time>
      </trkpt>
      <trkpt lat="44.21794" lon="4.01959">
        <ele>216.43</ele>
        <time>2012-06-17T14:35:50Z</time>
      </trkpt>
      <trkpt lat="44.2179" lon="4.01963">
        <ele>216.43</ele>
        <time>2012-06-17T14:35:51Z</time>
      </trkpt>
      <trkpt lat="44.21787" lon="4.01967">
        <ele>216.43</ele>
        <time>2012-06-17T14:35:52Z</time>
      </trkpt>
      <trkpt lat="44.21784" lon="4.0197">
        <ele>216.91</ele>
        <time>2012-06-17T14:35:53Z</time>
      </trkpt>
      <trkpt lat="44.2178" lon="4.01974">
        <ele>216.91</ele>
        <time>2012-06-17T14:35:54Z</time>
      </trkpt>
      <trkpt lat="44.21776" lon="4.01978">
        <ele>216.91</ele>
        <time>2012-06-17T14:35:55Z</time>
      </trkpt>
      <trkpt lat="44.21737" lon="4.02021">
        <ele>217.88</ele>
        <time>2012-06-17T14:36:06Z</time>
      </trkpt>
      <trkpt lat="44.21734" lon="4.02025">
        <ele>218.36</ele>
        <time>2012-06-17T14:36:07Z</time>
      </trkpt>
      <trkpt lat="44.21681" lon="4.02076">
        <ele>217.88</ele>
        <time>2012-06-17T14:36:22Z</time>
      </trkpt>
      <trkpt lat="44.21673" lon="4.02083">
        <ele>217.88</ele>
        <time>2012-06-17T14:36:24Z</time>
      </trkpt>
      <trkpt lat="44.21669" lon="4.02086">
        <ele>217.88</ele>
        <time>2012-06-17T14:36:25Z</time>
      </trkpt>
      <trkpt lat="44.21606" lon="4.02122">
        <ele>217.4</ele>
        <time>2012-06-17T14:36:39Z</time>
      </trkpt>
      <trkpt lat="44.21582" lon="4.02138">
        <ele>216.91</ele>
        <time>2012-06-17T14:36:44Z</time>
      </trkpt>
      <trkpt lat="44.21564" lon="4.02151">
        <ele>216.91</ele>
        <time>2012-06-17T14:36:48Z</time>
      </trkpt>
      <trkpt lat="44.21559" lon="4.02154">
        <ele>216.43</ele>
        <time>2012-06-17T14:36:49Z</time>
      </trkpt>
      <trkpt lat="44.21514" lon="4.02194">
        <ele>213.55</ele>
        <time>2012-06-17T14:36:58Z</time>
      </trkpt>
      <trkpt lat="44.21442" lon="4.02246">
        <ele>211.63</ele>
        <time>2012-06-17T14:37:10Z</time>
      </trkpt>
      <trkpt lat="44.21411" lon="4.02255">
        <ele>210.67</ele>
        <time>2012-06-17T14:37:15Z</time>
      </trkpt>
      <trkpt lat="44.21404" lon="4.02255">
        <ele>211.15</ele>
        <time>2012-06-17T14:37:16Z</time>
      </trkpt>
      <trkpt lat="44.21362" lon="4.02263">
        <ele>209.7</ele>
        <time>2012-06-17T14:37:23Z</time>
      </trkpt>
      <trkpt lat="44.21356" lon="4.02265">
        <ele>209.7</ele>
        <time>2012-06-17T14:37:24Z</time>
      </trkpt>
      <trkpt lat="44.2135" lon="4.02268">
        <ele>209.7</ele>
        <time>2012-06-17T14:37:25Z</time>
      </trkpt>
      <trkpt lat="44.21272" lon="4.0233">
        <ele>209.22</ele>
        <time>2012-06-17T14:37:40Z</time>
      </trkpt>
      <trkpt lat="44.21214" lon="4.02396">
        <ele>209.7</ele>
        <time>2012-06-17T14:37:53Z</time>
      </trkpt>
      <trkpt lat="44.2121" lon="4.02401">
        <ele>209.7</ele>
        <time>2012-06-17T14:37:54Z</time>
      </trkpt>
      <trkpt lat="44.21205" lon="4.02406">
        <ele>210.19</ele>
        <time>2012-06-17T14:37:55Z</time>
      </trkpt>
      <trkpt lat="44.2115" lon="4.02495">
        <ele>207.3</ele>
        <time>2012-06-17T14:38:09Z</time>
      </trkpt>
      <trkpt lat="44.21135" lon="4.02528">
        <ele>207.3</ele>
        <time>2012-06-17T14:38:14Z</time>
      </trkpt>
      <trkpt lat="44.21133" lon="4.02535">
        <ele>207.3</ele>
        <time>2012-06-17T14:38:15Z</time>
      </trkpt>
      <trkpt lat="44.21124" lon="4.02561">
        <ele>207.3</ele>
        <time>2012-06-17T14:38:19Z</time>
      </trkpt>
      <trkpt lat="44.21122" lon="4.02568">
        <ele>207.3</ele>
        <time>2012-06-17T14:38:20Z</time>
      </trkpt>
      <trkpt lat="44.21119" lon="4.02573">
        <ele>207.78</ele>
        <time>2012-06-17T14:38:21Z</time>
      </trkpt>
      <trkpt lat="44.21115" lon="4.02578">
        <ele>207.3</ele>
        <time>2012-06-17T14:38:22Z</time>
      </trkpt>
      <trkpt lat="44.21111" lon="4.02584">
        <ele>207.78</ele>
        <time>2012-06-17T14:38:23Z</time>
      </trkpt>
      <trkpt lat="44.2111" lon="4.02592">
        <ele>207.78</ele>
        <time>2012-06-17T14:38:24Z</time>
      </trkpt>
      <trkpt lat="44.21109" lon="4.026">
        <ele>207.3</ele>
        <time>2012-06-17T14:38:25Z</time>
      </trkpt>
      <trkpt lat="44.21109" lon="4.02607">
        <ele>207.78</ele>
        <time>2012-06-17T14:38:26Z</time>
      </trkpt>
      <trkpt lat="44.21107" lon="4.02615">
        <ele>207.78</ele>
        <time>2012-06-17T14:38:27Z</time>
      </trkpt>
      <trkpt lat="44.21105" lon="4.02623">
        <ele>207.78</ele>
        <time>2012-06-17T14:38:28Z</time>
      </trkpt>
      <trkpt lat="44.21102" lon="4.0263">
        <ele>208.26</ele>
        <time>2012-06-17T14:38:29Z</time>
      </trkpt>
      <trkpt lat="44.21099" lon="4.02637">
        <ele>208.26</ele>
        <time>2012-06-17T14:38:30Z</time>
      </trkpt>
      <trkpt lat="44.21091" lon="4.02656">
        <ele>208.74</ele>
        <time>2012-06-17T14:38:33Z</time>
      </trkpt>
      <trkpt lat="44.21084" lon="4.02672">
        <ele>208.74</ele>
        <time>2012-06-17T14:38:36Z</time>
      </trkpt>
      <trkpt lat="44.21081" lon="4.02677">
        <ele>208.74</ele>
        <time>2012-06-17T14:38:37Z</time>
      </trkpt>
      <trkpt lat="44.21065" lon="4.0271">
        <ele>208.74</ele>
        <time>2012-06-17T14:38:43Z</time>
      </trkpt>
      <trkpt lat="44.21062" lon="4.02715">
        <ele>209.22</ele>
        <time>2012-06-17T14:38:44Z</time>
      </trkpt>
      <trkpt lat="44.21054" lon="4.02734">
        <ele>209.7</ele>
        <time>2012-06-17T14:38:47Z</time>
      </trkpt>
      <trkpt lat="44.21051" lon="4.0274">
        <ele>209.7</ele>
        <time>2012-06-17T14:38:48Z</time>
      </trkpt>
      <trkpt lat="44.2103" lon="4.02788">
        <ele>209.7</ele>
        <time>2012-06-17T14:38:56Z</time>
      </trkpt>
      <trkpt lat="44.21012" lon="4.02829">
        <ele>209.22</ele>
        <time>2012-06-17T14:39:03Z</time>
      </trkpt>
      <trkpt lat="44.21006" lon="4.02848">
        <ele>209.7</ele>
        <time>2012-06-17T14:39:06Z</time>
      </trkpt>
      <trkpt lat="44.21004" lon="4.02853">
        <ele>209.7</ele>
        <time>2012-06-17T14:39:07Z</time>
      </trkpt>
      <trkpt lat="44.21003" lon="4.02859">
        <ele>209.22</ele>
        <time>2012-06-17T14:39:08Z</time>
      </trkpt>
      <trkpt lat="44.21001" lon="4.02865">
        <ele>209.7</ele>
        <time>2012-06-17T14:39:09Z</time>
      </trkpt>
      <trkpt lat="44.21" lon="4.02871">
        <ele>209.7</ele>
        <time>2012-06-17T14:39:10Z</time>
      </trkpt>
      <trkpt lat="44.20997" lon="4.02891">
        <ele>208.74</ele>
        <time>2012-06-17T14:39:13Z</time>
      </trkpt>
      <trkpt lat="44.20994" lon="4.02897">
        <ele>209.22</ele>
        <time>2012-06-17T14:39:14Z</time>
      </trkpt>
      <trkpt lat="44.20992" lon="4.02903">
        <ele>209.22</ele>
        <time>2012-06-17T14:39:15Z</time>
      </trkpt>
      <trkpt lat="44.2099" lon="4.0291">
        <ele>209.22</ele>
        <time>2012-06-17T14:39:16Z</time>
      </trkpt>
      <trkpt lat="44.20988" lon="4.02916">
        <ele>209.7</ele>
        <time>2012-06-17T14:39:17Z</time>
      </trkpt>
      <trkpt lat="44.20984" lon="4.02929">
        <ele>209.7</ele>
        <time>2012-06-17T14:39:19Z</time>
      </trkpt>
      <trkpt lat="44.20981" lon="4.02942">
        <ele>209.22</ele>
        <time>2012-06-17T14:39:21Z</time>
      </trkpt>
      <trkpt lat="44.2098" lon="4.02948">
        <ele>209.7</ele>
        <time>2012-06-17T14:39:22Z</time>
      </trkpt>
      <trkpt lat="44.20977" lon="4.02954">
        <ele>209.7</ele>
        <time>2012-06-17T14:39:23Z</time>
      </trkpt>
      <trkpt lat="44.20973" lon="4.02958">
        <ele>209.7</ele>
        <time>2012-06-17T14:39:24Z</time>
      </trkpt>
      <trkpt lat="44.20968" lon="4.0296">
        <ele>209.7</ele>
        <time>2012-06-17T14:39:25Z</time>
      </trkpt>
      <trkpt lat="44.20962" lon="4.0296">
        <ele>210.19</ele>
        <time>2012-06-17T14:39:26Z</time>
      </trkpt>
      <trkpt lat="44.20956" lon="4.02958">
        <ele>210.67</ele>
        <time>2012-06-17T14:39:27Z</time>
      </trkpt>
      <trkpt lat="44.20951" lon="4.02957">
        <ele>210.19</ele>
        <time>2012-06-17T14:39:28Z</time>
      </trkpt>
      <trkpt lat="44.20945" lon="4.02956">
        <ele>210.19</ele>
        <time>2012-06-17T14:39:29Z</time>
      </trkpt>
      <trkpt lat="44.2094" lon="4.02957">
        <ele>210.19</ele>
        <time>2012-06-17T14:39:30Z</time>
      </trkpt>
      <trkpt lat="44.20935" lon="4.02958">
        <ele>210.19</ele>
        <time>2012-06-17T14:39:31Z</time>
      </trkpt>
      <trkpt lat="44.20929" lon="4.02959">
        <ele>209.7</ele>
        <time>2012-06-17T14:39:32Z</time>
      </trkpt>
      <trkpt lat="44.20904" lon="4.02967">
        <ele>209.22</ele>
        <time>2012-06-17T14:39:37Z</time>
      </trkpt>
      <trkpt lat="44.20899" lon="4.0297">
        <ele>208.74</ele>
        <time>2012-06-17T14:39:38Z</time>
      </trkpt>
      <trkpt lat="44.20884" lon="4.02976">
        <ele>208.26</ele>
        <time>2012-06-17T14:39:41Z</time>
      </trkpt>
      <trkpt lat="44.20803" lon="4.02998">
        <ele>206.34</ele>
        <time>2012-06-17T14:39:56Z</time>
      </trkpt>
      <trkpt lat="44.20798" lon="4.02999">
        <ele>205.86</ele>
        <time>2012-06-17T14:39:57Z</time>
      </trkpt>
      <trkpt lat="44.20716" lon="4.03022">
        <ele>203.46</ele>
        <time>2012-06-17T14:40:12Z</time>
      </trkpt>
      <trkpt lat="44.20712" lon="4.03021">
        <ele>203.46</ele>
        <time>2012-06-17T14:40:13Z</time>
      </trkpt>
      <trkpt lat="44.20705" lon="4.03019">
        <ele>202.98</ele>
        <time>2012-06-17T14:40:18Z</time>
      </trkpt>
      <trkpt lat="44.20705" lon="4.03021">
        <ele>203.46</ele>
        <time>2012-06-17T14:40:19Z</time>
      </trkpt>
      <trkpt lat="44.20704" lon="4.03025">
        <ele>203.46</ele>
        <time>2012-06-17T14:40:20Z</time>
      </trkpt>
      <trkpt lat="44.20705" lon="4.03029">
        <ele>203.46</ele>
        <time>2012-06-17T14:40:21Z</time>
      </trkpt>
      <trkpt lat="44.20706" lon="4.03034">
        <ele>202.98</ele>
        <time>2012-06-17T14:40:22Z</time>
      </trkpt>
      <trkpt lat="44.20707" lon="4.03042">
        <ele>202.98</ele>
        <time>2012-06-17T14:40:23Z</time>
      </trkpt>
      <trkpt lat="44.20708" lon="4.0305">
        <ele>203.46</ele>
        <time>2012-06-17T14:40:24Z</time>
      </trkpt>
      <trkpt lat="44.20708" lon="4.03059">
        <ele>202.49</ele>
        <time>2012-06-17T14:40:25Z</time>
      </trkpt>
      <trkpt lat="44.20709" lon="4.03068">
        <ele>202.49</ele>
        <time>2012-06-17T14:40:26Z</time>
      </trkpt>
      <trkpt lat="44.2071" lon="4.03077">
        <ele>202.49</ele>
        <time>2012-06-17T14:40:27Z</time>
      </trkpt>
      <trkpt lat="44.20711" lon="4.03086">
        <ele>201.53</ele>
        <time>2012-06-17T14:40:28Z</time>
      </trkpt>
      <trkpt lat="44.20713" lon="4.03102">
        <ele>201.05</ele>
        <time>2012-06-17T14:40:30Z</time>
      </trkpt>
      <trkpt lat="44.20719" lon="4.03151">
        <ele>200.57</ele>
        <time>2012-06-17T14:40:37Z</time>
      </trkpt>
      <trkpt lat="44.2072" lon="4.03158">
        <ele>200.57</ele>
        <time>2012-06-17T14:40:38Z</time>
      </trkpt>
      <trkpt lat="44.20721" lon="4.03165">
        <ele>200.57</ele>
        <time>2012-06-17T14:40:39Z</time>
      </trkpt>
      <trkpt lat="44.20723" lon="4.03172">
        <ele>200.57</ele>
        <time>2012-06-17T14:40:40Z</time>
      </trkpt>
      <trkpt lat="44.20725" lon="4.0318">
        <ele>200.57</ele>
        <time>2012-06-17T14:40:41Z</time>
      </trkpt>
      <trkpt lat="44.2073" lon="4.03213">
        <ele>200.57</ele>
        <time>2012-06-17T14:40:45Z</time>
      </trkpt>
      <trkpt lat="44.20734" lon="4.03248">
        <ele>199.61</ele>
        <time>2012-06-17T14:40:49Z</time>
      </trkpt>
      <trkpt lat="44.20736" lon="4.03256">
        <ele>200.09</ele>
        <time>2012-06-17T14:40:50Z</time>
      </trkpt>
      <trkpt lat="44.2074" lon="4.03298">
        <ele>199.13</ele>
        <time>2012-06-17T14:40:55Z</time>
      </trkpt>
      <trkpt lat="44.20747" lon="4.03328">
        <ele>198.65</ele>
        <time>2012-06-17T14:40:59Z</time>
      </trkpt>
      <trkpt lat="44.20749" lon="4.03342">
        <ele>198.65</ele>
        <time>2012-06-17T14:41:01Z</time>
      </trkpt>
      <trkpt lat="44.20753" lon="4.03379">
        <ele>197.69</ele>
        <time>2012-06-17T14:41:06Z</time>
      </trkpt>
      <trkpt lat="44.20754" lon="4.03386">
        <ele>197.21</ele>
        <time>2012-06-17T14:41:07Z</time>
      </trkpt>
      <trkpt lat="44.20766" lon="4.03494">
        <ele>195.28</ele>
        <time>2012-06-17T14:41:21Z</time>
      </trkpt>
      <trkpt lat="44.20765" lon="4.03505">
        <ele>195.77</ele>
        <time>2012-06-17T14:41:23Z</time>
      </trkpt>
      <trkpt lat="44.20762" lon="4.03509">
        <ele>195.28</ele>
        <time>2012-06-17T14:41:24Z</time>
      </trkpt>
      <trkpt lat="44.20758" lon="4.03511">
        <ele>195.77</ele>
        <time>2012-06-17T14:41:25Z</time>
      </trkpt>
      <trkpt lat="44.20755" lon="4.03511">
        <ele>195.77</ele>
        <time>2012-06-17T14:41:26Z</time>
      </trkpt>
      <trkpt lat="44.20751" lon="4.0351">
        <ele>196.25</ele>
        <time>2012-06-17T14:41:27Z</time>
      </trkpt>
      <trkpt lat="44.20724" lon="4.03514">
        <ele>198.17</ele>
        <time>2012-06-17T14:41:36Z</time>
      </trkpt>
      <trkpt lat="44.20719" lon="4.03515">
        <ele>198.17</ele>
        <time>2012-06-17T14:41:37Z</time>
      </trkpt>
      <trkpt lat="44.20709" lon="4.03518">
        <ele>197.21</ele>
        <time>2012-06-17T14:41:39Z</time>
      </trkpt>
      <trkpt lat="44.20694" lon="4.03527">
        <ele>197.21</ele>
        <time>2012-06-17T14:41:42Z</time>
      </trkpt>
      <trkpt lat="44.20689" lon="4.03529">
        <ele>197.21</ele>
        <time>2012-06-17T14:41:43Z</time>
      </trkpt>
      <trkpt lat="44.20683" lon="4.0353">
        <ele>196.73</ele>
        <time>2012-06-17T14:41:44Z</time>
      </trkpt>
      <trkpt lat="44.20652" lon="4.03529">
        <ele>196.73</ele>
        <time>2012-06-17T14:41:50Z</time>
      </trkpt>
      <trkpt lat="44.20593" lon="4.03516">
        <ele>196.73</ele>
        <time>2012-06-17T14:42:02Z</time>
      </trkpt>
      <trkpt lat="44.20535" lon="4.0349">
        <ele>196.73</ele>
        <time>2012-06-17T14:42:14Z</time>
      </trkpt>
      <trkpt lat="44.2049" lon="4.03454">
        <ele>196.25</ele>
        <time>2012-06-17T14:42:24Z</time>
      </trkpt>
      <trkpt lat="44.20486" lon="4.03449">
        <ele>196.25</ele>
        <time>2012-06-17T14:42:25Z</time>
      </trkpt>
      <trkpt lat="44.20482" lon="4.03445">
        <ele>196.25</ele>
        <time>2012-06-17T14:42:26Z</time>
      </trkpt>
      <trkpt lat="44.20477" lon="4.03442">
        <ele>196.25</ele>
        <time>2012-06-17T14:42:27Z</time>
      </trkpt>
      <trkpt lat="44.20471" lon="4.03439">
        <ele>195.77</ele>
        <time>2012-06-17T14:42:28Z</time>
      </trkpt>
      <trkpt lat="44.20466" lon="4.03438">
        <ele>195.77</ele>
        <time>2012-06-17T14:42:29Z</time>
      </trkpt>
      <trkpt lat="44.20461" lon="4.03437">
        <ele>195.28</ele>
        <time>2012-06-17T14:42:30Z</time>
      </trkpt>
      <trkpt lat="44.20391" lon="4.03421">
        <ele>194.8</ele>
        <time>2012-06-17T14:42:44Z</time>
      </trkpt>
      <trkpt lat="44.20382" lon="4.03421">
        <ele>194.8</ele>
        <time>2012-06-17T14:42:46Z</time>
      </trkpt>
      <trkpt lat="44.20378" lon="4.03423">
        <ele>194.8</ele>
        <time>2012-06-17T14:42:47Z</time>
      </trkpt>
      <trkpt lat="44.20373" lon="4.03426">
        <ele>194.8</ele>
        <time>2012-06-17T14:42:48Z</time>
      </trkpt>
      <trkpt lat="44.2037" lon="4.0343">
        <ele>195.28</ele>
        <time>2012-06-17T14:42:49Z</time>
      </trkpt>
      <trkpt lat="44.20367" lon="4.03436">
        <ele>194.8</ele>
        <time>2012-06-17T14:42:50Z</time>
      </trkpt>
      <trkpt lat="44.20365" lon="4.03442">
        <ele>194.8</ele>
        <time>2012-06-17T14:42:51Z</time>
      </trkpt>
      <trkpt lat="44.20341" lon="4.03506">
        <ele>194.32</ele>
        <time>2012-06-17T14:43:01Z</time>
      </trkpt>
      <trkpt lat="44.20333" lon="4.03531">
        <ele>193.84</ele>
        <time>2012-06-17T14:43:05Z</time>
      </trkpt>
      <trkpt lat="44.2033" lon="4.0355">
        <ele>193.84</ele>
        <time>2012-06-17T14:43:08Z</time>
      </trkpt>
      <trkpt lat="44.2033" lon="4.03556">
        <ele>193.36</ele>
        <time>2012-06-17T14:43:09Z</time>
      </trkpt>
      <trkpt lat="44.2033" lon="4.03581">
        <ele>193.36</ele>
        <time>2012-06-17T14:43:13Z</time>
      </trkpt>
      <trkpt lat="44.20329" lon="4.03594">
        <ele>193.36</ele>
        <time>2012-06-17T14:43:15Z</time>
      </trkpt>
      <trkpt lat="44.20328" lon="4.03601">
        <ele>192.88</ele>
        <time>2012-06-17T14:43:16Z</time>
      </trkpt>
      <trkpt lat="44.20328" lon="4.03607">
        <ele>193.36</ele>
        <time>2012-06-17T14:43:17Z</time>
      </trkpt>
      <trkpt lat="44.20326" lon="4.03636">
        <ele>191.92</ele>
        <time>2012-06-17T14:43:22Z</time>
      </trkpt>
      <trkpt lat="44.20326" lon="4.03642">
        <ele>192.4</ele>
        <time>2012-06-17T14:43:23Z</time>
      </trkpt>
      <trkpt lat="44.20321" lon="4.03706">
        <ele>191.44</ele>
        <time>2012-06-17T14:43:33Z</time>
      </trkpt>
      <trkpt lat="44.20321" lon="4.03712">
        <ele>191.44</ele>
        <time>2012-06-17T14:43:34Z</time>
      </trkpt>
      <trkpt lat="44.2032" lon="4.03726">
        <ele>191.92</ele>
        <time>2012-06-17T14:43:36Z</time>
      </trkpt>
      <trkpt lat="44.20318" lon="4.03732">
        <ele>191.44</ele>
        <time>2012-06-17T14:43:37Z</time>
      </trkpt>
      <trkpt lat="44.20315" lon="4.03738">
        <ele>190.96</ele>
        <time>2012-06-17T14:43:38Z</time>
      </trkpt>
      <trkpt lat="44.20311" lon="4.03742">
        <ele>190.96</ele>
        <time>2012-06-17T14:43:39Z</time>
      </trkpt>
      <trkpt lat="44.20307" lon="4.03746">
        <ele>190.96</ele>
        <time>2012-06-17T14:43:40Z</time>
      </trkpt>
      <trkpt lat="44.20303" lon="4.03749">
        <ele>191.44</ele>
        <time>2012-06-17T14:43:41Z</time>
      </trkpt>
      <trkpt lat="44.20299" lon="4.03753">
        <ele>190.96</ele>
        <time>2012-06-17T14:43:42Z</time>
      </trkpt>
      <trkpt lat="44.20295" lon="4.03756">
        <ele>191.44</ele>
        <time>2012-06-17T14:43:43Z</time>
      </trkpt>
      <trkpt lat="44.20291" lon="4.03758">
        <ele>191.44</ele>
        <time>2012-06-17T14:43:44Z</time>
      </trkpt>
      <trkpt lat="44.20286" lon="4.03759">
        <ele>191.44</ele>
        <time>2012-06-17T14:43:45Z</time>
      </trkpt>
      <trkpt lat="44.20277" lon="4.03761">
        <ele>191.44</ele>
        <time>2012-06-17T14:43:47Z</time>
      </trkpt>
      <trkpt lat="44.20259" lon="4.03762">
        <ele>191.92</ele>
        <time>2012-06-17T14:43:51Z</time>
      </trkpt>
      <trkpt lat="44.20255" lon="4.03762">
        <ele>191.92</ele>
        <time>2012-06-17T14:43:52Z</time>
      </trkpt>
      <trkpt lat="44.2025" lon="4.03763">
        <ele>191.92</ele>
        <time>2012-06-17T14:43:53Z</time>
      </trkpt>
      <trkpt lat="44.20246" lon="4.03766">
        <ele>191.92</ele>
        <time>2012-06-17T14:43:54Z</time>
      </trkpt>
      <trkpt lat="44.20242" lon="4.03771">
        <ele>192.4</ele>
        <time>2012-06-17T14:43:55Z</time>
      </trkpt>
      <trkpt lat="44.20239" lon="4.03778">
        <ele>191.92</ele>
        <time>2012-06-17T14:43:56Z</time>
      </trkpt>
      <trkpt lat="44.20236" lon="4.03786">
        <ele>191.92</ele>
        <time>2012-06-17T14:43:57Z</time>
      </trkpt>
      <trkpt lat="44.20234" lon="4.03794">
        <ele>191.44</ele>
        <time>2012-06-17T14:43:58Z</time>
      </trkpt>
      <trkpt lat="44.20224" lon="4.03843">
        <ele>190.48</ele>
        <time>2012-06-17T14:44:04Z</time>
      </trkpt>
      <trkpt lat="44.20221" lon="4.0385">
        <ele>190.48</ele>
        <time>2012-06-17T14:44:05Z</time>
      </trkpt>
      <trkpt lat="44.20217" lon="4.03855">
        <ele>190.48</ele>
        <time>2012-06-17T14:44:06Z</time>
      </trkpt>
      <trkpt lat="44.20213" lon="4.0386">
        <ele>190.48</ele>
        <time>2012-06-17T14:44:07Z</time>
      </trkpt>
      <trkpt lat="44.20208" lon="4.03865">
        <ele>190.48</ele>
        <time>2012-06-17T14:44:08Z</time>
      </trkpt>
      <trkpt lat="44.20204" lon="4.03868">
        <ele>190.48</ele>
        <time>2012-06-17T14:44:09Z</time>
      </trkpt>
      <trkpt lat="44.20198" lon="4.03871">
        <ele>190.48</ele>
        <time>2012-06-17T14:44:10Z</time>
      </trkpt>
      <trkpt lat="44.20111" lon="4.03922">
        <ele>189.52</ele>
        <time>2012-06-17T14:44:27Z</time>
      </trkpt>
      <trkpt lat="44.20052" lon="4.03982">
        <ele>190</ele>
        <time>2012-06-17T14:44:40Z</time>
      </trkpt>
      <trkpt lat="44.20008" lon="4.0407">
        <ele>190</ele>
        <time>2012-06-17T14:44:55Z</time>
      </trkpt>
      <trkpt lat="44.20003" lon="4.04081">
        <ele>190</ele>
        <time>2012-06-17T14:44:57Z</time>
      </trkpt>
      <trkpt lat="44.19978" lon="4.04193">
        <ele>190.48</ele>
        <time>2012-06-17T14:45:12Z</time>
      </trkpt>
      <trkpt lat="44.1997" lon="4.04323">
        <ele>189.52</ele>
        <time>2012-06-17T14:45:28Z</time>
      </trkpt>
      <trkpt lat="44.19982" lon="4.04415">
        <ele>189.52</ele>
        <time>2012-06-17T14:45:41Z</time>
      </trkpt>
      <trkpt lat="44.19998" lon="4.04475">
        <ele>189.04</ele>
        <time>2012-06-17T14:45:50Z</time>
      </trkpt>
      <trkpt lat="44.2" lon="4.04482">
        <ele>189.04</ele>
        <time>2012-06-17T14:45:51Z</time>
      </trkpt>
      <trkpt lat="44.20028" lon="4.04572">
        <ele>188.56</ele>
        <time>2012-06-17T14:46:05Z</time>
      </trkpt>
      <trkpt lat="44.20063" lon="4.0469">
        <ele>188.08</ele>
        <time>2012-06-17T14:46:22Z</time>
      </trkpt>
      <trkpt lat="44.20076" lon="4.04733">
        <ele>188.08</ele>
        <time>2012-06-17T14:46:29Z</time>
      </trkpt>
      <trkpt lat="44.20066" lon="4.04784">
        <ele>189.04</ele>
        <time>2012-06-17T14:46:40Z</time>
      </trkpt>
      <trkpt lat="44.20038" lon="4.04788">
        <ele>189.52</ele>
        <time>2012-06-17T14:46:48Z</time>
      </trkpt>
      <trkpt lat="44.20033" lon="4.04786">
        <ele>189.52</ele>
        <time>2012-06-17T14:46:49Z</time>
      </trkpt>
      <trkpt lat="44.20021" lon="4.04779">
        <ele>189.04</ele>
        <time>2012-06-17T14:46:52Z</time>
      </trkpt>
      <trkpt lat="44.20016" lon="4.04777">
        <ele>189.04</ele>
        <time>2012-06-17T14:46:53Z</time>
      </trkpt>
      <trkpt lat="44.20012" lon="4.04775">
        <ele>189.04</ele>
        <time>2012-06-17T14:46:54Z</time>
      </trkpt>
      <trkpt lat="44.20007" lon="4.04772">
        <ele>189.04</ele>
        <time>2012-06-17T14:46:55Z</time>
      </trkpt>
      <trkpt lat="44.20002" lon="4.0477">
        <ele>189.04</ele>
        <time>2012-06-17T14:46:56Z</time>
      </trkpt>
      <trkpt lat="44.19997" lon="4.04768">
        <ele>188.56</ele>
        <time>2012-06-17T14:46:57Z</time>
      </trkpt>
      <trkpt lat="44.19987" lon="4.04765">
        <ele>188.08</ele>
        <time>2012-06-17T14:46:59Z</time>
      </trkpt>
      <trkpt lat="44.19982" lon="4.04763">
        <ele>188.08</ele>
        <time>2012-06-17T14:47:00Z</time>
      </trkpt>
      <trkpt lat="44.19977" lon="4.04761">
        <ele>188.08</ele>
        <time>2012-06-17T14:47:01Z</time>
      </trkpt>
      <trkpt lat="44.19972" lon="4.04758">
        <ele>188.08</ele>
        <time>2012-06-17T14:47:02Z</time>
      </trkpt>
      <trkpt lat="44.19968" lon="4.04755">
        <ele>187.59</ele>
        <time>2012-06-17T14:47:03Z</time>
      </trkpt>
      <trkpt lat="44.19963" lon="4.04751">
        <ele>187.59</ele>
        <time>2012-06-17T14:47:04Z</time>
      </trkpt>
      <trkpt lat="44.1994" lon="4.04723">
        <ele>187.11</ele>
        <time>2012-06-17T14:47:10Z</time>
      </trkpt>
      <trkpt lat="44.19927" lon="4.047">
        <ele>187.11</ele>
        <time>2012-06-17T14:47:14Z</time>
      </trkpt>
      <trkpt lat="44.19925" lon="4.04695">
        <ele>187.11</ele>
        <time>2012-06-17T14:47:15Z</time>
      </trkpt>
      <trkpt lat="44.19901" lon="4.04644">
        <ele>188.08</ele>
        <time>2012-06-17T14:47:26Z</time>
      </trkpt>
      <trkpt lat="44.19896" lon="4.04636">
        <ele>188.08</ele>
        <time>2012-06-17T14:47:28Z</time>
      </trkpt>
      <trkpt lat="44.19893" lon="4.04632">
        <ele>188.08</ele>
        <time>2012-06-17T14:47:29Z</time>
      </trkpt>
      <trkpt lat="44.1989" lon="4.04628">
        <ele>188.56</ele>
        <time>2012-06-17T14:47:30Z</time>
      </trkpt>
      <trkpt lat="44.19868" lon="4.04607">
        <ele>188.08</ele>
        <time>2012-06-17T14:47:37Z</time>
      </trkpt>
      <trkpt lat="44.19865" lon="4.04603">
        <ele>187.11</ele>
        <time>2012-06-17T14:47:38Z</time>
      </trkpt>
      <trkpt lat="44.19847" lon="4.04587">
        <ele>186.63</ele>
        <time>2012-06-17T14:47:43Z</time>
      </trkpt>
      <trkpt lat="44.19835" lon="4.04576">
        <ele>187.11</ele>
        <time>2012-06-17T14:47:46Z</time>
      </trkpt>
      <trkpt lat="44.19822" lon="4.04565">
        <ele>187.11</ele>
        <time>2012-06-17T14:47:49Z</time>
      </trkpt>
      <trkpt lat="44.19817" lon="4.04562">
        <ele>187.11</ele>
        <time>2012-06-17T14:47:50Z</time>
      </trkpt>
      <trkpt lat="44.19812" lon="4.04559">
        <ele>186.63</ele>
        <time>2012-06-17T14:47:51Z</time>
      </trkpt>
      <trkpt lat="44.19806" lon="4.04556">
        <ele>186.15</ele>
        <time>2012-06-17T14:47:52Z</time>
      </trkpt>
      <trkpt lat="44.19801" lon="4.04555">
        <ele>186.15</ele>
        <time>2012-06-17T14:47:53Z</time>
      </trkpt>
      <trkpt lat="44.19795" lon="4.04555">
        <ele>186.15</ele>
        <time>2012-06-17T14:47:54Z</time>
      </trkpt>
      <trkpt lat="44.19779" lon="4.04553">
        <ele>185.67</ele>
        <time>2012-06-17T14:47:57Z</time>
      </trkpt>
      <trkpt lat="44.19774" lon="4.04553">
        <ele>185.19</ele>
        <time>2012-06-17T14:47:58Z</time>
      </trkpt>
      <trkpt lat="44.19707" lon="4.04545">
        <ele>183.75</ele>
        <time>2012-06-17T14:48:12Z</time>
      </trkpt>
      <trkpt lat="44.19622" lon="4.0453">
        <ele>182.79</ele>
        <time>2012-06-17T14:48:29Z</time>
      </trkpt>
      <trkpt lat="44.19545" lon="4.04516">
        <ele>181.83</ele>
        <time>2012-06-17T14:48:45Z</time>
      </trkpt>
      <trkpt lat="44.19489" lon="4.04511">
        <ele>181.35</ele>
        <time>2012-06-17T14:48:56Z</time>
      </trkpt>
      <trkpt lat="44.19419" lon="4.04468">
        <ele>181.35</ele>
        <time>2012-06-17T14:49:11Z</time>
      </trkpt>
      <trkpt lat="44.19383" lon="4.04445">
        <ele>181.35</ele>
        <time>2012-06-17T14:49:19Z</time>
      </trkpt>
      <trkpt lat="44.19297" lon="4.04424">
        <ele>179.9</ele>
        <time>2012-06-17T14:49:36Z</time>
      </trkpt>
      <trkpt lat="44.19215" lon="4.04411">
        <ele>181.83</ele>
        <time>2012-06-17T14:49:52Z</time>
      </trkpt>
      <trkpt lat="44.19164" lon="4.04404">
        <ele>184.71</ele>
        <time>2012-06-17T14:50:03Z</time>
      </trkpt>
      <trkpt lat="44.1916" lon="4.04403">
        <ele>185.67</ele>
        <time>2012-06-17T14:50:04Z</time>
      </trkpt>
      <trkpt lat="44.19148" lon="4.04402">
        <ele>186.15</ele>
        <time>2012-06-17T14:50:07Z</time>
      </trkpt>
      <trkpt lat="44.19144" lon="4.04401">
        <ele>186.63</ele>
        <time>2012-06-17T14:50:08Z</time>
      </trkpt>
      <trkpt lat="44.19136" lon="4.04401">
        <ele>186.63</ele>
        <time>2012-06-17T14:50:10Z</time>
      </trkpt>
      <trkpt lat="44.19094" lon="4.04402">
        <ele>188.56</ele>
        <time>2012-06-17T14:50:20Z</time>
      </trkpt>
      <trkpt lat="44.1909" lon="4.04403">
        <ele>188.56</ele>
        <time>2012-06-17T14:50:21Z</time>
      </trkpt>
      <trkpt lat="44.19086" lon="4.04404">
        <ele>189.04</ele>
        <time>2012-06-17T14:50:22Z</time>
      </trkpt>
      <trkpt lat="44.19045" lon="4.04423">
        <ele>190</ele>
        <time>2012-06-17T14:50:35Z</time>
      </trkpt>
      <trkpt lat="44.1904" lon="4.04413">
        <ele>190</ele>
        <time>2012-06-17T14:50:40Z</time>
      </trkpt>
      <trkpt lat="44.19039" lon="4.04412">
        <ele>190.48</ele>
        <time>2012-06-17T14:50:41Z</time>
      </trkpt>
      <trkpt lat="44.19038" lon="4.04411">
        <ele>190</ele>
        <time>2012-06-17T14:50:42Z</time>
      </trkpt>
      <trkpt lat="44.19037" lon="4.0441">
        <ele>190.48</ele>
        <time>2012-06-17T14:50:43Z</time>
      </trkpt>
      <trkpt lat="44.19035" lon="4.0441">
        <ele>190.48</ele>
        <time>2012-06-17T14:50:44Z</time>
      </trkpt>
      <trkpt lat="44.19034" lon="4.04409">
        <ele>190.48</ele>
        <time>2012-06-17T14:50:45Z</time>
      </trkpt>
      <trkpt lat="44.19032" lon="4.04409">
        <ele>190.48</ele>
        <time>2012-06-17T14:50:46Z</time>
      </trkpt>
      <trkpt lat="44.1903" lon="4.04407">
        <ele>190.48</ele>
        <time>2012-06-17T14:50:47Z</time>
      </trkpt>
      <trkpt lat="44.19028" lon="4.04406">
        <ele>190</ele>
        <time>2012-06-17T14:50:48Z</time>
      </trkpt>
      <trkpt lat="44.19025" lon="4.04405">
        <ele>190</ele>
        <time>2012-06-17T14:50:49Z</time>
      </trkpt>
      <trkpt lat="44.19023" lon="4.04404">
        <ele>190.48</ele>
        <time>2012-06-17T14:50:50Z</time>
      </trkpt>
      <trkpt lat="44.19021" lon="4.04403">
        <ele>190.96</ele>
        <time>2012-06-17T14:50:51Z</time>
      </trkpt>
      <trkpt lat="44.19018" lon="4.04403">
        <ele>190.48</ele>
        <time>2012-06-17T14:50:52Z</time>
      </trkpt>
      <trkpt lat="44.19015" lon="4.04402">
        <ele>190.96</ele>
        <time>2012-06-17T14:50:53Z</time>
      </trkpt>
      <trkpt lat="44.1897" lon="4.04418">
        <ele>190.48</ele>
        <time>2012-06-17T14:51:06Z</time>
      </trkpt>
      <trkpt lat="44.18899" lon="4.04448">
        <ele>189.04</ele>
        <time>2012-06-17T14:51:22Z</time>
      </trkpt>
      <trkpt lat="44.18895" lon="4.0445">
        <ele>189.52</ele>
        <time>2012-06-17T14:51:23Z</time>
      </trkpt>
      <trkpt lat="44.18826" lon="4.04477">
        <ele>188.08</ele>
        <time>2012-06-17T14:51:37Z</time>
      </trkpt>
      <trkpt lat="44.1874" lon="4.04503">
        <ele>187.11</ele>
        <time>2012-06-17T14:51:53Z</time>
      </trkpt>
      <trkpt lat="44.18678" lon="4.04518">
        <ele>187.11</ele>
        <time>2012-06-17T14:52:05Z</time>
      </trkpt>
      <trkpt lat="44.18601" lon="4.04535">
        <ele>185.67</ele>
        <time>2012-06-17T14:52:20Z</time>
      </trkpt>
      <trkpt lat="44.18528" lon="4.04553">
        <ele>185.67</ele>
        <time>2012-06-17T14:52:35Z</time>
      </trkpt>
      <trkpt lat="44.18418" lon="4.04579">
        <ele>182.79</ele>
        <time>2012-06-17T14:52:54Z</time>
      </trkpt>
      <trkpt lat="44.18316" lon="4.04625">
        <ele>180.38</ele>
        <time>2012-06-17T14:53:09Z</time>
      </trkpt>
      <trkpt lat="44.18289" lon="4.04651">
        <ele>180.87</ele>
        <time>2012-06-17T14:53:14Z</time>
      </trkpt>
      <trkpt lat="44.18237" lon="4.04729">
        <ele>181.83</ele>
        <time>2012-06-17T14:53:27Z</time>
      </trkpt>
      <trkpt lat="44.18179" lon="4.04822">
        <ele>181.83</ele>
        <time>2012-06-17T14:53:44Z</time>
      </trkpt>
      <trkpt lat="44.18111" lon="4.04928">
        <ele>179.9</ele>
        <time>2012-06-17T14:54:02Z</time>
      </trkpt>
      <trkpt lat="44.18044" lon="4.05022">
        <ele>177.02</ele>
        <time>2012-06-17T14:54:17Z</time>
      </trkpt>
      <trkpt lat="44.17965" lon="4.0509">
        <ele>177.02</ele>
        <time>2012-06-17T14:54:30Z</time>
      </trkpt>
      <trkpt lat="44.17868" lon="4.0514">
        <ele>175.1</ele>
        <time>2012-06-17T14:54:45Z</time>
      </trkpt>
      <trkpt lat="44.17776" lon="4.05149">
        <ele>173.17</ele>
        <time>2012-06-17T14:54:59Z</time>
      </trkpt>
      <trkpt lat="44.17702" lon="4.05094">
        <ele>172.69</ele>
        <time>2012-06-17T14:55:12Z</time>
      </trkpt>
      <trkpt lat="44.17614" lon="4.04996">
        <ele>172.69</ele>
        <time>2012-06-17T14:55:30Z</time>
      </trkpt>
      <trkpt lat="44.1756" lon="4.04953">
        <ele>171.73</ele>
        <time>2012-06-17T14:55:39Z</time>
      </trkpt>
      <trkpt lat="44.17471" lon="4.04902">
        <ele>170.77</ele>
        <time>2012-06-17T14:55:52Z</time>
      </trkpt>
      <trkpt lat="44.17378" lon="4.04863">
        <ele>170.29</ele>
        <time>2012-06-17T14:56:05Z</time>
      </trkpt>
      <trkpt lat="44.17263" lon="4.0485">
        <ele>168.85</ele>
        <time>2012-06-17T14:56:21Z</time>
      </trkpt>
      <trkpt lat="44.17142" lon="4.04881">
        <ele>168.85</ele>
        <time>2012-06-17T14:56:39Z</time>
      </trkpt>
      <trkpt lat="44.17108" lon="4.04895">
        <ele>168.85</ele>
        <time>2012-06-17T14:56:44Z</time>
      </trkpt>
      <trkpt lat="44.17083" lon="4.04912">
        <ele>169.33</ele>
        <time>2012-06-17T14:56:48Z</time>
      </trkpt>
      <trkpt lat="44.17018" lon="4.05003">
        <ele>168.37</ele>
        <time>2012-06-17T14:57:01Z</time>
      </trkpt>
      <trkpt lat="44.16971" lon="4.05129">
        <ele>166.45</ele>
        <time>2012-06-17T14:57:15Z</time>
      </trkpt>
      <trkpt lat="44.16951" lon="4.05155">
        <ele>166.45</ele>
        <time>2012-06-17T14:57:19Z</time>
      </trkpt>
      <trkpt lat="44.16945" lon="4.0516">
        <ele>165.96</ele>
        <time>2012-06-17T14:57:20Z</time>
      </trkpt>
      <trkpt lat="44.16869" lon="4.05199">
        <ele>165.96</ele>
        <time>2012-06-17T14:57:32Z</time>
      </trkpt>
      <trkpt lat="44.16786" lon="4.05263">
        <ele>164.52</ele>
        <time>2012-06-17T14:57:46Z</time>
      </trkpt>
      <trkpt lat="44.16729" lon="4.05314">
        <ele>163.08</ele>
        <time>2012-06-17T14:57:56Z</time>
      </trkpt>
      <trkpt lat="44.16725" lon="4.0532">
        <ele>163.08</ele>
        <time>2012-06-17T14:57:57Z</time>
      </trkpt>
      <trkpt lat="44.16716" lon="4.05332">
        <ele>163.08</ele>
        <time>2012-06-17T14:57:59Z</time>
      </trkpt>
      <trkpt lat="44.16706" lon="4.05344">
        <ele>163.08</ele>
        <time>2012-06-17T14:58:01Z</time>
      </trkpt>
      <trkpt lat="44.16667" lon="4.05387">
        <ele>161.16</ele>
        <time>2012-06-17T14:58:10Z</time>
      </trkpt>
      <trkpt lat="44.16666" lon="4.05391">
        <ele>160.68</ele>
        <time>2012-06-17T14:58:11Z</time>
      </trkpt>
      <trkpt lat="44.16666" lon="4.05395">
        <ele>160.68</ele>
        <time>2012-06-17T14:58:12Z</time>
      </trkpt>
      <trkpt lat="44.16666" lon="4.0541">
        <ele>160.68</ele>
        <time>2012-06-17T14:58:16Z</time>
      </trkpt>
      <trkpt lat="44.16665" lon="4.05414">
        <ele>161.16</ele>
        <time>2012-06-17T14:58:17Z</time>
      </trkpt>
      <trkpt lat="44.16663" lon="4.05418">
        <ele>161.16</ele>
        <time>2012-06-17T14:58:18Z</time>
      </trkpt>
      <trkpt lat="44.16657" lon="4.05425">
        <ele>161.16</ele>
        <time>2012-06-17T14:58:20Z</time>
      </trkpt>
      <trkpt lat="44.1663" lon="4.05461">
        <ele>161.16</ele>
        <time>2012-06-17T14:58:28Z</time>
      </trkpt>
      <trkpt lat="44.16626" lon="4.05466">
        <ele>161.16</ele>
        <time>2012-06-17T14:58:29Z</time>
      </trkpt>
      <trkpt lat="44.16623" lon="4.0547">
        <ele>161.16</ele>
        <time>2012-06-17T14:58:30Z</time>
      </trkpt>
      <trkpt lat="44.16615" lon="4.05486">
        <ele>161.16</ele>
        <time>2012-06-17T14:58:34Z</time>
      </trkpt>
      <trkpt lat="44.16614" lon="4.05488">
        <ele>160.68</ele>
        <time>2012-06-17T14:58:35Z</time>
      </trkpt>
      <trkpt lat="44.16614" lon="4.05492">
        <ele>160.68</ele>
        <time>2012-06-17T14:58:36Z</time>
      </trkpt>
      <trkpt lat="44.16615" lon="4.05496">
        <ele>160.2</ele>
        <time>2012-06-17T14:58:37Z</time>
      </trkpt>
      <trkpt lat="44.16617" lon="4.055">
        <ele>160.68</ele>
        <time>2012-06-17T14:58:38Z</time>
      </trkpt>
      <trkpt lat="44.1662" lon="4.05503">
        <ele>160.2</ele>
        <time>2012-06-17T14:58:39Z</time>
      </trkpt>
      <trkpt lat="44.16624" lon="4.05506">
        <ele>160.2</ele>
        <time>2012-06-17T14:58:40Z</time>
      </trkpt>
      <trkpt lat="44.1667" lon="4.05537">
        <ele>160.68</ele>
        <time>2012-06-17T14:58:51Z</time>
      </trkpt>
      <trkpt lat="44.16675" lon="4.0554">
        <ele>161.16</ele>
        <time>2012-06-17T14:58:52Z</time>
      </trkpt>
      <trkpt lat="44.16679" lon="4.05545">
        <ele>160.68</ele>
        <time>2012-06-17T14:58:53Z</time>
      </trkpt>
      <trkpt lat="44.16683" lon="4.05549">
        <ele>160.68</ele>
        <time>2012-06-17T14:58:54Z</time>
      </trkpt>
      <trkpt lat="44.16686" lon="4.05554">
        <ele>161.16</ele>
        <time>2012-06-17T14:58:55Z</time>
      </trkpt>
      <trkpt lat="44.16689" lon="4.0556">
        <ele>161.64</ele>
        <time>2012-06-17T14:58:56Z</time>
      </trkpt>
      <trkpt lat="44.16692" lon="4.05566">
        <ele>161.16</ele>
        <time>2012-06-17T14:58:57Z</time>
      </trkpt>
      <trkpt lat="44.16694" lon="4.05572">
        <ele>161.16</ele>
        <time>2012-06-17T14:58:58Z</time>
      </trkpt>
      <trkpt lat="44.16696" lon="4.05578">
        <ele>161.16</ele>
        <time>2012-06-17T14:58:59Z</time>
      </trkpt>
      <trkpt lat="44.16697" lon="4.05585">
        <ele>161.16</ele>
        <time>2012-06-17T14:59:00Z</time>
      </trkpt>
      <trkpt lat="44.16699" lon="4.05598">
        <ele>161.16</ele>
        <time>2012-06-17T14:59:02Z</time>
      </trkpt>
      <trkpt lat="44.167" lon="4.05605">
        <ele>161.16</ele>
        <time>2012-06-17T14:59:03Z</time>
      </trkpt>
      <trkpt lat="44.167" lon="4.05611">
        <ele>161.16</ele>
        <time>2012-06-17T14:59:04Z</time>
      </trkpt>
      <trkpt lat="44.16696" lon="4.05632">
        <ele>161.16</ele>
        <time>2012-06-17T14:59:07Z</time>
      </trkpt>
      <trkpt lat="44.16693" lon="4.05638">
        <ele>161.64</ele>
        <time>2012-06-17T14:59:08Z</time>
      </trkpt>
      <trkpt lat="44.16658" lon="4.05744">
        <ele>160.68</ele>
        <time>2012-06-17T14:59:23Z</time>
      </trkpt>
      <trkpt lat="44.16614" lon="4.05856">
        <ele>159.72</ele>
        <time>2012-06-17T14:59:39Z</time>
      </trkpt>
      <trkpt lat="44.16597" lon="4.05891">
        <ele>159.72</ele>
        <time>2012-06-17T14:59:44Z</time>
      </trkpt>
      <trkpt lat="44.16536" lon="4.05982">
        <ele>159.24</ele>
        <time>2012-06-17T14:59:58Z</time>
      </trkpt>
      <trkpt lat="44.16455" lon="4.0606">
        <ele>159.72</ele>
        <time>2012-06-17T15:00:13Z</time>
      </trkpt>
      <trkpt lat="44.16428" lon="4.06077">
        <ele>159.72</ele>
        <time>2012-06-17T15:00:18Z</time>
      </trkpt>
      <trkpt lat="44.16398" lon="4.06096">
        <ele>159.24</ele>
        <time>2012-06-17T15:00:24Z</time>
      </trkpt>
      <trkpt lat="44.16361" lon="4.06121">
        <ele>158.75</ele>
        <time>2012-06-17T15:00:31Z</time>
      </trkpt>
      <trkpt lat="44.16274" lon="4.06144">
        <ele>157.79</ele>
        <time>2012-06-17T15:00:45Z</time>
      </trkpt>
      <trkpt lat="44.16176" lon="4.06177">
        <ele>157.31</ele>
        <time>2012-06-17T15:01:02Z</time>
      </trkpt>
      <trkpt lat="44.16111" lon="4.062">
        <ele>157.31</ele>
        <time>2012-06-17T15:01:15Z</time>
      </trkpt>
      <trkpt lat="44.16102" lon="4.06204">
        <ele>157.79</ele>
        <time>2012-06-17T15:01:17Z</time>
      </trkpt>
      <trkpt lat="44.16053" lon="4.06218">
        <ele>160.2</ele>
        <time>2012-06-17T15:01:26Z</time>
      </trkpt>
      <trkpt lat="44.16009" lon="4.06226">
        <ele>161.64</ele>
        <time>2012-06-17T15:01:34Z</time>
      </trkpt>
      <trkpt lat="44.16004" lon="4.06227">
        <ele>161.16</ele>
        <time>2012-06-17T15:01:35Z</time>
      </trkpt>
      <trkpt lat="44.15998" lon="4.06229">
        <ele>161.16</ele>
        <time>2012-06-17T15:01:36Z</time>
      </trkpt>
      <trkpt lat="44.15955" lon="4.06245">
        <ele>157.79</ele>
        <time>2012-06-17T15:01:42Z</time>
      </trkpt>
      <trkpt lat="44.1594" lon="4.06252">
        <ele>156.83</ele>
        <time>2012-06-17T15:01:44Z</time>
      </trkpt>
      <trkpt lat="44.15853" lon="4.06283">
        <ele>155.87</ele>
        <time>2012-06-17T15:01:57Z</time>
      </trkpt>
      <trkpt lat="44.15787" lon="4.06304">
        <ele>155.39</ele>
        <time>2012-06-17T15:02:07Z</time>
      </trkpt>
      <trkpt lat="44.15706" lon="4.06324">
        <ele>154.91</ele>
        <time>2012-06-17T15:02:20Z</time>
      </trkpt>
      <trkpt lat="44.15624" lon="4.06328">
        <ele>154.91</ele>
        <time>2012-06-17T15:02:33Z</time>
      </trkpt>
      <trkpt lat="44.15619" lon="4.0633">
        <ele>155.39</ele>
        <time>2012-06-17T15:02:34Z</time>
      </trkpt>
      <trkpt lat="44.15614" lon="4.06334">
        <ele>155.39</ele>
        <time>2012-06-17T15:02:35Z</time>
      </trkpt>
      <trkpt lat="44.15611" lon="4.06339">
        <ele>156.35</ele>
        <time>2012-06-17T15:02:36Z</time>
      </trkpt>
      <trkpt lat="44.15609" lon="4.06347">
        <ele>156.35</ele>
        <time>2012-06-17T15:02:37Z</time>
      </trkpt>
      <trkpt lat="44.15609" lon="4.06356">
        <ele>157.31</ele>
        <time>2012-06-17T15:02:38Z</time>
      </trkpt>
      <trkpt lat="44.1561" lon="4.06364">
        <ele>157.79</ele>
        <time>2012-06-17T15:02:39Z</time>
      </trkpt>
      <trkpt lat="44.15609" lon="4.06372">
        <ele>158.27</ele>
        <time>2012-06-17T15:02:40Z</time>
      </trkpt>
      <trkpt lat="44.15606" lon="4.06378">
        <ele>158.75</ele>
        <time>2012-06-17T15:02:41Z</time>
      </trkpt>
      <trkpt lat="44.156" lon="4.0638">
        <ele>158.75</ele>
        <time>2012-06-17T15:02:42Z</time>
      </trkpt>
      <trkpt lat="44.15594" lon="4.06381">
        <ele>159.24</ele>
        <time>2012-06-17T15:02:43Z</time>
      </trkpt>
      <trkpt lat="44.15588" lon="4.06381">
        <ele>160.2</ele>
        <time>2012-06-17T15:02:44Z</time>
      </trkpt>
      <trkpt lat="44.15582" lon="4.06382">
        <ele>160.68</ele>
        <time>2012-06-17T15:02:45Z</time>
      </trkpt>
      <trkpt lat="44.15576" lon="4.06382">
        <ele>161.16</ele>
        <time>2012-06-17T15:02:46Z</time>
      </trkpt>
      <trkpt lat="44.15567" lon="4.06383">
        <ele>162.6</ele>
        <time>2012-06-17T15:02:48Z</time>
      </trkpt>
      <trkpt lat="44.15518" lon="4.06379">
        <ele>161.16</ele>
        <time>2012-06-17T15:02:59Z</time>
      </trkpt>
      <trkpt lat="44.15511" lon="4.06379">
        <ele>161.64</ele>
        <time>2012-06-17T15:03:00Z</time>
      </trkpt>
      <trkpt lat="44.15505" lon="4.06378">
        <ele>161.16</ele>
        <time>2012-06-17T15:03:01Z</time>
      </trkpt>
      <trkpt lat="44.15491" lon="4.06375">
        <ele>160.2</ele>
        <time>2012-06-17T15:03:03Z</time>
      </trkpt>
      <trkpt lat="44.15477" lon="4.06374">
        <ele>159.24</ele>
        <time>2012-06-17T15:03:05Z</time>
      </trkpt>
      <trkpt lat="44.1547" lon="4.06374">
        <ele>159.72</ele>
        <time>2012-06-17T15:03:06Z</time>
      </trkpt>
      <trkpt lat="44.15463" lon="4.06373">
        <ele>159.24</ele>
        <time>2012-06-17T15:03:07Z</time>
      </trkpt>
      <trkpt lat="44.15395" lon="4.06356">
        <ele>157.31</ele>
        <time>2012-06-17T15:03:18Z</time>
      </trkpt>
      <trkpt lat="44.15389" lon="4.06353">
        <ele>157.79</ele>
        <time>2012-06-17T15:03:19Z</time>
      </trkpt>
      <trkpt lat="44.15355" lon="4.06339">
        <ele>157.31</ele>
        <time>2012-06-17T15:03:25Z</time>
      </trkpt>
      <trkpt lat="44.1535" lon="4.06338">
        <ele>157.31</ele>
        <time>2012-06-17T15:03:26Z</time>
      </trkpt>
      <trkpt lat="44.15346" lon="4.06335">
        <ele>157.31</ele>
        <time>2012-06-17T15:03:27Z</time>
      </trkpt>
      <trkpt lat="44.15337" lon="4.06332">
        <ele>157.31</ele>
        <time>2012-06-17T15:03:29Z</time>
      </trkpt>
      <trkpt lat="44.15319" lon="4.06326">
        <ele>156.83</ele>
        <time>2012-06-17T15:03:33Z</time>
      </trkpt>
      <trkpt lat="44.15271" lon="4.06299">
        <ele>156.35</ele>
        <time>2012-06-17T15:03:43Z</time>
      </trkpt>
      <trkpt lat="44.15266" lon="4.06297">
        <ele>156.35</ele>
        <time>2012-06-17T15:03:44Z</time>
      </trkpt>
      <trkpt lat="44.15261" lon="4.06294">
        <ele>156.35</ele>
        <time>2012-06-17T15:03:45Z</time>
      </trkpt>
      <trkpt lat="44.15257" lon="4.0629">
        <ele>156.35</ele>
        <time>2012-06-17T15:03:46Z</time>
      </trkpt>
      <trkpt lat="44.15252" lon="4.06286">
        <ele>155.87</ele>
        <time>2012-06-17T15:03:47Z</time>
      </trkpt>
      <trkpt lat="44.15238" lon="4.06276">
        <ele>155.87</ele>
        <time>2012-06-17T15:03:50Z</time>
      </trkpt>
      <trkpt lat="44.15234" lon="4.06272">
        <ele>156.35</ele>
        <time>2012-06-17T15:03:51Z</time>
      </trkpt>
      <trkpt lat="44.15173" lon="4.06227">
        <ele>155.39</ele>
        <time>2012-06-17T15:04:04Z</time>
      </trkpt>
      <trkpt lat="44.15168" lon="4.06223">
        <ele>154.91</ele>
        <time>2012-06-17T15:04:05Z</time>
      </trkpt>
      <trkpt lat="44.15117" lon="4.06188">
        <ele>155.87</ele>
        <time>2012-06-17T15:04:15Z</time>
      </trkpt>
      <trkpt lat="44.15113" lon="4.06183">
        <ele>155.87</ele>
        <time>2012-06-17T15:04:16Z</time>
      </trkpt>
      <trkpt lat="44.151" lon="4.06172">
        <ele>156.83</ele>
        <time>2012-06-17T15:04:19Z</time>
      </trkpt>
      <trkpt lat="44.15091" lon="4.06166">
        <ele>157.31</ele>
        <time>2012-06-17T15:04:21Z</time>
      </trkpt>
      <trkpt lat="44.15079" lon="4.06155">
        <ele>158.75</ele>
        <time>2012-06-17T15:04:24Z</time>
      </trkpt>
      <trkpt lat="44.15074" lon="4.06152">
        <ele>159.24</ele>
        <time>2012-06-17T15:04:25Z</time>
      </trkpt>
      <trkpt lat="44.1507" lon="4.06149">
        <ele>159.72</ele>
        <time>2012-06-17T15:04:26Z</time>
      </trkpt>
      <trkpt lat="44.15048" lon="4.0613">
        <ele>161.64</ele>
        <time>2012-06-17T15:04:32Z</time>
      </trkpt>
      <trkpt lat="44.15044" lon="4.06128">
        <ele>161.64</ele>
        <time>2012-06-17T15:04:33Z</time>
      </trkpt>
      <trkpt lat="44.15036" lon="4.06121">
        <ele>162.6</ele>
        <time>2012-06-17T15:04:35Z</time>
      </trkpt>
      <trkpt lat="44.15032" lon="4.06117">
        <ele>162.12</ele>
        <time>2012-06-17T15:04:36Z</time>
      </trkpt>
      <trkpt lat="44.14994" lon="4.06089">
        <ele>161.64</ele>
        <time>2012-06-17T15:04:44Z</time>
      </trkpt>
      <trkpt lat="44.14952" lon="4.0608">
        <ele>162.12</ele>
        <time>2012-06-17T15:04:53Z</time>
      </trkpt>
      <trkpt lat="44.1493" lon="4.0608">
        <ele>163.56</ele>
        <time>2012-06-17T15:04:57Z</time>
      </trkpt>
      <trkpt lat="44.14878" lon="4.06087">
        <ele>166.45</ele>
        <time>2012-06-17T15:05:09Z</time>
      </trkpt>
      <trkpt lat="44.14871" lon="4.06089">
        <ele>165.96</ele>
        <time>2012-06-17T15:05:11Z</time>
      </trkpt>
      <trkpt lat="44.14867" lon="4.06092">
        <ele>165.96</ele>
        <time>2012-06-17T15:05:12Z</time>
      </trkpt>
      <trkpt lat="44.14863" lon="4.06096">
        <ele>165.48</ele>
        <time>2012-06-17T15:05:13Z</time>
      </trkpt>
      <trkpt lat="44.14831" lon="4.06141">
        <ele>162.12</ele>
        <time>2012-06-17T15:05:20Z</time>
      </trkpt>
      <trkpt lat="44.14826" lon="4.06149">
        <ele>161.16</ele>
        <time>2012-06-17T15:05:21Z</time>
      </trkpt>
      <trkpt lat="44.14817" lon="4.06171">
        <ele>159.24</ele>
        <time>2012-06-17T15:05:24Z</time>
      </trkpt>
      <trkpt lat="44.14814" lon="4.06178">
        <ele>158.27</ele>
        <time>2012-06-17T15:05:25Z</time>
      </trkpt>
      <trkpt lat="44.14805" lon="4.06195">
        <ele>155.39</ele>
        <time>2012-06-17T15:05:29Z</time>
      </trkpt>
      <trkpt lat="44.14802" lon="4.06197">
        <ele>154.43</ele>
        <time>2012-06-17T15:05:30Z</time>
      </trkpt>
      <trkpt lat="44.14799" lon="4.06196">
        <ele>154.43</ele>
        <time>2012-06-17T15:05:31Z</time>
      </trkpt>
      <trkpt lat="44.14795" lon="4.06193">
        <ele>153.95</ele>
        <time>2012-06-17T15:05:32Z</time>
      </trkpt>
      <trkpt lat="44.14791" lon="4.0619">
        <ele>153.95</ele>
        <time>2012-06-17T15:05:33Z</time>
      </trkpt>
      <trkpt lat="44.14786" lon="4.06187">
        <ele>153.47</ele>
        <time>2012-06-17T15:05:34Z</time>
      </trkpt>
      <trkpt lat="44.14766" lon="4.06167">
        <ele>153.47</ele>
        <time>2012-06-17T15:05:39Z</time>
      </trkpt>
      <trkpt lat="44.14757" lon="4.06162">
        <ele>153.47</ele>
        <time>2012-06-17T15:05:41Z</time>
      </trkpt>
      <trkpt lat="44.14752" lon="4.0616">
        <ele>152.51</ele>
        <time>2012-06-17T15:05:42Z</time>
      </trkpt>
      <trkpt lat="44.14746" lon="4.0616">
        <ele>152.51</ele>
        <time>2012-06-17T15:05:43Z</time>
      </trkpt>
      <trkpt lat="44.14739" lon="4.06163">
        <ele>152.51</ele>
        <time>2012-06-17T15:05:44Z</time>
      </trkpt>
      <trkpt lat="44.14733" lon="4.06168">
        <ele>152.03</ele>
        <time>2012-06-17T15:05:45Z</time>
      </trkpt>
      <trkpt lat="44.14728" lon="4.06175">
        <ele>151.06</ele>
        <time>2012-06-17T15:05:46Z</time>
      </trkpt>
      <trkpt lat="44.14723" lon="4.06183">
        <ele>151.06</ele>
        <time>2012-06-17T15:05:47Z</time>
      </trkpt>
      <trkpt lat="44.14692" lon="4.06235">
        <ele>149.14</ele>
        <time>2012-06-17T15:05:54Z</time>
      </trkpt>
      <trkpt lat="44.14658" lon="4.06307">
        <ele>148.66</ele>
        <time>2012-06-17T15:06:04Z</time>
      </trkpt>
      <trkpt lat="44.14655" lon="4.06315">
        <ele>148.18</ele>
        <time>2012-06-17T15:06:05Z</time>
      </trkpt>
      <trkpt lat="44.14653" lon="4.06324">
        <ele>148.66</ele>
        <time>2012-06-17T15:06:06Z</time>
      </trkpt>
      <trkpt lat="44.14651" lon="4.06332">
        <ele>148.66</ele>
        <time>2012-06-17T15:06:07Z</time>
      </trkpt>
      <trkpt lat="44.14648" lon="4.06341">
        <ele>148.18</ele>
        <time>2012-06-17T15:06:08Z</time>
      </trkpt>
      <trkpt lat="44.14637" lon="4.06384">
        <ele>148.18</ele>
        <time>2012-06-17T15:06:13Z</time>
      </trkpt>
      <trkpt lat="44.14636" lon="4.06394">
        <ele>148.66</ele>
        <time>2012-06-17T15:06:14Z</time>
      </trkpt>
      <trkpt lat="44.14634" lon="4.06402">
        <ele>148.18</ele>
        <time>2012-06-17T15:06:15Z</time>
      </trkpt>
      <trkpt lat="44.14634" lon="4.0641">
        <ele>148.66</ele>
        <time>2012-06-17T15:06:16Z</time>
      </trkpt>
      <trkpt lat="44.14633" lon="4.06418">
        <ele>148.18</ele>
        <time>2012-06-17T15:06:17Z</time>
      </trkpt>
      <trkpt lat="44.14633" lon="4.06425">
        <ele>148.66</ele>
        <time>2012-06-17T15:06:18Z</time>
      </trkpt>
      <trkpt lat="44.14634" lon="4.06433">
        <ele>148.66</ele>
        <time>2012-06-17T15:06:19Z</time>
      </trkpt>
      <trkpt lat="44.14635" lon="4.0644">
        <ele>148.18</ele>
        <time>2012-06-17T15:06:20Z</time>
      </trkpt>
      <trkpt lat="44.14636" lon="4.06446">
        <ele>148.18</ele>
        <time>2012-06-17T15:06:21Z</time>
      </trkpt>
      <trkpt lat="44.14637" lon="4.0646">
        <ele>148.18</ele>
        <time>2012-06-17T15:06:23Z</time>
      </trkpt>
      <trkpt lat="44.14635" lon="4.06491">
        <ele>148.18</ele>
        <time>2012-06-17T15:06:28Z</time>
      </trkpt>
      <trkpt lat="44.14636" lon="4.06514">
        <ele>148.18</ele>
        <time>2012-06-17T15:06:32Z</time>
      </trkpt>
      <trkpt lat="44.14635" lon="4.0652">
        <ele>147.7</ele>
        <time>2012-06-17T15:06:33Z</time>
      </trkpt>
      <trkpt lat="44.14635" lon="4.06526">
        <ele>147.7</ele>
        <time>2012-06-17T15:06:34Z</time>
      </trkpt>
      <trkpt lat="44.14636" lon="4.0659">
        <ele>147.7</ele>
        <time>2012-06-17T15:06:46Z</time>
      </trkpt>
      <trkpt lat="44.14636" lon="4.06607">
        <ele>148.18</ele>
        <time>2012-06-17T15:06:49Z</time>
      </trkpt>
      <trkpt lat="44.14636" lon="4.06613">
        <ele>148.18</ele>
        <time>2012-06-17T15:06:50Z</time>
      </trkpt>
      <trkpt lat="44.14636" lon="4.06619">
        <ele>148.18</ele>
        <time>2012-06-17T15:06:51Z</time>
      </trkpt>
      <trkpt lat="44.14636" lon="4.06625">
        <ele>147.7</ele>
        <time>2012-06-17T15:06:52Z</time>
      </trkpt>
      <trkpt lat="44.14635" lon="4.06631">
        <ele>148.18</ele>
        <time>2012-06-17T15:06:53Z</time>
      </trkpt>
      <trkpt lat="44.14634" lon="4.06638">
        <ele>147.7</ele>
        <time>2012-06-17T15:06:54Z</time>
      </trkpt>
      <trkpt lat="44.14633" lon="4.06644">
        <ele>147.7</ele>
        <time>2012-06-17T15:06:55Z</time>
      </trkpt>
      <trkpt lat="44.14631" lon="4.06651">
        <ele>147.7</ele>
        <time>2012-06-17T15:06:56Z</time>
      </trkpt>
      <trkpt lat="44.1463" lon="4.06658">
        <ele>147.7</ele>
        <time>2012-06-17T15:06:57Z</time>
      </trkpt>
      <trkpt lat="44.14629" lon="4.06666">
        <ele>147.7</ele>
        <time>2012-06-17T15:06:58Z</time>
      </trkpt>
      <trkpt lat="44.14627" lon="4.06673">
        <ele>147.22</ele>
        <time>2012-06-17T15:06:59Z</time>
      </trkpt>
      <trkpt lat="44.14626" lon="4.0668">
        <ele>147.22</ele>
        <time>2012-06-17T15:07:00Z</time>
      </trkpt>
      <trkpt lat="44.14622" lon="4.06699">
        <ele>147.7</ele>
        <time>2012-06-17T15:07:03Z</time>
      </trkpt>
      <trkpt lat="44.14621" lon="4.06706">
        <ele>147.22</ele>
        <time>2012-06-17T15:07:04Z</time>
      </trkpt>
      <trkpt lat="44.14621" lon="4.06713">
        <ele>146.74</ele>
        <time>2012-06-17T15:07:05Z</time>
      </trkpt>
      <trkpt lat="44.14617" lon="4.06788">
        <ele>148.18</ele>
        <time>2012-06-17T15:07:15Z</time>
      </trkpt>
      <trkpt lat="44.14603" lon="4.06822">
        <ele>150.1</ele>
        <time>2012-06-17T15:07:23Z</time>
      </trkpt>
      <trkpt lat="44.14604" lon="4.06825">
        <ele>150.1</ele>
        <time>2012-06-17T15:07:24Z</time>
      </trkpt>
      <trkpt lat="44.14606" lon="4.06828">
        <ele>150.58</ele>
        <time>2012-06-17T15:07:25Z</time>
      </trkpt>
      <trkpt lat="44.14606" lon="4.06831">
        <ele>150.1</ele>
        <time>2012-06-17T15:07:26Z</time>
      </trkpt>
      <trkpt lat="44.14605" lon="4.06834">
        <ele>150.1</ele>
        <time>2012-06-17T15:07:27Z</time>
      </trkpt>
      <trkpt lat="44.14604" lon="4.06838">
        <ele>150.1</ele>
        <time>2012-06-17T15:07:28Z</time>
      </trkpt>
      <trkpt lat="44.14604" lon="4.06842">
        <ele>150.58</ele>
        <time>2012-06-17T15:07:29Z</time>
      </trkpt>
      <trkpt lat="44.14604" lon="4.06847">
        <ele>150.58</ele>
        <time>2012-06-17T15:07:30Z</time>
      </trkpt>
      <trkpt lat="44.14604" lon="4.06853">
        <ele>150.58</ele>
        <time>2012-06-17T15:07:31Z</time>
      </trkpt>
      <trkpt lat="44.14604" lon="4.06858">
        <ele>151.06</ele>
        <time>2012-06-17T15:07:32Z</time>
      </trkpt>
      <trkpt lat="44.14603" lon="4.06862">
        <ele>151.06</ele>
        <time>2012-06-17T15:07:33Z</time>
      </trkpt>
      <trkpt lat="44.14591" lon="4.06884">
        <ele>150.1</ele>
        <time>2012-06-17T15:07:38Z</time>
      </trkpt>
      <trkpt lat="44.14589" lon="4.0689">
        <ele>149.62</ele>
        <time>2012-06-17T15:07:39Z</time>
      </trkpt>
      <trkpt lat="44.14588" lon="4.06897">
        <ele>149.62</ele>
        <time>2012-06-17T15:07:40Z</time>
      </trkpt>
      <trkpt lat="44.14588" lon="4.06904">
        <ele>149.62</ele>
        <time>2012-06-17T15:07:41Z</time>
      </trkpt>
      <trkpt lat="44.14589" lon="4.06912">
        <ele>149.62</ele>
        <time>2012-06-17T15:07:42Z</time>
      </trkpt>
      <trkpt lat="44.1459" lon="4.06919">
        <ele>149.62</ele>
        <time>2012-06-17T15:07:43Z</time>
      </trkpt>
      <trkpt lat="44.14602" lon="4.0701">
        <ele>148.66</ele>
        <time>2012-06-17T15:07:56Z</time>
      </trkpt>
      <trkpt lat="44.14617" lon="4.07112">
        <ele>148.66</ele>
        <time>2012-06-17T15:08:11Z</time>
      </trkpt>
      <trkpt lat="44.14622" lon="4.0716">
        <ele>149.62</ele>
        <time>2012-06-17T15:08:18Z</time>
      </trkpt>
      <trkpt lat="44.14622" lon="4.07167">
        <ele>149.14</ele>
        <time>2012-06-17T15:08:19Z</time>
      </trkpt>
      <trkpt lat="44.14624" lon="4.07261">
        <ele>149.14</ele>
        <time>2012-06-17T15:08:33Z</time>
      </trkpt>
      <trkpt lat="44.14619" lon="4.07301">
        <ele>149.14</ele>
        <time>2012-06-17T15:08:39Z</time>
      </trkpt>
      <trkpt lat="44.14607" lon="4.07371">
        <ele>148.66</ele>
        <time>2012-06-17T15:08:50Z</time>
      </trkpt>
      <trkpt lat="44.14605" lon="4.07377">
        <ele>148.66</ele>
        <time>2012-06-17T15:08:51Z</time>
      </trkpt>
      <trkpt lat="44.14604" lon="4.07383">
        <ele>148.66</ele>
        <time>2012-06-17T15:08:52Z</time>
      </trkpt>
      <trkpt lat="44.14603" lon="4.07388">
        <ele>148.18</ele>
        <time>2012-06-17T15:08:53Z</time>
      </trkpt>
      <trkpt lat="44.14603" lon="4.07393">
        <ele>148.18</ele>
        <time>2012-06-17T15:08:54Z</time>
      </trkpt>
      <trkpt lat="44.146" lon="4.07403">
        <ele>148.66</ele>
        <time>2012-06-17T15:08:56Z</time>
      </trkpt>
      <trkpt lat="44.14587" lon="4.07442">
        <ele>148.66</ele>
        <time>2012-06-17T15:09:02Z</time>
      </trkpt>
      <trkpt lat="44.14585" lon="4.07449">
        <ele>148.66</ele>
        <time>2012-06-17T15:09:03Z</time>
      </trkpt>
      <trkpt lat="44.14542" lon="4.07544">
        <ele>148.18</ele>
        <time>2012-06-17T15:09:18Z</time>
      </trkpt>
      <trkpt lat="44.1453" lon="4.07568">
        <ele>147.7</ele>
        <time>2012-06-17T15:09:22Z</time>
      </trkpt>
      <trkpt lat="44.14499" lon="4.07619">
        <ele>147.22</ele>
        <time>2012-06-17T15:09:31Z</time>
      </trkpt>
      <trkpt lat="44.14495" lon="4.07625">
        <ele>146.74</ele>
        <time>2012-06-17T15:09:32Z</time>
      </trkpt>
      <trkpt lat="44.14493" lon="4.07632">
        <ele>146.74</ele>
        <time>2012-06-17T15:09:33Z</time>
      </trkpt>
      <trkpt lat="44.14489" lon="4.07645">
        <ele>146.26</ele>
        <time>2012-06-17T15:09:35Z</time>
      </trkpt>
      <trkpt lat="44.1448" lon="4.07656">
        <ele>146.26</ele>
        <time>2012-06-17T15:09:37Z</time>
      </trkpt>
      <trkpt lat="44.14476" lon="4.07662">
        <ele>146.26</ele>
        <time>2012-06-17T15:09:38Z</time>
      </trkpt>
      <trkpt lat="44.14468" lon="4.07675">
        <ele>145.78</ele>
        <time>2012-06-17T15:09:40Z</time>
      </trkpt>
      <trkpt lat="44.14459" lon="4.07689">
        <ele>145.3</ele>
        <time>2012-06-17T15:09:42Z</time>
      </trkpt>
      <trkpt lat="44.14454" lon="4.07695">
        <ele>145.3</ele>
        <time>2012-06-17T15:09:43Z</time>
      </trkpt>
      <trkpt lat="44.14443" lon="4.07707">
        <ele>145.3</ele>
        <time>2012-06-17T15:09:45Z</time>
      </trkpt>
      <trkpt lat="44.14438" lon="4.07712">
        <ele>145.78</ele>
        <time>2012-06-17T15:09:46Z</time>
      </trkpt>
      <trkpt lat="44.14419" lon="4.07734">
        <ele>144.82</ele>
        <time>2012-06-17T15:09:50Z</time>
      </trkpt>
      <trkpt lat="44.14349" lon="4.07794">
        <ele>144.82</ele>
        <time>2012-06-17T15:10:04Z</time>
      </trkpt>
      <trkpt lat="44.14277" lon="4.0785">
        <ele>145.78</ele>
        <time>2012-06-17T15:10:19Z</time>
      </trkpt>
      <trkpt lat="44.14212" lon="4.07876">
        <ele>143.37</ele>
        <time>2012-06-17T15:10:30Z</time>
      </trkpt>
      <trkpt lat="44.14113" lon="4.07918">
        <ele>142.89</ele>
        <time>2012-06-17T15:10:46Z</time>
      </trkpt>
      <trkpt lat="44.14091" lon="4.07929">
        <ele>142.89</ele>
        <time>2012-06-17T15:10:50Z</time>
      </trkpt>
      <trkpt lat="44.14086" lon="4.07929">
        <ele>142.89</ele>
        <time>2012-06-17T15:10:51Z</time>
      </trkpt>
      <trkpt lat="44.14077" lon="4.07929">
        <ele>142.89</ele>
        <time>2012-06-17T15:10:53Z</time>
      </trkpt>
      <trkpt lat="44.14073" lon="4.07929">
        <ele>142.89</ele>
        <time>2012-06-17T15:10:54Z</time>
      </trkpt>
      <trkpt lat="44.14068" lon="4.07931">
        <ele>142.89</ele>
        <time>2012-06-17T15:10:55Z</time>
      </trkpt>
      <trkpt lat="44.14063" lon="4.07933">
        <ele>143.37</ele>
        <time>2012-06-17T15:10:56Z</time>
      </trkpt>
      <trkpt lat="44.14058" lon="4.07935">
        <ele>142.89</ele>
        <time>2012-06-17T15:10:57Z</time>
      </trkpt>
      <trkpt lat="44.14053" lon="4.07938">
        <ele>143.37</ele>
        <time>2012-06-17T15:10:58Z</time>
      </trkpt>
      <trkpt lat="44.14003" lon="4.07959">
        <ele>143.37</ele>
        <time>2012-06-17T15:11:07Z</time>
      </trkpt>
      <trkpt lat="44.13998" lon="4.07961">
        <ele>143.37</ele>
        <time>2012-06-17T15:11:08Z</time>
      </trkpt>
      <trkpt lat="44.13912" lon="4.07991">
        <ele>141.93</ele>
        <time>2012-06-17T15:11:23Z</time>
      </trkpt>
      <trkpt lat="44.13872" lon="4.08002">
        <ele>141.93</ele>
        <time>2012-06-17T15:11:33Z</time>
      </trkpt>
      <trkpt lat="44.13837" lon="4.08011">
        <ele>141.93</ele>
        <time>2012-06-17T15:11:43Z</time>
      </trkpt>
      <trkpt lat="44.13824" lon="4.08021">
        <ele>141.45</ele>
        <time>2012-06-17T15:11:49Z</time>
      </trkpt>
      <trkpt lat="44.13823" lon="4.0802">
        <ele>141.93</ele>
        <time>2012-06-17T15:11:50Z</time>
      </trkpt>
      <trkpt lat="44.13821" lon="4.08019">
        <ele>141.45</ele>
        <time>2012-06-17T15:12:01Z</time>
      </trkpt>
      <trkpt lat="44.13812" lon="4.07996">
        <ele>142.41</ele>
        <time>2012-06-17T15:12:12Z</time>
      </trkpt>
      <trkpt lat="44.13811" lon="4.07995">
        <ele>141.93</ele>
        <time>2012-06-17T15:12:13Z</time>
      </trkpt>
      <trkpt lat="44.13809" lon="4.07995">
        <ele>141.93</ele>
        <time>2012-06-17T15:12:14Z</time>
      </trkpt>
      <trkpt lat="44.13807" lon="4.07994">
        <ele>141.93</ele>
        <time>2012-06-17T15:12:24Z</time>
      </trkpt>
      <trkpt lat="44.13806" lon="4.07994">
        <ele>141.45</ele>
        <time>2012-06-17T15:12:30Z</time>
      </trkpt>
      <trkpt lat="44.13804" lon="4.07994">
        <ele>141.45</ele>
        <time>2012-06-17T15:12:46Z</time>
      </trkpt>
      <trkpt lat="44.13803" lon="4.07995">
        <ele>141.45</ele>
        <time>2012-06-17T15:12:54Z</time>
      </trkpt>
      <trkpt lat="44.13773" lon="4.08001">
        <ele>141.93</ele>
        <time>2012-06-17T15:13:05Z</time>
      </trkpt>
      <trkpt lat="44.13726" lon="4.07993">
        <ele>142.41</ele>
        <time>2012-06-17T15:13:15Z</time>
      </trkpt>
      <trkpt lat="44.13646" lon="4.07981">
        <ele>141.45</ele>
        <time>2012-06-17T15:13:32Z</time>
      </trkpt>
      <trkpt lat="44.13641" lon="4.0798">
        <ele>141.45</ele>
        <time>2012-06-17T15:13:33Z</time>
      </trkpt>
      <trkpt lat="44.13591" lon="4.07974">
        <ele>141.45</ele>
        <time>2012-06-17T15:13:44Z</time>
      </trkpt>
      <trkpt lat="44.13586" lon="4.07972">
        <ele>141.45</ele>
        <time>2012-06-17T15:13:45Z</time>
      </trkpt>
      <trkpt lat="44.13505" lon="4.07922">
        <ele>141.45</ele>
        <time>2012-06-17T15:14:01Z</time>
      </trkpt>
      <trkpt lat="44.13401" lon="4.07846">
        <ele>140.97</ele>
        <time>2012-06-17T15:14:19Z</time>
      </trkpt>
      <trkpt lat="44.13384" lon="4.07833">
        <ele>140.97</ele>
        <time>2012-06-17T15:14:27Z</time>
      </trkpt>
      <trkpt lat="44.13383" lon="4.07835">
        <ele>141.45</ele>
        <time>2012-06-17T15:14:40Z</time>
      </trkpt>
      <trkpt lat="44.13381" lon="4.07836">
        <ele>141.45</ele>
        <time>2012-06-17T15:14:41Z</time>
      </trkpt>
      <trkpt lat="44.13379" lon="4.07837">
        <ele>141.45</ele>
        <time>2012-06-17T15:14:42Z</time>
      </trkpt>
      <trkpt lat="44.13375" lon="4.07838">
        <ele>141.45</ele>
        <time>2012-06-17T15:14:43Z</time>
      </trkpt>
      <trkpt lat="44.13372" lon="4.0784">
        <ele>141.93</ele>
        <time>2012-06-17T15:14:44Z</time>
      </trkpt>
      <trkpt lat="44.13369" lon="4.07842">
        <ele>141.45</ele>
        <time>2012-06-17T15:14:45Z</time>
      </trkpt>
      <trkpt lat="44.13367" lon="4.07846">
        <ele>141.45</ele>
        <time>2012-06-17T15:14:46Z</time>
      </trkpt>
      <trkpt lat="44.13335" lon="4.07909">
        <ele>140.01</ele>
        <time>2012-06-17T15:14:58Z</time>
      </trkpt>
      <trkpt lat="44.13316" lon="4.07931">
        <ele>138.57</ele>
        <time>2012-06-17T15:15:07Z</time>
      </trkpt>
      <trkpt lat="44.13302" lon="4.07915">
        <ele>138.57</ele>
        <time>2012-06-17T15:15:12Z</time>
      </trkpt>
      <trkpt lat="44.13298" lon="4.07912">
        <ele>139.05</ele>
        <time>2012-06-17T15:15:13Z</time>
      </trkpt>
      <trkpt lat="44.13262" lon="4.07884">
        <ele>140.01</ele>
        <time>2012-06-17T15:15:20Z</time>
      </trkpt>
      <trkpt lat="44.13253" lon="4.07876">
        <ele>140.01</ele>
        <time>2012-06-17T15:15:22Z</time>
      </trkpt>
      <trkpt lat="44.13219" lon="4.07853">
        <ele>138.57</ele>
        <time>2012-06-17T15:15:29Z</time>
      </trkpt>
      <trkpt lat="44.13214" lon="4.07851">
        <ele>138.57</ele>
        <time>2012-06-17T15:15:30Z</time>
      </trkpt>
      <trkpt lat="44.13183" lon="4.07838">
        <ele>138.57</ele>
        <time>2012-06-17T15:15:37Z</time>
      </trkpt>
      <trkpt lat="44.13178" lon="4.07836">
        <ele>138.57</ele>
        <time>2012-06-17T15:15:38Z</time>
      </trkpt>
      <trkpt lat="44.13164" lon="4.07832">
        <ele>138.09</ele>
        <time>2012-06-17T15:15:41Z</time>
      </trkpt>
      <trkpt lat="44.1316" lon="4.0783">
        <ele>138.09</ele>
        <time>2012-06-17T15:15:42Z</time>
      </trkpt>
      <trkpt lat="44.13085" lon="4.07781">
        <ele>138.57</ele>
        <time>2012-06-17T15:15:57Z</time>
      </trkpt>
      <trkpt lat="44.13007" lon="4.07729">
        <ele>138.57</ele>
        <time>2012-06-17T15:16:11Z</time>
      </trkpt>
      <trkpt lat="44.12938" lon="4.07683">
        <ele>138.57</ele>
        <time>2012-06-17T15:16:24Z</time>
      </trkpt>
      <trkpt lat="44.12918" lon="4.07668">
        <ele>138.57</ele>
        <time>2012-06-17T15:16:28Z</time>
      </trkpt>
      <trkpt lat="44.12906" lon="4.07654">
        <ele>138.57</ele>
        <time>2012-06-17T15:16:31Z</time>
      </trkpt>
      <trkpt lat="44.12901" lon="4.07649">
        <ele>138.57</ele>
        <time>2012-06-17T15:16:32Z</time>
      </trkpt>
      <trkpt lat="44.12897" lon="4.07645">
        <ele>138.57</ele>
        <time>2012-06-17T15:16:33Z</time>
      </trkpt>
      <trkpt lat="44.12888" lon="4.07637">
        <ele>138.57</ele>
        <time>2012-06-17T15:16:35Z</time>
      </trkpt>
      <trkpt lat="44.12883" lon="4.07634">
        <ele>138.57</ele>
        <time>2012-06-17T15:16:36Z</time>
      </trkpt>
      <trkpt lat="44.12878" lon="4.07633">
        <ele>138.57</ele>
        <time>2012-06-17T15:16:37Z</time>
      </trkpt>
      <trkpt lat="44.12873" lon="4.07633">
        <ele>138.57</ele>
        <time>2012-06-17T15:16:38Z</time>
      </trkpt>
      <trkpt lat="44.12868" lon="4.07634">
        <ele>138.57</ele>
        <time>2012-06-17T15:16:39Z</time>
      </trkpt>
      <trkpt lat="44.12864" lon="4.07637">
        <ele>138.57</ele>
        <time>2012-06-17T15:16:40Z</time>
      </trkpt>
      <trkpt lat="44.12861" lon="4.0764">
        <ele>138.57</ele>
        <time>2012-06-17T15:16:41Z</time>
      </trkpt>
      <trkpt lat="44.12858" lon="4.07645">
        <ele>138.09</ele>
        <time>2012-06-17T15:16:42Z</time>
      </trkpt>
      <trkpt lat="44.12856" lon="4.0765">
        <ele>138.57</ele>
        <time>2012-06-17T15:16:43Z</time>
      </trkpt>
      <trkpt lat="44.12855" lon="4.07655">
        <ele>138.57</ele>
        <time>2012-06-17T15:16:44Z</time>
      </trkpt>
      <trkpt lat="44.12854" lon="4.0766">
        <ele>138.09</ele>
        <time>2012-06-17T15:16:45Z</time>
      </trkpt>
      <trkpt lat="44.12853" lon="4.07665">
        <ele>138.57</ele>
        <time>2012-06-17T15:16:46Z</time>
      </trkpt>
      <trkpt lat="44.12851" lon="4.07669">
        <ele>138.57</ele>
        <time>2012-06-17T15:16:47Z</time>
      </trkpt>
      <trkpt lat="44.12848" lon="4.07672">
        <ele>138.09</ele>
        <time>2012-06-17T15:16:48Z</time>
      </trkpt>
      <trkpt lat="44.12845" lon="4.07674">
        <ele>138.57</ele>
        <time>2012-06-17T15:16:49Z</time>
      </trkpt>
      <trkpt lat="44.12842" lon="4.07675">
        <ele>138.09</ele>
        <time>2012-06-17T15:16:50Z</time>
      </trkpt>
      <trkpt lat="44.12838" lon="4.07676">
        <ele>138.09</ele>
        <time>2012-06-17T15:16:51Z</time>
      </trkpt>
      <trkpt lat="44.12797" lon="4.07683">
        <ele>139.05</ele>
        <time>2012-06-17T15:17:05Z</time>
      </trkpt>
      <trkpt lat="44.12751" lon="4.07696">
        <ele>140.49</ele>
        <time>2012-06-17T15:17:18Z</time>
      </trkpt>
      <trkpt lat="44.12721" lon="4.07717">
        <ele>141.93</ele>
        <time>2012-06-17T15:17:29Z</time>
      </trkpt>
      <trkpt lat="44.12719" lon="4.07722">
        <ele>141.93</ele>
        <time>2012-06-17T15:17:30Z</time>
      </trkpt>
      <trkpt lat="44.12717" lon="4.07727">
        <ele>141.45</ele>
        <time>2012-06-17T15:17:31Z</time>
      </trkpt>
      <trkpt lat="44.12715" lon="4.07733">
        <ele>141.93</ele>
        <time>2012-06-17T15:17:32Z</time>
      </trkpt>
      <trkpt lat="44.12716" lon="4.07746">
        <ele>141.45</ele>
        <time>2012-06-17T15:17:34Z</time>
      </trkpt>
      <trkpt lat="44.12719" lon="4.07766">
        <ele>142.41</ele>
        <time>2012-06-17T15:17:37Z</time>
      </trkpt>
      <trkpt lat="44.12723" lon="4.07818">
        <ele>142.41</ele>
        <time>2012-06-17T15:17:45Z</time>
      </trkpt>
      <trkpt lat="44.12724" lon="4.07824">
        <ele>142.89</ele>
        <time>2012-06-17T15:17:46Z</time>
      </trkpt>
      <trkpt lat="44.12725" lon="4.0783">
        <ele>143.37</ele>
        <time>2012-06-17T15:17:47Z</time>
      </trkpt>
      <trkpt lat="44.12725" lon="4.07835">
        <ele>142.89</ele>
        <time>2012-06-17T15:17:48Z</time>
      </trkpt>
      <trkpt lat="44.12725" lon="4.07841">
        <ele>142.89</ele>
        <time>2012-06-17T15:17:49Z</time>
      </trkpt>
      <trkpt lat="44.12725" lon="4.07846">
        <ele>143.37</ele>
        <time>2012-06-17T15:17:50Z</time>
      </trkpt>
      <trkpt lat="44.12725" lon="4.07852">
        <ele>143.37</ele>
        <time>2012-06-17T15:17:51Z</time>
      </trkpt>
      <trkpt lat="44.12725" lon="4.07857">
        <ele>143.37</ele>
        <time>2012-06-17T15:17:52Z</time>
      </trkpt>
      <trkpt lat="44.12723" lon="4.07861">
        <ele>143.37</ele>
        <time>2012-06-17T15:17:53Z</time>
      </trkpt>
      <trkpt lat="44.12721" lon="4.07864">
        <ele>143.37</ele>
        <time>2012-06-17T15:17:54Z</time>
      </trkpt>
      <trkpt lat="44.1271" lon="4.0787">
        <ele>143.37</ele>
        <time>2012-06-17T15:17:57Z</time>
      </trkpt>
      <trkpt lat="44.12707" lon="4.07872">
        <ele>142.89</ele>
        <time>2012-06-17T15:17:58Z</time>
      </trkpt>
      <trkpt lat="44.12704" lon="4.07876">
        <ele>142.89</ele>
        <time>2012-06-17T15:17:59Z</time>
      </trkpt>
      <trkpt lat="44.12702" lon="4.07881">
        <ele>142.41</ele>
        <time>2012-06-17T15:18:00Z</time>
      </trkpt>
      <trkpt lat="44.127" lon="4.07886">
        <ele>142.89</ele>
        <time>2012-06-17T15:18:01Z</time>
      </trkpt>
      <trkpt lat="44.12699" lon="4.07892">
        <ele>142.89</ele>
        <time>2012-06-17T15:18:02Z</time>
      </trkpt>
      <trkpt lat="44.12699" lon="4.07898">
        <ele>142.41</ele>
        <time>2012-06-17T15:18:03Z</time>
      </trkpt>
      <trkpt lat="44.127" lon="4.07904">
        <ele>142.41</ele>
        <time>2012-06-17T15:18:04Z</time>
      </trkpt>
      <trkpt lat="44.12701" lon="4.07908">
        <ele>142.89</ele>
        <time>2012-06-17T15:18:05Z</time>
      </trkpt>
      <trkpt lat="44.12688" lon="4.07945">
        <ele>142.89</ele>
        <time>2012-06-17T15:18:13Z</time>
      </trkpt>
      <trkpt lat="44.12686" lon="4.0795">
        <ele>142.41</ele>
        <time>2012-06-17T15:18:14Z</time>
      </trkpt>
      <trkpt lat="44.12682" lon="4.07955">
        <ele>141.93</ele>
        <time>2012-06-17T15:18:15Z</time>
      </trkpt>
      <trkpt lat="44.1267" lon="4.07968">
        <ele>141.93</ele>
        <time>2012-06-17T15:18:18Z</time>
      </trkpt>
      <trkpt lat="44.12665" lon="4.07971">
        <ele>141.93</ele>
        <time>2012-06-17T15:18:19Z</time>
      </trkpt>
      <trkpt lat="44.12655" lon="4.07977">
        <ele>141.93</ele>
        <time>2012-06-17T15:18:21Z</time>
      </trkpt>
      <trkpt lat="44.1265" lon="4.07979">
        <ele>141.45</ele>
        <time>2012-06-17T15:18:22Z</time>
      </trkpt>
      <trkpt lat="44.12644" lon="4.0798">
        <ele>140.49</ele>
        <time>2012-06-17T15:18:23Z</time>
      </trkpt>
      <trkpt lat="44.12639" lon="4.07981">
        <ele>140.97</ele>
        <time>2012-06-17T15:18:24Z</time>
      </trkpt>
      <trkpt lat="44.12633" lon="4.0798">
        <ele>140.49</ele>
        <time>2012-06-17T15:18:25Z</time>
      </trkpt>
      <trkpt lat="44.12629" lon="4.07981">
        <ele>140.49</ele>
        <time>2012-06-17T15:18:26Z</time>
      </trkpt>
      <trkpt lat="44.12627" lon="4.07986">
        <ele>140.01</ele>
        <time>2012-06-17T15:18:27Z</time>
      </trkpt>
      <trkpt lat="44.12627" lon="4.07993">
        <ele>140.01</ele>
        <time>2012-06-17T15:18:28Z</time>
      </trkpt>
      <trkpt lat="44.12629" lon="4.08">
        <ele>140.01</ele>
        <time>2012-06-17T15:18:29Z</time>
      </trkpt>
      <trkpt lat="44.12632" lon="4.08007">
        <ele>140.01</ele>
        <time>2012-06-17T15:18:30Z</time>
      </trkpt>
      <trkpt lat="44.12634" lon="4.08014">
        <ele>140.01</ele>
        <time>2012-06-17T15:18:31Z</time>
      </trkpt>
      <trkpt lat="44.12637" lon="4.08021">
        <ele>140.01</ele>
        <time>2012-06-17T15:18:32Z</time>
      </trkpt>
      <trkpt lat="44.12651" lon="4.08063">
        <ele>140.01</ele>
        <time>2012-06-17T15:18:38Z</time>
      </trkpt>
      <trkpt lat="44.12653" lon="4.0807">
        <ele>139.53</ele>
        <time>2012-06-17T15:18:39Z</time>
      </trkpt>
      <trkpt lat="44.12665" lon="4.08105">
        <ele>139.53</ele>
        <time>2012-06-17T15:18:44Z</time>
      </trkpt>
      <trkpt lat="44.12675" lon="4.08132">
        <ele>139.05</ele>
        <time>2012-06-17T15:18:48Z</time>
      </trkpt>
      <trkpt lat="44.12689" lon="4.08176">
        <ele>139.53</ele>
        <time>2012-06-17T15:18:54Z</time>
      </trkpt>
      <trkpt lat="44.12702" lon="4.08212">
        <ele>139.53</ele>
        <time>2012-06-17T15:18:59Z</time>
      </trkpt>
      <trkpt lat="44.12703" lon="4.0822">
        <ele>139.05</ele>
        <time>2012-06-17T15:19:00Z</time>
      </trkpt>
      <trkpt lat="44.12705" lon="4.08228">
        <ele>139.53</ele>
        <time>2012-06-17T15:19:01Z</time>
      </trkpt>
      <trkpt lat="44.12708" lon="4.08236">
        <ele>139.53</ele>
        <time>2012-06-17T15:19:02Z</time>
      </trkpt>
      <trkpt lat="44.12711" lon="4.08243">
        <ele>139.53</ele>
        <time>2012-06-17T15:19:03Z</time>
      </trkpt>
      <trkpt lat="44.12713" lon="4.0825">
        <ele>139.53</ele>
        <time>2012-06-17T15:19:04Z</time>
      </trkpt>
      <trkpt lat="44.12716" lon="4.08257">
        <ele>139.05</ele>
        <time>2012-06-17T15:19:05Z</time>
      </trkpt>
      <trkpt lat="44.12729" lon="4.08303">
        <ele>139.53</ele>
        <time>2012-06-17T15:19:12Z</time>
      </trkpt>
      <trkpt lat="44.12739" lon="4.0834">
        <ele>140.49</ele>
        <time>2012-06-17T15:19:18Z</time>
      </trkpt>
      <trkpt lat="44.12741" lon="4.08346">
        <ele>140.49</ele>
        <time>2012-06-17T15:19:19Z</time>
      </trkpt>
      <trkpt lat="44.12743" lon="4.08351">
        <ele>140.01</ele>
        <time>2012-06-17T15:19:20Z</time>
      </trkpt>
      <trkpt lat="44.12744" lon="4.08355">
        <ele>140.01</ele>
        <time>2012-06-17T15:19:21Z</time>
      </trkpt>
      <trkpt lat="44.12746" lon="4.08359">
        <ele>140.01</ele>
        <time>2012-06-17T15:19:22Z</time>
      </trkpt>
      <trkpt lat="44.12754" lon="4.0838">
        <ele>140.01</ele>
        <time>2012-06-17T15:19:28Z</time>
      </trkpt>
      <trkpt lat="44.12754" lon="4.08384">
        <ele>140.49</ele>
        <time>2012-06-17T15:19:29Z</time>
      </trkpt>
      <trkpt lat="44.12754" lon="4.08389">
        <ele>140.49</ele>
        <time>2012-06-17T15:19:30Z</time>
      </trkpt>
      <trkpt lat="44.12758" lon="4.08404">
        <ele>140.49</ele>
        <time>2012-06-17T15:19:33Z</time>
      </trkpt>
      <trkpt lat="44.12761" lon="4.08408">
        <ele>140.49</ele>
        <time>2012-06-17T15:19:34Z</time>
      </trkpt>
      <trkpt lat="44.12764" lon="4.08412">
        <ele>140.97</ele>
        <time>2012-06-17T15:19:35Z</time>
      </trkpt>
      <trkpt lat="44.12766" lon="4.08416">
        <ele>140.97</ele>
        <time>2012-06-17T15:19:36Z</time>
      </trkpt>
      <trkpt lat="44.12767" lon="4.08421">
        <ele>140.97</ele>
        <time>2012-06-17T15:19:37Z</time>
      </trkpt>
      <trkpt lat="44.12767" lon="4.08426">
        <ele>140.97</ele>
        <time>2012-06-17T15:19:38Z</time>
      </trkpt>
      <trkpt lat="44.12766" lon="4.0843">
        <ele>140.97</ele>
        <time>2012-06-17T15:19:39Z</time>
      </trkpt>
      <trkpt lat="44.12766" lon="4.08435">
        <ele>140.97</ele>
        <time>2012-06-17T15:19:40Z</time>
      </trkpt>
      <trkpt lat="44.12765" lon="4.08439">
        <ele>140.97</ele>
        <time>2012-06-17T15:19:41Z</time>
      </trkpt>
      <trkpt lat="44.12765" lon="4.08485">
        <ele>140.97</ele>
        <time>2012-06-17T15:19:52Z</time>
      </trkpt>
      <trkpt lat="44.12765" lon="4.08491">
        <ele>140.97</ele>
        <time>2012-06-17T15:19:54Z</time>
      </trkpt>
      <trkpt lat="44.12761" lon="4.08495">
        <ele>141.45</ele>
        <time>2012-06-17T15:19:59Z</time>
      </trkpt>
      <trkpt lat="44.12761" lon="4.08501">
        <ele>140.97</ele>
        <time>2012-06-17T15:20:11Z</time>
      </trkpt>
      <trkpt lat="44.12761" lon="4.08501">
        <ele>137.61</ele>
        <time>2012-06-17T15:20:12Z</time>
      </trkpt>
      <trkpt lat="44.12761" lon="4.08501">
        <ele>141.45</ele>
        <time>2012-06-17T15:20:13Z</time>
      </trkpt>
      <trkpt lat="44.12762" lon="4.085">
        <ele>140.97</ele>
        <time>2012-06-17T15:20:24Z</time>
      </trkpt>
      <trkpt lat="44.12762" lon="4.08498">
        <ele>140.97</ele>
        <time>2012-06-17T15:20:39Z</time>
      </trkpt>
      <trkpt lat="44.12761" lon="4.08496">
        <ele>140.97</ele>
        <time>2012-06-17T15:20:55Z</time>
      </trkpt>
      <trkpt lat="44.1276" lon="4.08493">
        <ele>141.45</ele>
        <time>2012-06-17T15:21:26Z</time>
      </trkpt>
    </trkseg>
  </trk>
</gpx>